<?xml version="1.0" encoding="UTF-8" standalone="no" ?>
<gpx xmlns="http://www.topografix.com/GPX/1/1" xmlns:xsi="http://www.w3.org/2001/XMLSchema-instance" xsi:schemaLocation="http://www.topografix.com/GPX/1/1 http://www.topografix.com/GPX/1/1/gpx.xsd" version="1.1" creator="VisuGPX - https://www.visugpx.com">
  <metadata>
    <name>CMC Vallon de Quioulès</name>
    <desc><![CDATA[Très belle randonnée au fin fond de l'Ariège, c'est la première que je marque en Top rando. Météo agréable pour cette sortie à 18, effectuée le 18 novembre 2018, peut-être que 18 est mon chiffre fétiche. 
Au niveau balisage, ne vous attendez pas au grand luxe,  quelques taches vertes de temps en temps permettent de vérifier que l'on emprunte le bon sentier. 
En automne les feuilles masquent les différents (petits) pièges : cailloux et flaques de boue et obligent à quelques rattrapages de l'équilibre ou de chaussure.
Mais la variété et la beauté de l'itinéraire valent vraiement tous les efforts que l'on peut déployer. J'y reviendrai, peut-être au printemps pour explorer plus loin ce magnifique vallon.]]></desc>
  </metadata>
  <trk>
    <name><![CDATA[Aston Marche à pied]]></name>
    <trkseg>
      <trkpt lat="42.70441" lon="1.66205">
        <ele>1196</ele>
        <time>2018-11-18T08:49:25.000Z</time>
      </trkpt>
      <trkpt lat="42.70442" lon="1.66204">
        <ele>1196</ele>
        <time>2018-11-18T08:49:27.000Z</time>
      </trkpt>
      <trkpt lat="42.70439" lon="1.6623">
        <ele>1188</ele>
        <time>2018-11-18T08:49:29.000Z</time>
      </trkpt>
      <trkpt lat="42.70448" lon="1.66227">
        <ele>1186</ele>
        <time>2018-11-18T08:49:32.000Z</time>
      </trkpt>
      <trkpt lat="42.70452" lon="1.66229">
        <ele>1184</ele>
        <time>2018-11-18T08:49:34.000Z</time>
      </trkpt>
      <trkpt lat="42.70451" lon="1.66229">
        <ele>1185</ele>
        <time>2018-11-18T08:49:36.000Z</time>
      </trkpt>
      <trkpt lat="42.7045" lon="1.66234">
        <ele>1183</ele>
        <time>2018-11-18T08:49:38.000Z</time>
      </trkpt>
      <trkpt lat="42.70452" lon="1.6624">
        <ele>1180</ele>
        <time>2018-11-18T08:49:40.000Z</time>
      </trkpt>
      <trkpt lat="42.70448" lon="1.6624">
        <ele>1182</ele>
        <time>2018-11-18T08:49:42.000Z</time>
      </trkpt>
      <trkpt lat="42.70442" lon="1.66239">
        <ele>1184</ele>
        <time>2018-11-18T08:49:44.000Z</time>
      </trkpt>
      <trkpt lat="42.70446" lon="1.6623">
        <ele>1186</ele>
        <time>2018-11-18T08:49:46.000Z</time>
      </trkpt>
      <trkpt lat="42.70451" lon="1.66222">
        <ele>1187</ele>
        <time>2018-11-18T08:49:48.000Z</time>
      </trkpt>
      <trkpt lat="42.70446" lon="1.66227">
        <ele>1187</ele>
        <time>2018-11-18T08:49:50.000Z</time>
      </trkpt>
      <trkpt lat="42.70437" lon="1.66227">
        <ele>1189</ele>
        <time>2018-11-18T08:49:52.000Z</time>
      </trkpt>
      <trkpt lat="42.70441" lon="1.66225">
        <ele>1189</ele>
        <time>2018-11-18T08:49:54.000Z</time>
      </trkpt>
      <trkpt lat="42.70432" lon="1.66228">
        <ele>1190</ele>
        <time>2018-11-18T08:49:56.000Z</time>
      </trkpt>
      <trkpt lat="42.70432" lon="1.66228">
        <ele>1191</ele>
        <time>2018-11-18T08:49:58.000Z</time>
      </trkpt>
      <trkpt lat="42.70433" lon="1.66227">
        <ele>1191</ele>
        <time>2018-11-18T08:50:00.000Z</time>
      </trkpt>
      <trkpt lat="42.70434" lon="1.66225">
        <ele>1191</ele>
        <time>2018-11-18T08:50:02.000Z</time>
      </trkpt>
      <trkpt lat="42.70439" lon="1.66222">
        <ele>1191</ele>
        <time>2018-11-18T08:50:04.000Z</time>
      </trkpt>
      <trkpt lat="42.70441" lon="1.66221">
        <ele>1190</ele>
        <time>2018-11-18T08:50:06.000Z</time>
      </trkpt>
      <trkpt lat="42.70442" lon="1.6622">
        <ele>1190</ele>
        <time>2018-11-18T08:50:08.000Z</time>
      </trkpt>
      <trkpt lat="42.70442" lon="1.6622">
        <ele>1190</ele>
        <time>2018-11-18T08:50:10.000Z</time>
      </trkpt>
      <trkpt lat="42.70442" lon="1.6622">
        <ele>1190</ele>
        <time>2018-11-18T08:50:12.000Z</time>
      </trkpt>
      <trkpt lat="42.70442" lon="1.66219">
        <ele>1191</ele>
        <time>2018-11-18T08:50:14.000Z</time>
      </trkpt>
      <trkpt lat="42.70442" lon="1.66218">
        <ele>1191</ele>
        <time>2018-11-18T08:50:16.000Z</time>
      </trkpt>
      <trkpt lat="42.70441" lon="1.66217">
        <ele>1192</ele>
        <time>2018-11-18T08:50:18.000Z</time>
      </trkpt>
      <trkpt lat="42.70441" lon="1.66215">
        <ele>1192</ele>
        <time>2018-11-18T08:50:20.000Z</time>
      </trkpt>
      <trkpt lat="42.7044" lon="1.66215">
        <ele>1193</ele>
        <time>2018-11-18T08:50:22.000Z</time>
      </trkpt>
      <trkpt lat="42.7044" lon="1.66214">
        <ele>1193</ele>
        <time>2018-11-18T08:50:24.000Z</time>
      </trkpt>
      <trkpt lat="42.70441" lon="1.66212">
        <ele>1193</ele>
        <time>2018-11-18T08:50:26.000Z</time>
      </trkpt>
      <trkpt lat="42.70443" lon="1.66211">
        <ele>1193</ele>
        <time>2018-11-18T08:50:28.000Z</time>
      </trkpt>
      <trkpt lat="42.70443" lon="1.6621">
        <ele>1193</ele>
        <time>2018-11-18T08:50:30.000Z</time>
      </trkpt>
      <trkpt lat="42.70443" lon="1.6621">
        <ele>1194</ele>
        <time>2018-11-18T08:50:32.000Z</time>
      </trkpt>
      <trkpt lat="42.70443" lon="1.66209">
        <ele>1194</ele>
        <time>2018-11-18T08:50:34.000Z</time>
      </trkpt>
      <trkpt lat="42.70443" lon="1.66209">
        <ele>1194</ele>
        <time>2018-11-18T08:50:36.000Z</time>
      </trkpt>
      <trkpt lat="42.70442" lon="1.6621">
        <ele>1194</ele>
        <time>2018-11-18T08:50:38.000Z</time>
      </trkpt>
      <trkpt lat="42.70442" lon="1.6621">
        <ele>1194</ele>
        <time>2018-11-18T08:50:40.000Z</time>
      </trkpt>
      <trkpt lat="42.70442" lon="1.66211">
        <ele>1194</ele>
        <time>2018-11-18T08:50:42.000Z</time>
      </trkpt>
      <trkpt lat="42.70441" lon="1.6621">
        <ele>1194</ele>
        <time>2018-11-18T08:50:44.000Z</time>
      </trkpt>
      <trkpt lat="42.7044" lon="1.66211">
        <ele>1194</ele>
        <time>2018-11-18T08:50:46.000Z</time>
      </trkpt>
      <trkpt lat="42.70441" lon="1.66211">
        <ele>1194</ele>
        <time>2018-11-18T08:50:48.000Z</time>
      </trkpt>
      <trkpt lat="42.7044" lon="1.66211">
        <ele>1194</ele>
        <time>2018-11-18T08:50:50.000Z</time>
      </trkpt>
      <trkpt lat="42.70439" lon="1.66212">
        <ele>1194</ele>
        <time>2018-11-18T08:50:52.000Z</time>
      </trkpt>
      <trkpt lat="42.70438" lon="1.66213">
        <ele>1194</ele>
        <time>2018-11-18T08:50:54.000Z</time>
      </trkpt>
      <trkpt lat="42.70439" lon="1.66213">
        <ele>1193</ele>
        <time>2018-11-18T08:50:56.000Z</time>
      </trkpt>
      <trkpt lat="42.70439" lon="1.66215">
        <ele>1193</ele>
        <time>2018-11-18T08:50:58.000Z</time>
      </trkpt>
      <trkpt lat="42.70439" lon="1.66215">
        <ele>1193</ele>
        <time>2018-11-18T08:51:00.000Z</time>
      </trkpt>
      <trkpt lat="42.70437" lon="1.66216">
        <ele>1193</ele>
        <time>2018-11-18T08:51:02.000Z</time>
      </trkpt>
      <trkpt lat="42.70438" lon="1.66215">
        <ele>1193</ele>
        <time>2018-11-18T08:51:04.000Z</time>
      </trkpt>
      <trkpt lat="42.70437" lon="1.66216">
        <ele>1193</ele>
        <time>2018-11-18T08:51:06.000Z</time>
      </trkpt>
      <trkpt lat="42.70436" lon="1.66217">
        <ele>1193</ele>
        <time>2018-11-18T08:51:08.000Z</time>
      </trkpt>
      <trkpt lat="42.70436" lon="1.66218">
        <ele>1193</ele>
        <time>2018-11-18T08:51:10.000Z</time>
      </trkpt>
      <trkpt lat="42.70435" lon="1.66217">
        <ele>1193</ele>
        <time>2018-11-18T08:51:12.000Z</time>
      </trkpt>
      <trkpt lat="42.70434" lon="1.66216">
        <ele>1194</ele>
        <time>2018-11-18T08:51:14.000Z</time>
      </trkpt>
      <trkpt lat="42.70434" lon="1.66215">
        <ele>1195</ele>
        <time>2018-11-18T08:51:16.000Z</time>
      </trkpt>
      <trkpt lat="42.70434" lon="1.66214">
        <ele>1195</ele>
        <time>2018-11-18T08:51:18.000Z</time>
      </trkpt>
      <trkpt lat="42.70433" lon="1.66214">
        <ele>1195</ele>
        <time>2018-11-18T08:51:20.000Z</time>
      </trkpt>
      <trkpt lat="42.70434" lon="1.66212">
        <ele>1195</ele>
        <time>2018-11-18T08:51:22.000Z</time>
      </trkpt>
      <trkpt lat="42.70433" lon="1.66211">
        <ele>1196</ele>
        <time>2018-11-18T08:51:24.000Z</time>
      </trkpt>
      <trkpt lat="42.70432" lon="1.66212">
        <ele>1196</ele>
        <time>2018-11-18T08:51:26.000Z</time>
      </trkpt>
      <trkpt lat="42.70432" lon="1.66211">
        <ele>1196</ele>
        <time>2018-11-18T08:51:28.000Z</time>
      </trkpt>
      <trkpt lat="42.70433" lon="1.6621">
        <ele>1196</ele>
        <time>2018-11-18T08:51:30.000Z</time>
      </trkpt>
      <trkpt lat="42.70433" lon="1.66208">
        <ele>1197</ele>
        <time>2018-11-18T08:51:32.000Z</time>
      </trkpt>
      <trkpt lat="42.70432" lon="1.66207">
        <ele>1197</ele>
        <time>2018-11-18T08:51:34.000Z</time>
      </trkpt>
      <trkpt lat="42.70432" lon="1.66206">
        <ele>1198</ele>
        <time>2018-11-18T08:51:36.000Z</time>
      </trkpt>
      <trkpt lat="42.70434" lon="1.66202">
        <ele>1199</ele>
        <time>2018-11-18T08:51:38.000Z</time>
      </trkpt>
      <trkpt lat="42.70434" lon="1.66201">
        <ele>1199</ele>
        <time>2018-11-18T08:51:40.000Z</time>
      </trkpt>
      <trkpt lat="42.70434" lon="1.662">
        <ele>1200</ele>
        <time>2018-11-18T08:51:42.000Z</time>
      </trkpt>
      <trkpt lat="42.70433" lon="1.66199">
        <ele>1200</ele>
        <time>2018-11-18T08:51:44.000Z</time>
      </trkpt>
      <trkpt lat="42.70432" lon="1.66198">
        <ele>1201</ele>
        <time>2018-11-18T08:51:46.000Z</time>
      </trkpt>
      <trkpt lat="42.70431" lon="1.66197">
        <ele>1201</ele>
        <time>2018-11-18T08:51:48.000Z</time>
      </trkpt>
      <trkpt lat="42.70428" lon="1.66197">
        <ele>1202</ele>
        <time>2018-11-18T08:51:50.000Z</time>
      </trkpt>
      <trkpt lat="42.70428" lon="1.66196">
        <ele>1203</ele>
        <time>2018-11-18T08:51:52.000Z</time>
      </trkpt>
      <trkpt lat="42.70426" lon="1.66197">
        <ele>1203</ele>
        <time>2018-11-18T08:51:54.000Z</time>
      </trkpt>
      <trkpt lat="42.70425" lon="1.66199">
        <ele>1203</ele>
        <time>2018-11-18T08:51:56.000Z</time>
      </trkpt>
      <trkpt lat="42.70423" lon="1.66202">
        <ele>1202</ele>
        <time>2018-11-18T08:51:58.000Z</time>
      </trkpt>
      <trkpt lat="42.70423" lon="1.66202">
        <ele>1202</ele>
        <time>2018-11-18T08:52:00.000Z</time>
      </trkpt>
      <trkpt lat="42.70422" lon="1.66203">
        <ele>1202</ele>
        <time>2018-11-18T08:52:02.000Z</time>
      </trkpt>
      <trkpt lat="42.70422" lon="1.66202">
        <ele>1202</ele>
        <time>2018-11-18T08:52:04.000Z</time>
      </trkpt>
      <trkpt lat="42.70421" lon="1.66201">
        <ele>1203</ele>
        <time>2018-11-18T08:52:06.000Z</time>
      </trkpt>
      <trkpt lat="42.7042" lon="1.66201">
        <ele>1203</ele>
        <time>2018-11-18T08:52:08.000Z</time>
      </trkpt>
      <trkpt lat="42.7042" lon="1.662">
        <ele>1204</ele>
        <time>2018-11-18T08:52:10.000Z</time>
      </trkpt>
      <trkpt lat="42.7042" lon="1.662">
        <ele>1204</ele>
        <time>2018-11-18T08:52:12.000Z</time>
      </trkpt>
      <trkpt lat="42.70421" lon="1.66199">
        <ele>1204</ele>
        <time>2018-11-18T08:52:14.000Z</time>
      </trkpt>
      <trkpt lat="42.70421" lon="1.66199">
        <ele>1204</ele>
        <time>2018-11-18T08:52:16.000Z</time>
      </trkpt>
      <trkpt lat="42.70421" lon="1.66199">
        <ele>1204</ele>
        <time>2018-11-18T08:52:18.000Z</time>
      </trkpt>
      <trkpt lat="42.70421" lon="1.66199">
        <ele>1204</ele>
        <time>2018-11-18T08:52:20.000Z</time>
      </trkpt>
      <trkpt lat="42.7042" lon="1.662">
        <ele>1204</ele>
        <time>2018-11-18T08:52:22.000Z</time>
      </trkpt>
      <trkpt lat="42.70418" lon="1.66202">
        <ele>1203</ele>
        <time>2018-11-18T08:52:24.000Z</time>
      </trkpt>
      <trkpt lat="42.70417" lon="1.66203">
        <ele>1203</ele>
        <time>2018-11-18T08:52:26.000Z</time>
      </trkpt>
      <trkpt lat="42.70417" lon="1.66202">
        <ele>1203</ele>
        <time>2018-11-18T08:52:28.000Z</time>
      </trkpt>
      <trkpt lat="42.70417" lon="1.66201">
        <ele>1204</ele>
        <time>2018-11-18T08:52:30.000Z</time>
      </trkpt>
      <trkpt lat="42.70416" lon="1.66201">
        <ele>1204</ele>
        <time>2018-11-18T08:52:32.000Z</time>
      </trkpt>
      <trkpt lat="42.70413" lon="1.66205">
        <ele>1203</ele>
        <time>2018-11-18T08:52:34.000Z</time>
      </trkpt>
      <trkpt lat="42.70416" lon="1.66205">
        <ele>1202</ele>
        <time>2018-11-18T08:52:36.000Z</time>
      </trkpt>
      <trkpt lat="42.70418" lon="1.66203">
        <ele>1203</ele>
        <time>2018-11-18T08:52:38.000Z</time>
      </trkpt>
      <trkpt lat="42.7042" lon="1.66203">
        <ele>1203</ele>
        <time>2018-11-18T08:52:40.000Z</time>
      </trkpt>
      <trkpt lat="42.70417" lon="1.66204">
        <ele>1203</ele>
        <time>2018-11-18T08:52:42.000Z</time>
      </trkpt>
      <trkpt lat="42.70414" lon="1.66207">
        <ele>1202</ele>
        <time>2018-11-18T08:52:44.000Z</time>
      </trkpt>
      <trkpt lat="42.70412" lon="1.66208">
        <ele>1202</ele>
        <time>2018-11-18T08:52:46.000Z</time>
      </trkpt>
      <trkpt lat="42.70412" lon="1.66208">
        <ele>1202</ele>
        <time>2018-11-18T08:52:48.000Z</time>
      </trkpt>
      <trkpt lat="42.70411" lon="1.66208">
        <ele>1202</ele>
        <time>2018-11-18T08:52:50.000Z</time>
      </trkpt>
      <trkpt lat="42.7041" lon="1.66207">
        <ele>1203</ele>
        <time>2018-11-18T08:52:52.000Z</time>
      </trkpt>
      <trkpt lat="42.70409" lon="1.66205">
        <ele>1204</ele>
        <time>2018-11-18T08:52:54.000Z</time>
      </trkpt>
      <trkpt lat="42.70409" lon="1.66204">
        <ele>1204</ele>
        <time>2018-11-18T08:52:56.000Z</time>
      </trkpt>
      <trkpt lat="42.70409" lon="1.66204">
        <ele>1204</ele>
        <time>2018-11-18T08:52:58.000Z</time>
      </trkpt>
      <trkpt lat="42.70409" lon="1.66203">
        <ele>1205</ele>
        <time>2018-11-18T08:53:00.000Z</time>
      </trkpt>
      <trkpt lat="42.70408" lon="1.66202">
        <ele>1205</ele>
        <time>2018-11-18T08:53:02.000Z</time>
      </trkpt>
      <trkpt lat="42.70408" lon="1.66201">
        <ele>1205</ele>
        <time>2018-11-18T08:53:04.000Z</time>
      </trkpt>
      <trkpt lat="42.70407" lon="1.66201">
        <ele>1205</ele>
        <time>2018-11-18T08:53:06.000Z</time>
      </trkpt>
      <trkpt lat="42.70407" lon="1.66202">
        <ele>1205</ele>
        <time>2018-11-18T08:53:08.000Z</time>
      </trkpt>
      <trkpt lat="42.70405" lon="1.66203">
        <ele>1205</ele>
        <time>2018-11-18T08:53:10.000Z</time>
      </trkpt>
      <trkpt lat="42.70405" lon="1.66202">
        <ele>1205</ele>
        <time>2018-11-18T08:53:12.000Z</time>
      </trkpt>
      <trkpt lat="42.70405" lon="1.66204">
        <ele>1205</ele>
        <time>2018-11-18T08:53:14.000Z</time>
      </trkpt>
      <trkpt lat="42.70405" lon="1.66205">
        <ele>1204</ele>
        <time>2018-11-18T08:53:16.000Z</time>
      </trkpt>
      <trkpt lat="42.70405" lon="1.66206">
        <ele>1204</ele>
        <time>2018-11-18T08:53:18.000Z</time>
      </trkpt>
      <trkpt lat="42.70407" lon="1.66204">
        <ele>1205</ele>
        <time>2018-11-18T08:53:20.000Z</time>
      </trkpt>
      <trkpt lat="42.70406" lon="1.66203">
        <ele>1205</ele>
        <time>2018-11-18T08:53:22.000Z</time>
      </trkpt>
      <trkpt lat="42.70406" lon="1.66203">
        <ele>1205</ele>
        <time>2018-11-18T08:53:24.000Z</time>
      </trkpt>
      <trkpt lat="42.70405" lon="1.66204">
        <ele>1205</ele>
        <time>2018-11-18T08:53:26.000Z</time>
      </trkpt>
      <trkpt lat="42.70404" lon="1.66204">
        <ele>1205</ele>
        <time>2018-11-18T08:53:28.000Z</time>
      </trkpt>
      <trkpt lat="42.70403" lon="1.66204">
        <ele>1205</ele>
        <time>2018-11-18T08:53:30.000Z</time>
      </trkpt>
      <trkpt lat="42.70401" lon="1.66205">
        <ele>1205</ele>
        <time>2018-11-18T08:53:32.000Z</time>
      </trkpt>
      <trkpt lat="42.704" lon="1.66205">
        <ele>1205</ele>
        <time>2018-11-18T08:53:34.000Z</time>
      </trkpt>
      <trkpt lat="42.70399" lon="1.66204">
        <ele>1206</ele>
        <time>2018-11-18T08:53:36.000Z</time>
      </trkpt>
      <trkpt lat="42.70398" lon="1.66204">
        <ele>1206</ele>
        <time>2018-11-18T08:53:38.000Z</time>
      </trkpt>
      <trkpt lat="42.70397" lon="1.66205">
        <ele>1206</ele>
        <time>2018-11-18T08:53:40.000Z</time>
      </trkpt>
      <trkpt lat="42.70396" lon="1.66205">
        <ele>1206</ele>
        <time>2018-11-18T08:53:42.000Z</time>
      </trkpt>
      <trkpt lat="42.70395" lon="1.66205">
        <ele>1206</ele>
        <time>2018-11-18T08:53:44.000Z</time>
      </trkpt>
      <trkpt lat="42.70394" lon="1.66204">
        <ele>1206</ele>
        <time>2018-11-18T08:53:46.000Z</time>
      </trkpt>
      <trkpt lat="42.70395" lon="1.66203">
        <ele>1207</ele>
        <time>2018-11-18T08:53:48.000Z</time>
      </trkpt>
      <trkpt lat="42.70394" lon="1.66204">
        <ele>1207</ele>
        <time>2018-11-18T08:53:50.000Z</time>
      </trkpt>
      <trkpt lat="42.70393" lon="1.66204">
        <ele>1207</ele>
        <time>2018-11-18T08:53:52.000Z</time>
      </trkpt>
      <trkpt lat="42.70393" lon="1.66204">
        <ele>1207</ele>
        <time>2018-11-18T08:53:54.000Z</time>
      </trkpt>
      <trkpt lat="42.70392" lon="1.66205">
        <ele>1207</ele>
        <time>2018-11-18T08:53:56.000Z</time>
      </trkpt>
      <trkpt lat="42.70391" lon="1.66205">
        <ele>1207</ele>
        <time>2018-11-18T08:53:58.000Z</time>
      </trkpt>
      <trkpt lat="42.7039" lon="1.66205">
        <ele>1207</ele>
        <time>2018-11-18T08:54:00.000Z</time>
      </trkpt>
      <trkpt lat="42.7039" lon="1.66205">
        <ele>1207</ele>
        <time>2018-11-18T08:54:02.000Z</time>
      </trkpt>
      <trkpt lat="42.7039" lon="1.66205">
        <ele>1207</ele>
        <time>2018-11-18T08:54:04.000Z</time>
      </trkpt>
      <trkpt lat="42.7039" lon="1.66205">
        <ele>1207</ele>
        <time>2018-11-18T08:54:06.000Z</time>
      </trkpt>
      <trkpt lat="42.7039" lon="1.66204">
        <ele>1207</ele>
        <time>2018-11-18T08:54:08.000Z</time>
      </trkpt>
      <trkpt lat="42.70389" lon="1.66205">
        <ele>1207</ele>
        <time>2018-11-18T08:54:10.000Z</time>
      </trkpt>
      <trkpt lat="42.70388" lon="1.66207">
        <ele>1206</ele>
        <time>2018-11-18T08:54:12.000Z</time>
      </trkpt>
      <trkpt lat="42.70386" lon="1.66209">
        <ele>1205</ele>
        <time>2018-11-18T08:54:14.000Z</time>
      </trkpt>
      <trkpt lat="42.70384" lon="1.6621">
        <ele>1204</ele>
        <time>2018-11-18T08:54:16.000Z</time>
      </trkpt>
      <trkpt lat="42.70382" lon="1.66212">
        <ele>1204</ele>
        <time>2018-11-18T08:54:18.000Z</time>
      </trkpt>
      <trkpt lat="42.70382" lon="1.66212">
        <ele>1203</ele>
        <time>2018-11-18T08:54:20.000Z</time>
      </trkpt>
      <trkpt lat="42.7038" lon="1.66213">
        <ele>1203</ele>
        <time>2018-11-18T08:54:22.000Z</time>
      </trkpt>
      <trkpt lat="42.70378" lon="1.66214">
        <ele>1203</ele>
        <time>2018-11-18T08:54:24.000Z</time>
      </trkpt>
      <trkpt lat="42.70377" lon="1.66213">
        <ele>1203</ele>
        <time>2018-11-18T08:54:26.000Z</time>
      </trkpt>
      <trkpt lat="42.70376" lon="1.66214">
        <ele>1203</ele>
        <time>2018-11-18T08:54:28.000Z</time>
      </trkpt>
      <trkpt lat="42.70374" lon="1.66213">
        <ele>1203</ele>
        <time>2018-11-18T08:54:30.000Z</time>
      </trkpt>
      <trkpt lat="42.70372" lon="1.66213">
        <ele>1203</ele>
        <time>2018-11-18T08:54:32.000Z</time>
      </trkpt>
      <trkpt lat="42.7037" lon="1.66215">
        <ele>1202</ele>
        <time>2018-11-18T08:54:34.000Z</time>
      </trkpt>
      <trkpt lat="42.70369" lon="1.66214">
        <ele>1203</ele>
        <time>2018-11-18T08:54:36.000Z</time>
      </trkpt>
      <trkpt lat="42.70367" lon="1.66215">
        <ele>1202</ele>
        <time>2018-11-18T08:54:38.000Z</time>
      </trkpt>
      <trkpt lat="42.70366" lon="1.66215">
        <ele>1202</ele>
        <time>2018-11-18T08:54:40.000Z</time>
      </trkpt>
      <trkpt lat="42.70363" lon="1.66216">
        <ele>1202</ele>
        <time>2018-11-18T08:54:42.000Z</time>
      </trkpt>
      <trkpt lat="42.70361" lon="1.66216">
        <ele>1202</ele>
        <time>2018-11-18T08:54:44.000Z</time>
      </trkpt>
      <trkpt lat="42.7036" lon="1.66216">
        <ele>1202</ele>
        <time>2018-11-18T08:54:46.000Z</time>
      </trkpt>
      <trkpt lat="42.70359" lon="1.66215">
        <ele>1203</ele>
        <time>2018-11-18T08:54:48.000Z</time>
      </trkpt>
      <trkpt lat="42.70359" lon="1.66215">
        <ele>1202</ele>
        <time>2018-11-18T08:54:50.000Z</time>
      </trkpt>
      <trkpt lat="42.70357" lon="1.66215">
        <ele>1202</ele>
        <time>2018-11-18T08:54:52.000Z</time>
      </trkpt>
      <trkpt lat="42.70355" lon="1.66215">
        <ele>1202</ele>
        <time>2018-11-18T08:54:54.000Z</time>
      </trkpt>
      <trkpt lat="42.70354" lon="1.66216">
        <ele>1202</ele>
        <time>2018-11-18T08:54:56.000Z</time>
      </trkpt>
      <trkpt lat="42.70351" lon="1.66218">
        <ele>1201</ele>
        <time>2018-11-18T08:54:58.000Z</time>
      </trkpt>
      <trkpt lat="42.70351" lon="1.66218">
        <ele>1201</ele>
        <time>2018-11-18T08:55:00.000Z</time>
      </trkpt>
      <trkpt lat="42.7035" lon="1.66216">
        <ele>1202</ele>
        <time>2018-11-18T08:55:02.000Z</time>
      </trkpt>
      <trkpt lat="42.70349" lon="1.66216">
        <ele>1202</ele>
        <time>2018-11-18T08:55:04.000Z</time>
      </trkpt>
      <trkpt lat="42.70348" lon="1.66215">
        <ele>1202</ele>
        <time>2018-11-18T08:55:06.000Z</time>
      </trkpt>
      <trkpt lat="42.70348" lon="1.66215">
        <ele>1203</ele>
        <time>2018-11-18T08:55:08.000Z</time>
      </trkpt>
      <trkpt lat="42.70346" lon="1.66215">
        <ele>1203</ele>
        <time>2018-11-18T08:55:10.000Z</time>
      </trkpt>
      <trkpt lat="42.70345" lon="1.66215">
        <ele>1203</ele>
        <time>2018-11-18T08:55:12.000Z</time>
      </trkpt>
      <trkpt lat="42.70344" lon="1.66214">
        <ele>1203</ele>
        <time>2018-11-18T08:55:14.000Z</time>
      </trkpt>
      <trkpt lat="42.70343" lon="1.66215">
        <ele>1203</ele>
        <time>2018-11-18T08:55:16.000Z</time>
      </trkpt>
      <trkpt lat="42.70341" lon="1.66215">
        <ele>1203</ele>
        <time>2018-11-18T08:55:18.000Z</time>
      </trkpt>
      <trkpt lat="42.7034" lon="1.66215">
        <ele>1203</ele>
        <time>2018-11-18T08:55:20.000Z</time>
      </trkpt>
      <trkpt lat="42.70337" lon="1.66216">
        <ele>1202</ele>
        <time>2018-11-18T08:55:22.000Z</time>
      </trkpt>
      <trkpt lat="42.70336" lon="1.66215">
        <ele>1203</ele>
        <time>2018-11-18T08:55:24.000Z</time>
      </trkpt>
      <trkpt lat="42.70339" lon="1.66212">
        <ele>1204</ele>
        <time>2018-11-18T08:55:26.000Z</time>
      </trkpt>
      <trkpt lat="42.70339" lon="1.66211">
        <ele>1205</ele>
        <time>2018-11-18T08:55:28.000Z</time>
      </trkpt>
      <trkpt lat="42.7034" lon="1.66209">
        <ele>1206</ele>
        <time>2018-11-18T08:55:30.000Z</time>
      </trkpt>
      <trkpt lat="42.7034" lon="1.66207">
        <ele>1206</ele>
        <time>2018-11-18T08:55:32.000Z</time>
      </trkpt>
      <trkpt lat="42.7034" lon="1.66207">
        <ele>1207</ele>
        <time>2018-11-18T08:55:34.000Z</time>
      </trkpt>
      <trkpt lat="42.70339" lon="1.66207">
        <ele>1207</ele>
        <time>2018-11-18T08:55:36.000Z</time>
      </trkpt>
      <trkpt lat="42.70339" lon="1.66207">
        <ele>1207</ele>
        <time>2018-11-18T08:55:38.000Z</time>
      </trkpt>
      <trkpt lat="42.70339" lon="1.66207">
        <ele>1207</ele>
        <time>2018-11-18T08:55:40.000Z</time>
      </trkpt>
      <trkpt lat="42.70338" lon="1.66206">
        <ele>1207</ele>
        <time>2018-11-18T08:55:42.000Z</time>
      </trkpt>
      <trkpt lat="42.70339" lon="1.66206">
        <ele>1207</ele>
        <time>2018-11-18T08:55:44.000Z</time>
      </trkpt>
      <trkpt lat="42.70339" lon="1.66206">
        <ele>1207</ele>
        <time>2018-11-18T08:55:46.000Z</time>
      </trkpt>
      <trkpt lat="42.70338" lon="1.66206">
        <ele>1207</ele>
        <time>2018-11-18T08:55:48.000Z</time>
      </trkpt>
      <trkpt lat="42.70338" lon="1.66206">
        <ele>1207</ele>
        <time>2018-11-18T08:55:50.000Z</time>
      </trkpt>
      <trkpt lat="42.70338" lon="1.66206">
        <ele>1207</ele>
        <time>2018-11-18T08:55:52.000Z</time>
      </trkpt>
      <trkpt lat="42.70337" lon="1.66207">
        <ele>1207</ele>
        <time>2018-11-18T08:55:54.000Z</time>
      </trkpt>
      <trkpt lat="42.70337" lon="1.66206">
        <ele>1207</ele>
        <time>2018-11-18T08:55:56.000Z</time>
      </trkpt>
      <trkpt lat="42.70337" lon="1.66206">
        <ele>1207</ele>
        <time>2018-11-18T08:55:58.000Z</time>
      </trkpt>
      <trkpt lat="42.70337" lon="1.66206">
        <ele>1207</ele>
        <time>2018-11-18T08:56:00.000Z</time>
      </trkpt>
      <trkpt lat="42.70336" lon="1.66206">
        <ele>1207</ele>
        <time>2018-11-18T08:56:02.000Z</time>
      </trkpt>
      <trkpt lat="42.70335" lon="1.66206">
        <ele>1207</ele>
        <time>2018-11-18T08:56:04.000Z</time>
      </trkpt>
      <trkpt lat="42.70335" lon="1.66206">
        <ele>1207</ele>
        <time>2018-11-18T08:56:06.000Z</time>
      </trkpt>
      <trkpt lat="42.70335" lon="1.66206">
        <ele>1207</ele>
        <time>2018-11-18T08:56:08.000Z</time>
      </trkpt>
      <trkpt lat="42.70335" lon="1.66206">
        <ele>1207</ele>
        <time>2018-11-18T08:56:10.000Z</time>
      </trkpt>
      <trkpt lat="42.70335" lon="1.66206">
        <ele>1207</ele>
        <time>2018-11-18T08:56:12.000Z</time>
      </trkpt>
      <trkpt lat="42.70335" lon="1.66207">
        <ele>1207</ele>
        <time>2018-11-18T08:56:14.000Z</time>
      </trkpt>
      <trkpt lat="42.70334" lon="1.66208">
        <ele>1206</ele>
        <time>2018-11-18T08:56:16.000Z</time>
      </trkpt>
      <trkpt lat="42.70334" lon="1.66208">
        <ele>1206</ele>
        <time>2018-11-18T08:56:18.000Z</time>
      </trkpt>
      <trkpt lat="42.70334" lon="1.66208">
        <ele>1206</ele>
        <time>2018-11-18T08:56:20.000Z</time>
      </trkpt>
      <trkpt lat="42.70334" lon="1.66208">
        <ele>1206</ele>
        <time>2018-11-18T08:56:22.000Z</time>
      </trkpt>
      <trkpt lat="42.70334" lon="1.66208">
        <ele>1206</ele>
        <time>2018-11-18T08:56:24.000Z</time>
      </trkpt>
      <trkpt lat="42.70334" lon="1.66208">
        <ele>1206</ele>
        <time>2018-11-18T08:56:26.000Z</time>
      </trkpt>
      <trkpt lat="42.70335" lon="1.66208">
        <ele>1206</ele>
        <time>2018-11-18T08:56:28.000Z</time>
      </trkpt>
      <trkpt lat="42.70335" lon="1.66206">
        <ele>1207</ele>
        <time>2018-11-18T08:56:30.000Z</time>
      </trkpt>
      <trkpt lat="42.70335" lon="1.66206">
        <ele>1207</ele>
        <time>2018-11-18T08:56:32.000Z</time>
      </trkpt>
      <trkpt lat="42.70335" lon="1.66205">
        <ele>1207</ele>
        <time>2018-11-18T08:56:34.000Z</time>
      </trkpt>
      <trkpt lat="42.70333" lon="1.66206">
        <ele>1207</ele>
        <time>2018-11-18T08:56:36.000Z</time>
      </trkpt>
      <trkpt lat="42.70334" lon="1.66206">
        <ele>1207</ele>
        <time>2018-11-18T08:56:38.000Z</time>
      </trkpt>
      <trkpt lat="42.70334" lon="1.66206">
        <ele>1207</ele>
        <time>2018-11-18T08:56:40.000Z</time>
      </trkpt>
      <trkpt lat="42.70335" lon="1.66205">
        <ele>1208</ele>
        <time>2018-11-18T08:56:42.000Z</time>
      </trkpt>
      <trkpt lat="42.70336" lon="1.66203">
        <ele>1208</ele>
        <time>2018-11-18T08:56:44.000Z</time>
      </trkpt>
      <trkpt lat="42.70337" lon="1.66203">
        <ele>1209</ele>
        <time>2018-11-18T08:56:46.000Z</time>
      </trkpt>
      <trkpt lat="42.70339" lon="1.66203">
        <ele>1208</ele>
        <time>2018-11-18T08:56:48.000Z</time>
      </trkpt>
      <trkpt lat="42.7034" lon="1.66204">
        <ele>1208</ele>
        <time>2018-11-18T08:56:50.000Z</time>
      </trkpt>
      <trkpt lat="42.7034" lon="1.66203">
        <ele>1208</ele>
        <time>2018-11-18T08:56:52.000Z</time>
      </trkpt>
      <trkpt lat="42.7034" lon="1.66204">
        <ele>1208</ele>
        <time>2018-11-18T08:56:54.000Z</time>
      </trkpt>
      <trkpt lat="42.7034" lon="1.66204">
        <ele>1208</ele>
        <time>2018-11-18T08:56:56.000Z</time>
      </trkpt>
      <trkpt lat="42.7034" lon="1.66204">
        <ele>1208</ele>
        <time>2018-11-18T08:56:58.000Z</time>
      </trkpt>
      <trkpt lat="42.7034" lon="1.66203">
        <ele>1208</ele>
        <time>2018-11-18T08:57:00.000Z</time>
      </trkpt>
      <trkpt lat="42.7034" lon="1.66203">
        <ele>1209</ele>
        <time>2018-11-18T08:57:02.000Z</time>
      </trkpt>
      <trkpt lat="42.70341" lon="1.66203">
        <ele>1209</ele>
        <time>2018-11-18T08:57:04.000Z</time>
      </trkpt>
      <trkpt lat="42.70341" lon="1.66203">
        <ele>1209</ele>
        <time>2018-11-18T08:57:06.000Z</time>
      </trkpt>
      <trkpt lat="42.70341" lon="1.66203">
        <ele>1209</ele>
        <time>2018-11-18T08:57:08.000Z</time>
      </trkpt>
      <trkpt lat="42.7034" lon="1.66203">
        <ele>1209</ele>
        <time>2018-11-18T08:57:10.000Z</time>
      </trkpt>
      <trkpt lat="42.7034" lon="1.66203">
        <ele>1209</ele>
        <time>2018-11-18T08:57:12.000Z</time>
      </trkpt>
      <trkpt lat="42.7034" lon="1.66204">
        <ele>1208</ele>
        <time>2018-11-18T08:57:14.000Z</time>
      </trkpt>
      <trkpt lat="42.70339" lon="1.66203">
        <ele>1209</ele>
        <time>2018-11-18T08:57:16.000Z</time>
      </trkpt>
      <trkpt lat="42.70338" lon="1.66203">
        <ele>1209</ele>
        <time>2018-11-18T08:57:18.000Z</time>
      </trkpt>
      <trkpt lat="42.70339" lon="1.66203">
        <ele>1209</ele>
        <time>2018-11-18T08:57:20.000Z</time>
      </trkpt>
      <trkpt lat="42.70338" lon="1.66204">
        <ele>1208</ele>
        <time>2018-11-18T08:57:22.000Z</time>
      </trkpt>
      <trkpt lat="42.70339" lon="1.66203">
        <ele>1209</ele>
        <time>2018-11-18T08:57:24.000Z</time>
      </trkpt>
      <trkpt lat="42.70339" lon="1.66204">
        <ele>1208</ele>
        <time>2018-11-18T08:57:26.000Z</time>
      </trkpt>
      <trkpt lat="42.70339" lon="1.66204">
        <ele>1208</ele>
        <time>2018-11-18T08:57:28.000Z</time>
      </trkpt>
      <trkpt lat="42.70339" lon="1.66205">
        <ele>1208</ele>
        <time>2018-11-18T08:57:30.000Z</time>
      </trkpt>
      <trkpt lat="42.70338" lon="1.66205">
        <ele>1208</ele>
        <time>2018-11-18T08:57:32.000Z</time>
      </trkpt>
      <trkpt lat="42.70338" lon="1.66205">
        <ele>1208</ele>
        <time>2018-11-18T08:57:34.000Z</time>
      </trkpt>
      <trkpt lat="42.70338" lon="1.66206">
        <ele>1207</ele>
        <time>2018-11-18T08:57:36.000Z</time>
      </trkpt>
      <trkpt lat="42.70339" lon="1.66207">
        <ele>1207</ele>
        <time>2018-11-18T08:57:38.000Z</time>
      </trkpt>
      <trkpt lat="42.70339" lon="1.66207">
        <ele>1207</ele>
        <time>2018-11-18T08:57:40.000Z</time>
      </trkpt>
      <trkpt lat="42.70339" lon="1.66207">
        <ele>1207</ele>
        <time>2018-11-18T08:57:42.000Z</time>
      </trkpt>
      <trkpt lat="42.7034" lon="1.66207">
        <ele>1206</ele>
        <time>2018-11-18T08:57:44.000Z</time>
      </trkpt>
      <trkpt lat="42.7034" lon="1.66207">
        <ele>1207</ele>
        <time>2018-11-18T08:57:46.000Z</time>
      </trkpt>
      <trkpt lat="42.70341" lon="1.66206">
        <ele>1207</ele>
        <time>2018-11-18T08:57:48.000Z</time>
      </trkpt>
      <trkpt lat="42.70342" lon="1.66205">
        <ele>1207</ele>
        <time>2018-11-18T08:57:50.000Z</time>
      </trkpt>
      <trkpt lat="42.70343" lon="1.66205">
        <ele>1207</ele>
        <time>2018-11-18T08:57:52.000Z</time>
      </trkpt>
      <trkpt lat="42.70343" lon="1.66206">
        <ele>1207</ele>
        <time>2018-11-18T08:57:54.000Z</time>
      </trkpt>
      <trkpt lat="42.70343" lon="1.66206">
        <ele>1207</ele>
        <time>2018-11-18T08:57:56.000Z</time>
      </trkpt>
      <trkpt lat="42.70343" lon="1.66207">
        <ele>1207</ele>
        <time>2018-11-18T08:57:58.000Z</time>
      </trkpt>
      <trkpt lat="42.70342" lon="1.66207">
        <ele>1206</ele>
        <time>2018-11-18T08:58:00.000Z</time>
      </trkpt>
      <trkpt lat="42.70341" lon="1.66206">
        <ele>1207</ele>
        <time>2018-11-18T08:58:02.000Z</time>
      </trkpt>
      <trkpt lat="42.7034" lon="1.66206">
        <ele>1207</ele>
        <time>2018-11-18T08:58:04.000Z</time>
      </trkpt>
      <trkpt lat="42.7034" lon="1.66207">
        <ele>1207</ele>
        <time>2018-11-18T08:58:06.000Z</time>
      </trkpt>
      <trkpt lat="42.70341" lon="1.66206">
        <ele>1207</ele>
        <time>2018-11-18T08:58:08.000Z</time>
      </trkpt>
      <trkpt lat="42.70342" lon="1.66207">
        <ele>1207</ele>
        <time>2018-11-18T08:58:10.000Z</time>
      </trkpt>
      <trkpt lat="42.70343" lon="1.66208">
        <ele>1206</ele>
        <time>2018-11-18T08:58:12.000Z</time>
      </trkpt>
      <trkpt lat="42.70343" lon="1.66208">
        <ele>1206</ele>
        <time>2018-11-18T08:58:14.000Z</time>
      </trkpt>
      <trkpt lat="42.70343" lon="1.66209">
        <ele>1206</ele>
        <time>2018-11-18T08:58:16.000Z</time>
      </trkpt>
      <trkpt lat="42.70343" lon="1.66209">
        <ele>1205</ele>
        <time>2018-11-18T08:58:18.000Z</time>
      </trkpt>
      <trkpt lat="42.70342" lon="1.66209">
        <ele>1206</ele>
        <time>2018-11-18T08:58:20.000Z</time>
      </trkpt>
      <trkpt lat="42.70341" lon="1.66208">
        <ele>1206</ele>
        <time>2018-11-18T08:58:22.000Z</time>
      </trkpt>
      <trkpt lat="42.70341" lon="1.66208">
        <ele>1206</ele>
        <time>2018-11-18T08:58:24.000Z</time>
      </trkpt>
      <trkpt lat="42.7034" lon="1.66208">
        <ele>1206</ele>
        <time>2018-11-18T08:58:26.000Z</time>
      </trkpt>
      <trkpt lat="42.70338" lon="1.66207">
        <ele>1207</ele>
        <time>2018-11-18T08:58:28.000Z</time>
      </trkpt>
      <trkpt lat="42.70338" lon="1.66208">
        <ele>1206</ele>
        <time>2018-11-18T08:58:30.000Z</time>
      </trkpt>
      <trkpt lat="42.70337" lon="1.66207">
        <ele>1207</ele>
        <time>2018-11-18T08:58:32.000Z</time>
      </trkpt>
      <trkpt lat="42.70335" lon="1.66207">
        <ele>1206</ele>
        <time>2018-11-18T08:58:34.000Z</time>
      </trkpt>
      <trkpt lat="42.70336" lon="1.66209">
        <ele>1206</ele>
        <time>2018-11-18T08:58:36.000Z</time>
      </trkpt>
      <trkpt lat="42.70336" lon="1.6621">
        <ele>1205</ele>
        <time>2018-11-18T08:58:38.000Z</time>
      </trkpt>
      <trkpt lat="42.70336" lon="1.6621">
        <ele>1205</ele>
        <time>2018-11-18T08:58:40.000Z</time>
      </trkpt>
      <trkpt lat="42.70336" lon="1.6621">
        <ele>1205</ele>
        <time>2018-11-18T08:58:42.000Z</time>
      </trkpt>
      <trkpt lat="42.70336" lon="1.66211">
        <ele>1205</ele>
        <time>2018-11-18T08:58:44.000Z</time>
      </trkpt>
      <trkpt lat="42.70336" lon="1.66211">
        <ele>1205</ele>
        <time>2018-11-18T08:58:46.000Z</time>
      </trkpt>
      <trkpt lat="42.70336" lon="1.66211">
        <ele>1205</ele>
        <time>2018-11-18T08:58:48.000Z</time>
      </trkpt>
      <trkpt lat="42.70336" lon="1.66211">
        <ele>1204</ele>
        <time>2018-11-18T08:58:50.000Z</time>
      </trkpt>
      <trkpt lat="42.70336" lon="1.66212">
        <ele>1204</ele>
        <time>2018-11-18T08:58:52.000Z</time>
      </trkpt>
      <trkpt lat="42.70337" lon="1.66213">
        <ele>1204</ele>
        <time>2018-11-18T08:58:54.000Z</time>
      </trkpt>
      <trkpt lat="42.70338" lon="1.66213">
        <ele>1204</ele>
        <time>2018-11-18T08:58:56.000Z</time>
      </trkpt>
      <trkpt lat="42.70339" lon="1.66212">
        <ele>1204</ele>
        <time>2018-11-18T08:58:58.000Z</time>
      </trkpt>
      <trkpt lat="42.70341" lon="1.66211">
        <ele>1205</ele>
        <time>2018-11-18T08:59:00.000Z</time>
      </trkpt>
      <trkpt lat="42.70343" lon="1.6621">
        <ele>1205</ele>
        <time>2018-11-18T08:59:02.000Z</time>
      </trkpt>
      <trkpt lat="42.70346" lon="1.66209">
        <ele>1206</ele>
        <time>2018-11-18T08:59:04.000Z</time>
      </trkpt>
      <trkpt lat="42.70347" lon="1.66208">
        <ele>1206</ele>
        <time>2018-11-18T08:59:06.000Z</time>
      </trkpt>
      <trkpt lat="42.70348" lon="1.66208">
        <ele>1206</ele>
        <time>2018-11-18T08:59:08.000Z</time>
      </trkpt>
      <trkpt lat="42.70348" lon="1.66208">
        <ele>1206</ele>
        <time>2018-11-18T08:59:10.000Z</time>
      </trkpt>
      <trkpt lat="42.70349" lon="1.66208">
        <ele>1206</ele>
        <time>2018-11-18T08:59:12.000Z</time>
      </trkpt>
      <trkpt lat="42.70349" lon="1.66209">
        <ele>1206</ele>
        <time>2018-11-18T08:59:14.000Z</time>
      </trkpt>
      <trkpt lat="42.70349" lon="1.66209">
        <ele>1205</ele>
        <time>2018-11-18T08:59:16.000Z</time>
      </trkpt>
      <trkpt lat="42.70347" lon="1.66208">
        <ele>1206</ele>
        <time>2018-11-18T08:59:18.000Z</time>
      </trkpt>
      <trkpt lat="42.70345" lon="1.66208">
        <ele>1206</ele>
        <time>2018-11-18T08:59:20.000Z</time>
      </trkpt>
      <trkpt lat="42.70344" lon="1.66207">
        <ele>1206</ele>
        <time>2018-11-18T08:59:22.000Z</time>
      </trkpt>
      <trkpt lat="42.70344" lon="1.66204">
        <ele>1208</ele>
        <time>2018-11-18T08:59:24.000Z</time>
      </trkpt>
      <trkpt lat="42.70344" lon="1.66204">
        <ele>1208</ele>
        <time>2018-11-18T08:59:26.000Z</time>
      </trkpt>
      <trkpt lat="42.70346" lon="1.66201">
        <ele>1209</ele>
        <time>2018-11-18T08:59:28.000Z</time>
      </trkpt>
      <trkpt lat="42.70347" lon="1.662">
        <ele>1210</ele>
        <time>2018-11-18T08:59:30.000Z</time>
      </trkpt>
      <trkpt lat="42.70348" lon="1.662">
        <ele>1210</ele>
        <time>2018-11-18T08:59:32.000Z</time>
      </trkpt>
      <trkpt lat="42.70349" lon="1.66199">
        <ele>1211</ele>
        <time>2018-11-18T08:59:34.000Z</time>
      </trkpt>
      <trkpt lat="42.70349" lon="1.66198">
        <ele>1211</ele>
        <time>2018-11-18T08:59:36.000Z</time>
      </trkpt>
      <trkpt lat="42.7035" lon="1.66198">
        <ele>1211</ele>
        <time>2018-11-18T08:59:38.000Z</time>
      </trkpt>
      <trkpt lat="42.70351" lon="1.66198">
        <ele>1211</ele>
        <time>2018-11-18T08:59:40.000Z</time>
      </trkpt>
      <trkpt lat="42.70351" lon="1.662">
        <ele>1210</ele>
        <time>2018-11-18T08:59:42.000Z</time>
      </trkpt>
      <trkpt lat="42.70351" lon="1.66201">
        <ele>1210</ele>
        <time>2018-11-18T08:59:44.000Z</time>
      </trkpt>
      <trkpt lat="42.7035" lon="1.66202">
        <ele>1209</ele>
        <time>2018-11-18T08:59:46.000Z</time>
      </trkpt>
      <trkpt lat="42.70347" lon="1.66205">
        <ele>1208</ele>
        <time>2018-11-18T08:59:48.000Z</time>
      </trkpt>
      <trkpt lat="42.70346" lon="1.66208">
        <ele>1206</ele>
        <time>2018-11-18T08:59:50.000Z</time>
      </trkpt>
      <trkpt lat="42.70342" lon="1.66208">
        <ele>1206</ele>
        <time>2018-11-18T08:59:52.000Z</time>
      </trkpt>
      <trkpt lat="42.70339" lon="1.66209">
        <ele>1205</ele>
        <time>2018-11-18T08:59:54.000Z</time>
      </trkpt>
      <trkpt lat="42.70337" lon="1.6621">
        <ele>1205</ele>
        <time>2018-11-18T08:59:56.000Z</time>
      </trkpt>
      <trkpt lat="42.70335" lon="1.6621">
        <ele>1205</ele>
        <time>2018-11-18T08:59:58.000Z</time>
      </trkpt>
      <trkpt lat="42.70335" lon="1.6621">
        <ele>1205</ele>
        <time>2018-11-18T09:00:00.000Z</time>
      </trkpt>
      <trkpt lat="42.70336" lon="1.6621">
        <ele>1205</ele>
        <time>2018-11-18T09:00:02.000Z</time>
      </trkpt>
      <trkpt lat="42.70336" lon="1.6621">
        <ele>1205</ele>
        <time>2018-11-18T09:00:04.000Z</time>
      </trkpt>
      <trkpt lat="42.70337" lon="1.6621">
        <ele>1205</ele>
        <time>2018-11-18T09:00:06.000Z</time>
      </trkpt>
      <trkpt lat="42.70338" lon="1.6621">
        <ele>1205</ele>
        <time>2018-11-18T09:00:08.000Z</time>
      </trkpt>
      <trkpt lat="42.70338" lon="1.6621">
        <ele>1205</ele>
        <time>2018-11-18T09:00:10.000Z</time>
      </trkpt>
      <trkpt lat="42.70338" lon="1.66208">
        <ele>1206</ele>
        <time>2018-11-18T09:00:12.000Z</time>
      </trkpt>
      <trkpt lat="42.70338" lon="1.66208">
        <ele>1206</ele>
        <time>2018-11-18T09:00:14.000Z</time>
      </trkpt>
      <trkpt lat="42.70337" lon="1.66208">
        <ele>1206</ele>
        <time>2018-11-18T09:00:16.000Z</time>
      </trkpt>
      <trkpt lat="42.70337" lon="1.66207">
        <ele>1206</ele>
        <time>2018-11-18T09:00:18.000Z</time>
      </trkpt>
      <trkpt lat="42.70338" lon="1.66207">
        <ele>1207</ele>
        <time>2018-11-18T09:00:20.000Z</time>
      </trkpt>
      <trkpt lat="42.70338" lon="1.66207">
        <ele>1207</ele>
        <time>2018-11-18T09:00:22.000Z</time>
      </trkpt>
      <trkpt lat="42.70338" lon="1.66207">
        <ele>1207</ele>
        <time>2018-11-18T09:00:24.000Z</time>
      </trkpt>
      <trkpt lat="42.70338" lon="1.66208">
        <ele>1206</ele>
        <time>2018-11-18T09:00:26.000Z</time>
      </trkpt>
      <trkpt lat="42.70338" lon="1.66208">
        <ele>1206</ele>
        <time>2018-11-18T09:00:28.000Z</time>
      </trkpt>
      <trkpt lat="42.70338" lon="1.66208">
        <ele>1206</ele>
        <time>2018-11-18T09:00:30.000Z</time>
      </trkpt>
      <trkpt lat="42.70339" lon="1.66208">
        <ele>1206</ele>
        <time>2018-11-18T09:00:32.000Z</time>
      </trkpt>
      <trkpt lat="42.70338" lon="1.66208">
        <ele>1206</ele>
        <time>2018-11-18T09:00:34.000Z</time>
      </trkpt>
      <trkpt lat="42.70339" lon="1.66207">
        <ele>1207</ele>
        <time>2018-11-18T09:00:36.000Z</time>
      </trkpt>
      <trkpt lat="42.70339" lon="1.66207">
        <ele>1206</ele>
        <time>2018-11-18T09:00:38.000Z</time>
      </trkpt>
      <trkpt lat="42.70339" lon="1.66207">
        <ele>1207</ele>
        <time>2018-11-18T09:00:40.000Z</time>
      </trkpt>
      <trkpt lat="42.7034" lon="1.66207">
        <ele>1206</ele>
        <time>2018-11-18T09:00:42.000Z</time>
      </trkpt>
      <trkpt lat="42.7034" lon="1.66208">
        <ele>1206</ele>
        <time>2018-11-18T09:00:44.000Z</time>
      </trkpt>
      <trkpt lat="42.70341" lon="1.66208">
        <ele>1206</ele>
        <time>2018-11-18T09:00:46.000Z</time>
      </trkpt>
      <trkpt lat="42.70342" lon="1.66207">
        <ele>1207</ele>
        <time>2018-11-18T09:00:48.000Z</time>
      </trkpt>
      <trkpt lat="42.70342" lon="1.66207">
        <ele>1207</ele>
        <time>2018-11-18T09:00:50.000Z</time>
      </trkpt>
      <trkpt lat="42.70342" lon="1.66207">
        <ele>1207</ele>
        <time>2018-11-18T09:00:52.000Z</time>
      </trkpt>
      <trkpt lat="42.70342" lon="1.66208">
        <ele>1206</ele>
        <time>2018-11-18T09:00:54.000Z</time>
      </trkpt>
      <trkpt lat="42.70342" lon="1.66209">
        <ele>1206</ele>
        <time>2018-11-18T09:00:56.000Z</time>
      </trkpt>
      <trkpt lat="42.70342" lon="1.66208">
        <ele>1206</ele>
        <time>2018-11-18T09:00:58.000Z</time>
      </trkpt>
      <trkpt lat="42.70341" lon="1.66209">
        <ele>1206</ele>
        <time>2018-11-18T09:01:00.000Z</time>
      </trkpt>
      <trkpt lat="42.70341" lon="1.66208">
        <ele>1206</ele>
        <time>2018-11-18T09:01:02.000Z</time>
      </trkpt>
      <trkpt lat="42.70342" lon="1.66209">
        <ele>1206</ele>
        <time>2018-11-18T09:01:04.000Z</time>
      </trkpt>
      <trkpt lat="42.70341" lon="1.66209">
        <ele>1206</ele>
        <time>2018-11-18T09:01:06.000Z</time>
      </trkpt>
      <trkpt lat="42.70341" lon="1.66209">
        <ele>1205</ele>
        <time>2018-11-18T09:01:08.000Z</time>
      </trkpt>
      <trkpt lat="42.7034" lon="1.66209">
        <ele>1206</ele>
        <time>2018-11-18T09:01:10.000Z</time>
      </trkpt>
      <trkpt lat="42.7034" lon="1.66208">
        <ele>1206</ele>
        <time>2018-11-18T09:01:12.000Z</time>
      </trkpt>
      <trkpt lat="42.7034" lon="1.66208">
        <ele>1206</ele>
        <time>2018-11-18T09:01:14.000Z</time>
      </trkpt>
      <trkpt lat="42.7034" lon="1.66207">
        <ele>1207</ele>
        <time>2018-11-18T09:01:16.000Z</time>
      </trkpt>
      <trkpt lat="42.7034" lon="1.66205">
        <ele>1208</ele>
        <time>2018-11-18T09:01:18.000Z</time>
      </trkpt>
      <trkpt lat="42.7034" lon="1.66205">
        <ele>1208</ele>
        <time>2018-11-18T09:01:20.000Z</time>
      </trkpt>
      <trkpt lat="42.7034" lon="1.66204">
        <ele>1208</ele>
        <time>2018-11-18T09:01:22.000Z</time>
      </trkpt>
      <trkpt lat="42.70341" lon="1.66204">
        <ele>1208</ele>
        <time>2018-11-18T09:01:24.000Z</time>
      </trkpt>
      <trkpt lat="42.70341" lon="1.66204">
        <ele>1208</ele>
        <time>2018-11-18T09:01:26.000Z</time>
      </trkpt>
      <trkpt lat="42.70342" lon="1.66204">
        <ele>1208</ele>
        <time>2018-11-18T09:01:28.000Z</time>
      </trkpt>
      <trkpt lat="42.70342" lon="1.66204">
        <ele>1208</ele>
        <time>2018-11-18T09:01:30.000Z</time>
      </trkpt>
      <trkpt lat="42.70342" lon="1.66204">
        <ele>1208</ele>
        <time>2018-11-18T09:01:32.000Z</time>
      </trkpt>
      <trkpt lat="42.70341" lon="1.66204">
        <ele>1208</ele>
        <time>2018-11-18T09:01:34.000Z</time>
      </trkpt>
      <trkpt lat="42.70341" lon="1.66204">
        <ele>1208</ele>
        <time>2018-11-18T09:01:36.000Z</time>
      </trkpt>
      <trkpt lat="42.7034" lon="1.66205">
        <ele>1208</ele>
        <time>2018-11-18T09:01:38.000Z</time>
      </trkpt>
      <trkpt lat="42.70339" lon="1.66205">
        <ele>1207</ele>
        <time>2018-11-18T09:01:40.000Z</time>
      </trkpt>
      <trkpt lat="42.70337" lon="1.66205">
        <ele>1207</ele>
        <time>2018-11-18T09:01:42.000Z</time>
      </trkpt>
      <trkpt lat="42.70336" lon="1.66207">
        <ele>1207</ele>
        <time>2018-11-18T09:01:44.000Z</time>
      </trkpt>
      <trkpt lat="42.70335" lon="1.66207">
        <ele>1206</ele>
        <time>2018-11-18T09:01:46.000Z</time>
      </trkpt>
      <trkpt lat="42.70334" lon="1.66209">
        <ele>1206</ele>
        <time>2018-11-18T09:01:48.000Z</time>
      </trkpt>
      <trkpt lat="42.70333" lon="1.66209">
        <ele>1205</ele>
        <time>2018-11-18T09:01:50.000Z</time>
      </trkpt>
      <trkpt lat="42.70331" lon="1.66209">
        <ele>1205</ele>
        <time>2018-11-18T09:01:52.000Z</time>
      </trkpt>
      <trkpt lat="42.7033" lon="1.6621">
        <ele>1205</ele>
        <time>2018-11-18T09:01:54.000Z</time>
      </trkpt>
      <trkpt lat="42.70328" lon="1.6621">
        <ele>1205</ele>
        <time>2018-11-18T09:01:56.000Z</time>
      </trkpt>
      <trkpt lat="42.70327" lon="1.66209">
        <ele>1205</ele>
        <time>2018-11-18T09:01:58.000Z</time>
      </trkpt>
      <trkpt lat="42.70326" lon="1.66209">
        <ele>1205</ele>
        <time>2018-11-18T09:02:00.000Z</time>
      </trkpt>
      <trkpt lat="42.70325" lon="1.66208">
        <ele>1205</ele>
        <time>2018-11-18T09:02:02.000Z</time>
      </trkpt>
      <trkpt lat="42.70324" lon="1.66207">
        <ele>1206</ele>
        <time>2018-11-18T09:02:04.000Z</time>
      </trkpt>
      <trkpt lat="42.70323" lon="1.66207">
        <ele>1206</ele>
        <time>2018-11-18T09:02:06.000Z</time>
      </trkpt>
      <trkpt lat="42.70322" lon="1.66206">
        <ele>1206</ele>
        <time>2018-11-18T09:02:08.000Z</time>
      </trkpt>
      <trkpt lat="42.7032" lon="1.66205">
        <ele>1206</ele>
        <time>2018-11-18T09:02:10.000Z</time>
      </trkpt>
      <trkpt lat="42.70319" lon="1.66205">
        <ele>1206</ele>
        <time>2018-11-18T09:02:12.000Z</time>
      </trkpt>
      <trkpt lat="42.70318" lon="1.66205">
        <ele>1206</ele>
        <time>2018-11-18T09:02:14.000Z</time>
      </trkpt>
      <trkpt lat="42.70317" lon="1.66203">
        <ele>1207</ele>
        <time>2018-11-18T09:02:16.000Z</time>
      </trkpt>
      <trkpt lat="42.70315" lon="1.66202">
        <ele>1208</ele>
        <time>2018-11-18T09:02:18.000Z</time>
      </trkpt>
      <trkpt lat="42.70313" lon="1.66201">
        <ele>1208</ele>
        <time>2018-11-18T09:02:20.000Z</time>
      </trkpt>
      <trkpt lat="42.70312" lon="1.662">
        <ele>1208</ele>
        <time>2018-11-18T09:02:22.000Z</time>
      </trkpt>
      <trkpt lat="42.70311" lon="1.662">
        <ele>1209</ele>
        <time>2018-11-18T09:02:24.000Z</time>
      </trkpt>
      <trkpt lat="42.70309" lon="1.66199">
        <ele>1209</ele>
        <time>2018-11-18T09:02:26.000Z</time>
      </trkpt>
      <trkpt lat="42.70309" lon="1.66197">
        <ele>1210</ele>
        <time>2018-11-18T09:02:28.000Z</time>
      </trkpt>
      <trkpt lat="42.70307" lon="1.66196">
        <ele>1210</ele>
        <time>2018-11-18T09:02:30.000Z</time>
      </trkpt>
      <trkpt lat="42.70304" lon="1.66196">
        <ele>1210</ele>
        <time>2018-11-18T09:02:32.000Z</time>
      </trkpt>
      <trkpt lat="42.70302" lon="1.66195">
        <ele>1210</ele>
        <time>2018-11-18T09:02:34.000Z</time>
      </trkpt>
      <trkpt lat="42.70301" lon="1.66193">
        <ele>1211</ele>
        <time>2018-11-18T09:02:36.000Z</time>
      </trkpt>
      <trkpt lat="42.703" lon="1.66193">
        <ele>1211</ele>
        <time>2018-11-18T09:02:38.000Z</time>
      </trkpt>
      <trkpt lat="42.70299" lon="1.66191">
        <ele>1212</ele>
        <time>2018-11-18T09:02:40.000Z</time>
      </trkpt>
      <trkpt lat="42.70297" lon="1.66191">
        <ele>1212</ele>
        <time>2018-11-18T09:02:42.000Z</time>
      </trkpt>
      <trkpt lat="42.70296" lon="1.6619">
        <ele>1212</ele>
        <time>2018-11-18T09:02:44.000Z</time>
      </trkpt>
      <trkpt lat="42.70296" lon="1.66188">
        <ele>1213</ele>
        <time>2018-11-18T09:02:46.000Z</time>
      </trkpt>
      <trkpt lat="42.70293" lon="1.66187">
        <ele>1214</ele>
        <time>2018-11-18T09:02:48.000Z</time>
      </trkpt>
      <trkpt lat="42.70292" lon="1.66187">
        <ele>1213</ele>
        <time>2018-11-18T09:02:50.000Z</time>
      </trkpt>
      <trkpt lat="42.70291" lon="1.66186">
        <ele>1214</ele>
        <time>2018-11-18T09:02:52.000Z</time>
      </trkpt>
      <trkpt lat="42.70288" lon="1.66185">
        <ele>1214</ele>
        <time>2018-11-18T09:02:54.000Z</time>
      </trkpt>
      <trkpt lat="42.70287" lon="1.66183">
        <ele>1215</ele>
        <time>2018-11-18T09:02:56.000Z</time>
      </trkpt>
      <trkpt lat="42.70285" lon="1.66183">
        <ele>1215</ele>
        <time>2018-11-18T09:02:58.000Z</time>
      </trkpt>
      <trkpt lat="42.70284" lon="1.66182">
        <ele>1216</ele>
        <time>2018-11-18T09:03:00.000Z</time>
      </trkpt>
      <trkpt lat="42.70283" lon="1.66181">
        <ele>1216</ele>
        <time>2018-11-18T09:03:02.000Z</time>
      </trkpt>
      <trkpt lat="42.70283" lon="1.66181">
        <ele>1216</ele>
        <time>2018-11-18T09:03:04.000Z</time>
      </trkpt>
      <trkpt lat="42.70282" lon="1.66181">
        <ele>1216</ele>
        <time>2018-11-18T09:03:06.000Z</time>
      </trkpt>
      <trkpt lat="42.70281" lon="1.66181">
        <ele>1216</ele>
        <time>2018-11-18T09:03:08.000Z</time>
      </trkpt>
      <trkpt lat="42.7028" lon="1.66181">
        <ele>1216</ele>
        <time>2018-11-18T09:03:10.000Z</time>
      </trkpt>
      <trkpt lat="42.7028" lon="1.6618">
        <ele>1216</ele>
        <time>2018-11-18T09:03:12.000Z</time>
      </trkpt>
      <trkpt lat="42.70279" lon="1.6618">
        <ele>1216</ele>
        <time>2018-11-18T09:03:14.000Z</time>
      </trkpt>
      <trkpt lat="42.70277" lon="1.66178">
        <ele>1217</ele>
        <time>2018-11-18T09:03:16.000Z</time>
      </trkpt>
      <trkpt lat="42.70276" lon="1.66177">
        <ele>1217</ele>
        <time>2018-11-18T09:03:18.000Z</time>
      </trkpt>
      <trkpt lat="42.70273" lon="1.66176">
        <ele>1218</ele>
        <time>2018-11-18T09:03:20.000Z</time>
      </trkpt>
      <trkpt lat="42.7027" lon="1.66175">
        <ele>1219</ele>
        <time>2018-11-18T09:03:22.000Z</time>
      </trkpt>
      <trkpt lat="42.70268" lon="1.66174">
        <ele>1219</ele>
        <time>2018-11-18T09:03:24.000Z</time>
      </trkpt>
      <trkpt lat="42.70265" lon="1.66173">
        <ele>1219</ele>
        <time>2018-11-18T09:03:26.000Z</time>
      </trkpt>
      <trkpt lat="42.70264" lon="1.66172">
        <ele>1220</ele>
        <time>2018-11-18T09:03:28.000Z</time>
      </trkpt>
      <trkpt lat="42.70262" lon="1.66171">
        <ele>1220</ele>
        <time>2018-11-18T09:03:30.000Z</time>
      </trkpt>
      <trkpt lat="42.70261" lon="1.6617">
        <ele>1221</ele>
        <time>2018-11-18T09:03:32.000Z</time>
      </trkpt>
      <trkpt lat="42.7026" lon="1.6617">
        <ele>1221</ele>
        <time>2018-11-18T09:03:34.000Z</time>
      </trkpt>
      <trkpt lat="42.70258" lon="1.66169">
        <ele>1221</ele>
        <time>2018-11-18T09:03:36.000Z</time>
      </trkpt>
      <trkpt lat="42.70257" lon="1.66168">
        <ele>1222</ele>
        <time>2018-11-18T09:03:38.000Z</time>
      </trkpt>
      <trkpt lat="42.70256" lon="1.66168">
        <ele>1222</ele>
        <time>2018-11-18T09:03:40.000Z</time>
      </trkpt>
      <trkpt lat="42.70255" lon="1.66167">
        <ele>1222</ele>
        <time>2018-11-18T09:03:42.000Z</time>
      </trkpt>
      <trkpt lat="42.70253" lon="1.66167">
        <ele>1222</ele>
        <time>2018-11-18T09:03:44.000Z</time>
      </trkpt>
      <trkpt lat="42.70253" lon="1.66167">
        <ele>1222</ele>
        <time>2018-11-18T09:03:46.000Z</time>
      </trkpt>
      <trkpt lat="42.70252" lon="1.66165">
        <ele>1223</ele>
        <time>2018-11-18T09:03:48.000Z</time>
      </trkpt>
      <trkpt lat="42.70252" lon="1.66164">
        <ele>1223</ele>
        <time>2018-11-18T09:03:50.000Z</time>
      </trkpt>
      <trkpt lat="42.7025" lon="1.66164">
        <ele>1223</ele>
        <time>2018-11-18T09:03:52.000Z</time>
      </trkpt>
      <trkpt lat="42.70248" lon="1.66165">
        <ele>1222</ele>
        <time>2018-11-18T09:03:54.000Z</time>
      </trkpt>
      <trkpt lat="42.70246" lon="1.66167">
        <ele>1221</ele>
        <time>2018-11-18T09:03:56.000Z</time>
      </trkpt>
      <trkpt lat="42.70244" lon="1.66168">
        <ele>1220</ele>
        <time>2018-11-18T09:03:58.000Z</time>
      </trkpt>
      <trkpt lat="42.70243" lon="1.66169">
        <ele>1220</ele>
        <time>2018-11-18T09:04:00.000Z</time>
      </trkpt>
      <trkpt lat="42.70241" lon="1.66168">
        <ele>1220</ele>
        <time>2018-11-18T09:04:02.000Z</time>
      </trkpt>
      <trkpt lat="42.70239" lon="1.66169">
        <ele>1219</ele>
        <time>2018-11-18T09:04:04.000Z</time>
      </trkpt>
      <trkpt lat="42.70238" lon="1.66168">
        <ele>1220</ele>
        <time>2018-11-18T09:04:06.000Z</time>
      </trkpt>
      <trkpt lat="42.70236" lon="1.66167">
        <ele>1220</ele>
        <time>2018-11-18T09:04:08.000Z</time>
      </trkpt>
      <trkpt lat="42.70235" lon="1.66167">
        <ele>1220</ele>
        <time>2018-11-18T09:04:10.000Z</time>
      </trkpt>
      <trkpt lat="42.70233" lon="1.66166">
        <ele>1220</ele>
        <time>2018-11-18T09:04:12.000Z</time>
      </trkpt>
      <trkpt lat="42.70233" lon="1.66165">
        <ele>1220</ele>
        <time>2018-11-18T09:04:14.000Z</time>
      </trkpt>
      <trkpt lat="42.70231" lon="1.66163">
        <ele>1221</ele>
        <time>2018-11-18T09:04:16.000Z</time>
      </trkpt>
      <trkpt lat="42.70231" lon="1.66162">
        <ele>1221</ele>
        <time>2018-11-18T09:04:18.000Z</time>
      </trkpt>
      <trkpt lat="42.7023" lon="1.6616">
        <ele>1222</ele>
        <time>2018-11-18T09:04:20.000Z</time>
      </trkpt>
      <trkpt lat="42.70229" lon="1.6616">
        <ele>1221</ele>
        <time>2018-11-18T09:04:22.000Z</time>
      </trkpt>
      <trkpt lat="42.70228" lon="1.6616">
        <ele>1222</ele>
        <time>2018-11-18T09:04:24.000Z</time>
      </trkpt>
      <trkpt lat="42.70227" lon="1.66158">
        <ele>1222</ele>
        <time>2018-11-18T09:04:26.000Z</time>
      </trkpt>
      <trkpt lat="42.70226" lon="1.66156">
        <ele>1223</ele>
        <time>2018-11-18T09:04:28.000Z</time>
      </trkpt>
      <trkpt lat="42.70226" lon="1.66154">
        <ele>1223</ele>
        <time>2018-11-18T09:04:30.000Z</time>
      </trkpt>
      <trkpt lat="42.70225" lon="1.66152">
        <ele>1224</ele>
        <time>2018-11-18T09:04:32.000Z</time>
      </trkpt>
      <trkpt lat="42.70224" lon="1.66152">
        <ele>1224</ele>
        <time>2018-11-18T09:04:34.000Z</time>
      </trkpt>
      <trkpt lat="42.70223" lon="1.66151">
        <ele>1224</ele>
        <time>2018-11-18T09:04:36.000Z</time>
      </trkpt>
      <trkpt lat="42.70221" lon="1.6615">
        <ele>1224</ele>
        <time>2018-11-18T09:04:38.000Z</time>
      </trkpt>
      <trkpt lat="42.70221" lon="1.6615">
        <ele>1224</ele>
        <time>2018-11-18T09:04:40.000Z</time>
      </trkpt>
      <trkpt lat="42.70221" lon="1.6615">
        <ele>1224</ele>
        <time>2018-11-18T09:04:42.000Z</time>
      </trkpt>
      <trkpt lat="42.70219" lon="1.66149">
        <ele>1224</ele>
        <time>2018-11-18T09:04:44.000Z</time>
      </trkpt>
      <trkpt lat="42.70218" lon="1.66149">
        <ele>1224</ele>
        <time>2018-11-18T09:04:46.000Z</time>
      </trkpt>
      <trkpt lat="42.70217" lon="1.66149">
        <ele>1224</ele>
        <time>2018-11-18T09:04:48.000Z</time>
      </trkpt>
      <trkpt lat="42.70215" lon="1.66149">
        <ele>1224</ele>
        <time>2018-11-18T09:04:50.000Z</time>
      </trkpt>
      <trkpt lat="42.70214" lon="1.6615">
        <ele>1223</ele>
        <time>2018-11-18T09:04:52.000Z</time>
      </trkpt>
      <trkpt lat="42.70213" lon="1.6615">
        <ele>1223</ele>
        <time>2018-11-18T09:04:54.000Z</time>
      </trkpt>
      <trkpt lat="42.70211" lon="1.66151">
        <ele>1223</ele>
        <time>2018-11-18T09:04:56.000Z</time>
      </trkpt>
      <trkpt lat="42.70208" lon="1.66153">
        <ele>1221</ele>
        <time>2018-11-18T09:04:58.000Z</time>
      </trkpt>
      <trkpt lat="42.70207" lon="1.66154">
        <ele>1221</ele>
        <time>2018-11-18T09:05:00.000Z</time>
      </trkpt>
      <trkpt lat="42.70206" lon="1.66153">
        <ele>1221</ele>
        <time>2018-11-18T09:05:02.000Z</time>
      </trkpt>
      <trkpt lat="42.70206" lon="1.66153">
        <ele>1221</ele>
        <time>2018-11-18T09:05:04.000Z</time>
      </trkpt>
      <trkpt lat="42.70205" lon="1.66152">
        <ele>1221</ele>
        <time>2018-11-18T09:05:06.000Z</time>
      </trkpt>
      <trkpt lat="42.70203" lon="1.66152">
        <ele>1221</ele>
        <time>2018-11-18T09:05:08.000Z</time>
      </trkpt>
      <trkpt lat="42.70203" lon="1.66151">
        <ele>1221</ele>
        <time>2018-11-18T09:05:10.000Z</time>
      </trkpt>
      <trkpt lat="42.70203" lon="1.66148">
        <ele>1222</ele>
        <time>2018-11-18T09:05:12.000Z</time>
      </trkpt>
      <trkpt lat="42.70203" lon="1.66147">
        <ele>1223</ele>
        <time>2018-11-18T09:05:14.000Z</time>
      </trkpt>
      <trkpt lat="42.70202" lon="1.66146">
        <ele>1223</ele>
        <time>2018-11-18T09:05:16.000Z</time>
      </trkpt>
      <trkpt lat="42.70202" lon="1.66144">
        <ele>1223</ele>
        <time>2018-11-18T09:05:18.000Z</time>
      </trkpt>
      <trkpt lat="42.702" lon="1.66143">
        <ele>1224</ele>
        <time>2018-11-18T09:05:20.000Z</time>
      </trkpt>
      <trkpt lat="42.702" lon="1.66142">
        <ele>1224</ele>
        <time>2018-11-18T09:05:22.000Z</time>
      </trkpt>
      <trkpt lat="42.70199" lon="1.66141">
        <ele>1224</ele>
        <time>2018-11-18T09:05:24.000Z</time>
      </trkpt>
      <trkpt lat="42.70198" lon="1.6614">
        <ele>1224</ele>
        <time>2018-11-18T09:05:26.000Z</time>
      </trkpt>
      <trkpt lat="42.70197" lon="1.6614">
        <ele>1224</ele>
        <time>2018-11-18T09:05:28.000Z</time>
      </trkpt>
      <trkpt lat="42.70197" lon="1.66138">
        <ele>1225</ele>
        <time>2018-11-18T09:05:30.000Z</time>
      </trkpt>
      <trkpt lat="42.70197" lon="1.66137">
        <ele>1225</ele>
        <time>2018-11-18T09:05:32.000Z</time>
      </trkpt>
      <trkpt lat="42.70196" lon="1.66137">
        <ele>1225</ele>
        <time>2018-11-18T09:05:34.000Z</time>
      </trkpt>
      <trkpt lat="42.70195" lon="1.66137">
        <ele>1225</ele>
        <time>2018-11-18T09:05:36.000Z</time>
      </trkpt>
      <trkpt lat="42.70195" lon="1.66135">
        <ele>1225</ele>
        <time>2018-11-18T09:05:38.000Z</time>
      </trkpt>
      <trkpt lat="42.70195" lon="1.66134">
        <ele>1226</ele>
        <time>2018-11-18T09:05:40.000Z</time>
      </trkpt>
      <trkpt lat="42.70195" lon="1.66133">
        <ele>1226</ele>
        <time>2018-11-18T09:05:42.000Z</time>
      </trkpt>
      <trkpt lat="42.70195" lon="1.66131">
        <ele>1227</ele>
        <time>2018-11-18T09:05:44.000Z</time>
      </trkpt>
      <trkpt lat="42.70195" lon="1.6613">
        <ele>1227</ele>
        <time>2018-11-18T09:05:46.000Z</time>
      </trkpt>
      <trkpt lat="42.70195" lon="1.66129">
        <ele>1227</ele>
        <time>2018-11-18T09:05:48.000Z</time>
      </trkpt>
      <trkpt lat="42.70195" lon="1.66127">
        <ele>1228</ele>
        <time>2018-11-18T09:05:50.000Z</time>
      </trkpt>
      <trkpt lat="42.70195" lon="1.66126">
        <ele>1228</ele>
        <time>2018-11-18T09:05:52.000Z</time>
      </trkpt>
      <trkpt lat="42.70194" lon="1.66125">
        <ele>1229</ele>
        <time>2018-11-18T09:05:54.000Z</time>
      </trkpt>
      <trkpt lat="42.70193" lon="1.66124">
        <ele>1229</ele>
        <time>2018-11-18T09:05:56.000Z</time>
      </trkpt>
      <trkpt lat="42.70192" lon="1.66123">
        <ele>1229</ele>
        <time>2018-11-18T09:05:58.000Z</time>
      </trkpt>
      <trkpt lat="42.70191" lon="1.66124">
        <ele>1228</ele>
        <time>2018-11-18T09:06:00.000Z</time>
      </trkpt>
      <trkpt lat="42.7019" lon="1.66123">
        <ele>1229</ele>
        <time>2018-11-18T09:06:02.000Z</time>
      </trkpt>
      <trkpt lat="42.70189" lon="1.66121">
        <ele>1229</ele>
        <time>2018-11-18T09:06:04.000Z</time>
      </trkpt>
      <trkpt lat="42.70188" lon="1.6612">
        <ele>1229</ele>
        <time>2018-11-18T09:06:06.000Z</time>
      </trkpt>
      <trkpt lat="42.70189" lon="1.66119">
        <ele>1230</ele>
        <time>2018-11-18T09:06:08.000Z</time>
      </trkpt>
      <trkpt lat="42.70188" lon="1.66118">
        <ele>1230</ele>
        <time>2018-11-18T09:06:10.000Z</time>
      </trkpt>
      <trkpt lat="42.70189" lon="1.66115">
        <ele>1231</ele>
        <time>2018-11-18T09:06:12.000Z</time>
      </trkpt>
      <trkpt lat="42.70187" lon="1.66115">
        <ele>1231</ele>
        <time>2018-11-18T09:06:14.000Z</time>
      </trkpt>
      <trkpt lat="42.70186" lon="1.66115">
        <ele>1231</ele>
        <time>2018-11-18T09:06:16.000Z</time>
      </trkpt>
      <trkpt lat="42.70185" lon="1.66115">
        <ele>1230</ele>
        <time>2018-11-18T09:06:18.000Z</time>
      </trkpt>
      <trkpt lat="42.70185" lon="1.66113">
        <ele>1231</ele>
        <time>2018-11-18T09:06:20.000Z</time>
      </trkpt>
      <trkpt lat="42.70184" lon="1.66113">
        <ele>1231</ele>
        <time>2018-11-18T09:06:22.000Z</time>
      </trkpt>
      <trkpt lat="42.70182" lon="1.66114">
        <ele>1230</ele>
        <time>2018-11-18T09:06:24.000Z</time>
      </trkpt>
      <trkpt lat="42.70181" lon="1.66114">
        <ele>1230</ele>
        <time>2018-11-18T09:06:26.000Z</time>
      </trkpt>
      <trkpt lat="42.70179" lon="1.66115">
        <ele>1230</ele>
        <time>2018-11-18T09:06:28.000Z</time>
      </trkpt>
      <trkpt lat="42.70178" lon="1.66114">
        <ele>1230</ele>
        <time>2018-11-18T09:06:30.000Z</time>
      </trkpt>
      <trkpt lat="42.70177" lon="1.66114">
        <ele>1230</ele>
        <time>2018-11-18T09:06:32.000Z</time>
      </trkpt>
      <trkpt lat="42.70178" lon="1.66112">
        <ele>1230</ele>
        <time>2018-11-18T09:06:34.000Z</time>
      </trkpt>
      <trkpt lat="42.70176" lon="1.66111">
        <ele>1230</ele>
        <time>2018-11-18T09:06:36.000Z</time>
      </trkpt>
      <trkpt lat="42.70175" lon="1.66111">
        <ele>1230</ele>
        <time>2018-11-18T09:06:38.000Z</time>
      </trkpt>
      <trkpt lat="42.70174" lon="1.66109">
        <ele>1231</ele>
        <time>2018-11-18T09:06:40.000Z</time>
      </trkpt>
      <trkpt lat="42.70173" lon="1.66108">
        <ele>1231</ele>
        <time>2018-11-18T09:06:42.000Z</time>
      </trkpt>
      <trkpt lat="42.70172" lon="1.66107">
        <ele>1231</ele>
        <time>2018-11-18T09:06:44.000Z</time>
      </trkpt>
      <trkpt lat="42.70171" lon="1.66106">
        <ele>1231</ele>
        <time>2018-11-18T09:06:46.000Z</time>
      </trkpt>
      <trkpt lat="42.70171" lon="1.66104">
        <ele>1232</ele>
        <time>2018-11-18T09:06:48.000Z</time>
      </trkpt>
      <trkpt lat="42.70171" lon="1.66103">
        <ele>1232</ele>
        <time>2018-11-18T09:06:50.000Z</time>
      </trkpt>
      <trkpt lat="42.7017" lon="1.66102">
        <ele>1232</ele>
        <time>2018-11-18T09:06:52.000Z</time>
      </trkpt>
      <trkpt lat="42.7017" lon="1.66101">
        <ele>1233</ele>
        <time>2018-11-18T09:06:54.000Z</time>
      </trkpt>
      <trkpt lat="42.7017" lon="1.66099">
        <ele>1234</ele>
        <time>2018-11-18T09:06:56.000Z</time>
      </trkpt>
      <trkpt lat="42.70169" lon="1.66097">
        <ele>1234</ele>
        <time>2018-11-18T09:06:58.000Z</time>
      </trkpt>
      <trkpt lat="42.70169" lon="1.66095">
        <ele>1234</ele>
        <time>2018-11-18T09:07:00.000Z</time>
      </trkpt>
      <trkpt lat="42.70168" lon="1.66094">
        <ele>1235</ele>
        <time>2018-11-18T09:07:02.000Z</time>
      </trkpt>
      <trkpt lat="42.70166" lon="1.66094">
        <ele>1234</ele>
        <time>2018-11-18T09:07:04.000Z</time>
      </trkpt>
      <trkpt lat="42.70164" lon="1.66093">
        <ele>1234</ele>
        <time>2018-11-18T09:07:06.000Z</time>
      </trkpt>
      <trkpt lat="42.70162" lon="1.66093">
        <ele>1234</ele>
        <time>2018-11-18T09:07:08.000Z</time>
      </trkpt>
      <trkpt lat="42.70162" lon="1.66091">
        <ele>1235</ele>
        <time>2018-11-18T09:07:10.000Z</time>
      </trkpt>
      <trkpt lat="42.70161" lon="1.66089">
        <ele>1235</ele>
        <time>2018-11-18T09:07:12.000Z</time>
      </trkpt>
      <trkpt lat="42.70161" lon="1.66087">
        <ele>1236</ele>
        <time>2018-11-18T09:07:14.000Z</time>
      </trkpt>
      <trkpt lat="42.7016" lon="1.66084">
        <ele>1237</ele>
        <time>2018-11-18T09:07:16.000Z</time>
      </trkpt>
      <trkpt lat="42.7016" lon="1.66082">
        <ele>1237</ele>
        <time>2018-11-18T09:07:18.000Z</time>
      </trkpt>
      <trkpt lat="42.70159" lon="1.6608">
        <ele>1238</ele>
        <time>2018-11-18T09:07:20.000Z</time>
      </trkpt>
      <trkpt lat="42.7016" lon="1.66078">
        <ele>1238</ele>
        <time>2018-11-18T09:07:22.000Z</time>
      </trkpt>
      <trkpt lat="42.70159" lon="1.66076">
        <ele>1239</ele>
        <time>2018-11-18T09:07:24.000Z</time>
      </trkpt>
      <trkpt lat="42.70159" lon="1.66073">
        <ele>1240</ele>
        <time>2018-11-18T09:07:26.000Z</time>
      </trkpt>
      <trkpt lat="42.70158" lon="1.66073">
        <ele>1240</ele>
        <time>2018-11-18T09:07:28.000Z</time>
      </trkpt>
      <trkpt lat="42.70158" lon="1.66072">
        <ele>1240</ele>
        <time>2018-11-18T09:07:30.000Z</time>
      </trkpt>
      <trkpt lat="42.70156" lon="1.66071">
        <ele>1240</ele>
        <time>2018-11-18T09:07:32.000Z</time>
      </trkpt>
      <trkpt lat="42.70154" lon="1.66069">
        <ele>1240</ele>
        <time>2018-11-18T09:07:34.000Z</time>
      </trkpt>
      <trkpt lat="42.70153" lon="1.66068">
        <ele>1240</ele>
        <time>2018-11-18T09:07:36.000Z</time>
      </trkpt>
      <trkpt lat="42.70153" lon="1.66065">
        <ele>1241</ele>
        <time>2018-11-18T09:07:38.000Z</time>
      </trkpt>
      <trkpt lat="42.70153" lon="1.66063">
        <ele>1241</ele>
        <time>2018-11-18T09:07:40.000Z</time>
      </trkpt>
      <trkpt lat="42.70151" lon="1.66061">
        <ele>1241</ele>
        <time>2018-11-18T09:07:42.000Z</time>
      </trkpt>
      <trkpt lat="42.7015" lon="1.66059">
        <ele>1241</ele>
        <time>2018-11-18T09:07:44.000Z</time>
      </trkpt>
      <trkpt lat="42.70149" lon="1.66056">
        <ele>1241</ele>
        <time>2018-11-18T09:07:46.000Z</time>
      </trkpt>
      <trkpt lat="42.70149" lon="1.66055">
        <ele>1241</ele>
        <time>2018-11-18T09:07:48.000Z</time>
      </trkpt>
      <trkpt lat="42.70149" lon="1.66055">
        <ele>1241</ele>
        <time>2018-11-18T09:07:50.000Z</time>
      </trkpt>
      <trkpt lat="42.70149" lon="1.66051">
        <ele>1242</ele>
        <time>2018-11-18T09:07:52.000Z</time>
      </trkpt>
      <trkpt lat="42.7015" lon="1.6605">
        <ele>1242</ele>
        <time>2018-11-18T09:07:54.000Z</time>
      </trkpt>
      <trkpt lat="42.70151" lon="1.66048">
        <ele>1243</ele>
        <time>2018-11-18T09:07:56.000Z</time>
      </trkpt>
      <trkpt lat="42.70151" lon="1.66046">
        <ele>1245</ele>
        <time>2018-11-18T09:07:58.000Z</time>
      </trkpt>
      <trkpt lat="42.70151" lon="1.66044">
        <ele>1245</ele>
        <time>2018-11-18T09:08:00.000Z</time>
      </trkpt>
      <trkpt lat="42.70152" lon="1.66043">
        <ele>1246</ele>
        <time>2018-11-18T09:08:02.000Z</time>
      </trkpt>
      <trkpt lat="42.70152" lon="1.66042">
        <ele>1246</ele>
        <time>2018-11-18T09:08:04.000Z</time>
      </trkpt>
      <trkpt lat="42.70151" lon="1.66041">
        <ele>1246</ele>
        <time>2018-11-18T09:08:06.000Z</time>
      </trkpt>
      <trkpt lat="42.70151" lon="1.6604">
        <ele>1247</ele>
        <time>2018-11-18T09:08:08.000Z</time>
      </trkpt>
      <trkpt lat="42.70151" lon="1.66039">
        <ele>1247</ele>
        <time>2018-11-18T09:08:10.000Z</time>
      </trkpt>
      <trkpt lat="42.7015" lon="1.66039">
        <ele>1247</ele>
        <time>2018-11-18T09:08:12.000Z</time>
      </trkpt>
      <trkpt lat="42.70148" lon="1.66039">
        <ele>1246</ele>
        <time>2018-11-18T09:08:14.000Z</time>
      </trkpt>
      <trkpt lat="42.70148" lon="1.66039">
        <ele>1246</ele>
        <time>2018-11-18T09:08:16.000Z</time>
      </trkpt>
      <trkpt lat="42.70149" lon="1.66038">
        <ele>1247</ele>
        <time>2018-11-18T09:08:18.000Z</time>
      </trkpt>
      <trkpt lat="42.70147" lon="1.66038">
        <ele>1246</ele>
        <time>2018-11-18T09:08:20.000Z</time>
      </trkpt>
      <trkpt lat="42.70148" lon="1.66037">
        <ele>1247</ele>
        <time>2018-11-18T09:08:22.000Z</time>
      </trkpt>
      <trkpt lat="42.70148" lon="1.66037">
        <ele>1247</ele>
        <time>2018-11-18T09:08:24.000Z</time>
      </trkpt>
      <trkpt lat="42.70147" lon="1.66037">
        <ele>1246</ele>
        <time>2018-11-18T09:08:26.000Z</time>
      </trkpt>
      <trkpt lat="42.70147" lon="1.66036">
        <ele>1247</ele>
        <time>2018-11-18T09:08:28.000Z</time>
      </trkpt>
      <trkpt lat="42.70147" lon="1.66035">
        <ele>1247</ele>
        <time>2018-11-18T09:08:30.000Z</time>
      </trkpt>
      <trkpt lat="42.70146" lon="1.66034">
        <ele>1247</ele>
        <time>2018-11-18T09:08:32.000Z</time>
      </trkpt>
      <trkpt lat="42.70144" lon="1.66033">
        <ele>1247</ele>
        <time>2018-11-18T09:08:34.000Z</time>
      </trkpt>
      <trkpt lat="42.70144" lon="1.66033">
        <ele>1246</ele>
        <time>2018-11-18T09:08:36.000Z</time>
      </trkpt>
      <trkpt lat="42.70143" lon="1.66032">
        <ele>1246</ele>
        <time>2018-11-18T09:08:38.000Z</time>
      </trkpt>
      <trkpt lat="42.70141" lon="1.66032">
        <ele>1245</ele>
        <time>2018-11-18T09:08:40.000Z</time>
      </trkpt>
      <trkpt lat="42.70139" lon="1.66032">
        <ele>1245</ele>
        <time>2018-11-18T09:08:42.000Z</time>
      </trkpt>
      <trkpt lat="42.70137" lon="1.66032">
        <ele>1244</ele>
        <time>2018-11-18T09:08:44.000Z</time>
      </trkpt>
      <trkpt lat="42.70137" lon="1.66031">
        <ele>1244</ele>
        <time>2018-11-18T09:08:46.000Z</time>
      </trkpt>
      <trkpt lat="42.70136" lon="1.66029">
        <ele>1244</ele>
        <time>2018-11-18T09:08:48.000Z</time>
      </trkpt>
      <trkpt lat="42.70135" lon="1.66026">
        <ele>1245</ele>
        <time>2018-11-18T09:08:50.000Z</time>
      </trkpt>
      <trkpt lat="42.70134" lon="1.66025">
        <ele>1246</ele>
        <time>2018-11-18T09:08:52.000Z</time>
      </trkpt>
      <trkpt lat="42.70135" lon="1.66022">
        <ele>1247</ele>
        <time>2018-11-18T09:08:54.000Z</time>
      </trkpt>
      <trkpt lat="42.70135" lon="1.6602">
        <ele>1248</ele>
        <time>2018-11-18T09:08:56.000Z</time>
      </trkpt>
      <trkpt lat="42.70134" lon="1.66017">
        <ele>1249</ele>
        <time>2018-11-18T09:08:58.000Z</time>
      </trkpt>
      <trkpt lat="42.70134" lon="1.66015">
        <ele>1249</ele>
        <time>2018-11-18T09:09:00.000Z</time>
      </trkpt>
      <trkpt lat="42.70133" lon="1.66013">
        <ele>1250</ele>
        <time>2018-11-18T09:09:02.000Z</time>
      </trkpt>
      <trkpt lat="42.70133" lon="1.66011">
        <ele>1251</ele>
        <time>2018-11-18T09:09:04.000Z</time>
      </trkpt>
      <trkpt lat="42.70133" lon="1.66009">
        <ele>1251</ele>
        <time>2018-11-18T09:09:06.000Z</time>
      </trkpt>
      <trkpt lat="42.70131" lon="1.66007">
        <ele>1252</ele>
        <time>2018-11-18T09:09:08.000Z</time>
      </trkpt>
      <trkpt lat="42.7013" lon="1.66006">
        <ele>1252</ele>
        <time>2018-11-18T09:09:10.000Z</time>
      </trkpt>
      <trkpt lat="42.7013" lon="1.66005">
        <ele>1252</ele>
        <time>2018-11-18T09:09:12.000Z</time>
      </trkpt>
      <trkpt lat="42.70129" lon="1.66003">
        <ele>1252</ele>
        <time>2018-11-18T09:09:14.000Z</time>
      </trkpt>
      <trkpt lat="42.7013" lon="1.66002">
        <ele>1253</ele>
        <time>2018-11-18T09:09:16.000Z</time>
      </trkpt>
      <trkpt lat="42.70129" lon="1.66001">
        <ele>1253</ele>
        <time>2018-11-18T09:09:18.000Z</time>
      </trkpt>
      <trkpt lat="42.70129" lon="1.66">
        <ele>1254</ele>
        <time>2018-11-18T09:09:20.000Z</time>
      </trkpt>
      <trkpt lat="42.70128" lon="1.66">
        <ele>1254</ele>
        <time>2018-11-18T09:09:22.000Z</time>
      </trkpt>
      <trkpt lat="42.70128" lon="1.66">
        <ele>1253</ele>
        <time>2018-11-18T09:09:24.000Z</time>
      </trkpt>
      <trkpt lat="42.70127" lon="1.66">
        <ele>1253</ele>
        <time>2018-11-18T09:09:26.000Z</time>
      </trkpt>
      <trkpt lat="42.70126" lon="1.66">
        <ele>1252</ele>
        <time>2018-11-18T09:09:28.000Z</time>
      </trkpt>
      <trkpt lat="42.70125" lon="1.66002">
        <ele>1251</ele>
        <time>2018-11-18T09:09:30.000Z</time>
      </trkpt>
      <trkpt lat="42.70124" lon="1.66001">
        <ele>1251</ele>
        <time>2018-11-18T09:09:32.000Z</time>
      </trkpt>
      <trkpt lat="42.70124" lon="1.66002">
        <ele>1250</ele>
        <time>2018-11-18T09:09:34.000Z</time>
      </trkpt>
      <trkpt lat="42.70123" lon="1.66002">
        <ele>1250</ele>
        <time>2018-11-18T09:09:36.000Z</time>
      </trkpt>
      <trkpt lat="42.70122" lon="1.66002">
        <ele>1250</ele>
        <time>2018-11-18T09:09:38.000Z</time>
      </trkpt>
      <trkpt lat="42.70122" lon="1.66001">
        <ele>1250</ele>
        <time>2018-11-18T09:09:40.000Z</time>
      </trkpt>
      <trkpt lat="42.7012" lon="1.66001">
        <ele>1249</ele>
        <time>2018-11-18T09:09:42.000Z</time>
      </trkpt>
      <trkpt lat="42.70119" lon="1.66">
        <ele>1249</ele>
        <time>2018-11-18T09:09:44.000Z</time>
      </trkpt>
      <trkpt lat="42.70119" lon="1.66">
        <ele>1249</ele>
        <time>2018-11-18T09:09:46.000Z</time>
      </trkpt>
      <trkpt lat="42.70118" lon="1.65998">
        <ele>1249</ele>
        <time>2018-11-18T09:09:48.000Z</time>
      </trkpt>
      <trkpt lat="42.70118" lon="1.65998">
        <ele>1250</ele>
        <time>2018-11-18T09:09:50.000Z</time>
      </trkpt>
      <trkpt lat="42.70118" lon="1.65997">
        <ele>1250</ele>
        <time>2018-11-18T09:09:52.000Z</time>
      </trkpt>
      <trkpt lat="42.70117" lon="1.65996">
        <ele>1250</ele>
        <time>2018-11-18T09:09:54.000Z</time>
      </trkpt>
      <trkpt lat="42.70116" lon="1.65996">
        <ele>1250</ele>
        <time>2018-11-18T09:09:56.000Z</time>
      </trkpt>
      <trkpt lat="42.70115" lon="1.65996">
        <ele>1249</ele>
        <time>2018-11-18T09:09:58.000Z</time>
      </trkpt>
      <trkpt lat="42.70114" lon="1.65995">
        <ele>1249</ele>
        <time>2018-11-18T09:10:00.000Z</time>
      </trkpt>
      <trkpt lat="42.70114" lon="1.65995">
        <ele>1249</ele>
        <time>2018-11-18T09:10:02.000Z</time>
      </trkpt>
      <trkpt lat="42.70114" lon="1.65995">
        <ele>1249</ele>
        <time>2018-11-18T09:10:04.000Z</time>
      </trkpt>
      <trkpt lat="42.70113" lon="1.65994">
        <ele>1249</ele>
        <time>2018-11-18T09:10:06.000Z</time>
      </trkpt>
      <trkpt lat="42.70112" lon="1.65992">
        <ele>1249</ele>
        <time>2018-11-18T09:10:08.000Z</time>
      </trkpt>
      <trkpt lat="42.70111" lon="1.65991">
        <ele>1249</ele>
        <time>2018-11-18T09:10:10.000Z</time>
      </trkpt>
      <trkpt lat="42.7011" lon="1.65991">
        <ele>1249</ele>
        <time>2018-11-18T09:10:12.000Z</time>
      </trkpt>
      <trkpt lat="42.7011" lon="1.6599">
        <ele>1249</ele>
        <time>2018-11-18T09:10:14.000Z</time>
      </trkpt>
      <trkpt lat="42.70111" lon="1.65988">
        <ele>1250</ele>
        <time>2018-11-18T09:10:16.000Z</time>
      </trkpt>
      <trkpt lat="42.70111" lon="1.65987">
        <ele>1251</ele>
        <time>2018-11-18T09:10:18.000Z</time>
      </trkpt>
      <trkpt lat="42.70111" lon="1.65985">
        <ele>1252</ele>
        <time>2018-11-18T09:10:20.000Z</time>
      </trkpt>
      <trkpt lat="42.70109" lon="1.65984">
        <ele>1251</ele>
        <time>2018-11-18T09:10:22.000Z</time>
      </trkpt>
      <trkpt lat="42.7011" lon="1.65983">
        <ele>1252</ele>
        <time>2018-11-18T09:10:24.000Z</time>
      </trkpt>
      <trkpt lat="42.7011" lon="1.65981">
        <ele>1254</ele>
        <time>2018-11-18T09:10:26.000Z</time>
      </trkpt>
      <trkpt lat="42.70109" lon="1.6598">
        <ele>1253</ele>
        <time>2018-11-18T09:10:28.000Z</time>
      </trkpt>
      <trkpt lat="42.70108" lon="1.65981">
        <ele>1253</ele>
        <time>2018-11-18T09:10:30.000Z</time>
      </trkpt>
      <trkpt lat="42.70107" lon="1.6598">
        <ele>1253</ele>
        <time>2018-11-18T09:10:32.000Z</time>
      </trkpt>
      <trkpt lat="42.70108" lon="1.6598">
        <ele>1253</ele>
        <time>2018-11-18T09:10:34.000Z</time>
      </trkpt>
      <trkpt lat="42.70106" lon="1.6598">
        <ele>1253</ele>
        <time>2018-11-18T09:10:36.000Z</time>
      </trkpt>
      <trkpt lat="42.70106" lon="1.65978">
        <ele>1254</ele>
        <time>2018-11-18T09:10:38.000Z</time>
      </trkpt>
      <trkpt lat="42.70106" lon="1.65977">
        <ele>1254</ele>
        <time>2018-11-18T09:10:40.000Z</time>
      </trkpt>
      <trkpt lat="42.70107" lon="1.65975">
        <ele>1256</ele>
        <time>2018-11-18T09:10:42.000Z</time>
      </trkpt>
      <trkpt lat="42.70108" lon="1.65974">
        <ele>1257</ele>
        <time>2018-11-18T09:10:44.000Z</time>
      </trkpt>
      <trkpt lat="42.70108" lon="1.65972">
        <ele>1258</ele>
        <time>2018-11-18T09:10:46.000Z</time>
      </trkpt>
      <trkpt lat="42.70109" lon="1.65972">
        <ele>1258</ele>
        <time>2018-11-18T09:10:48.000Z</time>
      </trkpt>
      <trkpt lat="42.7011" lon="1.6597">
        <ele>1260</ele>
        <time>2018-11-18T09:10:50.000Z</time>
      </trkpt>
      <trkpt lat="42.70111" lon="1.65969">
        <ele>1261</ele>
        <time>2018-11-18T09:10:52.000Z</time>
      </trkpt>
      <trkpt lat="42.70112" lon="1.65968">
        <ele>1262</ele>
        <time>2018-11-18T09:10:54.000Z</time>
      </trkpt>
      <trkpt lat="42.70113" lon="1.65969">
        <ele>1262</ele>
        <time>2018-11-18T09:10:56.000Z</time>
      </trkpt>
      <trkpt lat="42.70115" lon="1.65969">
        <ele>1263</ele>
        <time>2018-11-18T09:10:58.000Z</time>
      </trkpt>
      <trkpt lat="42.70116" lon="1.65967">
        <ele>1264</ele>
        <time>2018-11-18T09:11:00.000Z</time>
      </trkpt>
      <trkpt lat="42.70116" lon="1.65967">
        <ele>1265</ele>
        <time>2018-11-18T09:11:02.000Z</time>
      </trkpt>
      <trkpt lat="42.70116" lon="1.65966">
        <ele>1265</ele>
        <time>2018-11-18T09:11:04.000Z</time>
      </trkpt>
      <trkpt lat="42.70116" lon="1.65966">
        <ele>1265</ele>
        <time>2018-11-18T09:11:06.000Z</time>
      </trkpt>
      <trkpt lat="42.70116" lon="1.65966">
        <ele>1265</ele>
        <time>2018-11-18T09:11:08.000Z</time>
      </trkpt>
      <trkpt lat="42.70117" lon="1.65965">
        <ele>1266</ele>
        <time>2018-11-18T09:11:10.000Z</time>
      </trkpt>
      <trkpt lat="42.70117" lon="1.65965">
        <ele>1266</ele>
        <time>2018-11-18T09:11:12.000Z</time>
      </trkpt>
      <trkpt lat="42.70117" lon="1.65964">
        <ele>1267</ele>
        <time>2018-11-18T09:11:14.000Z</time>
      </trkpt>
      <trkpt lat="42.70118" lon="1.65964">
        <ele>1267</ele>
        <time>2018-11-18T09:11:16.000Z</time>
      </trkpt>
      <trkpt lat="42.70116" lon="1.65965">
        <ele>1266</ele>
        <time>2018-11-18T09:11:18.000Z</time>
      </trkpt>
      <trkpt lat="42.70116" lon="1.65963">
        <ele>1267</ele>
        <time>2018-11-18T09:11:20.000Z</time>
      </trkpt>
      <trkpt lat="42.70116" lon="1.65963">
        <ele>1267</ele>
        <time>2018-11-18T09:11:22.000Z</time>
      </trkpt>
      <trkpt lat="42.70117" lon="1.65962">
        <ele>1268</ele>
        <time>2018-11-18T09:11:24.000Z</time>
      </trkpt>
      <trkpt lat="42.70118" lon="1.65961">
        <ele>1269</ele>
        <time>2018-11-18T09:11:26.000Z</time>
      </trkpt>
      <trkpt lat="42.70118" lon="1.6596">
        <ele>1269</ele>
        <time>2018-11-18T09:11:28.000Z</time>
      </trkpt>
      <trkpt lat="42.70119" lon="1.6596">
        <ele>1270</ele>
        <time>2018-11-18T09:11:30.000Z</time>
      </trkpt>
      <trkpt lat="42.7012" lon="1.65958">
        <ele>1271</ele>
        <time>2018-11-18T09:11:32.000Z</time>
      </trkpt>
      <trkpt lat="42.70121" lon="1.65957">
        <ele>1273</ele>
        <time>2018-11-18T09:11:34.000Z</time>
      </trkpt>
      <trkpt lat="42.70123" lon="1.65955">
        <ele>1274</ele>
        <time>2018-11-18T09:11:36.000Z</time>
      </trkpt>
      <trkpt lat="42.70125" lon="1.65955">
        <ele>1276</ele>
        <time>2018-11-18T09:11:38.000Z</time>
      </trkpt>
      <trkpt lat="42.70126" lon="1.65954">
        <ele>1276</ele>
        <time>2018-11-18T09:11:40.000Z</time>
      </trkpt>
      <trkpt lat="42.70126" lon="1.65954">
        <ele>1277</ele>
        <time>2018-11-18T09:11:42.000Z</time>
      </trkpt>
      <trkpt lat="42.70128" lon="1.65952">
        <ele>1278</ele>
        <time>2018-11-18T09:11:44.000Z</time>
      </trkpt>
      <trkpt lat="42.70128" lon="1.65952">
        <ele>1279</ele>
        <time>2018-11-18T09:11:46.000Z</time>
      </trkpt>
      <trkpt lat="42.70129" lon="1.65952">
        <ele>1279</ele>
        <time>2018-11-18T09:11:48.000Z</time>
      </trkpt>
      <trkpt lat="42.70129" lon="1.65952">
        <ele>1279</ele>
        <time>2018-11-18T09:11:50.000Z</time>
      </trkpt>
      <trkpt lat="42.70131" lon="1.65954">
        <ele>1279</ele>
        <time>2018-11-18T09:11:52.000Z</time>
      </trkpt>
      <trkpt lat="42.70132" lon="1.65955">
        <ele>1279</ele>
        <time>2018-11-18T09:11:54.000Z</time>
      </trkpt>
      <trkpt lat="42.70135" lon="1.65955">
        <ele>1280</ele>
        <time>2018-11-18T09:11:56.000Z</time>
      </trkpt>
      <trkpt lat="42.70137" lon="1.65955">
        <ele>1281</ele>
        <time>2018-11-18T09:11:58.000Z</time>
      </trkpt>
      <trkpt lat="42.7014" lon="1.65954">
        <ele>1283</ele>
        <time>2018-11-18T09:12:00.000Z</time>
      </trkpt>
      <trkpt lat="42.70142" lon="1.65954">
        <ele>1283</ele>
        <time>2018-11-18T09:12:02.000Z</time>
      </trkpt>
      <trkpt lat="42.70143" lon="1.65954">
        <ele>1284</ele>
        <time>2018-11-18T09:12:04.000Z</time>
      </trkpt>
      <trkpt lat="42.70144" lon="1.65955">
        <ele>1284</ele>
        <time>2018-11-18T09:12:06.000Z</time>
      </trkpt>
      <trkpt lat="42.70144" lon="1.65956">
        <ele>1284</ele>
        <time>2018-11-18T09:12:08.000Z</time>
      </trkpt>
      <trkpt lat="42.70146" lon="1.65956">
        <ele>1284</ele>
        <time>2018-11-18T09:12:10.000Z</time>
      </trkpt>
      <trkpt lat="42.70146" lon="1.65956">
        <ele>1284</ele>
        <time>2018-11-18T09:12:12.000Z</time>
      </trkpt>
      <trkpt lat="42.70147" lon="1.65956">
        <ele>1284</ele>
        <time>2018-11-18T09:12:14.000Z</time>
      </trkpt>
      <trkpt lat="42.70146" lon="1.65958">
        <ele>1283</ele>
        <time>2018-11-18T09:12:16.000Z</time>
      </trkpt>
      <trkpt lat="42.70145" lon="1.65959">
        <ele>1282</ele>
        <time>2018-11-18T09:12:18.000Z</time>
      </trkpt>
      <trkpt lat="42.70145" lon="1.65959">
        <ele>1282</ele>
        <time>2018-11-18T09:12:20.000Z</time>
      </trkpt>
      <trkpt lat="42.70144" lon="1.6596">
        <ele>1282</ele>
        <time>2018-11-18T09:12:22.000Z</time>
      </trkpt>
      <trkpt lat="42.70143" lon="1.6596">
        <ele>1281</ele>
        <time>2018-11-18T09:12:24.000Z</time>
      </trkpt>
      <trkpt lat="42.70143" lon="1.65961">
        <ele>1281</ele>
        <time>2018-11-18T09:12:26.000Z</time>
      </trkpt>
      <trkpt lat="42.70145" lon="1.65961">
        <ele>1281</ele>
        <time>2018-11-18T09:12:28.000Z</time>
      </trkpt>
      <trkpt lat="42.70147" lon="1.65959">
        <ele>1283</ele>
        <time>2018-11-18T09:12:30.000Z</time>
      </trkpt>
      <trkpt lat="42.70149" lon="1.65959">
        <ele>1284</ele>
        <time>2018-11-18T09:12:32.000Z</time>
      </trkpt>
      <trkpt lat="42.70151" lon="1.65959">
        <ele>1284</ele>
        <time>2018-11-18T09:12:34.000Z</time>
      </trkpt>
      <trkpt lat="42.70151" lon="1.6596">
        <ele>1284</ele>
        <time>2018-11-18T09:12:36.000Z</time>
      </trkpt>
      <trkpt lat="42.70153" lon="1.65959">
        <ele>1285</ele>
        <time>2018-11-18T09:12:38.000Z</time>
      </trkpt>
      <trkpt lat="42.70153" lon="1.65958">
        <ele>1286</ele>
        <time>2018-11-18T09:12:40.000Z</time>
      </trkpt>
      <trkpt lat="42.70152" lon="1.6596">
        <ele>1285</ele>
        <time>2018-11-18T09:12:42.000Z</time>
      </trkpt>
      <trkpt lat="42.70153" lon="1.65962">
        <ele>1284</ele>
        <time>2018-11-18T09:12:44.000Z</time>
      </trkpt>
      <trkpt lat="42.70154" lon="1.65962">
        <ele>1284</ele>
        <time>2018-11-18T09:12:46.000Z</time>
      </trkpt>
      <trkpt lat="42.70156" lon="1.65962">
        <ele>1285</ele>
        <time>2018-11-18T09:12:48.000Z</time>
      </trkpt>
      <trkpt lat="42.70156" lon="1.65963">
        <ele>1285</ele>
        <time>2018-11-18T09:12:50.000Z</time>
      </trkpt>
      <trkpt lat="42.70156" lon="1.65964">
        <ele>1284</ele>
        <time>2018-11-18T09:12:52.000Z</time>
      </trkpt>
      <trkpt lat="42.70155" lon="1.65965">
        <ele>1283</ele>
        <time>2018-11-18T09:12:54.000Z</time>
      </trkpt>
      <trkpt lat="42.70154" lon="1.65965">
        <ele>1283</ele>
        <time>2018-11-18T09:12:56.000Z</time>
      </trkpt>
      <trkpt lat="42.70154" lon="1.65966">
        <ele>1282</ele>
        <time>2018-11-18T09:12:58.000Z</time>
      </trkpt>
      <trkpt lat="42.70155" lon="1.65967">
        <ele>1282</ele>
        <time>2018-11-18T09:13:00.000Z</time>
      </trkpt>
      <trkpt lat="42.70156" lon="1.65968">
        <ele>1282</ele>
        <time>2018-11-18T09:13:02.000Z</time>
      </trkpt>
      <trkpt lat="42.70157" lon="1.6597">
        <ele>1282</ele>
        <time>2018-11-18T09:13:04.000Z</time>
      </trkpt>
      <trkpt lat="42.70157" lon="1.65971">
        <ele>1281</ele>
        <time>2018-11-18T09:13:06.000Z</time>
      </trkpt>
      <trkpt lat="42.70159" lon="1.65971">
        <ele>1282</ele>
        <time>2018-11-18T09:13:08.000Z</time>
      </trkpt>
      <trkpt lat="42.70161" lon="1.6597">
        <ele>1283</ele>
        <time>2018-11-18T09:13:10.000Z</time>
      </trkpt>
      <trkpt lat="42.70161" lon="1.6597">
        <ele>1283</ele>
        <time>2018-11-18T09:13:12.000Z</time>
      </trkpt>
      <trkpt lat="42.70162" lon="1.6597">
        <ele>1284</ele>
        <time>2018-11-18T09:13:14.000Z</time>
      </trkpt>
      <trkpt lat="42.70163" lon="1.65969">
        <ele>1284</ele>
        <time>2018-11-18T09:13:16.000Z</time>
      </trkpt>
      <trkpt lat="42.70164" lon="1.65968">
        <ele>1285</ele>
        <time>2018-11-18T09:13:18.000Z</time>
      </trkpt>
      <trkpt lat="42.70165" lon="1.65968">
        <ele>1286</ele>
        <time>2018-11-18T09:13:20.000Z</time>
      </trkpt>
      <trkpt lat="42.70167" lon="1.65967">
        <ele>1287</ele>
        <time>2018-11-18T09:13:22.000Z</time>
      </trkpt>
      <trkpt lat="42.70166" lon="1.65967">
        <ele>1287</ele>
        <time>2018-11-18T09:13:24.000Z</time>
      </trkpt>
      <trkpt lat="42.70167" lon="1.65965">
        <ele>1287</ele>
        <time>2018-11-18T09:13:26.000Z</time>
      </trkpt>
      <trkpt lat="42.70166" lon="1.65965">
        <ele>1287</ele>
        <time>2018-11-18T09:13:28.000Z</time>
      </trkpt>
      <trkpt lat="42.70167" lon="1.65966">
        <ele>1287</ele>
        <time>2018-11-18T09:13:30.000Z</time>
      </trkpt>
      <trkpt lat="42.70167" lon="1.65966">
        <ele>1287</ele>
        <time>2018-11-18T09:13:32.000Z</time>
      </trkpt>
      <trkpt lat="42.70168" lon="1.65966">
        <ele>1288</ele>
        <time>2018-11-18T09:13:34.000Z</time>
      </trkpt>
      <trkpt lat="42.70168" lon="1.65966">
        <ele>1288</ele>
        <time>2018-11-18T09:13:36.000Z</time>
      </trkpt>
      <trkpt lat="42.70168" lon="1.65965">
        <ele>1288</ele>
        <time>2018-11-18T09:13:38.000Z</time>
      </trkpt>
      <trkpt lat="42.70169" lon="1.65964">
        <ele>1289</ele>
        <time>2018-11-18T09:13:40.000Z</time>
      </trkpt>
      <trkpt lat="42.70169" lon="1.65963">
        <ele>1290</ele>
        <time>2018-11-18T09:13:42.000Z</time>
      </trkpt>
      <trkpt lat="42.70168" lon="1.65963">
        <ele>1289</ele>
        <time>2018-11-18T09:13:44.000Z</time>
      </trkpt>
      <trkpt lat="42.70166" lon="1.65962">
        <ele>1289</ele>
        <time>2018-11-18T09:13:46.000Z</time>
      </trkpt>
      <trkpt lat="42.70164" lon="1.65962">
        <ele>1288</ele>
        <time>2018-11-18T09:13:48.000Z</time>
      </trkpt>
      <trkpt lat="42.70163" lon="1.65961">
        <ele>1288</ele>
        <time>2018-11-18T09:13:50.000Z</time>
      </trkpt>
      <trkpt lat="42.70161" lon="1.65961">
        <ele>1287</ele>
        <time>2018-11-18T09:13:52.000Z</time>
      </trkpt>
      <trkpt lat="42.70161" lon="1.65959">
        <ele>1288</ele>
        <time>2018-11-18T09:13:54.000Z</time>
      </trkpt>
      <trkpt lat="42.7016" lon="1.65959">
        <ele>1288</ele>
        <time>2018-11-18T09:13:56.000Z</time>
      </trkpt>
      <trkpt lat="42.7016" lon="1.65957">
        <ele>1289</ele>
        <time>2018-11-18T09:13:58.000Z</time>
      </trkpt>
      <trkpt lat="42.7016" lon="1.65957">
        <ele>1289</ele>
        <time>2018-11-18T09:14:00.000Z</time>
      </trkpt>
      <trkpt lat="42.7016" lon="1.65957">
        <ele>1289</ele>
        <time>2018-11-18T09:14:02.000Z</time>
      </trkpt>
      <trkpt lat="42.70159" lon="1.65957">
        <ele>1289</ele>
        <time>2018-11-18T09:14:04.000Z</time>
      </trkpt>
      <trkpt lat="42.70158" lon="1.65956">
        <ele>1289</ele>
        <time>2018-11-18T09:14:06.000Z</time>
      </trkpt>
      <trkpt lat="42.70157" lon="1.65957">
        <ele>1288</ele>
        <time>2018-11-18T09:14:08.000Z</time>
      </trkpt>
      <trkpt lat="42.70156" lon="1.65958">
        <ele>1287</ele>
        <time>2018-11-18T09:14:10.000Z</time>
      </trkpt>
      <trkpt lat="42.70155" lon="1.65959">
        <ele>1286</ele>
        <time>2018-11-18T09:14:12.000Z</time>
      </trkpt>
      <trkpt lat="42.70157" lon="1.65954">
        <ele>1289</ele>
        <time>2018-11-18T09:14:14.000Z</time>
      </trkpt>
      <trkpt lat="42.70156" lon="1.65952">
        <ele>1290</ele>
        <time>2018-11-18T09:14:16.000Z</time>
      </trkpt>
      <trkpt lat="42.70156" lon="1.65949">
        <ele>1291</ele>
        <time>2018-11-18T09:14:18.000Z</time>
      </trkpt>
      <trkpt lat="42.70155" lon="1.65949">
        <ele>1291</ele>
        <time>2018-11-18T09:14:20.000Z</time>
      </trkpt>
      <trkpt lat="42.70154" lon="1.65948">
        <ele>1291</ele>
        <time>2018-11-18T09:14:22.000Z</time>
      </trkpt>
      <trkpt lat="42.70154" lon="1.65946">
        <ele>1291</ele>
        <time>2018-11-18T09:14:24.000Z</time>
      </trkpt>
      <trkpt lat="42.70153" lon="1.65945">
        <ele>1292</ele>
        <time>2018-11-18T09:14:26.000Z</time>
      </trkpt>
      <trkpt lat="42.70153" lon="1.65943">
        <ele>1293</ele>
        <time>2018-11-18T09:14:28.000Z</time>
      </trkpt>
      <trkpt lat="42.70153" lon="1.65941">
        <ele>1294</ele>
        <time>2018-11-18T09:14:30.000Z</time>
      </trkpt>
      <trkpt lat="42.70154" lon="1.6594">
        <ele>1295</ele>
        <time>2018-11-18T09:14:32.000Z</time>
      </trkpt>
      <trkpt lat="42.70153" lon="1.6594">
        <ele>1294</ele>
        <time>2018-11-18T09:14:34.000Z</time>
      </trkpt>
      <trkpt lat="42.70153" lon="1.65939">
        <ele>1295</ele>
        <time>2018-11-18T09:14:36.000Z</time>
      </trkpt>
      <trkpt lat="42.70153" lon="1.65938">
        <ele>1295</ele>
        <time>2018-11-18T09:14:38.000Z</time>
      </trkpt>
      <trkpt lat="42.70153" lon="1.65937">
        <ele>1296</ele>
        <time>2018-11-18T09:14:40.000Z</time>
      </trkpt>
      <trkpt lat="42.70154" lon="1.65936">
        <ele>1296</ele>
        <time>2018-11-18T09:14:42.000Z</time>
      </trkpt>
      <trkpt lat="42.70154" lon="1.65935">
        <ele>1297</ele>
        <time>2018-11-18T09:14:44.000Z</time>
      </trkpt>
      <trkpt lat="42.70155" lon="1.65933">
        <ele>1298</ele>
        <time>2018-11-18T09:14:46.000Z</time>
      </trkpt>
      <trkpt lat="42.70155" lon="1.6593">
        <ele>1299</ele>
        <time>2018-11-18T09:14:48.000Z</time>
      </trkpt>
      <trkpt lat="42.70154" lon="1.65929">
        <ele>1300</ele>
        <time>2018-11-18T09:14:50.000Z</time>
      </trkpt>
      <trkpt lat="42.70154" lon="1.65927">
        <ele>1301</ele>
        <time>2018-11-18T09:14:52.000Z</time>
      </trkpt>
      <trkpt lat="42.70155" lon="1.65924">
        <ele>1302</ele>
        <time>2018-11-18T09:14:54.000Z</time>
      </trkpt>
      <trkpt lat="42.70156" lon="1.65922">
        <ele>1303</ele>
        <time>2018-11-18T09:14:56.000Z</time>
      </trkpt>
      <trkpt lat="42.70156" lon="1.65921">
        <ele>1304</ele>
        <time>2018-11-18T09:14:58.000Z</time>
      </trkpt>
      <trkpt lat="42.70156" lon="1.6592">
        <ele>1304</ele>
        <time>2018-11-18T09:15:00.000Z</time>
      </trkpt>
      <trkpt lat="42.70155" lon="1.65919">
        <ele>1305</ele>
        <time>2018-11-18T09:15:02.000Z</time>
      </trkpt>
      <trkpt lat="42.70155" lon="1.65918">
        <ele>1306</ele>
        <time>2018-11-18T09:15:04.000Z</time>
      </trkpt>
      <trkpt lat="42.70155" lon="1.65918">
        <ele>1305</ele>
        <time>2018-11-18T09:15:06.000Z</time>
      </trkpt>
      <trkpt lat="42.70155" lon="1.65917">
        <ele>1305</ele>
        <time>2018-11-18T09:15:08.000Z</time>
      </trkpt>
      <trkpt lat="42.70153" lon="1.65917">
        <ele>1305</ele>
        <time>2018-11-18T09:15:10.000Z</time>
      </trkpt>
      <trkpt lat="42.70153" lon="1.65916">
        <ele>1305</ele>
        <time>2018-11-18T09:15:12.000Z</time>
      </trkpt>
      <trkpt lat="42.70153" lon="1.65916">
        <ele>1306</ele>
        <time>2018-11-18T09:15:14.000Z</time>
      </trkpt>
      <trkpt lat="42.70152" lon="1.65916">
        <ele>1305</ele>
        <time>2018-11-18T09:15:16.000Z</time>
      </trkpt>
      <trkpt lat="42.70152" lon="1.65914">
        <ele>1306</ele>
        <time>2018-11-18T09:15:18.000Z</time>
      </trkpt>
      <trkpt lat="42.70152" lon="1.65913">
        <ele>1306</ele>
        <time>2018-11-18T09:15:20.000Z</time>
      </trkpt>
      <trkpt lat="42.70152" lon="1.65912">
        <ele>1307</ele>
        <time>2018-11-18T09:15:22.000Z</time>
      </trkpt>
      <trkpt lat="42.70152" lon="1.65912">
        <ele>1307</ele>
        <time>2018-11-18T09:15:24.000Z</time>
      </trkpt>
      <trkpt lat="42.70152" lon="1.65911">
        <ele>1308</ele>
        <time>2018-11-18T09:15:26.000Z</time>
      </trkpt>
      <trkpt lat="42.70152" lon="1.6591">
        <ele>1308</ele>
        <time>2018-11-18T09:15:28.000Z</time>
      </trkpt>
      <trkpt lat="42.70152" lon="1.65908">
        <ele>1309</ele>
        <time>2018-11-18T09:15:30.000Z</time>
      </trkpt>
      <trkpt lat="42.70152" lon="1.65906">
        <ele>1310</ele>
        <time>2018-11-18T09:15:32.000Z</time>
      </trkpt>
      <trkpt lat="42.70152" lon="1.65906">
        <ele>1310</ele>
        <time>2018-11-18T09:15:34.000Z</time>
      </trkpt>
      <trkpt lat="42.70153" lon="1.65905">
        <ele>1311</ele>
        <time>2018-11-18T09:15:36.000Z</time>
      </trkpt>
      <trkpt lat="42.70153" lon="1.65904">
        <ele>1311</ele>
        <time>2018-11-18T09:15:38.000Z</time>
      </trkpt>
      <trkpt lat="42.70152" lon="1.65904">
        <ele>1311</ele>
        <time>2018-11-18T09:15:40.000Z</time>
      </trkpt>
      <trkpt lat="42.70151" lon="1.65905">
        <ele>1310</ele>
        <time>2018-11-18T09:15:42.000Z</time>
      </trkpt>
      <trkpt lat="42.70151" lon="1.65905">
        <ele>1310</ele>
        <time>2018-11-18T09:15:44.000Z</time>
      </trkpt>
      <trkpt lat="42.70152" lon="1.65904">
        <ele>1311</ele>
        <time>2018-11-18T09:15:46.000Z</time>
      </trkpt>
      <trkpt lat="42.70153" lon="1.65904">
        <ele>1311</ele>
        <time>2018-11-18T09:15:48.000Z</time>
      </trkpt>
      <trkpt lat="42.70153" lon="1.65903">
        <ele>1312</ele>
        <time>2018-11-18T09:15:50.000Z</time>
      </trkpt>
      <trkpt lat="42.70153" lon="1.65903">
        <ele>1311</ele>
        <time>2018-11-18T09:15:52.000Z</time>
      </trkpt>
      <trkpt lat="42.70153" lon="1.65902">
        <ele>1312</ele>
        <time>2018-11-18T09:15:54.000Z</time>
      </trkpt>
      <trkpt lat="42.70153" lon="1.65901">
        <ele>1313</ele>
        <time>2018-11-18T09:15:56.000Z</time>
      </trkpt>
      <trkpt lat="42.70153" lon="1.65901">
        <ele>1313</ele>
        <time>2018-11-18T09:15:58.000Z</time>
      </trkpt>
      <trkpt lat="42.70153" lon="1.659">
        <ele>1313</ele>
        <time>2018-11-18T09:16:00.000Z</time>
      </trkpt>
      <trkpt lat="42.70152" lon="1.65899">
        <ele>1314</ele>
        <time>2018-11-18T09:16:02.000Z</time>
      </trkpt>
      <trkpt lat="42.70152" lon="1.65898">
        <ele>1314</ele>
        <time>2018-11-18T09:16:04.000Z</time>
      </trkpt>
      <trkpt lat="42.70152" lon="1.65896">
        <ele>1315</ele>
        <time>2018-11-18T09:16:06.000Z</time>
      </trkpt>
      <trkpt lat="42.70152" lon="1.65895">
        <ele>1316</ele>
        <time>2018-11-18T09:16:08.000Z</time>
      </trkpt>
      <trkpt lat="42.70152" lon="1.65894">
        <ele>1316</ele>
        <time>2018-11-18T09:16:10.000Z</time>
      </trkpt>
      <trkpt lat="42.70152" lon="1.65894">
        <ele>1317</ele>
        <time>2018-11-18T09:16:12.000Z</time>
      </trkpt>
      <trkpt lat="42.70151" lon="1.65893">
        <ele>1317</ele>
        <time>2018-11-18T09:16:14.000Z</time>
      </trkpt>
      <trkpt lat="42.70151" lon="1.65892">
        <ele>1317</ele>
        <time>2018-11-18T09:16:16.000Z</time>
      </trkpt>
      <trkpt lat="42.7015" lon="1.65892">
        <ele>1317</ele>
        <time>2018-11-18T09:16:18.000Z</time>
      </trkpt>
      <trkpt lat="42.7015" lon="1.65891">
        <ele>1318</ele>
        <time>2018-11-18T09:16:20.000Z</time>
      </trkpt>
      <trkpt lat="42.7015" lon="1.65889">
        <ele>1319</ele>
        <time>2018-11-18T09:16:22.000Z</time>
      </trkpt>
      <trkpt lat="42.70149" lon="1.65888">
        <ele>1319</ele>
        <time>2018-11-18T09:16:24.000Z</time>
      </trkpt>
      <trkpt lat="42.70148" lon="1.65888">
        <ele>1319</ele>
        <time>2018-11-18T09:16:26.000Z</time>
      </trkpt>
      <trkpt lat="42.70148" lon="1.65887">
        <ele>1320</ele>
        <time>2018-11-18T09:16:28.000Z</time>
      </trkpt>
      <trkpt lat="42.70147" lon="1.65886">
        <ele>1320</ele>
        <time>2018-11-18T09:16:30.000Z</time>
      </trkpt>
      <trkpt lat="42.70146" lon="1.65884">
        <ele>1321</ele>
        <time>2018-11-18T09:16:32.000Z</time>
      </trkpt>
      <trkpt lat="42.70145" lon="1.65882">
        <ele>1321</ele>
        <time>2018-11-18T09:16:34.000Z</time>
      </trkpt>
      <trkpt lat="42.70144" lon="1.65882">
        <ele>1321</ele>
        <time>2018-11-18T09:16:36.000Z</time>
      </trkpt>
      <trkpt lat="42.70144" lon="1.65881">
        <ele>1321</ele>
        <time>2018-11-18T09:16:38.000Z</time>
      </trkpt>
      <trkpt lat="42.70144" lon="1.6588">
        <ele>1322</ele>
        <time>2018-11-18T09:16:40.000Z</time>
      </trkpt>
      <trkpt lat="42.70143" lon="1.65878">
        <ele>1323</ele>
        <time>2018-11-18T09:16:42.000Z</time>
      </trkpt>
      <trkpt lat="42.70142" lon="1.65878">
        <ele>1323</ele>
        <time>2018-11-18T09:16:44.000Z</time>
      </trkpt>
      <trkpt lat="42.70142" lon="1.65876">
        <ele>1324</ele>
        <time>2018-11-18T09:16:46.000Z</time>
      </trkpt>
      <trkpt lat="42.70142" lon="1.65875">
        <ele>1324</ele>
        <time>2018-11-18T09:16:48.000Z</time>
      </trkpt>
      <trkpt lat="42.70142" lon="1.65874">
        <ele>1325</ele>
        <time>2018-11-18T09:16:50.000Z</time>
      </trkpt>
      <trkpt lat="42.70142" lon="1.65872">
        <ele>1325</ele>
        <time>2018-11-18T09:16:52.000Z</time>
      </trkpt>
      <trkpt lat="42.70141" lon="1.65872">
        <ele>1326</ele>
        <time>2018-11-18T09:16:54.000Z</time>
      </trkpt>
      <trkpt lat="42.70141" lon="1.65871">
        <ele>1326</ele>
        <time>2018-11-18T09:16:56.000Z</time>
      </trkpt>
      <trkpt lat="42.70141" lon="1.6587">
        <ele>1326</ele>
        <time>2018-11-18T09:16:58.000Z</time>
      </trkpt>
      <trkpt lat="42.70141" lon="1.65869">
        <ele>1326</ele>
        <time>2018-11-18T09:17:00.000Z</time>
      </trkpt>
      <trkpt lat="42.70142" lon="1.65869">
        <ele>1327</ele>
        <time>2018-11-18T09:17:02.000Z</time>
      </trkpt>
      <trkpt lat="42.70141" lon="1.65869">
        <ele>1327</ele>
        <time>2018-11-18T09:17:04.000Z</time>
      </trkpt>
      <trkpt lat="42.70142" lon="1.65868">
        <ele>1327</ele>
        <time>2018-11-18T09:17:06.000Z</time>
      </trkpt>
      <trkpt lat="42.70143" lon="1.65868">
        <ele>1327</ele>
        <time>2018-11-18T09:17:08.000Z</time>
      </trkpt>
      <trkpt lat="42.70144" lon="1.65867">
        <ele>1328</ele>
        <time>2018-11-18T09:17:10.000Z</time>
      </trkpt>
      <trkpt lat="42.70147" lon="1.65866">
        <ele>1328</ele>
        <time>2018-11-18T09:17:12.000Z</time>
      </trkpt>
      <trkpt lat="42.70149" lon="1.65865">
        <ele>1328</ele>
        <time>2018-11-18T09:17:14.000Z</time>
      </trkpt>
      <trkpt lat="42.7015" lon="1.65865">
        <ele>1329</ele>
        <time>2018-11-18T09:17:16.000Z</time>
      </trkpt>
      <trkpt lat="42.70152" lon="1.65865">
        <ele>1329</ele>
        <time>2018-11-18T09:17:18.000Z</time>
      </trkpt>
      <trkpt lat="42.70154" lon="1.65864">
        <ele>1329</ele>
        <time>2018-11-18T09:17:20.000Z</time>
      </trkpt>
      <trkpt lat="42.70156" lon="1.65864">
        <ele>1329</ele>
        <time>2018-11-18T09:17:22.000Z</time>
      </trkpt>
      <trkpt lat="42.70156" lon="1.65865">
        <ele>1329</ele>
        <time>2018-11-18T09:17:24.000Z</time>
      </trkpt>
      <trkpt lat="42.70157" lon="1.65864">
        <ele>1329</ele>
        <time>2018-11-18T09:17:26.000Z</time>
      </trkpt>
      <trkpt lat="42.70157" lon="1.65864">
        <ele>1329</ele>
        <time>2018-11-18T09:17:28.000Z</time>
      </trkpt>
      <trkpt lat="42.70157" lon="1.65864">
        <ele>1329</ele>
        <time>2018-11-18T09:17:30.000Z</time>
      </trkpt>
      <trkpt lat="42.70158" lon="1.65864">
        <ele>1329</ele>
        <time>2018-11-18T09:17:32.000Z</time>
      </trkpt>
      <trkpt lat="42.70159" lon="1.65864">
        <ele>1330</ele>
        <time>2018-11-18T09:17:34.000Z</time>
      </trkpt>
      <trkpt lat="42.70159" lon="1.65864">
        <ele>1330</ele>
        <time>2018-11-18T09:17:36.000Z</time>
      </trkpt>
      <trkpt lat="42.70159" lon="1.65864">
        <ele>1330</ele>
        <time>2018-11-18T09:17:38.000Z</time>
      </trkpt>
      <trkpt lat="42.70159" lon="1.65864">
        <ele>1330</ele>
        <time>2018-11-18T09:17:40.000Z</time>
      </trkpt>
      <trkpt lat="42.70159" lon="1.65864">
        <ele>1330</ele>
        <time>2018-11-18T09:17:42.000Z</time>
      </trkpt>
      <trkpt lat="42.70158" lon="1.65863">
        <ele>1330</ele>
        <time>2018-11-18T09:17:44.000Z</time>
      </trkpt>
      <trkpt lat="42.70158" lon="1.65863">
        <ele>1330</ele>
        <time>2018-11-18T09:17:46.000Z</time>
      </trkpt>
      <trkpt lat="42.70158" lon="1.65863">
        <ele>1330</ele>
        <time>2018-11-18T09:17:48.000Z</time>
      </trkpt>
      <trkpt lat="42.70158" lon="1.65862">
        <ele>1330</ele>
        <time>2018-11-18T09:17:50.000Z</time>
      </trkpt>
      <trkpt lat="42.70157" lon="1.65863">
        <ele>1330</ele>
        <time>2018-11-18T09:17:52.000Z</time>
      </trkpt>
      <trkpt lat="42.70157" lon="1.65863">
        <ele>1330</ele>
        <time>2018-11-18T09:17:54.000Z</time>
      </trkpt>
      <trkpt lat="42.70157" lon="1.65862">
        <ele>1330</ele>
        <time>2018-11-18T09:17:56.000Z</time>
      </trkpt>
      <trkpt lat="42.70157" lon="1.65862">
        <ele>1330</ele>
        <time>2018-11-18T09:17:58.000Z</time>
      </trkpt>
      <trkpt lat="42.70157" lon="1.65861">
        <ele>1331</ele>
        <time>2018-11-18T09:18:00.000Z</time>
      </trkpt>
      <trkpt lat="42.70157" lon="1.65861">
        <ele>1330</ele>
        <time>2018-11-18T09:18:02.000Z</time>
      </trkpt>
      <trkpt lat="42.70157" lon="1.65861">
        <ele>1330</ele>
        <time>2018-11-18T09:18:04.000Z</time>
      </trkpt>
      <trkpt lat="42.70157" lon="1.6586">
        <ele>1331</ele>
        <time>2018-11-18T09:18:06.000Z</time>
      </trkpt>
      <trkpt lat="42.70157" lon="1.65859">
        <ele>1331</ele>
        <time>2018-11-18T09:18:08.000Z</time>
      </trkpt>
      <trkpt lat="42.70157" lon="1.65857">
        <ele>1332</ele>
        <time>2018-11-18T09:18:10.000Z</time>
      </trkpt>
      <trkpt lat="42.70157" lon="1.65856">
        <ele>1332</ele>
        <time>2018-11-18T09:18:12.000Z</time>
      </trkpt>
      <trkpt lat="42.70157" lon="1.65854">
        <ele>1333</ele>
        <time>2018-11-18T09:18:14.000Z</time>
      </trkpt>
      <trkpt lat="42.70157" lon="1.65853">
        <ele>1333</ele>
        <time>2018-11-18T09:18:16.000Z</time>
      </trkpt>
      <trkpt lat="42.70158" lon="1.65853">
        <ele>1333</ele>
        <time>2018-11-18T09:18:18.000Z</time>
      </trkpt>
      <trkpt lat="42.70158" lon="1.65853">
        <ele>1333</ele>
        <time>2018-11-18T09:18:20.000Z</time>
      </trkpt>
      <trkpt lat="42.70158" lon="1.65852">
        <ele>1334</ele>
        <time>2018-11-18T09:18:22.000Z</time>
      </trkpt>
      <trkpt lat="42.70158" lon="1.65851">
        <ele>1334</ele>
        <time>2018-11-18T09:18:24.000Z</time>
      </trkpt>
      <trkpt lat="42.70157" lon="1.6585">
        <ele>1334</ele>
        <time>2018-11-18T09:18:26.000Z</time>
      </trkpt>
      <trkpt lat="42.70156" lon="1.65849">
        <ele>1334</ele>
        <time>2018-11-18T09:18:28.000Z</time>
      </trkpt>
      <trkpt lat="42.70155" lon="1.65849">
        <ele>1334</ele>
        <time>2018-11-18T09:18:30.000Z</time>
      </trkpt>
      <trkpt lat="42.70155" lon="1.65848">
        <ele>1335</ele>
        <time>2018-11-18T09:18:32.000Z</time>
      </trkpt>
      <trkpt lat="42.70155" lon="1.65848">
        <ele>1335</ele>
        <time>2018-11-18T09:18:34.000Z</time>
      </trkpt>
      <trkpt lat="42.70155" lon="1.65849">
        <ele>1334</ele>
        <time>2018-11-18T09:18:36.000Z</time>
      </trkpt>
      <trkpt lat="42.70153" lon="1.65848">
        <ele>1334</ele>
        <time>2018-11-18T09:18:38.000Z</time>
      </trkpt>
      <trkpt lat="42.70152" lon="1.65848">
        <ele>1334</ele>
        <time>2018-11-18T09:18:40.000Z</time>
      </trkpt>
      <trkpt lat="42.70152" lon="1.65848">
        <ele>1334</ele>
        <time>2018-11-18T09:18:42.000Z</time>
      </trkpt>
      <trkpt lat="42.70152" lon="1.65847">
        <ele>1334</ele>
        <time>2018-11-18T09:18:44.000Z</time>
      </trkpt>
      <trkpt lat="42.70151" lon="1.65847">
        <ele>1335</ele>
        <time>2018-11-18T09:18:46.000Z</time>
      </trkpt>
      <trkpt lat="42.7015" lon="1.65847">
        <ele>1335</ele>
        <time>2018-11-18T09:18:48.000Z</time>
      </trkpt>
      <trkpt lat="42.7015" lon="1.65846">
        <ele>1335</ele>
        <time>2018-11-18T09:18:50.000Z</time>
      </trkpt>
      <trkpt lat="42.70149" lon="1.65845">
        <ele>1335</ele>
        <time>2018-11-18T09:18:52.000Z</time>
      </trkpt>
      <trkpt lat="42.70149" lon="1.65844">
        <ele>1335</ele>
        <time>2018-11-18T09:18:54.000Z</time>
      </trkpt>
      <trkpt lat="42.70149" lon="1.65843">
        <ele>1335</ele>
        <time>2018-11-18T09:18:56.000Z</time>
      </trkpt>
      <trkpt lat="42.70149" lon="1.65843">
        <ele>1336</ele>
        <time>2018-11-18T09:18:58.000Z</time>
      </trkpt>
      <trkpt lat="42.70149" lon="1.65843">
        <ele>1336</ele>
        <time>2018-11-18T09:19:00.000Z</time>
      </trkpt>
      <trkpt lat="42.70149" lon="1.65841">
        <ele>1336</ele>
        <time>2018-11-18T09:19:02.000Z</time>
      </trkpt>
      <trkpt lat="42.7015" lon="1.65839">
        <ele>1337</ele>
        <time>2018-11-18T09:19:04.000Z</time>
      </trkpt>
      <trkpt lat="42.7015" lon="1.65839">
        <ele>1337</ele>
        <time>2018-11-18T09:19:06.000Z</time>
      </trkpt>
      <trkpt lat="42.70149" lon="1.65836">
        <ele>1338</ele>
        <time>2018-11-18T09:19:08.000Z</time>
      </trkpt>
      <trkpt lat="42.70148" lon="1.65835">
        <ele>1338</ele>
        <time>2018-11-18T09:19:10.000Z</time>
      </trkpt>
      <trkpt lat="42.70146" lon="1.65834">
        <ele>1338</ele>
        <time>2018-11-18T09:19:12.000Z</time>
      </trkpt>
      <trkpt lat="42.70146" lon="1.65832">
        <ele>1339</ele>
        <time>2018-11-18T09:19:14.000Z</time>
      </trkpt>
      <trkpt lat="42.70145" lon="1.65829">
        <ele>1340</ele>
        <time>2018-11-18T09:19:16.000Z</time>
      </trkpt>
      <trkpt lat="42.70145" lon="1.65828">
        <ele>1340</ele>
        <time>2018-11-18T09:19:18.000Z</time>
      </trkpt>
      <trkpt lat="42.70146" lon="1.65829">
        <ele>1340</ele>
        <time>2018-11-18T09:19:20.000Z</time>
      </trkpt>
      <trkpt lat="42.70147" lon="1.65829">
        <ele>1340</ele>
        <time>2018-11-18T09:19:22.000Z</time>
      </trkpt>
      <trkpt lat="42.70149" lon="1.65829">
        <ele>1340</ele>
        <time>2018-11-18T09:19:24.000Z</time>
      </trkpt>
      <trkpt lat="42.7015" lon="1.65828">
        <ele>1340</ele>
        <time>2018-11-18T09:19:26.000Z</time>
      </trkpt>
      <trkpt lat="42.70153" lon="1.65828">
        <ele>1341</ele>
        <time>2018-11-18T09:19:28.000Z</time>
      </trkpt>
      <trkpt lat="42.70154" lon="1.65826">
        <ele>1341</ele>
        <time>2018-11-18T09:19:30.000Z</time>
      </trkpt>
      <trkpt lat="42.70155" lon="1.65826">
        <ele>1341</ele>
        <time>2018-11-18T09:19:32.000Z</time>
      </trkpt>
      <trkpt lat="42.70155" lon="1.65826">
        <ele>1342</ele>
        <time>2018-11-18T09:19:34.000Z</time>
      </trkpt>
      <trkpt lat="42.70155" lon="1.65823">
        <ele>1342</ele>
        <time>2018-11-18T09:19:36.000Z</time>
      </trkpt>
      <trkpt lat="42.70155" lon="1.65823">
        <ele>1343</ele>
        <time>2018-11-18T09:19:38.000Z</time>
      </trkpt>
      <trkpt lat="42.70155" lon="1.65821">
        <ele>1343</ele>
        <time>2018-11-18T09:19:40.000Z</time>
      </trkpt>
      <trkpt lat="42.70153" lon="1.6582">
        <ele>1343</ele>
        <time>2018-11-18T09:19:42.000Z</time>
      </trkpt>
      <trkpt lat="42.70153" lon="1.65819">
        <ele>1344</ele>
        <time>2018-11-18T09:19:44.000Z</time>
      </trkpt>
      <trkpt lat="42.70151" lon="1.65818">
        <ele>1344</ele>
        <time>2018-11-18T09:19:46.000Z</time>
      </trkpt>
      <trkpt lat="42.70151" lon="1.65817">
        <ele>1344</ele>
        <time>2018-11-18T09:19:48.000Z</time>
      </trkpt>
      <trkpt lat="42.70151" lon="1.65817">
        <ele>1344</ele>
        <time>2018-11-18T09:19:50.000Z</time>
      </trkpt>
      <trkpt lat="42.70151" lon="1.65817">
        <ele>1344</ele>
        <time>2018-11-18T09:19:52.000Z</time>
      </trkpt>
      <trkpt lat="42.7015" lon="1.65818">
        <ele>1344</ele>
        <time>2018-11-18T09:19:54.000Z</time>
      </trkpt>
      <trkpt lat="42.70151" lon="1.65818">
        <ele>1344</ele>
        <time>2018-11-18T09:19:56.000Z</time>
      </trkpt>
      <trkpt lat="42.70152" lon="1.65819">
        <ele>1344</ele>
        <time>2018-11-18T09:19:58.000Z</time>
      </trkpt>
      <trkpt lat="42.70151" lon="1.65821">
        <ele>1343</ele>
        <time>2018-11-18T09:20:00.000Z</time>
      </trkpt>
      <trkpt lat="42.70151" lon="1.65822">
        <ele>1343</ele>
        <time>2018-11-18T09:20:02.000Z</time>
      </trkpt>
      <trkpt lat="42.70152" lon="1.65823">
        <ele>1342</ele>
        <time>2018-11-18T09:20:04.000Z</time>
      </trkpt>
      <trkpt lat="42.70152" lon="1.65824">
        <ele>1342</ele>
        <time>2018-11-18T09:20:06.000Z</time>
      </trkpt>
      <trkpt lat="42.7015" lon="1.65824">
        <ele>1342</ele>
        <time>2018-11-18T09:20:08.000Z</time>
      </trkpt>
      <trkpt lat="42.7015" lon="1.65824">
        <ele>1342</ele>
        <time>2018-11-18T09:20:10.000Z</time>
      </trkpt>
      <trkpt lat="42.70149" lon="1.65824">
        <ele>1342</ele>
        <time>2018-11-18T09:20:12.000Z</time>
      </trkpt>
      <trkpt lat="42.70149" lon="1.65824">
        <ele>1342</ele>
        <time>2018-11-18T09:20:14.000Z</time>
      </trkpt>
      <trkpt lat="42.70149" lon="1.65825">
        <ele>1341</ele>
        <time>2018-11-18T09:20:16.000Z</time>
      </trkpt>
      <trkpt lat="42.70148" lon="1.65827">
        <ele>1341</ele>
        <time>2018-11-18T09:20:18.000Z</time>
      </trkpt>
      <trkpt lat="42.70147" lon="1.65828">
        <ele>1340</ele>
        <time>2018-11-18T09:20:20.000Z</time>
      </trkpt>
      <trkpt lat="42.70146" lon="1.65832">
        <ele>1339</ele>
        <time>2018-11-18T09:20:22.000Z</time>
      </trkpt>
      <trkpt lat="42.70144" lon="1.65836">
        <ele>1337</ele>
        <time>2018-11-18T09:20:24.000Z</time>
      </trkpt>
      <trkpt lat="42.70143" lon="1.65838">
        <ele>1337</ele>
        <time>2018-11-18T09:20:26.000Z</time>
      </trkpt>
      <trkpt lat="42.70143" lon="1.65839">
        <ele>1336</ele>
        <time>2018-11-18T09:20:28.000Z</time>
      </trkpt>
      <trkpt lat="42.70143" lon="1.6584">
        <ele>1336</ele>
        <time>2018-11-18T09:20:30.000Z</time>
      </trkpt>
      <trkpt lat="42.70143" lon="1.65841">
        <ele>1336</ele>
        <time>2018-11-18T09:20:32.000Z</time>
      </trkpt>
      <trkpt lat="42.70143" lon="1.65841">
        <ele>1336</ele>
        <time>2018-11-18T09:20:34.000Z</time>
      </trkpt>
      <trkpt lat="42.70142" lon="1.65842">
        <ele>1335</ele>
        <time>2018-11-18T09:20:36.000Z</time>
      </trkpt>
      <trkpt lat="42.70142" lon="1.65843">
        <ele>1335</ele>
        <time>2018-11-18T09:20:38.000Z</time>
      </trkpt>
      <trkpt lat="42.70141" lon="1.65843">
        <ele>1335</ele>
        <time>2018-11-18T09:20:40.000Z</time>
      </trkpt>
      <trkpt lat="42.70141" lon="1.65844">
        <ele>1335</ele>
        <time>2018-11-18T09:20:42.000Z</time>
      </trkpt>
      <trkpt lat="42.7014" lon="1.65843">
        <ele>1335</ele>
        <time>2018-11-18T09:20:44.000Z</time>
      </trkpt>
      <trkpt lat="42.7014" lon="1.65842">
        <ele>1335</ele>
        <time>2018-11-18T09:20:46.000Z</time>
      </trkpt>
      <trkpt lat="42.7014" lon="1.65842">
        <ele>1335</ele>
        <time>2018-11-18T09:20:48.000Z</time>
      </trkpt>
      <trkpt lat="42.7014" lon="1.65842">
        <ele>1335</ele>
        <time>2018-11-18T09:20:50.000Z</time>
      </trkpt>
      <trkpt lat="42.70139" lon="1.65842">
        <ele>1335</ele>
        <time>2018-11-18T09:20:52.000Z</time>
      </trkpt>
      <trkpt lat="42.70139" lon="1.65842">
        <ele>1335</ele>
        <time>2018-11-18T09:20:54.000Z</time>
      </trkpt>
      <trkpt lat="42.70138" lon="1.65842">
        <ele>1335</ele>
        <time>2018-11-18T09:20:56.000Z</time>
      </trkpt>
      <trkpt lat="42.7014" lon="1.65842">
        <ele>1335</ele>
        <time>2018-11-18T09:20:58.000Z</time>
      </trkpt>
      <trkpt lat="42.7014" lon="1.65842">
        <ele>1335</ele>
        <time>2018-11-18T09:21:00.000Z</time>
      </trkpt>
      <trkpt lat="42.70141" lon="1.65841">
        <ele>1336</ele>
        <time>2018-11-18T09:21:02.000Z</time>
      </trkpt>
      <trkpt lat="42.70141" lon="1.65839">
        <ele>1336</ele>
        <time>2018-11-18T09:21:04.000Z</time>
      </trkpt>
      <trkpt lat="42.70141" lon="1.65839">
        <ele>1336</ele>
        <time>2018-11-18T09:21:06.000Z</time>
      </trkpt>
      <trkpt lat="42.70143" lon="1.65839">
        <ele>1336</ele>
        <time>2018-11-18T09:21:08.000Z</time>
      </trkpt>
      <trkpt lat="42.70143" lon="1.65839">
        <ele>1336</ele>
        <time>2018-11-18T09:21:10.000Z</time>
      </trkpt>
      <trkpt lat="42.70143" lon="1.65838">
        <ele>1337</ele>
        <time>2018-11-18T09:21:12.000Z</time>
      </trkpt>
      <trkpt lat="42.70144" lon="1.65837">
        <ele>1337</ele>
        <time>2018-11-18T09:21:14.000Z</time>
      </trkpt>
      <trkpt lat="42.70144" lon="1.65837">
        <ele>1337</ele>
        <time>2018-11-18T09:21:16.000Z</time>
      </trkpt>
      <trkpt lat="42.70144" lon="1.65834">
        <ele>1338</ele>
        <time>2018-11-18T09:21:18.000Z</time>
      </trkpt>
      <trkpt lat="42.70143" lon="1.65835">
        <ele>1338</ele>
        <time>2018-11-18T09:21:20.000Z</time>
      </trkpt>
      <trkpt lat="42.70143" lon="1.65835">
        <ele>1338</ele>
        <time>2018-11-18T09:21:22.000Z</time>
      </trkpt>
      <trkpt lat="42.70143" lon="1.65833">
        <ele>1338</ele>
        <time>2018-11-18T09:21:24.000Z</time>
      </trkpt>
      <trkpt lat="42.70144" lon="1.65828">
        <ele>1340</ele>
        <time>2018-11-18T09:21:26.000Z</time>
      </trkpt>
      <trkpt lat="42.70145" lon="1.65826">
        <ele>1341</ele>
        <time>2018-11-18T09:21:28.000Z</time>
      </trkpt>
      <trkpt lat="42.70147" lon="1.65823">
        <ele>1342</ele>
        <time>2018-11-18T09:21:30.000Z</time>
      </trkpt>
      <trkpt lat="42.70148" lon="1.65821">
        <ele>1343</ele>
        <time>2018-11-18T09:21:32.000Z</time>
      </trkpt>
      <trkpt lat="42.70148" lon="1.6582">
        <ele>1343</ele>
        <time>2018-11-18T09:21:34.000Z</time>
      </trkpt>
      <trkpt lat="42.70149" lon="1.6582">
        <ele>1343</ele>
        <time>2018-11-18T09:21:36.000Z</time>
      </trkpt>
      <trkpt lat="42.70151" lon="1.6582">
        <ele>1343</ele>
        <time>2018-11-18T09:21:38.000Z</time>
      </trkpt>
      <trkpt lat="42.70152" lon="1.6582">
        <ele>1343</ele>
        <time>2018-11-18T09:21:40.000Z</time>
      </trkpt>
      <trkpt lat="42.70152" lon="1.6582">
        <ele>1343</ele>
        <time>2018-11-18T09:21:42.000Z</time>
      </trkpt>
      <trkpt lat="42.70153" lon="1.6582">
        <ele>1343</ele>
        <time>2018-11-18T09:21:44.000Z</time>
      </trkpt>
      <trkpt lat="42.70153" lon="1.65819">
        <ele>1344</ele>
        <time>2018-11-18T09:21:46.000Z</time>
      </trkpt>
      <trkpt lat="42.70153" lon="1.6582">
        <ele>1343</ele>
        <time>2018-11-18T09:21:48.000Z</time>
      </trkpt>
      <trkpt lat="42.70153" lon="1.65819">
        <ele>1343</ele>
        <time>2018-11-18T09:21:50.000Z</time>
      </trkpt>
      <trkpt lat="42.70152" lon="1.6582">
        <ele>1343</ele>
        <time>2018-11-18T09:21:52.000Z</time>
      </trkpt>
      <trkpt lat="42.70152" lon="1.65819">
        <ele>1344</ele>
        <time>2018-11-18T09:21:54.000Z</time>
      </trkpt>
      <trkpt lat="42.70151" lon="1.65819">
        <ele>1343</ele>
        <time>2018-11-18T09:21:56.000Z</time>
      </trkpt>
      <trkpt lat="42.7015" lon="1.65819">
        <ele>1343</ele>
        <time>2018-11-18T09:21:58.000Z</time>
      </trkpt>
      <trkpt lat="42.7015" lon="1.65819">
        <ele>1344</ele>
        <time>2018-11-18T09:22:00.000Z</time>
      </trkpt>
      <trkpt lat="42.70149" lon="1.65819">
        <ele>1343</ele>
        <time>2018-11-18T09:22:02.000Z</time>
      </trkpt>
      <trkpt lat="42.70149" lon="1.65818">
        <ele>1344</ele>
        <time>2018-11-18T09:22:04.000Z</time>
      </trkpt>
      <trkpt lat="42.70149" lon="1.65818">
        <ele>1344</ele>
        <time>2018-11-18T09:22:06.000Z</time>
      </trkpt>
      <trkpt lat="42.70149" lon="1.65818">
        <ele>1344</ele>
        <time>2018-11-18T09:22:08.000Z</time>
      </trkpt>
      <trkpt lat="42.70149" lon="1.65818">
        <ele>1344</ele>
        <time>2018-11-18T09:22:10.000Z</time>
      </trkpt>
      <trkpt lat="42.7015" lon="1.65819">
        <ele>1343</ele>
        <time>2018-11-18T09:22:12.000Z</time>
      </trkpt>
      <trkpt lat="42.7015" lon="1.65819">
        <ele>1343</ele>
        <time>2018-11-18T09:22:14.000Z</time>
      </trkpt>
      <trkpt lat="42.70149" lon="1.6582">
        <ele>1343</ele>
        <time>2018-11-18T09:22:16.000Z</time>
      </trkpt>
      <trkpt lat="42.70149" lon="1.6582">
        <ele>1343</ele>
        <time>2018-11-18T09:22:18.000Z</time>
      </trkpt>
      <trkpt lat="42.70148" lon="1.65822">
        <ele>1342</ele>
        <time>2018-11-18T09:22:20.000Z</time>
      </trkpt>
      <trkpt lat="42.70146" lon="1.65823">
        <ele>1342</ele>
        <time>2018-11-18T09:22:22.000Z</time>
      </trkpt>
      <trkpt lat="42.70145" lon="1.65825">
        <ele>1341</ele>
        <time>2018-11-18T09:22:24.000Z</time>
      </trkpt>
      <trkpt lat="42.70143" lon="1.65826">
        <ele>1341</ele>
        <time>2018-11-18T09:22:26.000Z</time>
      </trkpt>
      <trkpt lat="42.70142" lon="1.65828">
        <ele>1340</ele>
        <time>2018-11-18T09:22:28.000Z</time>
      </trkpt>
      <trkpt lat="42.70141" lon="1.65829">
        <ele>1339</ele>
        <time>2018-11-18T09:22:30.000Z</time>
      </trkpt>
      <trkpt lat="42.7014" lon="1.65828">
        <ele>1340</ele>
        <time>2018-11-18T09:22:32.000Z</time>
      </trkpt>
      <trkpt lat="42.7014" lon="1.65828">
        <ele>1340</ele>
        <time>2018-11-18T09:22:34.000Z</time>
      </trkpt>
      <trkpt lat="42.70143" lon="1.65829">
        <ele>1340</ele>
        <time>2018-11-18T09:22:36.000Z</time>
      </trkpt>
      <trkpt lat="42.70145" lon="1.65829">
        <ele>1340</ele>
        <time>2018-11-18T09:22:38.000Z</time>
      </trkpt>
      <trkpt lat="42.70145" lon="1.65828">
        <ele>1340</ele>
        <time>2018-11-18T09:22:40.000Z</time>
      </trkpt>
      <trkpt lat="42.70145" lon="1.65828">
        <ele>1340</ele>
        <time>2018-11-18T09:22:42.000Z</time>
      </trkpt>
      <trkpt lat="42.70151" lon="1.65829">
        <ele>1340</ele>
        <time>2018-11-18T09:22:44.000Z</time>
      </trkpt>
      <trkpt lat="42.7015" lon="1.65829">
        <ele>1340</ele>
        <time>2018-11-18T09:22:46.000Z</time>
      </trkpt>
      <trkpt lat="42.70149" lon="1.65831">
        <ele>1340</ele>
        <time>2018-11-18T09:22:48.000Z</time>
      </trkpt>
      <trkpt lat="42.70148" lon="1.6583">
        <ele>1340</ele>
        <time>2018-11-18T09:22:50.000Z</time>
      </trkpt>
      <trkpt lat="42.70147" lon="1.6583">
        <ele>1340</ele>
        <time>2018-11-18T09:22:52.000Z</time>
      </trkpt>
      <trkpt lat="42.70146" lon="1.65829">
        <ele>1340</ele>
        <time>2018-11-18T09:22:54.000Z</time>
      </trkpt>
      <trkpt lat="42.70145" lon="1.65829">
        <ele>1340</ele>
        <time>2018-11-18T09:22:56.000Z</time>
      </trkpt>
      <trkpt lat="42.70145" lon="1.65827">
        <ele>1340</ele>
        <time>2018-11-18T09:22:58.000Z</time>
      </trkpt>
      <trkpt lat="42.70145" lon="1.65824">
        <ele>1341</ele>
        <time>2018-11-18T09:23:00.000Z</time>
      </trkpt>
      <trkpt lat="42.70145" lon="1.65822">
        <ele>1342</ele>
        <time>2018-11-18T09:23:02.000Z</time>
      </trkpt>
      <trkpt lat="42.70145" lon="1.6582">
        <ele>1343</ele>
        <time>2018-11-18T09:23:04.000Z</time>
      </trkpt>
      <trkpt lat="42.70145" lon="1.65819">
        <ele>1343</ele>
        <time>2018-11-18T09:23:06.000Z</time>
      </trkpt>
      <trkpt lat="42.70145" lon="1.65817">
        <ele>1343</ele>
        <time>2018-11-18T09:23:08.000Z</time>
      </trkpt>
      <trkpt lat="42.70145" lon="1.65815">
        <ele>1344</ele>
        <time>2018-11-18T09:23:10.000Z</time>
      </trkpt>
      <trkpt lat="42.70143" lon="1.65814">
        <ele>1344</ele>
        <time>2018-11-18T09:23:12.000Z</time>
      </trkpt>
      <trkpt lat="42.70143" lon="1.65813">
        <ele>1344</ele>
        <time>2018-11-18T09:23:14.000Z</time>
      </trkpt>
      <trkpt lat="42.70143" lon="1.65812">
        <ele>1344</ele>
        <time>2018-11-18T09:23:16.000Z</time>
      </trkpt>
      <trkpt lat="42.70143" lon="1.65812">
        <ele>1345</ele>
        <time>2018-11-18T09:23:18.000Z</time>
      </trkpt>
      <trkpt lat="42.70143" lon="1.65812">
        <ele>1345</ele>
        <time>2018-11-18T09:23:20.000Z</time>
      </trkpt>
      <trkpt lat="42.70144" lon="1.65811">
        <ele>1345</ele>
        <time>2018-11-18T09:23:22.000Z</time>
      </trkpt>
      <trkpt lat="42.70143" lon="1.6581">
        <ele>1345</ele>
        <time>2018-11-18T09:23:24.000Z</time>
      </trkpt>
      <trkpt lat="42.70143" lon="1.65809">
        <ele>1345</ele>
        <time>2018-11-18T09:23:26.000Z</time>
      </trkpt>
      <trkpt lat="42.70142" lon="1.65809">
        <ele>1345</ele>
        <time>2018-11-18T09:23:28.000Z</time>
      </trkpt>
      <trkpt lat="42.70142" lon="1.65809">
        <ele>1345</ele>
        <time>2018-11-18T09:23:30.000Z</time>
      </trkpt>
      <trkpt lat="42.70142" lon="1.65807">
        <ele>1346</ele>
        <time>2018-11-18T09:23:32.000Z</time>
      </trkpt>
      <trkpt lat="42.70142" lon="1.65806">
        <ele>1346</ele>
        <time>2018-11-18T09:23:34.000Z</time>
      </trkpt>
      <trkpt lat="42.70143" lon="1.65804">
        <ele>1347</ele>
        <time>2018-11-18T09:23:36.000Z</time>
      </trkpt>
      <trkpt lat="42.70143" lon="1.65802">
        <ele>1347</ele>
        <time>2018-11-18T09:23:38.000Z</time>
      </trkpt>
      <trkpt lat="42.70143" lon="1.658">
        <ele>1348</ele>
        <time>2018-11-18T09:23:40.000Z</time>
      </trkpt>
      <trkpt lat="42.70143" lon="1.65799">
        <ele>1348</ele>
        <time>2018-11-18T09:23:42.000Z</time>
      </trkpt>
      <trkpt lat="42.70143" lon="1.65797">
        <ele>1348</ele>
        <time>2018-11-18T09:23:44.000Z</time>
      </trkpt>
      <trkpt lat="42.70143" lon="1.65796">
        <ele>1349</ele>
        <time>2018-11-18T09:23:46.000Z</time>
      </trkpt>
      <trkpt lat="42.70143" lon="1.65794">
        <ele>1349</ele>
        <time>2018-11-18T09:23:48.000Z</time>
      </trkpt>
      <trkpt lat="42.70143" lon="1.65793">
        <ele>1349</ele>
        <time>2018-11-18T09:23:50.000Z</time>
      </trkpt>
      <trkpt lat="42.70143" lon="1.65792">
        <ele>1350</ele>
        <time>2018-11-18T09:23:52.000Z</time>
      </trkpt>
      <trkpt lat="42.70144" lon="1.6579">
        <ele>1350</ele>
        <time>2018-11-18T09:23:54.000Z</time>
      </trkpt>
      <trkpt lat="42.70144" lon="1.65789">
        <ele>1350</ele>
        <time>2018-11-18T09:23:56.000Z</time>
      </trkpt>
      <trkpt lat="42.70144" lon="1.65788">
        <ele>1351</ele>
        <time>2018-11-18T09:23:58.000Z</time>
      </trkpt>
      <trkpt lat="42.70144" lon="1.65788">
        <ele>1351</ele>
        <time>2018-11-18T09:24:00.000Z</time>
      </trkpt>
      <trkpt lat="42.70143" lon="1.65787">
        <ele>1351</ele>
        <time>2018-11-18T09:24:02.000Z</time>
      </trkpt>
      <trkpt lat="42.70144" lon="1.65785">
        <ele>1351</ele>
        <time>2018-11-18T09:24:04.000Z</time>
      </trkpt>
      <trkpt lat="42.70144" lon="1.65784">
        <ele>1352</ele>
        <time>2018-11-18T09:24:06.000Z</time>
      </trkpt>
      <trkpt lat="42.70144" lon="1.65782">
        <ele>1352</ele>
        <time>2018-11-18T09:24:08.000Z</time>
      </trkpt>
      <trkpt lat="42.70143" lon="1.65781">
        <ele>1352</ele>
        <time>2018-11-18T09:24:10.000Z</time>
      </trkpt>
      <trkpt lat="42.70143" lon="1.65779">
        <ele>1353</ele>
        <time>2018-11-18T09:24:12.000Z</time>
      </trkpt>
      <trkpt lat="42.70142" lon="1.65778">
        <ele>1353</ele>
        <time>2018-11-18T09:24:14.000Z</time>
      </trkpt>
      <trkpt lat="42.70141" lon="1.65777">
        <ele>1353</ele>
        <time>2018-11-18T09:24:16.000Z</time>
      </trkpt>
      <trkpt lat="42.7014" lon="1.65775">
        <ele>1353</ele>
        <time>2018-11-18T09:24:18.000Z</time>
      </trkpt>
      <trkpt lat="42.70139" lon="1.65773">
        <ele>1354</ele>
        <time>2018-11-18T09:24:20.000Z</time>
      </trkpt>
      <trkpt lat="42.70138" lon="1.65772">
        <ele>1354</ele>
        <time>2018-11-18T09:24:22.000Z</time>
      </trkpt>
      <trkpt lat="42.70137" lon="1.6577">
        <ele>1354</ele>
        <time>2018-11-18T09:24:24.000Z</time>
      </trkpt>
      <trkpt lat="42.70136" lon="1.65769">
        <ele>1355</ele>
        <time>2018-11-18T09:24:26.000Z</time>
      </trkpt>
      <trkpt lat="42.70136" lon="1.65769">
        <ele>1355</ele>
        <time>2018-11-18T09:24:28.000Z</time>
      </trkpt>
      <trkpt lat="42.70135" lon="1.65768">
        <ele>1355</ele>
        <time>2018-11-18T09:24:30.000Z</time>
      </trkpt>
      <trkpt lat="42.70135" lon="1.65767">
        <ele>1355</ele>
        <time>2018-11-18T09:24:32.000Z</time>
      </trkpt>
      <trkpt lat="42.70135" lon="1.65766">
        <ele>1355</ele>
        <time>2018-11-18T09:24:34.000Z</time>
      </trkpt>
      <trkpt lat="42.70135" lon="1.65765">
        <ele>1356</ele>
        <time>2018-11-18T09:24:36.000Z</time>
      </trkpt>
      <trkpt lat="42.70134" lon="1.65765">
        <ele>1355</ele>
        <time>2018-11-18T09:24:38.000Z</time>
      </trkpt>
      <trkpt lat="42.70132" lon="1.65763">
        <ele>1356</ele>
        <time>2018-11-18T09:24:40.000Z</time>
      </trkpt>
      <trkpt lat="42.70132" lon="1.65762">
        <ele>1356</ele>
        <time>2018-11-18T09:24:42.000Z</time>
      </trkpt>
      <trkpt lat="42.7013" lon="1.65761">
        <ele>1356</ele>
        <time>2018-11-18T09:24:44.000Z</time>
      </trkpt>
      <trkpt lat="42.70129" lon="1.6576">
        <ele>1356</ele>
        <time>2018-11-18T09:24:46.000Z</time>
      </trkpt>
      <trkpt lat="42.70129" lon="1.65759">
        <ele>1357</ele>
        <time>2018-11-18T09:24:48.000Z</time>
      </trkpt>
      <trkpt lat="42.70128" lon="1.65758">
        <ele>1357</ele>
        <time>2018-11-18T09:24:50.000Z</time>
      </trkpt>
      <trkpt lat="42.70128" lon="1.65758">
        <ele>1357</ele>
        <time>2018-11-18T09:24:52.000Z</time>
      </trkpt>
      <trkpt lat="42.70128" lon="1.65757">
        <ele>1357</ele>
        <time>2018-11-18T09:24:54.000Z</time>
      </trkpt>
      <trkpt lat="42.70128" lon="1.65755">
        <ele>1357</ele>
        <time>2018-11-18T09:24:56.000Z</time>
      </trkpt>
      <trkpt lat="42.70129" lon="1.65754">
        <ele>1358</ele>
        <time>2018-11-18T09:24:58.000Z</time>
      </trkpt>
      <trkpt lat="42.70129" lon="1.65753">
        <ele>1358</ele>
        <time>2018-11-18T09:25:00.000Z</time>
      </trkpt>
      <trkpt lat="42.70128" lon="1.65752">
        <ele>1358</ele>
        <time>2018-11-18T09:25:02.000Z</time>
      </trkpt>
      <trkpt lat="42.70127" lon="1.65752">
        <ele>1358</ele>
        <time>2018-11-18T09:25:04.000Z</time>
      </trkpt>
      <trkpt lat="42.70126" lon="1.65752">
        <ele>1358</ele>
        <time>2018-11-18T09:25:06.000Z</time>
      </trkpt>
      <trkpt lat="42.70125" lon="1.65751">
        <ele>1358</ele>
        <time>2018-11-18T09:25:08.000Z</time>
      </trkpt>
      <trkpt lat="42.70125" lon="1.6575">
        <ele>1358</ele>
        <time>2018-11-18T09:25:10.000Z</time>
      </trkpt>
      <trkpt lat="42.70124" lon="1.6575">
        <ele>1358</ele>
        <time>2018-11-18T09:25:12.000Z</time>
      </trkpt>
      <trkpt lat="42.70124" lon="1.65749">
        <ele>1358</ele>
        <time>2018-11-18T09:25:14.000Z</time>
      </trkpt>
      <trkpt lat="42.70123" lon="1.65748">
        <ele>1359</ele>
        <time>2018-11-18T09:25:16.000Z</time>
      </trkpt>
      <trkpt lat="42.70122" lon="1.65747">
        <ele>1359</ele>
        <time>2018-11-18T09:25:18.000Z</time>
      </trkpt>
      <trkpt lat="42.70121" lon="1.65746">
        <ele>1359</ele>
        <time>2018-11-18T09:25:20.000Z</time>
      </trkpt>
      <trkpt lat="42.7012" lon="1.65746">
        <ele>1359</ele>
        <time>2018-11-18T09:25:22.000Z</time>
      </trkpt>
      <trkpt lat="42.7012" lon="1.65745">
        <ele>1359</ele>
        <time>2018-11-18T09:25:24.000Z</time>
      </trkpt>
      <trkpt lat="42.70119" lon="1.65746">
        <ele>1359</ele>
        <time>2018-11-18T09:25:26.000Z</time>
      </trkpt>
      <trkpt lat="42.70119" lon="1.65745">
        <ele>1359</ele>
        <time>2018-11-18T09:25:28.000Z</time>
      </trkpt>
      <trkpt lat="42.70119" lon="1.65745">
        <ele>1359</ele>
        <time>2018-11-18T09:25:30.000Z</time>
      </trkpt>
      <trkpt lat="42.70118" lon="1.65745">
        <ele>1359</ele>
        <time>2018-11-18T09:25:32.000Z</time>
      </trkpt>
      <trkpt lat="42.70118" lon="1.65745">
        <ele>1359</ele>
        <time>2018-11-18T09:25:34.000Z</time>
      </trkpt>
      <trkpt lat="42.70115" lon="1.65744">
        <ele>1359</ele>
        <time>2018-11-18T09:25:36.000Z</time>
      </trkpt>
      <trkpt lat="42.70114" lon="1.65744">
        <ele>1359</ele>
        <time>2018-11-18T09:25:38.000Z</time>
      </trkpt>
      <trkpt lat="42.70113" lon="1.65741">
        <ele>1360</ele>
        <time>2018-11-18T09:25:40.000Z</time>
      </trkpt>
      <trkpt lat="42.70111" lon="1.65739">
        <ele>1360</ele>
        <time>2018-11-18T09:25:42.000Z</time>
      </trkpt>
      <trkpt lat="42.70111" lon="1.65735">
        <ele>1361</ele>
        <time>2018-11-18T09:25:44.000Z</time>
      </trkpt>
      <trkpt lat="42.7011" lon="1.65732">
        <ele>1361</ele>
        <time>2018-11-18T09:25:46.000Z</time>
      </trkpt>
      <trkpt lat="42.70109" lon="1.65728">
        <ele>1361</ele>
        <time>2018-11-18T09:25:48.000Z</time>
      </trkpt>
      <trkpt lat="42.70108" lon="1.65727">
        <ele>1362</ele>
        <time>2018-11-18T09:25:50.000Z</time>
      </trkpt>
      <trkpt lat="42.70108" lon="1.65726">
        <ele>1362</ele>
        <time>2018-11-18T09:25:52.000Z</time>
      </trkpt>
      <trkpt lat="42.70107" lon="1.65726">
        <ele>1362</ele>
        <time>2018-11-18T09:25:54.000Z</time>
      </trkpt>
      <trkpt lat="42.70106" lon="1.65726">
        <ele>1361</ele>
        <time>2018-11-18T09:25:56.000Z</time>
      </trkpt>
      <trkpt lat="42.70106" lon="1.65727">
        <ele>1361</ele>
        <time>2018-11-18T09:25:58.000Z</time>
      </trkpt>
      <trkpt lat="42.70106" lon="1.65726">
        <ele>1361</ele>
        <time>2018-11-18T09:26:00.000Z</time>
      </trkpt>
      <trkpt lat="42.70107" lon="1.65728">
        <ele>1361</ele>
        <time>2018-11-18T09:26:02.000Z</time>
      </trkpt>
      <trkpt lat="42.70109" lon="1.65728">
        <ele>1361</ele>
        <time>2018-11-18T09:26:04.000Z</time>
      </trkpt>
      <trkpt lat="42.70109" lon="1.65728">
        <ele>1361</ele>
        <time>2018-11-18T09:26:06.000Z</time>
      </trkpt>
      <trkpt lat="42.70108" lon="1.65729">
        <ele>1361</ele>
        <time>2018-11-18T09:26:08.000Z</time>
      </trkpt>
      <trkpt lat="42.70108" lon="1.65728">
        <ele>1361</ele>
        <time>2018-11-18T09:26:10.000Z</time>
      </trkpt>
      <trkpt lat="42.70107" lon="1.65729">
        <ele>1361</ele>
        <time>2018-11-18T09:26:12.000Z</time>
      </trkpt>
      <trkpt lat="42.70107" lon="1.65729">
        <ele>1361</ele>
        <time>2018-11-18T09:26:14.000Z</time>
      </trkpt>
      <trkpt lat="42.70107" lon="1.6573">
        <ele>1361</ele>
        <time>2018-11-18T09:26:16.000Z</time>
      </trkpt>
      <trkpt lat="42.70106" lon="1.6573">
        <ele>1361</ele>
        <time>2018-11-18T09:26:18.000Z</time>
      </trkpt>
      <trkpt lat="42.70104" lon="1.6573">
        <ele>1361</ele>
        <time>2018-11-18T09:26:20.000Z</time>
      </trkpt>
      <trkpt lat="42.70103" lon="1.6573">
        <ele>1361</ele>
        <time>2018-11-18T09:26:22.000Z</time>
      </trkpt>
      <trkpt lat="42.70102" lon="1.65729">
        <ele>1361</ele>
        <time>2018-11-18T09:26:24.000Z</time>
      </trkpt>
      <trkpt lat="42.70102" lon="1.65728">
        <ele>1361</ele>
        <time>2018-11-18T09:26:26.000Z</time>
      </trkpt>
      <trkpt lat="42.70101" lon="1.65727">
        <ele>1361</ele>
        <time>2018-11-18T09:26:28.000Z</time>
      </trkpt>
      <trkpt lat="42.70101" lon="1.65728">
        <ele>1361</ele>
        <time>2018-11-18T09:26:30.000Z</time>
      </trkpt>
      <trkpt lat="42.70101" lon="1.65728">
        <ele>1361</ele>
        <time>2018-11-18T09:26:32.000Z</time>
      </trkpt>
      <trkpt lat="42.70101" lon="1.65727">
        <ele>1361</ele>
        <time>2018-11-18T09:26:34.000Z</time>
      </trkpt>
      <trkpt lat="42.701" lon="1.65728">
        <ele>1361</ele>
        <time>2018-11-18T09:26:36.000Z</time>
      </trkpt>
      <trkpt lat="42.70099" lon="1.65729">
        <ele>1361</ele>
        <time>2018-11-18T09:26:38.000Z</time>
      </trkpt>
      <trkpt lat="42.70099" lon="1.65728">
        <ele>1361</ele>
        <time>2018-11-18T09:26:40.000Z</time>
      </trkpt>
      <trkpt lat="42.70098" lon="1.65727">
        <ele>1361</ele>
        <time>2018-11-18T09:26:42.000Z</time>
      </trkpt>
      <trkpt lat="42.70098" lon="1.65726">
        <ele>1361</ele>
        <time>2018-11-18T09:26:44.000Z</time>
      </trkpt>
      <trkpt lat="42.70098" lon="1.65726">
        <ele>1361</ele>
        <time>2018-11-18T09:26:46.000Z</time>
      </trkpt>
      <trkpt lat="42.70098" lon="1.65726">
        <ele>1361</ele>
        <time>2018-11-18T09:26:48.000Z</time>
      </trkpt>
      <trkpt lat="42.70098" lon="1.65726">
        <ele>1361</ele>
        <time>2018-11-18T09:26:50.000Z</time>
      </trkpt>
      <trkpt lat="42.70099" lon="1.65725">
        <ele>1361</ele>
        <time>2018-11-18T09:26:52.000Z</time>
      </trkpt>
      <trkpt lat="42.70099" lon="1.65725">
        <ele>1361</ele>
        <time>2018-11-18T09:26:54.000Z</time>
      </trkpt>
      <trkpt lat="42.70099" lon="1.65723">
        <ele>1361</ele>
        <time>2018-11-18T09:26:56.000Z</time>
      </trkpt>
      <trkpt lat="42.70099" lon="1.65721">
        <ele>1361</ele>
        <time>2018-11-18T09:26:58.000Z</time>
      </trkpt>
      <trkpt lat="42.70099" lon="1.6572">
        <ele>1362</ele>
        <time>2018-11-18T09:27:00.000Z</time>
      </trkpt>
      <trkpt lat="42.70098" lon="1.65719">
        <ele>1362</ele>
        <time>2018-11-18T09:27:02.000Z</time>
      </trkpt>
      <trkpt lat="42.70098" lon="1.65719">
        <ele>1362</ele>
        <time>2018-11-18T09:27:04.000Z</time>
      </trkpt>
      <trkpt lat="42.70096" lon="1.65718">
        <ele>1362</ele>
        <time>2018-11-18T09:27:06.000Z</time>
      </trkpt>
      <trkpt lat="42.70095" lon="1.65718">
        <ele>1362</ele>
        <time>2018-11-18T09:27:08.000Z</time>
      </trkpt>
      <trkpt lat="42.70095" lon="1.65717">
        <ele>1362</ele>
        <time>2018-11-18T09:27:10.000Z</time>
      </trkpt>
      <trkpt lat="42.70095" lon="1.65716">
        <ele>1362</ele>
        <time>2018-11-18T09:27:12.000Z</time>
      </trkpt>
      <trkpt lat="42.70095" lon="1.65715">
        <ele>1362</ele>
        <time>2018-11-18T09:27:14.000Z</time>
      </trkpt>
      <trkpt lat="42.70094" lon="1.65715">
        <ele>1362</ele>
        <time>2018-11-18T09:27:16.000Z</time>
      </trkpt>
      <trkpt lat="42.70095" lon="1.65713">
        <ele>1362</ele>
        <time>2018-11-18T09:27:18.000Z</time>
      </trkpt>
      <trkpt lat="42.70094" lon="1.65713">
        <ele>1362</ele>
        <time>2018-11-18T09:27:20.000Z</time>
      </trkpt>
      <trkpt lat="42.70094" lon="1.65712">
        <ele>1362</ele>
        <time>2018-11-18T09:27:22.000Z</time>
      </trkpt>
      <trkpt lat="42.70092" lon="1.65712">
        <ele>1362</ele>
        <time>2018-11-18T09:27:24.000Z</time>
      </trkpt>
      <trkpt lat="42.70091" lon="1.65711">
        <ele>1362</ele>
        <time>2018-11-18T09:27:26.000Z</time>
      </trkpt>
      <trkpt lat="42.70091" lon="1.6571">
        <ele>1362</ele>
        <time>2018-11-18T09:27:28.000Z</time>
      </trkpt>
      <trkpt lat="42.70089" lon="1.65709">
        <ele>1362</ele>
        <time>2018-11-18T09:27:30.000Z</time>
      </trkpt>
      <trkpt lat="42.70088" lon="1.65708">
        <ele>1362</ele>
        <time>2018-11-18T09:27:32.000Z</time>
      </trkpt>
      <trkpt lat="42.70087" lon="1.65707">
        <ele>1362</ele>
        <time>2018-11-18T09:27:34.000Z</time>
      </trkpt>
      <trkpt lat="42.70086" lon="1.65705">
        <ele>1363</ele>
        <time>2018-11-18T09:27:36.000Z</time>
      </trkpt>
      <trkpt lat="42.70084" lon="1.65703">
        <ele>1363</ele>
        <time>2018-11-18T09:27:38.000Z</time>
      </trkpt>
      <trkpt lat="42.70082" lon="1.65702">
        <ele>1364</ele>
        <time>2018-11-18T09:27:40.000Z</time>
      </trkpt>
      <trkpt lat="42.70082" lon="1.65701">
        <ele>1364</ele>
        <time>2018-11-18T09:27:42.000Z</time>
      </trkpt>
      <trkpt lat="42.7008" lon="1.657">
        <ele>1364</ele>
        <time>2018-11-18T09:27:44.000Z</time>
      </trkpt>
      <trkpt lat="42.70078" lon="1.65698">
        <ele>1365</ele>
        <time>2018-11-18T09:27:46.000Z</time>
      </trkpt>
      <trkpt lat="42.70077" lon="1.65696">
        <ele>1365</ele>
        <time>2018-11-18T09:27:48.000Z</time>
      </trkpt>
      <trkpt lat="42.70077" lon="1.65695">
        <ele>1366</ele>
        <time>2018-11-18T09:27:50.000Z</time>
      </trkpt>
      <trkpt lat="42.70076" lon="1.65693">
        <ele>1366</ele>
        <time>2018-11-18T09:27:52.000Z</time>
      </trkpt>
      <trkpt lat="42.70075" lon="1.6569">
        <ele>1366</ele>
        <time>2018-11-18T09:27:54.000Z</time>
      </trkpt>
      <trkpt lat="42.70075" lon="1.65689">
        <ele>1367</ele>
        <time>2018-11-18T09:27:56.000Z</time>
      </trkpt>
      <trkpt lat="42.70075" lon="1.65688">
        <ele>1367</ele>
        <time>2018-11-18T09:27:58.000Z</time>
      </trkpt>
      <trkpt lat="42.70074" lon="1.65685">
        <ele>1367</ele>
        <time>2018-11-18T09:28:00.000Z</time>
      </trkpt>
      <trkpt lat="42.70075" lon="1.65684">
        <ele>1367</ele>
        <time>2018-11-18T09:28:02.000Z</time>
      </trkpt>
      <trkpt lat="42.70074" lon="1.65684">
        <ele>1367</ele>
        <time>2018-11-18T09:28:04.000Z</time>
      </trkpt>
      <trkpt lat="42.70072" lon="1.65683">
        <ele>1368</ele>
        <time>2018-11-18T09:28:06.000Z</time>
      </trkpt>
      <trkpt lat="42.70071" lon="1.65682">
        <ele>1368</ele>
        <time>2018-11-18T09:28:08.000Z</time>
      </trkpt>
      <trkpt lat="42.7007" lon="1.65681">
        <ele>1369</ele>
        <time>2018-11-18T09:28:10.000Z</time>
      </trkpt>
      <trkpt lat="42.70069" lon="1.6568">
        <ele>1369</ele>
        <time>2018-11-18T09:28:12.000Z</time>
      </trkpt>
      <trkpt lat="42.70067" lon="1.6568">
        <ele>1369</ele>
        <time>2018-11-18T09:28:14.000Z</time>
      </trkpt>
      <trkpt lat="42.70066" lon="1.65679">
        <ele>1370</ele>
        <time>2018-11-18T09:28:16.000Z</time>
      </trkpt>
      <trkpt lat="42.70064" lon="1.65679">
        <ele>1370</ele>
        <time>2018-11-18T09:28:18.000Z</time>
      </trkpt>
      <trkpt lat="42.70062" lon="1.65679">
        <ele>1371</ele>
        <time>2018-11-18T09:28:20.000Z</time>
      </trkpt>
      <trkpt lat="42.70061" lon="1.65677">
        <ele>1371</ele>
        <time>2018-11-18T09:28:22.000Z</time>
      </trkpt>
      <trkpt lat="42.70059" lon="1.65678">
        <ele>1371</ele>
        <time>2018-11-18T09:28:24.000Z</time>
      </trkpt>
      <trkpt lat="42.70057" lon="1.65677">
        <ele>1372</ele>
        <time>2018-11-18T09:28:26.000Z</time>
      </trkpt>
      <trkpt lat="42.70056" lon="1.65676">
        <ele>1372</ele>
        <time>2018-11-18T09:28:28.000Z</time>
      </trkpt>
      <trkpt lat="42.70055" lon="1.65676">
        <ele>1372</ele>
        <time>2018-11-18T09:28:30.000Z</time>
      </trkpt>
      <trkpt lat="42.70054" lon="1.65676">
        <ele>1373</ele>
        <time>2018-11-18T09:28:32.000Z</time>
      </trkpt>
      <trkpt lat="42.70052" lon="1.65674">
        <ele>1373</ele>
        <time>2018-11-18T09:28:34.000Z</time>
      </trkpt>
      <trkpt lat="42.70052" lon="1.65673">
        <ele>1373</ele>
        <time>2018-11-18T09:28:36.000Z</time>
      </trkpt>
      <trkpt lat="42.70052" lon="1.65671">
        <ele>1373</ele>
        <time>2018-11-18T09:28:38.000Z</time>
      </trkpt>
      <trkpt lat="42.70052" lon="1.65669">
        <ele>1374</ele>
        <time>2018-11-18T09:28:40.000Z</time>
      </trkpt>
      <trkpt lat="42.70052" lon="1.65668">
        <ele>1374</ele>
        <time>2018-11-18T09:28:42.000Z</time>
      </trkpt>
      <trkpt lat="42.70051" lon="1.65668">
        <ele>1374</ele>
        <time>2018-11-18T09:28:44.000Z</time>
      </trkpt>
      <trkpt lat="42.7005" lon="1.65668">
        <ele>1374</ele>
        <time>2018-11-18T09:28:46.000Z</time>
      </trkpt>
      <trkpt lat="42.7005" lon="1.65668">
        <ele>1374</ele>
        <time>2018-11-18T09:28:48.000Z</time>
      </trkpt>
      <trkpt lat="42.7005" lon="1.65667">
        <ele>1374</ele>
        <time>2018-11-18T09:28:50.000Z</time>
      </trkpt>
      <trkpt lat="42.7005" lon="1.65667">
        <ele>1374</ele>
        <time>2018-11-18T09:28:52.000Z</time>
      </trkpt>
      <trkpt lat="42.70049" lon="1.65666">
        <ele>1375</ele>
        <time>2018-11-18T09:28:54.000Z</time>
      </trkpt>
      <trkpt lat="42.70048" lon="1.65664">
        <ele>1375</ele>
        <time>2018-11-18T09:28:56.000Z</time>
      </trkpt>
      <trkpt lat="42.70047" lon="1.65662">
        <ele>1376</ele>
        <time>2018-11-18T09:28:58.000Z</time>
      </trkpt>
      <trkpt lat="42.70046" lon="1.6566">
        <ele>1376</ele>
        <time>2018-11-18T09:29:00.000Z</time>
      </trkpt>
      <trkpt lat="42.70046" lon="1.65658">
        <ele>1376</ele>
        <time>2018-11-18T09:29:02.000Z</time>
      </trkpt>
      <trkpt lat="42.70044" lon="1.65658">
        <ele>1377</ele>
        <time>2018-11-18T09:29:04.000Z</time>
      </trkpt>
      <trkpt lat="42.70042" lon="1.65656">
        <ele>1377</ele>
        <time>2018-11-18T09:29:06.000Z</time>
      </trkpt>
      <trkpt lat="42.70041" lon="1.65655">
        <ele>1378</ele>
        <time>2018-11-18T09:29:08.000Z</time>
      </trkpt>
      <trkpt lat="42.70039" lon="1.65655">
        <ele>1378</ele>
        <time>2018-11-18T09:29:10.000Z</time>
      </trkpt>
      <trkpt lat="42.70038" lon="1.65655">
        <ele>1378</ele>
        <time>2018-11-18T09:29:12.000Z</time>
      </trkpt>
      <trkpt lat="42.70036" lon="1.65656">
        <ele>1378</ele>
        <time>2018-11-18T09:29:14.000Z</time>
      </trkpt>
      <trkpt lat="42.70035" lon="1.65657">
        <ele>1379</ele>
        <time>2018-11-18T09:29:16.000Z</time>
      </trkpt>
      <trkpt lat="42.70034" lon="1.65657">
        <ele>1379</ele>
        <time>2018-11-18T09:29:18.000Z</time>
      </trkpt>
      <trkpt lat="42.70032" lon="1.65657">
        <ele>1379</ele>
        <time>2018-11-18T09:29:20.000Z</time>
      </trkpt>
      <trkpt lat="42.70031" lon="1.65657">
        <ele>1380</ele>
        <time>2018-11-18T09:29:22.000Z</time>
      </trkpt>
      <trkpt lat="42.70029" lon="1.65657">
        <ele>1380</ele>
        <time>2018-11-18T09:29:24.000Z</time>
      </trkpt>
      <trkpt lat="42.70028" lon="1.65656">
        <ele>1380</ele>
        <time>2018-11-18T09:29:26.000Z</time>
      </trkpt>
      <trkpt lat="42.70027" lon="1.65655">
        <ele>1381</ele>
        <time>2018-11-18T09:29:28.000Z</time>
      </trkpt>
      <trkpt lat="42.70026" lon="1.65655">
        <ele>1381</ele>
        <time>2018-11-18T09:29:30.000Z</time>
      </trkpt>
      <trkpt lat="42.70025" lon="1.65654">
        <ele>1381</ele>
        <time>2018-11-18T09:29:32.000Z</time>
      </trkpt>
      <trkpt lat="42.70025" lon="1.65654">
        <ele>1381</ele>
        <time>2018-11-18T09:29:34.000Z</time>
      </trkpt>
      <trkpt lat="42.70023" lon="1.65653">
        <ele>1382</ele>
        <time>2018-11-18T09:29:36.000Z</time>
      </trkpt>
      <trkpt lat="42.70022" lon="1.65653">
        <ele>1382</ele>
        <time>2018-11-18T09:29:38.000Z</time>
      </trkpt>
      <trkpt lat="42.70021" lon="1.65652">
        <ele>1382</ele>
        <time>2018-11-18T09:29:40.000Z</time>
      </trkpt>
      <trkpt lat="42.7002" lon="1.65651">
        <ele>1383</ele>
        <time>2018-11-18T09:29:42.000Z</time>
      </trkpt>
      <trkpt lat="42.70019" lon="1.65649">
        <ele>1383</ele>
        <time>2018-11-18T09:29:44.000Z</time>
      </trkpt>
      <trkpt lat="42.70018" lon="1.65649">
        <ele>1383</ele>
        <time>2018-11-18T09:29:46.000Z</time>
      </trkpt>
      <trkpt lat="42.70016" lon="1.65648">
        <ele>1384</ele>
        <time>2018-11-18T09:29:48.000Z</time>
      </trkpt>
      <trkpt lat="42.70015" lon="1.65648">
        <ele>1384</ele>
        <time>2018-11-18T09:29:50.000Z</time>
      </trkpt>
      <trkpt lat="42.70013" lon="1.6565">
        <ele>1384</ele>
        <time>2018-11-18T09:29:52.000Z</time>
      </trkpt>
      <trkpt lat="42.70012" lon="1.65651">
        <ele>1384</ele>
        <time>2018-11-18T09:29:54.000Z</time>
      </trkpt>
      <trkpt lat="42.70011" lon="1.65652">
        <ele>1384</ele>
        <time>2018-11-18T09:29:56.000Z</time>
      </trkpt>
      <trkpt lat="42.7001" lon="1.65651">
        <ele>1385</ele>
        <time>2018-11-18T09:29:58.000Z</time>
      </trkpt>
      <trkpt lat="42.70009" lon="1.65651">
        <ele>1385</ele>
        <time>2018-11-18T09:30:00.000Z</time>
      </trkpt>
      <trkpt lat="42.70009" lon="1.6565">
        <ele>1385</ele>
        <time>2018-11-18T09:30:02.000Z</time>
      </trkpt>
      <trkpt lat="42.70008" lon="1.6565">
        <ele>1385</ele>
        <time>2018-11-18T09:30:04.000Z</time>
      </trkpt>
      <trkpt lat="42.70007" lon="1.65649">
        <ele>1386</ele>
        <time>2018-11-18T09:30:06.000Z</time>
      </trkpt>
      <trkpt lat="42.70006" lon="1.65648">
        <ele>1386</ele>
        <time>2018-11-18T09:30:08.000Z</time>
      </trkpt>
      <trkpt lat="42.70005" lon="1.65647">
        <ele>1386</ele>
        <time>2018-11-18T09:30:10.000Z</time>
      </trkpt>
      <trkpt lat="42.70004" lon="1.65645">
        <ele>1387</ele>
        <time>2018-11-18T09:30:12.000Z</time>
      </trkpt>
      <trkpt lat="42.70003" lon="1.65643">
        <ele>1387</ele>
        <time>2018-11-18T09:30:14.000Z</time>
      </trkpt>
      <trkpt lat="42.70001" lon="1.65642">
        <ele>1387</ele>
        <time>2018-11-18T09:30:16.000Z</time>
      </trkpt>
      <trkpt lat="42.7" lon="1.65642">
        <ele>1387</ele>
        <time>2018-11-18T09:30:18.000Z</time>
      </trkpt>
      <trkpt lat="42.69998" lon="1.65641">
        <ele>1387</ele>
        <time>2018-11-18T09:30:20.000Z</time>
      </trkpt>
      <trkpt lat="42.69997" lon="1.65641">
        <ele>1387</ele>
        <time>2018-11-18T09:30:22.000Z</time>
      </trkpt>
      <trkpt lat="42.69996" lon="1.65641">
        <ele>1387</ele>
        <time>2018-11-18T09:30:24.000Z</time>
      </trkpt>
      <trkpt lat="42.69995" lon="1.6564">
        <ele>1387</ele>
        <time>2018-11-18T09:30:26.000Z</time>
      </trkpt>
      <trkpt lat="42.69994" lon="1.6564">
        <ele>1387</ele>
        <time>2018-11-18T09:30:28.000Z</time>
      </trkpt>
      <trkpt lat="42.69993" lon="1.65639">
        <ele>1387</ele>
        <time>2018-11-18T09:30:30.000Z</time>
      </trkpt>
      <trkpt lat="42.69993" lon="1.65637">
        <ele>1388</ele>
        <time>2018-11-18T09:30:32.000Z</time>
      </trkpt>
      <trkpt lat="42.69992" lon="1.65636">
        <ele>1388</ele>
        <time>2018-11-18T09:30:34.000Z</time>
      </trkpt>
      <trkpt lat="42.6999" lon="1.65636">
        <ele>1388</ele>
        <time>2018-11-18T09:30:36.000Z</time>
      </trkpt>
      <trkpt lat="42.69989" lon="1.65636">
        <ele>1388</ele>
        <time>2018-11-18T09:30:38.000Z</time>
      </trkpt>
      <trkpt lat="42.69989" lon="1.65636">
        <ele>1388</ele>
        <time>2018-11-18T09:30:40.000Z</time>
      </trkpt>
      <trkpt lat="42.69989" lon="1.65635">
        <ele>1388</ele>
        <time>2018-11-18T09:30:42.000Z</time>
      </trkpt>
      <trkpt lat="42.69988" lon="1.65635">
        <ele>1388</ele>
        <time>2018-11-18T09:30:44.000Z</time>
      </trkpt>
      <trkpt lat="42.69988" lon="1.65634">
        <ele>1388</ele>
        <time>2018-11-18T09:30:46.000Z</time>
      </trkpt>
      <trkpt lat="42.69987" lon="1.65634">
        <ele>1388</ele>
        <time>2018-11-18T09:30:48.000Z</time>
      </trkpt>
      <trkpt lat="42.69987" lon="1.65635">
        <ele>1388</ele>
        <time>2018-11-18T09:30:50.000Z</time>
      </trkpt>
      <trkpt lat="42.69986" lon="1.65635">
        <ele>1388</ele>
        <time>2018-11-18T09:30:52.000Z</time>
      </trkpt>
      <trkpt lat="42.69985" lon="1.65635">
        <ele>1388</ele>
        <time>2018-11-18T09:30:54.000Z</time>
      </trkpt>
      <trkpt lat="42.69985" lon="1.65635">
        <ele>1388</ele>
        <time>2018-11-18T09:30:56.000Z</time>
      </trkpt>
      <trkpt lat="42.69985" lon="1.65635">
        <ele>1388</ele>
        <time>2018-11-18T09:30:58.000Z</time>
      </trkpt>
      <trkpt lat="42.69984" lon="1.65635">
        <ele>1388</ele>
        <time>2018-11-18T09:31:00.000Z</time>
      </trkpt>
      <trkpt lat="42.69984" lon="1.65634">
        <ele>1388</ele>
        <time>2018-11-18T09:31:02.000Z</time>
      </trkpt>
      <trkpt lat="42.69984" lon="1.65632">
        <ele>1388</ele>
        <time>2018-11-18T09:31:04.000Z</time>
      </trkpt>
      <trkpt lat="42.69984" lon="1.65631">
        <ele>1388</ele>
        <time>2018-11-18T09:31:06.000Z</time>
      </trkpt>
      <trkpt lat="42.69984" lon="1.6563">
        <ele>1388</ele>
        <time>2018-11-18T09:31:08.000Z</time>
      </trkpt>
      <trkpt lat="42.69984" lon="1.65629">
        <ele>1388</ele>
        <time>2018-11-18T09:31:10.000Z</time>
      </trkpt>
      <trkpt lat="42.69981" lon="1.65628">
        <ele>1388</ele>
        <time>2018-11-18T09:31:12.000Z</time>
      </trkpt>
      <trkpt lat="42.6998" lon="1.65627">
        <ele>1389</ele>
        <time>2018-11-18T09:31:14.000Z</time>
      </trkpt>
      <trkpt lat="42.69979" lon="1.65627">
        <ele>1388</ele>
        <time>2018-11-18T09:31:16.000Z</time>
      </trkpt>
      <trkpt lat="42.69977" lon="1.65628">
        <ele>1389</ele>
        <time>2018-11-18T09:31:18.000Z</time>
      </trkpt>
      <trkpt lat="42.69976" lon="1.65628">
        <ele>1389</ele>
        <time>2018-11-18T09:31:20.000Z</time>
      </trkpt>
      <trkpt lat="42.69975" lon="1.65627">
        <ele>1389</ele>
        <time>2018-11-18T09:31:22.000Z</time>
      </trkpt>
      <trkpt lat="42.69974" lon="1.65627">
        <ele>1389</ele>
        <time>2018-11-18T09:31:24.000Z</time>
      </trkpt>
      <trkpt lat="42.69973" lon="1.65627">
        <ele>1389</ele>
        <time>2018-11-18T09:31:26.000Z</time>
      </trkpt>
      <trkpt lat="42.69972" lon="1.65626">
        <ele>1389</ele>
        <time>2018-11-18T09:31:28.000Z</time>
      </trkpt>
      <trkpt lat="42.69971" lon="1.65625">
        <ele>1389</ele>
        <time>2018-11-18T09:31:30.000Z</time>
      </trkpt>
      <trkpt lat="42.6997" lon="1.65624">
        <ele>1389</ele>
        <time>2018-11-18T09:31:32.000Z</time>
      </trkpt>
      <trkpt lat="42.6997" lon="1.65622">
        <ele>1389</ele>
        <time>2018-11-18T09:31:34.000Z</time>
      </trkpt>
      <trkpt lat="42.6997" lon="1.65621">
        <ele>1389</ele>
        <time>2018-11-18T09:31:36.000Z</time>
      </trkpt>
      <trkpt lat="42.69969" lon="1.6562">
        <ele>1389</ele>
        <time>2018-11-18T09:31:38.000Z</time>
      </trkpt>
      <trkpt lat="42.69969" lon="1.6562">
        <ele>1389</ele>
        <time>2018-11-18T09:31:40.000Z</time>
      </trkpt>
      <trkpt lat="42.69968" lon="1.6562">
        <ele>1389</ele>
        <time>2018-11-18T09:31:42.000Z</time>
      </trkpt>
      <trkpt lat="42.69968" lon="1.6562">
        <ele>1390</ele>
        <time>2018-11-18T09:31:44.000Z</time>
      </trkpt>
      <trkpt lat="42.69967" lon="1.65619">
        <ele>1390</ele>
        <time>2018-11-18T09:31:46.000Z</time>
      </trkpt>
      <trkpt lat="42.69967" lon="1.65619">
        <ele>1390</ele>
        <time>2018-11-18T09:31:48.000Z</time>
      </trkpt>
      <trkpt lat="42.69967" lon="1.65619">
        <ele>1390</ele>
        <time>2018-11-18T09:31:50.000Z</time>
      </trkpt>
      <trkpt lat="42.69966" lon="1.6562">
        <ele>1390</ele>
        <time>2018-11-18T09:31:52.000Z</time>
      </trkpt>
      <trkpt lat="42.69966" lon="1.65618">
        <ele>1390</ele>
        <time>2018-11-18T09:31:54.000Z</time>
      </trkpt>
      <trkpt lat="42.69964" lon="1.65619">
        <ele>1390</ele>
        <time>2018-11-18T09:31:56.000Z</time>
      </trkpt>
      <trkpt lat="42.69963" lon="1.65619">
        <ele>1390</ele>
        <time>2018-11-18T09:31:58.000Z</time>
      </trkpt>
      <trkpt lat="42.69962" lon="1.6562">
        <ele>1390</ele>
        <time>2018-11-18T09:32:00.000Z</time>
      </trkpt>
      <trkpt lat="42.69961" lon="1.6562">
        <ele>1390</ele>
        <time>2018-11-18T09:32:02.000Z</time>
      </trkpt>
      <trkpt lat="42.6996" lon="1.6562">
        <ele>1390</ele>
        <time>2018-11-18T09:32:04.000Z</time>
      </trkpt>
      <trkpt lat="42.69958" lon="1.65622">
        <ele>1391</ele>
        <time>2018-11-18T09:32:06.000Z</time>
      </trkpt>
      <trkpt lat="42.69958" lon="1.6562">
        <ele>1391</ele>
        <time>2018-11-18T09:32:08.000Z</time>
      </trkpt>
      <trkpt lat="42.69956" lon="1.65621">
        <ele>1391</ele>
        <time>2018-11-18T09:32:10.000Z</time>
      </trkpt>
      <trkpt lat="42.69955" lon="1.6562">
        <ele>1391</ele>
        <time>2018-11-18T09:32:12.000Z</time>
      </trkpt>
      <trkpt lat="42.69953" lon="1.6562">
        <ele>1391</ele>
        <time>2018-11-18T09:32:14.000Z</time>
      </trkpt>
      <trkpt lat="42.69952" lon="1.65621">
        <ele>1391</ele>
        <time>2018-11-18T09:32:16.000Z</time>
      </trkpt>
      <trkpt lat="42.69951" lon="1.65621">
        <ele>1392</ele>
        <time>2018-11-18T09:32:18.000Z</time>
      </trkpt>
      <trkpt lat="42.69949" lon="1.65622">
        <ele>1392</ele>
        <time>2018-11-18T09:32:20.000Z</time>
      </trkpt>
      <trkpt lat="42.69948" lon="1.65621">
        <ele>1392</ele>
        <time>2018-11-18T09:32:22.000Z</time>
      </trkpt>
      <trkpt lat="42.69948" lon="1.6562">
        <ele>1392</ele>
        <time>2018-11-18T09:32:24.000Z</time>
      </trkpt>
      <trkpt lat="42.69947" lon="1.65618">
        <ele>1392</ele>
        <time>2018-11-18T09:32:26.000Z</time>
      </trkpt>
      <trkpt lat="42.69946" lon="1.65617">
        <ele>1392</ele>
        <time>2018-11-18T09:32:28.000Z</time>
      </trkpt>
      <trkpt lat="42.69946" lon="1.65617">
        <ele>1392</ele>
        <time>2018-11-18T09:32:30.000Z</time>
      </trkpt>
      <trkpt lat="42.69945" lon="1.65614">
        <ele>1392</ele>
        <time>2018-11-18T09:32:32.000Z</time>
      </trkpt>
      <trkpt lat="42.69944" lon="1.65611">
        <ele>1392</ele>
        <time>2018-11-18T09:32:34.000Z</time>
      </trkpt>
      <trkpt lat="42.69943" lon="1.6561">
        <ele>1392</ele>
        <time>2018-11-18T09:32:36.000Z</time>
      </trkpt>
      <trkpt lat="42.69942" lon="1.65608">
        <ele>1392</ele>
        <time>2018-11-18T09:32:38.000Z</time>
      </trkpt>
      <trkpt lat="42.69942" lon="1.65605">
        <ele>1392</ele>
        <time>2018-11-18T09:32:40.000Z</time>
      </trkpt>
      <trkpt lat="42.69941" lon="1.65604">
        <ele>1392</ele>
        <time>2018-11-18T09:32:42.000Z</time>
      </trkpt>
      <trkpt lat="42.6994" lon="1.65603">
        <ele>1392</ele>
        <time>2018-11-18T09:32:44.000Z</time>
      </trkpt>
      <trkpt lat="42.6994" lon="1.65602">
        <ele>1392</ele>
        <time>2018-11-18T09:32:46.000Z</time>
      </trkpt>
      <trkpt lat="42.6994" lon="1.656">
        <ele>1392</ele>
        <time>2018-11-18T09:32:48.000Z</time>
      </trkpt>
      <trkpt lat="42.69939" lon="1.65598">
        <ele>1392</ele>
        <time>2018-11-18T09:32:50.000Z</time>
      </trkpt>
      <trkpt lat="42.69938" lon="1.65597">
        <ele>1393</ele>
        <time>2018-11-18T09:32:52.000Z</time>
      </trkpt>
      <trkpt lat="42.69936" lon="1.65596">
        <ele>1393</ele>
        <time>2018-11-18T09:32:54.000Z</time>
      </trkpt>
      <trkpt lat="42.69935" lon="1.65595">
        <ele>1393</ele>
        <time>2018-11-18T09:32:56.000Z</time>
      </trkpt>
      <trkpt lat="42.69933" lon="1.65594">
        <ele>1393</ele>
        <time>2018-11-18T09:32:58.000Z</time>
      </trkpt>
      <trkpt lat="42.69932" lon="1.65593">
        <ele>1393</ele>
        <time>2018-11-18T09:33:00.000Z</time>
      </trkpt>
      <trkpt lat="42.69932" lon="1.65591">
        <ele>1393</ele>
        <time>2018-11-18T09:33:02.000Z</time>
      </trkpt>
      <trkpt lat="42.69931" lon="1.6559">
        <ele>1393</ele>
        <time>2018-11-18T09:33:04.000Z</time>
      </trkpt>
      <trkpt lat="42.6993" lon="1.65591">
        <ele>1393</ele>
        <time>2018-11-18T09:33:06.000Z</time>
      </trkpt>
      <trkpt lat="42.69929" lon="1.6559">
        <ele>1393</ele>
        <time>2018-11-18T09:33:08.000Z</time>
      </trkpt>
      <trkpt lat="42.69929" lon="1.65589">
        <ele>1393</ele>
        <time>2018-11-18T09:33:10.000Z</time>
      </trkpt>
      <trkpt lat="42.69927" lon="1.65588">
        <ele>1394</ele>
        <time>2018-11-18T09:33:12.000Z</time>
      </trkpt>
      <trkpt lat="42.69926" lon="1.65588">
        <ele>1394</ele>
        <time>2018-11-18T09:33:14.000Z</time>
      </trkpt>
      <trkpt lat="42.69925" lon="1.65587">
        <ele>1394</ele>
        <time>2018-11-18T09:33:16.000Z</time>
      </trkpt>
      <trkpt lat="42.69925" lon="1.65588">
        <ele>1394</ele>
        <time>2018-11-18T09:33:18.000Z</time>
      </trkpt>
      <trkpt lat="42.69924" lon="1.65589">
        <ele>1394</ele>
        <time>2018-11-18T09:33:20.000Z</time>
      </trkpt>
      <trkpt lat="42.69924" lon="1.65589">
        <ele>1394</ele>
        <time>2018-11-18T09:33:22.000Z</time>
      </trkpt>
      <trkpt lat="42.69923" lon="1.65589">
        <ele>1394</ele>
        <time>2018-11-18T09:33:24.000Z</time>
      </trkpt>
      <trkpt lat="42.69922" lon="1.65589">
        <ele>1394</ele>
        <time>2018-11-18T09:33:26.000Z</time>
      </trkpt>
      <trkpt lat="42.69922" lon="1.6559">
        <ele>1394</ele>
        <time>2018-11-18T09:33:28.000Z</time>
      </trkpt>
      <trkpt lat="42.69921" lon="1.6559">
        <ele>1394</ele>
        <time>2018-11-18T09:33:30.000Z</time>
      </trkpt>
      <trkpt lat="42.69921" lon="1.65591">
        <ele>1394</ele>
        <time>2018-11-18T09:33:32.000Z</time>
      </trkpt>
      <trkpt lat="42.69919" lon="1.65592">
        <ele>1394</ele>
        <time>2018-11-18T09:33:34.000Z</time>
      </trkpt>
      <trkpt lat="42.69918" lon="1.65593">
        <ele>1394</ele>
        <time>2018-11-18T09:33:36.000Z</time>
      </trkpt>
      <trkpt lat="42.69917" lon="1.65594">
        <ele>1394</ele>
        <time>2018-11-18T09:33:38.000Z</time>
      </trkpt>
      <trkpt lat="42.69916" lon="1.65594">
        <ele>1393</ele>
        <time>2018-11-18T09:33:40.000Z</time>
      </trkpt>
      <trkpt lat="42.69916" lon="1.65592">
        <ele>1393</ele>
        <time>2018-11-18T09:33:42.000Z</time>
      </trkpt>
      <trkpt lat="42.69916" lon="1.6559">
        <ele>1393</ele>
        <time>2018-11-18T09:33:44.000Z</time>
      </trkpt>
      <trkpt lat="42.69915" lon="1.6559">
        <ele>1393</ele>
        <time>2018-11-18T09:33:46.000Z</time>
      </trkpt>
      <trkpt lat="42.69914" lon="1.65588">
        <ele>1392</ele>
        <time>2018-11-18T09:33:48.000Z</time>
      </trkpt>
      <trkpt lat="42.69912" lon="1.65587">
        <ele>1391</ele>
        <time>2018-11-18T09:33:50.000Z</time>
      </trkpt>
      <trkpt lat="42.69911" lon="1.65586">
        <ele>1391</ele>
        <time>2018-11-18T09:33:52.000Z</time>
      </trkpt>
      <trkpt lat="42.6991" lon="1.65586">
        <ele>1390</ele>
        <time>2018-11-18T09:33:54.000Z</time>
      </trkpt>
      <trkpt lat="42.69908" lon="1.65585">
        <ele>1390</ele>
        <time>2018-11-18T09:33:56.000Z</time>
      </trkpt>
      <trkpt lat="42.69907" lon="1.65584">
        <ele>1389</ele>
        <time>2018-11-18T09:33:58.000Z</time>
      </trkpt>
      <trkpt lat="42.69906" lon="1.65584">
        <ele>1389</ele>
        <time>2018-11-18T09:34:00.000Z</time>
      </trkpt>
      <trkpt lat="42.69904" lon="1.65583">
        <ele>1388</ele>
        <time>2018-11-18T09:34:02.000Z</time>
      </trkpt>
      <trkpt lat="42.69903" lon="1.65582">
        <ele>1388</ele>
        <time>2018-11-18T09:34:04.000Z</time>
      </trkpt>
      <trkpt lat="42.69902" lon="1.65582">
        <ele>1387</ele>
        <time>2018-11-18T09:34:06.000Z</time>
      </trkpt>
      <trkpt lat="42.699" lon="1.65581">
        <ele>1387</ele>
        <time>2018-11-18T09:34:08.000Z</time>
      </trkpt>
      <trkpt lat="42.69899" lon="1.65581">
        <ele>1386</ele>
        <time>2018-11-18T09:34:10.000Z</time>
      </trkpt>
      <trkpt lat="42.69898" lon="1.65581">
        <ele>1386</ele>
        <time>2018-11-18T09:34:12.000Z</time>
      </trkpt>
      <trkpt lat="42.69897" lon="1.6558">
        <ele>1385</ele>
        <time>2018-11-18T09:34:14.000Z</time>
      </trkpt>
      <trkpt lat="42.69896" lon="1.6558">
        <ele>1385</ele>
        <time>2018-11-18T09:34:16.000Z</time>
      </trkpt>
      <trkpt lat="42.69896" lon="1.65579">
        <ele>1385</ele>
        <time>2018-11-18T09:34:18.000Z</time>
      </trkpt>
      <trkpt lat="42.69896" lon="1.65577">
        <ele>1385</ele>
        <time>2018-11-18T09:34:20.000Z</time>
      </trkpt>
      <trkpt lat="42.69896" lon="1.65576">
        <ele>1385</ele>
        <time>2018-11-18T09:34:22.000Z</time>
      </trkpt>
      <trkpt lat="42.69897" lon="1.65576">
        <ele>1385</ele>
        <time>2018-11-18T09:34:24.000Z</time>
      </trkpt>
      <trkpt lat="42.69897" lon="1.65577">
        <ele>1385</ele>
        <time>2018-11-18T09:34:26.000Z</time>
      </trkpt>
      <trkpt lat="42.69897" lon="1.65576">
        <ele>1385</ele>
        <time>2018-11-18T09:34:28.000Z</time>
      </trkpt>
      <trkpt lat="42.69898" lon="1.65576">
        <ele>1386</ele>
        <time>2018-11-18T09:34:30.000Z</time>
      </trkpt>
      <trkpt lat="42.69899" lon="1.65575">
        <ele>1386</ele>
        <time>2018-11-18T09:34:32.000Z</time>
      </trkpt>
      <trkpt lat="42.69899" lon="1.65576">
        <ele>1386</ele>
        <time>2018-11-18T09:34:34.000Z</time>
      </trkpt>
      <trkpt lat="42.69899" lon="1.65575">
        <ele>1386</ele>
        <time>2018-11-18T09:34:36.000Z</time>
      </trkpt>
      <trkpt lat="42.69898" lon="1.65574">
        <ele>1386</ele>
        <time>2018-11-18T09:34:38.000Z</time>
      </trkpt>
      <trkpt lat="42.69898" lon="1.65573">
        <ele>1385</ele>
        <time>2018-11-18T09:34:40.000Z</time>
      </trkpt>
      <trkpt lat="42.69897" lon="1.65573">
        <ele>1385</ele>
        <time>2018-11-18T09:34:42.000Z</time>
      </trkpt>
      <trkpt lat="42.69897" lon="1.65573">
        <ele>1385</ele>
        <time>2018-11-18T09:34:44.000Z</time>
      </trkpt>
      <trkpt lat="42.69896" lon="1.65573">
        <ele>1385</ele>
        <time>2018-11-18T09:34:46.000Z</time>
      </trkpt>
      <trkpt lat="42.69896" lon="1.65573">
        <ele>1385</ele>
        <time>2018-11-18T09:34:48.000Z</time>
      </trkpt>
      <trkpt lat="42.69895" lon="1.65573">
        <ele>1385</ele>
        <time>2018-11-18T09:34:50.000Z</time>
      </trkpt>
      <trkpt lat="42.69895" lon="1.65573">
        <ele>1384</ele>
        <time>2018-11-18T09:34:52.000Z</time>
      </trkpt>
      <trkpt lat="42.69895" lon="1.65572">
        <ele>1384</ele>
        <time>2018-11-18T09:34:54.000Z</time>
      </trkpt>
      <trkpt lat="42.69894" lon="1.65572">
        <ele>1384</ele>
        <time>2018-11-18T09:34:56.000Z</time>
      </trkpt>
      <trkpt lat="42.69894" lon="1.65572">
        <ele>1384</ele>
        <time>2018-11-18T09:34:58.000Z</time>
      </trkpt>
      <trkpt lat="42.69894" lon="1.65571">
        <ele>1384</ele>
        <time>2018-11-18T09:35:00.000Z</time>
      </trkpt>
      <trkpt lat="42.69894" lon="1.65572">
        <ele>1384</ele>
        <time>2018-11-18T09:35:02.000Z</time>
      </trkpt>
      <trkpt lat="42.69894" lon="1.65572">
        <ele>1384</ele>
        <time>2018-11-18T09:35:04.000Z</time>
      </trkpt>
      <trkpt lat="42.69894" lon="1.65573">
        <ele>1384</ele>
        <time>2018-11-18T09:35:06.000Z</time>
      </trkpt>
      <trkpt lat="42.69894" lon="1.65573">
        <ele>1384</ele>
        <time>2018-11-18T09:35:08.000Z</time>
      </trkpt>
      <trkpt lat="42.69894" lon="1.65572">
        <ele>1384</ele>
        <time>2018-11-18T09:35:10.000Z</time>
      </trkpt>
      <trkpt lat="42.69893" lon="1.65572">
        <ele>1384</ele>
        <time>2018-11-18T09:35:12.000Z</time>
      </trkpt>
      <trkpt lat="42.69893" lon="1.65572">
        <ele>1384</ele>
        <time>2018-11-18T09:35:14.000Z</time>
      </trkpt>
      <trkpt lat="42.69894" lon="1.65572">
        <ele>1384</ele>
        <time>2018-11-18T09:35:16.000Z</time>
      </trkpt>
      <trkpt lat="42.69893" lon="1.65572">
        <ele>1384</ele>
        <time>2018-11-18T09:35:18.000Z</time>
      </trkpt>
      <trkpt lat="42.69893" lon="1.65574">
        <ele>1384</ele>
        <time>2018-11-18T09:35:20.000Z</time>
      </trkpt>
      <trkpt lat="42.69893" lon="1.65574">
        <ele>1384</ele>
        <time>2018-11-18T09:35:22.000Z</time>
      </trkpt>
      <trkpt lat="42.69894" lon="1.65574">
        <ele>1384</ele>
        <time>2018-11-18T09:35:24.000Z</time>
      </trkpt>
      <trkpt lat="42.69894" lon="1.65575">
        <ele>1384</ele>
        <time>2018-11-18T09:35:26.000Z</time>
      </trkpt>
      <trkpt lat="42.69894" lon="1.65575">
        <ele>1384</ele>
        <time>2018-11-18T09:35:28.000Z</time>
      </trkpt>
      <trkpt lat="42.69894" lon="1.65574">
        <ele>1384</ele>
        <time>2018-11-18T09:35:30.000Z</time>
      </trkpt>
      <trkpt lat="42.69894" lon="1.65576">
        <ele>1384</ele>
        <time>2018-11-18T09:35:32.000Z</time>
      </trkpt>
      <trkpt lat="42.69894" lon="1.65577">
        <ele>1384</ele>
        <time>2018-11-18T09:35:34.000Z</time>
      </trkpt>
      <trkpt lat="42.69895" lon="1.65577">
        <ele>1385</ele>
        <time>2018-11-18T09:35:36.000Z</time>
      </trkpt>
      <trkpt lat="42.69894" lon="1.65578">
        <ele>1384</ele>
        <time>2018-11-18T09:35:38.000Z</time>
      </trkpt>
      <trkpt lat="42.69894" lon="1.6558">
        <ele>1384</ele>
        <time>2018-11-18T09:35:40.000Z</time>
      </trkpt>
      <trkpt lat="42.69894" lon="1.65579">
        <ele>1384</ele>
        <time>2018-11-18T09:35:42.000Z</time>
      </trkpt>
      <trkpt lat="42.69894" lon="1.65578">
        <ele>1384</ele>
        <time>2018-11-18T09:35:44.000Z</time>
      </trkpt>
      <trkpt lat="42.69894" lon="1.65577">
        <ele>1384</ele>
        <time>2018-11-18T09:35:46.000Z</time>
      </trkpt>
      <trkpt lat="42.69894" lon="1.65576">
        <ele>1384</ele>
        <time>2018-11-18T09:35:48.000Z</time>
      </trkpt>
      <trkpt lat="42.69894" lon="1.65574">
        <ele>1384</ele>
        <time>2018-11-18T09:35:50.000Z</time>
      </trkpt>
      <trkpt lat="42.69894" lon="1.65573">
        <ele>1384</ele>
        <time>2018-11-18T09:35:52.000Z</time>
      </trkpt>
      <trkpt lat="42.69895" lon="1.65571">
        <ele>1384</ele>
        <time>2018-11-18T09:35:54.000Z</time>
      </trkpt>
      <trkpt lat="42.69895" lon="1.65569">
        <ele>1384</ele>
        <time>2018-11-18T09:35:56.000Z</time>
      </trkpt>
      <trkpt lat="42.69894" lon="1.65568">
        <ele>1384</ele>
        <time>2018-11-18T09:35:58.000Z</time>
      </trkpt>
      <trkpt lat="42.69894" lon="1.65567">
        <ele>1384</ele>
        <time>2018-11-18T09:36:00.000Z</time>
      </trkpt>
      <trkpt lat="42.69894" lon="1.65568">
        <ele>1384</ele>
        <time>2018-11-18T09:36:02.000Z</time>
      </trkpt>
      <trkpt lat="42.69894" lon="1.65568">
        <ele>1384</ele>
        <time>2018-11-18T09:36:04.000Z</time>
      </trkpt>
      <trkpt lat="42.69894" lon="1.65569">
        <ele>1384</ele>
        <time>2018-11-18T09:36:06.000Z</time>
      </trkpt>
      <trkpt lat="42.69894" lon="1.6557">
        <ele>1384</ele>
        <time>2018-11-18T09:36:08.000Z</time>
      </trkpt>
      <trkpt lat="42.69894" lon="1.65571">
        <ele>1384</ele>
        <time>2018-11-18T09:36:10.000Z</time>
      </trkpt>
      <trkpt lat="42.69894" lon="1.6557">
        <ele>1384</ele>
        <time>2018-11-18T09:36:12.000Z</time>
      </trkpt>
      <trkpt lat="42.69893" lon="1.65571">
        <ele>1384</ele>
        <time>2018-11-18T09:36:14.000Z</time>
      </trkpt>
      <trkpt lat="42.69894" lon="1.65571">
        <ele>1384</ele>
        <time>2018-11-18T09:36:16.000Z</time>
      </trkpt>
      <trkpt lat="42.69894" lon="1.65571">
        <ele>1384</ele>
        <time>2018-11-18T09:36:18.000Z</time>
      </trkpt>
      <trkpt lat="42.69894" lon="1.65572">
        <ele>1384</ele>
        <time>2018-11-18T09:36:20.000Z</time>
      </trkpt>
      <trkpt lat="42.69894" lon="1.65572">
        <ele>1384</ele>
        <time>2018-11-18T09:36:22.000Z</time>
      </trkpt>
      <trkpt lat="42.69894" lon="1.65571">
        <ele>1384</ele>
        <time>2018-11-18T09:36:24.000Z</time>
      </trkpt>
      <trkpt lat="42.69893" lon="1.6557">
        <ele>1384</ele>
        <time>2018-11-18T09:36:26.000Z</time>
      </trkpt>
      <trkpt lat="42.69893" lon="1.65569">
        <ele>1384</ele>
        <time>2018-11-18T09:36:28.000Z</time>
      </trkpt>
      <trkpt lat="42.69893" lon="1.65569">
        <ele>1384</ele>
        <time>2018-11-18T09:36:30.000Z</time>
      </trkpt>
      <trkpt lat="42.69893" lon="1.65568">
        <ele>1384</ele>
        <time>2018-11-18T09:36:32.000Z</time>
      </trkpt>
      <trkpt lat="42.69893" lon="1.65567">
        <ele>1384</ele>
        <time>2018-11-18T09:36:34.000Z</time>
      </trkpt>
      <trkpt lat="42.69894" lon="1.65566">
        <ele>1384</ele>
        <time>2018-11-18T09:36:36.000Z</time>
      </trkpt>
      <trkpt lat="42.69893" lon="1.65566">
        <ele>1384</ele>
        <time>2018-11-18T09:36:38.000Z</time>
      </trkpt>
      <trkpt lat="42.69893" lon="1.65567">
        <ele>1384</ele>
        <time>2018-11-18T09:36:40.000Z</time>
      </trkpt>
      <trkpt lat="42.69893" lon="1.65567">
        <ele>1384</ele>
        <time>2018-11-18T09:36:42.000Z</time>
      </trkpt>
      <trkpt lat="42.69894" lon="1.65568">
        <ele>1384</ele>
        <time>2018-11-18T09:36:44.000Z</time>
      </trkpt>
      <trkpt lat="42.69894" lon="1.65568">
        <ele>1384</ele>
        <time>2018-11-18T09:36:46.000Z</time>
      </trkpt>
      <trkpt lat="42.69895" lon="1.6557">
        <ele>1384</ele>
        <time>2018-11-18T09:36:48.000Z</time>
      </trkpt>
      <trkpt lat="42.69895" lon="1.6557">
        <ele>1384</ele>
        <time>2018-11-18T09:36:50.000Z</time>
      </trkpt>
      <trkpt lat="42.69895" lon="1.65571">
        <ele>1384</ele>
        <time>2018-11-18T09:36:52.000Z</time>
      </trkpt>
      <trkpt lat="42.69894" lon="1.65571">
        <ele>1384</ele>
        <time>2018-11-18T09:36:54.000Z</time>
      </trkpt>
      <trkpt lat="42.69894" lon="1.65571">
        <ele>1384</ele>
        <time>2018-11-18T09:36:56.000Z</time>
      </trkpt>
      <trkpt lat="42.69894" lon="1.6557">
        <ele>1384</ele>
        <time>2018-11-18T09:36:58.000Z</time>
      </trkpt>
      <trkpt lat="42.69894" lon="1.6557">
        <ele>1384</ele>
        <time>2018-11-18T09:37:00.000Z</time>
      </trkpt>
      <trkpt lat="42.69893" lon="1.65571">
        <ele>1384</ele>
        <time>2018-11-18T09:37:02.000Z</time>
      </trkpt>
      <trkpt lat="42.69894" lon="1.65571">
        <ele>1384</ele>
        <time>2018-11-18T09:37:04.000Z</time>
      </trkpt>
      <trkpt lat="42.69894" lon="1.65572">
        <ele>1384</ele>
        <time>2018-11-18T09:37:06.000Z</time>
      </trkpt>
      <trkpt lat="42.69894" lon="1.65572">
        <ele>1384</ele>
        <time>2018-11-18T09:37:08.000Z</time>
      </trkpt>
      <trkpt lat="42.69894" lon="1.65572">
        <ele>1384</ele>
        <time>2018-11-18T09:37:10.000Z</time>
      </trkpt>
      <trkpt lat="42.69893" lon="1.65571">
        <ele>1384</ele>
        <time>2018-11-18T09:37:12.000Z</time>
      </trkpt>
      <trkpt lat="42.69893" lon="1.6557">
        <ele>1383</ele>
        <time>2018-11-18T09:37:14.000Z</time>
      </trkpt>
      <trkpt lat="42.69893" lon="1.65569">
        <ele>1384</ele>
        <time>2018-11-18T09:37:16.000Z</time>
      </trkpt>
      <trkpt lat="42.69893" lon="1.65568">
        <ele>1384</ele>
        <time>2018-11-18T09:37:18.000Z</time>
      </trkpt>
      <trkpt lat="42.69893" lon="1.65566">
        <ele>1384</ele>
        <time>2018-11-18T09:37:20.000Z</time>
      </trkpt>
      <trkpt lat="42.69893" lon="1.65565">
        <ele>1384</ele>
        <time>2018-11-18T09:37:22.000Z</time>
      </trkpt>
      <trkpt lat="42.69893" lon="1.65564">
        <ele>1384</ele>
        <time>2018-11-18T09:37:24.000Z</time>
      </trkpt>
      <trkpt lat="42.69893" lon="1.65562">
        <ele>1385</ele>
        <time>2018-11-18T09:37:26.000Z</time>
      </trkpt>
      <trkpt lat="42.69893" lon="1.65561">
        <ele>1385</ele>
        <time>2018-11-18T09:37:28.000Z</time>
      </trkpt>
      <trkpt lat="42.69892" lon="1.65562">
        <ele>1384</ele>
        <time>2018-11-18T09:37:30.000Z</time>
      </trkpt>
      <trkpt lat="42.69891" lon="1.65561">
        <ele>1384</ele>
        <time>2018-11-18T09:37:32.000Z</time>
      </trkpt>
      <trkpt lat="42.69891" lon="1.65561">
        <ele>1384</ele>
        <time>2018-11-18T09:37:34.000Z</time>
      </trkpt>
      <trkpt lat="42.69891" lon="1.65561">
        <ele>1384</ele>
        <time>2018-11-18T09:37:36.000Z</time>
      </trkpt>
      <trkpt lat="42.6989" lon="1.65562">
        <ele>1384</ele>
        <time>2018-11-18T09:37:38.000Z</time>
      </trkpt>
      <trkpt lat="42.6989" lon="1.65563">
        <ele>1383</ele>
        <time>2018-11-18T09:37:40.000Z</time>
      </trkpt>
      <trkpt lat="42.6989" lon="1.65564">
        <ele>1383</ele>
        <time>2018-11-18T09:37:42.000Z</time>
      </trkpt>
      <trkpt lat="42.6989" lon="1.65564">
        <ele>1383</ele>
        <time>2018-11-18T09:37:44.000Z</time>
      </trkpt>
      <trkpt lat="42.6989" lon="1.65564">
        <ele>1383</ele>
        <time>2018-11-18T09:37:46.000Z</time>
      </trkpt>
      <trkpt lat="42.69891" lon="1.65564">
        <ele>1383</ele>
        <time>2018-11-18T09:37:48.000Z</time>
      </trkpt>
      <trkpt lat="42.69891" lon="1.65564">
        <ele>1383</ele>
        <time>2018-11-18T09:37:50.000Z</time>
      </trkpt>
      <trkpt lat="42.69891" lon="1.65564">
        <ele>1384</ele>
        <time>2018-11-18T09:37:52.000Z</time>
      </trkpt>
      <trkpt lat="42.69891" lon="1.65565">
        <ele>1384</ele>
        <time>2018-11-18T09:37:54.000Z</time>
      </trkpt>
      <trkpt lat="42.69891" lon="1.65564">
        <ele>1384</ele>
        <time>2018-11-18T09:37:56.000Z</time>
      </trkpt>
      <trkpt lat="42.69891" lon="1.65564">
        <ele>1384</ele>
        <time>2018-11-18T09:37:58.000Z</time>
      </trkpt>
      <trkpt lat="42.69891" lon="1.65565">
        <ele>1384</ele>
        <time>2018-11-18T09:38:00.000Z</time>
      </trkpt>
      <trkpt lat="42.69891" lon="1.65565">
        <ele>1383</ele>
        <time>2018-11-18T09:38:02.000Z</time>
      </trkpt>
      <trkpt lat="42.6989" lon="1.65565">
        <ele>1383</ele>
        <time>2018-11-18T09:38:04.000Z</time>
      </trkpt>
      <trkpt lat="42.6989" lon="1.65565">
        <ele>1383</ele>
        <time>2018-11-18T09:38:06.000Z</time>
      </trkpt>
      <trkpt lat="42.6989" lon="1.65565">
        <ele>1383</ele>
        <time>2018-11-18T09:38:08.000Z</time>
      </trkpt>
      <trkpt lat="42.6989" lon="1.65565">
        <ele>1383</ele>
        <time>2018-11-18T09:38:10.000Z</time>
      </trkpt>
      <trkpt lat="42.69889" lon="1.65564">
        <ele>1383</ele>
        <time>2018-11-18T09:38:12.000Z</time>
      </trkpt>
      <trkpt lat="42.69889" lon="1.65564">
        <ele>1383</ele>
        <time>2018-11-18T09:38:14.000Z</time>
      </trkpt>
      <trkpt lat="42.69888" lon="1.65565">
        <ele>1382</ele>
        <time>2018-11-18T09:38:16.000Z</time>
      </trkpt>
      <trkpt lat="42.69888" lon="1.65567">
        <ele>1382</ele>
        <time>2018-11-18T09:38:18.000Z</time>
      </trkpt>
      <trkpt lat="42.69889" lon="1.65567">
        <ele>1382</ele>
        <time>2018-11-18T09:38:20.000Z</time>
      </trkpt>
      <trkpt lat="42.69889" lon="1.65566">
        <ele>1383</ele>
        <time>2018-11-18T09:38:22.000Z</time>
      </trkpt>
      <trkpt lat="42.6989" lon="1.65566">
        <ele>1383</ele>
        <time>2018-11-18T09:38:24.000Z</time>
      </trkpt>
      <trkpt lat="42.69891" lon="1.65566">
        <ele>1383</ele>
        <time>2018-11-18T09:38:26.000Z</time>
      </trkpt>
      <trkpt lat="42.69891" lon="1.65567">
        <ele>1383</ele>
        <time>2018-11-18T09:38:28.000Z</time>
      </trkpt>
      <trkpt lat="42.69891" lon="1.65566">
        <ele>1383</ele>
        <time>2018-11-18T09:38:30.000Z</time>
      </trkpt>
      <trkpt lat="42.69891" lon="1.65565">
        <ele>1384</ele>
        <time>2018-11-18T09:38:32.000Z</time>
      </trkpt>
      <trkpt lat="42.69892" lon="1.65564">
        <ele>1384</ele>
        <time>2018-11-18T09:38:34.000Z</time>
      </trkpt>
      <trkpt lat="42.69894" lon="1.65565">
        <ele>1385</ele>
        <time>2018-11-18T09:38:36.000Z</time>
      </trkpt>
      <trkpt lat="42.69895" lon="1.65564">
        <ele>1385</ele>
        <time>2018-11-18T09:38:38.000Z</time>
      </trkpt>
      <trkpt lat="42.69896" lon="1.65562">
        <ele>1386</ele>
        <time>2018-11-18T09:38:40.000Z</time>
      </trkpt>
      <trkpt lat="42.69898" lon="1.65562">
        <ele>1386</ele>
        <time>2018-11-18T09:38:42.000Z</time>
      </trkpt>
      <trkpt lat="42.69898" lon="1.65562">
        <ele>1387</ele>
        <time>2018-11-18T09:38:44.000Z</time>
      </trkpt>
      <trkpt lat="42.69899" lon="1.65561">
        <ele>1387</ele>
        <time>2018-11-18T09:38:46.000Z</time>
      </trkpt>
      <trkpt lat="42.69897" lon="1.65554">
        <ele>1387</ele>
        <time>2018-11-18T09:38:48.000Z</time>
      </trkpt>
      <trkpt lat="42.69889" lon="1.65572">
        <ele>1382</ele>
        <time>2018-11-18T09:38:50.000Z</time>
      </trkpt>
      <trkpt lat="42.69888" lon="1.65573">
        <ele>1382</ele>
        <time>2018-11-18T09:38:52.000Z</time>
      </trkpt>
      <trkpt lat="42.69888" lon="1.65576">
        <ele>1382</ele>
        <time>2018-11-18T09:38:54.000Z</time>
      </trkpt>
      <trkpt lat="42.69889" lon="1.65576">
        <ele>1382</ele>
        <time>2018-11-18T09:38:56.000Z</time>
      </trkpt>
      <trkpt lat="42.69891" lon="1.65577">
        <ele>1383</ele>
        <time>2018-11-18T09:38:58.000Z</time>
      </trkpt>
      <trkpt lat="42.69891" lon="1.65577">
        <ele>1383</ele>
        <time>2018-11-18T09:39:00.000Z</time>
      </trkpt>
      <trkpt lat="42.69891" lon="1.65577">
        <ele>1383</ele>
        <time>2018-11-18T09:39:02.000Z</time>
      </trkpt>
      <trkpt lat="42.69893" lon="1.65576">
        <ele>1384</ele>
        <time>2018-11-18T09:39:04.000Z</time>
      </trkpt>
      <trkpt lat="42.69893" lon="1.65576">
        <ele>1384</ele>
        <time>2018-11-18T09:39:06.000Z</time>
      </trkpt>
      <trkpt lat="42.69893" lon="1.65575">
        <ele>1384</ele>
        <time>2018-11-18T09:39:08.000Z</time>
      </trkpt>
      <trkpt lat="42.69893" lon="1.65574">
        <ele>1384</ele>
        <time>2018-11-18T09:39:10.000Z</time>
      </trkpt>
      <trkpt lat="42.69893" lon="1.65572">
        <ele>1384</ele>
        <time>2018-11-18T09:39:12.000Z</time>
      </trkpt>
      <trkpt lat="42.69893" lon="1.65572">
        <ele>1384</ele>
        <time>2018-11-18T09:39:14.000Z</time>
      </trkpt>
      <trkpt lat="42.69893" lon="1.65572">
        <ele>1384</ele>
        <time>2018-11-18T09:39:16.000Z</time>
      </trkpt>
      <trkpt lat="42.69893" lon="1.65571">
        <ele>1384</ele>
        <time>2018-11-18T09:39:18.000Z</time>
      </trkpt>
      <trkpt lat="42.69892" lon="1.6557">
        <ele>1383</ele>
        <time>2018-11-18T09:39:20.000Z</time>
      </trkpt>
      <trkpt lat="42.69892" lon="1.6557">
        <ele>1383</ele>
        <time>2018-11-18T09:39:22.000Z</time>
      </trkpt>
      <trkpt lat="42.69891" lon="1.65569">
        <ele>1383</ele>
        <time>2018-11-18T09:39:24.000Z</time>
      </trkpt>
      <trkpt lat="42.69891" lon="1.65568">
        <ele>1383</ele>
        <time>2018-11-18T09:39:26.000Z</time>
      </trkpt>
      <trkpt lat="42.69891" lon="1.65568">
        <ele>1383</ele>
        <time>2018-11-18T09:39:28.000Z</time>
      </trkpt>
      <trkpt lat="42.69891" lon="1.65568">
        <ele>1383</ele>
        <time>2018-11-18T09:39:30.000Z</time>
      </trkpt>
      <trkpt lat="42.6989" lon="1.65567">
        <ele>1383</ele>
        <time>2018-11-18T09:39:32.000Z</time>
      </trkpt>
      <trkpt lat="42.69889" lon="1.65566">
        <ele>1383</ele>
        <time>2018-11-18T09:39:34.000Z</time>
      </trkpt>
      <trkpt lat="42.69889" lon="1.65565">
        <ele>1382</ele>
        <time>2018-11-18T09:39:36.000Z</time>
      </trkpt>
      <trkpt lat="42.69887" lon="1.65565">
        <ele>1382</ele>
        <time>2018-11-18T09:39:38.000Z</time>
      </trkpt>
      <trkpt lat="42.69886" lon="1.65564">
        <ele>1382</ele>
        <time>2018-11-18T09:39:40.000Z</time>
      </trkpt>
      <trkpt lat="42.69886" lon="1.65565">
        <ele>1381</ele>
        <time>2018-11-18T09:39:42.000Z</time>
      </trkpt>
      <trkpt lat="42.69885" lon="1.65564">
        <ele>1381</ele>
        <time>2018-11-18T09:39:44.000Z</time>
      </trkpt>
      <trkpt lat="42.69884" lon="1.65564">
        <ele>1381</ele>
        <time>2018-11-18T09:39:46.000Z</time>
      </trkpt>
      <trkpt lat="42.69884" lon="1.65563">
        <ele>1381</ele>
        <time>2018-11-18T09:39:48.000Z</time>
      </trkpt>
      <trkpt lat="42.69884" lon="1.65562">
        <ele>1381</ele>
        <time>2018-11-18T09:39:50.000Z</time>
      </trkpt>
      <trkpt lat="42.69884" lon="1.65561">
        <ele>1381</ele>
        <time>2018-11-18T09:39:52.000Z</time>
      </trkpt>
      <trkpt lat="42.69884" lon="1.6556">
        <ele>1381</ele>
        <time>2018-11-18T09:39:54.000Z</time>
      </trkpt>
      <trkpt lat="42.69883" lon="1.65559">
        <ele>1381</ele>
        <time>2018-11-18T09:39:56.000Z</time>
      </trkpt>
      <trkpt lat="42.69883" lon="1.65559">
        <ele>1381</ele>
        <time>2018-11-18T09:39:58.000Z</time>
      </trkpt>
      <trkpt lat="42.69883" lon="1.6556">
        <ele>1381</ele>
        <time>2018-11-18T09:40:00.000Z</time>
      </trkpt>
      <trkpt lat="42.69882" lon="1.6556">
        <ele>1381</ele>
        <time>2018-11-18T09:40:02.000Z</time>
      </trkpt>
      <trkpt lat="42.69882" lon="1.6556">
        <ele>1381</ele>
        <time>2018-11-18T09:40:04.000Z</time>
      </trkpt>
      <trkpt lat="42.69881" lon="1.6556">
        <ele>1380</ele>
        <time>2018-11-18T09:40:06.000Z</time>
      </trkpt>
      <trkpt lat="42.69881" lon="1.65558">
        <ele>1381</ele>
        <time>2018-11-18T09:40:08.000Z</time>
      </trkpt>
      <trkpt lat="42.6988" lon="1.65557">
        <ele>1381</ele>
        <time>2018-11-18T09:40:10.000Z</time>
      </trkpt>
      <trkpt lat="42.6988" lon="1.65556">
        <ele>1381</ele>
        <time>2018-11-18T09:40:12.000Z</time>
      </trkpt>
      <trkpt lat="42.6988" lon="1.65556">
        <ele>1380</ele>
        <time>2018-11-18T09:40:14.000Z</time>
      </trkpt>
      <trkpt lat="42.69879" lon="1.65555">
        <ele>1380</ele>
        <time>2018-11-18T09:40:16.000Z</time>
      </trkpt>
      <trkpt lat="42.69878" lon="1.65553">
        <ele>1380</ele>
        <time>2018-11-18T09:40:18.000Z</time>
      </trkpt>
      <trkpt lat="42.69878" lon="1.65552">
        <ele>1380</ele>
        <time>2018-11-18T09:40:20.000Z</time>
      </trkpt>
      <trkpt lat="42.69879" lon="1.65551">
        <ele>1381</ele>
        <time>2018-11-18T09:40:22.000Z</time>
      </trkpt>
      <trkpt lat="42.69879" lon="1.65551">
        <ele>1381</ele>
        <time>2018-11-18T09:40:24.000Z</time>
      </trkpt>
      <trkpt lat="42.69878" lon="1.6555">
        <ele>1381</ele>
        <time>2018-11-18T09:40:26.000Z</time>
      </trkpt>
      <trkpt lat="42.69878" lon="1.6555">
        <ele>1381</ele>
        <time>2018-11-18T09:40:28.000Z</time>
      </trkpt>
      <trkpt lat="42.69877" lon="1.65551">
        <ele>1380</ele>
        <time>2018-11-18T09:40:30.000Z</time>
      </trkpt>
      <trkpt lat="42.69877" lon="1.65551">
        <ele>1380</ele>
        <time>2018-11-18T09:40:32.000Z</time>
      </trkpt>
      <trkpt lat="42.69876" lon="1.6555">
        <ele>1380</ele>
        <time>2018-11-18T09:40:34.000Z</time>
      </trkpt>
      <trkpt lat="42.69876" lon="1.65549">
        <ele>1380</ele>
        <time>2018-11-18T09:40:36.000Z</time>
      </trkpt>
      <trkpt lat="42.69875" lon="1.6555">
        <ele>1379</ele>
        <time>2018-11-18T09:40:38.000Z</time>
      </trkpt>
      <trkpt lat="42.69875" lon="1.65551">
        <ele>1379</ele>
        <time>2018-11-18T09:40:40.000Z</time>
      </trkpt>
      <trkpt lat="42.69874" lon="1.6555">
        <ele>1379</ele>
        <time>2018-11-18T09:40:42.000Z</time>
      </trkpt>
      <trkpt lat="42.69874" lon="1.65549">
        <ele>1379</ele>
        <time>2018-11-18T09:40:44.000Z</time>
      </trkpt>
      <trkpt lat="42.69874" lon="1.65548">
        <ele>1379</ele>
        <time>2018-11-18T09:40:46.000Z</time>
      </trkpt>
      <trkpt lat="42.69873" lon="1.65548">
        <ele>1379</ele>
        <time>2018-11-18T09:40:48.000Z</time>
      </trkpt>
      <trkpt lat="42.69874" lon="1.65547">
        <ele>1379</ele>
        <time>2018-11-18T09:40:50.000Z</time>
      </trkpt>
      <trkpt lat="42.69874" lon="1.65547">
        <ele>1380</ele>
        <time>2018-11-18T09:40:52.000Z</time>
      </trkpt>
      <trkpt lat="42.69874" lon="1.65546">
        <ele>1380</ele>
        <time>2018-11-18T09:40:54.000Z</time>
      </trkpt>
      <trkpt lat="42.69874" lon="1.65545">
        <ele>1380</ele>
        <time>2018-11-18T09:40:56.000Z</time>
      </trkpt>
      <trkpt lat="42.69873" lon="1.65544">
        <ele>1379</ele>
        <time>2018-11-18T09:40:58.000Z</time>
      </trkpt>
      <trkpt lat="42.69873" lon="1.65544">
        <ele>1379</ele>
        <time>2018-11-18T09:41:00.000Z</time>
      </trkpt>
      <trkpt lat="42.69873" lon="1.65543">
        <ele>1380</ele>
        <time>2018-11-18T09:41:02.000Z</time>
      </trkpt>
      <trkpt lat="42.69873" lon="1.65543">
        <ele>1380</ele>
        <time>2018-11-18T09:41:04.000Z</time>
      </trkpt>
      <trkpt lat="42.69872" lon="1.65544">
        <ele>1379</ele>
        <time>2018-11-18T09:41:06.000Z</time>
      </trkpt>
      <trkpt lat="42.69872" lon="1.65543">
        <ele>1379</ele>
        <time>2018-11-18T09:41:08.000Z</time>
      </trkpt>
      <trkpt lat="42.69872" lon="1.65545">
        <ele>1379</ele>
        <time>2018-11-18T09:41:10.000Z</time>
      </trkpt>
      <trkpt lat="42.69872" lon="1.65544">
        <ele>1379</ele>
        <time>2018-11-18T09:41:12.000Z</time>
      </trkpt>
      <trkpt lat="42.69872" lon="1.65545">
        <ele>1379</ele>
        <time>2018-11-18T09:41:14.000Z</time>
      </trkpt>
      <trkpt lat="42.69873" lon="1.65545">
        <ele>1379</ele>
        <time>2018-11-18T09:41:16.000Z</time>
      </trkpt>
      <trkpt lat="42.69873" lon="1.65545">
        <ele>1379</ele>
        <time>2018-11-18T09:41:18.000Z</time>
      </trkpt>
      <trkpt lat="42.69872" lon="1.65546">
        <ele>1379</ele>
        <time>2018-11-18T09:41:20.000Z</time>
      </trkpt>
      <trkpt lat="42.69873" lon="1.65547">
        <ele>1379</ele>
        <time>2018-11-18T09:41:22.000Z</time>
      </trkpt>
      <trkpt lat="42.69873" lon="1.65547">
        <ele>1379</ele>
        <time>2018-11-18T09:41:24.000Z</time>
      </trkpt>
      <trkpt lat="42.69871" lon="1.65546">
        <ele>1379</ele>
        <time>2018-11-18T09:41:26.000Z</time>
      </trkpt>
      <trkpt lat="42.69871" lon="1.65546">
        <ele>1378</ele>
        <time>2018-11-18T09:41:28.000Z</time>
      </trkpt>
      <trkpt lat="42.69871" lon="1.65546">
        <ele>1378</ele>
        <time>2018-11-18T09:41:30.000Z</time>
      </trkpt>
      <trkpt lat="42.69871" lon="1.65548">
        <ele>1378</ele>
        <time>2018-11-18T09:41:32.000Z</time>
      </trkpt>
      <trkpt lat="42.69871" lon="1.6555">
        <ele>1378</ele>
        <time>2018-11-18T09:41:34.000Z</time>
      </trkpt>
      <trkpt lat="42.69871" lon="1.65552">
        <ele>1378</ele>
        <time>2018-11-18T09:41:36.000Z</time>
      </trkpt>
      <trkpt lat="42.69872" lon="1.65554">
        <ele>1378</ele>
        <time>2018-11-18T09:41:38.000Z</time>
      </trkpt>
      <trkpt lat="42.69871" lon="1.65557">
        <ele>1377</ele>
        <time>2018-11-18T09:41:40.000Z</time>
      </trkpt>
      <trkpt lat="42.6987" lon="1.65557">
        <ele>1377</ele>
        <time>2018-11-18T09:41:42.000Z</time>
      </trkpt>
      <trkpt lat="42.69868" lon="1.65558">
        <ele>1376</ele>
        <time>2018-11-18T09:41:44.000Z</time>
      </trkpt>
      <trkpt lat="42.69867" lon="1.65559">
        <ele>1375</ele>
        <time>2018-11-18T09:41:46.000Z</time>
      </trkpt>
      <trkpt lat="42.69865" lon="1.6556">
        <ele>1374</ele>
        <time>2018-11-18T09:41:48.000Z</time>
      </trkpt>
      <trkpt lat="42.69864" lon="1.6556">
        <ele>1374</ele>
        <time>2018-11-18T09:41:50.000Z</time>
      </trkpt>
      <trkpt lat="42.69864" lon="1.65559">
        <ele>1374</ele>
        <time>2018-11-18T09:41:52.000Z</time>
      </trkpt>
      <trkpt lat="42.69863" lon="1.65557">
        <ele>1374</ele>
        <time>2018-11-18T09:41:54.000Z</time>
      </trkpt>
      <trkpt lat="42.69862" lon="1.65556">
        <ele>1374</ele>
        <time>2018-11-18T09:41:56.000Z</time>
      </trkpt>
      <trkpt lat="42.69861" lon="1.65555">
        <ele>1374</ele>
        <time>2018-11-18T09:41:58.000Z</time>
      </trkpt>
      <trkpt lat="42.6986" lon="1.65553">
        <ele>1373</ele>
        <time>2018-11-18T09:42:00.000Z</time>
      </trkpt>
      <trkpt lat="42.69861" lon="1.65551">
        <ele>1374</ele>
        <time>2018-11-18T09:42:02.000Z</time>
      </trkpt>
      <trkpt lat="42.69861" lon="1.6555">
        <ele>1374</ele>
        <time>2018-11-18T09:42:04.000Z</time>
      </trkpt>
      <trkpt lat="42.69861" lon="1.6555">
        <ele>1374</ele>
        <time>2018-11-18T09:42:06.000Z</time>
      </trkpt>
      <trkpt lat="42.69861" lon="1.65549">
        <ele>1374</ele>
        <time>2018-11-18T09:42:08.000Z</time>
      </trkpt>
      <trkpt lat="42.69861" lon="1.65548">
        <ele>1375</ele>
        <time>2018-11-18T09:42:10.000Z</time>
      </trkpt>
      <trkpt lat="42.69861" lon="1.65546">
        <ele>1375</ele>
        <time>2018-11-18T09:42:12.000Z</time>
      </trkpt>
      <trkpt lat="42.69861" lon="1.65545">
        <ele>1375</ele>
        <time>2018-11-18T09:42:14.000Z</time>
      </trkpt>
      <trkpt lat="42.69861" lon="1.65544">
        <ele>1375</ele>
        <time>2018-11-18T09:42:16.000Z</time>
      </trkpt>
      <trkpt lat="42.6986" lon="1.65543">
        <ele>1375</ele>
        <time>2018-11-18T09:42:18.000Z</time>
      </trkpt>
      <trkpt lat="42.69859" lon="1.65542">
        <ele>1375</ele>
        <time>2018-11-18T09:42:20.000Z</time>
      </trkpt>
      <trkpt lat="42.69859" lon="1.65541">
        <ele>1375</ele>
        <time>2018-11-18T09:42:22.000Z</time>
      </trkpt>
      <trkpt lat="42.69858" lon="1.6554">
        <ele>1375</ele>
        <time>2018-11-18T09:42:24.000Z</time>
      </trkpt>
      <trkpt lat="42.69858" lon="1.65539">
        <ele>1375</ele>
        <time>2018-11-18T09:42:26.000Z</time>
      </trkpt>
      <trkpt lat="42.69857" lon="1.65539">
        <ele>1374</ele>
        <time>2018-11-18T09:42:28.000Z</time>
      </trkpt>
      <trkpt lat="42.69857" lon="1.65538">
        <ele>1374</ele>
        <time>2018-11-18T09:42:30.000Z</time>
      </trkpt>
      <trkpt lat="42.69857" lon="1.65537">
        <ele>1374</ele>
        <time>2018-11-18T09:42:32.000Z</time>
      </trkpt>
      <trkpt lat="42.69857" lon="1.65538">
        <ele>1374</ele>
        <time>2018-11-18T09:42:34.000Z</time>
      </trkpt>
      <trkpt lat="42.69856" lon="1.65537">
        <ele>1374</ele>
        <time>2018-11-18T09:42:36.000Z</time>
      </trkpt>
      <trkpt lat="42.69855" lon="1.65536">
        <ele>1374</ele>
        <time>2018-11-18T09:42:38.000Z</time>
      </trkpt>
      <trkpt lat="42.69855" lon="1.65536">
        <ele>1374</ele>
        <time>2018-11-18T09:42:40.000Z</time>
      </trkpt>
      <trkpt lat="42.69854" lon="1.65535">
        <ele>1374</ele>
        <time>2018-11-18T09:42:42.000Z</time>
      </trkpt>
      <trkpt lat="42.69853" lon="1.65535">
        <ele>1373</ele>
        <time>2018-11-18T09:42:44.000Z</time>
      </trkpt>
      <trkpt lat="42.69853" lon="1.65537">
        <ele>1373</ele>
        <time>2018-11-18T09:42:46.000Z</time>
      </trkpt>
      <trkpt lat="42.69853" lon="1.65537">
        <ele>1373</ele>
        <time>2018-11-18T09:42:48.000Z</time>
      </trkpt>
      <trkpt lat="42.69852" lon="1.65536">
        <ele>1373</ele>
        <time>2018-11-18T09:42:50.000Z</time>
      </trkpt>
      <trkpt lat="42.69852" lon="1.65536">
        <ele>1373</ele>
        <time>2018-11-18T09:42:52.000Z</time>
      </trkpt>
      <trkpt lat="42.69852" lon="1.65535">
        <ele>1373</ele>
        <time>2018-11-18T09:42:54.000Z</time>
      </trkpt>
      <trkpt lat="42.69851" lon="1.65535">
        <ele>1373</ele>
        <time>2018-11-18T09:42:56.000Z</time>
      </trkpt>
      <trkpt lat="42.69851" lon="1.65533">
        <ele>1373</ele>
        <time>2018-11-18T09:42:58.000Z</time>
      </trkpt>
      <trkpt lat="42.69851" lon="1.65533">
        <ele>1373</ele>
        <time>2018-11-18T09:43:00.000Z</time>
      </trkpt>
      <trkpt lat="42.69852" lon="1.65532">
        <ele>1373</ele>
        <time>2018-11-18T09:43:02.000Z</time>
      </trkpt>
      <trkpt lat="42.69852" lon="1.65531">
        <ele>1373</ele>
        <time>2018-11-18T09:43:04.000Z</time>
      </trkpt>
      <trkpt lat="42.69851" lon="1.6553">
        <ele>1373</ele>
        <time>2018-11-18T09:43:06.000Z</time>
      </trkpt>
      <trkpt lat="42.69851" lon="1.6553">
        <ele>1373</ele>
        <time>2018-11-18T09:43:08.000Z</time>
      </trkpt>
      <trkpt lat="42.69851" lon="1.65529">
        <ele>1373</ele>
        <time>2018-11-18T09:43:10.000Z</time>
      </trkpt>
      <trkpt lat="42.69851" lon="1.65529">
        <ele>1373</ele>
        <time>2018-11-18T09:43:12.000Z</time>
      </trkpt>
      <trkpt lat="42.6985" lon="1.65528">
        <ele>1373</ele>
        <time>2018-11-18T09:43:14.000Z</time>
      </trkpt>
      <trkpt lat="42.6985" lon="1.65526">
        <ele>1373</ele>
        <time>2018-11-18T09:43:16.000Z</time>
      </trkpt>
      <trkpt lat="42.6985" lon="1.65525">
        <ele>1373</ele>
        <time>2018-11-18T09:43:18.000Z</time>
      </trkpt>
      <trkpt lat="42.6985" lon="1.65524">
        <ele>1374</ele>
        <time>2018-11-18T09:43:20.000Z</time>
      </trkpt>
      <trkpt lat="42.6985" lon="1.65523">
        <ele>1374</ele>
        <time>2018-11-18T09:43:22.000Z</time>
      </trkpt>
      <trkpt lat="42.6985" lon="1.65522">
        <ele>1374</ele>
        <time>2018-11-18T09:43:24.000Z</time>
      </trkpt>
      <trkpt lat="42.69851" lon="1.65522">
        <ele>1374</ele>
        <time>2018-11-18T09:43:26.000Z</time>
      </trkpt>
      <trkpt lat="42.69851" lon="1.65522">
        <ele>1374</ele>
        <time>2018-11-18T09:43:28.000Z</time>
      </trkpt>
      <trkpt lat="42.69852" lon="1.65522">
        <ele>1375</ele>
        <time>2018-11-18T09:43:30.000Z</time>
      </trkpt>
      <trkpt lat="42.69852" lon="1.65521">
        <ele>1375</ele>
        <time>2018-11-18T09:43:32.000Z</time>
      </trkpt>
      <trkpt lat="42.69852" lon="1.65521">
        <ele>1375</ele>
        <time>2018-11-18T09:43:34.000Z</time>
      </trkpt>
      <trkpt lat="42.69853" lon="1.65521">
        <ele>1375</ele>
        <time>2018-11-18T09:43:36.000Z</time>
      </trkpt>
      <trkpt lat="42.69853" lon="1.6552">
        <ele>1375</ele>
        <time>2018-11-18T09:43:38.000Z</time>
      </trkpt>
      <trkpt lat="42.69854" lon="1.6552">
        <ele>1376</ele>
        <time>2018-11-18T09:43:40.000Z</time>
      </trkpt>
      <trkpt lat="42.69853" lon="1.6552">
        <ele>1376</ele>
        <time>2018-11-18T09:43:42.000Z</time>
      </trkpt>
      <trkpt lat="42.69853" lon="1.65521">
        <ele>1375</ele>
        <time>2018-11-18T09:43:44.000Z</time>
      </trkpt>
      <trkpt lat="42.69851" lon="1.6552">
        <ele>1375</ele>
        <time>2018-11-18T09:43:46.000Z</time>
      </trkpt>
      <trkpt lat="42.6985" lon="1.65519">
        <ele>1374</ele>
        <time>2018-11-18T09:43:48.000Z</time>
      </trkpt>
      <trkpt lat="42.69849" lon="1.65518">
        <ele>1374</ele>
        <time>2018-11-18T09:43:50.000Z</time>
      </trkpt>
      <trkpt lat="42.69848" lon="1.65519">
        <ele>1373</ele>
        <time>2018-11-18T09:43:52.000Z</time>
      </trkpt>
      <trkpt lat="42.69847" lon="1.6552">
        <ele>1373</ele>
        <time>2018-11-18T09:43:54.000Z</time>
      </trkpt>
      <trkpt lat="42.69846" lon="1.65519">
        <ele>1373</ele>
        <time>2018-11-18T09:43:56.000Z</time>
      </trkpt>
      <trkpt lat="42.69845" lon="1.65519">
        <ele>1372</ele>
        <time>2018-11-18T09:43:58.000Z</time>
      </trkpt>
      <trkpt lat="42.69844" lon="1.65518">
        <ele>1372</ele>
        <time>2018-11-18T09:44:00.000Z</time>
      </trkpt>
      <trkpt lat="42.69844" lon="1.65518">
        <ele>1372</ele>
        <time>2018-11-18T09:44:02.000Z</time>
      </trkpt>
      <trkpt lat="42.69843" lon="1.6552">
        <ele>1372</ele>
        <time>2018-11-18T09:44:04.000Z</time>
      </trkpt>
      <trkpt lat="42.69843" lon="1.65521">
        <ele>1371</ele>
        <time>2018-11-18T09:44:06.000Z</time>
      </trkpt>
      <trkpt lat="42.69842" lon="1.65521">
        <ele>1371</ele>
        <time>2018-11-18T09:44:08.000Z</time>
      </trkpt>
      <trkpt lat="42.69841" lon="1.65521">
        <ele>1371</ele>
        <time>2018-11-18T09:44:10.000Z</time>
      </trkpt>
      <trkpt lat="42.6984" lon="1.6552">
        <ele>1371</ele>
        <time>2018-11-18T09:44:12.000Z</time>
      </trkpt>
      <trkpt lat="42.6984" lon="1.65519">
        <ele>1370</ele>
        <time>2018-11-18T09:44:14.000Z</time>
      </trkpt>
      <trkpt lat="42.6984" lon="1.65518">
        <ele>1370</ele>
        <time>2018-11-18T09:44:16.000Z</time>
      </trkpt>
      <trkpt lat="42.69839" lon="1.65518">
        <ele>1370</ele>
        <time>2018-11-18T09:44:18.000Z</time>
      </trkpt>
      <trkpt lat="42.69838" lon="1.65517">
        <ele>1370</ele>
        <time>2018-11-18T09:44:20.000Z</time>
      </trkpt>
      <trkpt lat="42.69837" lon="1.65516">
        <ele>1370</ele>
        <time>2018-11-18T09:44:22.000Z</time>
      </trkpt>
      <trkpt lat="42.69836" lon="1.65516">
        <ele>1369</ele>
        <time>2018-11-18T09:44:24.000Z</time>
      </trkpt>
      <trkpt lat="42.69835" lon="1.65516">
        <ele>1369</ele>
        <time>2018-11-18T09:44:26.000Z</time>
      </trkpt>
      <trkpt lat="42.69834" lon="1.65515">
        <ele>1369</ele>
        <time>2018-11-18T09:44:28.000Z</time>
      </trkpt>
      <trkpt lat="42.69834" lon="1.65513">
        <ele>1369</ele>
        <time>2018-11-18T09:44:30.000Z</time>
      </trkpt>
      <trkpt lat="42.69832" lon="1.65515">
        <ele>1369</ele>
        <time>2018-11-18T09:44:32.000Z</time>
      </trkpt>
      <trkpt lat="42.69832" lon="1.65515">
        <ele>1369</ele>
        <time>2018-11-18T09:44:34.000Z</time>
      </trkpt>
      <trkpt lat="42.69832" lon="1.65514">
        <ele>1369</ele>
        <time>2018-11-18T09:44:36.000Z</time>
      </trkpt>
      <trkpt lat="42.69832" lon="1.65512">
        <ele>1369</ele>
        <time>2018-11-18T09:44:38.000Z</time>
      </trkpt>
      <trkpt lat="42.69832" lon="1.65512">
        <ele>1369</ele>
        <time>2018-11-18T09:44:40.000Z</time>
      </trkpt>
      <trkpt lat="42.69833" lon="1.65512">
        <ele>1369</ele>
        <time>2018-11-18T09:44:42.000Z</time>
      </trkpt>
      <trkpt lat="42.69832" lon="1.6551">
        <ele>1369</ele>
        <time>2018-11-18T09:44:44.000Z</time>
      </trkpt>
      <trkpt lat="42.69833" lon="1.65511">
        <ele>1369</ele>
        <time>2018-11-18T09:44:46.000Z</time>
      </trkpt>
      <trkpt lat="42.69832" lon="1.6551">
        <ele>1369</ele>
        <time>2018-11-18T09:44:48.000Z</time>
      </trkpt>
      <trkpt lat="42.69832" lon="1.65508">
        <ele>1369</ele>
        <time>2018-11-18T09:44:50.000Z</time>
      </trkpt>
      <trkpt lat="42.69831" lon="1.65507">
        <ele>1369</ele>
        <time>2018-11-18T09:44:52.000Z</time>
      </trkpt>
      <trkpt lat="42.69831" lon="1.65507">
        <ele>1369</ele>
        <time>2018-11-18T09:44:54.000Z</time>
      </trkpt>
      <trkpt lat="42.69832" lon="1.65506">
        <ele>1370</ele>
        <time>2018-11-18T09:44:56.000Z</time>
      </trkpt>
      <trkpt lat="42.69832" lon="1.65505">
        <ele>1370</ele>
        <time>2018-11-18T09:44:58.000Z</time>
      </trkpt>
      <trkpt lat="42.69832" lon="1.65505">
        <ele>1370</ele>
        <time>2018-11-18T09:45:00.000Z</time>
      </trkpt>
      <trkpt lat="42.69832" lon="1.65505">
        <ele>1370</ele>
        <time>2018-11-18T09:45:02.000Z</time>
      </trkpt>
      <trkpt lat="42.69833" lon="1.65504">
        <ele>1370</ele>
        <time>2018-11-18T09:45:04.000Z</time>
      </trkpt>
      <trkpt lat="42.69832" lon="1.65505">
        <ele>1370</ele>
        <time>2018-11-18T09:45:06.000Z</time>
      </trkpt>
      <trkpt lat="42.69832" lon="1.65506">
        <ele>1370</ele>
        <time>2018-11-18T09:45:08.000Z</time>
      </trkpt>
      <trkpt lat="42.69832" lon="1.65507">
        <ele>1370</ele>
        <time>2018-11-18T09:45:10.000Z</time>
      </trkpt>
      <trkpt lat="42.69831" lon="1.65508">
        <ele>1369</ele>
        <time>2018-11-18T09:45:12.000Z</time>
      </trkpt>
      <trkpt lat="42.6983" lon="1.65507">
        <ele>1369</ele>
        <time>2018-11-18T09:45:14.000Z</time>
      </trkpt>
      <trkpt lat="42.69829" lon="1.65507">
        <ele>1369</ele>
        <time>2018-11-18T09:45:16.000Z</time>
      </trkpt>
      <trkpt lat="42.69827" lon="1.65506">
        <ele>1369</ele>
        <time>2018-11-18T09:45:18.000Z</time>
      </trkpt>
      <trkpt lat="42.69827" lon="1.65506">
        <ele>1368</ele>
        <time>2018-11-18T09:45:20.000Z</time>
      </trkpt>
      <trkpt lat="42.69826" lon="1.65506">
        <ele>1368</ele>
        <time>2018-11-18T09:45:22.000Z</time>
      </trkpt>
      <trkpt lat="42.69825" lon="1.65508">
        <ele>1368</ele>
        <time>2018-11-18T09:45:24.000Z</time>
      </trkpt>
      <trkpt lat="42.69825" lon="1.65508">
        <ele>1367</ele>
        <time>2018-11-18T09:45:26.000Z</time>
      </trkpt>
      <trkpt lat="42.69824" lon="1.65509">
        <ele>1367</ele>
        <time>2018-11-18T09:45:28.000Z</time>
      </trkpt>
      <trkpt lat="42.69823" lon="1.65509">
        <ele>1367</ele>
        <time>2018-11-18T09:45:30.000Z</time>
      </trkpt>
      <trkpt lat="42.69821" lon="1.6551">
        <ele>1366</ele>
        <time>2018-11-18T09:45:32.000Z</time>
      </trkpt>
      <trkpt lat="42.69821" lon="1.65509">
        <ele>1366</ele>
        <time>2018-11-18T09:45:34.000Z</time>
      </trkpt>
      <trkpt lat="42.69821" lon="1.65508">
        <ele>1366</ele>
        <time>2018-11-18T09:45:36.000Z</time>
      </trkpt>
      <trkpt lat="42.6982" lon="1.65507">
        <ele>1366</ele>
        <time>2018-11-18T09:45:38.000Z</time>
      </trkpt>
      <trkpt lat="42.69819" lon="1.65507">
        <ele>1366</ele>
        <time>2018-11-18T09:45:40.000Z</time>
      </trkpt>
      <trkpt lat="42.69819" lon="1.65507">
        <ele>1366</ele>
        <time>2018-11-18T09:45:42.000Z</time>
      </trkpt>
      <trkpt lat="42.69818" lon="1.65507">
        <ele>1366</ele>
        <time>2018-11-18T09:45:44.000Z</time>
      </trkpt>
      <trkpt lat="42.69817" lon="1.65508">
        <ele>1365</ele>
        <time>2018-11-18T09:45:46.000Z</time>
      </trkpt>
      <trkpt lat="42.69816" lon="1.65508">
        <ele>1365</ele>
        <time>2018-11-18T09:45:48.000Z</time>
      </trkpt>
      <trkpt lat="42.69814" lon="1.6551">
        <ele>1364</ele>
        <time>2018-11-18T09:45:50.000Z</time>
      </trkpt>
      <trkpt lat="42.69814" lon="1.65509">
        <ele>1364</ele>
        <time>2018-11-18T09:45:52.000Z</time>
      </trkpt>
      <trkpt lat="42.69813" lon="1.65509">
        <ele>1364</ele>
        <time>2018-11-18T09:45:54.000Z</time>
      </trkpt>
      <trkpt lat="42.69813" lon="1.65509">
        <ele>1364</ele>
        <time>2018-11-18T09:45:56.000Z</time>
      </trkpt>
      <trkpt lat="42.69815" lon="1.65508">
        <ele>1365</ele>
        <time>2018-11-18T09:45:58.000Z</time>
      </trkpt>
      <trkpt lat="42.69814" lon="1.65507">
        <ele>1365</ele>
        <time>2018-11-18T09:46:00.000Z</time>
      </trkpt>
      <trkpt lat="42.69814" lon="1.65506">
        <ele>1365</ele>
        <time>2018-11-18T09:46:02.000Z</time>
      </trkpt>
      <trkpt lat="42.69814" lon="1.65505">
        <ele>1365</ele>
        <time>2018-11-18T09:46:04.000Z</time>
      </trkpt>
      <trkpt lat="42.69814" lon="1.65504">
        <ele>1365</ele>
        <time>2018-11-18T09:46:06.000Z</time>
      </trkpt>
      <trkpt lat="42.69814" lon="1.65502">
        <ele>1366</ele>
        <time>2018-11-18T09:46:08.000Z</time>
      </trkpt>
      <trkpt lat="42.69814" lon="1.655">
        <ele>1366</ele>
        <time>2018-11-18T09:46:10.000Z</time>
      </trkpt>
      <trkpt lat="42.69813" lon="1.655">
        <ele>1365</ele>
        <time>2018-11-18T09:46:12.000Z</time>
      </trkpt>
      <trkpt lat="42.69812" lon="1.65499">
        <ele>1365</ele>
        <time>2018-11-18T09:46:14.000Z</time>
      </trkpt>
      <trkpt lat="42.69812" lon="1.65499">
        <ele>1365</ele>
        <time>2018-11-18T09:46:16.000Z</time>
      </trkpt>
      <trkpt lat="42.69812" lon="1.655">
        <ele>1365</ele>
        <time>2018-11-18T09:46:18.000Z</time>
      </trkpt>
      <trkpt lat="42.69811" lon="1.655">
        <ele>1365</ele>
        <time>2018-11-18T09:46:20.000Z</time>
      </trkpt>
      <trkpt lat="42.6981" lon="1.655">
        <ele>1365</ele>
        <time>2018-11-18T09:46:22.000Z</time>
      </trkpt>
      <trkpt lat="42.6981" lon="1.65499">
        <ele>1365</ele>
        <time>2018-11-18T09:46:24.000Z</time>
      </trkpt>
      <trkpt lat="42.6981" lon="1.655">
        <ele>1365</ele>
        <time>2018-11-18T09:46:26.000Z</time>
      </trkpt>
      <trkpt lat="42.69809" lon="1.655">
        <ele>1364</ele>
        <time>2018-11-18T09:46:28.000Z</time>
      </trkpt>
      <trkpt lat="42.69809" lon="1.655">
        <ele>1364</ele>
        <time>2018-11-18T09:46:30.000Z</time>
      </trkpt>
      <trkpt lat="42.69809" lon="1.655">
        <ele>1364</ele>
        <time>2018-11-18T09:46:32.000Z</time>
      </trkpt>
      <trkpt lat="42.69808" lon="1.655">
        <ele>1364</ele>
        <time>2018-11-18T09:46:34.000Z</time>
      </trkpt>
      <trkpt lat="42.69808" lon="1.655">
        <ele>1364</ele>
        <time>2018-11-18T09:46:36.000Z</time>
      </trkpt>
      <trkpt lat="42.69808" lon="1.65501">
        <ele>1364</ele>
        <time>2018-11-18T09:46:38.000Z</time>
      </trkpt>
      <trkpt lat="42.69809" lon="1.655">
        <ele>1364</ele>
        <time>2018-11-18T09:46:40.000Z</time>
      </trkpt>
      <trkpt lat="42.69809" lon="1.655">
        <ele>1364</ele>
        <time>2018-11-18T09:46:42.000Z</time>
      </trkpt>
      <trkpt lat="42.69808" lon="1.655">
        <ele>1364</ele>
        <time>2018-11-18T09:46:44.000Z</time>
      </trkpt>
      <trkpt lat="42.69807" lon="1.65499">
        <ele>1364</ele>
        <time>2018-11-18T09:46:46.000Z</time>
      </trkpt>
      <trkpt lat="42.69807" lon="1.65499">
        <ele>1364</ele>
        <time>2018-11-18T09:46:48.000Z</time>
      </trkpt>
      <trkpt lat="42.69807" lon="1.65499">
        <ele>1364</ele>
        <time>2018-11-18T09:46:50.000Z</time>
      </trkpt>
      <trkpt lat="42.69806" lon="1.65499">
        <ele>1364</ele>
        <time>2018-11-18T09:46:52.000Z</time>
      </trkpt>
      <trkpt lat="42.69806" lon="1.655">
        <ele>1364</ele>
        <time>2018-11-18T09:46:54.000Z</time>
      </trkpt>
      <trkpt lat="42.69805" lon="1.655">
        <ele>1363</ele>
        <time>2018-11-18T09:46:56.000Z</time>
      </trkpt>
      <trkpt lat="42.69804" lon="1.65501">
        <ele>1363</ele>
        <time>2018-11-18T09:46:58.000Z</time>
      </trkpt>
      <trkpt lat="42.69802" lon="1.655">
        <ele>1362</ele>
        <time>2018-11-18T09:47:00.000Z</time>
      </trkpt>
      <trkpt lat="42.69801" lon="1.655">
        <ele>1362</ele>
        <time>2018-11-18T09:47:02.000Z</time>
      </trkpt>
      <trkpt lat="42.698" lon="1.65501">
        <ele>1362</ele>
        <time>2018-11-18T09:47:04.000Z</time>
      </trkpt>
      <trkpt lat="42.69799" lon="1.65502">
        <ele>1361</ele>
        <time>2018-11-18T09:47:06.000Z</time>
      </trkpt>
      <trkpt lat="42.69798" lon="1.65502">
        <ele>1361</ele>
        <time>2018-11-18T09:47:08.000Z</time>
      </trkpt>
      <trkpt lat="42.69796" lon="1.65502">
        <ele>1361</ele>
        <time>2018-11-18T09:47:10.000Z</time>
      </trkpt>
      <trkpt lat="42.69795" lon="1.655">
        <ele>1360</ele>
        <time>2018-11-18T09:47:12.000Z</time>
      </trkpt>
      <trkpt lat="42.69794" lon="1.655">
        <ele>1360</ele>
        <time>2018-11-18T09:47:14.000Z</time>
      </trkpt>
      <trkpt lat="42.69792" lon="1.65498">
        <ele>1360</ele>
        <time>2018-11-18T09:47:16.000Z</time>
      </trkpt>
      <trkpt lat="42.69791" lon="1.65498">
        <ele>1360</ele>
        <time>2018-11-18T09:47:18.000Z</time>
      </trkpt>
      <trkpt lat="42.6979" lon="1.65498">
        <ele>1359</ele>
        <time>2018-11-18T09:47:20.000Z</time>
      </trkpt>
      <trkpt lat="42.69788" lon="1.65497">
        <ele>1359</ele>
        <time>2018-11-18T09:47:22.000Z</time>
      </trkpt>
      <trkpt lat="42.69788" lon="1.65495">
        <ele>1359</ele>
        <time>2018-11-18T09:47:24.000Z</time>
      </trkpt>
      <trkpt lat="42.69787" lon="1.65494">
        <ele>1359</ele>
        <time>2018-11-18T09:47:26.000Z</time>
      </trkpt>
      <trkpt lat="42.69786" lon="1.65493">
        <ele>1359</ele>
        <time>2018-11-18T09:47:28.000Z</time>
      </trkpt>
      <trkpt lat="42.69784" lon="1.65494">
        <ele>1358</ele>
        <time>2018-11-18T09:47:30.000Z</time>
      </trkpt>
      <trkpt lat="42.69784" lon="1.65494">
        <ele>1358</ele>
        <time>2018-11-18T09:47:32.000Z</time>
      </trkpt>
      <trkpt lat="42.69783" lon="1.65494">
        <ele>1358</ele>
        <time>2018-11-18T09:47:34.000Z</time>
      </trkpt>
      <trkpt lat="42.69783" lon="1.65494">
        <ele>1358</ele>
        <time>2018-11-18T09:47:36.000Z</time>
      </trkpt>
      <trkpt lat="42.69782" lon="1.65494">
        <ele>1358</ele>
        <time>2018-11-18T09:47:38.000Z</time>
      </trkpt>
      <trkpt lat="42.69781" lon="1.65493">
        <ele>1358</ele>
        <time>2018-11-18T09:47:40.000Z</time>
      </trkpt>
      <trkpt lat="42.69782" lon="1.65492">
        <ele>1358</ele>
        <time>2018-11-18T09:47:42.000Z</time>
      </trkpt>
      <trkpt lat="42.69781" lon="1.65492">
        <ele>1358</ele>
        <time>2018-11-18T09:47:44.000Z</time>
      </trkpt>
      <trkpt lat="42.69781" lon="1.65492">
        <ele>1358</ele>
        <time>2018-11-18T09:47:46.000Z</time>
      </trkpt>
      <trkpt lat="42.6978" lon="1.65492">
        <ele>1358</ele>
        <time>2018-11-18T09:47:48.000Z</time>
      </trkpt>
      <trkpt lat="42.6978" lon="1.65491">
        <ele>1357</ele>
        <time>2018-11-18T09:47:50.000Z</time>
      </trkpt>
      <trkpt lat="42.6978" lon="1.65491">
        <ele>1358</ele>
        <time>2018-11-18T09:47:52.000Z</time>
      </trkpt>
      <trkpt lat="42.69779" lon="1.65491">
        <ele>1357</ele>
        <time>2018-11-18T09:47:54.000Z</time>
      </trkpt>
      <trkpt lat="42.69779" lon="1.65491">
        <ele>1357</ele>
        <time>2018-11-18T09:47:56.000Z</time>
      </trkpt>
      <trkpt lat="42.69778" lon="1.65492">
        <ele>1357</ele>
        <time>2018-11-18T09:47:58.000Z</time>
      </trkpt>
      <trkpt lat="42.69777" lon="1.65491">
        <ele>1357</ele>
        <time>2018-11-18T09:48:00.000Z</time>
      </trkpt>
      <trkpt lat="42.69776" lon="1.6549">
        <ele>1357</ele>
        <time>2018-11-18T09:48:02.000Z</time>
      </trkpt>
      <trkpt lat="42.69776" lon="1.6549">
        <ele>1357</ele>
        <time>2018-11-18T09:48:04.000Z</time>
      </trkpt>
      <trkpt lat="42.69776" lon="1.6549">
        <ele>1357</ele>
        <time>2018-11-18T09:48:06.000Z</time>
      </trkpt>
      <trkpt lat="42.69776" lon="1.6549">
        <ele>1357</ele>
        <time>2018-11-18T09:48:08.000Z</time>
      </trkpt>
      <trkpt lat="42.69775" lon="1.65489">
        <ele>1357</ele>
        <time>2018-11-18T09:48:10.000Z</time>
      </trkpt>
      <trkpt lat="42.69775" lon="1.65489">
        <ele>1357</ele>
        <time>2018-11-18T09:48:12.000Z</time>
      </trkpt>
      <trkpt lat="42.69775" lon="1.65489">
        <ele>1356</ele>
        <time>2018-11-18T09:48:14.000Z</time>
      </trkpt>
      <trkpt lat="42.69774" lon="1.65489">
        <ele>1356</ele>
        <time>2018-11-18T09:48:16.000Z</time>
      </trkpt>
      <trkpt lat="42.69774" lon="1.65488">
        <ele>1356</ele>
        <time>2018-11-18T09:48:18.000Z</time>
      </trkpt>
      <trkpt lat="42.69774" lon="1.65488">
        <ele>1356</ele>
        <time>2018-11-18T09:48:20.000Z</time>
      </trkpt>
      <trkpt lat="42.69774" lon="1.65489">
        <ele>1356</ele>
        <time>2018-11-18T09:48:22.000Z</time>
      </trkpt>
      <trkpt lat="42.69772" lon="1.6549">
        <ele>1356</ele>
        <time>2018-11-18T09:48:24.000Z</time>
      </trkpt>
      <trkpt lat="42.69771" lon="1.65491">
        <ele>1355</ele>
        <time>2018-11-18T09:48:26.000Z</time>
      </trkpt>
      <trkpt lat="42.6977" lon="1.65491">
        <ele>1355</ele>
        <time>2018-11-18T09:48:28.000Z</time>
      </trkpt>
      <trkpt lat="42.69769" lon="1.65492">
        <ele>1354</ele>
        <time>2018-11-18T09:48:30.000Z</time>
      </trkpt>
      <trkpt lat="42.69767" lon="1.65493">
        <ele>1354</ele>
        <time>2018-11-18T09:48:32.000Z</time>
      </trkpt>
      <trkpt lat="42.69767" lon="1.65493">
        <ele>1354</ele>
        <time>2018-11-18T09:48:34.000Z</time>
      </trkpt>
      <trkpt lat="42.69766" lon="1.65493">
        <ele>1353</ele>
        <time>2018-11-18T09:48:36.000Z</time>
      </trkpt>
      <trkpt lat="42.69765" lon="1.65492">
        <ele>1353</ele>
        <time>2018-11-18T09:48:38.000Z</time>
      </trkpt>
      <trkpt lat="42.69764" lon="1.65491">
        <ele>1353</ele>
        <time>2018-11-18T09:48:40.000Z</time>
      </trkpt>
      <trkpt lat="42.69762" lon="1.65491">
        <ele>1353</ele>
        <time>2018-11-18T09:48:42.000Z</time>
      </trkpt>
      <trkpt lat="42.6976" lon="1.65491">
        <ele>1352</ele>
        <time>2018-11-18T09:48:44.000Z</time>
      </trkpt>
      <trkpt lat="42.69758" lon="1.65491">
        <ele>1352</ele>
        <time>2018-11-18T09:48:46.000Z</time>
      </trkpt>
      <trkpt lat="42.69755" lon="1.65491">
        <ele>1352</ele>
        <time>2018-11-18T09:48:48.000Z</time>
      </trkpt>
      <trkpt lat="42.69753" lon="1.65491">
        <ele>1351</ele>
        <time>2018-11-18T09:48:50.000Z</time>
      </trkpt>
      <trkpt lat="42.69752" lon="1.65491">
        <ele>1352</ele>
        <time>2018-11-18T09:48:52.000Z</time>
      </trkpt>
      <trkpt lat="42.69751" lon="1.65491">
        <ele>1352</ele>
        <time>2018-11-18T09:48:54.000Z</time>
      </trkpt>
      <trkpt lat="42.6975" lon="1.65492">
        <ele>1352</ele>
        <time>2018-11-18T09:48:56.000Z</time>
      </trkpt>
      <trkpt lat="42.6975" lon="1.65492">
        <ele>1352</ele>
        <time>2018-11-18T09:48:58.000Z</time>
      </trkpt>
      <trkpt lat="42.6975" lon="1.65493">
        <ele>1353</ele>
        <time>2018-11-18T09:49:00.000Z</time>
      </trkpt>
      <trkpt lat="42.6975" lon="1.65494">
        <ele>1353</ele>
        <time>2018-11-18T09:49:02.000Z</time>
      </trkpt>
      <trkpt lat="42.69748" lon="1.65494">
        <ele>1353</ele>
        <time>2018-11-18T09:49:04.000Z</time>
      </trkpt>
      <trkpt lat="42.69747" lon="1.65494">
        <ele>1354</ele>
        <time>2018-11-18T09:49:06.000Z</time>
      </trkpt>
      <trkpt lat="42.69746" lon="1.65494">
        <ele>1354</ele>
        <time>2018-11-18T09:49:08.000Z</time>
      </trkpt>
      <trkpt lat="42.69746" lon="1.65494">
        <ele>1354</ele>
        <time>2018-11-18T09:49:10.000Z</time>
      </trkpt>
      <trkpt lat="42.69746" lon="1.65495">
        <ele>1354</ele>
        <time>2018-11-18T09:49:12.000Z</time>
      </trkpt>
      <trkpt lat="42.69745" lon="1.65496">
        <ele>1354</ele>
        <time>2018-11-18T09:49:14.000Z</time>
      </trkpt>
      <trkpt lat="42.69745" lon="1.65498">
        <ele>1354</ele>
        <time>2018-11-18T09:49:16.000Z</time>
      </trkpt>
      <trkpt lat="42.69745" lon="1.65499">
        <ele>1355</ele>
        <time>2018-11-18T09:49:18.000Z</time>
      </trkpt>
      <trkpt lat="42.69745" lon="1.65499">
        <ele>1354</ele>
        <time>2018-11-18T09:49:20.000Z</time>
      </trkpt>
      <trkpt lat="42.69746" lon="1.65498">
        <ele>1354</ele>
        <time>2018-11-18T09:49:22.000Z</time>
      </trkpt>
      <trkpt lat="42.69746" lon="1.65496">
        <ele>1354</ele>
        <time>2018-11-18T09:49:24.000Z</time>
      </trkpt>
      <trkpt lat="42.69745" lon="1.65495">
        <ele>1354</ele>
        <time>2018-11-18T09:49:26.000Z</time>
      </trkpt>
      <trkpt lat="42.69745" lon="1.65494">
        <ele>1354</ele>
        <time>2018-11-18T09:49:28.000Z</time>
      </trkpt>
      <trkpt lat="42.69745" lon="1.65495">
        <ele>1354</ele>
        <time>2018-11-18T09:49:30.000Z</time>
      </trkpt>
      <trkpt lat="42.69744" lon="1.65495">
        <ele>1355</ele>
        <time>2018-11-18T09:49:32.000Z</time>
      </trkpt>
      <trkpt lat="42.69744" lon="1.65495">
        <ele>1355</ele>
        <time>2018-11-18T09:49:34.000Z</time>
      </trkpt>
      <trkpt lat="42.69744" lon="1.65494">
        <ele>1354</ele>
        <time>2018-11-18T09:49:36.000Z</time>
      </trkpt>
      <trkpt lat="42.69744" lon="1.65494">
        <ele>1354</ele>
        <time>2018-11-18T09:49:38.000Z</time>
      </trkpt>
      <trkpt lat="42.69744" lon="1.65493">
        <ele>1354</ele>
        <time>2018-11-18T09:49:40.000Z</time>
      </trkpt>
      <trkpt lat="42.69745" lon="1.65491">
        <ele>1354</ele>
        <time>2018-11-18T09:49:42.000Z</time>
      </trkpt>
      <trkpt lat="42.69745" lon="1.65489">
        <ele>1354</ele>
        <time>2018-11-18T09:49:44.000Z</time>
      </trkpt>
      <trkpt lat="42.69746" lon="1.65488">
        <ele>1353</ele>
        <time>2018-11-18T09:49:46.000Z</time>
      </trkpt>
      <trkpt lat="42.69746" lon="1.65488">
        <ele>1353</ele>
        <time>2018-11-18T09:49:48.000Z</time>
      </trkpt>
      <trkpt lat="42.69746" lon="1.65488">
        <ele>1353</ele>
        <time>2018-11-18T09:49:50.000Z</time>
      </trkpt>
      <trkpt lat="42.69746" lon="1.6549">
        <ele>1353</ele>
        <time>2018-11-18T09:49:52.000Z</time>
      </trkpt>
      <trkpt lat="42.69747" lon="1.6549">
        <ele>1353</ele>
        <time>2018-11-18T09:49:54.000Z</time>
      </trkpt>
      <trkpt lat="42.69747" lon="1.65491">
        <ele>1353</ele>
        <time>2018-11-18T09:49:56.000Z</time>
      </trkpt>
      <trkpt lat="42.69747" lon="1.65491">
        <ele>1353</ele>
        <time>2018-11-18T09:49:58.000Z</time>
      </trkpt>
      <trkpt lat="42.69747" lon="1.65492">
        <ele>1353</ele>
        <time>2018-11-18T09:50:00.000Z</time>
      </trkpt>
      <trkpt lat="42.69747" lon="1.65493">
        <ele>1354</ele>
        <time>2018-11-18T09:50:02.000Z</time>
      </trkpt>
      <trkpt lat="42.69747" lon="1.65493">
        <ele>1353</ele>
        <time>2018-11-18T09:50:04.000Z</time>
      </trkpt>
      <trkpt lat="42.69748" lon="1.65492">
        <ele>1353</ele>
        <time>2018-11-18T09:50:06.000Z</time>
      </trkpt>
      <trkpt lat="42.69749" lon="1.65493">
        <ele>1353</ele>
        <time>2018-11-18T09:50:08.000Z</time>
      </trkpt>
      <trkpt lat="42.6975" lon="1.65493">
        <ele>1353</ele>
        <time>2018-11-18T09:50:10.000Z</time>
      </trkpt>
      <trkpt lat="42.69752" lon="1.65494">
        <ele>1352</ele>
        <time>2018-11-18T09:50:12.000Z</time>
      </trkpt>
      <trkpt lat="42.69753" lon="1.65493">
        <ele>1352</ele>
        <time>2018-11-18T09:50:14.000Z</time>
      </trkpt>
      <trkpt lat="42.69755" lon="1.65491">
        <ele>1352</ele>
        <time>2018-11-18T09:50:16.000Z</time>
      </trkpt>
      <trkpt lat="42.69756" lon="1.65491">
        <ele>1352</ele>
        <time>2018-11-18T09:50:18.000Z</time>
      </trkpt>
      <trkpt lat="42.69756" lon="1.6549">
        <ele>1351</ele>
        <time>2018-11-18T09:50:20.000Z</time>
      </trkpt>
      <trkpt lat="42.69756" lon="1.65491">
        <ele>1351</ele>
        <time>2018-11-18T09:50:22.000Z</time>
      </trkpt>
      <trkpt lat="42.69756" lon="1.65491">
        <ele>1352</ele>
        <time>2018-11-18T09:50:24.000Z</time>
      </trkpt>
      <trkpt lat="42.69756" lon="1.65492">
        <ele>1352</ele>
        <time>2018-11-18T09:50:26.000Z</time>
      </trkpt>
      <trkpt lat="42.69756" lon="1.65493">
        <ele>1352</ele>
        <time>2018-11-18T09:50:28.000Z</time>
      </trkpt>
      <trkpt lat="42.69756" lon="1.65494">
        <ele>1352</ele>
        <time>2018-11-18T09:50:30.000Z</time>
      </trkpt>
      <trkpt lat="42.69756" lon="1.65494">
        <ele>1352</ele>
        <time>2018-11-18T09:50:32.000Z</time>
      </trkpt>
      <trkpt lat="42.69756" lon="1.65493">
        <ele>1352</ele>
        <time>2018-11-18T09:50:34.000Z</time>
      </trkpt>
      <trkpt lat="42.69756" lon="1.65492">
        <ele>1352</ele>
        <time>2018-11-18T09:50:36.000Z</time>
      </trkpt>
      <trkpt lat="42.69755" lon="1.65493">
        <ele>1352</ele>
        <time>2018-11-18T09:50:38.000Z</time>
      </trkpt>
      <trkpt lat="42.69754" lon="1.65494">
        <ele>1352</ele>
        <time>2018-11-18T09:50:40.000Z</time>
      </trkpt>
      <trkpt lat="42.69753" lon="1.65495">
        <ele>1352</ele>
        <time>2018-11-18T09:50:42.000Z</time>
      </trkpt>
      <trkpt lat="42.69752" lon="1.65495">
        <ele>1352</ele>
        <time>2018-11-18T09:50:44.000Z</time>
      </trkpt>
      <trkpt lat="42.69752" lon="1.65496">
        <ele>1352</ele>
        <time>2018-11-18T09:50:46.000Z</time>
      </trkpt>
      <trkpt lat="42.69753" lon="1.65495">
        <ele>1352</ele>
        <time>2018-11-18T09:50:48.000Z</time>
      </trkpt>
      <trkpt lat="42.69753" lon="1.65494">
        <ele>1352</ele>
        <time>2018-11-18T09:50:50.000Z</time>
      </trkpt>
      <trkpt lat="42.69753" lon="1.65493">
        <ele>1352</ele>
        <time>2018-11-18T09:50:52.000Z</time>
      </trkpt>
      <trkpt lat="42.69753" lon="1.65492">
        <ele>1352</ele>
        <time>2018-11-18T09:50:54.000Z</time>
      </trkpt>
      <trkpt lat="42.69752" lon="1.65493">
        <ele>1352</ele>
        <time>2018-11-18T09:50:56.000Z</time>
      </trkpt>
      <trkpt lat="42.69752" lon="1.65493">
        <ele>1352</ele>
        <time>2018-11-18T09:50:58.000Z</time>
      </trkpt>
      <trkpt lat="42.69752" lon="1.65492">
        <ele>1352</ele>
        <time>2018-11-18T09:51:00.000Z</time>
      </trkpt>
      <trkpt lat="42.69751" lon="1.65491">
        <ele>1352</ele>
        <time>2018-11-18T09:51:02.000Z</time>
      </trkpt>
      <trkpt lat="42.69751" lon="1.65491">
        <ele>1352</ele>
        <time>2018-11-18T09:51:04.000Z</time>
      </trkpt>
      <trkpt lat="42.69751" lon="1.6549">
        <ele>1352</ele>
        <time>2018-11-18T09:51:06.000Z</time>
      </trkpt>
      <trkpt lat="42.69751" lon="1.65491">
        <ele>1352</ele>
        <time>2018-11-18T09:51:08.000Z</time>
      </trkpt>
      <trkpt lat="42.69751" lon="1.65491">
        <ele>1352</ele>
        <time>2018-11-18T09:51:10.000Z</time>
      </trkpt>
      <trkpt lat="42.6975" lon="1.65491">
        <ele>1352</ele>
        <time>2018-11-18T09:51:12.000Z</time>
      </trkpt>
      <trkpt lat="42.6975" lon="1.65491">
        <ele>1352</ele>
        <time>2018-11-18T09:51:14.000Z</time>
      </trkpt>
      <trkpt lat="42.69751" lon="1.65492">
        <ele>1352</ele>
        <time>2018-11-18T09:51:16.000Z</time>
      </trkpt>
      <trkpt lat="42.69751" lon="1.65491">
        <ele>1352</ele>
        <time>2018-11-18T09:51:18.000Z</time>
      </trkpt>
      <trkpt lat="42.69751" lon="1.6549">
        <ele>1352</ele>
        <time>2018-11-18T09:51:20.000Z</time>
      </trkpt>
      <trkpt lat="42.69752" lon="1.65491">
        <ele>1352</ele>
        <time>2018-11-18T09:51:22.000Z</time>
      </trkpt>
      <trkpt lat="42.69752" lon="1.65492">
        <ele>1352</ele>
        <time>2018-11-18T09:51:24.000Z</time>
      </trkpt>
      <trkpt lat="42.69751" lon="1.65493">
        <ele>1352</ele>
        <time>2018-11-18T09:51:26.000Z</time>
      </trkpt>
      <trkpt lat="42.69749" lon="1.65493">
        <ele>1353</ele>
        <time>2018-11-18T09:51:28.000Z</time>
      </trkpt>
      <trkpt lat="42.69748" lon="1.65493">
        <ele>1353</ele>
        <time>2018-11-18T09:51:30.000Z</time>
      </trkpt>
      <trkpt lat="42.69747" lon="1.65493">
        <ele>1353</ele>
        <time>2018-11-18T09:51:32.000Z</time>
      </trkpt>
      <trkpt lat="42.69747" lon="1.65492">
        <ele>1353</ele>
        <time>2018-11-18T09:51:34.000Z</time>
      </trkpt>
      <trkpt lat="42.69748" lon="1.65492">
        <ele>1353</ele>
        <time>2018-11-18T09:51:36.000Z</time>
      </trkpt>
      <trkpt lat="42.69747" lon="1.65493">
        <ele>1353</ele>
        <time>2018-11-18T09:51:38.000Z</time>
      </trkpt>
      <trkpt lat="42.69747" lon="1.6549">
        <ele>1353</ele>
        <time>2018-11-18T09:51:40.000Z</time>
      </trkpt>
      <trkpt lat="42.69747" lon="1.6549">
        <ele>1353</ele>
        <time>2018-11-18T09:51:42.000Z</time>
      </trkpt>
      <trkpt lat="42.69747" lon="1.65492">
        <ele>1353</ele>
        <time>2018-11-18T09:51:44.000Z</time>
      </trkpt>
      <trkpt lat="42.69748" lon="1.65489">
        <ele>1353</ele>
        <time>2018-11-18T09:51:46.000Z</time>
      </trkpt>
      <trkpt lat="42.69748" lon="1.65489">
        <ele>1353</ele>
        <time>2018-11-18T09:51:48.000Z</time>
      </trkpt>
      <trkpt lat="42.69749" lon="1.65488">
        <ele>1353</ele>
        <time>2018-11-18T09:51:50.000Z</time>
      </trkpt>
      <trkpt lat="42.69749" lon="1.65488">
        <ele>1352</ele>
        <time>2018-11-18T09:51:52.000Z</time>
      </trkpt>
      <trkpt lat="42.69749" lon="1.65485">
        <ele>1352</ele>
        <time>2018-11-18T09:51:54.000Z</time>
      </trkpt>
      <trkpt lat="42.6975" lon="1.65484">
        <ele>1352</ele>
        <time>2018-11-18T09:51:56.000Z</time>
      </trkpt>
      <trkpt lat="42.69752" lon="1.65486">
        <ele>1352</ele>
        <time>2018-11-18T09:51:58.000Z</time>
      </trkpt>
      <trkpt lat="42.69753" lon="1.65486">
        <ele>1351</ele>
        <time>2018-11-18T09:52:00.000Z</time>
      </trkpt>
      <trkpt lat="42.69754" lon="1.65486">
        <ele>1351</ele>
        <time>2018-11-18T09:52:02.000Z</time>
      </trkpt>
      <trkpt lat="42.69756" lon="1.65486">
        <ele>1352</ele>
        <time>2018-11-18T09:52:04.000Z</time>
      </trkpt>
      <trkpt lat="42.69756" lon="1.65486">
        <ele>1352</ele>
        <time>2018-11-18T09:52:06.000Z</time>
      </trkpt>
      <trkpt lat="42.69756" lon="1.65487">
        <ele>1352</ele>
        <time>2018-11-18T09:52:08.000Z</time>
      </trkpt>
      <trkpt lat="42.69756" lon="1.65486">
        <ele>1352</ele>
        <time>2018-11-18T09:52:10.000Z</time>
      </trkpt>
      <trkpt lat="42.69757" lon="1.65484">
        <ele>1353</ele>
        <time>2018-11-18T09:52:12.000Z</time>
      </trkpt>
      <trkpt lat="42.69758" lon="1.65483">
        <ele>1353</ele>
        <time>2018-11-18T09:52:14.000Z</time>
      </trkpt>
      <trkpt lat="42.69758" lon="1.65482">
        <ele>1354</ele>
        <time>2018-11-18T09:52:16.000Z</time>
      </trkpt>
      <trkpt lat="42.69758" lon="1.65482">
        <ele>1354</ele>
        <time>2018-11-18T09:52:18.000Z</time>
      </trkpt>
      <trkpt lat="42.69759" lon="1.65481">
        <ele>1354</ele>
        <time>2018-11-18T09:52:20.000Z</time>
      </trkpt>
      <trkpt lat="42.6976" lon="1.65482">
        <ele>1354</ele>
        <time>2018-11-18T09:52:22.000Z</time>
      </trkpt>
      <trkpt lat="42.69761" lon="1.65483">
        <ele>1354</ele>
        <time>2018-11-18T09:52:24.000Z</time>
      </trkpt>
      <trkpt lat="42.69762" lon="1.65484">
        <ele>1354</ele>
        <time>2018-11-18T09:52:26.000Z</time>
      </trkpt>
      <trkpt lat="42.69763" lon="1.65485">
        <ele>1354</ele>
        <time>2018-11-18T09:52:28.000Z</time>
      </trkpt>
      <trkpt lat="42.69762" lon="1.65487">
        <ele>1353</ele>
        <time>2018-11-18T09:52:30.000Z</time>
      </trkpt>
      <trkpt lat="42.69763" lon="1.65488">
        <ele>1353</ele>
        <time>2018-11-18T09:52:32.000Z</time>
      </trkpt>
      <trkpt lat="42.69763" lon="1.65489">
        <ele>1353</ele>
        <time>2018-11-18T09:52:34.000Z</time>
      </trkpt>
      <trkpt lat="42.69762" lon="1.65491">
        <ele>1353</ele>
        <time>2018-11-18T09:52:36.000Z</time>
      </trkpt>
      <trkpt lat="42.69762" lon="1.65491">
        <ele>1353</ele>
        <time>2018-11-18T09:52:38.000Z</time>
      </trkpt>
      <trkpt lat="42.69763" lon="1.65492">
        <ele>1353</ele>
        <time>2018-11-18T09:52:40.000Z</time>
      </trkpt>
      <trkpt lat="42.69764" lon="1.65493">
        <ele>1353</ele>
        <time>2018-11-18T09:52:42.000Z</time>
      </trkpt>
      <trkpt lat="42.69764" lon="1.65493">
        <ele>1353</ele>
        <time>2018-11-18T09:52:44.000Z</time>
      </trkpt>
      <trkpt lat="42.69764" lon="1.65494">
        <ele>1353</ele>
        <time>2018-11-18T09:52:46.000Z</time>
      </trkpt>
      <trkpt lat="42.69761" lon="1.65494">
        <ele>1352</ele>
        <time>2018-11-18T09:52:48.000Z</time>
      </trkpt>
      <trkpt lat="42.69761" lon="1.65495">
        <ele>1352</ele>
        <time>2018-11-18T09:52:50.000Z</time>
      </trkpt>
      <trkpt lat="42.6976" lon="1.65496">
        <ele>1352</ele>
        <time>2018-11-18T09:52:52.000Z</time>
      </trkpt>
      <trkpt lat="42.6976" lon="1.65497">
        <ele>1352</ele>
        <time>2018-11-18T09:52:54.000Z</time>
      </trkpt>
      <trkpt lat="42.69758" lon="1.65498">
        <ele>1352</ele>
        <time>2018-11-18T09:52:56.000Z</time>
      </trkpt>
      <trkpt lat="42.69757" lon="1.65499">
        <ele>1352</ele>
        <time>2018-11-18T09:52:58.000Z</time>
      </trkpt>
      <trkpt lat="42.69757" lon="1.65502">
        <ele>1352</ele>
        <time>2018-11-18T09:53:00.000Z</time>
      </trkpt>
      <trkpt lat="42.69757" lon="1.65505">
        <ele>1353</ele>
        <time>2018-11-18T09:53:02.000Z</time>
      </trkpt>
      <trkpt lat="42.69756" lon="1.65506">
        <ele>1353</ele>
        <time>2018-11-18T09:53:04.000Z</time>
      </trkpt>
      <trkpt lat="42.69755" lon="1.65512">
        <ele>1353</ele>
        <time>2018-11-18T09:53:06.000Z</time>
      </trkpt>
      <trkpt lat="42.69754" lon="1.65514">
        <ele>1353</ele>
        <time>2018-11-18T09:53:08.000Z</time>
      </trkpt>
      <trkpt lat="42.69755" lon="1.65516">
        <ele>1354</ele>
        <time>2018-11-18T09:53:10.000Z</time>
      </trkpt>
      <trkpt lat="42.69756" lon="1.65518">
        <ele>1354</ele>
        <time>2018-11-18T09:53:12.000Z</time>
      </trkpt>
      <trkpt lat="42.69758" lon="1.6552">
        <ele>1354</ele>
        <time>2018-11-18T09:53:14.000Z</time>
      </trkpt>
      <trkpt lat="42.69758" lon="1.65521">
        <ele>1354</ele>
        <time>2018-11-18T09:53:16.000Z</time>
      </trkpt>
      <trkpt lat="42.6976" lon="1.65523">
        <ele>1354</ele>
        <time>2018-11-18T09:53:18.000Z</time>
      </trkpt>
      <trkpt lat="42.69762" lon="1.65525">
        <ele>1355</ele>
        <time>2018-11-18T09:53:20.000Z</time>
      </trkpt>
      <trkpt lat="42.69762" lon="1.65525">
        <ele>1355</ele>
        <time>2018-11-18T09:53:22.000Z</time>
      </trkpt>
      <trkpt lat="42.69762" lon="1.65526">
        <ele>1355</ele>
        <time>2018-11-18T09:53:24.000Z</time>
      </trkpt>
      <trkpt lat="42.69762" lon="1.65525">
        <ele>1355</ele>
        <time>2018-11-18T09:53:26.000Z</time>
      </trkpt>
      <trkpt lat="42.69762" lon="1.65523">
        <ele>1355</ele>
        <time>2018-11-18T09:53:28.000Z</time>
      </trkpt>
      <trkpt lat="42.69762" lon="1.6552">
        <ele>1354</ele>
        <time>2018-11-18T09:53:30.000Z</time>
      </trkpt>
      <trkpt lat="42.69762" lon="1.65518">
        <ele>1354</ele>
        <time>2018-11-18T09:53:32.000Z</time>
      </trkpt>
      <trkpt lat="42.69761" lon="1.65517">
        <ele>1354</ele>
        <time>2018-11-18T09:53:34.000Z</time>
      </trkpt>
      <trkpt lat="42.69762" lon="1.65515">
        <ele>1354</ele>
        <time>2018-11-18T09:53:36.000Z</time>
      </trkpt>
      <trkpt lat="42.69761" lon="1.65515">
        <ele>1354</ele>
        <time>2018-11-18T09:53:38.000Z</time>
      </trkpt>
      <trkpt lat="42.69759" lon="1.65515">
        <ele>1354</ele>
        <time>2018-11-18T09:53:40.000Z</time>
      </trkpt>
      <trkpt lat="42.69758" lon="1.65515">
        <ele>1354</ele>
        <time>2018-11-18T09:53:42.000Z</time>
      </trkpt>
      <trkpt lat="42.69756" lon="1.65515">
        <ele>1354</ele>
        <time>2018-11-18T09:53:44.000Z</time>
      </trkpt>
      <trkpt lat="42.69755" lon="1.65515">
        <ele>1354</ele>
        <time>2018-11-18T09:53:46.000Z</time>
      </trkpt>
      <trkpt lat="42.69754" lon="1.65514">
        <ele>1353</ele>
        <time>2018-11-18T09:53:48.000Z</time>
      </trkpt>
      <trkpt lat="42.69752" lon="1.65515">
        <ele>1354</ele>
        <time>2018-11-18T09:53:50.000Z</time>
      </trkpt>
      <trkpt lat="42.6975" lon="1.65515">
        <ele>1354</ele>
        <time>2018-11-18T09:53:52.000Z</time>
      </trkpt>
      <trkpt lat="42.69748" lon="1.65515">
        <ele>1355</ele>
        <time>2018-11-18T09:53:54.000Z</time>
      </trkpt>
      <trkpt lat="42.69746" lon="1.65514">
        <ele>1355</ele>
        <time>2018-11-18T09:53:56.000Z</time>
      </trkpt>
      <trkpt lat="42.69745" lon="1.65514">
        <ele>1356</ele>
        <time>2018-11-18T09:53:58.000Z</time>
      </trkpt>
      <trkpt lat="42.69743" lon="1.65514">
        <ele>1356</ele>
        <time>2018-11-18T09:54:00.000Z</time>
      </trkpt>
      <trkpt lat="42.69742" lon="1.65514">
        <ele>1357</ele>
        <time>2018-11-18T09:54:02.000Z</time>
      </trkpt>
      <trkpt lat="42.6974" lon="1.65515">
        <ele>1357</ele>
        <time>2018-11-18T09:54:04.000Z</time>
      </trkpt>
      <trkpt lat="42.69739" lon="1.65515">
        <ele>1358</ele>
        <time>2018-11-18T09:54:06.000Z</time>
      </trkpt>
      <trkpt lat="42.69738" lon="1.65516">
        <ele>1358</ele>
        <time>2018-11-18T09:54:08.000Z</time>
      </trkpt>
      <trkpt lat="42.69738" lon="1.65515">
        <ele>1358</ele>
        <time>2018-11-18T09:54:10.000Z</time>
      </trkpt>
      <trkpt lat="42.69737" lon="1.65515">
        <ele>1358</ele>
        <time>2018-11-18T09:54:12.000Z</time>
      </trkpt>
      <trkpt lat="42.69738" lon="1.65515">
        <ele>1358</ele>
        <time>2018-11-18T09:54:14.000Z</time>
      </trkpt>
      <trkpt lat="42.69738" lon="1.65514">
        <ele>1358</ele>
        <time>2018-11-18T09:54:16.000Z</time>
      </trkpt>
      <trkpt lat="42.69739" lon="1.65514">
        <ele>1358</ele>
        <time>2018-11-18T09:54:18.000Z</time>
      </trkpt>
      <trkpt lat="42.69739" lon="1.65514">
        <ele>1358</ele>
        <time>2018-11-18T09:54:20.000Z</time>
      </trkpt>
      <trkpt lat="42.69738" lon="1.65515">
        <ele>1358</ele>
        <time>2018-11-18T09:54:22.000Z</time>
      </trkpt>
      <trkpt lat="42.69738" lon="1.65515">
        <ele>1358</ele>
        <time>2018-11-18T09:54:24.000Z</time>
      </trkpt>
      <trkpt lat="42.69737" lon="1.65516">
        <ele>1358</ele>
        <time>2018-11-18T09:54:26.000Z</time>
      </trkpt>
      <trkpt lat="42.69737" lon="1.65515">
        <ele>1358</ele>
        <time>2018-11-18T09:54:28.000Z</time>
      </trkpt>
      <trkpt lat="42.69737" lon="1.65515">
        <ele>1358</ele>
        <time>2018-11-18T09:54:30.000Z</time>
      </trkpt>
      <trkpt lat="42.69736" lon="1.65513">
        <ele>1358</ele>
        <time>2018-11-18T09:54:32.000Z</time>
      </trkpt>
      <trkpt lat="42.69734" lon="1.65512">
        <ele>1359</ele>
        <time>2018-11-18T09:54:34.000Z</time>
      </trkpt>
      <trkpt lat="42.69734" lon="1.65511">
        <ele>1359</ele>
        <time>2018-11-18T09:54:36.000Z</time>
      </trkpt>
      <trkpt lat="42.69732" lon="1.65509">
        <ele>1359</ele>
        <time>2018-11-18T09:54:38.000Z</time>
      </trkpt>
      <trkpt lat="42.69731" lon="1.65508">
        <ele>1359</ele>
        <time>2018-11-18T09:54:40.000Z</time>
      </trkpt>
      <trkpt lat="42.69731" lon="1.65507">
        <ele>1360</ele>
        <time>2018-11-18T09:54:42.000Z</time>
      </trkpt>
      <trkpt lat="42.69729" lon="1.65507">
        <ele>1360</ele>
        <time>2018-11-18T09:54:44.000Z</time>
      </trkpt>
      <trkpt lat="42.69728" lon="1.65505">
        <ele>1360</ele>
        <time>2018-11-18T09:54:46.000Z</time>
      </trkpt>
      <trkpt lat="42.69726" lon="1.65504">
        <ele>1361</ele>
        <time>2018-11-18T09:54:48.000Z</time>
      </trkpt>
      <trkpt lat="42.69725" lon="1.65503">
        <ele>1361</ele>
        <time>2018-11-18T09:54:50.000Z</time>
      </trkpt>
      <trkpt lat="42.69723" lon="1.65506">
        <ele>1362</ele>
        <time>2018-11-18T09:54:52.000Z</time>
      </trkpt>
      <trkpt lat="42.69722" lon="1.65503">
        <ele>1362</ele>
        <time>2018-11-18T09:54:54.000Z</time>
      </trkpt>
      <trkpt lat="42.69721" lon="1.65501">
        <ele>1362</ele>
        <time>2018-11-18T09:54:56.000Z</time>
      </trkpt>
      <trkpt lat="42.6972" lon="1.65499">
        <ele>1362</ele>
        <time>2018-11-18T09:54:58.000Z</time>
      </trkpt>
      <trkpt lat="42.69718" lon="1.65497">
        <ele>1363</ele>
        <time>2018-11-18T09:55:00.000Z</time>
      </trkpt>
      <trkpt lat="42.69717" lon="1.65496">
        <ele>1363</ele>
        <time>2018-11-18T09:55:02.000Z</time>
      </trkpt>
      <trkpt lat="42.69716" lon="1.65496">
        <ele>1363</ele>
        <time>2018-11-18T09:55:04.000Z</time>
      </trkpt>
      <trkpt lat="42.69715" lon="1.65496">
        <ele>1363</ele>
        <time>2018-11-18T09:55:06.000Z</time>
      </trkpt>
      <trkpt lat="42.69713" lon="1.65495">
        <ele>1364</ele>
        <time>2018-11-18T09:55:08.000Z</time>
      </trkpt>
      <trkpt lat="42.69713" lon="1.65494">
        <ele>1364</ele>
        <time>2018-11-18T09:55:10.000Z</time>
      </trkpt>
      <trkpt lat="42.69712" lon="1.65494">
        <ele>1364</ele>
        <time>2018-11-18T09:55:12.000Z</time>
      </trkpt>
      <trkpt lat="42.69711" lon="1.65494">
        <ele>1364</ele>
        <time>2018-11-18T09:55:14.000Z</time>
      </trkpt>
      <trkpt lat="42.6971" lon="1.65495">
        <ele>1365</ele>
        <time>2018-11-18T09:55:16.000Z</time>
      </trkpt>
      <trkpt lat="42.69709" lon="1.65495">
        <ele>1365</ele>
        <time>2018-11-18T09:55:18.000Z</time>
      </trkpt>
      <trkpt lat="42.69708" lon="1.65495">
        <ele>1365</ele>
        <time>2018-11-18T09:55:20.000Z</time>
      </trkpt>
      <trkpt lat="42.69707" lon="1.65495">
        <ele>1366</ele>
        <time>2018-11-18T09:55:22.000Z</time>
      </trkpt>
      <trkpt lat="42.69706" lon="1.65495">
        <ele>1366</ele>
        <time>2018-11-18T09:55:24.000Z</time>
      </trkpt>
      <trkpt lat="42.69705" lon="1.65495">
        <ele>1366</ele>
        <time>2018-11-18T09:55:26.000Z</time>
      </trkpt>
      <trkpt lat="42.69703" lon="1.65495">
        <ele>1367</ele>
        <time>2018-11-18T09:55:28.000Z</time>
      </trkpt>
      <trkpt lat="42.69702" lon="1.65494">
        <ele>1367</ele>
        <time>2018-11-18T09:55:30.000Z</time>
      </trkpt>
      <trkpt lat="42.697" lon="1.65495">
        <ele>1368</ele>
        <time>2018-11-18T09:55:32.000Z</time>
      </trkpt>
      <trkpt lat="42.69699" lon="1.65495">
        <ele>1368</ele>
        <time>2018-11-18T09:55:34.000Z</time>
      </trkpt>
      <trkpt lat="42.69698" lon="1.65495">
        <ele>1368</ele>
        <time>2018-11-18T09:55:36.000Z</time>
      </trkpt>
      <trkpt lat="42.69696" lon="1.65495">
        <ele>1369</ele>
        <time>2018-11-18T09:55:38.000Z</time>
      </trkpt>
      <trkpt lat="42.69695" lon="1.65496">
        <ele>1369</ele>
        <time>2018-11-18T09:55:40.000Z</time>
      </trkpt>
      <trkpt lat="42.69694" lon="1.65495">
        <ele>1369</ele>
        <time>2018-11-18T09:55:42.000Z</time>
      </trkpt>
      <trkpt lat="42.69694" lon="1.65495">
        <ele>1370</ele>
        <time>2018-11-18T09:55:44.000Z</time>
      </trkpt>
      <trkpt lat="42.69694" lon="1.65493">
        <ele>1369</ele>
        <time>2018-11-18T09:55:46.000Z</time>
      </trkpt>
      <trkpt lat="42.69695" lon="1.6549">
        <ele>1369</ele>
        <time>2018-11-18T09:55:48.000Z</time>
      </trkpt>
      <trkpt lat="42.69695" lon="1.65487">
        <ele>1368</ele>
        <time>2018-11-18T09:55:50.000Z</time>
      </trkpt>
      <trkpt lat="42.69695" lon="1.65484">
        <ele>1368</ele>
        <time>2018-11-18T09:55:52.000Z</time>
      </trkpt>
      <trkpt lat="42.69695" lon="1.65485">
        <ele>1368</ele>
        <time>2018-11-18T09:55:54.000Z</time>
      </trkpt>
      <trkpt lat="42.69693" lon="1.65486">
        <ele>1369</ele>
        <time>2018-11-18T09:55:56.000Z</time>
      </trkpt>
      <trkpt lat="42.69692" lon="1.65486">
        <ele>1370</ele>
        <time>2018-11-18T09:55:58.000Z</time>
      </trkpt>
      <trkpt lat="42.6969" lon="1.65487">
        <ele>1370</ele>
        <time>2018-11-18T09:56:00.000Z</time>
      </trkpt>
      <trkpt lat="42.69689" lon="1.65487">
        <ele>1370</ele>
        <time>2018-11-18T09:56:02.000Z</time>
      </trkpt>
      <trkpt lat="42.69688" lon="1.65487">
        <ele>1371</ele>
        <time>2018-11-18T09:56:04.000Z</time>
      </trkpt>
      <trkpt lat="42.69687" lon="1.65488">
        <ele>1371</ele>
        <time>2018-11-18T09:56:06.000Z</time>
      </trkpt>
      <trkpt lat="42.69684" lon="1.65488">
        <ele>1372</ele>
        <time>2018-11-18T09:56:08.000Z</time>
      </trkpt>
      <trkpt lat="42.69683" lon="1.65487">
        <ele>1372</ele>
        <time>2018-11-18T09:56:10.000Z</time>
      </trkpt>
      <trkpt lat="42.69682" lon="1.65487">
        <ele>1372</ele>
        <time>2018-11-18T09:56:12.000Z</time>
      </trkpt>
      <trkpt lat="42.69681" lon="1.65487">
        <ele>1373</ele>
        <time>2018-11-18T09:56:14.000Z</time>
      </trkpt>
      <trkpt lat="42.69681" lon="1.65487">
        <ele>1373</ele>
        <time>2018-11-18T09:56:16.000Z</time>
      </trkpt>
      <trkpt lat="42.69681" lon="1.65486">
        <ele>1373</ele>
        <time>2018-11-18T09:56:18.000Z</time>
      </trkpt>
      <trkpt lat="42.6968" lon="1.65486">
        <ele>1373</ele>
        <time>2018-11-18T09:56:20.000Z</time>
      </trkpt>
      <trkpt lat="42.69679" lon="1.65486">
        <ele>1373</ele>
        <time>2018-11-18T09:56:22.000Z</time>
      </trkpt>
      <trkpt lat="42.69678" lon="1.65484">
        <ele>1373</ele>
        <time>2018-11-18T09:56:24.000Z</time>
      </trkpt>
      <trkpt lat="42.69678" lon="1.65484">
        <ele>1373</ele>
        <time>2018-11-18T09:56:26.000Z</time>
      </trkpt>
      <trkpt lat="42.69678" lon="1.65482">
        <ele>1373</ele>
        <time>2018-11-18T09:56:28.000Z</time>
      </trkpt>
      <trkpt lat="42.69676" lon="1.65482">
        <ele>1374</ele>
        <time>2018-11-18T09:56:30.000Z</time>
      </trkpt>
      <trkpt lat="42.69674" lon="1.65483">
        <ele>1374</ele>
        <time>2018-11-18T09:56:32.000Z</time>
      </trkpt>
      <trkpt lat="42.69672" lon="1.65482">
        <ele>1375</ele>
        <time>2018-11-18T09:56:34.000Z</time>
      </trkpt>
      <trkpt lat="42.69671" lon="1.65482">
        <ele>1375</ele>
        <time>2018-11-18T09:56:36.000Z</time>
      </trkpt>
      <trkpt lat="42.69669" lon="1.65482">
        <ele>1376</ele>
        <time>2018-11-18T09:56:38.000Z</time>
      </trkpt>
      <trkpt lat="42.69669" lon="1.65479">
        <ele>1375</ele>
        <time>2018-11-18T09:56:40.000Z</time>
      </trkpt>
      <trkpt lat="42.69668" lon="1.6548">
        <ele>1375</ele>
        <time>2018-11-18T09:56:42.000Z</time>
      </trkpt>
      <trkpt lat="42.69668" lon="1.6548">
        <ele>1376</ele>
        <time>2018-11-18T09:56:44.000Z</time>
      </trkpt>
      <trkpt lat="42.69668" lon="1.65477">
        <ele>1375</ele>
        <time>2018-11-18T09:56:46.000Z</time>
      </trkpt>
      <trkpt lat="42.69667" lon="1.65476">
        <ele>1375</ele>
        <time>2018-11-18T09:56:48.000Z</time>
      </trkpt>
      <trkpt lat="42.69667" lon="1.65477">
        <ele>1375</ele>
        <time>2018-11-18T09:56:50.000Z</time>
      </trkpt>
      <trkpt lat="42.69666" lon="1.65475">
        <ele>1375</ele>
        <time>2018-11-18T09:56:52.000Z</time>
      </trkpt>
      <trkpt lat="42.69666" lon="1.65475">
        <ele>1375</ele>
        <time>2018-11-18T09:56:54.000Z</time>
      </trkpt>
      <trkpt lat="42.69665" lon="1.65475">
        <ele>1375</ele>
        <time>2018-11-18T09:56:56.000Z</time>
      </trkpt>
      <trkpt lat="42.69664" lon="1.65475">
        <ele>1376</ele>
        <time>2018-11-18T09:56:58.000Z</time>
      </trkpt>
      <trkpt lat="42.69662" lon="1.65476">
        <ele>1376</ele>
        <time>2018-11-18T09:57:00.000Z</time>
      </trkpt>
      <trkpt lat="42.69662" lon="1.65479">
        <ele>1377</ele>
        <time>2018-11-18T09:57:02.000Z</time>
      </trkpt>
      <trkpt lat="42.69661" lon="1.65479">
        <ele>1378</ele>
        <time>2018-11-18T09:57:04.000Z</time>
      </trkpt>
      <trkpt lat="42.69658" lon="1.65477">
        <ele>1378</ele>
        <time>2018-11-18T09:57:06.000Z</time>
      </trkpt>
      <trkpt lat="42.69658" lon="1.65476">
        <ele>1378</ele>
        <time>2018-11-18T09:57:08.000Z</time>
      </trkpt>
      <trkpt lat="42.69657" lon="1.65475">
        <ele>1378</ele>
        <time>2018-11-18T09:57:10.000Z</time>
      </trkpt>
      <trkpt lat="42.69656" lon="1.65474">
        <ele>1378</ele>
        <time>2018-11-18T09:57:12.000Z</time>
      </trkpt>
      <trkpt lat="42.69655" lon="1.65473">
        <ele>1378</ele>
        <time>2018-11-18T09:57:14.000Z</time>
      </trkpt>
      <trkpt lat="42.69654" lon="1.65472">
        <ele>1378</ele>
        <time>2018-11-18T09:57:16.000Z</time>
      </trkpt>
      <trkpt lat="42.69653" lon="1.65471">
        <ele>1378</ele>
        <time>2018-11-18T09:57:18.000Z</time>
      </trkpt>
      <trkpt lat="42.69651" lon="1.65471">
        <ele>1379</ele>
        <time>2018-11-18T09:57:20.000Z</time>
      </trkpt>
      <trkpt lat="42.6965" lon="1.65471">
        <ele>1380</ele>
        <time>2018-11-18T09:57:22.000Z</time>
      </trkpt>
      <trkpt lat="42.69648" lon="1.65471">
        <ele>1381</ele>
        <time>2018-11-18T09:57:24.000Z</time>
      </trkpt>
      <trkpt lat="42.69646" lon="1.65472">
        <ele>1383</ele>
        <time>2018-11-18T09:57:26.000Z</time>
      </trkpt>
      <trkpt lat="42.69645" lon="1.65472">
        <ele>1382</ele>
        <time>2018-11-18T09:57:28.000Z</time>
      </trkpt>
      <trkpt lat="42.69643" lon="1.65471">
        <ele>1383</ele>
        <time>2018-11-18T09:57:30.000Z</time>
      </trkpt>
      <trkpt lat="42.69641" lon="1.65469">
        <ele>1384</ele>
        <time>2018-11-18T09:57:32.000Z</time>
      </trkpt>
      <trkpt lat="42.6964" lon="1.65469">
        <ele>1384</ele>
        <time>2018-11-18T09:57:34.000Z</time>
      </trkpt>
      <trkpt lat="42.69639" lon="1.65468">
        <ele>1385</ele>
        <time>2018-11-18T09:57:36.000Z</time>
      </trkpt>
      <trkpt lat="42.69637" lon="1.65467">
        <ele>1385</ele>
        <time>2018-11-18T09:57:38.000Z</time>
      </trkpt>
      <trkpt lat="42.69636" lon="1.65466">
        <ele>1385</ele>
        <time>2018-11-18T09:57:40.000Z</time>
      </trkpt>
      <trkpt lat="42.69635" lon="1.65464">
        <ele>1384</ele>
        <time>2018-11-18T09:57:42.000Z</time>
      </trkpt>
      <trkpt lat="42.69633" lon="1.65463">
        <ele>1385</ele>
        <time>2018-11-18T09:57:44.000Z</time>
      </trkpt>
      <trkpt lat="42.69631" lon="1.65462">
        <ele>1386</ele>
        <time>2018-11-18T09:57:46.000Z</time>
      </trkpt>
      <trkpt lat="42.69629" lon="1.65459">
        <ele>1385</ele>
        <time>2018-11-18T09:57:48.000Z</time>
      </trkpt>
      <trkpt lat="42.69628" lon="1.65458">
        <ele>1385</ele>
        <time>2018-11-18T09:57:50.000Z</time>
      </trkpt>
      <trkpt lat="42.69627" lon="1.65458">
        <ele>1386</ele>
        <time>2018-11-18T09:57:52.000Z</time>
      </trkpt>
      <trkpt lat="42.69626" lon="1.65458">
        <ele>1386</ele>
        <time>2018-11-18T09:57:54.000Z</time>
      </trkpt>
      <trkpt lat="42.69625" lon="1.65458">
        <ele>1387</ele>
        <time>2018-11-18T09:57:56.000Z</time>
      </trkpt>
      <trkpt lat="42.69624" lon="1.65458">
        <ele>1388</ele>
        <time>2018-11-18T09:57:58.000Z</time>
      </trkpt>
      <trkpt lat="42.69623" lon="1.65459">
        <ele>1388</ele>
        <time>2018-11-18T09:58:00.000Z</time>
      </trkpt>
      <trkpt lat="42.69623" lon="1.65459">
        <ele>1389</ele>
        <time>2018-11-18T09:58:02.000Z</time>
      </trkpt>
      <trkpt lat="42.69621" lon="1.65459">
        <ele>1390</ele>
        <time>2018-11-18T09:58:04.000Z</time>
      </trkpt>
      <trkpt lat="42.69619" lon="1.65459">
        <ele>1391</ele>
        <time>2018-11-18T09:58:06.000Z</time>
      </trkpt>
      <trkpt lat="42.69617" lon="1.65458">
        <ele>1392</ele>
        <time>2018-11-18T09:58:08.000Z</time>
      </trkpt>
      <trkpt lat="42.69615" lon="1.65459">
        <ele>1393</ele>
        <time>2018-11-18T09:58:10.000Z</time>
      </trkpt>
      <trkpt lat="42.69614" lon="1.65457">
        <ele>1392</ele>
        <time>2018-11-18T09:58:12.000Z</time>
      </trkpt>
      <trkpt lat="42.69613" lon="1.65458">
        <ele>1393</ele>
        <time>2018-11-18T09:58:14.000Z</time>
      </trkpt>
      <trkpt lat="42.69612" lon="1.65458">
        <ele>1394</ele>
        <time>2018-11-18T09:58:16.000Z</time>
      </trkpt>
      <trkpt lat="42.69612" lon="1.65457">
        <ele>1394</ele>
        <time>2018-11-18T09:58:18.000Z</time>
      </trkpt>
      <trkpt lat="42.69611" lon="1.65457">
        <ele>1395</ele>
        <time>2018-11-18T09:58:20.000Z</time>
      </trkpt>
      <trkpt lat="42.6961" lon="1.65455">
        <ele>1394</ele>
        <time>2018-11-18T09:58:22.000Z</time>
      </trkpt>
      <trkpt lat="42.6961" lon="1.65456">
        <ele>1394</ele>
        <time>2018-11-18T09:58:24.000Z</time>
      </trkpt>
      <trkpt lat="42.69611" lon="1.65457">
        <ele>1394</ele>
        <time>2018-11-18T09:58:26.000Z</time>
      </trkpt>
      <trkpt lat="42.69612" lon="1.65457">
        <ele>1393</ele>
        <time>2018-11-18T09:58:28.000Z</time>
      </trkpt>
      <trkpt lat="42.69612" lon="1.65456">
        <ele>1393</ele>
        <time>2018-11-18T09:58:30.000Z</time>
      </trkpt>
      <trkpt lat="42.69613" lon="1.65456">
        <ele>1393</ele>
        <time>2018-11-18T09:58:32.000Z</time>
      </trkpt>
      <trkpt lat="42.69614" lon="1.65456">
        <ele>1392</ele>
        <time>2018-11-18T09:58:34.000Z</time>
      </trkpt>
      <trkpt lat="42.69614" lon="1.65454">
        <ele>1391</ele>
        <time>2018-11-18T09:58:36.000Z</time>
      </trkpt>
      <trkpt lat="42.69615" lon="1.65454">
        <ele>1391</ele>
        <time>2018-11-18T09:58:38.000Z</time>
      </trkpt>
      <trkpt lat="42.69615" lon="1.65454">
        <ele>1390</ele>
        <time>2018-11-18T09:58:40.000Z</time>
      </trkpt>
      <trkpt lat="42.69615" lon="1.65454">
        <ele>1390</ele>
        <time>2018-11-18T09:58:42.000Z</time>
      </trkpt>
      <trkpt lat="42.69615" lon="1.65453">
        <ele>1390</ele>
        <time>2018-11-18T09:58:44.000Z</time>
      </trkpt>
      <trkpt lat="42.69614" lon="1.65452">
        <ele>1390</ele>
        <time>2018-11-18T09:58:46.000Z</time>
      </trkpt>
      <trkpt lat="42.69614" lon="1.65451">
        <ele>1390</ele>
        <time>2018-11-18T09:58:48.000Z</time>
      </trkpt>
      <trkpt lat="42.69613" lon="1.65449">
        <ele>1390</ele>
        <time>2018-11-18T09:58:50.000Z</time>
      </trkpt>
      <trkpt lat="42.69611" lon="1.65448">
        <ele>1390</ele>
        <time>2018-11-18T09:58:52.000Z</time>
      </trkpt>
      <trkpt lat="42.69611" lon="1.65448">
        <ele>1390</ele>
        <time>2018-11-18T09:58:54.000Z</time>
      </trkpt>
      <trkpt lat="42.6961" lon="1.65446">
        <ele>1389</ele>
        <time>2018-11-18T09:58:56.000Z</time>
      </trkpt>
      <trkpt lat="42.69609" lon="1.65446">
        <ele>1390</ele>
        <time>2018-11-18T09:58:58.000Z</time>
      </trkpt>
      <trkpt lat="42.69609" lon="1.65444">
        <ele>1389</ele>
        <time>2018-11-18T09:59:00.000Z</time>
      </trkpt>
      <trkpt lat="42.69609" lon="1.65444">
        <ele>1389</ele>
        <time>2018-11-18T09:59:02.000Z</time>
      </trkpt>
      <trkpt lat="42.69607" lon="1.65445">
        <ele>1390</ele>
        <time>2018-11-18T09:59:04.000Z</time>
      </trkpt>
      <trkpt lat="42.69606" lon="1.65447">
        <ele>1392</ele>
        <time>2018-11-18T09:59:06.000Z</time>
      </trkpt>
      <trkpt lat="42.69606" lon="1.65447">
        <ele>1392</ele>
        <time>2018-11-18T09:59:08.000Z</time>
      </trkpt>
      <trkpt lat="42.69605" lon="1.65446">
        <ele>1392</ele>
        <time>2018-11-18T09:59:10.000Z</time>
      </trkpt>
      <trkpt lat="42.69605" lon="1.65445">
        <ele>1392</ele>
        <time>2018-11-18T09:59:12.000Z</time>
      </trkpt>
      <trkpt lat="42.69606" lon="1.65445">
        <ele>1391</ele>
        <time>2018-11-18T09:59:14.000Z</time>
      </trkpt>
      <trkpt lat="42.69606" lon="1.65446">
        <ele>1391</ele>
        <time>2018-11-18T09:59:16.000Z</time>
      </trkpt>
      <trkpt lat="42.69606" lon="1.65446">
        <ele>1392</ele>
        <time>2018-11-18T09:59:18.000Z</time>
      </trkpt>
      <trkpt lat="42.69605" lon="1.65446">
        <ele>1392</ele>
        <time>2018-11-18T09:59:20.000Z</time>
      </trkpt>
      <trkpt lat="42.69605" lon="1.65445">
        <ele>1391</ele>
        <time>2018-11-18T09:59:22.000Z</time>
      </trkpt>
      <trkpt lat="42.69604" lon="1.65443">
        <ele>1391</ele>
        <time>2018-11-18T09:59:24.000Z</time>
      </trkpt>
      <trkpt lat="42.69603" lon="1.65442">
        <ele>1391</ele>
        <time>2018-11-18T09:59:26.000Z</time>
      </trkpt>
      <trkpt lat="42.69603" lon="1.65443">
        <ele>1392</ele>
        <time>2018-11-18T09:59:28.000Z</time>
      </trkpt>
      <trkpt lat="42.69601" lon="1.65441">
        <ele>1392</ele>
        <time>2018-11-18T09:59:30.000Z</time>
      </trkpt>
      <trkpt lat="42.69596" lon="1.65437">
        <ele>1393</ele>
        <time>2018-11-18T09:59:32.000Z</time>
      </trkpt>
      <trkpt lat="42.69594" lon="1.65435">
        <ele>1393</ele>
        <time>2018-11-18T09:59:34.000Z</time>
      </trkpt>
      <trkpt lat="42.69593" lon="1.65434">
        <ele>1393</ele>
        <time>2018-11-18T09:59:36.000Z</time>
      </trkpt>
      <trkpt lat="42.69591" lon="1.65433">
        <ele>1393</ele>
        <time>2018-11-18T09:59:38.000Z</time>
      </trkpt>
      <trkpt lat="42.6959" lon="1.65434">
        <ele>1394</ele>
        <time>2018-11-18T09:59:40.000Z</time>
      </trkpt>
      <trkpt lat="42.69589" lon="1.65431">
        <ele>1393</ele>
        <time>2018-11-18T09:59:42.000Z</time>
      </trkpt>
      <trkpt lat="42.69587" lon="1.65428">
        <ele>1393</ele>
        <time>2018-11-18T09:59:44.000Z</time>
      </trkpt>
      <trkpt lat="42.69585" lon="1.65425">
        <ele>1392</ele>
        <time>2018-11-18T09:59:46.000Z</time>
      </trkpt>
      <trkpt lat="42.69584" lon="1.65424">
        <ele>1392</ele>
        <time>2018-11-18T09:59:48.000Z</time>
      </trkpt>
      <trkpt lat="42.69583" lon="1.65423">
        <ele>1392</ele>
        <time>2018-11-18T09:59:50.000Z</time>
      </trkpt>
      <trkpt lat="42.69582" lon="1.65422">
        <ele>1392</ele>
        <time>2018-11-18T09:59:52.000Z</time>
      </trkpt>
      <trkpt lat="42.69582" lon="1.65423">
        <ele>1392</ele>
        <time>2018-11-18T09:59:54.000Z</time>
      </trkpt>
      <trkpt lat="42.6958" lon="1.65421">
        <ele>1392</ele>
        <time>2018-11-18T09:59:56.000Z</time>
      </trkpt>
      <trkpt lat="42.6958" lon="1.6542">
        <ele>1392</ele>
        <time>2018-11-18T09:59:58.000Z</time>
      </trkpt>
      <trkpt lat="42.69579" lon="1.65417">
        <ele>1391</ele>
        <time>2018-11-18T10:00:00.000Z</time>
      </trkpt>
      <trkpt lat="42.69579" lon="1.65417">
        <ele>1391</ele>
        <time>2018-11-18T10:00:02.000Z</time>
      </trkpt>
      <trkpt lat="42.69578" lon="1.65415">
        <ele>1390</ele>
        <time>2018-11-18T10:00:04.000Z</time>
      </trkpt>
      <trkpt lat="42.69578" lon="1.65414">
        <ele>1390</ele>
        <time>2018-11-18T10:00:06.000Z</time>
      </trkpt>
      <trkpt lat="42.69578" lon="1.65413">
        <ele>1389</ele>
        <time>2018-11-18T10:00:08.000Z</time>
      </trkpt>
      <trkpt lat="42.69576" lon="1.65413">
        <ele>1390</ele>
        <time>2018-11-18T10:00:10.000Z</time>
      </trkpt>
      <trkpt lat="42.69576" lon="1.65413">
        <ele>1390</ele>
        <time>2018-11-18T10:00:12.000Z</time>
      </trkpt>
      <trkpt lat="42.69574" lon="1.65412">
        <ele>1390</ele>
        <time>2018-11-18T10:00:14.000Z</time>
      </trkpt>
      <trkpt lat="42.69574" lon="1.6541">
        <ele>1389</ele>
        <time>2018-11-18T10:00:16.000Z</time>
      </trkpt>
      <trkpt lat="42.69572" lon="1.65407">
        <ele>1389</ele>
        <time>2018-11-18T10:00:18.000Z</time>
      </trkpt>
      <trkpt lat="42.69572" lon="1.65405">
        <ele>1388</ele>
        <time>2018-11-18T10:00:20.000Z</time>
      </trkpt>
      <trkpt lat="42.69571" lon="1.65403">
        <ele>1387</ele>
        <time>2018-11-18T10:00:22.000Z</time>
      </trkpt>
      <trkpt lat="42.69571" lon="1.65402">
        <ele>1387</ele>
        <time>2018-11-18T10:00:24.000Z</time>
      </trkpt>
      <trkpt lat="42.6957" lon="1.65402">
        <ele>1387</ele>
        <time>2018-11-18T10:00:26.000Z</time>
      </trkpt>
      <trkpt lat="42.69569" lon="1.65403">
        <ele>1388</ele>
        <time>2018-11-18T10:00:28.000Z</time>
      </trkpt>
      <trkpt lat="42.69568" lon="1.65404">
        <ele>1389</ele>
        <time>2018-11-18T10:00:30.000Z</time>
      </trkpt>
      <trkpt lat="42.69568" lon="1.65407">
        <ele>1390</ele>
        <time>2018-11-18T10:00:32.000Z</time>
      </trkpt>
      <trkpt lat="42.69567" lon="1.65409">
        <ele>1392</ele>
        <time>2018-11-18T10:00:34.000Z</time>
      </trkpt>
      <trkpt lat="42.69567" lon="1.65412">
        <ele>1393</ele>
        <time>2018-11-18T10:00:36.000Z</time>
      </trkpt>
      <trkpt lat="42.69567" lon="1.65409">
        <ele>1392</ele>
        <time>2018-11-18T10:00:38.000Z</time>
      </trkpt>
      <trkpt lat="42.69567" lon="1.65406">
        <ele>1390</ele>
        <time>2018-11-18T10:00:40.000Z</time>
      </trkpt>
      <trkpt lat="42.69568" lon="1.65403">
        <ele>1388</ele>
        <time>2018-11-18T10:00:42.000Z</time>
      </trkpt>
      <trkpt lat="42.69568" lon="1.654">
        <ele>1387</ele>
        <time>2018-11-18T10:00:44.000Z</time>
      </trkpt>
      <trkpt lat="42.69568" lon="1.65399">
        <ele>1387</ele>
        <time>2018-11-18T10:00:46.000Z</time>
      </trkpt>
      <trkpt lat="42.69567" lon="1.65397">
        <ele>1386</ele>
        <time>2018-11-18T10:00:48.000Z</time>
      </trkpt>
      <trkpt lat="42.69568" lon="1.65396">
        <ele>1386</ele>
        <time>2018-11-18T10:00:50.000Z</time>
      </trkpt>
      <trkpt lat="42.69566" lon="1.65393">
        <ele>1386</ele>
        <time>2018-11-18T10:00:52.000Z</time>
      </trkpt>
      <trkpt lat="42.69566" lon="1.65393">
        <ele>1386</ele>
        <time>2018-11-18T10:00:54.000Z</time>
      </trkpt>
      <trkpt lat="42.69565" lon="1.65391">
        <ele>1385</ele>
        <time>2018-11-18T10:00:56.000Z</time>
      </trkpt>
      <trkpt lat="42.69564" lon="1.65389">
        <ele>1385</ele>
        <time>2018-11-18T10:00:58.000Z</time>
      </trkpt>
      <trkpt lat="42.69562" lon="1.65387">
        <ele>1385</ele>
        <time>2018-11-18T10:01:00.000Z</time>
      </trkpt>
      <trkpt lat="42.69559" lon="1.65386">
        <ele>1386</ele>
        <time>2018-11-18T10:01:02.000Z</time>
      </trkpt>
      <trkpt lat="42.69557" lon="1.65384">
        <ele>1386</ele>
        <time>2018-11-18T10:01:04.000Z</time>
      </trkpt>
      <trkpt lat="42.69556" lon="1.65383">
        <ele>1386</ele>
        <time>2018-11-18T10:01:06.000Z</time>
      </trkpt>
      <trkpt lat="42.69554" lon="1.65381">
        <ele>1386</ele>
        <time>2018-11-18T10:01:08.000Z</time>
      </trkpt>
      <trkpt lat="42.69553" lon="1.65381">
        <ele>1387</ele>
        <time>2018-11-18T10:01:10.000Z</time>
      </trkpt>
      <trkpt lat="42.69551" lon="1.6538">
        <ele>1387</ele>
        <time>2018-11-18T10:01:12.000Z</time>
      </trkpt>
      <trkpt lat="42.6955" lon="1.65378">
        <ele>1387</ele>
        <time>2018-11-18T10:01:14.000Z</time>
      </trkpt>
      <trkpt lat="42.69549" lon="1.65377">
        <ele>1387</ele>
        <time>2018-11-18T10:01:16.000Z</time>
      </trkpt>
      <trkpt lat="42.69548" lon="1.65375">
        <ele>1387</ele>
        <time>2018-11-18T10:01:18.000Z</time>
      </trkpt>
      <trkpt lat="42.69547" lon="1.65374">
        <ele>1387</ele>
        <time>2018-11-18T10:01:20.000Z</time>
      </trkpt>
      <trkpt lat="42.69547" lon="1.65374">
        <ele>1387</ele>
        <time>2018-11-18T10:01:22.000Z</time>
      </trkpt>
      <trkpt lat="42.69546" lon="1.65374">
        <ele>1387</ele>
        <time>2018-11-18T10:01:24.000Z</time>
      </trkpt>
      <trkpt lat="42.69546" lon="1.65374">
        <ele>1387</ele>
        <time>2018-11-18T10:01:26.000Z</time>
      </trkpt>
      <trkpt lat="42.69546" lon="1.65375">
        <ele>1388</ele>
        <time>2018-11-18T10:01:28.000Z</time>
      </trkpt>
      <trkpt lat="42.69547" lon="1.65376">
        <ele>1388</ele>
        <time>2018-11-18T10:01:30.000Z</time>
      </trkpt>
      <trkpt lat="42.69546" lon="1.65378">
        <ele>1389</ele>
        <time>2018-11-18T10:01:32.000Z</time>
      </trkpt>
      <trkpt lat="42.69546" lon="1.65379">
        <ele>1389</ele>
        <time>2018-11-18T10:01:34.000Z</time>
      </trkpt>
      <trkpt lat="42.69546" lon="1.65379">
        <ele>1389</ele>
        <time>2018-11-18T10:01:36.000Z</time>
      </trkpt>
      <trkpt lat="42.69545" lon="1.65379">
        <ele>1389</ele>
        <time>2018-11-18T10:01:38.000Z</time>
      </trkpt>
      <trkpt lat="42.69542" lon="1.65377">
        <ele>1390</ele>
        <time>2018-11-18T10:01:40.000Z</time>
      </trkpt>
      <trkpt lat="42.69542" lon="1.65377">
        <ele>1390</ele>
        <time>2018-11-18T10:01:42.000Z</time>
      </trkpt>
      <trkpt lat="42.69541" lon="1.65378">
        <ele>1391</ele>
        <time>2018-11-18T10:01:44.000Z</time>
      </trkpt>
      <trkpt lat="42.6954" lon="1.65379">
        <ele>1392</ele>
        <time>2018-11-18T10:01:46.000Z</time>
      </trkpt>
      <trkpt lat="42.69539" lon="1.65379">
        <ele>1392</ele>
        <time>2018-11-18T10:01:48.000Z</time>
      </trkpt>
      <trkpt lat="42.69538" lon="1.65379">
        <ele>1392</ele>
        <time>2018-11-18T10:01:50.000Z</time>
      </trkpt>
      <trkpt lat="42.69538" lon="1.65378">
        <ele>1392</ele>
        <time>2018-11-18T10:01:52.000Z</time>
      </trkpt>
      <trkpt lat="42.69538" lon="1.65378">
        <ele>1392</ele>
        <time>2018-11-18T10:01:54.000Z</time>
      </trkpt>
      <trkpt lat="42.69537" lon="1.65377">
        <ele>1392</ele>
        <time>2018-11-18T10:01:56.000Z</time>
      </trkpt>
      <trkpt lat="42.69536" lon="1.65377">
        <ele>1393</ele>
        <time>2018-11-18T10:01:58.000Z</time>
      </trkpt>
      <trkpt lat="42.69535" lon="1.65379">
        <ele>1394</ele>
        <time>2018-11-18T10:02:00.000Z</time>
      </trkpt>
      <trkpt lat="42.69533" lon="1.65377">
        <ele>1394</ele>
        <time>2018-11-18T10:02:02.000Z</time>
      </trkpt>
      <trkpt lat="42.69532" lon="1.65377">
        <ele>1394</ele>
        <time>2018-11-18T10:02:04.000Z</time>
      </trkpt>
      <trkpt lat="42.6953" lon="1.65376">
        <ele>1395</ele>
        <time>2018-11-18T10:02:06.000Z</time>
      </trkpt>
      <trkpt lat="42.69528" lon="1.65375">
        <ele>1395</ele>
        <time>2018-11-18T10:02:08.000Z</time>
      </trkpt>
      <trkpt lat="42.69527" lon="1.65374">
        <ele>1396</ele>
        <time>2018-11-18T10:02:10.000Z</time>
      </trkpt>
      <trkpt lat="42.69526" lon="1.65372">
        <ele>1395</ele>
        <time>2018-11-18T10:02:12.000Z</time>
      </trkpt>
      <trkpt lat="42.69523" lon="1.65369">
        <ele>1395</ele>
        <time>2018-11-18T10:02:14.000Z</time>
      </trkpt>
      <trkpt lat="42.69521" lon="1.65367">
        <ele>1395</ele>
        <time>2018-11-18T10:02:16.000Z</time>
      </trkpt>
      <trkpt lat="42.69519" lon="1.65365">
        <ele>1395</ele>
        <time>2018-11-18T10:02:18.000Z</time>
      </trkpt>
      <trkpt lat="42.69518" lon="1.65365">
        <ele>1396</ele>
        <time>2018-11-18T10:02:20.000Z</time>
      </trkpt>
      <trkpt lat="42.69517" lon="1.65363">
        <ele>1396</ele>
        <time>2018-11-18T10:02:22.000Z</time>
      </trkpt>
      <trkpt lat="42.69516" lon="1.65361">
        <ele>1396</ele>
        <time>2018-11-18T10:02:24.000Z</time>
      </trkpt>
      <trkpt lat="42.69516" lon="1.6536">
        <ele>1395</ele>
        <time>2018-11-18T10:02:26.000Z</time>
      </trkpt>
      <trkpt lat="42.69515" lon="1.65359">
        <ele>1395</ele>
        <time>2018-11-18T10:02:28.000Z</time>
      </trkpt>
      <trkpt lat="42.69514" lon="1.65358">
        <ele>1395</ele>
        <time>2018-11-18T10:02:30.000Z</time>
      </trkpt>
      <trkpt lat="42.69514" lon="1.65357">
        <ele>1395</ele>
        <time>2018-11-18T10:02:32.000Z</time>
      </trkpt>
      <trkpt lat="42.69513" lon="1.65355">
        <ele>1395</ele>
        <time>2018-11-18T10:02:34.000Z</time>
      </trkpt>
      <trkpt lat="42.69513" lon="1.65353">
        <ele>1394</ele>
        <time>2018-11-18T10:02:36.000Z</time>
      </trkpt>
      <trkpt lat="42.69512" lon="1.65352">
        <ele>1394</ele>
        <time>2018-11-18T10:02:38.000Z</time>
      </trkpt>
      <trkpt lat="42.69511" lon="1.65352">
        <ele>1394</ele>
        <time>2018-11-18T10:02:40.000Z</time>
      </trkpt>
      <trkpt lat="42.69511" lon="1.65351">
        <ele>1394</ele>
        <time>2018-11-18T10:02:42.000Z</time>
      </trkpt>
      <trkpt lat="42.6951" lon="1.6535">
        <ele>1394</ele>
        <time>2018-11-18T10:02:44.000Z</time>
      </trkpt>
      <trkpt lat="42.6951" lon="1.65349">
        <ele>1394</ele>
        <time>2018-11-18T10:02:46.000Z</time>
      </trkpt>
      <trkpt lat="42.6951" lon="1.65348">
        <ele>1393</ele>
        <time>2018-11-18T10:02:48.000Z</time>
      </trkpt>
      <trkpt lat="42.6951" lon="1.65348">
        <ele>1393</ele>
        <time>2018-11-18T10:02:50.000Z</time>
      </trkpt>
      <trkpt lat="42.69509" lon="1.65347">
        <ele>1393</ele>
        <time>2018-11-18T10:02:52.000Z</time>
      </trkpt>
      <trkpt lat="42.69509" lon="1.65346">
        <ele>1393</ele>
        <time>2018-11-18T10:02:54.000Z</time>
      </trkpt>
      <trkpt lat="42.69508" lon="1.65346">
        <ele>1394</ele>
        <time>2018-11-18T10:02:56.000Z</time>
      </trkpt>
      <trkpt lat="42.69507" lon="1.65345">
        <ele>1394</ele>
        <time>2018-11-18T10:02:58.000Z</time>
      </trkpt>
      <trkpt lat="42.69507" lon="1.65343">
        <ele>1393</ele>
        <time>2018-11-18T10:03:00.000Z</time>
      </trkpt>
      <trkpt lat="42.69506" lon="1.65342">
        <ele>1393</ele>
        <time>2018-11-18T10:03:02.000Z</time>
      </trkpt>
      <trkpt lat="42.69505" lon="1.6534">
        <ele>1393</ele>
        <time>2018-11-18T10:03:04.000Z</time>
      </trkpt>
      <trkpt lat="42.69503" lon="1.65339">
        <ele>1393</ele>
        <time>2018-11-18T10:03:06.000Z</time>
      </trkpt>
      <trkpt lat="42.69502" lon="1.65337">
        <ele>1393</ele>
        <time>2018-11-18T10:03:08.000Z</time>
      </trkpt>
      <trkpt lat="42.69501" lon="1.65337">
        <ele>1393</ele>
        <time>2018-11-18T10:03:10.000Z</time>
      </trkpt>
      <trkpt lat="42.695" lon="1.65336">
        <ele>1394</ele>
        <time>2018-11-18T10:03:12.000Z</time>
      </trkpt>
      <trkpt lat="42.69499" lon="1.65334">
        <ele>1393</ele>
        <time>2018-11-18T10:03:14.000Z</time>
      </trkpt>
      <trkpt lat="42.69498" lon="1.65334">
        <ele>1394</ele>
        <time>2018-11-18T10:03:16.000Z</time>
      </trkpt>
      <trkpt lat="42.69497" lon="1.65334">
        <ele>1394</ele>
        <time>2018-11-18T10:03:18.000Z</time>
      </trkpt>
      <trkpt lat="42.69496" lon="1.65333">
        <ele>1394</ele>
        <time>2018-11-18T10:03:20.000Z</time>
      </trkpt>
      <trkpt lat="42.69495" lon="1.65333">
        <ele>1395</ele>
        <time>2018-11-18T10:03:22.000Z</time>
      </trkpt>
      <trkpt lat="42.69494" lon="1.65331">
        <ele>1394</ele>
        <time>2018-11-18T10:03:24.000Z</time>
      </trkpt>
      <trkpt lat="42.69493" lon="1.65331">
        <ele>1395</ele>
        <time>2018-11-18T10:03:26.000Z</time>
      </trkpt>
      <trkpt lat="42.69493" lon="1.65331">
        <ele>1395</ele>
        <time>2018-11-18T10:03:28.000Z</time>
      </trkpt>
      <trkpt lat="42.69492" lon="1.6533">
        <ele>1395</ele>
        <time>2018-11-18T10:03:30.000Z</time>
      </trkpt>
      <trkpt lat="42.69492" lon="1.65329">
        <ele>1395</ele>
        <time>2018-11-18T10:03:32.000Z</time>
      </trkpt>
      <trkpt lat="42.69491" lon="1.65329">
        <ele>1395</ele>
        <time>2018-11-18T10:03:34.000Z</time>
      </trkpt>
      <trkpt lat="42.6949" lon="1.65328">
        <ele>1395</ele>
        <time>2018-11-18T10:03:36.000Z</time>
      </trkpt>
      <trkpt lat="42.69489" lon="1.65326">
        <ele>1395</ele>
        <time>2018-11-18T10:03:38.000Z</time>
      </trkpt>
      <trkpt lat="42.69488" lon="1.65326">
        <ele>1395</ele>
        <time>2018-11-18T10:03:40.000Z</time>
      </trkpt>
      <trkpt lat="42.69487" lon="1.65325">
        <ele>1395</ele>
        <time>2018-11-18T10:03:42.000Z</time>
      </trkpt>
      <trkpt lat="42.69487" lon="1.65323">
        <ele>1395</ele>
        <time>2018-11-18T10:03:44.000Z</time>
      </trkpt>
      <trkpt lat="42.69487" lon="1.65322">
        <ele>1395</ele>
        <time>2018-11-18T10:03:46.000Z</time>
      </trkpt>
      <trkpt lat="42.69485" lon="1.65321">
        <ele>1395</ele>
        <time>2018-11-18T10:03:48.000Z</time>
      </trkpt>
      <trkpt lat="42.69484" lon="1.65319">
        <ele>1395</ele>
        <time>2018-11-18T10:03:50.000Z</time>
      </trkpt>
      <trkpt lat="42.69483" lon="1.65318">
        <ele>1395</ele>
        <time>2018-11-18T10:03:52.000Z</time>
      </trkpt>
      <trkpt lat="42.69481" lon="1.65317">
        <ele>1396</ele>
        <time>2018-11-18T10:03:54.000Z</time>
      </trkpt>
      <trkpt lat="42.69481" lon="1.65317">
        <ele>1396</ele>
        <time>2018-11-18T10:03:56.000Z</time>
      </trkpt>
      <trkpt lat="42.69479" lon="1.65315">
        <ele>1396</ele>
        <time>2018-11-18T10:03:58.000Z</time>
      </trkpt>
      <trkpt lat="42.69479" lon="1.65315">
        <ele>1396</ele>
        <time>2018-11-18T10:04:00.000Z</time>
      </trkpt>
      <trkpt lat="42.69479" lon="1.65314">
        <ele>1396</ele>
        <time>2018-11-18T10:04:02.000Z</time>
      </trkpt>
      <trkpt lat="42.69478" lon="1.65313">
        <ele>1396</ele>
        <time>2018-11-18T10:04:04.000Z</time>
      </trkpt>
      <trkpt lat="42.69478" lon="1.65312">
        <ele>1396</ele>
        <time>2018-11-18T10:04:06.000Z</time>
      </trkpt>
      <trkpt lat="42.69477" lon="1.65312">
        <ele>1396</ele>
        <time>2018-11-18T10:04:08.000Z</time>
      </trkpt>
      <trkpt lat="42.69477" lon="1.65312">
        <ele>1396</ele>
        <time>2018-11-18T10:04:10.000Z</time>
      </trkpt>
      <trkpt lat="42.69476" lon="1.65313">
        <ele>1397</ele>
        <time>2018-11-18T10:04:12.000Z</time>
      </trkpt>
      <trkpt lat="42.69475" lon="1.65312">
        <ele>1397</ele>
        <time>2018-11-18T10:04:14.000Z</time>
      </trkpt>
      <trkpt lat="42.69474" lon="1.65311">
        <ele>1398</ele>
        <time>2018-11-18T10:04:16.000Z</time>
      </trkpt>
      <trkpt lat="42.69474" lon="1.65311">
        <ele>1398</ele>
        <time>2018-11-18T10:04:18.000Z</time>
      </trkpt>
      <trkpt lat="42.69474" lon="1.65311">
        <ele>1398</ele>
        <time>2018-11-18T10:04:20.000Z</time>
      </trkpt>
      <trkpt lat="42.69474" lon="1.6531">
        <ele>1397</ele>
        <time>2018-11-18T10:04:22.000Z</time>
      </trkpt>
      <trkpt lat="42.69473" lon="1.6531">
        <ele>1398</ele>
        <time>2018-11-18T10:04:24.000Z</time>
      </trkpt>
      <trkpt lat="42.69472" lon="1.65309">
        <ele>1398</ele>
        <time>2018-11-18T10:04:26.000Z</time>
      </trkpt>
      <trkpt lat="42.69471" lon="1.65308">
        <ele>1398</ele>
        <time>2018-11-18T10:04:28.000Z</time>
      </trkpt>
      <trkpt lat="42.6947" lon="1.65308">
        <ele>1399</ele>
        <time>2018-11-18T10:04:30.000Z</time>
      </trkpt>
      <trkpt lat="42.69469" lon="1.65308">
        <ele>1399</ele>
        <time>2018-11-18T10:04:32.000Z</time>
      </trkpt>
      <trkpt lat="42.69469" lon="1.65308">
        <ele>1399</ele>
        <time>2018-11-18T10:04:34.000Z</time>
      </trkpt>
      <trkpt lat="42.69469" lon="1.6531">
        <ele>1399</ele>
        <time>2018-11-18T10:04:36.000Z</time>
      </trkpt>
      <trkpt lat="42.69469" lon="1.6531">
        <ele>1400</ele>
        <time>2018-11-18T10:04:38.000Z</time>
      </trkpt>
      <trkpt lat="42.69469" lon="1.65308">
        <ele>1399</ele>
        <time>2018-11-18T10:04:40.000Z</time>
      </trkpt>
      <trkpt lat="42.69468" lon="1.65307">
        <ele>1399</ele>
        <time>2018-11-18T10:04:42.000Z</time>
      </trkpt>
      <trkpt lat="42.69467" lon="1.65307">
        <ele>1400</ele>
        <time>2018-11-18T10:04:44.000Z</time>
      </trkpt>
      <trkpt lat="42.69466" lon="1.65308">
        <ele>1400</ele>
        <time>2018-11-18T10:04:46.000Z</time>
      </trkpt>
      <trkpt lat="42.69465" lon="1.65309">
        <ele>1401</ele>
        <time>2018-11-18T10:04:48.000Z</time>
      </trkpt>
      <trkpt lat="42.69465" lon="1.65309">
        <ele>1401</ele>
        <time>2018-11-18T10:04:50.000Z</time>
      </trkpt>
      <trkpt lat="42.69464" lon="1.65309">
        <ele>1402</ele>
        <time>2018-11-18T10:04:52.000Z</time>
      </trkpt>
      <trkpt lat="42.69464" lon="1.65309">
        <ele>1402</ele>
        <time>2018-11-18T10:04:54.000Z</time>
      </trkpt>
      <trkpt lat="42.69464" lon="1.6531">
        <ele>1402</ele>
        <time>2018-11-18T10:04:56.000Z</time>
      </trkpt>
      <trkpt lat="42.69463" lon="1.65311">
        <ele>1402</ele>
        <time>2018-11-18T10:04:58.000Z</time>
      </trkpt>
      <trkpt lat="42.69462" lon="1.65311">
        <ele>1403</ele>
        <time>2018-11-18T10:05:00.000Z</time>
      </trkpt>
      <trkpt lat="42.69461" lon="1.65311">
        <ele>1404</ele>
        <time>2018-11-18T10:05:02.000Z</time>
      </trkpt>
      <trkpt lat="42.69459" lon="1.6531">
        <ele>1404</ele>
        <time>2018-11-18T10:05:04.000Z</time>
      </trkpt>
      <trkpt lat="42.69458" lon="1.65309">
        <ele>1405</ele>
        <time>2018-11-18T10:05:06.000Z</time>
      </trkpt>
      <trkpt lat="42.69457" lon="1.6531">
        <ele>1405</ele>
        <time>2018-11-18T10:05:08.000Z</time>
      </trkpt>
      <trkpt lat="42.69454" lon="1.65309">
        <ele>1406</ele>
        <time>2018-11-18T10:05:10.000Z</time>
      </trkpt>
      <trkpt lat="42.69453" lon="1.65309">
        <ele>1407</ele>
        <time>2018-11-18T10:05:12.000Z</time>
      </trkpt>
      <trkpt lat="42.69451" lon="1.65309">
        <ele>1407</ele>
        <time>2018-11-18T10:05:14.000Z</time>
      </trkpt>
      <trkpt lat="42.6945" lon="1.65308">
        <ele>1408</ele>
        <time>2018-11-18T10:05:16.000Z</time>
      </trkpt>
      <trkpt lat="42.69448" lon="1.65307">
        <ele>1409</ele>
        <time>2018-11-18T10:05:18.000Z</time>
      </trkpt>
      <trkpt lat="42.69446" lon="1.65307">
        <ele>1410</ele>
        <time>2018-11-18T10:05:20.000Z</time>
      </trkpt>
      <trkpt lat="42.69445" lon="1.65306">
        <ele>1410</ele>
        <time>2018-11-18T10:05:22.000Z</time>
      </trkpt>
      <trkpt lat="42.69445" lon="1.65305">
        <ele>1410</ele>
        <time>2018-11-18T10:05:24.000Z</time>
      </trkpt>
      <trkpt lat="42.69444" lon="1.65304">
        <ele>1410</ele>
        <time>2018-11-18T10:05:26.000Z</time>
      </trkpt>
      <trkpt lat="42.69442" lon="1.65303">
        <ele>1410</ele>
        <time>2018-11-18T10:05:28.000Z</time>
      </trkpt>
      <trkpt lat="42.69441" lon="1.653">
        <ele>1410</ele>
        <time>2018-11-18T10:05:30.000Z</time>
      </trkpt>
      <trkpt lat="42.69439" lon="1.65299">
        <ele>1411</ele>
        <time>2018-11-18T10:05:32.000Z</time>
      </trkpt>
      <trkpt lat="42.69438" lon="1.65297">
        <ele>1411</ele>
        <time>2018-11-18T10:05:34.000Z</time>
      </trkpt>
      <trkpt lat="42.69436" lon="1.65297">
        <ele>1412</ele>
        <time>2018-11-18T10:05:36.000Z</time>
      </trkpt>
      <trkpt lat="42.69436" lon="1.65296">
        <ele>1412</ele>
        <time>2018-11-18T10:05:38.000Z</time>
      </trkpt>
      <trkpt lat="42.69435" lon="1.65295">
        <ele>1412</ele>
        <time>2018-11-18T10:05:40.000Z</time>
      </trkpt>
      <trkpt lat="42.69434" lon="1.65294">
        <ele>1412</ele>
        <time>2018-11-18T10:05:42.000Z</time>
      </trkpt>
      <trkpt lat="42.69433" lon="1.65292">
        <ele>1412</ele>
        <time>2018-11-18T10:05:44.000Z</time>
      </trkpt>
      <trkpt lat="42.69432" lon="1.6529">
        <ele>1412</ele>
        <time>2018-11-18T10:05:46.000Z</time>
      </trkpt>
      <trkpt lat="42.69432" lon="1.65288">
        <ele>1412</ele>
        <time>2018-11-18T10:05:48.000Z</time>
      </trkpt>
      <trkpt lat="42.69432" lon="1.65287">
        <ele>1411</ele>
        <time>2018-11-18T10:05:50.000Z</time>
      </trkpt>
      <trkpt lat="42.69432" lon="1.65287">
        <ele>1412</ele>
        <time>2018-11-18T10:05:52.000Z</time>
      </trkpt>
      <trkpt lat="42.6943" lon="1.65286">
        <ele>1412</ele>
        <time>2018-11-18T10:05:54.000Z</time>
      </trkpt>
      <trkpt lat="42.6943" lon="1.65286">
        <ele>1412</ele>
        <time>2018-11-18T10:05:56.000Z</time>
      </trkpt>
      <trkpt lat="42.6943" lon="1.65286">
        <ele>1412</ele>
        <time>2018-11-18T10:05:58.000Z</time>
      </trkpt>
      <trkpt lat="42.6943" lon="1.65285">
        <ele>1412</ele>
        <time>2018-11-18T10:06:00.000Z</time>
      </trkpt>
      <trkpt lat="42.6943" lon="1.65284">
        <ele>1412</ele>
        <time>2018-11-18T10:06:02.000Z</time>
      </trkpt>
      <trkpt lat="42.69431" lon="1.65283">
        <ele>1411</ele>
        <time>2018-11-18T10:06:04.000Z</time>
      </trkpt>
      <trkpt lat="42.69431" lon="1.65281">
        <ele>1411</ele>
        <time>2018-11-18T10:06:06.000Z</time>
      </trkpt>
      <trkpt lat="42.6943" lon="1.65279">
        <ele>1411</ele>
        <time>2018-11-18T10:06:08.000Z</time>
      </trkpt>
      <trkpt lat="42.69429" lon="1.65279">
        <ele>1411</ele>
        <time>2018-11-18T10:06:10.000Z</time>
      </trkpt>
      <trkpt lat="42.69429" lon="1.65279">
        <ele>1411</ele>
        <time>2018-11-18T10:06:12.000Z</time>
      </trkpt>
      <trkpt lat="42.69429" lon="1.6528">
        <ele>1411</ele>
        <time>2018-11-18T10:06:14.000Z</time>
      </trkpt>
      <trkpt lat="42.69427" lon="1.6528">
        <ele>1412</ele>
        <time>2018-11-18T10:06:16.000Z</time>
      </trkpt>
      <trkpt lat="42.69427" lon="1.65279">
        <ele>1412</ele>
        <time>2018-11-18T10:06:18.000Z</time>
      </trkpt>
      <trkpt lat="42.69427" lon="1.65279">
        <ele>1412</ele>
        <time>2018-11-18T10:06:20.000Z</time>
      </trkpt>
      <trkpt lat="42.69426" lon="1.65278">
        <ele>1412</ele>
        <time>2018-11-18T10:06:22.000Z</time>
      </trkpt>
      <trkpt lat="42.69426" lon="1.65276">
        <ele>1412</ele>
        <time>2018-11-18T10:06:24.000Z</time>
      </trkpt>
      <trkpt lat="42.69425" lon="1.65275">
        <ele>1412</ele>
        <time>2018-11-18T10:06:26.000Z</time>
      </trkpt>
      <trkpt lat="42.69425" lon="1.65275">
        <ele>1412</ele>
        <time>2018-11-18T10:06:28.000Z</time>
      </trkpt>
      <trkpt lat="42.69424" lon="1.65274">
        <ele>1412</ele>
        <time>2018-11-18T10:06:30.000Z</time>
      </trkpt>
      <trkpt lat="42.69423" lon="1.65274">
        <ele>1413</ele>
        <time>2018-11-18T10:06:32.000Z</time>
      </trkpt>
      <trkpt lat="42.69423" lon="1.65274">
        <ele>1413</ele>
        <time>2018-11-18T10:06:34.000Z</time>
      </trkpt>
      <trkpt lat="42.69423" lon="1.65273">
        <ele>1413</ele>
        <time>2018-11-18T10:06:36.000Z</time>
      </trkpt>
      <trkpt lat="42.69422" lon="1.65273">
        <ele>1413</ele>
        <time>2018-11-18T10:06:38.000Z</time>
      </trkpt>
      <trkpt lat="42.69421" lon="1.65271">
        <ele>1413</ele>
        <time>2018-11-18T10:06:40.000Z</time>
      </trkpt>
      <trkpt lat="42.6942" lon="1.65269">
        <ele>1413</ele>
        <time>2018-11-18T10:06:42.000Z</time>
      </trkpt>
      <trkpt lat="42.6942" lon="1.65268">
        <ele>1413</ele>
        <time>2018-11-18T10:06:44.000Z</time>
      </trkpt>
      <trkpt lat="42.69419" lon="1.65266">
        <ele>1413</ele>
        <time>2018-11-18T10:06:46.000Z</time>
      </trkpt>
      <trkpt lat="42.6942" lon="1.65265">
        <ele>1412</ele>
        <time>2018-11-18T10:06:48.000Z</time>
      </trkpt>
      <trkpt lat="42.69419" lon="1.65265">
        <ele>1412</ele>
        <time>2018-11-18T10:06:50.000Z</time>
      </trkpt>
      <trkpt lat="42.69419" lon="1.65264">
        <ele>1413</ele>
        <time>2018-11-18T10:06:52.000Z</time>
      </trkpt>
      <trkpt lat="42.69418" lon="1.65263">
        <ele>1413</ele>
        <time>2018-11-18T10:06:54.000Z</time>
      </trkpt>
      <trkpt lat="42.69417" lon="1.65262">
        <ele>1413</ele>
        <time>2018-11-18T10:06:56.000Z</time>
      </trkpt>
      <trkpt lat="42.69417" lon="1.65261">
        <ele>1413</ele>
        <time>2018-11-18T10:06:58.000Z</time>
      </trkpt>
      <trkpt lat="42.69416" lon="1.6526">
        <ele>1413</ele>
        <time>2018-11-18T10:07:00.000Z</time>
      </trkpt>
      <trkpt lat="42.69415" lon="1.65258">
        <ele>1413</ele>
        <time>2018-11-18T10:07:02.000Z</time>
      </trkpt>
      <trkpt lat="42.69413" lon="1.65255">
        <ele>1413</ele>
        <time>2018-11-18T10:07:04.000Z</time>
      </trkpt>
      <trkpt lat="42.69412" lon="1.65255">
        <ele>1414</ele>
        <time>2018-11-18T10:07:06.000Z</time>
      </trkpt>
      <trkpt lat="42.6941" lon="1.65253">
        <ele>1414</ele>
        <time>2018-11-18T10:07:08.000Z</time>
      </trkpt>
      <trkpt lat="42.69409" lon="1.65251">
        <ele>1414</ele>
        <time>2018-11-18T10:07:10.000Z</time>
      </trkpt>
      <trkpt lat="42.69408" lon="1.65251">
        <ele>1414</ele>
        <time>2018-11-18T10:07:12.000Z</time>
      </trkpt>
      <trkpt lat="42.69407" lon="1.6525">
        <ele>1415</ele>
        <time>2018-11-18T10:07:14.000Z</time>
      </trkpt>
      <trkpt lat="42.69406" lon="1.65249">
        <ele>1415</ele>
        <time>2018-11-18T10:07:16.000Z</time>
      </trkpt>
      <trkpt lat="42.69405" lon="1.65249">
        <ele>1415</ele>
        <time>2018-11-18T10:07:18.000Z</time>
      </trkpt>
      <trkpt lat="42.69404" lon="1.65248">
        <ele>1416</ele>
        <time>2018-11-18T10:07:20.000Z</time>
      </trkpt>
      <trkpt lat="42.69404" lon="1.65247">
        <ele>1416</ele>
        <time>2018-11-18T10:07:22.000Z</time>
      </trkpt>
      <trkpt lat="42.69404" lon="1.65245">
        <ele>1415</ele>
        <time>2018-11-18T10:07:24.000Z</time>
      </trkpt>
      <trkpt lat="42.69404" lon="1.65243">
        <ele>1415</ele>
        <time>2018-11-18T10:07:26.000Z</time>
      </trkpt>
      <trkpt lat="42.69404" lon="1.65241">
        <ele>1414</ele>
        <time>2018-11-18T10:07:28.000Z</time>
      </trkpt>
      <trkpt lat="42.69404" lon="1.6524">
        <ele>1414</ele>
        <time>2018-11-18T10:07:30.000Z</time>
      </trkpt>
      <trkpt lat="42.69403" lon="1.65239">
        <ele>1414</ele>
        <time>2018-11-18T10:07:32.000Z</time>
      </trkpt>
      <trkpt lat="42.69403" lon="1.65238">
        <ele>1414</ele>
        <time>2018-11-18T10:07:34.000Z</time>
      </trkpt>
      <trkpt lat="42.69403" lon="1.65238">
        <ele>1414</ele>
        <time>2018-11-18T10:07:36.000Z</time>
      </trkpt>
      <trkpt lat="42.69402" lon="1.65238">
        <ele>1414</ele>
        <time>2018-11-18T10:07:38.000Z</time>
      </trkpt>
      <trkpt lat="42.69402" lon="1.65238">
        <ele>1415</ele>
        <time>2018-11-18T10:07:40.000Z</time>
      </trkpt>
      <trkpt lat="42.69401" lon="1.65238">
        <ele>1415</ele>
        <time>2018-11-18T10:07:42.000Z</time>
      </trkpt>
      <trkpt lat="42.69401" lon="1.65238">
        <ele>1415</ele>
        <time>2018-11-18T10:07:44.000Z</time>
      </trkpt>
      <trkpt lat="42.69401" lon="1.65238">
        <ele>1415</ele>
        <time>2018-11-18T10:07:46.000Z</time>
      </trkpt>
      <trkpt lat="42.69401" lon="1.65239">
        <ele>1415</ele>
        <time>2018-11-18T10:07:48.000Z</time>
      </trkpt>
      <trkpt lat="42.694" lon="1.65239">
        <ele>1415</ele>
        <time>2018-11-18T10:07:50.000Z</time>
      </trkpt>
      <trkpt lat="42.694" lon="1.65238">
        <ele>1416</ele>
        <time>2018-11-18T10:07:52.000Z</time>
      </trkpt>
      <trkpt lat="42.69399" lon="1.65238">
        <ele>1416</ele>
        <time>2018-11-18T10:07:54.000Z</time>
      </trkpt>
      <trkpt lat="42.69398" lon="1.65237">
        <ele>1416</ele>
        <time>2018-11-18T10:07:56.000Z</time>
      </trkpt>
      <trkpt lat="42.69397" lon="1.65238">
        <ele>1417</ele>
        <time>2018-11-18T10:07:58.000Z</time>
      </trkpt>
      <trkpt lat="42.69396" lon="1.65236">
        <ele>1416</ele>
        <time>2018-11-18T10:08:00.000Z</time>
      </trkpt>
      <trkpt lat="42.69396" lon="1.65234">
        <ele>1416</ele>
        <time>2018-11-18T10:08:02.000Z</time>
      </trkpt>
      <trkpt lat="42.69397" lon="1.65234">
        <ele>1416</ele>
        <time>2018-11-18T10:08:04.000Z</time>
      </trkpt>
      <trkpt lat="42.69396" lon="1.65233">
        <ele>1416</ele>
        <time>2018-11-18T10:08:06.000Z</time>
      </trkpt>
      <trkpt lat="42.69395" lon="1.65233">
        <ele>1417</ele>
        <time>2018-11-18T10:08:08.000Z</time>
      </trkpt>
      <trkpt lat="42.69394" lon="1.65232">
        <ele>1417</ele>
        <time>2018-11-18T10:08:10.000Z</time>
      </trkpt>
      <trkpt lat="42.69393" lon="1.65232">
        <ele>1417</ele>
        <time>2018-11-18T10:08:12.000Z</time>
      </trkpt>
      <trkpt lat="42.69391" lon="1.6523">
        <ele>1418</ele>
        <time>2018-11-18T10:08:14.000Z</time>
      </trkpt>
      <trkpt lat="42.6939" lon="1.6523">
        <ele>1418</ele>
        <time>2018-11-18T10:08:16.000Z</time>
      </trkpt>
      <trkpt lat="42.69389" lon="1.6523">
        <ele>1419</ele>
        <time>2018-11-18T10:08:18.000Z</time>
      </trkpt>
      <trkpt lat="42.69387" lon="1.6523">
        <ele>1420</ele>
        <time>2018-11-18T10:08:20.000Z</time>
      </trkpt>
      <trkpt lat="42.69386" lon="1.65231">
        <ele>1420</ele>
        <time>2018-11-18T10:08:22.000Z</time>
      </trkpt>
      <trkpt lat="42.69386" lon="1.65231">
        <ele>1420</ele>
        <time>2018-11-18T10:08:24.000Z</time>
      </trkpt>
      <trkpt lat="42.69385" lon="1.65231">
        <ele>1421</ele>
        <time>2018-11-18T10:08:26.000Z</time>
      </trkpt>
      <trkpt lat="42.69385" lon="1.65232">
        <ele>1421</ele>
        <time>2018-11-18T10:08:28.000Z</time>
      </trkpt>
      <trkpt lat="42.69384" lon="1.65231">
        <ele>1421</ele>
        <time>2018-11-18T10:08:30.000Z</time>
      </trkpt>
      <trkpt lat="42.69385" lon="1.65232">
        <ele>1421</ele>
        <time>2018-11-18T10:08:32.000Z</time>
      </trkpt>
      <trkpt lat="42.69386" lon="1.65233">
        <ele>1421</ele>
        <time>2018-11-18T10:08:34.000Z</time>
      </trkpt>
      <trkpt lat="42.69387" lon="1.65232">
        <ele>1420</ele>
        <time>2018-11-18T10:08:36.000Z</time>
      </trkpt>
      <trkpt lat="42.69387" lon="1.65231">
        <ele>1420</ele>
        <time>2018-11-18T10:08:38.000Z</time>
      </trkpt>
      <trkpt lat="42.69388" lon="1.65231">
        <ele>1420</ele>
        <time>2018-11-18T10:08:40.000Z</time>
      </trkpt>
      <trkpt lat="42.69388" lon="1.6523">
        <ele>1419</ele>
        <time>2018-11-18T10:08:42.000Z</time>
      </trkpt>
      <trkpt lat="42.69389" lon="1.6523">
        <ele>1419</ele>
        <time>2018-11-18T10:08:44.000Z</time>
      </trkpt>
      <trkpt lat="42.6939" lon="1.65227">
        <ele>1418</ele>
        <time>2018-11-18T10:08:46.000Z</time>
      </trkpt>
      <trkpt lat="42.69391" lon="1.65226">
        <ele>1417</ele>
        <time>2018-11-18T10:08:48.000Z</time>
      </trkpt>
      <trkpt lat="42.69392" lon="1.65225">
        <ele>1417</ele>
        <time>2018-11-18T10:08:50.000Z</time>
      </trkpt>
      <trkpt lat="42.69392" lon="1.65225">
        <ele>1417</ele>
        <time>2018-11-18T10:08:52.000Z</time>
      </trkpt>
      <trkpt lat="42.69393" lon="1.65223">
        <ele>1416</ele>
        <time>2018-11-18T10:08:54.000Z</time>
      </trkpt>
      <trkpt lat="42.69394" lon="1.65223">
        <ele>1416</ele>
        <time>2018-11-18T10:08:56.000Z</time>
      </trkpt>
      <trkpt lat="42.69394" lon="1.65222">
        <ele>1415</ele>
        <time>2018-11-18T10:08:58.000Z</time>
      </trkpt>
      <trkpt lat="42.69394" lon="1.65221">
        <ele>1415</ele>
        <time>2018-11-18T10:09:00.000Z</time>
      </trkpt>
      <trkpt lat="42.69394" lon="1.65218">
        <ele>1415</ele>
        <time>2018-11-18T10:09:02.000Z</time>
      </trkpt>
      <trkpt lat="42.69393" lon="1.65217">
        <ele>1415</ele>
        <time>2018-11-18T10:09:04.000Z</time>
      </trkpt>
      <trkpt lat="42.69392" lon="1.65217">
        <ele>1415</ele>
        <time>2018-11-18T10:09:06.000Z</time>
      </trkpt>
      <trkpt lat="42.69392" lon="1.65219">
        <ele>1416</ele>
        <time>2018-11-18T10:09:08.000Z</time>
      </trkpt>
      <trkpt lat="42.69392" lon="1.6522">
        <ele>1416</ele>
        <time>2018-11-18T10:09:10.000Z</time>
      </trkpt>
      <trkpt lat="42.69392" lon="1.65221">
        <ele>1416</ele>
        <time>2018-11-18T10:09:12.000Z</time>
      </trkpt>
      <trkpt lat="42.69391" lon="1.6522">
        <ele>1417</ele>
        <time>2018-11-18T10:09:14.000Z</time>
      </trkpt>
      <trkpt lat="42.69391" lon="1.6522">
        <ele>1417</ele>
        <time>2018-11-18T10:09:16.000Z</time>
      </trkpt>
      <trkpt lat="42.69391" lon="1.6522">
        <ele>1416</ele>
        <time>2018-11-18T10:09:18.000Z</time>
      </trkpt>
      <trkpt lat="42.69391" lon="1.6522">
        <ele>1416</ele>
        <time>2018-11-18T10:09:20.000Z</time>
      </trkpt>
      <trkpt lat="42.69392" lon="1.6522">
        <ele>1416</ele>
        <time>2018-11-18T10:09:22.000Z</time>
      </trkpt>
      <trkpt lat="42.69394" lon="1.65222">
        <ele>1415</ele>
        <time>2018-11-18T10:09:24.000Z</time>
      </trkpt>
      <trkpt lat="42.69395" lon="1.65223">
        <ele>1415</ele>
        <time>2018-11-18T10:09:26.000Z</time>
      </trkpt>
      <trkpt lat="42.69396" lon="1.65224">
        <ele>1415</ele>
        <time>2018-11-18T10:09:28.000Z</time>
      </trkpt>
      <trkpt lat="42.69396" lon="1.65225">
        <ele>1415</ele>
        <time>2018-11-18T10:09:30.000Z</time>
      </trkpt>
      <trkpt lat="42.69396" lon="1.65226">
        <ele>1415</ele>
        <time>2018-11-18T10:09:32.000Z</time>
      </trkpt>
      <trkpt lat="42.69396" lon="1.65227">
        <ele>1415</ele>
        <time>2018-11-18T10:09:34.000Z</time>
      </trkpt>
      <trkpt lat="42.69396" lon="1.65227">
        <ele>1415</ele>
        <time>2018-11-18T10:09:36.000Z</time>
      </trkpt>
      <trkpt lat="42.69397" lon="1.65227">
        <ele>1415</ele>
        <time>2018-11-18T10:09:38.000Z</time>
      </trkpt>
      <trkpt lat="42.69398" lon="1.65228">
        <ele>1414</ele>
        <time>2018-11-18T10:09:40.000Z</time>
      </trkpt>
      <trkpt lat="42.69399" lon="1.65228">
        <ele>1414</ele>
        <time>2018-11-18T10:09:42.000Z</time>
      </trkpt>
      <trkpt lat="42.694" lon="1.65228">
        <ele>1414</ele>
        <time>2018-11-18T10:09:44.000Z</time>
      </trkpt>
      <trkpt lat="42.694" lon="1.65229">
        <ele>1414</ele>
        <time>2018-11-18T10:09:46.000Z</time>
      </trkpt>
      <trkpt lat="42.69401" lon="1.65229">
        <ele>1413</ele>
        <time>2018-11-18T10:09:48.000Z</time>
      </trkpt>
      <trkpt lat="42.69401" lon="1.65229">
        <ele>1413</ele>
        <time>2018-11-18T10:09:50.000Z</time>
      </trkpt>
      <trkpt lat="42.694" lon="1.65229">
        <ele>1414</ele>
        <time>2018-11-18T10:09:52.000Z</time>
      </trkpt>
      <trkpt lat="42.694" lon="1.65229">
        <ele>1414</ele>
        <time>2018-11-18T10:09:54.000Z</time>
      </trkpt>
      <trkpt lat="42.69401" lon="1.6523">
        <ele>1414</ele>
        <time>2018-11-18T10:09:56.000Z</time>
      </trkpt>
      <trkpt lat="42.694" lon="1.6523">
        <ele>1414</ele>
        <time>2018-11-18T10:09:58.000Z</time>
      </trkpt>
      <trkpt lat="42.69401" lon="1.6523">
        <ele>1414</ele>
        <time>2018-11-18T10:10:00.000Z</time>
      </trkpt>
      <trkpt lat="42.69401" lon="1.6523">
        <ele>1414</ele>
        <time>2018-11-18T10:10:02.000Z</time>
      </trkpt>
      <trkpt lat="42.69401" lon="1.65229">
        <ele>1414</ele>
        <time>2018-11-18T10:10:04.000Z</time>
      </trkpt>
      <trkpt lat="42.694" lon="1.6523">
        <ele>1414</ele>
        <time>2018-11-18T10:10:06.000Z</time>
      </trkpt>
      <trkpt lat="42.694" lon="1.6523">
        <ele>1414</ele>
        <time>2018-11-18T10:10:08.000Z</time>
      </trkpt>
      <trkpt lat="42.69399" lon="1.6523">
        <ele>1414</ele>
        <time>2018-11-18T10:10:10.000Z</time>
      </trkpt>
      <trkpt lat="42.69398" lon="1.65229">
        <ele>1415</ele>
        <time>2018-11-18T10:10:12.000Z</time>
      </trkpt>
      <trkpt lat="42.69397" lon="1.65229">
        <ele>1415</ele>
        <time>2018-11-18T10:10:14.000Z</time>
      </trkpt>
      <trkpt lat="42.69397" lon="1.65229">
        <ele>1415</ele>
        <time>2018-11-18T10:10:16.000Z</time>
      </trkpt>
      <trkpt lat="42.69397" lon="1.65228">
        <ele>1415</ele>
        <time>2018-11-18T10:10:18.000Z</time>
      </trkpt>
      <trkpt lat="42.69397" lon="1.65227">
        <ele>1415</ele>
        <time>2018-11-18T10:10:20.000Z</time>
      </trkpt>
      <trkpt lat="42.69396" lon="1.65227">
        <ele>1415</ele>
        <time>2018-11-18T10:10:22.000Z</time>
      </trkpt>
      <trkpt lat="42.69396" lon="1.65226">
        <ele>1415</ele>
        <time>2018-11-18T10:10:24.000Z</time>
      </trkpt>
      <trkpt lat="42.69396" lon="1.65226">
        <ele>1415</ele>
        <time>2018-11-18T10:10:26.000Z</time>
      </trkpt>
      <trkpt lat="42.69396" lon="1.65227">
        <ele>1415</ele>
        <time>2018-11-18T10:10:28.000Z</time>
      </trkpt>
      <trkpt lat="42.69396" lon="1.65226">
        <ele>1415</ele>
        <time>2018-11-18T10:10:30.000Z</time>
      </trkpt>
      <trkpt lat="42.69396" lon="1.65226">
        <ele>1415</ele>
        <time>2018-11-18T10:10:32.000Z</time>
      </trkpt>
      <trkpt lat="42.69396" lon="1.65225">
        <ele>1415</ele>
        <time>2018-11-18T10:10:34.000Z</time>
      </trkpt>
      <trkpt lat="42.69396" lon="1.65224">
        <ele>1415</ele>
        <time>2018-11-18T10:10:36.000Z</time>
      </trkpt>
      <trkpt lat="42.69396" lon="1.65225">
        <ele>1415</ele>
        <time>2018-11-18T10:10:38.000Z</time>
      </trkpt>
      <trkpt lat="42.69395" lon="1.65225">
        <ele>1415</ele>
        <time>2018-11-18T10:10:40.000Z</time>
      </trkpt>
      <trkpt lat="42.69394" lon="1.65225">
        <ele>1416</ele>
        <time>2018-11-18T10:10:42.000Z</time>
      </trkpt>
      <trkpt lat="42.69394" lon="1.65224">
        <ele>1416</ele>
        <time>2018-11-18T10:10:44.000Z</time>
      </trkpt>
      <trkpt lat="42.69394" lon="1.65223">
        <ele>1415</ele>
        <time>2018-11-18T10:10:46.000Z</time>
      </trkpt>
      <trkpt lat="42.69395" lon="1.65222">
        <ele>1415</ele>
        <time>2018-11-18T10:10:48.000Z</time>
      </trkpt>
      <trkpt lat="42.69395" lon="1.65222">
        <ele>1415</ele>
        <time>2018-11-18T10:10:50.000Z</time>
      </trkpt>
      <trkpt lat="42.69395" lon="1.65222">
        <ele>1415</ele>
        <time>2018-11-18T10:10:52.000Z</time>
      </trkpt>
      <trkpt lat="42.69395" lon="1.65223">
        <ele>1415</ele>
        <time>2018-11-18T10:10:54.000Z</time>
      </trkpt>
      <trkpt lat="42.69395" lon="1.65223">
        <ele>1415</ele>
        <time>2018-11-18T10:10:56.000Z</time>
      </trkpt>
      <trkpt lat="42.69395" lon="1.65224">
        <ele>1415</ele>
        <time>2018-11-18T10:10:58.000Z</time>
      </trkpt>
      <trkpt lat="42.69395" lon="1.65224">
        <ele>1415</ele>
        <time>2018-11-18T10:11:00.000Z</time>
      </trkpt>
      <trkpt lat="42.69395" lon="1.65224">
        <ele>1415</ele>
        <time>2018-11-18T10:11:02.000Z</time>
      </trkpt>
      <trkpt lat="42.69395" lon="1.65224">
        <ele>1415</ele>
        <time>2018-11-18T10:11:04.000Z</time>
      </trkpt>
      <trkpt lat="42.69394" lon="1.65225">
        <ele>1416</ele>
        <time>2018-11-18T10:11:06.000Z</time>
      </trkpt>
      <trkpt lat="42.69394" lon="1.65225">
        <ele>1416</ele>
        <time>2018-11-18T10:11:08.000Z</time>
      </trkpt>
      <trkpt lat="42.69393" lon="1.65226">
        <ele>1417</ele>
        <time>2018-11-18T10:11:10.000Z</time>
      </trkpt>
      <trkpt lat="42.69392" lon="1.65226">
        <ele>1417</ele>
        <time>2018-11-18T10:11:12.000Z</time>
      </trkpt>
      <trkpt lat="42.69391" lon="1.65226">
        <ele>1417</ele>
        <time>2018-11-18T10:11:14.000Z</time>
      </trkpt>
      <trkpt lat="42.69391" lon="1.65225">
        <ele>1417</ele>
        <time>2018-11-18T10:11:16.000Z</time>
      </trkpt>
      <trkpt lat="42.6939" lon="1.65225">
        <ele>1418</ele>
        <time>2018-11-18T10:11:18.000Z</time>
      </trkpt>
      <trkpt lat="42.69391" lon="1.65224">
        <ele>1417</ele>
        <time>2018-11-18T10:11:20.000Z</time>
      </trkpt>
      <trkpt lat="42.69392" lon="1.65224">
        <ele>1417</ele>
        <time>2018-11-18T10:11:22.000Z</time>
      </trkpt>
      <trkpt lat="42.69392" lon="1.65224">
        <ele>1416</ele>
        <time>2018-11-18T10:11:24.000Z</time>
      </trkpt>
      <trkpt lat="42.69393" lon="1.65224">
        <ele>1416</ele>
        <time>2018-11-18T10:11:26.000Z</time>
      </trkpt>
      <trkpt lat="42.69393" lon="1.65224">
        <ele>1416</ele>
        <time>2018-11-18T10:11:28.000Z</time>
      </trkpt>
      <trkpt lat="42.69393" lon="1.65225">
        <ele>1416</ele>
        <time>2018-11-18T10:11:30.000Z</time>
      </trkpt>
      <trkpt lat="42.69393" lon="1.65226">
        <ele>1416</ele>
        <time>2018-11-18T10:11:32.000Z</time>
      </trkpt>
      <trkpt lat="42.69393" lon="1.65227">
        <ele>1417</ele>
        <time>2018-11-18T10:11:34.000Z</time>
      </trkpt>
      <trkpt lat="42.69393" lon="1.65227">
        <ele>1417</ele>
        <time>2018-11-18T10:11:36.000Z</time>
      </trkpt>
      <trkpt lat="42.69392" lon="1.65228">
        <ele>1417</ele>
        <time>2018-11-18T10:11:38.000Z</time>
      </trkpt>
      <trkpt lat="42.69393" lon="1.65229">
        <ele>1417</ele>
        <time>2018-11-18T10:11:40.000Z</time>
      </trkpt>
      <trkpt lat="42.69393" lon="1.6523">
        <ele>1417</ele>
        <time>2018-11-18T10:11:42.000Z</time>
      </trkpt>
      <trkpt lat="42.69393" lon="1.65231">
        <ele>1417</ele>
        <time>2018-11-18T10:11:44.000Z</time>
      </trkpt>
      <trkpt lat="42.69392" lon="1.65232">
        <ele>1418</ele>
        <time>2018-11-18T10:11:46.000Z</time>
      </trkpt>
      <trkpt lat="42.69392" lon="1.65234">
        <ele>1418</ele>
        <time>2018-11-18T10:11:48.000Z</time>
      </trkpt>
      <trkpt lat="42.69391" lon="1.65235">
        <ele>1419</ele>
        <time>2018-11-18T10:11:50.000Z</time>
      </trkpt>
      <trkpt lat="42.6939" lon="1.65237">
        <ele>1419</ele>
        <time>2018-11-18T10:11:52.000Z</time>
      </trkpt>
      <trkpt lat="42.6939" lon="1.65237">
        <ele>1420</ele>
        <time>2018-11-18T10:11:54.000Z</time>
      </trkpt>
      <trkpt lat="42.6939" lon="1.65237">
        <ele>1419</ele>
        <time>2018-11-18T10:11:56.000Z</time>
      </trkpt>
      <trkpt lat="42.6939" lon="1.65237">
        <ele>1419</ele>
        <time>2018-11-18T10:11:58.000Z</time>
      </trkpt>
      <trkpt lat="42.6939" lon="1.65237">
        <ele>1419</ele>
        <time>2018-11-18T10:12:00.000Z</time>
      </trkpt>
      <trkpt lat="42.6939" lon="1.65237">
        <ele>1419</ele>
        <time>2018-11-18T10:12:02.000Z</time>
      </trkpt>
      <trkpt lat="42.6939" lon="1.65238">
        <ele>1420</ele>
        <time>2018-11-18T10:12:04.000Z</time>
      </trkpt>
      <trkpt lat="42.6939" lon="1.65239">
        <ele>1420</ele>
        <time>2018-11-18T10:12:06.000Z</time>
      </trkpt>
      <trkpt lat="42.6939" lon="1.6524">
        <ele>1420</ele>
        <time>2018-11-18T10:12:08.000Z</time>
      </trkpt>
      <trkpt lat="42.6939" lon="1.65239">
        <ele>1420</ele>
        <time>2018-11-18T10:12:10.000Z</time>
      </trkpt>
      <trkpt lat="42.69391" lon="1.65238">
        <ele>1420</ele>
        <time>2018-11-18T10:12:12.000Z</time>
      </trkpt>
      <trkpt lat="42.69391" lon="1.65238">
        <ele>1419</ele>
        <time>2018-11-18T10:12:14.000Z</time>
      </trkpt>
      <trkpt lat="42.69391" lon="1.65239">
        <ele>1420</ele>
        <time>2018-11-18T10:12:16.000Z</time>
      </trkpt>
      <trkpt lat="42.6939" lon="1.65239">
        <ele>1420</ele>
        <time>2018-11-18T10:12:18.000Z</time>
      </trkpt>
      <trkpt lat="42.6939" lon="1.65239">
        <ele>1420</ele>
        <time>2018-11-18T10:12:20.000Z</time>
      </trkpt>
      <trkpt lat="42.6939" lon="1.65239">
        <ele>1420</ele>
        <time>2018-11-18T10:12:22.000Z</time>
      </trkpt>
      <trkpt lat="42.6939" lon="1.65239">
        <ele>1420</ele>
        <time>2018-11-18T10:12:24.000Z</time>
      </trkpt>
      <trkpt lat="42.69389" lon="1.65239">
        <ele>1420</ele>
        <time>2018-11-18T10:12:26.000Z</time>
      </trkpt>
      <trkpt lat="42.6939" lon="1.6524">
        <ele>1420</ele>
        <time>2018-11-18T10:12:28.000Z</time>
      </trkpt>
      <trkpt lat="42.6939" lon="1.6524">
        <ele>1420</ele>
        <time>2018-11-18T10:12:30.000Z</time>
      </trkpt>
      <trkpt lat="42.69391" lon="1.6524">
        <ele>1420</ele>
        <time>2018-11-18T10:12:32.000Z</time>
      </trkpt>
      <trkpt lat="42.69391" lon="1.65239">
        <ele>1419</ele>
        <time>2018-11-18T10:12:34.000Z</time>
      </trkpt>
      <trkpt lat="42.69392" lon="1.65239">
        <ele>1419</ele>
        <time>2018-11-18T10:12:36.000Z</time>
      </trkpt>
      <trkpt lat="42.69393" lon="1.65237">
        <ele>1418</ele>
        <time>2018-11-18T10:12:38.000Z</time>
      </trkpt>
      <trkpt lat="42.69393" lon="1.65234">
        <ele>1418</ele>
        <time>2018-11-18T10:12:40.000Z</time>
      </trkpt>
      <trkpt lat="42.69394" lon="1.65232">
        <ele>1417</ele>
        <time>2018-11-18T10:12:42.000Z</time>
      </trkpt>
      <trkpt lat="42.69394" lon="1.6523">
        <ele>1417</ele>
        <time>2018-11-18T10:12:44.000Z</time>
      </trkpt>
      <trkpt lat="42.69394" lon="1.65229">
        <ele>1416</ele>
        <time>2018-11-18T10:12:46.000Z</time>
      </trkpt>
      <trkpt lat="42.69394" lon="1.65229">
        <ele>1416</ele>
        <time>2018-11-18T10:12:48.000Z</time>
      </trkpt>
      <trkpt lat="42.69394" lon="1.65228">
        <ele>1416</ele>
        <time>2018-11-18T10:12:50.000Z</time>
      </trkpt>
      <trkpt lat="42.69394" lon="1.65227">
        <ele>1416</ele>
        <time>2018-11-18T10:12:52.000Z</time>
      </trkpt>
      <trkpt lat="42.69394" lon="1.65226">
        <ele>1416</ele>
        <time>2018-11-18T10:12:54.000Z</time>
      </trkpt>
      <trkpt lat="42.69394" lon="1.65225">
        <ele>1416</ele>
        <time>2018-11-18T10:12:56.000Z</time>
      </trkpt>
      <trkpt lat="42.69394" lon="1.65224">
        <ele>1415</ele>
        <time>2018-11-18T10:12:58.000Z</time>
      </trkpt>
      <trkpt lat="42.69395" lon="1.65221">
        <ele>1415</ele>
        <time>2018-11-18T10:13:00.000Z</time>
      </trkpt>
      <trkpt lat="42.69395" lon="1.65218">
        <ele>1414</ele>
        <time>2018-11-18T10:13:02.000Z</time>
      </trkpt>
      <trkpt lat="42.69396" lon="1.65216">
        <ele>1414</ele>
        <time>2018-11-18T10:13:04.000Z</time>
      </trkpt>
      <trkpt lat="42.69397" lon="1.65215">
        <ele>1413</ele>
        <time>2018-11-18T10:13:06.000Z</time>
      </trkpt>
      <trkpt lat="42.69397" lon="1.65213">
        <ele>1413</ele>
        <time>2018-11-18T10:13:08.000Z</time>
      </trkpt>
      <trkpt lat="42.69398" lon="1.65214">
        <ele>1412</ele>
        <time>2018-11-18T10:13:10.000Z</time>
      </trkpt>
      <trkpt lat="42.69398" lon="1.65214">
        <ele>1412</ele>
        <time>2018-11-18T10:13:12.000Z</time>
      </trkpt>
      <trkpt lat="42.69398" lon="1.65215">
        <ele>1413</ele>
        <time>2018-11-18T10:13:14.000Z</time>
      </trkpt>
      <trkpt lat="42.69397" lon="1.65215">
        <ele>1413</ele>
        <time>2018-11-18T10:13:16.000Z</time>
      </trkpt>
      <trkpt lat="42.69397" lon="1.65215">
        <ele>1413</ele>
        <time>2018-11-18T10:13:18.000Z</time>
      </trkpt>
      <trkpt lat="42.69397" lon="1.65216">
        <ele>1413</ele>
        <time>2018-11-18T10:13:20.000Z</time>
      </trkpt>
      <trkpt lat="42.69397" lon="1.65217">
        <ele>1413</ele>
        <time>2018-11-18T10:13:22.000Z</time>
      </trkpt>
      <trkpt lat="42.69397" lon="1.65219">
        <ele>1414</ele>
        <time>2018-11-18T10:13:24.000Z</time>
      </trkpt>
      <trkpt lat="42.69397" lon="1.65219">
        <ele>1414</ele>
        <time>2018-11-18T10:13:26.000Z</time>
      </trkpt>
      <trkpt lat="42.69397" lon="1.65221">
        <ele>1414</ele>
        <time>2018-11-18T10:13:28.000Z</time>
      </trkpt>
      <trkpt lat="42.69396" lon="1.65222">
        <ele>1414</ele>
        <time>2018-11-18T10:13:30.000Z</time>
      </trkpt>
      <trkpt lat="42.69396" lon="1.65222">
        <ele>1415</ele>
        <time>2018-11-18T10:13:32.000Z</time>
      </trkpt>
      <trkpt lat="42.69395" lon="1.65223">
        <ele>1415</ele>
        <time>2018-11-18T10:13:34.000Z</time>
      </trkpt>
      <trkpt lat="42.69394" lon="1.65224">
        <ele>1415</ele>
        <time>2018-11-18T10:13:36.000Z</time>
      </trkpt>
      <trkpt lat="42.69394" lon="1.65224">
        <ele>1416</ele>
        <time>2018-11-18T10:13:38.000Z</time>
      </trkpt>
      <trkpt lat="42.69394" lon="1.65224">
        <ele>1416</ele>
        <time>2018-11-18T10:13:40.000Z</time>
      </trkpt>
      <trkpt lat="42.69393" lon="1.65223">
        <ele>1416</ele>
        <time>2018-11-18T10:13:42.000Z</time>
      </trkpt>
      <trkpt lat="42.69393" lon="1.65222">
        <ele>1416</ele>
        <time>2018-11-18T10:13:44.000Z</time>
      </trkpt>
      <trkpt lat="42.69393" lon="1.65222">
        <ele>1416</ele>
        <time>2018-11-18T10:13:46.000Z</time>
      </trkpt>
      <trkpt lat="42.69392" lon="1.65222">
        <ele>1416</ele>
        <time>2018-11-18T10:13:48.000Z</time>
      </trkpt>
      <trkpt lat="42.69392" lon="1.65222">
        <ele>1416</ele>
        <time>2018-11-18T10:13:50.000Z</time>
      </trkpt>
      <trkpt lat="42.69391" lon="1.65221">
        <ele>1417</ele>
        <time>2018-11-18T10:13:52.000Z</time>
      </trkpt>
      <trkpt lat="42.6939" lon="1.65222">
        <ele>1417</ele>
        <time>2018-11-18T10:13:54.000Z</time>
      </trkpt>
      <trkpt lat="42.6939" lon="1.65222">
        <ele>1417</ele>
        <time>2018-11-18T10:13:56.000Z</time>
      </trkpt>
      <trkpt lat="42.6939" lon="1.65223">
        <ele>1417</ele>
        <time>2018-11-18T10:13:58.000Z</time>
      </trkpt>
      <trkpt lat="42.6939" lon="1.65224">
        <ele>1417</ele>
        <time>2018-11-18T10:14:00.000Z</time>
      </trkpt>
      <trkpt lat="42.6939" lon="1.65224">
        <ele>1417</ele>
        <time>2018-11-18T10:14:02.000Z</time>
      </trkpt>
      <trkpt lat="42.6939" lon="1.65224">
        <ele>1417</ele>
        <time>2018-11-18T10:14:04.000Z</time>
      </trkpt>
      <trkpt lat="42.6939" lon="1.65224">
        <ele>1417</ele>
        <time>2018-11-18T10:14:06.000Z</time>
      </trkpt>
      <trkpt lat="42.6939" lon="1.65224">
        <ele>1417</ele>
        <time>2018-11-18T10:14:08.000Z</time>
      </trkpt>
      <trkpt lat="42.6939" lon="1.65224">
        <ele>1417</ele>
        <time>2018-11-18T10:14:10.000Z</time>
      </trkpt>
      <trkpt lat="42.69392" lon="1.65224">
        <ele>1417</ele>
        <time>2018-11-18T10:14:12.000Z</time>
      </trkpt>
      <trkpt lat="42.69392" lon="1.65224">
        <ele>1416</ele>
        <time>2018-11-18T10:14:14.000Z</time>
      </trkpt>
      <trkpt lat="42.69393" lon="1.65224">
        <ele>1416</ele>
        <time>2018-11-18T10:14:16.000Z</time>
      </trkpt>
      <trkpt lat="42.69393" lon="1.65224">
        <ele>1416</ele>
        <time>2018-11-18T10:14:18.000Z</time>
      </trkpt>
      <trkpt lat="42.69393" lon="1.65224">
        <ele>1416</ele>
        <time>2018-11-18T10:14:20.000Z</time>
      </trkpt>
      <trkpt lat="42.69393" lon="1.65224">
        <ele>1416</ele>
        <time>2018-11-18T10:14:22.000Z</time>
      </trkpt>
      <trkpt lat="42.69393" lon="1.65224">
        <ele>1416</ele>
        <time>2018-11-18T10:14:24.000Z</time>
      </trkpt>
      <trkpt lat="42.69393" lon="1.65223">
        <ele>1416</ele>
        <time>2018-11-18T10:14:26.000Z</time>
      </trkpt>
      <trkpt lat="42.69393" lon="1.65223">
        <ele>1416</ele>
        <time>2018-11-18T10:14:28.000Z</time>
      </trkpt>
      <trkpt lat="42.69394" lon="1.65224">
        <ele>1416</ele>
        <time>2018-11-18T10:14:30.000Z</time>
      </trkpt>
      <trkpt lat="42.69395" lon="1.65223">
        <ele>1415</ele>
        <time>2018-11-18T10:14:32.000Z</time>
      </trkpt>
      <trkpt lat="42.69395" lon="1.65224">
        <ele>1415</ele>
        <time>2018-11-18T10:14:34.000Z</time>
      </trkpt>
      <trkpt lat="42.69395" lon="1.65224">
        <ele>1415</ele>
        <time>2018-11-18T10:14:36.000Z</time>
      </trkpt>
      <trkpt lat="42.69394" lon="1.65223">
        <ele>1415</ele>
        <time>2018-11-18T10:14:38.000Z</time>
      </trkpt>
      <trkpt lat="42.69394" lon="1.65223">
        <ele>1415</ele>
        <time>2018-11-18T10:14:40.000Z</time>
      </trkpt>
      <trkpt lat="42.69393" lon="1.65223">
        <ele>1416</ele>
        <time>2018-11-18T10:14:42.000Z</time>
      </trkpt>
      <trkpt lat="42.69393" lon="1.65224">
        <ele>1416</ele>
        <time>2018-11-18T10:14:44.000Z</time>
      </trkpt>
      <trkpt lat="42.69393" lon="1.65225">
        <ele>1416</ele>
        <time>2018-11-18T10:14:46.000Z</time>
      </trkpt>
      <trkpt lat="42.69393" lon="1.65225">
        <ele>1416</ele>
        <time>2018-11-18T10:14:48.000Z</time>
      </trkpt>
      <trkpt lat="42.69393" lon="1.65226">
        <ele>1416</ele>
        <time>2018-11-18T10:14:50.000Z</time>
      </trkpt>
      <trkpt lat="42.69394" lon="1.65226">
        <ele>1416</ele>
        <time>2018-11-18T10:14:52.000Z</time>
      </trkpt>
      <trkpt lat="42.69395" lon="1.65225">
        <ele>1416</ele>
        <time>2018-11-18T10:14:54.000Z</time>
      </trkpt>
      <trkpt lat="42.69395" lon="1.65225">
        <ele>1415</ele>
        <time>2018-11-18T10:14:56.000Z</time>
      </trkpt>
      <trkpt lat="42.69396" lon="1.65224">
        <ele>1415</ele>
        <time>2018-11-18T10:14:58.000Z</time>
      </trkpt>
      <trkpt lat="42.69395" lon="1.65223">
        <ele>1415</ele>
        <time>2018-11-18T10:15:00.000Z</time>
      </trkpt>
      <trkpt lat="42.69395" lon="1.65222">
        <ele>1415</ele>
        <time>2018-11-18T10:15:02.000Z</time>
      </trkpt>
      <trkpt lat="42.69395" lon="1.65222">
        <ele>1415</ele>
        <time>2018-11-18T10:15:04.000Z</time>
      </trkpt>
      <trkpt lat="42.69395" lon="1.65221">
        <ele>1415</ele>
        <time>2018-11-18T10:15:06.000Z</time>
      </trkpt>
      <trkpt lat="42.69395" lon="1.6522">
        <ele>1414</ele>
        <time>2018-11-18T10:15:08.000Z</time>
      </trkpt>
      <trkpt lat="42.69396" lon="1.6522">
        <ele>1414</ele>
        <time>2018-11-18T10:15:10.000Z</time>
      </trkpt>
      <trkpt lat="42.69396" lon="1.6522">
        <ele>1414</ele>
        <time>2018-11-18T10:15:12.000Z</time>
      </trkpt>
      <trkpt lat="42.69396" lon="1.6522">
        <ele>1414</ele>
        <time>2018-11-18T10:15:14.000Z</time>
      </trkpt>
      <trkpt lat="42.69396" lon="1.6522">
        <ele>1414</ele>
        <time>2018-11-18T10:15:16.000Z</time>
      </trkpt>
      <trkpt lat="42.69396" lon="1.6522">
        <ele>1414</ele>
        <time>2018-11-18T10:15:18.000Z</time>
      </trkpt>
      <trkpt lat="42.69395" lon="1.65224">
        <ele>1415</ele>
        <time>2018-11-18T10:15:20.000Z</time>
      </trkpt>
      <trkpt lat="42.69394" lon="1.65226">
        <ele>1416</ele>
        <time>2018-11-18T10:15:22.000Z</time>
      </trkpt>
      <trkpt lat="42.69393" lon="1.65227">
        <ele>1417</ele>
        <time>2018-11-18T10:15:24.000Z</time>
      </trkpt>
      <trkpt lat="42.69392" lon="1.65227">
        <ele>1417</ele>
        <time>2018-11-18T10:15:26.000Z</time>
      </trkpt>
      <trkpt lat="42.69391" lon="1.65226">
        <ele>1417</ele>
        <time>2018-11-18T10:15:28.000Z</time>
      </trkpt>
      <trkpt lat="42.69391" lon="1.65225">
        <ele>1417</ele>
        <time>2018-11-18T10:15:30.000Z</time>
      </trkpt>
      <trkpt lat="42.69391" lon="1.65225">
        <ele>1417</ele>
        <time>2018-11-18T10:15:32.000Z</time>
      </trkpt>
      <trkpt lat="42.69391" lon="1.65224">
        <ele>1417</ele>
        <time>2018-11-18T10:15:34.000Z</time>
      </trkpt>
      <trkpt lat="42.6939" lon="1.65224">
        <ele>1417</ele>
        <time>2018-11-18T10:15:36.000Z</time>
      </trkpt>
      <trkpt lat="42.6939" lon="1.65225">
        <ele>1417</ele>
        <time>2018-11-18T10:15:38.000Z</time>
      </trkpt>
      <trkpt lat="42.6939" lon="1.65224">
        <ele>1417</ele>
        <time>2018-11-18T10:15:40.000Z</time>
      </trkpt>
      <trkpt lat="42.69391" lon="1.65224">
        <ele>1417</ele>
        <time>2018-11-18T10:15:42.000Z</time>
      </trkpt>
      <trkpt lat="42.69391" lon="1.65224">
        <ele>1417</ele>
        <time>2018-11-18T10:15:44.000Z</time>
      </trkpt>
      <trkpt lat="42.69392" lon="1.65225">
        <ele>1417</ele>
        <time>2018-11-18T10:15:46.000Z</time>
      </trkpt>
      <trkpt lat="42.69391" lon="1.65227">
        <ele>1418</ele>
        <time>2018-11-18T10:15:48.000Z</time>
      </trkpt>
      <trkpt lat="42.6939" lon="1.65229">
        <ele>1418</ele>
        <time>2018-11-18T10:15:50.000Z</time>
      </trkpt>
      <trkpt lat="42.69389" lon="1.65231">
        <ele>1419</ele>
        <time>2018-11-18T10:15:52.000Z</time>
      </trkpt>
      <trkpt lat="42.69388" lon="1.65232">
        <ele>1420</ele>
        <time>2018-11-18T10:15:54.000Z</time>
      </trkpt>
      <trkpt lat="42.69385" lon="1.65233">
        <ele>1421</ele>
        <time>2018-11-18T10:15:56.000Z</time>
      </trkpt>
      <trkpt lat="42.69384" lon="1.65233">
        <ele>1422</ele>
        <time>2018-11-18T10:15:58.000Z</time>
      </trkpt>
      <trkpt lat="42.69382" lon="1.65233">
        <ele>1422</ele>
        <time>2018-11-18T10:16:00.000Z</time>
      </trkpt>
      <trkpt lat="42.69381" lon="1.65233">
        <ele>1423</ele>
        <time>2018-11-18T10:16:02.000Z</time>
      </trkpt>
      <trkpt lat="42.6938" lon="1.65234">
        <ele>1424</ele>
        <time>2018-11-18T10:16:04.000Z</time>
      </trkpt>
      <trkpt lat="42.69379" lon="1.65235">
        <ele>1424</ele>
        <time>2018-11-18T10:16:06.000Z</time>
      </trkpt>
      <trkpt lat="42.69378" lon="1.65235">
        <ele>1424</ele>
        <time>2018-11-18T10:16:08.000Z</time>
      </trkpt>
      <trkpt lat="42.69377" lon="1.65235">
        <ele>1425</ele>
        <time>2018-11-18T10:16:10.000Z</time>
      </trkpt>
      <trkpt lat="42.69376" lon="1.65234">
        <ele>1425</ele>
        <time>2018-11-18T10:16:12.000Z</time>
      </trkpt>
      <trkpt lat="42.69376" lon="1.65234">
        <ele>1425</ele>
        <time>2018-11-18T10:16:14.000Z</time>
      </trkpt>
      <trkpt lat="42.69375" lon="1.65233">
        <ele>1426</ele>
        <time>2018-11-18T10:16:16.000Z</time>
      </trkpt>
      <trkpt lat="42.69374" lon="1.65234">
        <ele>1426</ele>
        <time>2018-11-18T10:16:18.000Z</time>
      </trkpt>
      <trkpt lat="42.69374" lon="1.65233">
        <ele>1426</ele>
        <time>2018-11-18T10:16:20.000Z</time>
      </trkpt>
      <trkpt lat="42.69373" lon="1.65233">
        <ele>1426</ele>
        <time>2018-11-18T10:16:22.000Z</time>
      </trkpt>
      <trkpt lat="42.69372" lon="1.65233">
        <ele>1427</ele>
        <time>2018-11-18T10:16:24.000Z</time>
      </trkpt>
      <trkpt lat="42.69371" lon="1.65233">
        <ele>1427</ele>
        <time>2018-11-18T10:16:26.000Z</time>
      </trkpt>
      <trkpt lat="42.69371" lon="1.65231">
        <ele>1427</ele>
        <time>2018-11-18T10:16:28.000Z</time>
      </trkpt>
      <trkpt lat="42.69371" lon="1.6523">
        <ele>1427</ele>
        <time>2018-11-18T10:16:30.000Z</time>
      </trkpt>
      <trkpt lat="42.69371" lon="1.65229">
        <ele>1427</ele>
        <time>2018-11-18T10:16:32.000Z</time>
      </trkpt>
      <trkpt lat="42.6937" lon="1.65227">
        <ele>1427</ele>
        <time>2018-11-18T10:16:34.000Z</time>
      </trkpt>
      <trkpt lat="42.6937" lon="1.65226">
        <ele>1427</ele>
        <time>2018-11-18T10:16:36.000Z</time>
      </trkpt>
      <trkpt lat="42.69369" lon="1.65226">
        <ele>1427</ele>
        <time>2018-11-18T10:16:38.000Z</time>
      </trkpt>
      <trkpt lat="42.69368" lon="1.65225">
        <ele>1427</ele>
        <time>2018-11-18T10:16:40.000Z</time>
      </trkpt>
      <trkpt lat="42.69367" lon="1.65225">
        <ele>1428</ele>
        <time>2018-11-18T10:16:42.000Z</time>
      </trkpt>
      <trkpt lat="42.69365" lon="1.65224">
        <ele>1428</ele>
        <time>2018-11-18T10:16:44.000Z</time>
      </trkpt>
      <trkpt lat="42.69365" lon="1.65224">
        <ele>1429</ele>
        <time>2018-11-18T10:16:46.000Z</time>
      </trkpt>
      <trkpt lat="42.69364" lon="1.65224">
        <ele>1429</ele>
        <time>2018-11-18T10:16:48.000Z</time>
      </trkpt>
      <trkpt lat="42.69363" lon="1.65224">
        <ele>1429</ele>
        <time>2018-11-18T10:16:50.000Z</time>
      </trkpt>
      <trkpt lat="42.69362" lon="1.65223">
        <ele>1430</ele>
        <time>2018-11-18T10:16:52.000Z</time>
      </trkpt>
      <trkpt lat="42.69361" lon="1.65223">
        <ele>1430</ele>
        <time>2018-11-18T10:16:54.000Z</time>
      </trkpt>
      <trkpt lat="42.6936" lon="1.65223">
        <ele>1431</ele>
        <time>2018-11-18T10:16:56.000Z</time>
      </trkpt>
      <trkpt lat="42.69359" lon="1.65224">
        <ele>1431</ele>
        <time>2018-11-18T10:16:58.000Z</time>
      </trkpt>
      <trkpt lat="42.69359" lon="1.65224">
        <ele>1431</ele>
        <time>2018-11-18T10:17:00.000Z</time>
      </trkpt>
      <trkpt lat="42.69358" lon="1.65224">
        <ele>1432</ele>
        <time>2018-11-18T10:17:02.000Z</time>
      </trkpt>
      <trkpt lat="42.69358" lon="1.65223">
        <ele>1431</ele>
        <time>2018-11-18T10:17:04.000Z</time>
      </trkpt>
      <trkpt lat="42.69359" lon="1.65223">
        <ele>1431</ele>
        <time>2018-11-18T10:17:06.000Z</time>
      </trkpt>
      <trkpt lat="42.69358" lon="1.65223">
        <ele>1431</ele>
        <time>2018-11-18T10:17:08.000Z</time>
      </trkpt>
      <trkpt lat="42.69358" lon="1.65222">
        <ele>1431</ele>
        <time>2018-11-18T10:17:10.000Z</time>
      </trkpt>
      <trkpt lat="42.69358" lon="1.65223">
        <ele>1432</ele>
        <time>2018-11-18T10:17:12.000Z</time>
      </trkpt>
      <trkpt lat="42.69357" lon="1.65222">
        <ele>1432</ele>
        <time>2018-11-18T10:17:14.000Z</time>
      </trkpt>
      <trkpt lat="42.69357" lon="1.65222">
        <ele>1432</ele>
        <time>2018-11-18T10:17:16.000Z</time>
      </trkpt>
      <trkpt lat="42.69356" lon="1.65221">
        <ele>1432</ele>
        <time>2018-11-18T10:17:18.000Z</time>
      </trkpt>
      <trkpt lat="42.69356" lon="1.65221">
        <ele>1432</ele>
        <time>2018-11-18T10:17:20.000Z</time>
      </trkpt>
      <trkpt lat="42.69357" lon="1.65219">
        <ele>1432</ele>
        <time>2018-11-18T10:17:22.000Z</time>
      </trkpt>
      <trkpt lat="42.69358" lon="1.65218">
        <ele>1431</ele>
        <time>2018-11-18T10:17:24.000Z</time>
      </trkpt>
      <trkpt lat="42.69358" lon="1.65217">
        <ele>1431</ele>
        <time>2018-11-18T10:17:26.000Z</time>
      </trkpt>
      <trkpt lat="42.69359" lon="1.65216">
        <ele>1430</ele>
        <time>2018-11-18T10:17:28.000Z</time>
      </trkpt>
      <trkpt lat="42.6936" lon="1.65214">
        <ele>1429</ele>
        <time>2018-11-18T10:17:30.000Z</time>
      </trkpt>
      <trkpt lat="42.69361" lon="1.65212">
        <ele>1429</ele>
        <time>2018-11-18T10:17:32.000Z</time>
      </trkpt>
      <trkpt lat="42.69361" lon="1.65213">
        <ele>1429</ele>
        <time>2018-11-18T10:17:34.000Z</time>
      </trkpt>
      <trkpt lat="42.69361" lon="1.65212">
        <ele>1428</ele>
        <time>2018-11-18T10:17:36.000Z</time>
      </trkpt>
      <trkpt lat="42.69361" lon="1.65211">
        <ele>1428</ele>
        <time>2018-11-18T10:17:38.000Z</time>
      </trkpt>
      <trkpt lat="42.69363" lon="1.6521">
        <ele>1427</ele>
        <time>2018-11-18T10:17:40.000Z</time>
      </trkpt>
      <trkpt lat="42.69363" lon="1.6521">
        <ele>1427</ele>
        <time>2018-11-18T10:17:42.000Z</time>
      </trkpt>
      <trkpt lat="42.69362" lon="1.65209">
        <ele>1427</ele>
        <time>2018-11-18T10:17:44.000Z</time>
      </trkpt>
      <trkpt lat="42.69362" lon="1.65209">
        <ele>1428</ele>
        <time>2018-11-18T10:17:46.000Z</time>
      </trkpt>
      <trkpt lat="42.69361" lon="1.65209">
        <ele>1428</ele>
        <time>2018-11-18T10:17:48.000Z</time>
      </trkpt>
      <trkpt lat="42.69359" lon="1.65208">
        <ele>1429</ele>
        <time>2018-11-18T10:17:50.000Z</time>
      </trkpt>
      <trkpt lat="42.69358" lon="1.65207">
        <ele>1429</ele>
        <time>2018-11-18T10:17:52.000Z</time>
      </trkpt>
      <trkpt lat="42.69357" lon="1.65207">
        <ele>1430</ele>
        <time>2018-11-18T10:17:54.000Z</time>
      </trkpt>
      <trkpt lat="42.69355" lon="1.65205">
        <ele>1430</ele>
        <time>2018-11-18T10:17:56.000Z</time>
      </trkpt>
      <trkpt lat="42.69354" lon="1.65204">
        <ele>1430</ele>
        <time>2018-11-18T10:17:58.000Z</time>
      </trkpt>
      <trkpt lat="42.69351" lon="1.65203">
        <ele>1431</ele>
        <time>2018-11-18T10:18:00.000Z</time>
      </trkpt>
      <trkpt lat="42.69349" lon="1.65203">
        <ele>1432</ele>
        <time>2018-11-18T10:18:02.000Z</time>
      </trkpt>
      <trkpt lat="42.69348" lon="1.65203">
        <ele>1433</ele>
        <time>2018-11-18T10:18:04.000Z</time>
      </trkpt>
      <trkpt lat="42.69347" lon="1.65203">
        <ele>1433</ele>
        <time>2018-11-18T10:18:06.000Z</time>
      </trkpt>
      <trkpt lat="42.69346" lon="1.65203">
        <ele>1434</ele>
        <time>2018-11-18T10:18:08.000Z</time>
      </trkpt>
      <trkpt lat="42.69345" lon="1.65204">
        <ele>1434</ele>
        <time>2018-11-18T10:18:10.000Z</time>
      </trkpt>
      <trkpt lat="42.69344" lon="1.65204">
        <ele>1435</ele>
        <time>2018-11-18T10:18:12.000Z</time>
      </trkpt>
      <trkpt lat="42.69343" lon="1.65204">
        <ele>1435</ele>
        <time>2018-11-18T10:18:14.000Z</time>
      </trkpt>
      <trkpt lat="42.69342" lon="1.65202">
        <ele>1436</ele>
        <time>2018-11-18T10:18:16.000Z</time>
      </trkpt>
      <trkpt lat="42.6934" lon="1.65202">
        <ele>1436</ele>
        <time>2018-11-18T10:18:18.000Z</time>
      </trkpt>
      <trkpt lat="42.6934" lon="1.65202">
        <ele>1436</ele>
        <time>2018-11-18T10:18:20.000Z</time>
      </trkpt>
      <trkpt lat="42.69338" lon="1.65201">
        <ele>1437</ele>
        <time>2018-11-18T10:18:22.000Z</time>
      </trkpt>
      <trkpt lat="42.69338" lon="1.652">
        <ele>1437</ele>
        <time>2018-11-18T10:18:24.000Z</time>
      </trkpt>
      <trkpt lat="42.69338" lon="1.65199">
        <ele>1437</ele>
        <time>2018-11-18T10:18:26.000Z</time>
      </trkpt>
      <trkpt lat="42.69337" lon="1.65198">
        <ele>1437</ele>
        <time>2018-11-18T10:18:28.000Z</time>
      </trkpt>
      <trkpt lat="42.69337" lon="1.65198">
        <ele>1437</ele>
        <time>2018-11-18T10:18:30.000Z</time>
      </trkpt>
      <trkpt lat="42.69336" lon="1.65196">
        <ele>1437</ele>
        <time>2018-11-18T10:18:32.000Z</time>
      </trkpt>
      <trkpt lat="42.69336" lon="1.65194">
        <ele>1437</ele>
        <time>2018-11-18T10:18:34.000Z</time>
      </trkpt>
      <trkpt lat="42.69336" lon="1.65193">
        <ele>1437</ele>
        <time>2018-11-18T10:18:36.000Z</time>
      </trkpt>
      <trkpt lat="42.69334" lon="1.65193">
        <ele>1437</ele>
        <time>2018-11-18T10:18:38.000Z</time>
      </trkpt>
      <trkpt lat="42.69333" lon="1.65194">
        <ele>1437</ele>
        <time>2018-11-18T10:18:40.000Z</time>
      </trkpt>
      <trkpt lat="42.69332" lon="1.65193">
        <ele>1437</ele>
        <time>2018-11-18T10:18:42.000Z</time>
      </trkpt>
      <trkpt lat="42.69332" lon="1.65193">
        <ele>1437</ele>
        <time>2018-11-18T10:18:44.000Z</time>
      </trkpt>
      <trkpt lat="42.69331" lon="1.65193">
        <ele>1438</ele>
        <time>2018-11-18T10:18:46.000Z</time>
      </trkpt>
      <trkpt lat="42.69329" lon="1.65193">
        <ele>1438</ele>
        <time>2018-11-18T10:18:48.000Z</time>
      </trkpt>
      <trkpt lat="42.69328" lon="1.65193">
        <ele>1438</ele>
        <time>2018-11-18T10:18:50.000Z</time>
      </trkpt>
      <trkpt lat="42.69327" lon="1.65192">
        <ele>1438</ele>
        <time>2018-11-18T10:18:52.000Z</time>
      </trkpt>
      <trkpt lat="42.69326" lon="1.6519">
        <ele>1438</ele>
        <time>2018-11-18T10:18:54.000Z</time>
      </trkpt>
      <trkpt lat="42.69326" lon="1.65189">
        <ele>1438</ele>
        <time>2018-11-18T10:18:56.000Z</time>
      </trkpt>
      <trkpt lat="42.69326" lon="1.65187">
        <ele>1438</ele>
        <time>2018-11-18T10:18:58.000Z</time>
      </trkpt>
      <trkpt lat="42.69326" lon="1.65186">
        <ele>1438</ele>
        <time>2018-11-18T10:19:00.000Z</time>
      </trkpt>
      <trkpt lat="42.69325" lon="1.65185">
        <ele>1438</ele>
        <time>2018-11-18T10:19:02.000Z</time>
      </trkpt>
      <trkpt lat="42.69324" lon="1.65184">
        <ele>1438</ele>
        <time>2018-11-18T10:19:04.000Z</time>
      </trkpt>
      <trkpt lat="42.69323" lon="1.65184">
        <ele>1438</ele>
        <time>2018-11-18T10:19:06.000Z</time>
      </trkpt>
      <trkpt lat="42.69322" lon="1.65184">
        <ele>1438</ele>
        <time>2018-11-18T10:19:08.000Z</time>
      </trkpt>
      <trkpt lat="42.69321" lon="1.65183">
        <ele>1438</ele>
        <time>2018-11-18T10:19:10.000Z</time>
      </trkpt>
      <trkpt lat="42.69319" lon="1.65184">
        <ele>1439</ele>
        <time>2018-11-18T10:19:12.000Z</time>
      </trkpt>
      <trkpt lat="42.69317" lon="1.65184">
        <ele>1439</ele>
        <time>2018-11-18T10:19:14.000Z</time>
      </trkpt>
      <trkpt lat="42.69316" lon="1.65184">
        <ele>1440</ele>
        <time>2018-11-18T10:19:16.000Z</time>
      </trkpt>
      <trkpt lat="42.69314" lon="1.65185">
        <ele>1440</ele>
        <time>2018-11-18T10:19:18.000Z</time>
      </trkpt>
      <trkpt lat="42.69313" lon="1.65184">
        <ele>1440</ele>
        <time>2018-11-18T10:19:20.000Z</time>
      </trkpt>
      <trkpt lat="42.69312" lon="1.65183">
        <ele>1440</ele>
        <time>2018-11-18T10:19:22.000Z</time>
      </trkpt>
      <trkpt lat="42.69312" lon="1.65182">
        <ele>1440</ele>
        <time>2018-11-18T10:19:24.000Z</time>
      </trkpt>
      <trkpt lat="42.69311" lon="1.65183">
        <ele>1441</ele>
        <time>2018-11-18T10:19:26.000Z</time>
      </trkpt>
      <trkpt lat="42.6931" lon="1.65183">
        <ele>1441</ele>
        <time>2018-11-18T10:19:28.000Z</time>
      </trkpt>
      <trkpt lat="42.6931" lon="1.65182">
        <ele>1441</ele>
        <time>2018-11-18T10:19:30.000Z</time>
      </trkpt>
      <trkpt lat="42.6931" lon="1.65182">
        <ele>1441</ele>
        <time>2018-11-18T10:19:32.000Z</time>
      </trkpt>
      <trkpt lat="42.6931" lon="1.65182">
        <ele>1441</ele>
        <time>2018-11-18T10:19:34.000Z</time>
      </trkpt>
      <trkpt lat="42.69309" lon="1.65182">
        <ele>1441</ele>
        <time>2018-11-18T10:19:36.000Z</time>
      </trkpt>
      <trkpt lat="42.69309" lon="1.65182">
        <ele>1441</ele>
        <time>2018-11-18T10:19:38.000Z</time>
      </trkpt>
      <trkpt lat="42.69309" lon="1.65183">
        <ele>1441</ele>
        <time>2018-11-18T10:19:40.000Z</time>
      </trkpt>
      <trkpt lat="42.69308" lon="1.65183">
        <ele>1441</ele>
        <time>2018-11-18T10:19:42.000Z</time>
      </trkpt>
      <trkpt lat="42.69307" lon="1.65183">
        <ele>1442</ele>
        <time>2018-11-18T10:19:44.000Z</time>
      </trkpt>
      <trkpt lat="42.69306" lon="1.65183">
        <ele>1442</ele>
        <time>2018-11-18T10:19:46.000Z</time>
      </trkpt>
      <trkpt lat="42.69306" lon="1.65182">
        <ele>1442</ele>
        <time>2018-11-18T10:19:48.000Z</time>
      </trkpt>
      <trkpt lat="42.69305" lon="1.65182">
        <ele>1442</ele>
        <time>2018-11-18T10:19:50.000Z</time>
      </trkpt>
      <trkpt lat="42.69304" lon="1.65182">
        <ele>1442</ele>
        <time>2018-11-18T10:19:52.000Z</time>
      </trkpt>
      <trkpt lat="42.69303" lon="1.65182">
        <ele>1442</ele>
        <time>2018-11-18T10:19:54.000Z</time>
      </trkpt>
      <trkpt lat="42.69303" lon="1.65181">
        <ele>1442</ele>
        <time>2018-11-18T10:19:56.000Z</time>
      </trkpt>
      <trkpt lat="42.69303" lon="1.6518">
        <ele>1442</ele>
        <time>2018-11-18T10:19:58.000Z</time>
      </trkpt>
      <trkpt lat="42.69303" lon="1.65179">
        <ele>1442</ele>
        <time>2018-11-18T10:20:00.000Z</time>
      </trkpt>
      <trkpt lat="42.69302" lon="1.65178">
        <ele>1442</ele>
        <time>2018-11-18T10:20:02.000Z</time>
      </trkpt>
      <trkpt lat="42.69302" lon="1.65177">
        <ele>1442</ele>
        <time>2018-11-18T10:20:04.000Z</time>
      </trkpt>
      <trkpt lat="42.69302" lon="1.65176">
        <ele>1442</ele>
        <time>2018-11-18T10:20:06.000Z</time>
      </trkpt>
      <trkpt lat="42.69301" lon="1.65174">
        <ele>1441</ele>
        <time>2018-11-18T10:20:08.000Z</time>
      </trkpt>
      <trkpt lat="42.69302" lon="1.65173">
        <ele>1441</ele>
        <time>2018-11-18T10:20:10.000Z</time>
      </trkpt>
      <trkpt lat="42.69302" lon="1.65173">
        <ele>1441</ele>
        <time>2018-11-18T10:20:12.000Z</time>
      </trkpt>
      <trkpt lat="42.69301" lon="1.65172">
        <ele>1441</ele>
        <time>2018-11-18T10:20:14.000Z</time>
      </trkpt>
      <trkpt lat="42.69301" lon="1.65172">
        <ele>1441</ele>
        <time>2018-11-18T10:20:16.000Z</time>
      </trkpt>
      <trkpt lat="42.69302" lon="1.65172">
        <ele>1441</ele>
        <time>2018-11-18T10:20:18.000Z</time>
      </trkpt>
      <trkpt lat="42.69302" lon="1.65172">
        <ele>1441</ele>
        <time>2018-11-18T10:20:20.000Z</time>
      </trkpt>
      <trkpt lat="42.69302" lon="1.65172">
        <ele>1441</ele>
        <time>2018-11-18T10:20:22.000Z</time>
      </trkpt>
      <trkpt lat="42.69302" lon="1.65171">
        <ele>1441</ele>
        <time>2018-11-18T10:20:24.000Z</time>
      </trkpt>
      <trkpt lat="42.69303" lon="1.6517">
        <ele>1440</ele>
        <time>2018-11-18T10:20:26.000Z</time>
      </trkpt>
      <trkpt lat="42.69303" lon="1.65169">
        <ele>1440</ele>
        <time>2018-11-18T10:20:28.000Z</time>
      </trkpt>
      <trkpt lat="42.69303" lon="1.65169">
        <ele>1440</ele>
        <time>2018-11-18T10:20:30.000Z</time>
      </trkpt>
      <trkpt lat="42.69304" lon="1.65168">
        <ele>1440</ele>
        <time>2018-11-18T10:20:32.000Z</time>
      </trkpt>
      <trkpt lat="42.69304" lon="1.65168">
        <ele>1440</ele>
        <time>2018-11-18T10:20:34.000Z</time>
      </trkpt>
      <trkpt lat="42.69304" lon="1.65167">
        <ele>1440</ele>
        <time>2018-11-18T10:20:36.000Z</time>
      </trkpt>
      <trkpt lat="42.69304" lon="1.65166">
        <ele>1440</ele>
        <time>2018-11-18T10:20:38.000Z</time>
      </trkpt>
      <trkpt lat="42.69304" lon="1.65166">
        <ele>1440</ele>
        <time>2018-11-18T10:20:40.000Z</time>
      </trkpt>
      <trkpt lat="42.69304" lon="1.65166">
        <ele>1439</ele>
        <time>2018-11-18T10:20:42.000Z</time>
      </trkpt>
      <trkpt lat="42.69305" lon="1.65166">
        <ele>1439</ele>
        <time>2018-11-18T10:20:44.000Z</time>
      </trkpt>
      <trkpt lat="42.69304" lon="1.65166">
        <ele>1439</ele>
        <time>2018-11-18T10:20:46.000Z</time>
      </trkpt>
      <trkpt lat="42.69303" lon="1.65165">
        <ele>1440</ele>
        <time>2018-11-18T10:20:48.000Z</time>
      </trkpt>
      <trkpt lat="42.69301" lon="1.65165">
        <ele>1440</ele>
        <time>2018-11-18T10:20:50.000Z</time>
      </trkpt>
      <trkpt lat="42.69299" lon="1.65165">
        <ele>1440</ele>
        <time>2018-11-18T10:20:52.000Z</time>
      </trkpt>
      <trkpt lat="42.69298" lon="1.65164">
        <ele>1441</ele>
        <time>2018-11-18T10:20:54.000Z</time>
      </trkpt>
      <trkpt lat="42.69296" lon="1.65164">
        <ele>1441</ele>
        <time>2018-11-18T10:20:56.000Z</time>
      </trkpt>
      <trkpt lat="42.69295" lon="1.65164">
        <ele>1441</ele>
        <time>2018-11-18T10:20:58.000Z</time>
      </trkpt>
      <trkpt lat="42.69295" lon="1.65163">
        <ele>1441</ele>
        <time>2018-11-18T10:21:00.000Z</time>
      </trkpt>
      <trkpt lat="42.69293" lon="1.65163">
        <ele>1442</ele>
        <time>2018-11-18T10:21:02.000Z</time>
      </trkpt>
      <trkpt lat="42.69292" lon="1.65162">
        <ele>1442</ele>
        <time>2018-11-18T10:21:04.000Z</time>
      </trkpt>
      <trkpt lat="42.69291" lon="1.65163">
        <ele>1442</ele>
        <time>2018-11-18T10:21:06.000Z</time>
      </trkpt>
      <trkpt lat="42.6929" lon="1.65162">
        <ele>1442</ele>
        <time>2018-11-18T10:21:08.000Z</time>
      </trkpt>
      <trkpt lat="42.69289" lon="1.65163">
        <ele>1443</ele>
        <time>2018-11-18T10:21:10.000Z</time>
      </trkpt>
      <trkpt lat="42.69288" lon="1.65162">
        <ele>1443</ele>
        <time>2018-11-18T10:21:12.000Z</time>
      </trkpt>
      <trkpt lat="42.69287" lon="1.65162">
        <ele>1443</ele>
        <time>2018-11-18T10:21:14.000Z</time>
      </trkpt>
      <trkpt lat="42.69286" lon="1.65162">
        <ele>1443</ele>
        <time>2018-11-18T10:21:16.000Z</time>
      </trkpt>
      <trkpt lat="42.69285" lon="1.65161">
        <ele>1443</ele>
        <time>2018-11-18T10:21:18.000Z</time>
      </trkpt>
      <trkpt lat="42.69285" lon="1.6516">
        <ele>1443</ele>
        <time>2018-11-18T10:21:20.000Z</time>
      </trkpt>
      <trkpt lat="42.69285" lon="1.65159">
        <ele>1443</ele>
        <time>2018-11-18T10:21:22.000Z</time>
      </trkpt>
      <trkpt lat="42.69285" lon="1.65159">
        <ele>1443</ele>
        <time>2018-11-18T10:21:24.000Z</time>
      </trkpt>
      <trkpt lat="42.69285" lon="1.65158">
        <ele>1443</ele>
        <time>2018-11-18T10:21:26.000Z</time>
      </trkpt>
      <trkpt lat="42.69285" lon="1.65157">
        <ele>1443</ele>
        <time>2018-11-18T10:21:28.000Z</time>
      </trkpt>
      <trkpt lat="42.69284" lon="1.65155">
        <ele>1442</ele>
        <time>2018-11-18T10:21:30.000Z</time>
      </trkpt>
      <trkpt lat="42.69284" lon="1.65154">
        <ele>1442</ele>
        <time>2018-11-18T10:21:32.000Z</time>
      </trkpt>
      <trkpt lat="42.69283" lon="1.65153">
        <ele>1442</ele>
        <time>2018-11-18T10:21:34.000Z</time>
      </trkpt>
      <trkpt lat="42.69283" lon="1.65152">
        <ele>1442</ele>
        <time>2018-11-18T10:21:36.000Z</time>
      </trkpt>
      <trkpt lat="42.69284" lon="1.65151">
        <ele>1442</ele>
        <time>2018-11-18T10:21:38.000Z</time>
      </trkpt>
      <trkpt lat="42.69283" lon="1.6515">
        <ele>1442</ele>
        <time>2018-11-18T10:21:40.000Z</time>
      </trkpt>
      <trkpt lat="42.69282" lon="1.65149">
        <ele>1442</ele>
        <time>2018-11-18T10:21:42.000Z</time>
      </trkpt>
      <trkpt lat="42.69282" lon="1.65149">
        <ele>1442</ele>
        <time>2018-11-18T10:21:44.000Z</time>
      </trkpt>
      <trkpt lat="42.69281" lon="1.65148">
        <ele>1442</ele>
        <time>2018-11-18T10:21:46.000Z</time>
      </trkpt>
      <trkpt lat="42.69281" lon="1.65148">
        <ele>1442</ele>
        <time>2018-11-18T10:21:48.000Z</time>
      </trkpt>
      <trkpt lat="42.6928" lon="1.65148">
        <ele>1442</ele>
        <time>2018-11-18T10:21:50.000Z</time>
      </trkpt>
      <trkpt lat="42.6928" lon="1.65149">
        <ele>1442</ele>
        <time>2018-11-18T10:21:52.000Z</time>
      </trkpt>
      <trkpt lat="42.6928" lon="1.65149">
        <ele>1442</ele>
        <time>2018-11-18T10:21:54.000Z</time>
      </trkpt>
      <trkpt lat="42.69279" lon="1.6515">
        <ele>1443</ele>
        <time>2018-11-18T10:21:56.000Z</time>
      </trkpt>
      <trkpt lat="42.69279" lon="1.6515">
        <ele>1443</ele>
        <time>2018-11-18T10:21:58.000Z</time>
      </trkpt>
      <trkpt lat="42.69278" lon="1.65149">
        <ele>1443</ele>
        <time>2018-11-18T10:22:00.000Z</time>
      </trkpt>
      <trkpt lat="42.69278" lon="1.65149">
        <ele>1443</ele>
        <time>2018-11-18T10:22:02.000Z</time>
      </trkpt>
      <trkpt lat="42.69278" lon="1.65148">
        <ele>1442</ele>
        <time>2018-11-18T10:22:04.000Z</time>
      </trkpt>
      <trkpt lat="42.69279" lon="1.65147">
        <ele>1442</ele>
        <time>2018-11-18T10:22:06.000Z</time>
      </trkpt>
      <trkpt lat="42.69279" lon="1.65146">
        <ele>1442</ele>
        <time>2018-11-18T10:22:08.000Z</time>
      </trkpt>
      <trkpt lat="42.69279" lon="1.65145">
        <ele>1442</ele>
        <time>2018-11-18T10:22:10.000Z</time>
      </trkpt>
      <trkpt lat="42.69279" lon="1.65144">
        <ele>1442</ele>
        <time>2018-11-18T10:22:12.000Z</time>
      </trkpt>
      <trkpt lat="42.69279" lon="1.65143">
        <ele>1441</ele>
        <time>2018-11-18T10:22:14.000Z</time>
      </trkpt>
      <trkpt lat="42.69279" lon="1.65142">
        <ele>1441</ele>
        <time>2018-11-18T10:22:16.000Z</time>
      </trkpt>
      <trkpt lat="42.69279" lon="1.65141">
        <ele>1441</ele>
        <time>2018-11-18T10:22:18.000Z</time>
      </trkpt>
      <trkpt lat="42.69278" lon="1.6514">
        <ele>1441</ele>
        <time>2018-11-18T10:22:20.000Z</time>
      </trkpt>
      <trkpt lat="42.69279" lon="1.65139">
        <ele>1441</ele>
        <time>2018-11-18T10:22:22.000Z</time>
      </trkpt>
      <trkpt lat="42.69279" lon="1.65138">
        <ele>1441</ele>
        <time>2018-11-18T10:22:24.000Z</time>
      </trkpt>
      <trkpt lat="42.69279" lon="1.65138">
        <ele>1441</ele>
        <time>2018-11-18T10:22:26.000Z</time>
      </trkpt>
      <trkpt lat="42.69279" lon="1.65138">
        <ele>1441</ele>
        <time>2018-11-18T10:22:28.000Z</time>
      </trkpt>
      <trkpt lat="42.69279" lon="1.65138">
        <ele>1441</ele>
        <time>2018-11-18T10:22:30.000Z</time>
      </trkpt>
      <trkpt lat="42.69279" lon="1.65138">
        <ele>1441</ele>
        <time>2018-11-18T10:22:32.000Z</time>
      </trkpt>
      <trkpt lat="42.69279" lon="1.65138">
        <ele>1441</ele>
        <time>2018-11-18T10:22:34.000Z</time>
      </trkpt>
      <trkpt lat="42.69278" lon="1.65138">
        <ele>1441</ele>
        <time>2018-11-18T10:22:36.000Z</time>
      </trkpt>
      <trkpt lat="42.69278" lon="1.65139">
        <ele>1441</ele>
        <time>2018-11-18T10:22:38.000Z</time>
      </trkpt>
      <trkpt lat="42.69277" lon="1.65139">
        <ele>1441</ele>
        <time>2018-11-18T10:22:40.000Z</time>
      </trkpt>
      <trkpt lat="42.69277" lon="1.65139">
        <ele>1441</ele>
        <time>2018-11-18T10:22:42.000Z</time>
      </trkpt>
      <trkpt lat="42.69276" lon="1.65139">
        <ele>1441</ele>
        <time>2018-11-18T10:22:44.000Z</time>
      </trkpt>
      <trkpt lat="42.69275" lon="1.65139">
        <ele>1442</ele>
        <time>2018-11-18T10:22:46.000Z</time>
      </trkpt>
      <trkpt lat="42.69275" lon="1.6514">
        <ele>1442</ele>
        <time>2018-11-18T10:22:48.000Z</time>
      </trkpt>
      <trkpt lat="42.69275" lon="1.65139">
        <ele>1442</ele>
        <time>2018-11-18T10:22:50.000Z</time>
      </trkpt>
      <trkpt lat="42.69275" lon="1.65139">
        <ele>1442</ele>
        <time>2018-11-18T10:22:52.000Z</time>
      </trkpt>
      <trkpt lat="42.69276" lon="1.65139">
        <ele>1441</ele>
        <time>2018-11-18T10:22:54.000Z</time>
      </trkpt>
      <trkpt lat="42.69276" lon="1.65139">
        <ele>1441</ele>
        <time>2018-11-18T10:22:56.000Z</time>
      </trkpt>
      <trkpt lat="42.69276" lon="1.65139">
        <ele>1441</ele>
        <time>2018-11-18T10:22:58.000Z</time>
      </trkpt>
      <trkpt lat="42.69276" lon="1.6514">
        <ele>1442</ele>
        <time>2018-11-18T10:23:00.000Z</time>
      </trkpt>
      <trkpt lat="42.69275" lon="1.65141">
        <ele>1442</ele>
        <time>2018-11-18T10:23:02.000Z</time>
      </trkpt>
      <trkpt lat="42.69275" lon="1.65141">
        <ele>1442</ele>
        <time>2018-11-18T10:23:04.000Z</time>
      </trkpt>
      <trkpt lat="42.69274" lon="1.65142">
        <ele>1442</ele>
        <time>2018-11-18T10:23:06.000Z</time>
      </trkpt>
      <trkpt lat="42.69273" lon="1.65144">
        <ele>1443</ele>
        <time>2018-11-18T10:23:08.000Z</time>
      </trkpt>
      <trkpt lat="42.69272" lon="1.65145">
        <ele>1443</ele>
        <time>2018-11-18T10:23:10.000Z</time>
      </trkpt>
      <trkpt lat="42.69272" lon="1.65145">
        <ele>1443</ele>
        <time>2018-11-18T10:23:12.000Z</time>
      </trkpt>
      <trkpt lat="42.69271" lon="1.65145">
        <ele>1444</ele>
        <time>2018-11-18T10:23:14.000Z</time>
      </trkpt>
      <trkpt lat="42.69271" lon="1.65145">
        <ele>1444</ele>
        <time>2018-11-18T10:23:16.000Z</time>
      </trkpt>
      <trkpt lat="42.6927" lon="1.65145">
        <ele>1444</ele>
        <time>2018-11-18T10:23:18.000Z</time>
      </trkpt>
      <trkpt lat="42.69269" lon="1.65145">
        <ele>1444</ele>
        <time>2018-11-18T10:23:20.000Z</time>
      </trkpt>
      <trkpt lat="42.69268" lon="1.65145">
        <ele>1444</ele>
        <time>2018-11-18T10:23:22.000Z</time>
      </trkpt>
      <trkpt lat="42.69267" lon="1.65145">
        <ele>1444</ele>
        <time>2018-11-18T10:23:24.000Z</time>
      </trkpt>
      <trkpt lat="42.69267" lon="1.65146">
        <ele>1445</ele>
        <time>2018-11-18T10:23:26.000Z</time>
      </trkpt>
      <trkpt lat="42.69267" lon="1.65146">
        <ele>1445</ele>
        <time>2018-11-18T10:23:28.000Z</time>
      </trkpt>
      <trkpt lat="42.69265" lon="1.65146">
        <ele>1445</ele>
        <time>2018-11-18T10:23:30.000Z</time>
      </trkpt>
      <trkpt lat="42.69264" lon="1.65146">
        <ele>1445</ele>
        <time>2018-11-18T10:23:32.000Z</time>
      </trkpt>
      <trkpt lat="42.69264" lon="1.65145">
        <ele>1445</ele>
        <time>2018-11-18T10:23:34.000Z</time>
      </trkpt>
      <trkpt lat="42.69263" lon="1.65144">
        <ele>1445</ele>
        <time>2018-11-18T10:23:36.000Z</time>
      </trkpt>
      <trkpt lat="42.69263" lon="1.65143">
        <ele>1445</ele>
        <time>2018-11-18T10:23:38.000Z</time>
      </trkpt>
      <trkpt lat="42.69262" lon="1.65143">
        <ele>1445</ele>
        <time>2018-11-18T10:23:40.000Z</time>
      </trkpt>
      <trkpt lat="42.69261" lon="1.65143">
        <ele>1446</ele>
        <time>2018-11-18T10:23:42.000Z</time>
      </trkpt>
      <trkpt lat="42.69261" lon="1.65143">
        <ele>1446</ele>
        <time>2018-11-18T10:23:44.000Z</time>
      </trkpt>
      <trkpt lat="42.6926" lon="1.65143">
        <ele>1446</ele>
        <time>2018-11-18T10:23:46.000Z</time>
      </trkpt>
      <trkpt lat="42.69259" lon="1.65142">
        <ele>1446</ele>
        <time>2018-11-18T10:23:48.000Z</time>
      </trkpt>
      <trkpt lat="42.69258" lon="1.65142">
        <ele>1446</ele>
        <time>2018-11-18T10:23:50.000Z</time>
      </trkpt>
      <trkpt lat="42.69258" lon="1.65141">
        <ele>1446</ele>
        <time>2018-11-18T10:23:52.000Z</time>
      </trkpt>
      <trkpt lat="42.69257" lon="1.65141">
        <ele>1446</ele>
        <time>2018-11-18T10:23:54.000Z</time>
      </trkpt>
      <trkpt lat="42.69256" lon="1.6514">
        <ele>1446</ele>
        <time>2018-11-18T10:23:56.000Z</time>
      </trkpt>
      <trkpt lat="42.69256" lon="1.6514">
        <ele>1446</ele>
        <time>2018-11-18T10:23:58.000Z</time>
      </trkpt>
      <trkpt lat="42.69255" lon="1.6514">
        <ele>1446</ele>
        <time>2018-11-18T10:24:00.000Z</time>
      </trkpt>
      <trkpt lat="42.69255" lon="1.6514">
        <ele>1446</ele>
        <time>2018-11-18T10:24:02.000Z</time>
      </trkpt>
      <trkpt lat="42.69255" lon="1.65139">
        <ele>1446</ele>
        <time>2018-11-18T10:24:04.000Z</time>
      </trkpt>
      <trkpt lat="42.69256" lon="1.6514">
        <ele>1446</ele>
        <time>2018-11-18T10:24:06.000Z</time>
      </trkpt>
      <trkpt lat="42.69256" lon="1.6514">
        <ele>1446</ele>
        <time>2018-11-18T10:24:08.000Z</time>
      </trkpt>
      <trkpt lat="42.69255" lon="1.6514">
        <ele>1446</ele>
        <time>2018-11-18T10:24:10.000Z</time>
      </trkpt>
      <trkpt lat="42.69255" lon="1.6514">
        <ele>1446</ele>
        <time>2018-11-18T10:24:12.000Z</time>
      </trkpt>
      <trkpt lat="42.69254" lon="1.65141">
        <ele>1447</ele>
        <time>2018-11-18T10:24:14.000Z</time>
      </trkpt>
      <trkpt lat="42.69254" lon="1.65141">
        <ele>1447</ele>
        <time>2018-11-18T10:24:16.000Z</time>
      </trkpt>
      <trkpt lat="42.69253" lon="1.6514">
        <ele>1447</ele>
        <time>2018-11-18T10:24:18.000Z</time>
      </trkpt>
      <trkpt lat="42.69253" lon="1.6514">
        <ele>1447</ele>
        <time>2018-11-18T10:24:20.000Z</time>
      </trkpt>
      <trkpt lat="42.69252" lon="1.6514">
        <ele>1447</ele>
        <time>2018-11-18T10:24:22.000Z</time>
      </trkpt>
      <trkpt lat="42.69252" lon="1.65139">
        <ele>1447</ele>
        <time>2018-11-18T10:24:24.000Z</time>
      </trkpt>
      <trkpt lat="42.69251" lon="1.65139">
        <ele>1447</ele>
        <time>2018-11-18T10:24:26.000Z</time>
      </trkpt>
      <trkpt lat="42.6925" lon="1.65138">
        <ele>1447</ele>
        <time>2018-11-18T10:24:28.000Z</time>
      </trkpt>
      <trkpt lat="42.69249" lon="1.65138">
        <ele>1447</ele>
        <time>2018-11-18T10:24:30.000Z</time>
      </trkpt>
      <trkpt lat="42.69249" lon="1.65138">
        <ele>1447</ele>
        <time>2018-11-18T10:24:32.000Z</time>
      </trkpt>
      <trkpt lat="42.69248" lon="1.65137">
        <ele>1447</ele>
        <time>2018-11-18T10:24:34.000Z</time>
      </trkpt>
      <trkpt lat="42.69247" lon="1.65137">
        <ele>1447</ele>
        <time>2018-11-18T10:24:36.000Z</time>
      </trkpt>
      <trkpt lat="42.69247" lon="1.65136">
        <ele>1447</ele>
        <time>2018-11-18T10:24:38.000Z</time>
      </trkpt>
      <trkpt lat="42.69246" lon="1.65136">
        <ele>1447</ele>
        <time>2018-11-18T10:24:40.000Z</time>
      </trkpt>
      <trkpt lat="42.69245" lon="1.65135">
        <ele>1447</ele>
        <time>2018-11-18T10:24:42.000Z</time>
      </trkpt>
      <trkpt lat="42.69245" lon="1.65135">
        <ele>1447</ele>
        <time>2018-11-18T10:24:44.000Z</time>
      </trkpt>
      <trkpt lat="42.69246" lon="1.65135">
        <ele>1447</ele>
        <time>2018-11-18T10:24:46.000Z</time>
      </trkpt>
      <trkpt lat="42.69245" lon="1.65135">
        <ele>1447</ele>
        <time>2018-11-18T10:24:48.000Z</time>
      </trkpt>
      <trkpt lat="42.69244" lon="1.65135">
        <ele>1447</ele>
        <time>2018-11-18T10:24:50.000Z</time>
      </trkpt>
      <trkpt lat="42.69244" lon="1.65134">
        <ele>1447</ele>
        <time>2018-11-18T10:24:52.000Z</time>
      </trkpt>
      <trkpt lat="42.69243" lon="1.65133">
        <ele>1447</ele>
        <time>2018-11-18T10:24:54.000Z</time>
      </trkpt>
      <trkpt lat="42.69243" lon="1.65132">
        <ele>1447</ele>
        <time>2018-11-18T10:24:56.000Z</time>
      </trkpt>
      <trkpt lat="42.69243" lon="1.65131">
        <ele>1447</ele>
        <time>2018-11-18T10:24:58.000Z</time>
      </trkpt>
      <trkpt lat="42.69243" lon="1.6513">
        <ele>1447</ele>
        <time>2018-11-18T10:25:00.000Z</time>
      </trkpt>
      <trkpt lat="42.69242" lon="1.65128">
        <ele>1447</ele>
        <time>2018-11-18T10:25:02.000Z</time>
      </trkpt>
      <trkpt lat="42.69241" lon="1.65127">
        <ele>1446</ele>
        <time>2018-11-18T10:25:04.000Z</time>
      </trkpt>
      <trkpt lat="42.69241" lon="1.65126">
        <ele>1446</ele>
        <time>2018-11-18T10:25:06.000Z</time>
      </trkpt>
      <trkpt lat="42.6924" lon="1.65125">
        <ele>1446</ele>
        <time>2018-11-18T10:25:08.000Z</time>
      </trkpt>
      <trkpt lat="42.69239" lon="1.65123">
        <ele>1446</ele>
        <time>2018-11-18T10:25:10.000Z</time>
      </trkpt>
      <trkpt lat="42.69238" lon="1.65123">
        <ele>1446</ele>
        <time>2018-11-18T10:25:12.000Z</time>
      </trkpt>
      <trkpt lat="42.69238" lon="1.65123">
        <ele>1447</ele>
        <time>2018-11-18T10:25:14.000Z</time>
      </trkpt>
      <trkpt lat="42.69236" lon="1.65123">
        <ele>1447</ele>
        <time>2018-11-18T10:25:16.000Z</time>
      </trkpt>
      <trkpt lat="42.69236" lon="1.65122">
        <ele>1447</ele>
        <time>2018-11-18T10:25:18.000Z</time>
      </trkpt>
      <trkpt lat="42.69235" lon="1.65121">
        <ele>1447</ele>
        <time>2018-11-18T10:25:20.000Z</time>
      </trkpt>
      <trkpt lat="42.69233" lon="1.65119">
        <ele>1447</ele>
        <time>2018-11-18T10:25:22.000Z</time>
      </trkpt>
      <trkpt lat="42.69232" lon="1.65119">
        <ele>1447</ele>
        <time>2018-11-18T10:25:24.000Z</time>
      </trkpt>
      <trkpt lat="42.69231" lon="1.6512">
        <ele>1447</ele>
        <time>2018-11-18T10:25:26.000Z</time>
      </trkpt>
      <trkpt lat="42.69229" lon="1.65119">
        <ele>1447</ele>
        <time>2018-11-18T10:25:28.000Z</time>
      </trkpt>
      <trkpt lat="42.69228" lon="1.65118">
        <ele>1447</ele>
        <time>2018-11-18T10:25:30.000Z</time>
      </trkpt>
      <trkpt lat="42.69226" lon="1.65116">
        <ele>1447</ele>
        <time>2018-11-18T10:25:32.000Z</time>
      </trkpt>
      <trkpt lat="42.69225" lon="1.65116">
        <ele>1447</ele>
        <time>2018-11-18T10:25:34.000Z</time>
      </trkpt>
      <trkpt lat="42.69224" lon="1.65115">
        <ele>1447</ele>
        <time>2018-11-18T10:25:36.000Z</time>
      </trkpt>
      <trkpt lat="42.69223" lon="1.65114">
        <ele>1448</ele>
        <time>2018-11-18T10:25:38.000Z</time>
      </trkpt>
      <trkpt lat="42.69222" lon="1.65114">
        <ele>1448</ele>
        <time>2018-11-18T10:25:40.000Z</time>
      </trkpt>
      <trkpt lat="42.6922" lon="1.65114">
        <ele>1448</ele>
        <time>2018-11-18T10:25:42.000Z</time>
      </trkpt>
      <trkpt lat="42.69219" lon="1.65113">
        <ele>1448</ele>
        <time>2018-11-18T10:25:44.000Z</time>
      </trkpt>
      <trkpt lat="42.69219" lon="1.65113">
        <ele>1448</ele>
        <time>2018-11-18T10:25:46.000Z</time>
      </trkpt>
      <trkpt lat="42.69218" lon="1.65112">
        <ele>1448</ele>
        <time>2018-11-18T10:25:48.000Z</time>
      </trkpt>
      <trkpt lat="42.69218" lon="1.65112">
        <ele>1448</ele>
        <time>2018-11-18T10:25:50.000Z</time>
      </trkpt>
      <trkpt lat="42.69217" lon="1.65112">
        <ele>1448</ele>
        <time>2018-11-18T10:25:52.000Z</time>
      </trkpt>
      <trkpt lat="42.69217" lon="1.65112">
        <ele>1448</ele>
        <time>2018-11-18T10:25:54.000Z</time>
      </trkpt>
      <trkpt lat="42.69217" lon="1.65111">
        <ele>1448</ele>
        <time>2018-11-18T10:25:56.000Z</time>
      </trkpt>
      <trkpt lat="42.69216" lon="1.6511">
        <ele>1448</ele>
        <time>2018-11-18T10:25:58.000Z</time>
      </trkpt>
      <trkpt lat="42.69215" lon="1.6511">
        <ele>1448</ele>
        <time>2018-11-18T10:26:00.000Z</time>
      </trkpt>
      <trkpt lat="42.69214" lon="1.6511">
        <ele>1448</ele>
        <time>2018-11-18T10:26:02.000Z</time>
      </trkpt>
      <trkpt lat="42.69213" lon="1.65108">
        <ele>1448</ele>
        <time>2018-11-18T10:26:04.000Z</time>
      </trkpt>
      <trkpt lat="42.69213" lon="1.65108">
        <ele>1448</ele>
        <time>2018-11-18T10:26:06.000Z</time>
      </trkpt>
      <trkpt lat="42.69212" lon="1.65108">
        <ele>1448</ele>
        <time>2018-11-18T10:26:08.000Z</time>
      </trkpt>
      <trkpt lat="42.69212" lon="1.65108">
        <ele>1449</ele>
        <time>2018-11-18T10:26:10.000Z</time>
      </trkpt>
      <trkpt lat="42.69212" lon="1.65108">
        <ele>1448</ele>
        <time>2018-11-18T10:26:12.000Z</time>
      </trkpt>
      <trkpt lat="42.69213" lon="1.65108">
        <ele>1448</ele>
        <time>2018-11-18T10:26:14.000Z</time>
      </trkpt>
      <trkpt lat="42.69213" lon="1.65109">
        <ele>1448</ele>
        <time>2018-11-18T10:26:16.000Z</time>
      </trkpt>
      <trkpt lat="42.69214" lon="1.65108">
        <ele>1448</ele>
        <time>2018-11-18T10:26:18.000Z</time>
      </trkpt>
      <trkpt lat="42.69215" lon="1.65109">
        <ele>1448</ele>
        <time>2018-11-18T10:26:20.000Z</time>
      </trkpt>
      <trkpt lat="42.69215" lon="1.65109">
        <ele>1448</ele>
        <time>2018-11-18T10:26:22.000Z</time>
      </trkpt>
      <trkpt lat="42.69216" lon="1.65109">
        <ele>1448</ele>
        <time>2018-11-18T10:26:24.000Z</time>
      </trkpt>
      <trkpt lat="42.69216" lon="1.65108">
        <ele>1448</ele>
        <time>2018-11-18T10:26:26.000Z</time>
      </trkpt>
      <trkpt lat="42.69218" lon="1.65108">
        <ele>1447</ele>
        <time>2018-11-18T10:26:28.000Z</time>
      </trkpt>
      <trkpt lat="42.69219" lon="1.65107">
        <ele>1447</ele>
        <time>2018-11-18T10:26:30.000Z</time>
      </trkpt>
      <trkpt lat="42.6922" lon="1.65107">
        <ele>1447</ele>
        <time>2018-11-18T10:26:32.000Z</time>
      </trkpt>
      <trkpt lat="42.6922" lon="1.65107">
        <ele>1447</ele>
        <time>2018-11-18T10:26:34.000Z</time>
      </trkpt>
      <trkpt lat="42.6922" lon="1.65107">
        <ele>1447</ele>
        <time>2018-11-18T10:26:36.000Z</time>
      </trkpt>
      <trkpt lat="42.69219" lon="1.65106">
        <ele>1447</ele>
        <time>2018-11-18T10:26:38.000Z</time>
      </trkpt>
      <trkpt lat="42.69218" lon="1.65106">
        <ele>1447</ele>
        <time>2018-11-18T10:26:40.000Z</time>
      </trkpt>
      <trkpt lat="42.69218" lon="1.65106">
        <ele>1447</ele>
        <time>2018-11-18T10:26:42.000Z</time>
      </trkpt>
      <trkpt lat="42.69216" lon="1.65105">
        <ele>1447</ele>
        <time>2018-11-18T10:26:44.000Z</time>
      </trkpt>
      <trkpt lat="42.69215" lon="1.65105">
        <ele>1447</ele>
        <time>2018-11-18T10:26:46.000Z</time>
      </trkpt>
      <trkpt lat="42.69215" lon="1.65106">
        <ele>1448</ele>
        <time>2018-11-18T10:26:48.000Z</time>
      </trkpt>
      <trkpt lat="42.69214" lon="1.65107">
        <ele>1448</ele>
        <time>2018-11-18T10:26:50.000Z</time>
      </trkpt>
      <trkpt lat="42.69212" lon="1.65106">
        <ele>1448</ele>
        <time>2018-11-18T10:26:52.000Z</time>
      </trkpt>
      <trkpt lat="42.6921" lon="1.65104">
        <ele>1448</ele>
        <time>2018-11-18T10:26:54.000Z</time>
      </trkpt>
      <trkpt lat="42.69209" lon="1.65102">
        <ele>1448</ele>
        <time>2018-11-18T10:26:56.000Z</time>
      </trkpt>
      <trkpt lat="42.69207" lon="1.65101">
        <ele>1448</ele>
        <time>2018-11-18T10:26:58.000Z</time>
      </trkpt>
      <trkpt lat="42.69206" lon="1.65102">
        <ele>1448</ele>
        <time>2018-11-18T10:27:00.000Z</time>
      </trkpt>
      <trkpt lat="42.69205" lon="1.651">
        <ele>1448</ele>
        <time>2018-11-18T10:27:02.000Z</time>
      </trkpt>
      <trkpt lat="42.69204" lon="1.651">
        <ele>1448</ele>
        <time>2018-11-18T10:27:04.000Z</time>
      </trkpt>
      <trkpt lat="42.69203" lon="1.651">
        <ele>1449</ele>
        <time>2018-11-18T10:27:06.000Z</time>
      </trkpt>
      <trkpt lat="42.69202" lon="1.65099">
        <ele>1449</ele>
        <time>2018-11-18T10:27:08.000Z</time>
      </trkpt>
      <trkpt lat="42.69202" lon="1.65099">
        <ele>1449</ele>
        <time>2018-11-18T10:27:10.000Z</time>
      </trkpt>
      <trkpt lat="42.692" lon="1.65099">
        <ele>1449</ele>
        <time>2018-11-18T10:27:12.000Z</time>
      </trkpt>
      <trkpt lat="42.692" lon="1.651">
        <ele>1449</ele>
        <time>2018-11-18T10:27:14.000Z</time>
      </trkpt>
      <trkpt lat="42.692" lon="1.65099">
        <ele>1449</ele>
        <time>2018-11-18T10:27:16.000Z</time>
      </trkpt>
      <trkpt lat="42.69199" lon="1.65099">
        <ele>1449</ele>
        <time>2018-11-18T10:27:18.000Z</time>
      </trkpt>
      <trkpt lat="42.69198" lon="1.65099">
        <ele>1449</ele>
        <time>2018-11-18T10:27:20.000Z</time>
      </trkpt>
      <trkpt lat="42.69198" lon="1.65097">
        <ele>1449</ele>
        <time>2018-11-18T10:27:22.000Z</time>
      </trkpt>
      <trkpt lat="42.69197" lon="1.65094">
        <ele>1449</ele>
        <time>2018-11-18T10:27:24.000Z</time>
      </trkpt>
      <trkpt lat="42.69196" lon="1.65092">
        <ele>1448</ele>
        <time>2018-11-18T10:27:26.000Z</time>
      </trkpt>
      <trkpt lat="42.69194" lon="1.65091">
        <ele>1448</ele>
        <time>2018-11-18T10:27:28.000Z</time>
      </trkpt>
      <trkpt lat="42.69193" lon="1.65089">
        <ele>1449</ele>
        <time>2018-11-18T10:27:30.000Z</time>
      </trkpt>
      <trkpt lat="42.69191" lon="1.65088">
        <ele>1449</ele>
        <time>2018-11-18T10:27:32.000Z</time>
      </trkpt>
      <trkpt lat="42.69189" lon="1.65087">
        <ele>1449</ele>
        <time>2018-11-18T10:27:34.000Z</time>
      </trkpt>
      <trkpt lat="42.69187" lon="1.65086">
        <ele>1449</ele>
        <time>2018-11-18T10:27:36.000Z</time>
      </trkpt>
      <trkpt lat="42.69186" lon="1.65084">
        <ele>1449</ele>
        <time>2018-11-18T10:27:38.000Z</time>
      </trkpt>
      <trkpt lat="42.69184" lon="1.65084">
        <ele>1449</ele>
        <time>2018-11-18T10:27:40.000Z</time>
      </trkpt>
      <trkpt lat="42.69183" lon="1.65084">
        <ele>1449</ele>
        <time>2018-11-18T10:27:42.000Z</time>
      </trkpt>
      <trkpt lat="42.69182" lon="1.65083">
        <ele>1450</ele>
        <time>2018-11-18T10:27:44.000Z</time>
      </trkpt>
      <trkpt lat="42.6918" lon="1.65083">
        <ele>1450</ele>
        <time>2018-11-18T10:27:46.000Z</time>
      </trkpt>
      <trkpt lat="42.69179" lon="1.65082">
        <ele>1450</ele>
        <time>2018-11-18T10:27:48.000Z</time>
      </trkpt>
      <trkpt lat="42.69177" lon="1.65081">
        <ele>1450</ele>
        <time>2018-11-18T10:27:50.000Z</time>
      </trkpt>
      <trkpt lat="42.69176" lon="1.6508">
        <ele>1450</ele>
        <time>2018-11-18T10:27:52.000Z</time>
      </trkpt>
      <trkpt lat="42.69175" lon="1.65079">
        <ele>1450</ele>
        <time>2018-11-18T10:27:54.000Z</time>
      </trkpt>
      <trkpt lat="42.69174" lon="1.6508">
        <ele>1451</ele>
        <time>2018-11-18T10:27:56.000Z</time>
      </trkpt>
      <trkpt lat="42.69173" lon="1.65081">
        <ele>1451</ele>
        <time>2018-11-18T10:27:58.000Z</time>
      </trkpt>
      <trkpt lat="42.69172" lon="1.65081">
        <ele>1452</ele>
        <time>2018-11-18T10:28:00.000Z</time>
      </trkpt>
      <trkpt lat="42.69171" lon="1.6508">
        <ele>1452</ele>
        <time>2018-11-18T10:28:02.000Z</time>
      </trkpt>
      <trkpt lat="42.69171" lon="1.6508">
        <ele>1452</ele>
        <time>2018-11-18T10:28:04.000Z</time>
      </trkpt>
      <trkpt lat="42.6917" lon="1.65079">
        <ele>1452</ele>
        <time>2018-11-18T10:28:06.000Z</time>
      </trkpt>
      <trkpt lat="42.69169" lon="1.65079">
        <ele>1452</ele>
        <time>2018-11-18T10:28:08.000Z</time>
      </trkpt>
      <trkpt lat="42.69168" lon="1.6508">
        <ele>1453</ele>
        <time>2018-11-18T10:28:10.000Z</time>
      </trkpt>
      <trkpt lat="42.69167" lon="1.65081">
        <ele>1453</ele>
        <time>2018-11-18T10:28:12.000Z</time>
      </trkpt>
      <trkpt lat="42.69166" lon="1.6508">
        <ele>1453</ele>
        <time>2018-11-18T10:28:14.000Z</time>
      </trkpt>
      <trkpt lat="42.69166" lon="1.65079">
        <ele>1453</ele>
        <time>2018-11-18T10:28:16.000Z</time>
      </trkpt>
      <trkpt lat="42.69165" lon="1.65078">
        <ele>1453</ele>
        <time>2018-11-18T10:28:18.000Z</time>
      </trkpt>
      <trkpt lat="42.69165" lon="1.65077">
        <ele>1452</ele>
        <time>2018-11-18T10:28:20.000Z</time>
      </trkpt>
      <trkpt lat="42.69165" lon="1.65076">
        <ele>1452</ele>
        <time>2018-11-18T10:28:22.000Z</time>
      </trkpt>
      <trkpt lat="42.69164" lon="1.65077">
        <ele>1452</ele>
        <time>2018-11-18T10:28:24.000Z</time>
      </trkpt>
      <trkpt lat="42.69164" lon="1.65077">
        <ele>1453</ele>
        <time>2018-11-18T10:28:26.000Z</time>
      </trkpt>
      <trkpt lat="42.69164" lon="1.65078">
        <ele>1453</ele>
        <time>2018-11-18T10:28:28.000Z</time>
      </trkpt>
      <trkpt lat="42.69164" lon="1.65078">
        <ele>1453</ele>
        <time>2018-11-18T10:28:30.000Z</time>
      </trkpt>
      <trkpt lat="42.69163" lon="1.65079">
        <ele>1453</ele>
        <time>2018-11-18T10:28:32.000Z</time>
      </trkpt>
      <trkpt lat="42.69162" lon="1.65079">
        <ele>1454</ele>
        <time>2018-11-18T10:28:34.000Z</time>
      </trkpt>
      <trkpt lat="42.69161" lon="1.65079">
        <ele>1454</ele>
        <time>2018-11-18T10:28:36.000Z</time>
      </trkpt>
      <trkpt lat="42.69161" lon="1.65079">
        <ele>1454</ele>
        <time>2018-11-18T10:28:38.000Z</time>
      </trkpt>
      <trkpt lat="42.6916" lon="1.65079">
        <ele>1454</ele>
        <time>2018-11-18T10:28:40.000Z</time>
      </trkpt>
      <trkpt lat="42.69159" lon="1.65079">
        <ele>1455</ele>
        <time>2018-11-18T10:28:42.000Z</time>
      </trkpt>
      <trkpt lat="42.69158" lon="1.65079">
        <ele>1455</ele>
        <time>2018-11-18T10:28:44.000Z</time>
      </trkpt>
      <trkpt lat="42.69158" lon="1.65079">
        <ele>1455</ele>
        <time>2018-11-18T10:28:46.000Z</time>
      </trkpt>
      <trkpt lat="42.69157" lon="1.65078">
        <ele>1455</ele>
        <time>2018-11-18T10:28:48.000Z</time>
      </trkpt>
      <trkpt lat="42.69156" lon="1.65077">
        <ele>1455</ele>
        <time>2018-11-18T10:28:50.000Z</time>
      </trkpt>
      <trkpt lat="42.69155" lon="1.65077">
        <ele>1455</ele>
        <time>2018-11-18T10:28:52.000Z</time>
      </trkpt>
      <trkpt lat="42.69155" lon="1.65076">
        <ele>1455</ele>
        <time>2018-11-18T10:28:54.000Z</time>
      </trkpt>
      <trkpt lat="42.69154" lon="1.65076">
        <ele>1455</ele>
        <time>2018-11-18T10:28:56.000Z</time>
      </trkpt>
      <trkpt lat="42.69154" lon="1.65075">
        <ele>1455</ele>
        <time>2018-11-18T10:28:58.000Z</time>
      </trkpt>
      <trkpt lat="42.69154" lon="1.65075">
        <ele>1455</ele>
        <time>2018-11-18T10:29:00.000Z</time>
      </trkpt>
      <trkpt lat="42.69153" lon="1.65074">
        <ele>1455</ele>
        <time>2018-11-18T10:29:02.000Z</time>
      </trkpt>
      <trkpt lat="42.69152" lon="1.65072">
        <ele>1454</ele>
        <time>2018-11-18T10:29:04.000Z</time>
      </trkpt>
      <trkpt lat="42.69151" lon="1.65071">
        <ele>1454</ele>
        <time>2018-11-18T10:29:06.000Z</time>
      </trkpt>
      <trkpt lat="42.69151" lon="1.65071">
        <ele>1454</ele>
        <time>2018-11-18T10:29:08.000Z</time>
      </trkpt>
      <trkpt lat="42.6915" lon="1.65071">
        <ele>1454</ele>
        <time>2018-11-18T10:29:10.000Z</time>
      </trkpt>
      <trkpt lat="42.69149" lon="1.65071">
        <ele>1455</ele>
        <time>2018-11-18T10:29:12.000Z</time>
      </trkpt>
      <trkpt lat="42.69148" lon="1.65072">
        <ele>1455</ele>
        <time>2018-11-18T10:29:14.000Z</time>
      </trkpt>
      <trkpt lat="42.69147" lon="1.65072">
        <ele>1456</ele>
        <time>2018-11-18T10:29:16.000Z</time>
      </trkpt>
      <trkpt lat="42.69146" lon="1.65072">
        <ele>1456</ele>
        <time>2018-11-18T10:29:18.000Z</time>
      </trkpt>
      <trkpt lat="42.69144" lon="1.65071">
        <ele>1456</ele>
        <time>2018-11-18T10:29:20.000Z</time>
      </trkpt>
      <trkpt lat="42.69143" lon="1.65071">
        <ele>1456</ele>
        <time>2018-11-18T10:29:22.000Z</time>
      </trkpt>
      <trkpt lat="42.69143" lon="1.65071">
        <ele>1456</ele>
        <time>2018-11-18T10:29:24.000Z</time>
      </trkpt>
      <trkpt lat="42.69142" lon="1.65072">
        <ele>1457</ele>
        <time>2018-11-18T10:29:26.000Z</time>
      </trkpt>
      <trkpt lat="42.69141" lon="1.65072">
        <ele>1457</ele>
        <time>2018-11-18T10:29:28.000Z</time>
      </trkpt>
      <trkpt lat="42.6914" lon="1.65072">
        <ele>1457</ele>
        <time>2018-11-18T10:29:30.000Z</time>
      </trkpt>
      <trkpt lat="42.69139" lon="1.65072">
        <ele>1457</ele>
        <time>2018-11-18T10:29:32.000Z</time>
      </trkpt>
      <trkpt lat="42.69138" lon="1.65072">
        <ele>1458</ele>
        <time>2018-11-18T10:29:34.000Z</time>
      </trkpt>
      <trkpt lat="42.69136" lon="1.65071">
        <ele>1458</ele>
        <time>2018-11-18T10:29:36.000Z</time>
      </trkpt>
      <trkpt lat="42.69135" lon="1.6507">
        <ele>1458</ele>
        <time>2018-11-18T10:29:38.000Z</time>
      </trkpt>
      <trkpt lat="42.69134" lon="1.6507">
        <ele>1458</ele>
        <time>2018-11-18T10:29:40.000Z</time>
      </trkpt>
      <trkpt lat="42.69133" lon="1.65069">
        <ele>1458</ele>
        <time>2018-11-18T10:29:42.000Z</time>
      </trkpt>
      <trkpt lat="42.69132" lon="1.65068">
        <ele>1458</ele>
        <time>2018-11-18T10:29:44.000Z</time>
      </trkpt>
      <trkpt lat="42.69131" lon="1.65067">
        <ele>1458</ele>
        <time>2018-11-18T10:29:46.000Z</time>
      </trkpt>
      <trkpt lat="42.69131" lon="1.65066">
        <ele>1458</ele>
        <time>2018-11-18T10:29:48.000Z</time>
      </trkpt>
      <trkpt lat="42.69131" lon="1.65065">
        <ele>1457</ele>
        <time>2018-11-18T10:29:50.000Z</time>
      </trkpt>
      <trkpt lat="42.6913" lon="1.65065">
        <ele>1457</ele>
        <time>2018-11-18T10:29:52.000Z</time>
      </trkpt>
      <trkpt lat="42.69129" lon="1.65064">
        <ele>1457</ele>
        <time>2018-11-18T10:29:54.000Z</time>
      </trkpt>
      <trkpt lat="42.69128" lon="1.65063">
        <ele>1457</ele>
        <time>2018-11-18T10:29:56.000Z</time>
      </trkpt>
      <trkpt lat="42.69127" lon="1.65062">
        <ele>1457</ele>
        <time>2018-11-18T10:29:58.000Z</time>
      </trkpt>
      <trkpt lat="42.69126" lon="1.65061">
        <ele>1457</ele>
        <time>2018-11-18T10:30:00.000Z</time>
      </trkpt>
      <trkpt lat="42.69125" lon="1.6506">
        <ele>1457</ele>
        <time>2018-11-18T10:30:02.000Z</time>
      </trkpt>
      <trkpt lat="42.69124" lon="1.65059">
        <ele>1457</ele>
        <time>2018-11-18T10:30:04.000Z</time>
      </trkpt>
      <trkpt lat="42.69123" lon="1.65059">
        <ele>1457</ele>
        <time>2018-11-18T10:30:06.000Z</time>
      </trkpt>
      <trkpt lat="42.69121" lon="1.65059">
        <ele>1458</ele>
        <time>2018-11-18T10:30:08.000Z</time>
      </trkpt>
      <trkpt lat="42.6912" lon="1.65058">
        <ele>1458</ele>
        <time>2018-11-18T10:30:10.000Z</time>
      </trkpt>
      <trkpt lat="42.69119" lon="1.65059">
        <ele>1458</ele>
        <time>2018-11-18T10:30:12.000Z</time>
      </trkpt>
      <trkpt lat="42.69118" lon="1.65059">
        <ele>1458</ele>
        <time>2018-11-18T10:30:14.000Z</time>
      </trkpt>
      <trkpt lat="42.69118" lon="1.65059">
        <ele>1459</ele>
        <time>2018-11-18T10:30:16.000Z</time>
      </trkpt>
      <trkpt lat="42.69117" lon="1.65059">
        <ele>1459</ele>
        <time>2018-11-18T10:30:18.000Z</time>
      </trkpt>
      <trkpt lat="42.69116" lon="1.65059">
        <ele>1459</ele>
        <time>2018-11-18T10:30:20.000Z</time>
      </trkpt>
      <trkpt lat="42.69116" lon="1.65059">
        <ele>1459</ele>
        <time>2018-11-18T10:30:22.000Z</time>
      </trkpt>
      <trkpt lat="42.69116" lon="1.65059">
        <ele>1459</ele>
        <time>2018-11-18T10:30:24.000Z</time>
      </trkpt>
      <trkpt lat="42.69115" lon="1.65059">
        <ele>1459</ele>
        <time>2018-11-18T10:30:26.000Z</time>
      </trkpt>
      <trkpt lat="42.69115" lon="1.65059">
        <ele>1459</ele>
        <time>2018-11-18T10:30:28.000Z</time>
      </trkpt>
      <trkpt lat="42.69115" lon="1.65058">
        <ele>1459</ele>
        <time>2018-11-18T10:30:30.000Z</time>
      </trkpt>
      <trkpt lat="42.69114" lon="1.65057">
        <ele>1459</ele>
        <time>2018-11-18T10:30:32.000Z</time>
      </trkpt>
      <trkpt lat="42.69114" lon="1.65057">
        <ele>1459</ele>
        <time>2018-11-18T10:30:34.000Z</time>
      </trkpt>
      <trkpt lat="42.69114" lon="1.65057">
        <ele>1459</ele>
        <time>2018-11-18T10:30:36.000Z</time>
      </trkpt>
      <trkpt lat="42.69113" lon="1.65056">
        <ele>1459</ele>
        <time>2018-11-18T10:30:38.000Z</time>
      </trkpt>
      <trkpt lat="42.69113" lon="1.65056">
        <ele>1459</ele>
        <time>2018-11-18T10:30:40.000Z</time>
      </trkpt>
      <trkpt lat="42.69112" lon="1.65056">
        <ele>1459</ele>
        <time>2018-11-18T10:30:42.000Z</time>
      </trkpt>
      <trkpt lat="42.69111" lon="1.65056">
        <ele>1460</ele>
        <time>2018-11-18T10:30:44.000Z</time>
      </trkpt>
      <trkpt lat="42.69111" lon="1.65056">
        <ele>1460</ele>
        <time>2018-11-18T10:30:46.000Z</time>
      </trkpt>
      <trkpt lat="42.6911" lon="1.65056">
        <ele>1460</ele>
        <time>2018-11-18T10:30:48.000Z</time>
      </trkpt>
      <trkpt lat="42.69109" lon="1.65056">
        <ele>1460</ele>
        <time>2018-11-18T10:30:50.000Z</time>
      </trkpt>
      <trkpt lat="42.69108" lon="1.65055">
        <ele>1460</ele>
        <time>2018-11-18T10:30:52.000Z</time>
      </trkpt>
      <trkpt lat="42.69109" lon="1.65054">
        <ele>1459</ele>
        <time>2018-11-18T10:30:54.000Z</time>
      </trkpt>
      <trkpt lat="42.69108" lon="1.65054">
        <ele>1459</ele>
        <time>2018-11-18T10:30:56.000Z</time>
      </trkpt>
      <trkpt lat="42.69109" lon="1.65053">
        <ele>1459</ele>
        <time>2018-11-18T10:30:58.000Z</time>
      </trkpt>
      <trkpt lat="42.69109" lon="1.65053">
        <ele>1459</ele>
        <time>2018-11-18T10:31:00.000Z</time>
      </trkpt>
      <trkpt lat="42.69109" lon="1.65052">
        <ele>1459</ele>
        <time>2018-11-18T10:31:02.000Z</time>
      </trkpt>
      <trkpt lat="42.69109" lon="1.65052">
        <ele>1459</ele>
        <time>2018-11-18T10:31:04.000Z</time>
      </trkpt>
      <trkpt lat="42.69109" lon="1.65052">
        <ele>1458</ele>
        <time>2018-11-18T10:31:06.000Z</time>
      </trkpt>
      <trkpt lat="42.69109" lon="1.65052">
        <ele>1459</ele>
        <time>2018-11-18T10:31:08.000Z</time>
      </trkpt>
      <trkpt lat="42.69108" lon="1.65052">
        <ele>1459</ele>
        <time>2018-11-18T10:31:10.000Z</time>
      </trkpt>
      <trkpt lat="42.69108" lon="1.65053">
        <ele>1459</ele>
        <time>2018-11-18T10:31:12.000Z</time>
      </trkpt>
      <trkpt lat="42.69108" lon="1.65053">
        <ele>1459</ele>
        <time>2018-11-18T10:31:14.000Z</time>
      </trkpt>
      <trkpt lat="42.69108" lon="1.65053">
        <ele>1459</ele>
        <time>2018-11-18T10:31:16.000Z</time>
      </trkpt>
      <trkpt lat="42.69108" lon="1.65053">
        <ele>1459</ele>
        <time>2018-11-18T10:31:18.000Z</time>
      </trkpt>
      <trkpt lat="42.69108" lon="1.65053">
        <ele>1459</ele>
        <time>2018-11-18T10:31:20.000Z</time>
      </trkpt>
      <trkpt lat="42.69108" lon="1.65053">
        <ele>1459</ele>
        <time>2018-11-18T10:31:22.000Z</time>
      </trkpt>
      <trkpt lat="42.69108" lon="1.65053">
        <ele>1459</ele>
        <time>2018-11-18T10:31:24.000Z</time>
      </trkpt>
      <trkpt lat="42.69108" lon="1.65054">
        <ele>1459</ele>
        <time>2018-11-18T10:31:26.000Z</time>
      </trkpt>
      <trkpt lat="42.69107" lon="1.65054">
        <ele>1460</ele>
        <time>2018-11-18T10:31:28.000Z</time>
      </trkpt>
      <trkpt lat="42.69106" lon="1.65055">
        <ele>1460</ele>
        <time>2018-11-18T10:31:30.000Z</time>
      </trkpt>
      <trkpt lat="42.69105" lon="1.65055">
        <ele>1460</ele>
        <time>2018-11-18T10:31:32.000Z</time>
      </trkpt>
      <trkpt lat="42.69105" lon="1.65054">
        <ele>1461</ele>
        <time>2018-11-18T10:31:34.000Z</time>
      </trkpt>
      <trkpt lat="42.69104" lon="1.65054">
        <ele>1460</ele>
        <time>2018-11-18T10:31:36.000Z</time>
      </trkpt>
      <trkpt lat="42.69103" lon="1.65053">
        <ele>1460</ele>
        <time>2018-11-18T10:31:38.000Z</time>
      </trkpt>
      <trkpt lat="42.69103" lon="1.65053">
        <ele>1460</ele>
        <time>2018-11-18T10:31:40.000Z</time>
      </trkpt>
      <trkpt lat="42.69103" lon="1.65053">
        <ele>1460</ele>
        <time>2018-11-18T10:31:42.000Z</time>
      </trkpt>
      <trkpt lat="42.69103" lon="1.65053">
        <ele>1461</ele>
        <time>2018-11-18T10:31:44.000Z</time>
      </trkpt>
      <trkpt lat="42.69103" lon="1.65053">
        <ele>1460</ele>
        <time>2018-11-18T10:31:46.000Z</time>
      </trkpt>
      <trkpt lat="42.69102" lon="1.65052">
        <ele>1460</ele>
        <time>2018-11-18T10:31:48.000Z</time>
      </trkpt>
      <trkpt lat="42.69102" lon="1.65051">
        <ele>1460</ele>
        <time>2018-11-18T10:31:50.000Z</time>
      </trkpt>
      <trkpt lat="42.69102" lon="1.65051">
        <ele>1460</ele>
        <time>2018-11-18T10:31:52.000Z</time>
      </trkpt>
      <trkpt lat="42.69101" lon="1.65052">
        <ele>1460</ele>
        <time>2018-11-18T10:31:54.000Z</time>
      </trkpt>
      <trkpt lat="42.69101" lon="1.65052">
        <ele>1461</ele>
        <time>2018-11-18T10:31:56.000Z</time>
      </trkpt>
      <trkpt lat="42.69099" lon="1.65052">
        <ele>1461</ele>
        <time>2018-11-18T10:31:58.000Z</time>
      </trkpt>
      <trkpt lat="42.691" lon="1.6505">
        <ele>1460</ele>
        <time>2018-11-18T10:32:00.000Z</time>
      </trkpt>
      <trkpt lat="42.69099" lon="1.6505">
        <ele>1460</ele>
        <time>2018-11-18T10:32:02.000Z</time>
      </trkpt>
      <trkpt lat="42.69098" lon="1.6505">
        <ele>1461</ele>
        <time>2018-11-18T10:32:04.000Z</time>
      </trkpt>
      <trkpt lat="42.69098" lon="1.65049">
        <ele>1461</ele>
        <time>2018-11-18T10:32:06.000Z</time>
      </trkpt>
      <trkpt lat="42.69097" lon="1.65049">
        <ele>1460</ele>
        <time>2018-11-18T10:32:08.000Z</time>
      </trkpt>
      <trkpt lat="42.69097" lon="1.65048">
        <ele>1460</ele>
        <time>2018-11-18T10:32:10.000Z</time>
      </trkpt>
      <trkpt lat="42.69097" lon="1.65048">
        <ele>1460</ele>
        <time>2018-11-18T10:32:12.000Z</time>
      </trkpt>
      <trkpt lat="42.69096" lon="1.65048">
        <ele>1460</ele>
        <time>2018-11-18T10:32:14.000Z</time>
      </trkpt>
      <trkpt lat="42.69095" lon="1.65047">
        <ele>1460</ele>
        <time>2018-11-18T10:32:16.000Z</time>
      </trkpt>
      <trkpt lat="42.69094" lon="1.65045">
        <ele>1460</ele>
        <time>2018-11-18T10:32:18.000Z</time>
      </trkpt>
      <trkpt lat="42.69094" lon="1.65044">
        <ele>1460</ele>
        <time>2018-11-18T10:32:20.000Z</time>
      </trkpt>
      <trkpt lat="42.69093" lon="1.65043">
        <ele>1460</ele>
        <time>2018-11-18T10:32:22.000Z</time>
      </trkpt>
      <trkpt lat="42.69093" lon="1.65042">
        <ele>1459</ele>
        <time>2018-11-18T10:32:24.000Z</time>
      </trkpt>
      <trkpt lat="42.69092" lon="1.65042">
        <ele>1459</ele>
        <time>2018-11-18T10:32:26.000Z</time>
      </trkpt>
      <trkpt lat="42.69092" lon="1.65043">
        <ele>1460</ele>
        <time>2018-11-18T10:32:28.000Z</time>
      </trkpt>
      <trkpt lat="42.69091" lon="1.65043">
        <ele>1460</ele>
        <time>2018-11-18T10:32:30.000Z</time>
      </trkpt>
      <trkpt lat="42.6909" lon="1.65043">
        <ele>1460</ele>
        <time>2018-11-18T10:32:32.000Z</time>
      </trkpt>
      <trkpt lat="42.69089" lon="1.65043">
        <ele>1461</ele>
        <time>2018-11-18T10:32:34.000Z</time>
      </trkpt>
      <trkpt lat="42.69088" lon="1.65044">
        <ele>1461</ele>
        <time>2018-11-18T10:32:36.000Z</time>
      </trkpt>
      <trkpt lat="42.69087" lon="1.65044">
        <ele>1461</ele>
        <time>2018-11-18T10:32:38.000Z</time>
      </trkpt>
      <trkpt lat="42.69087" lon="1.65045">
        <ele>1462</ele>
        <time>2018-11-18T10:32:40.000Z</time>
      </trkpt>
      <trkpt lat="42.69086" lon="1.65045">
        <ele>1462</ele>
        <time>2018-11-18T10:32:42.000Z</time>
      </trkpt>
      <trkpt lat="42.69086" lon="1.65045">
        <ele>1462</ele>
        <time>2018-11-18T10:32:44.000Z</time>
      </trkpt>
      <trkpt lat="42.69085" lon="1.65046">
        <ele>1462</ele>
        <time>2018-11-18T10:32:46.000Z</time>
      </trkpt>
      <trkpt lat="42.69085" lon="1.65046">
        <ele>1462</ele>
        <time>2018-11-18T10:32:48.000Z</time>
      </trkpt>
      <trkpt lat="42.69086" lon="1.65045">
        <ele>1462</ele>
        <time>2018-11-18T10:32:50.000Z</time>
      </trkpt>
      <trkpt lat="42.69086" lon="1.65045">
        <ele>1462</ele>
        <time>2018-11-18T10:32:52.000Z</time>
      </trkpt>
      <trkpt lat="42.69087" lon="1.65045">
        <ele>1462</ele>
        <time>2018-11-18T10:32:54.000Z</time>
      </trkpt>
      <trkpt lat="42.69087" lon="1.65046">
        <ele>1462</ele>
        <time>2018-11-18T10:32:56.000Z</time>
      </trkpt>
      <trkpt lat="42.69088" lon="1.65046">
        <ele>1462</ele>
        <time>2018-11-18T10:32:58.000Z</time>
      </trkpt>
      <trkpt lat="42.69087" lon="1.65046">
        <ele>1462</ele>
        <time>2018-11-18T10:33:00.000Z</time>
      </trkpt>
      <trkpt lat="42.69086" lon="1.65047">
        <ele>1463</ele>
        <time>2018-11-18T10:33:02.000Z</time>
      </trkpt>
      <trkpt lat="42.69085" lon="1.65047">
        <ele>1463</ele>
        <time>2018-11-18T10:33:04.000Z</time>
      </trkpt>
      <trkpt lat="42.69083" lon="1.65047">
        <ele>1463</ele>
        <time>2018-11-18T10:33:06.000Z</time>
      </trkpt>
      <trkpt lat="42.69082" lon="1.65048">
        <ele>1463</ele>
        <time>2018-11-18T10:33:08.000Z</time>
      </trkpt>
      <trkpt lat="42.69081" lon="1.65048">
        <ele>1463</ele>
        <time>2018-11-18T10:33:10.000Z</time>
      </trkpt>
      <trkpt lat="42.6908" lon="1.65047">
        <ele>1463</ele>
        <time>2018-11-18T10:33:12.000Z</time>
      </trkpt>
      <trkpt lat="42.6908" lon="1.65046">
        <ele>1463</ele>
        <time>2018-11-18T10:33:14.000Z</time>
      </trkpt>
      <trkpt lat="42.69079" lon="1.65046">
        <ele>1463</ele>
        <time>2018-11-18T10:33:16.000Z</time>
      </trkpt>
      <trkpt lat="42.69078" lon="1.65046">
        <ele>1463</ele>
        <time>2018-11-18T10:33:18.000Z</time>
      </trkpt>
      <trkpt lat="42.69077" lon="1.65045">
        <ele>1463</ele>
        <time>2018-11-18T10:33:20.000Z</time>
      </trkpt>
      <trkpt lat="42.69077" lon="1.65044">
        <ele>1463</ele>
        <time>2018-11-18T10:33:22.000Z</time>
      </trkpt>
      <trkpt lat="42.69076" lon="1.65044">
        <ele>1463</ele>
        <time>2018-11-18T10:33:24.000Z</time>
      </trkpt>
      <trkpt lat="42.69076" lon="1.65044">
        <ele>1463</ele>
        <time>2018-11-18T10:33:26.000Z</time>
      </trkpt>
      <trkpt lat="42.69075" lon="1.65044">
        <ele>1463</ele>
        <time>2018-11-18T10:33:28.000Z</time>
      </trkpt>
      <trkpt lat="42.69074" lon="1.65044">
        <ele>1463</ele>
        <time>2018-11-18T10:33:30.000Z</time>
      </trkpt>
      <trkpt lat="42.69073" lon="1.65044">
        <ele>1463</ele>
        <time>2018-11-18T10:33:32.000Z</time>
      </trkpt>
      <trkpt lat="42.69073" lon="1.65044">
        <ele>1463</ele>
        <time>2018-11-18T10:33:34.000Z</time>
      </trkpt>
      <trkpt lat="42.69072" lon="1.65044">
        <ele>1463</ele>
        <time>2018-11-18T10:33:36.000Z</time>
      </trkpt>
      <trkpt lat="42.69072" lon="1.65045">
        <ele>1464</ele>
        <time>2018-11-18T10:33:38.000Z</time>
      </trkpt>
      <trkpt lat="42.69073" lon="1.65045">
        <ele>1464</ele>
        <time>2018-11-18T10:33:40.000Z</time>
      </trkpt>
      <trkpt lat="42.69073" lon="1.65046">
        <ele>1464</ele>
        <time>2018-11-18T10:33:42.000Z</time>
      </trkpt>
      <trkpt lat="42.69073" lon="1.65048">
        <ele>1465</ele>
        <time>2018-11-18T10:33:44.000Z</time>
      </trkpt>
      <trkpt lat="42.69072" lon="1.65049">
        <ele>1465</ele>
        <time>2018-11-18T10:33:46.000Z</time>
      </trkpt>
      <trkpt lat="42.69072" lon="1.65049">
        <ele>1465</ele>
        <time>2018-11-18T10:33:48.000Z</time>
      </trkpt>
      <trkpt lat="42.69071" lon="1.6505">
        <ele>1465</ele>
        <time>2018-11-18T10:33:50.000Z</time>
      </trkpt>
      <trkpt lat="42.6907" lon="1.65051">
        <ele>1466</ele>
        <time>2018-11-18T10:33:52.000Z</time>
      </trkpt>
      <trkpt lat="42.69069" lon="1.65051">
        <ele>1466</ele>
        <time>2018-11-18T10:33:54.000Z</time>
      </trkpt>
      <trkpt lat="42.69068" lon="1.65051">
        <ele>1466</ele>
        <time>2018-11-18T10:33:56.000Z</time>
      </trkpt>
      <trkpt lat="42.69067" lon="1.6505">
        <ele>1466</ele>
        <time>2018-11-18T10:33:58.000Z</time>
      </trkpt>
      <trkpt lat="42.69065" lon="1.6505">
        <ele>1466</ele>
        <time>2018-11-18T10:34:00.000Z</time>
      </trkpt>
      <trkpt lat="42.69064" lon="1.65049">
        <ele>1466</ele>
        <time>2018-11-18T10:34:02.000Z</time>
      </trkpt>
      <trkpt lat="42.69062" lon="1.65049">
        <ele>1467</ele>
        <time>2018-11-18T10:34:04.000Z</time>
      </trkpt>
      <trkpt lat="42.6906" lon="1.65048">
        <ele>1467</ele>
        <time>2018-11-18T10:34:06.000Z</time>
      </trkpt>
      <trkpt lat="42.69058" lon="1.65048">
        <ele>1467</ele>
        <time>2018-11-18T10:34:08.000Z</time>
      </trkpt>
      <trkpt lat="42.69056" lon="1.65047">
        <ele>1467</ele>
        <time>2018-11-18T10:34:10.000Z</time>
      </trkpt>
      <trkpt lat="42.69054" lon="1.65046">
        <ele>1467</ele>
        <time>2018-11-18T10:34:12.000Z</time>
      </trkpt>
      <trkpt lat="42.69053" lon="1.65046">
        <ele>1467</ele>
        <time>2018-11-18T10:34:14.000Z</time>
      </trkpt>
      <trkpt lat="42.69052" lon="1.65046">
        <ele>1468</ele>
        <time>2018-11-18T10:34:16.000Z</time>
      </trkpt>
      <trkpt lat="42.69051" lon="1.65046">
        <ele>1468</ele>
        <time>2018-11-18T10:34:18.000Z</time>
      </trkpt>
      <trkpt lat="42.69049" lon="1.65045">
        <ele>1468</ele>
        <time>2018-11-18T10:34:20.000Z</time>
      </trkpt>
      <trkpt lat="42.69049" lon="1.65045">
        <ele>1468</ele>
        <time>2018-11-18T10:34:22.000Z</time>
      </trkpt>
      <trkpt lat="42.69047" lon="1.65045">
        <ele>1468</ele>
        <time>2018-11-18T10:34:24.000Z</time>
      </trkpt>
      <trkpt lat="42.69046" lon="1.65045">
        <ele>1469</ele>
        <time>2018-11-18T10:34:26.000Z</time>
      </trkpt>
      <trkpt lat="42.69044" lon="1.65046">
        <ele>1470</ele>
        <time>2018-11-18T10:34:28.000Z</time>
      </trkpt>
      <trkpt lat="42.69042" lon="1.65046">
        <ele>1470</ele>
        <time>2018-11-18T10:34:30.000Z</time>
      </trkpt>
      <trkpt lat="42.69041" lon="1.65046">
        <ele>1470</ele>
        <time>2018-11-18T10:34:32.000Z</time>
      </trkpt>
      <trkpt lat="42.6904" lon="1.65045">
        <ele>1470</ele>
        <time>2018-11-18T10:34:34.000Z</time>
      </trkpt>
      <trkpt lat="42.69038" lon="1.65045">
        <ele>1471</ele>
        <time>2018-11-18T10:34:36.000Z</time>
      </trkpt>
      <trkpt lat="42.69038" lon="1.65045">
        <ele>1471</ele>
        <time>2018-11-18T10:34:38.000Z</time>
      </trkpt>
      <trkpt lat="42.69037" lon="1.65045">
        <ele>1471</ele>
        <time>2018-11-18T10:34:40.000Z</time>
      </trkpt>
      <trkpt lat="42.69036" lon="1.65045">
        <ele>1471</ele>
        <time>2018-11-18T10:34:42.000Z</time>
      </trkpt>
      <trkpt lat="42.69035" lon="1.65045">
        <ele>1471</ele>
        <time>2018-11-18T10:34:44.000Z</time>
      </trkpt>
      <trkpt lat="42.69035" lon="1.65045">
        <ele>1472</ele>
        <time>2018-11-18T10:34:46.000Z</time>
      </trkpt>
      <trkpt lat="42.69034" lon="1.65044">
        <ele>1471</ele>
        <time>2018-11-18T10:34:48.000Z</time>
      </trkpt>
      <trkpt lat="42.69034" lon="1.65044">
        <ele>1471</ele>
        <time>2018-11-18T10:34:50.000Z</time>
      </trkpt>
      <trkpt lat="42.69034" lon="1.65044">
        <ele>1471</ele>
        <time>2018-11-18T10:34:52.000Z</time>
      </trkpt>
      <trkpt lat="42.69033" lon="1.65044">
        <ele>1471</ele>
        <time>2018-11-18T10:34:54.000Z</time>
      </trkpt>
      <trkpt lat="42.69032" lon="1.65043">
        <ele>1471</ele>
        <time>2018-11-18T10:34:56.000Z</time>
      </trkpt>
      <trkpt lat="42.69032" lon="1.65044">
        <ele>1472</ele>
        <time>2018-11-18T10:34:58.000Z</time>
      </trkpt>
      <trkpt lat="42.6903" lon="1.65044">
        <ele>1472</ele>
        <time>2018-11-18T10:35:00.000Z</time>
      </trkpt>
      <trkpt lat="42.69029" lon="1.65044">
        <ele>1472</ele>
        <time>2018-11-18T10:35:02.000Z</time>
      </trkpt>
      <trkpt lat="42.69028" lon="1.65042">
        <ele>1472</ele>
        <time>2018-11-18T10:35:04.000Z</time>
      </trkpt>
      <trkpt lat="42.69027" lon="1.65042">
        <ele>1472</ele>
        <time>2018-11-18T10:35:06.000Z</time>
      </trkpt>
      <trkpt lat="42.69026" lon="1.65042">
        <ele>1472</ele>
        <time>2018-11-18T10:35:08.000Z</time>
      </trkpt>
      <trkpt lat="42.69026" lon="1.65041">
        <ele>1472</ele>
        <time>2018-11-18T10:35:10.000Z</time>
      </trkpt>
      <trkpt lat="42.69025" lon="1.65041">
        <ele>1472</ele>
        <time>2018-11-18T10:35:12.000Z</time>
      </trkpt>
      <trkpt lat="42.69024" lon="1.65039">
        <ele>1471</ele>
        <time>2018-11-18T10:35:14.000Z</time>
      </trkpt>
      <trkpt lat="42.69024" lon="1.65038">
        <ele>1471</ele>
        <time>2018-11-18T10:35:16.000Z</time>
      </trkpt>
      <trkpt lat="42.69023" lon="1.65038">
        <ele>1471</ele>
        <time>2018-11-18T10:35:18.000Z</time>
      </trkpt>
      <trkpt lat="42.69022" lon="1.65038">
        <ele>1471</ele>
        <time>2018-11-18T10:35:20.000Z</time>
      </trkpt>
      <trkpt lat="42.69021" lon="1.65038">
        <ele>1472</ele>
        <time>2018-11-18T10:35:22.000Z</time>
      </trkpt>
      <trkpt lat="42.6902" lon="1.65039">
        <ele>1472</ele>
        <time>2018-11-18T10:35:24.000Z</time>
      </trkpt>
      <trkpt lat="42.6902" lon="1.65038">
        <ele>1472</ele>
        <time>2018-11-18T10:35:26.000Z</time>
      </trkpt>
      <trkpt lat="42.69019" lon="1.65039">
        <ele>1472</ele>
        <time>2018-11-18T10:35:28.000Z</time>
      </trkpt>
      <trkpt lat="42.69018" lon="1.65039">
        <ele>1473</ele>
        <time>2018-11-18T10:35:30.000Z</time>
      </trkpt>
      <trkpt lat="42.69017" lon="1.65038">
        <ele>1473</ele>
        <time>2018-11-18T10:35:32.000Z</time>
      </trkpt>
      <trkpt lat="42.69015" lon="1.65038">
        <ele>1473</ele>
        <time>2018-11-18T10:35:34.000Z</time>
      </trkpt>
      <trkpt lat="42.69014" lon="1.65038">
        <ele>1473</ele>
        <time>2018-11-18T10:35:36.000Z</time>
      </trkpt>
      <trkpt lat="42.69012" lon="1.65037">
        <ele>1473</ele>
        <time>2018-11-18T10:35:38.000Z</time>
      </trkpt>
      <trkpt lat="42.69012" lon="1.65035">
        <ele>1473</ele>
        <time>2018-11-18T10:35:40.000Z</time>
      </trkpt>
      <trkpt lat="42.69011" lon="1.65035">
        <ele>1473</ele>
        <time>2018-11-18T10:35:42.000Z</time>
      </trkpt>
      <trkpt lat="42.6901" lon="1.65035">
        <ele>1473</ele>
        <time>2018-11-18T10:35:44.000Z</time>
      </trkpt>
      <trkpt lat="42.69009" lon="1.65034">
        <ele>1473</ele>
        <time>2018-11-18T10:35:46.000Z</time>
      </trkpt>
      <trkpt lat="42.69008" lon="1.65034">
        <ele>1473</ele>
        <time>2018-11-18T10:35:48.000Z</time>
      </trkpt>
      <trkpt lat="42.69006" lon="1.65034">
        <ele>1473</ele>
        <time>2018-11-18T10:35:50.000Z</time>
      </trkpt>
      <trkpt lat="42.69005" lon="1.65033">
        <ele>1473</ele>
        <time>2018-11-18T10:35:52.000Z</time>
      </trkpt>
      <trkpt lat="42.69003" lon="1.65033">
        <ele>1474</ele>
        <time>2018-11-18T10:35:54.000Z</time>
      </trkpt>
      <trkpt lat="42.69001" lon="1.65034">
        <ele>1474</ele>
        <time>2018-11-18T10:35:56.000Z</time>
      </trkpt>
      <trkpt lat="42.69" lon="1.65033">
        <ele>1474</ele>
        <time>2018-11-18T10:35:58.000Z</time>
      </trkpt>
      <trkpt lat="42.68998" lon="1.65033">
        <ele>1474</ele>
        <time>2018-11-18T10:36:00.000Z</time>
      </trkpt>
      <trkpt lat="42.68997" lon="1.65033">
        <ele>1474</ele>
        <time>2018-11-18T10:36:02.000Z</time>
      </trkpt>
      <trkpt lat="42.68996" lon="1.65032">
        <ele>1474</ele>
        <time>2018-11-18T10:36:04.000Z</time>
      </trkpt>
      <trkpt lat="42.68994" lon="1.65032">
        <ele>1474</ele>
        <time>2018-11-18T10:36:06.000Z</time>
      </trkpt>
      <trkpt lat="42.68993" lon="1.65031">
        <ele>1474</ele>
        <time>2018-11-18T10:36:08.000Z</time>
      </trkpt>
      <trkpt lat="42.68992" lon="1.65031">
        <ele>1474</ele>
        <time>2018-11-18T10:36:10.000Z</time>
      </trkpt>
      <trkpt lat="42.68991" lon="1.65031">
        <ele>1474</ele>
        <time>2018-11-18T10:36:12.000Z</time>
      </trkpt>
      <trkpt lat="42.6899" lon="1.6503">
        <ele>1474</ele>
        <time>2018-11-18T10:36:14.000Z</time>
      </trkpt>
      <trkpt lat="42.68989" lon="1.6503">
        <ele>1474</ele>
        <time>2018-11-18T10:36:16.000Z</time>
      </trkpt>
      <trkpt lat="42.68988" lon="1.65029">
        <ele>1474</ele>
        <time>2018-11-18T10:36:18.000Z</time>
      </trkpt>
      <trkpt lat="42.68988" lon="1.65028">
        <ele>1473</ele>
        <time>2018-11-18T10:36:20.000Z</time>
      </trkpt>
      <trkpt lat="42.68986" lon="1.65028">
        <ele>1474</ele>
        <time>2018-11-18T10:36:22.000Z</time>
      </trkpt>
      <trkpt lat="42.68985" lon="1.65028">
        <ele>1474</ele>
        <time>2018-11-18T10:36:24.000Z</time>
      </trkpt>
      <trkpt lat="42.68983" lon="1.65028">
        <ele>1474</ele>
        <time>2018-11-18T10:36:26.000Z</time>
      </trkpt>
      <trkpt lat="42.68982" lon="1.65028">
        <ele>1474</ele>
        <time>2018-11-18T10:36:28.000Z</time>
      </trkpt>
      <trkpt lat="42.68981" lon="1.65027">
        <ele>1474</ele>
        <time>2018-11-18T10:36:30.000Z</time>
      </trkpt>
      <trkpt lat="42.6898" lon="1.65026">
        <ele>1473</ele>
        <time>2018-11-18T10:36:32.000Z</time>
      </trkpt>
      <trkpt lat="42.68979" lon="1.65025">
        <ele>1473</ele>
        <time>2018-11-18T10:36:34.000Z</time>
      </trkpt>
      <trkpt lat="42.68978" lon="1.65024">
        <ele>1473</ele>
        <time>2018-11-18T10:36:36.000Z</time>
      </trkpt>
      <trkpt lat="42.68977" lon="1.65023">
        <ele>1472</ele>
        <time>2018-11-18T10:36:38.000Z</time>
      </trkpt>
      <trkpt lat="42.68975" lon="1.65022">
        <ele>1472</ele>
        <time>2018-11-18T10:36:40.000Z</time>
      </trkpt>
      <trkpt lat="42.68973" lon="1.65022">
        <ele>1472</ele>
        <time>2018-11-18T10:36:42.000Z</time>
      </trkpt>
      <trkpt lat="42.68973" lon="1.6502">
        <ele>1472</ele>
        <time>2018-11-18T10:36:44.000Z</time>
      </trkpt>
      <trkpt lat="42.68972" lon="1.65019">
        <ele>1471</ele>
        <time>2018-11-18T10:36:46.000Z</time>
      </trkpt>
      <trkpt lat="42.68972" lon="1.65018">
        <ele>1471</ele>
        <time>2018-11-18T10:36:48.000Z</time>
      </trkpt>
      <trkpt lat="42.68971" lon="1.65017">
        <ele>1471</ele>
        <time>2018-11-18T10:36:50.000Z</time>
      </trkpt>
      <trkpt lat="42.6897" lon="1.65016">
        <ele>1470</ele>
        <time>2018-11-18T10:36:52.000Z</time>
      </trkpt>
      <trkpt lat="42.68969" lon="1.65014">
        <ele>1469</ele>
        <time>2018-11-18T10:36:54.000Z</time>
      </trkpt>
      <trkpt lat="42.68969" lon="1.65013">
        <ele>1469</ele>
        <time>2018-11-18T10:36:56.000Z</time>
      </trkpt>
      <trkpt lat="42.68969" lon="1.65012">
        <ele>1469</ele>
        <time>2018-11-18T10:36:58.000Z</time>
      </trkpt>
      <trkpt lat="42.68969" lon="1.65012">
        <ele>1468</ele>
        <time>2018-11-18T10:37:00.000Z</time>
      </trkpt>
      <trkpt lat="42.68969" lon="1.65012">
        <ele>1468</ele>
        <time>2018-11-18T10:37:02.000Z</time>
      </trkpt>
      <trkpt lat="42.68969" lon="1.65011">
        <ele>1468</ele>
        <time>2018-11-18T10:37:04.000Z</time>
      </trkpt>
      <trkpt lat="42.68969" lon="1.65011">
        <ele>1468</ele>
        <time>2018-11-18T10:37:06.000Z</time>
      </trkpt>
      <trkpt lat="42.68969" lon="1.6501">
        <ele>1468</ele>
        <time>2018-11-18T10:37:08.000Z</time>
      </trkpt>
      <trkpt lat="42.68969" lon="1.6501">
        <ele>1467</ele>
        <time>2018-11-18T10:37:10.000Z</time>
      </trkpt>
      <trkpt lat="42.68969" lon="1.6501">
        <ele>1467</ele>
        <time>2018-11-18T10:37:12.000Z</time>
      </trkpt>
      <trkpt lat="42.68969" lon="1.65009">
        <ele>1467</ele>
        <time>2018-11-18T10:37:14.000Z</time>
      </trkpt>
      <trkpt lat="42.68969" lon="1.65009">
        <ele>1467</ele>
        <time>2018-11-18T10:37:16.000Z</time>
      </trkpt>
      <trkpt lat="42.68969" lon="1.65009">
        <ele>1467</ele>
        <time>2018-11-18T10:37:18.000Z</time>
      </trkpt>
      <trkpt lat="42.68969" lon="1.65008">
        <ele>1467</ele>
        <time>2018-11-18T10:37:20.000Z</time>
      </trkpt>
      <trkpt lat="42.6897" lon="1.65008">
        <ele>1467</ele>
        <time>2018-11-18T10:37:22.000Z</time>
      </trkpt>
      <trkpt lat="42.6897" lon="1.65009">
        <ele>1467</ele>
        <time>2018-11-18T10:37:24.000Z</time>
      </trkpt>
      <trkpt lat="42.6897" lon="1.65009">
        <ele>1467</ele>
        <time>2018-11-18T10:37:26.000Z</time>
      </trkpt>
      <trkpt lat="42.6897" lon="1.65009">
        <ele>1467</ele>
        <time>2018-11-18T10:37:28.000Z</time>
      </trkpt>
      <trkpt lat="42.6897" lon="1.65009">
        <ele>1467</ele>
        <time>2018-11-18T10:37:30.000Z</time>
      </trkpt>
      <trkpt lat="42.6897" lon="1.65008">
        <ele>1467</ele>
        <time>2018-11-18T10:37:32.000Z</time>
      </trkpt>
      <trkpt lat="42.6897" lon="1.65009">
        <ele>1467</ele>
        <time>2018-11-18T10:37:34.000Z</time>
      </trkpt>
      <trkpt lat="42.6897" lon="1.65009">
        <ele>1467</ele>
        <time>2018-11-18T10:37:36.000Z</time>
      </trkpt>
      <trkpt lat="42.6897" lon="1.65009">
        <ele>1467</ele>
        <time>2018-11-18T10:37:38.000Z</time>
      </trkpt>
      <trkpt lat="42.6897" lon="1.65009">
        <ele>1467</ele>
        <time>2018-11-18T10:37:40.000Z</time>
      </trkpt>
      <trkpt lat="42.6897" lon="1.65009">
        <ele>1467</ele>
        <time>2018-11-18T10:37:42.000Z</time>
      </trkpt>
      <trkpt lat="42.6897" lon="1.65009">
        <ele>1467</ele>
        <time>2018-11-18T10:37:44.000Z</time>
      </trkpt>
      <trkpt lat="42.68969" lon="1.65009">
        <ele>1467</ele>
        <time>2018-11-18T10:37:46.000Z</time>
      </trkpt>
      <trkpt lat="42.68969" lon="1.65009">
        <ele>1467</ele>
        <time>2018-11-18T10:37:48.000Z</time>
      </trkpt>
      <trkpt lat="42.6897" lon="1.65009">
        <ele>1467</ele>
        <time>2018-11-18T10:37:50.000Z</time>
      </trkpt>
      <trkpt lat="42.6897" lon="1.65009">
        <ele>1467</ele>
        <time>2018-11-18T10:37:52.000Z</time>
      </trkpt>
      <trkpt lat="42.6897" lon="1.65009">
        <ele>1467</ele>
        <time>2018-11-18T10:37:54.000Z</time>
      </trkpt>
      <trkpt lat="42.68969" lon="1.65009">
        <ele>1467</ele>
        <time>2018-11-18T10:37:56.000Z</time>
      </trkpt>
      <trkpt lat="42.68969" lon="1.6501">
        <ele>1467</ele>
        <time>2018-11-18T10:37:58.000Z</time>
      </trkpt>
      <trkpt lat="42.68969" lon="1.6501">
        <ele>1467</ele>
        <time>2018-11-18T10:38:00.000Z</time>
      </trkpt>
      <trkpt lat="42.68969" lon="1.6501">
        <ele>1467</ele>
        <time>2018-11-18T10:38:02.000Z</time>
      </trkpt>
      <trkpt lat="42.68969" lon="1.6501">
        <ele>1467</ele>
        <time>2018-11-18T10:38:04.000Z</time>
      </trkpt>
      <trkpt lat="42.68969" lon="1.65009">
        <ele>1467</ele>
        <time>2018-11-18T10:38:06.000Z</time>
      </trkpt>
      <trkpt lat="42.68969" lon="1.65009">
        <ele>1467</ele>
        <time>2018-11-18T10:38:08.000Z</time>
      </trkpt>
      <trkpt lat="42.6897" lon="1.65009">
        <ele>1467</ele>
        <time>2018-11-18T10:38:10.000Z</time>
      </trkpt>
      <trkpt lat="42.6897" lon="1.65008">
        <ele>1467</ele>
        <time>2018-11-18T10:38:12.000Z</time>
      </trkpt>
      <trkpt lat="42.6897" lon="1.65008">
        <ele>1467</ele>
        <time>2018-11-18T10:38:14.000Z</time>
      </trkpt>
      <trkpt lat="42.6897" lon="1.65008">
        <ele>1466</ele>
        <time>2018-11-18T10:38:16.000Z</time>
      </trkpt>
      <trkpt lat="42.6897" lon="1.65008">
        <ele>1466</ele>
        <time>2018-11-18T10:38:18.000Z</time>
      </trkpt>
      <trkpt lat="42.6897" lon="1.65008">
        <ele>1466</ele>
        <time>2018-11-18T10:38:20.000Z</time>
      </trkpt>
      <trkpt lat="42.6897" lon="1.65008">
        <ele>1466</ele>
        <time>2018-11-18T10:38:22.000Z</time>
      </trkpt>
      <trkpt lat="42.6897" lon="1.65008">
        <ele>1467</ele>
        <time>2018-11-18T10:38:24.000Z</time>
      </trkpt>
      <trkpt lat="42.6897" lon="1.65009">
        <ele>1467</ele>
        <time>2018-11-18T10:38:26.000Z</time>
      </trkpt>
      <trkpt lat="42.6897" lon="1.65009">
        <ele>1467</ele>
        <time>2018-11-18T10:38:28.000Z</time>
      </trkpt>
      <trkpt lat="42.6897" lon="1.65009">
        <ele>1467</ele>
        <time>2018-11-18T10:38:30.000Z</time>
      </trkpt>
      <trkpt lat="42.6897" lon="1.65009">
        <ele>1467</ele>
        <time>2018-11-18T10:38:32.000Z</time>
      </trkpt>
      <trkpt lat="42.6897" lon="1.65009">
        <ele>1467</ele>
        <time>2018-11-18T10:38:34.000Z</time>
      </trkpt>
      <trkpt lat="42.6897" lon="1.65009">
        <ele>1467</ele>
        <time>2018-11-18T10:38:36.000Z</time>
      </trkpt>
      <trkpt lat="42.6897" lon="1.65008">
        <ele>1467</ele>
        <time>2018-11-18T10:38:38.000Z</time>
      </trkpt>
      <trkpt lat="42.6897" lon="1.65008">
        <ele>1466</ele>
        <time>2018-11-18T10:38:40.000Z</time>
      </trkpt>
      <trkpt lat="42.6897" lon="1.65008">
        <ele>1466</ele>
        <time>2018-11-18T10:38:42.000Z</time>
      </trkpt>
      <trkpt lat="42.68969" lon="1.65008">
        <ele>1467</ele>
        <time>2018-11-18T10:38:44.000Z</time>
      </trkpt>
      <trkpt lat="42.68969" lon="1.65008">
        <ele>1466</ele>
        <time>2018-11-18T10:38:46.000Z</time>
      </trkpt>
      <trkpt lat="42.68969" lon="1.65007">
        <ele>1466</ele>
        <time>2018-11-18T10:38:48.000Z</time>
      </trkpt>
      <trkpt lat="42.68968" lon="1.65007">
        <ele>1466</ele>
        <time>2018-11-18T10:38:50.000Z</time>
      </trkpt>
      <trkpt lat="42.68969" lon="1.65008">
        <ele>1467</ele>
        <time>2018-11-18T10:38:52.000Z</time>
      </trkpt>
      <trkpt lat="42.68968" lon="1.65008">
        <ele>1467</ele>
        <time>2018-11-18T10:38:54.000Z</time>
      </trkpt>
      <trkpt lat="42.68968" lon="1.65009">
        <ele>1467</ele>
        <time>2018-11-18T10:38:56.000Z</time>
      </trkpt>
      <trkpt lat="42.68968" lon="1.6501">
        <ele>1468</ele>
        <time>2018-11-18T10:38:58.000Z</time>
      </trkpt>
      <trkpt lat="42.68968" lon="1.65011">
        <ele>1468</ele>
        <time>2018-11-18T10:39:00.000Z</time>
      </trkpt>
      <trkpt lat="42.68968" lon="1.65011">
        <ele>1468</ele>
        <time>2018-11-18T10:39:02.000Z</time>
      </trkpt>
      <trkpt lat="42.68968" lon="1.65011">
        <ele>1468</ele>
        <time>2018-11-18T10:39:04.000Z</time>
      </trkpt>
      <trkpt lat="42.68968" lon="1.65011">
        <ele>1468</ele>
        <time>2018-11-18T10:39:06.000Z</time>
      </trkpt>
      <trkpt lat="42.68967" lon="1.6501">
        <ele>1468</ele>
        <time>2018-11-18T10:39:08.000Z</time>
      </trkpt>
      <trkpt lat="42.68967" lon="1.65008">
        <ele>1467</ele>
        <time>2018-11-18T10:39:10.000Z</time>
      </trkpt>
      <trkpt lat="42.68967" lon="1.65007">
        <ele>1466</ele>
        <time>2018-11-18T10:39:12.000Z</time>
      </trkpt>
      <trkpt lat="42.68967" lon="1.65006">
        <ele>1466</ele>
        <time>2018-11-18T10:39:14.000Z</time>
      </trkpt>
      <trkpt lat="42.68968" lon="1.65005">
        <ele>1465</ele>
        <time>2018-11-18T10:39:16.000Z</time>
      </trkpt>
      <trkpt lat="42.68967" lon="1.65004">
        <ele>1465</ele>
        <time>2018-11-18T10:39:18.000Z</time>
      </trkpt>
      <trkpt lat="42.68967" lon="1.65003">
        <ele>1465</ele>
        <time>2018-11-18T10:39:20.000Z</time>
      </trkpt>
      <trkpt lat="42.68966" lon="1.65002">
        <ele>1464</ele>
        <time>2018-11-18T10:39:22.000Z</time>
      </trkpt>
      <trkpt lat="42.68966" lon="1.65002">
        <ele>1464</ele>
        <time>2018-11-18T10:39:24.000Z</time>
      </trkpt>
      <trkpt lat="42.68965" lon="1.65002">
        <ele>1464</ele>
        <time>2018-11-18T10:39:26.000Z</time>
      </trkpt>
      <trkpt lat="42.68964" lon="1.65002">
        <ele>1464</ele>
        <time>2018-11-18T10:39:28.000Z</time>
      </trkpt>
      <trkpt lat="42.68962" lon="1.65001">
        <ele>1464</ele>
        <time>2018-11-18T10:39:30.000Z</time>
      </trkpt>
      <trkpt lat="42.68961" lon="1.65">
        <ele>1464</ele>
        <time>2018-11-18T10:39:32.000Z</time>
      </trkpt>
      <trkpt lat="42.68959" lon="1.65001">
        <ele>1465</ele>
        <time>2018-11-18T10:39:34.000Z</time>
      </trkpt>
      <trkpt lat="42.68957" lon="1.65">
        <ele>1465</ele>
        <time>2018-11-18T10:39:36.000Z</time>
      </trkpt>
      <trkpt lat="42.68955" lon="1.65">
        <ele>1465</ele>
        <time>2018-11-18T10:39:38.000Z</time>
      </trkpt>
      <trkpt lat="42.68954" lon="1.64998">
        <ele>1464</ele>
        <time>2018-11-18T10:39:40.000Z</time>
      </trkpt>
      <trkpt lat="42.68952" lon="1.64997">
        <ele>1464</ele>
        <time>2018-11-18T10:39:42.000Z</time>
      </trkpt>
      <trkpt lat="42.6895" lon="1.64997">
        <ele>1464</ele>
        <time>2018-11-18T10:39:44.000Z</time>
      </trkpt>
      <trkpt lat="42.68949" lon="1.64997">
        <ele>1464</ele>
        <time>2018-11-18T10:39:46.000Z</time>
      </trkpt>
      <trkpt lat="42.68947" lon="1.64996">
        <ele>1464</ele>
        <time>2018-11-18T10:39:48.000Z</time>
      </trkpt>
      <trkpt lat="42.68946" lon="1.64994">
        <ele>1463</ele>
        <time>2018-11-18T10:39:50.000Z</time>
      </trkpt>
      <trkpt lat="42.68944" lon="1.64993">
        <ele>1463</ele>
        <time>2018-11-18T10:39:52.000Z</time>
      </trkpt>
      <trkpt lat="42.68942" lon="1.64992">
        <ele>1463</ele>
        <time>2018-11-18T10:39:54.000Z</time>
      </trkpt>
      <trkpt lat="42.6894" lon="1.64991">
        <ele>1463</ele>
        <time>2018-11-18T10:39:56.000Z</time>
      </trkpt>
      <trkpt lat="42.68937" lon="1.6499">
        <ele>1462</ele>
        <time>2018-11-18T10:39:58.000Z</time>
      </trkpt>
      <trkpt lat="42.68935" lon="1.64989">
        <ele>1462</ele>
        <time>2018-11-18T10:40:00.000Z</time>
      </trkpt>
      <trkpt lat="42.68933" lon="1.64989">
        <ele>1463</ele>
        <time>2018-11-18T10:40:02.000Z</time>
      </trkpt>
      <trkpt lat="42.6893" lon="1.64988">
        <ele>1463</ele>
        <time>2018-11-18T10:40:04.000Z</time>
      </trkpt>
      <trkpt lat="42.68927" lon="1.64988">
        <ele>1463</ele>
        <time>2018-11-18T10:40:06.000Z</time>
      </trkpt>
      <trkpt lat="42.68925" lon="1.64987">
        <ele>1463</ele>
        <time>2018-11-18T10:40:08.000Z</time>
      </trkpt>
      <trkpt lat="42.68922" lon="1.64986">
        <ele>1463</ele>
        <time>2018-11-18T10:40:10.000Z</time>
      </trkpt>
      <trkpt lat="42.68919" lon="1.64985">
        <ele>1463</ele>
        <time>2018-11-18T10:40:12.000Z</time>
      </trkpt>
      <trkpt lat="42.68917" lon="1.64985">
        <ele>1463</ele>
        <time>2018-11-18T10:40:14.000Z</time>
      </trkpt>
      <trkpt lat="42.68915" lon="1.64984">
        <ele>1463</ele>
        <time>2018-11-18T10:40:16.000Z</time>
      </trkpt>
      <trkpt lat="42.68913" lon="1.64985">
        <ele>1463</ele>
        <time>2018-11-18T10:40:18.000Z</time>
      </trkpt>
      <trkpt lat="42.68912" lon="1.64985">
        <ele>1463</ele>
        <time>2018-11-18T10:40:20.000Z</time>
      </trkpt>
      <trkpt lat="42.68911" lon="1.64985">
        <ele>1463</ele>
        <time>2018-11-18T10:40:22.000Z</time>
      </trkpt>
      <trkpt lat="42.6891" lon="1.64985">
        <ele>1463</ele>
        <time>2018-11-18T10:40:24.000Z</time>
      </trkpt>
      <trkpt lat="42.68908" lon="1.64985">
        <ele>1463</ele>
        <time>2018-11-18T10:40:26.000Z</time>
      </trkpt>
      <trkpt lat="42.68908" lon="1.64984">
        <ele>1463</ele>
        <time>2018-11-18T10:40:28.000Z</time>
      </trkpt>
      <trkpt lat="42.68908" lon="1.64984">
        <ele>1463</ele>
        <time>2018-11-18T10:40:30.000Z</time>
      </trkpt>
      <trkpt lat="42.68908" lon="1.64983">
        <ele>1463</ele>
        <time>2018-11-18T10:40:32.000Z</time>
      </trkpt>
      <trkpt lat="42.68908" lon="1.64983">
        <ele>1463</ele>
        <time>2018-11-18T10:40:34.000Z</time>
      </trkpt>
      <trkpt lat="42.68908" lon="1.64983">
        <ele>1463</ele>
        <time>2018-11-18T10:40:36.000Z</time>
      </trkpt>
      <trkpt lat="42.68908" lon="1.64983">
        <ele>1463</ele>
        <time>2018-11-18T10:40:38.000Z</time>
      </trkpt>
      <trkpt lat="42.68909" lon="1.64983">
        <ele>1463</ele>
        <time>2018-11-18T10:40:40.000Z</time>
      </trkpt>
      <trkpt lat="42.68909" lon="1.64983">
        <ele>1463</ele>
        <time>2018-11-18T10:40:42.000Z</time>
      </trkpt>
      <trkpt lat="42.68908" lon="1.64983">
        <ele>1463</ele>
        <time>2018-11-18T10:40:44.000Z</time>
      </trkpt>
      <trkpt lat="42.68908" lon="1.64982">
        <ele>1463</ele>
        <time>2018-11-18T10:40:46.000Z</time>
      </trkpt>
      <trkpt lat="42.68908" lon="1.64982">
        <ele>1463</ele>
        <time>2018-11-18T10:40:48.000Z</time>
      </trkpt>
      <trkpt lat="42.68908" lon="1.64982">
        <ele>1463</ele>
        <time>2018-11-18T10:40:50.000Z</time>
      </trkpt>
      <trkpt lat="42.68907" lon="1.64982">
        <ele>1463</ele>
        <time>2018-11-18T10:40:52.000Z</time>
      </trkpt>
      <trkpt lat="42.68907" lon="1.64981">
        <ele>1463</ele>
        <time>2018-11-18T10:40:54.000Z</time>
      </trkpt>
      <trkpt lat="42.68906" lon="1.64982">
        <ele>1463</ele>
        <time>2018-11-18T10:40:56.000Z</time>
      </trkpt>
      <trkpt lat="42.68906" lon="1.64982">
        <ele>1463</ele>
        <time>2018-11-18T10:40:58.000Z</time>
      </trkpt>
      <trkpt lat="42.68906" lon="1.64982">
        <ele>1463</ele>
        <time>2018-11-18T10:41:00.000Z</time>
      </trkpt>
      <trkpt lat="42.68906" lon="1.64982">
        <ele>1463</ele>
        <time>2018-11-18T10:41:02.000Z</time>
      </trkpt>
      <trkpt lat="42.68906" lon="1.64981">
        <ele>1463</ele>
        <time>2018-11-18T10:41:04.000Z</time>
      </trkpt>
      <trkpt lat="42.68906" lon="1.64981">
        <ele>1463</ele>
        <time>2018-11-18T10:41:06.000Z</time>
      </trkpt>
      <trkpt lat="42.68906" lon="1.6498">
        <ele>1463</ele>
        <time>2018-11-18T10:41:08.000Z</time>
      </trkpt>
      <trkpt lat="42.68906" lon="1.6498">
        <ele>1463</ele>
        <time>2018-11-18T10:41:10.000Z</time>
      </trkpt>
      <trkpt lat="42.68905" lon="1.6498">
        <ele>1463</ele>
        <time>2018-11-18T10:41:12.000Z</time>
      </trkpt>
      <trkpt lat="42.68905" lon="1.6498">
        <ele>1463</ele>
        <time>2018-11-18T10:41:14.000Z</time>
      </trkpt>
      <trkpt lat="42.68905" lon="1.6498">
        <ele>1463</ele>
        <time>2018-11-18T10:41:16.000Z</time>
      </trkpt>
      <trkpt lat="42.68905" lon="1.6498">
        <ele>1463</ele>
        <time>2018-11-18T10:41:18.000Z</time>
      </trkpt>
      <trkpt lat="42.68905" lon="1.64981">
        <ele>1463</ele>
        <time>2018-11-18T10:41:20.000Z</time>
      </trkpt>
      <trkpt lat="42.68905" lon="1.64981">
        <ele>1463</ele>
        <time>2018-11-18T10:41:22.000Z</time>
      </trkpt>
      <trkpt lat="42.68905" lon="1.64981">
        <ele>1463</ele>
        <time>2018-11-18T10:41:24.000Z</time>
      </trkpt>
      <trkpt lat="42.68905" lon="1.64981">
        <ele>1463</ele>
        <time>2018-11-18T10:41:26.000Z</time>
      </trkpt>
      <trkpt lat="42.68905" lon="1.64981">
        <ele>1463</ele>
        <time>2018-11-18T10:41:28.000Z</time>
      </trkpt>
      <trkpt lat="42.68905" lon="1.64981">
        <ele>1463</ele>
        <time>2018-11-18T10:41:30.000Z</time>
      </trkpt>
      <trkpt lat="42.68905" lon="1.64981">
        <ele>1463</ele>
        <time>2018-11-18T10:41:32.000Z</time>
      </trkpt>
      <trkpt lat="42.68904" lon="1.64981">
        <ele>1463</ele>
        <time>2018-11-18T10:41:34.000Z</time>
      </trkpt>
      <trkpt lat="42.68904" lon="1.64981">
        <ele>1463</ele>
        <time>2018-11-18T10:41:36.000Z</time>
      </trkpt>
      <trkpt lat="42.68904" lon="1.64981">
        <ele>1463</ele>
        <time>2018-11-18T10:41:38.000Z</time>
      </trkpt>
      <trkpt lat="42.68905" lon="1.64982">
        <ele>1463</ele>
        <time>2018-11-18T10:41:40.000Z</time>
      </trkpt>
      <trkpt lat="42.68905" lon="1.64982">
        <ele>1463</ele>
        <time>2018-11-18T10:41:42.000Z</time>
      </trkpt>
      <trkpt lat="42.68905" lon="1.64982">
        <ele>1463</ele>
        <time>2018-11-18T10:41:44.000Z</time>
      </trkpt>
      <trkpt lat="42.68905" lon="1.64981">
        <ele>1463</ele>
        <time>2018-11-18T10:41:46.000Z</time>
      </trkpt>
      <trkpt lat="42.68905" lon="1.64981">
        <ele>1463</ele>
        <time>2018-11-18T10:41:48.000Z</time>
      </trkpt>
      <trkpt lat="42.68905" lon="1.64981">
        <ele>1463</ele>
        <time>2018-11-18T10:41:50.000Z</time>
      </trkpt>
      <trkpt lat="42.68905" lon="1.64981">
        <ele>1463</ele>
        <time>2018-11-18T10:41:52.000Z</time>
      </trkpt>
      <trkpt lat="42.68905" lon="1.64981">
        <ele>1463</ele>
        <time>2018-11-18T10:41:54.000Z</time>
      </trkpt>
      <trkpt lat="42.68905" lon="1.64981">
        <ele>1463</ele>
        <time>2018-11-18T10:41:56.000Z</time>
      </trkpt>
      <trkpt lat="42.68905" lon="1.64981">
        <ele>1463</ele>
        <time>2018-11-18T10:41:58.000Z</time>
      </trkpt>
      <trkpt lat="42.68906" lon="1.64981">
        <ele>1463</ele>
        <time>2018-11-18T10:42:00.000Z</time>
      </trkpt>
      <trkpt lat="42.68906" lon="1.6498">
        <ele>1463</ele>
        <time>2018-11-18T10:42:02.000Z</time>
      </trkpt>
      <trkpt lat="42.68906" lon="1.6498">
        <ele>1463</ele>
        <time>2018-11-18T10:42:04.000Z</time>
      </trkpt>
      <trkpt lat="42.68906" lon="1.6498">
        <ele>1463</ele>
        <time>2018-11-18T10:42:06.000Z</time>
      </trkpt>
      <trkpt lat="42.68906" lon="1.64981">
        <ele>1463</ele>
        <time>2018-11-18T10:42:08.000Z</time>
      </trkpt>
      <trkpt lat="42.68906" lon="1.64981">
        <ele>1463</ele>
        <time>2018-11-18T10:42:10.000Z</time>
      </trkpt>
      <trkpt lat="42.68906" lon="1.64982">
        <ele>1463</ele>
        <time>2018-11-18T10:42:12.000Z</time>
      </trkpt>
      <trkpt lat="42.68906" lon="1.64982">
        <ele>1463</ele>
        <time>2018-11-18T10:42:14.000Z</time>
      </trkpt>
      <trkpt lat="42.68905" lon="1.64983">
        <ele>1463</ele>
        <time>2018-11-18T10:42:16.000Z</time>
      </trkpt>
      <trkpt lat="42.68905" lon="1.64983">
        <ele>1463</ele>
        <time>2018-11-18T10:42:18.000Z</time>
      </trkpt>
      <trkpt lat="42.68906" lon="1.64983">
        <ele>1463</ele>
        <time>2018-11-18T10:42:20.000Z</time>
      </trkpt>
      <trkpt lat="42.68906" lon="1.64984">
        <ele>1463</ele>
        <time>2018-11-18T10:42:22.000Z</time>
      </trkpt>
      <trkpt lat="42.68906" lon="1.64983">
        <ele>1463</ele>
        <time>2018-11-18T10:42:24.000Z</time>
      </trkpt>
      <trkpt lat="42.68906" lon="1.64983">
        <ele>1463</ele>
        <time>2018-11-18T10:42:26.000Z</time>
      </trkpt>
      <trkpt lat="42.68906" lon="1.64984">
        <ele>1463</ele>
        <time>2018-11-18T10:42:28.000Z</time>
      </trkpt>
      <trkpt lat="42.68906" lon="1.64983">
        <ele>1463</ele>
        <time>2018-11-18T10:42:30.000Z</time>
      </trkpt>
      <trkpt lat="42.68906" lon="1.64984">
        <ele>1463</ele>
        <time>2018-11-18T10:42:32.000Z</time>
      </trkpt>
      <trkpt lat="42.68906" lon="1.64983">
        <ele>1463</ele>
        <time>2018-11-18T10:42:34.000Z</time>
      </trkpt>
      <trkpt lat="42.68906" lon="1.64983">
        <ele>1463</ele>
        <time>2018-11-18T10:42:36.000Z</time>
      </trkpt>
      <trkpt lat="42.68906" lon="1.64983">
        <ele>1463</ele>
        <time>2018-11-18T10:42:38.000Z</time>
      </trkpt>
      <trkpt lat="42.68907" lon="1.64982">
        <ele>1463</ele>
        <time>2018-11-18T10:42:40.000Z</time>
      </trkpt>
      <trkpt lat="42.68907" lon="1.64982">
        <ele>1463</ele>
        <time>2018-11-18T10:42:42.000Z</time>
      </trkpt>
      <trkpt lat="42.68908" lon="1.64982">
        <ele>1463</ele>
        <time>2018-11-18T10:42:44.000Z</time>
      </trkpt>
      <trkpt lat="42.68908" lon="1.64982">
        <ele>1463</ele>
        <time>2018-11-18T10:42:46.000Z</time>
      </trkpt>
      <trkpt lat="42.68908" lon="1.64982">
        <ele>1463</ele>
        <time>2018-11-18T10:42:48.000Z</time>
      </trkpt>
      <trkpt lat="42.68908" lon="1.64982">
        <ele>1463</ele>
        <time>2018-11-18T10:42:50.000Z</time>
      </trkpt>
      <trkpt lat="42.68908" lon="1.64982">
        <ele>1463</ele>
        <time>2018-11-18T10:42:52.000Z</time>
      </trkpt>
      <trkpt lat="42.68908" lon="1.64982">
        <ele>1463</ele>
        <time>2018-11-18T10:42:54.000Z</time>
      </trkpt>
      <trkpt lat="42.68908" lon="1.64982">
        <ele>1463</ele>
        <time>2018-11-18T10:42:56.000Z</time>
      </trkpt>
      <trkpt lat="42.68908" lon="1.64982">
        <ele>1463</ele>
        <time>2018-11-18T10:42:58.000Z</time>
      </trkpt>
      <trkpt lat="42.68908" lon="1.64982">
        <ele>1463</ele>
        <time>2018-11-18T10:43:00.000Z</time>
      </trkpt>
      <trkpt lat="42.68908" lon="1.64982">
        <ele>1463</ele>
        <time>2018-11-18T10:43:02.000Z</time>
      </trkpt>
      <trkpt lat="42.68908" lon="1.64982">
        <ele>1463</ele>
        <time>2018-11-18T10:43:04.000Z</time>
      </trkpt>
      <trkpt lat="42.68908" lon="1.64982">
        <ele>1463</ele>
        <time>2018-11-18T10:43:06.000Z</time>
      </trkpt>
      <trkpt lat="42.68908" lon="1.64981">
        <ele>1463</ele>
        <time>2018-11-18T10:43:08.000Z</time>
      </trkpt>
      <trkpt lat="42.68908" lon="1.64981">
        <ele>1463</ele>
        <time>2018-11-18T10:43:10.000Z</time>
      </trkpt>
      <trkpt lat="42.68908" lon="1.64981">
        <ele>1463</ele>
        <time>2018-11-18T10:43:12.000Z</time>
      </trkpt>
      <trkpt lat="42.68908" lon="1.64981">
        <ele>1463</ele>
        <time>2018-11-18T10:43:14.000Z</time>
      </trkpt>
      <trkpt lat="42.68908" lon="1.64981">
        <ele>1463</ele>
        <time>2018-11-18T10:43:16.000Z</time>
      </trkpt>
      <trkpt lat="42.68909" lon="1.64981">
        <ele>1463</ele>
        <time>2018-11-18T10:43:18.000Z</time>
      </trkpt>
      <trkpt lat="42.68909" lon="1.64981">
        <ele>1463</ele>
        <time>2018-11-18T10:43:20.000Z</time>
      </trkpt>
      <trkpt lat="42.68909" lon="1.64982">
        <ele>1463</ele>
        <time>2018-11-18T10:43:22.000Z</time>
      </trkpt>
      <trkpt lat="42.68909" lon="1.64982">
        <ele>1463</ele>
        <time>2018-11-18T10:43:24.000Z</time>
      </trkpt>
      <trkpt lat="42.68909" lon="1.64982">
        <ele>1463</ele>
        <time>2018-11-18T10:43:26.000Z</time>
      </trkpt>
      <trkpt lat="42.68909" lon="1.64982">
        <ele>1463</ele>
        <time>2018-11-18T10:43:28.000Z</time>
      </trkpt>
      <trkpt lat="42.68909" lon="1.64983">
        <ele>1463</ele>
        <time>2018-11-18T10:43:30.000Z</time>
      </trkpt>
      <trkpt lat="42.68909" lon="1.64983">
        <ele>1463</ele>
        <time>2018-11-18T10:43:32.000Z</time>
      </trkpt>
      <trkpt lat="42.68909" lon="1.64983">
        <ele>1463</ele>
        <time>2018-11-18T10:43:34.000Z</time>
      </trkpt>
      <trkpt lat="42.68909" lon="1.64983">
        <ele>1463</ele>
        <time>2018-11-18T10:43:36.000Z</time>
      </trkpt>
      <trkpt lat="42.68909" lon="1.64982">
        <ele>1463</ele>
        <time>2018-11-18T10:43:38.000Z</time>
      </trkpt>
      <trkpt lat="42.68909" lon="1.64981">
        <ele>1463</ele>
        <time>2018-11-18T10:43:40.000Z</time>
      </trkpt>
      <trkpt lat="42.68909" lon="1.64981">
        <ele>1463</ele>
        <time>2018-11-18T10:43:42.000Z</time>
      </trkpt>
      <trkpt lat="42.68909" lon="1.64982">
        <ele>1463</ele>
        <time>2018-11-18T10:43:44.000Z</time>
      </trkpt>
      <trkpt lat="42.68909" lon="1.64982">
        <ele>1463</ele>
        <time>2018-11-18T10:43:46.000Z</time>
      </trkpt>
      <trkpt lat="42.68909" lon="1.64982">
        <ele>1463</ele>
        <time>2018-11-18T10:43:48.000Z</time>
      </trkpt>
      <trkpt lat="42.68909" lon="1.64982">
        <ele>1463</ele>
        <time>2018-11-18T10:43:50.000Z</time>
      </trkpt>
      <trkpt lat="42.68909" lon="1.64982">
        <ele>1463</ele>
        <time>2018-11-18T10:43:52.000Z</time>
      </trkpt>
      <trkpt lat="42.68909" lon="1.64983">
        <ele>1463</ele>
        <time>2018-11-18T10:43:54.000Z</time>
      </trkpt>
      <trkpt lat="42.68908" lon="1.64984">
        <ele>1463</ele>
        <time>2018-11-18T10:43:56.000Z</time>
      </trkpt>
      <trkpt lat="42.68906" lon="1.64984">
        <ele>1463</ele>
        <time>2018-11-18T10:43:58.000Z</time>
      </trkpt>
      <trkpt lat="42.68905" lon="1.64984">
        <ele>1463</ele>
        <time>2018-11-18T10:44:00.000Z</time>
      </trkpt>
      <trkpt lat="42.68905" lon="1.64985">
        <ele>1463</ele>
        <time>2018-11-18T10:44:02.000Z</time>
      </trkpt>
      <trkpt lat="42.68903" lon="1.64986">
        <ele>1464</ele>
        <time>2018-11-18T10:44:04.000Z</time>
      </trkpt>
      <trkpt lat="42.68903" lon="1.64987">
        <ele>1464</ele>
        <time>2018-11-18T10:44:06.000Z</time>
      </trkpt>
      <trkpt lat="42.68901" lon="1.64987">
        <ele>1464</ele>
        <time>2018-11-18T10:44:08.000Z</time>
      </trkpt>
      <trkpt lat="42.689" lon="1.64988">
        <ele>1464</ele>
        <time>2018-11-18T10:44:10.000Z</time>
      </trkpt>
      <trkpt lat="42.68899" lon="1.64988">
        <ele>1465</ele>
        <time>2018-11-18T10:44:12.000Z</time>
      </trkpt>
      <trkpt lat="42.68897" lon="1.64989">
        <ele>1465</ele>
        <time>2018-11-18T10:44:14.000Z</time>
      </trkpt>
      <trkpt lat="42.68895" lon="1.64989">
        <ele>1465</ele>
        <time>2018-11-18T10:44:16.000Z</time>
      </trkpt>
      <trkpt lat="42.68893" lon="1.64988">
        <ele>1465</ele>
        <time>2018-11-18T10:44:18.000Z</time>
      </trkpt>
      <trkpt lat="42.68891" lon="1.64988">
        <ele>1465</ele>
        <time>2018-11-18T10:44:20.000Z</time>
      </trkpt>
      <trkpt lat="42.68889" lon="1.64989">
        <ele>1465</ele>
        <time>2018-11-18T10:44:22.000Z</time>
      </trkpt>
      <trkpt lat="42.68887" lon="1.64989">
        <ele>1466</ele>
        <time>2018-11-18T10:44:24.000Z</time>
      </trkpt>
      <trkpt lat="42.68886" lon="1.64989">
        <ele>1465</ele>
        <time>2018-11-18T10:44:26.000Z</time>
      </trkpt>
      <trkpt lat="42.68884" lon="1.64989">
        <ele>1466</ele>
        <time>2018-11-18T10:44:28.000Z</time>
      </trkpt>
      <trkpt lat="42.68882" lon="1.64989">
        <ele>1466</ele>
        <time>2018-11-18T10:44:30.000Z</time>
      </trkpt>
      <trkpt lat="42.68881" lon="1.64988">
        <ele>1466</ele>
        <time>2018-11-18T10:44:32.000Z</time>
      </trkpt>
      <trkpt lat="42.68879" lon="1.64989">
        <ele>1466</ele>
        <time>2018-11-18T10:44:34.000Z</time>
      </trkpt>
      <trkpt lat="42.68878" lon="1.64989">
        <ele>1466</ele>
        <time>2018-11-18T10:44:36.000Z</time>
      </trkpt>
      <trkpt lat="42.68877" lon="1.64988">
        <ele>1465</ele>
        <time>2018-11-18T10:44:38.000Z</time>
      </trkpt>
      <trkpt lat="42.68877" lon="1.64987">
        <ele>1465</ele>
        <time>2018-11-18T10:44:40.000Z</time>
      </trkpt>
      <trkpt lat="42.68876" lon="1.64988">
        <ele>1465</ele>
        <time>2018-11-18T10:44:42.000Z</time>
      </trkpt>
      <trkpt lat="42.68874" lon="1.64988">
        <ele>1466</ele>
        <time>2018-11-18T10:44:44.000Z</time>
      </trkpt>
      <trkpt lat="42.68874" lon="1.64989">
        <ele>1466</ele>
        <time>2018-11-18T10:44:46.000Z</time>
      </trkpt>
      <trkpt lat="42.68872" lon="1.6499">
        <ele>1466</ele>
        <time>2018-11-18T10:44:48.000Z</time>
      </trkpt>
      <trkpt lat="42.68871" lon="1.6499">
        <ele>1467</ele>
        <time>2018-11-18T10:44:50.000Z</time>
      </trkpt>
      <trkpt lat="42.68871" lon="1.6499">
        <ele>1466</ele>
        <time>2018-11-18T10:44:52.000Z</time>
      </trkpt>
      <trkpt lat="42.6887" lon="1.6499">
        <ele>1467</ele>
        <time>2018-11-18T10:44:54.000Z</time>
      </trkpt>
      <trkpt lat="42.6887" lon="1.6499">
        <ele>1467</ele>
        <time>2018-11-18T10:44:56.000Z</time>
      </trkpt>
      <trkpt lat="42.68868" lon="1.6499">
        <ele>1467</ele>
        <time>2018-11-18T10:44:58.000Z</time>
      </trkpt>
      <trkpt lat="42.68867" lon="1.64989">
        <ele>1466</ele>
        <time>2018-11-18T10:45:00.000Z</time>
      </trkpt>
      <trkpt lat="42.68866" lon="1.64989">
        <ele>1466</ele>
        <time>2018-11-18T10:45:02.000Z</time>
      </trkpt>
      <trkpt lat="42.68865" lon="1.64989">
        <ele>1466</ele>
        <time>2018-11-18T10:45:04.000Z</time>
      </trkpt>
      <trkpt lat="42.68864" lon="1.64989">
        <ele>1466</ele>
        <time>2018-11-18T10:45:06.000Z</time>
      </trkpt>
      <trkpt lat="42.68864" lon="1.64989">
        <ele>1466</ele>
        <time>2018-11-18T10:45:08.000Z</time>
      </trkpt>
      <trkpt lat="42.68862" lon="1.64989">
        <ele>1466</ele>
        <time>2018-11-18T10:45:10.000Z</time>
      </trkpt>
      <trkpt lat="42.68861" lon="1.64989">
        <ele>1466</ele>
        <time>2018-11-18T10:45:12.000Z</time>
      </trkpt>
      <trkpt lat="42.6886" lon="1.64989">
        <ele>1466</ele>
        <time>2018-11-18T10:45:14.000Z</time>
      </trkpt>
      <trkpt lat="42.68858" lon="1.64989">
        <ele>1467</ele>
        <time>2018-11-18T10:45:16.000Z</time>
      </trkpt>
      <trkpt lat="42.68857" lon="1.64989">
        <ele>1467</ele>
        <time>2018-11-18T10:45:18.000Z</time>
      </trkpt>
      <trkpt lat="42.68855" lon="1.64989">
        <ele>1467</ele>
        <time>2018-11-18T10:45:20.000Z</time>
      </trkpt>
      <trkpt lat="42.68854" lon="1.64988">
        <ele>1466</ele>
        <time>2018-11-18T10:45:22.000Z</time>
      </trkpt>
      <trkpt lat="42.68853" lon="1.64987">
        <ele>1466</ele>
        <time>2018-11-18T10:45:24.000Z</time>
      </trkpt>
      <trkpt lat="42.68852" lon="1.64987">
        <ele>1466</ele>
        <time>2018-11-18T10:45:26.000Z</time>
      </trkpt>
      <trkpt lat="42.68851" lon="1.64987">
        <ele>1466</ele>
        <time>2018-11-18T10:45:28.000Z</time>
      </trkpt>
      <trkpt lat="42.68849" lon="1.64988">
        <ele>1467</ele>
        <time>2018-11-18T10:45:30.000Z</time>
      </trkpt>
      <trkpt lat="42.68847" lon="1.64988">
        <ele>1467</ele>
        <time>2018-11-18T10:45:32.000Z</time>
      </trkpt>
      <trkpt lat="42.68846" lon="1.64989">
        <ele>1467</ele>
        <time>2018-11-18T10:45:34.000Z</time>
      </trkpt>
      <trkpt lat="42.68845" lon="1.6499">
        <ele>1468</ele>
        <time>2018-11-18T10:45:36.000Z</time>
      </trkpt>
      <trkpt lat="42.68844" lon="1.64991">
        <ele>1468</ele>
        <time>2018-11-18T10:45:38.000Z</time>
      </trkpt>
      <trkpt lat="42.68842" lon="1.64991">
        <ele>1468</ele>
        <time>2018-11-18T10:45:40.000Z</time>
      </trkpt>
      <trkpt lat="42.68841" lon="1.64991">
        <ele>1468</ele>
        <time>2018-11-18T10:45:42.000Z</time>
      </trkpt>
      <trkpt lat="42.6884" lon="1.64991">
        <ele>1468</ele>
        <time>2018-11-18T10:45:44.000Z</time>
      </trkpt>
      <trkpt lat="42.68839" lon="1.64991">
        <ele>1468</ele>
        <time>2018-11-18T10:45:46.000Z</time>
      </trkpt>
      <trkpt lat="42.68838" lon="1.64991">
        <ele>1468</ele>
        <time>2018-11-18T10:45:48.000Z</time>
      </trkpt>
      <trkpt lat="42.68837" lon="1.64991">
        <ele>1468</ele>
        <time>2018-11-18T10:45:50.000Z</time>
      </trkpt>
      <trkpt lat="42.68836" lon="1.64991">
        <ele>1468</ele>
        <time>2018-11-18T10:45:52.000Z</time>
      </trkpt>
      <trkpt lat="42.68835" lon="1.64992">
        <ele>1468</ele>
        <time>2018-11-18T10:45:54.000Z</time>
      </trkpt>
      <trkpt lat="42.68834" lon="1.64993">
        <ele>1469</ele>
        <time>2018-11-18T10:45:56.000Z</time>
      </trkpt>
      <trkpt lat="42.68834" lon="1.64993">
        <ele>1469</ele>
        <time>2018-11-18T10:45:58.000Z</time>
      </trkpt>
      <trkpt lat="42.68832" lon="1.64994">
        <ele>1469</ele>
        <time>2018-11-18T10:46:00.000Z</time>
      </trkpt>
      <trkpt lat="42.68831" lon="1.64994">
        <ele>1469</ele>
        <time>2018-11-18T10:46:02.000Z</time>
      </trkpt>
      <trkpt lat="42.68829" lon="1.64994">
        <ele>1469</ele>
        <time>2018-11-18T10:46:04.000Z</time>
      </trkpt>
      <trkpt lat="42.68828" lon="1.64995">
        <ele>1470</ele>
        <time>2018-11-18T10:46:06.000Z</time>
      </trkpt>
      <trkpt lat="42.68827" lon="1.64995">
        <ele>1470</ele>
        <time>2018-11-18T10:46:08.000Z</time>
      </trkpt>
      <trkpt lat="42.68825" lon="1.64995">
        <ele>1470</ele>
        <time>2018-11-18T10:46:10.000Z</time>
      </trkpt>
      <trkpt lat="42.68824" lon="1.64996">
        <ele>1470</ele>
        <time>2018-11-18T10:46:12.000Z</time>
      </trkpt>
      <trkpt lat="42.68823" lon="1.64996">
        <ele>1470</ele>
        <time>2018-11-18T10:46:14.000Z</time>
      </trkpt>
      <trkpt lat="42.68822" lon="1.64998">
        <ele>1471</ele>
        <time>2018-11-18T10:46:16.000Z</time>
      </trkpt>
      <trkpt lat="42.68821" lon="1.64999">
        <ele>1472</ele>
        <time>2018-11-18T10:46:18.000Z</time>
      </trkpt>
      <trkpt lat="42.6882" lon="1.65001">
        <ele>1472</ele>
        <time>2018-11-18T10:46:20.000Z</time>
      </trkpt>
      <trkpt lat="42.6882" lon="1.65002">
        <ele>1473</ele>
        <time>2018-11-18T10:46:22.000Z</time>
      </trkpt>
      <trkpt lat="42.68819" lon="1.65003">
        <ele>1473</ele>
        <time>2018-11-18T10:46:24.000Z</time>
      </trkpt>
      <trkpt lat="42.68818" lon="1.65003">
        <ele>1473</ele>
        <time>2018-11-18T10:46:26.000Z</time>
      </trkpt>
      <trkpt lat="42.68816" lon="1.65003">
        <ele>1473</ele>
        <time>2018-11-18T10:46:28.000Z</time>
      </trkpt>
      <trkpt lat="42.68815" lon="1.65003">
        <ele>1473</ele>
        <time>2018-11-18T10:46:30.000Z</time>
      </trkpt>
      <trkpt lat="42.68814" lon="1.65003">
        <ele>1473</ele>
        <time>2018-11-18T10:46:32.000Z</time>
      </trkpt>
      <trkpt lat="42.68812" lon="1.65004">
        <ele>1474</ele>
        <time>2018-11-18T10:46:34.000Z</time>
      </trkpt>
      <trkpt lat="42.68811" lon="1.65004">
        <ele>1474</ele>
        <time>2018-11-18T10:46:36.000Z</time>
      </trkpt>
      <trkpt lat="42.6881" lon="1.65004">
        <ele>1474</ele>
        <time>2018-11-18T10:46:38.000Z</time>
      </trkpt>
      <trkpt lat="42.68809" lon="1.65003">
        <ele>1474</ele>
        <time>2018-11-18T10:46:40.000Z</time>
      </trkpt>
      <trkpt lat="42.68807" lon="1.65003">
        <ele>1474</ele>
        <time>2018-11-18T10:46:42.000Z</time>
      </trkpt>
      <trkpt lat="42.68807" lon="1.65003">
        <ele>1474</ele>
        <time>2018-11-18T10:46:44.000Z</time>
      </trkpt>
      <trkpt lat="42.68806" lon="1.65003">
        <ele>1474</ele>
        <time>2018-11-18T10:46:46.000Z</time>
      </trkpt>
      <trkpt lat="42.68805" lon="1.65004">
        <ele>1474</ele>
        <time>2018-11-18T10:46:48.000Z</time>
      </trkpt>
      <trkpt lat="42.68804" lon="1.65004">
        <ele>1474</ele>
        <time>2018-11-18T10:46:50.000Z</time>
      </trkpt>
      <trkpt lat="42.68802" lon="1.65004">
        <ele>1474</ele>
        <time>2018-11-18T10:46:52.000Z</time>
      </trkpt>
      <trkpt lat="42.68801" lon="1.65004">
        <ele>1474</ele>
        <time>2018-11-18T10:46:54.000Z</time>
      </trkpt>
      <trkpt lat="42.68798" lon="1.65003">
        <ele>1474</ele>
        <time>2018-11-18T10:46:56.000Z</time>
      </trkpt>
      <trkpt lat="42.68796" lon="1.65004">
        <ele>1475</ele>
        <time>2018-11-18T10:46:58.000Z</time>
      </trkpt>
      <trkpt lat="42.68794" lon="1.65004">
        <ele>1475</ele>
        <time>2018-11-18T10:47:00.000Z</time>
      </trkpt>
      <trkpt lat="42.68792" lon="1.65005">
        <ele>1475</ele>
        <time>2018-11-18T10:47:02.000Z</time>
      </trkpt>
      <trkpt lat="42.68791" lon="1.65005">
        <ele>1475</ele>
        <time>2018-11-18T10:47:04.000Z</time>
      </trkpt>
      <trkpt lat="42.68789" lon="1.65006">
        <ele>1476</ele>
        <time>2018-11-18T10:47:06.000Z</time>
      </trkpt>
      <trkpt lat="42.68788" lon="1.65007">
        <ele>1476</ele>
        <time>2018-11-18T10:47:08.000Z</time>
      </trkpt>
      <trkpt lat="42.68787" lon="1.65009">
        <ele>1477</ele>
        <time>2018-11-18T10:47:10.000Z</time>
      </trkpt>
      <trkpt lat="42.68786" lon="1.6501">
        <ele>1477</ele>
        <time>2018-11-18T10:47:12.000Z</time>
      </trkpt>
      <trkpt lat="42.68785" lon="1.6501">
        <ele>1477</ele>
        <time>2018-11-18T10:47:14.000Z</time>
      </trkpt>
      <trkpt lat="42.68783" lon="1.6501">
        <ele>1477</ele>
        <time>2018-11-18T10:47:16.000Z</time>
      </trkpt>
      <trkpt lat="42.68782" lon="1.6501">
        <ele>1478</ele>
        <time>2018-11-18T10:47:18.000Z</time>
      </trkpt>
      <trkpt lat="42.68781" lon="1.6501">
        <ele>1478</ele>
        <time>2018-11-18T10:47:20.000Z</time>
      </trkpt>
      <trkpt lat="42.6878" lon="1.6501">
        <ele>1478</ele>
        <time>2018-11-18T10:47:22.000Z</time>
      </trkpt>
      <trkpt lat="42.68779" lon="1.6501">
        <ele>1478</ele>
        <time>2018-11-18T10:47:24.000Z</time>
      </trkpt>
      <trkpt lat="42.68778" lon="1.6501">
        <ele>1478</ele>
        <time>2018-11-18T10:47:26.000Z</time>
      </trkpt>
      <trkpt lat="42.68777" lon="1.6501">
        <ele>1478</ele>
        <time>2018-11-18T10:47:28.000Z</time>
      </trkpt>
      <trkpt lat="42.68776" lon="1.65011">
        <ele>1478</ele>
        <time>2018-11-18T10:47:30.000Z</time>
      </trkpt>
      <trkpt lat="42.68775" lon="1.65012">
        <ele>1478</ele>
        <time>2018-11-18T10:47:32.000Z</time>
      </trkpt>
      <trkpt lat="42.68774" lon="1.65013">
        <ele>1479</ele>
        <time>2018-11-18T10:47:34.000Z</time>
      </trkpt>
      <trkpt lat="42.68774" lon="1.65014">
        <ele>1479</ele>
        <time>2018-11-18T10:47:36.000Z</time>
      </trkpt>
      <trkpt lat="42.68772" lon="1.65015">
        <ele>1479</ele>
        <time>2018-11-18T10:47:38.000Z</time>
      </trkpt>
      <trkpt lat="42.68771" lon="1.65016">
        <ele>1479</ele>
        <time>2018-11-18T10:47:40.000Z</time>
      </trkpt>
      <trkpt lat="42.68771" lon="1.65017">
        <ele>1480</ele>
        <time>2018-11-18T10:47:42.000Z</time>
      </trkpt>
      <trkpt lat="42.6877" lon="1.65019">
        <ele>1480</ele>
        <time>2018-11-18T10:47:44.000Z</time>
      </trkpt>
      <trkpt lat="42.68769" lon="1.6502">
        <ele>1481</ele>
        <time>2018-11-18T10:47:46.000Z</time>
      </trkpt>
      <trkpt lat="42.68768" lon="1.65022">
        <ele>1481</ele>
        <time>2018-11-18T10:47:48.000Z</time>
      </trkpt>
      <trkpt lat="42.68767" lon="1.65022">
        <ele>1481</ele>
        <time>2018-11-18T10:47:50.000Z</time>
      </trkpt>
      <trkpt lat="42.68766" lon="1.65022">
        <ele>1481</ele>
        <time>2018-11-18T10:47:52.000Z</time>
      </trkpt>
      <trkpt lat="42.68765" lon="1.65023">
        <ele>1481</ele>
        <time>2018-11-18T10:47:54.000Z</time>
      </trkpt>
      <trkpt lat="42.68763" lon="1.65024">
        <ele>1482</ele>
        <time>2018-11-18T10:47:56.000Z</time>
      </trkpt>
      <trkpt lat="42.68762" lon="1.65025">
        <ele>1482</ele>
        <time>2018-11-18T10:47:58.000Z</time>
      </trkpt>
      <trkpt lat="42.68761" lon="1.65025">
        <ele>1482</ele>
        <time>2018-11-18T10:48:00.000Z</time>
      </trkpt>
      <trkpt lat="42.68759" lon="1.65025">
        <ele>1482</ele>
        <time>2018-11-18T10:48:02.000Z</time>
      </trkpt>
      <trkpt lat="42.68758" lon="1.65027">
        <ele>1482</ele>
        <time>2018-11-18T10:48:04.000Z</time>
      </trkpt>
      <trkpt lat="42.68756" lon="1.65027">
        <ele>1482</ele>
        <time>2018-11-18T10:48:06.000Z</time>
      </trkpt>
      <trkpt lat="42.68754" lon="1.65026">
        <ele>1482</ele>
        <time>2018-11-18T10:48:08.000Z</time>
      </trkpt>
      <trkpt lat="42.68753" lon="1.65025">
        <ele>1482</ele>
        <time>2018-11-18T10:48:10.000Z</time>
      </trkpt>
      <trkpt lat="42.68752" lon="1.65025">
        <ele>1482</ele>
        <time>2018-11-18T10:48:12.000Z</time>
      </trkpt>
      <trkpt lat="42.68751" lon="1.65025">
        <ele>1482</ele>
        <time>2018-11-18T10:48:14.000Z</time>
      </trkpt>
      <trkpt lat="42.68749" lon="1.65024">
        <ele>1482</ele>
        <time>2018-11-18T10:48:16.000Z</time>
      </trkpt>
      <trkpt lat="42.68748" lon="1.65024">
        <ele>1482</ele>
        <time>2018-11-18T10:48:18.000Z</time>
      </trkpt>
      <trkpt lat="42.68746" lon="1.65024">
        <ele>1483</ele>
        <time>2018-11-18T10:48:20.000Z</time>
      </trkpt>
      <trkpt lat="42.68745" lon="1.65024">
        <ele>1483</ele>
        <time>2018-11-18T10:48:22.000Z</time>
      </trkpt>
      <trkpt lat="42.68744" lon="1.65025">
        <ele>1483</ele>
        <time>2018-11-18T10:48:24.000Z</time>
      </trkpt>
      <trkpt lat="42.68743" lon="1.65026">
        <ele>1484</ele>
        <time>2018-11-18T10:48:26.000Z</time>
      </trkpt>
      <trkpt lat="42.68743" lon="1.65027">
        <ele>1484</ele>
        <time>2018-11-18T10:48:28.000Z</time>
      </trkpt>
      <trkpt lat="42.68742" lon="1.65028">
        <ele>1484</ele>
        <time>2018-11-18T10:48:30.000Z</time>
      </trkpt>
      <trkpt lat="42.68741" lon="1.65028">
        <ele>1485</ele>
        <time>2018-11-18T10:48:32.000Z</time>
      </trkpt>
      <trkpt lat="42.68739" lon="1.65029">
        <ele>1485</ele>
        <time>2018-11-18T10:48:34.000Z</time>
      </trkpt>
      <trkpt lat="42.68738" lon="1.65029">
        <ele>1485</ele>
        <time>2018-11-18T10:48:36.000Z</time>
      </trkpt>
      <trkpt lat="42.68737" lon="1.65029">
        <ele>1485</ele>
        <time>2018-11-18T10:48:38.000Z</time>
      </trkpt>
      <trkpt lat="42.68736" lon="1.65028">
        <ele>1485</ele>
        <time>2018-11-18T10:48:40.000Z</time>
      </trkpt>
      <trkpt lat="42.68735" lon="1.65028">
        <ele>1485</ele>
        <time>2018-11-18T10:48:42.000Z</time>
      </trkpt>
      <trkpt lat="42.68735" lon="1.65027">
        <ele>1485</ele>
        <time>2018-11-18T10:48:44.000Z</time>
      </trkpt>
      <trkpt lat="42.68734" lon="1.65027">
        <ele>1485</ele>
        <time>2018-11-18T10:48:46.000Z</time>
      </trkpt>
      <trkpt lat="42.68733" lon="1.65026">
        <ele>1485</ele>
        <time>2018-11-18T10:48:48.000Z</time>
      </trkpt>
      <trkpt lat="42.68732" lon="1.65026">
        <ele>1486</ele>
        <time>2018-11-18T10:48:50.000Z</time>
      </trkpt>
      <trkpt lat="42.68731" lon="1.65026">
        <ele>1486</ele>
        <time>2018-11-18T10:48:52.000Z</time>
      </trkpt>
      <trkpt lat="42.68729" lon="1.65025">
        <ele>1486</ele>
        <time>2018-11-18T10:48:54.000Z</time>
      </trkpt>
      <trkpt lat="42.68728" lon="1.65024">
        <ele>1485</ele>
        <time>2018-11-18T10:48:56.000Z</time>
      </trkpt>
      <trkpt lat="42.68727" lon="1.65023">
        <ele>1485</ele>
        <time>2018-11-18T10:48:58.000Z</time>
      </trkpt>
      <trkpt lat="42.68727" lon="1.65021">
        <ele>1485</ele>
        <time>2018-11-18T10:49:00.000Z</time>
      </trkpt>
      <trkpt lat="42.68727" lon="1.6502">
        <ele>1485</ele>
        <time>2018-11-18T10:49:02.000Z</time>
      </trkpt>
      <trkpt lat="42.68726" lon="1.6502">
        <ele>1485</ele>
        <time>2018-11-18T10:49:04.000Z</time>
      </trkpt>
      <trkpt lat="42.68726" lon="1.65019">
        <ele>1484</ele>
        <time>2018-11-18T10:49:06.000Z</time>
      </trkpt>
      <trkpt lat="42.68726" lon="1.65019">
        <ele>1484</ele>
        <time>2018-11-18T10:49:08.000Z</time>
      </trkpt>
      <trkpt lat="42.68725" lon="1.65018">
        <ele>1484</ele>
        <time>2018-11-18T10:49:10.000Z</time>
      </trkpt>
      <trkpt lat="42.68724" lon="1.65017">
        <ele>1484</ele>
        <time>2018-11-18T10:49:12.000Z</time>
      </trkpt>
      <trkpt lat="42.68723" lon="1.65018">
        <ele>1484</ele>
        <time>2018-11-18T10:49:14.000Z</time>
      </trkpt>
      <trkpt lat="42.68722" lon="1.65017">
        <ele>1484</ele>
        <time>2018-11-18T10:49:16.000Z</time>
      </trkpt>
      <trkpt lat="42.68721" lon="1.65018">
        <ele>1485</ele>
        <time>2018-11-18T10:49:18.000Z</time>
      </trkpt>
      <trkpt lat="42.68721" lon="1.65018">
        <ele>1485</ele>
        <time>2018-11-18T10:49:20.000Z</time>
      </trkpt>
      <trkpt lat="42.68721" lon="1.65018">
        <ele>1485</ele>
        <time>2018-11-18T10:49:22.000Z</time>
      </trkpt>
      <trkpt lat="42.6872" lon="1.65017">
        <ele>1485</ele>
        <time>2018-11-18T10:49:24.000Z</time>
      </trkpt>
      <trkpt lat="42.68721" lon="1.65017">
        <ele>1485</ele>
        <time>2018-11-18T10:49:26.000Z</time>
      </trkpt>
      <trkpt lat="42.68721" lon="1.65017">
        <ele>1485</ele>
        <time>2018-11-18T10:49:28.000Z</time>
      </trkpt>
      <trkpt lat="42.68721" lon="1.65017">
        <ele>1485</ele>
        <time>2018-11-18T10:49:30.000Z</time>
      </trkpt>
      <trkpt lat="42.68721" lon="1.65017">
        <ele>1485</ele>
        <time>2018-11-18T10:49:32.000Z</time>
      </trkpt>
      <trkpt lat="42.68722" lon="1.65018">
        <ele>1485</ele>
        <time>2018-11-18T10:49:34.000Z</time>
      </trkpt>
      <trkpt lat="42.68722" lon="1.65018">
        <ele>1485</ele>
        <time>2018-11-18T10:49:36.000Z</time>
      </trkpt>
      <trkpt lat="42.68722" lon="1.65018">
        <ele>1485</ele>
        <time>2018-11-18T10:49:38.000Z</time>
      </trkpt>
      <trkpt lat="42.68722" lon="1.65018">
        <ele>1485</ele>
        <time>2018-11-18T10:49:40.000Z</time>
      </trkpt>
      <trkpt lat="42.68722" lon="1.65018">
        <ele>1485</ele>
        <time>2018-11-18T10:49:42.000Z</time>
      </trkpt>
      <trkpt lat="42.68722" lon="1.65018">
        <ele>1485</ele>
        <time>2018-11-18T10:49:44.000Z</time>
      </trkpt>
      <trkpt lat="42.68722" lon="1.65018">
        <ele>1485</ele>
        <time>2018-11-18T10:49:46.000Z</time>
      </trkpt>
      <trkpt lat="42.68722" lon="1.65018">
        <ele>1485</ele>
        <time>2018-11-18T10:49:48.000Z</time>
      </trkpt>
      <trkpt lat="42.68722" lon="1.65018">
        <ele>1485</ele>
        <time>2018-11-18T10:49:50.000Z</time>
      </trkpt>
      <trkpt lat="42.68722" lon="1.65018">
        <ele>1485</ele>
        <time>2018-11-18T10:49:52.000Z</time>
      </trkpt>
      <trkpt lat="42.68722" lon="1.65018">
        <ele>1485</ele>
        <time>2018-11-18T10:49:54.000Z</time>
      </trkpt>
      <trkpt lat="42.68722" lon="1.65017">
        <ele>1485</ele>
        <time>2018-11-18T10:49:56.000Z</time>
      </trkpt>
      <trkpt lat="42.68722" lon="1.65018">
        <ele>1485</ele>
        <time>2018-11-18T10:49:58.000Z</time>
      </trkpt>
      <trkpt lat="42.68722" lon="1.65018">
        <ele>1485</ele>
        <time>2018-11-18T10:50:00.000Z</time>
      </trkpt>
      <trkpt lat="42.68722" lon="1.65018">
        <ele>1485</ele>
        <time>2018-11-18T10:50:02.000Z</time>
      </trkpt>
      <trkpt lat="42.68722" lon="1.65018">
        <ele>1485</ele>
        <time>2018-11-18T10:50:04.000Z</time>
      </trkpt>
      <trkpt lat="42.68723" lon="1.65018">
        <ele>1485</ele>
        <time>2018-11-18T10:50:06.000Z</time>
      </trkpt>
      <trkpt lat="42.68723" lon="1.65018">
        <ele>1484</ele>
        <time>2018-11-18T10:50:08.000Z</time>
      </trkpt>
      <trkpt lat="42.68724" lon="1.65018">
        <ele>1485</ele>
        <time>2018-11-18T10:50:10.000Z</time>
      </trkpt>
      <trkpt lat="42.68724" lon="1.65018">
        <ele>1484</ele>
        <time>2018-11-18T10:50:12.000Z</time>
      </trkpt>
      <trkpt lat="42.68724" lon="1.65017">
        <ele>1484</ele>
        <time>2018-11-18T10:50:14.000Z</time>
      </trkpt>
      <trkpt lat="42.68724" lon="1.65017">
        <ele>1484</ele>
        <time>2018-11-18T10:50:16.000Z</time>
      </trkpt>
      <trkpt lat="42.68723" lon="1.65017">
        <ele>1484</ele>
        <time>2018-11-18T10:50:18.000Z</time>
      </trkpt>
      <trkpt lat="42.68722" lon="1.65016">
        <ele>1484</ele>
        <time>2018-11-18T10:50:20.000Z</time>
      </trkpt>
      <trkpt lat="42.68721" lon="1.65017">
        <ele>1484</ele>
        <time>2018-11-18T10:50:22.000Z</time>
      </trkpt>
      <trkpt lat="42.6872" lon="1.65017">
        <ele>1485</ele>
        <time>2018-11-18T10:50:24.000Z</time>
      </trkpt>
      <trkpt lat="42.6872" lon="1.65017">
        <ele>1485</ele>
        <time>2018-11-18T10:50:26.000Z</time>
      </trkpt>
      <trkpt lat="42.68719" lon="1.65018">
        <ele>1485</ele>
        <time>2018-11-18T10:50:28.000Z</time>
      </trkpt>
      <trkpt lat="42.68718" lon="1.65018">
        <ele>1485</ele>
        <time>2018-11-18T10:50:30.000Z</time>
      </trkpt>
      <trkpt lat="42.68717" lon="1.65019">
        <ele>1486</ele>
        <time>2018-11-18T10:50:32.000Z</time>
      </trkpt>
      <trkpt lat="42.68715" lon="1.6502">
        <ele>1486</ele>
        <time>2018-11-18T10:50:34.000Z</time>
      </trkpt>
      <trkpt lat="42.68714" lon="1.6502">
        <ele>1487</ele>
        <time>2018-11-18T10:50:36.000Z</time>
      </trkpt>
      <trkpt lat="42.68712" lon="1.65021">
        <ele>1487</ele>
        <time>2018-11-18T10:50:38.000Z</time>
      </trkpt>
      <trkpt lat="42.68711" lon="1.65022">
        <ele>1488</ele>
        <time>2018-11-18T10:50:40.000Z</time>
      </trkpt>
      <trkpt lat="42.68709" lon="1.65023">
        <ele>1488</ele>
        <time>2018-11-18T10:50:42.000Z</time>
      </trkpt>
      <trkpt lat="42.68708" lon="1.65024">
        <ele>1489</ele>
        <time>2018-11-18T10:50:44.000Z</time>
      </trkpt>
      <trkpt lat="42.68707" lon="1.65025">
        <ele>1489</ele>
        <time>2018-11-18T10:50:46.000Z</time>
      </trkpt>
      <trkpt lat="42.68706" lon="1.65025">
        <ele>1489</ele>
        <time>2018-11-18T10:50:48.000Z</time>
      </trkpt>
      <trkpt lat="42.68705" lon="1.65025">
        <ele>1489</ele>
        <time>2018-11-18T10:50:50.000Z</time>
      </trkpt>
      <trkpt lat="42.68703" lon="1.65026">
        <ele>1489</ele>
        <time>2018-11-18T10:50:52.000Z</time>
      </trkpt>
      <trkpt lat="42.68702" lon="1.65026">
        <ele>1489</ele>
        <time>2018-11-18T10:50:54.000Z</time>
      </trkpt>
      <trkpt lat="42.68701" lon="1.65027">
        <ele>1490</ele>
        <time>2018-11-18T10:50:56.000Z</time>
      </trkpt>
      <trkpt lat="42.68699" lon="1.65026">
        <ele>1490</ele>
        <time>2018-11-18T10:50:58.000Z</time>
      </trkpt>
      <trkpt lat="42.68698" lon="1.65026">
        <ele>1490</ele>
        <time>2018-11-18T10:51:00.000Z</time>
      </trkpt>
      <trkpt lat="42.68696" lon="1.65027">
        <ele>1490</ele>
        <time>2018-11-18T10:51:02.000Z</time>
      </trkpt>
      <trkpt lat="42.68695" lon="1.65027">
        <ele>1490</ele>
        <time>2018-11-18T10:51:04.000Z</time>
      </trkpt>
      <trkpt lat="42.68695" lon="1.65027">
        <ele>1490</ele>
        <time>2018-11-18T10:51:06.000Z</time>
      </trkpt>
      <trkpt lat="42.68694" lon="1.65028">
        <ele>1490</ele>
        <time>2018-11-18T10:51:08.000Z</time>
      </trkpt>
      <trkpt lat="42.68693" lon="1.65028">
        <ele>1490</ele>
        <time>2018-11-18T10:51:10.000Z</time>
      </trkpt>
      <trkpt lat="42.68693" lon="1.65029">
        <ele>1490</ele>
        <time>2018-11-18T10:51:12.000Z</time>
      </trkpt>
      <trkpt lat="42.68693" lon="1.65029">
        <ele>1490</ele>
        <time>2018-11-18T10:51:14.000Z</time>
      </trkpt>
      <trkpt lat="42.68692" lon="1.6503">
        <ele>1491</ele>
        <time>2018-11-18T10:51:16.000Z</time>
      </trkpt>
      <trkpt lat="42.68691" lon="1.65031">
        <ele>1491</ele>
        <time>2018-11-18T10:51:18.000Z</time>
      </trkpt>
      <trkpt lat="42.68691" lon="1.65029">
        <ele>1491</ele>
        <time>2018-11-18T10:51:20.000Z</time>
      </trkpt>
      <trkpt lat="42.6869" lon="1.65029">
        <ele>1490</ele>
        <time>2018-11-18T10:51:22.000Z</time>
      </trkpt>
      <trkpt lat="42.68689" lon="1.65028">
        <ele>1490</ele>
        <time>2018-11-18T10:51:24.000Z</time>
      </trkpt>
      <trkpt lat="42.68688" lon="1.65027">
        <ele>1490</ele>
        <time>2018-11-18T10:51:26.000Z</time>
      </trkpt>
      <trkpt lat="42.68687" lon="1.65027">
        <ele>1490</ele>
        <time>2018-11-18T10:51:28.000Z</time>
      </trkpt>
      <trkpt lat="42.68686" lon="1.65027">
        <ele>1490</ele>
        <time>2018-11-18T10:51:30.000Z</time>
      </trkpt>
      <trkpt lat="42.68686" lon="1.65028">
        <ele>1491</ele>
        <time>2018-11-18T10:51:32.000Z</time>
      </trkpt>
      <trkpt lat="42.68685" lon="1.65028">
        <ele>1491</ele>
        <time>2018-11-18T10:51:34.000Z</time>
      </trkpt>
      <trkpt lat="42.68684" lon="1.65028">
        <ele>1491</ele>
        <time>2018-11-18T10:51:36.000Z</time>
      </trkpt>
      <trkpt lat="42.68684" lon="1.65028">
        <ele>1491</ele>
        <time>2018-11-18T10:51:38.000Z</time>
      </trkpt>
      <trkpt lat="42.68683" lon="1.65028">
        <ele>1491</ele>
        <time>2018-11-18T10:51:40.000Z</time>
      </trkpt>
      <trkpt lat="42.68683" lon="1.65028">
        <ele>1491</ele>
        <time>2018-11-18T10:51:42.000Z</time>
      </trkpt>
      <trkpt lat="42.68682" lon="1.65028">
        <ele>1491</ele>
        <time>2018-11-18T10:51:44.000Z</time>
      </trkpt>
      <trkpt lat="42.68682" lon="1.65029">
        <ele>1491</ele>
        <time>2018-11-18T10:51:46.000Z</time>
      </trkpt>
      <trkpt lat="42.68682" lon="1.65029">
        <ele>1491</ele>
        <time>2018-11-18T10:51:48.000Z</time>
      </trkpt>
      <trkpt lat="42.68682" lon="1.6503">
        <ele>1491</ele>
        <time>2018-11-18T10:51:50.000Z</time>
      </trkpt>
      <trkpt lat="42.68682" lon="1.6503">
        <ele>1491</ele>
        <time>2018-11-18T10:51:52.000Z</time>
      </trkpt>
      <trkpt lat="42.68682" lon="1.6503">
        <ele>1491</ele>
        <time>2018-11-18T10:51:54.000Z</time>
      </trkpt>
      <trkpt lat="42.68682" lon="1.65031">
        <ele>1491</ele>
        <time>2018-11-18T10:51:56.000Z</time>
      </trkpt>
      <trkpt lat="42.68682" lon="1.6503">
        <ele>1491</ele>
        <time>2018-11-18T10:51:58.000Z</time>
      </trkpt>
      <trkpt lat="42.68682" lon="1.6503">
        <ele>1491</ele>
        <time>2018-11-18T10:52:00.000Z</time>
      </trkpt>
      <trkpt lat="42.68681" lon="1.65029">
        <ele>1491</ele>
        <time>2018-11-18T10:52:02.000Z</time>
      </trkpt>
      <trkpt lat="42.68681" lon="1.65029">
        <ele>1491</ele>
        <time>2018-11-18T10:52:04.000Z</time>
      </trkpt>
      <trkpt lat="42.68681" lon="1.65028">
        <ele>1491</ele>
        <time>2018-11-18T10:52:06.000Z</time>
      </trkpt>
      <trkpt lat="42.68681" lon="1.65028">
        <ele>1491</ele>
        <time>2018-11-18T10:52:08.000Z</time>
      </trkpt>
      <trkpt lat="42.6868" lon="1.65027">
        <ele>1491</ele>
        <time>2018-11-18T10:52:10.000Z</time>
      </trkpt>
      <trkpt lat="42.6868" lon="1.65027">
        <ele>1491</ele>
        <time>2018-11-18T10:52:12.000Z</time>
      </trkpt>
      <trkpt lat="42.6868" lon="1.65027">
        <ele>1491</ele>
        <time>2018-11-18T10:52:14.000Z</time>
      </trkpt>
      <trkpt lat="42.6868" lon="1.65027">
        <ele>1491</ele>
        <time>2018-11-18T10:52:16.000Z</time>
      </trkpt>
      <trkpt lat="42.68679" lon="1.65028">
        <ele>1491</ele>
        <time>2018-11-18T10:52:18.000Z</time>
      </trkpt>
      <trkpt lat="42.68679" lon="1.65028">
        <ele>1491</ele>
        <time>2018-11-18T10:52:20.000Z</time>
      </trkpt>
      <trkpt lat="42.68678" lon="1.65028">
        <ele>1491</ele>
        <time>2018-11-18T10:52:22.000Z</time>
      </trkpt>
      <trkpt lat="42.68676" lon="1.65028">
        <ele>1491</ele>
        <time>2018-11-18T10:52:24.000Z</time>
      </trkpt>
      <trkpt lat="42.68676" lon="1.65028">
        <ele>1491</ele>
        <time>2018-11-18T10:52:26.000Z</time>
      </trkpt>
      <trkpt lat="42.68675" lon="1.65029">
        <ele>1491</ele>
        <time>2018-11-18T10:52:28.000Z</time>
      </trkpt>
      <trkpt lat="42.68676" lon="1.65029">
        <ele>1491</ele>
        <time>2018-11-18T10:52:30.000Z</time>
      </trkpt>
      <trkpt lat="42.68676" lon="1.65029">
        <ele>1491</ele>
        <time>2018-11-18T10:52:32.000Z</time>
      </trkpt>
      <trkpt lat="42.68676" lon="1.65028">
        <ele>1491</ele>
        <time>2018-11-18T10:52:34.000Z</time>
      </trkpt>
      <trkpt lat="42.68676" lon="1.65028">
        <ele>1491</ele>
        <time>2018-11-18T10:52:36.000Z</time>
      </trkpt>
      <trkpt lat="42.68676" lon="1.65028">
        <ele>1491</ele>
        <time>2018-11-18T10:52:38.000Z</time>
      </trkpt>
      <trkpt lat="42.68675" lon="1.65028">
        <ele>1491</ele>
        <time>2018-11-18T10:52:40.000Z</time>
      </trkpt>
      <trkpt lat="42.68675" lon="1.65027">
        <ele>1491</ele>
        <time>2018-11-18T10:52:42.000Z</time>
      </trkpt>
      <trkpt lat="42.68674" lon="1.65026">
        <ele>1491</ele>
        <time>2018-11-18T10:52:44.000Z</time>
      </trkpt>
      <trkpt lat="42.68674" lon="1.65026">
        <ele>1491</ele>
        <time>2018-11-18T10:52:46.000Z</time>
      </trkpt>
      <trkpt lat="42.68674" lon="1.65026">
        <ele>1491</ele>
        <time>2018-11-18T10:52:48.000Z</time>
      </trkpt>
      <trkpt lat="42.68674" lon="1.65025">
        <ele>1491</ele>
        <time>2018-11-18T10:52:50.000Z</time>
      </trkpt>
      <trkpt lat="42.68674" lon="1.65025">
        <ele>1491</ele>
        <time>2018-11-18T10:52:52.000Z</time>
      </trkpt>
      <trkpt lat="42.68674" lon="1.65025">
        <ele>1491</ele>
        <time>2018-11-18T10:52:54.000Z</time>
      </trkpt>
      <trkpt lat="42.68674" lon="1.65025">
        <ele>1491</ele>
        <time>2018-11-18T10:52:56.000Z</time>
      </trkpt>
      <trkpt lat="42.68675" lon="1.65024">
        <ele>1491</ele>
        <time>2018-11-18T10:52:58.000Z</time>
      </trkpt>
      <trkpt lat="42.68677" lon="1.65024">
        <ele>1490</ele>
        <time>2018-11-18T10:53:00.000Z</time>
      </trkpt>
      <trkpt lat="42.68678" lon="1.65024">
        <ele>1490</ele>
        <time>2018-11-18T10:53:02.000Z</time>
      </trkpt>
      <trkpt lat="42.6868" lon="1.65025">
        <ele>1490</ele>
        <time>2018-11-18T10:53:04.000Z</time>
      </trkpt>
      <trkpt lat="42.68681" lon="1.65025">
        <ele>1490</ele>
        <time>2018-11-18T10:53:06.000Z</time>
      </trkpt>
      <trkpt lat="42.68682" lon="1.65025">
        <ele>1490</ele>
        <time>2018-11-18T10:53:08.000Z</time>
      </trkpt>
      <trkpt lat="42.68682" lon="1.65025">
        <ele>1490</ele>
        <time>2018-11-18T10:53:10.000Z</time>
      </trkpt>
      <trkpt lat="42.68682" lon="1.65025">
        <ele>1490</ele>
        <time>2018-11-18T10:53:12.000Z</time>
      </trkpt>
      <trkpt lat="42.68682" lon="1.65025">
        <ele>1490</ele>
        <time>2018-11-18T10:53:14.000Z</time>
      </trkpt>
      <trkpt lat="42.68682" lon="1.65025">
        <ele>1490</ele>
        <time>2018-11-18T10:53:16.000Z</time>
      </trkpt>
      <trkpt lat="42.68682" lon="1.65024">
        <ele>1490</ele>
        <time>2018-11-18T10:53:18.000Z</time>
      </trkpt>
      <trkpt lat="42.68682" lon="1.65024">
        <ele>1490</ele>
        <time>2018-11-18T10:53:20.000Z</time>
      </trkpt>
      <trkpt lat="42.68682" lon="1.65024">
        <ele>1490</ele>
        <time>2018-11-18T10:53:22.000Z</time>
      </trkpt>
      <trkpt lat="42.68682" lon="1.65024">
        <ele>1490</ele>
        <time>2018-11-18T10:53:24.000Z</time>
      </trkpt>
      <trkpt lat="42.68682" lon="1.65024">
        <ele>1490</ele>
        <time>2018-11-18T10:53:26.000Z</time>
      </trkpt>
      <trkpt lat="42.68682" lon="1.65024">
        <ele>1490</ele>
        <time>2018-11-18T10:53:28.000Z</time>
      </trkpt>
      <trkpt lat="42.68682" lon="1.65025">
        <ele>1490</ele>
        <time>2018-11-18T10:53:30.000Z</time>
      </trkpt>
      <trkpt lat="42.68682" lon="1.65025">
        <ele>1490</ele>
        <time>2018-11-18T10:53:32.000Z</time>
      </trkpt>
      <trkpt lat="42.68682" lon="1.65025">
        <ele>1490</ele>
        <time>2018-11-18T10:53:34.000Z</time>
      </trkpt>
      <trkpt lat="42.68682" lon="1.65025">
        <ele>1490</ele>
        <time>2018-11-18T10:53:36.000Z</time>
      </trkpt>
      <trkpt lat="42.68682" lon="1.65025">
        <ele>1490</ele>
        <time>2018-11-18T10:53:38.000Z</time>
      </trkpt>
      <trkpt lat="42.68682" lon="1.65025">
        <ele>1490</ele>
        <time>2018-11-18T10:53:40.000Z</time>
      </trkpt>
      <trkpt lat="42.68682" lon="1.65025">
        <ele>1490</ele>
        <time>2018-11-18T10:53:42.000Z</time>
      </trkpt>
      <trkpt lat="42.68682" lon="1.65025">
        <ele>1490</ele>
        <time>2018-11-18T10:53:44.000Z</time>
      </trkpt>
      <trkpt lat="42.68682" lon="1.65025">
        <ele>1490</ele>
        <time>2018-11-18T10:53:46.000Z</time>
      </trkpt>
      <trkpt lat="42.68682" lon="1.65025">
        <ele>1490</ele>
        <time>2018-11-18T10:53:48.000Z</time>
      </trkpt>
      <trkpt lat="42.68682" lon="1.65025">
        <ele>1490</ele>
        <time>2018-11-18T10:53:50.000Z</time>
      </trkpt>
      <trkpt lat="42.68682" lon="1.65025">
        <ele>1490</ele>
        <time>2018-11-18T10:53:52.000Z</time>
      </trkpt>
      <trkpt lat="42.68682" lon="1.65025">
        <ele>1490</ele>
        <time>2018-11-18T10:53:54.000Z</time>
      </trkpt>
      <trkpt lat="42.68682" lon="1.65025">
        <ele>1490</ele>
        <time>2018-11-18T10:53:56.000Z</time>
      </trkpt>
      <trkpt lat="42.68682" lon="1.65025">
        <ele>1490</ele>
        <time>2018-11-18T10:53:58.000Z</time>
      </trkpt>
      <trkpt lat="42.68682" lon="1.65025">
        <ele>1490</ele>
        <time>2018-11-18T10:54:00.000Z</time>
      </trkpt>
      <trkpt lat="42.68681" lon="1.65025">
        <ele>1490</ele>
        <time>2018-11-18T10:54:02.000Z</time>
      </trkpt>
      <trkpt lat="42.68681" lon="1.65025">
        <ele>1490</ele>
        <time>2018-11-18T10:54:04.000Z</time>
      </trkpt>
      <trkpt lat="42.68681" lon="1.65025">
        <ele>1490</ele>
        <time>2018-11-18T10:54:06.000Z</time>
      </trkpt>
      <trkpt lat="42.68681" lon="1.65025">
        <ele>1490</ele>
        <time>2018-11-18T10:54:08.000Z</time>
      </trkpt>
      <trkpt lat="42.68681" lon="1.65025">
        <ele>1490</ele>
        <time>2018-11-18T10:54:10.000Z</time>
      </trkpt>
      <trkpt lat="42.68681" lon="1.65025">
        <ele>1490</ele>
        <time>2018-11-18T10:54:12.000Z</time>
      </trkpt>
      <trkpt lat="42.68681" lon="1.65025">
        <ele>1490</ele>
        <time>2018-11-18T10:54:14.000Z</time>
      </trkpt>
      <trkpt lat="42.68681" lon="1.65025">
        <ele>1490</ele>
        <time>2018-11-18T10:54:16.000Z</time>
      </trkpt>
      <trkpt lat="42.68681" lon="1.65025">
        <ele>1490</ele>
        <time>2018-11-18T10:54:18.000Z</time>
      </trkpt>
      <trkpt lat="42.68681" lon="1.65025">
        <ele>1490</ele>
        <time>2018-11-18T10:54:20.000Z</time>
      </trkpt>
      <trkpt lat="42.68681" lon="1.65025">
        <ele>1490</ele>
        <time>2018-11-18T10:54:22.000Z</time>
      </trkpt>
      <trkpt lat="42.68681" lon="1.65025">
        <ele>1490</ele>
        <time>2018-11-18T10:54:24.000Z</time>
      </trkpt>
      <trkpt lat="42.68681" lon="1.65025">
        <ele>1490</ele>
        <time>2018-11-18T10:54:26.000Z</time>
      </trkpt>
      <trkpt lat="42.68681" lon="1.65025">
        <ele>1490</ele>
        <time>2018-11-18T10:54:28.000Z</time>
      </trkpt>
      <trkpt lat="42.68681" lon="1.65025">
        <ele>1490</ele>
        <time>2018-11-18T10:54:30.000Z</time>
      </trkpt>
      <trkpt lat="42.68681" lon="1.65025">
        <ele>1490</ele>
        <time>2018-11-18T10:54:32.000Z</time>
      </trkpt>
      <trkpt lat="42.68681" lon="1.65025">
        <ele>1490</ele>
        <time>2018-11-18T10:54:34.000Z</time>
      </trkpt>
      <trkpt lat="42.68681" lon="1.65025">
        <ele>1490</ele>
        <time>2018-11-18T10:54:36.000Z</time>
      </trkpt>
      <trkpt lat="42.68681" lon="1.65025">
        <ele>1490</ele>
        <time>2018-11-18T10:54:38.000Z</time>
      </trkpt>
      <trkpt lat="42.68682" lon="1.65025">
        <ele>1490</ele>
        <time>2018-11-18T10:54:40.000Z</time>
      </trkpt>
      <trkpt lat="42.68682" lon="1.65025">
        <ele>1490</ele>
        <time>2018-11-18T10:54:42.000Z</time>
      </trkpt>
      <trkpt lat="42.68682" lon="1.65025">
        <ele>1490</ele>
        <time>2018-11-18T10:54:44.000Z</time>
      </trkpt>
      <trkpt lat="42.68682" lon="1.65025">
        <ele>1490</ele>
        <time>2018-11-18T10:54:46.000Z</time>
      </trkpt>
      <trkpt lat="42.68682" lon="1.65025">
        <ele>1490</ele>
        <time>2018-11-18T10:54:48.000Z</time>
      </trkpt>
      <trkpt lat="42.68682" lon="1.65025">
        <ele>1490</ele>
        <time>2018-11-18T10:54:50.000Z</time>
      </trkpt>
      <trkpt lat="42.68682" lon="1.65025">
        <ele>1490</ele>
        <time>2018-11-18T10:54:52.000Z</time>
      </trkpt>
      <trkpt lat="42.68682" lon="1.65025">
        <ele>1490</ele>
        <time>2018-11-18T10:54:54.000Z</time>
      </trkpt>
      <trkpt lat="42.68683" lon="1.65025">
        <ele>1490</ele>
        <time>2018-11-18T10:54:56.000Z</time>
      </trkpt>
      <trkpt lat="42.68683" lon="1.65025">
        <ele>1490</ele>
        <time>2018-11-18T10:54:58.000Z</time>
      </trkpt>
      <trkpt lat="42.68683" lon="1.65025">
        <ele>1490</ele>
        <time>2018-11-18T10:55:00.000Z</time>
      </trkpt>
      <trkpt lat="42.68682" lon="1.65025">
        <ele>1490</ele>
        <time>2018-11-18T10:55:02.000Z</time>
      </trkpt>
      <trkpt lat="42.68682" lon="1.65025">
        <ele>1490</ele>
        <time>2018-11-18T10:55:04.000Z</time>
      </trkpt>
      <trkpt lat="42.68682" lon="1.65025">
        <ele>1490</ele>
        <time>2018-11-18T10:55:06.000Z</time>
      </trkpt>
      <trkpt lat="42.68682" lon="1.65026">
        <ele>1490</ele>
        <time>2018-11-18T10:55:08.000Z</time>
      </trkpt>
      <trkpt lat="42.68682" lon="1.65026">
        <ele>1490</ele>
        <time>2018-11-18T10:55:10.000Z</time>
      </trkpt>
      <trkpt lat="42.68682" lon="1.65026">
        <ele>1491</ele>
        <time>2018-11-18T10:55:12.000Z</time>
      </trkpt>
      <trkpt lat="42.68682" lon="1.65027">
        <ele>1491</ele>
        <time>2018-11-18T10:55:14.000Z</time>
      </trkpt>
      <trkpt lat="42.68681" lon="1.65027">
        <ele>1491</ele>
        <time>2018-11-18T10:55:16.000Z</time>
      </trkpt>
      <trkpt lat="42.68679" lon="1.65026">
        <ele>1491</ele>
        <time>2018-11-18T10:55:18.000Z</time>
      </trkpt>
      <trkpt lat="42.68678" lon="1.65027">
        <ele>1491</ele>
        <time>2018-11-18T10:55:20.000Z</time>
      </trkpt>
      <trkpt lat="42.68676" lon="1.65028">
        <ele>1491</ele>
        <time>2018-11-18T10:55:22.000Z</time>
      </trkpt>
      <trkpt lat="42.68674" lon="1.65029">
        <ele>1491</ele>
        <time>2018-11-18T10:55:24.000Z</time>
      </trkpt>
      <trkpt lat="42.68671" lon="1.6503">
        <ele>1492</ele>
        <time>2018-11-18T10:55:26.000Z</time>
      </trkpt>
      <trkpt lat="42.68668" lon="1.65031">
        <ele>1492</ele>
        <time>2018-11-18T10:55:28.000Z</time>
      </trkpt>
      <trkpt lat="42.68666" lon="1.6503">
        <ele>1492</ele>
        <time>2018-11-18T10:55:30.000Z</time>
      </trkpt>
      <trkpt lat="42.68664" lon="1.6503">
        <ele>1492</ele>
        <time>2018-11-18T10:55:32.000Z</time>
      </trkpt>
      <trkpt lat="42.68662" lon="1.65033">
        <ele>1493</ele>
        <time>2018-11-18T10:55:34.000Z</time>
      </trkpt>
      <trkpt lat="42.68659" lon="1.65033">
        <ele>1493</ele>
        <time>2018-11-18T10:55:36.000Z</time>
      </trkpt>
      <trkpt lat="42.68657" lon="1.65034">
        <ele>1493</ele>
        <time>2018-11-18T10:55:38.000Z</time>
      </trkpt>
      <trkpt lat="42.68655" lon="1.65034">
        <ele>1493</ele>
        <time>2018-11-18T10:55:40.000Z</time>
      </trkpt>
      <trkpt lat="42.68652" lon="1.65032">
        <ele>1493</ele>
        <time>2018-11-18T10:55:42.000Z</time>
      </trkpt>
      <trkpt lat="42.6865" lon="1.65032">
        <ele>1493</ele>
        <time>2018-11-18T10:55:44.000Z</time>
      </trkpt>
      <trkpt lat="42.68648" lon="1.65031">
        <ele>1493</ele>
        <time>2018-11-18T10:55:46.000Z</time>
      </trkpt>
      <trkpt lat="42.68645" lon="1.65031">
        <ele>1493</ele>
        <time>2018-11-18T10:55:48.000Z</time>
      </trkpt>
      <trkpt lat="42.68643" lon="1.65031">
        <ele>1493</ele>
        <time>2018-11-18T10:55:50.000Z</time>
      </trkpt>
      <trkpt lat="42.68641" lon="1.6503">
        <ele>1493</ele>
        <time>2018-11-18T10:55:52.000Z</time>
      </trkpt>
      <trkpt lat="42.6864" lon="1.6503">
        <ele>1493</ele>
        <time>2018-11-18T10:55:54.000Z</time>
      </trkpt>
      <trkpt lat="42.68638" lon="1.6503">
        <ele>1493</ele>
        <time>2018-11-18T10:55:56.000Z</time>
      </trkpt>
      <trkpt lat="42.68636" lon="1.65031">
        <ele>1494</ele>
        <time>2018-11-18T10:55:58.000Z</time>
      </trkpt>
      <trkpt lat="42.68635" lon="1.65031">
        <ele>1494</ele>
        <time>2018-11-18T10:56:00.000Z</time>
      </trkpt>
      <trkpt lat="42.68633" lon="1.65032">
        <ele>1494</ele>
        <time>2018-11-18T10:56:02.000Z</time>
      </trkpt>
      <trkpt lat="42.68632" lon="1.65032">
        <ele>1494</ele>
        <time>2018-11-18T10:56:04.000Z</time>
      </trkpt>
      <trkpt lat="42.6863" lon="1.65033">
        <ele>1494</ele>
        <time>2018-11-18T10:56:06.000Z</time>
      </trkpt>
      <trkpt lat="42.68629" lon="1.65033">
        <ele>1494</ele>
        <time>2018-11-18T10:56:08.000Z</time>
      </trkpt>
      <trkpt lat="42.68627" lon="1.65032">
        <ele>1494</ele>
        <time>2018-11-18T10:56:10.000Z</time>
      </trkpt>
      <trkpt lat="42.68625" lon="1.65033">
        <ele>1494</ele>
        <time>2018-11-18T10:56:12.000Z</time>
      </trkpt>
      <trkpt lat="42.68623" lon="1.65034">
        <ele>1495</ele>
        <time>2018-11-18T10:56:14.000Z</time>
      </trkpt>
      <trkpt lat="42.68621" lon="1.65036">
        <ele>1495</ele>
        <time>2018-11-18T10:56:16.000Z</time>
      </trkpt>
      <trkpt lat="42.68619" lon="1.65038">
        <ele>1495</ele>
        <time>2018-11-18T10:56:18.000Z</time>
      </trkpt>
      <trkpt lat="42.68618" lon="1.65038">
        <ele>1495</ele>
        <time>2018-11-18T10:56:20.000Z</time>
      </trkpt>
      <trkpt lat="42.68616" lon="1.6504">
        <ele>1496</ele>
        <time>2018-11-18T10:56:22.000Z</time>
      </trkpt>
      <trkpt lat="42.68614" lon="1.65041">
        <ele>1496</ele>
        <time>2018-11-18T10:56:24.000Z</time>
      </trkpt>
      <trkpt lat="42.68612" lon="1.65042">
        <ele>1496</ele>
        <time>2018-11-18T10:56:26.000Z</time>
      </trkpt>
      <trkpt lat="42.68611" lon="1.65041">
        <ele>1496</ele>
        <time>2018-11-18T10:56:28.000Z</time>
      </trkpt>
      <trkpt lat="42.68609" lon="1.65041">
        <ele>1496</ele>
        <time>2018-11-18T10:56:30.000Z</time>
      </trkpt>
      <trkpt lat="42.68608" lon="1.65042">
        <ele>1496</ele>
        <time>2018-11-18T10:56:32.000Z</time>
      </trkpt>
      <trkpt lat="42.68606" lon="1.65042">
        <ele>1496</ele>
        <time>2018-11-18T10:56:34.000Z</time>
      </trkpt>
      <trkpt lat="42.68605" lon="1.65042">
        <ele>1496</ele>
        <time>2018-11-18T10:56:36.000Z</time>
      </trkpt>
      <trkpt lat="42.68605" lon="1.65043">
        <ele>1496</ele>
        <time>2018-11-18T10:56:38.000Z</time>
      </trkpt>
      <trkpt lat="42.68604" lon="1.65043">
        <ele>1496</ele>
        <time>2018-11-18T10:56:40.000Z</time>
      </trkpt>
      <trkpt lat="42.68604" lon="1.65044">
        <ele>1497</ele>
        <time>2018-11-18T10:56:42.000Z</time>
      </trkpt>
      <trkpt lat="42.68603" lon="1.65046">
        <ele>1497</ele>
        <time>2018-11-18T10:56:44.000Z</time>
      </trkpt>
      <trkpt lat="42.68602" lon="1.65046">
        <ele>1497</ele>
        <time>2018-11-18T10:56:46.000Z</time>
      </trkpt>
      <trkpt lat="42.68601" lon="1.65046">
        <ele>1497</ele>
        <time>2018-11-18T10:56:48.000Z</time>
      </trkpt>
      <trkpt lat="42.68599" lon="1.65046">
        <ele>1497</ele>
        <time>2018-11-18T10:56:50.000Z</time>
      </trkpt>
      <trkpt lat="42.68598" lon="1.65046">
        <ele>1497</ele>
        <time>2018-11-18T10:56:52.000Z</time>
      </trkpt>
      <trkpt lat="42.68597" lon="1.65047">
        <ele>1497</ele>
        <time>2018-11-18T10:56:54.000Z</time>
      </trkpt>
      <trkpt lat="42.68595" lon="1.65047">
        <ele>1497</ele>
        <time>2018-11-18T10:56:56.000Z</time>
      </trkpt>
      <trkpt lat="42.68593" lon="1.65047">
        <ele>1497</ele>
        <time>2018-11-18T10:56:58.000Z</time>
      </trkpt>
      <trkpt lat="42.68592" lon="1.65048">
        <ele>1498</ele>
        <time>2018-11-18T10:57:00.000Z</time>
      </trkpt>
      <trkpt lat="42.6859" lon="1.65048">
        <ele>1498</ele>
        <time>2018-11-18T10:57:02.000Z</time>
      </trkpt>
      <trkpt lat="42.68589" lon="1.65048">
        <ele>1498</ele>
        <time>2018-11-18T10:57:04.000Z</time>
      </trkpt>
      <trkpt lat="42.68587" lon="1.65047">
        <ele>1498</ele>
        <time>2018-11-18T10:57:06.000Z</time>
      </trkpt>
      <trkpt lat="42.68586" lon="1.65047">
        <ele>1498</ele>
        <time>2018-11-18T10:57:08.000Z</time>
      </trkpt>
      <trkpt lat="42.68585" lon="1.65046">
        <ele>1498</ele>
        <time>2018-11-18T10:57:10.000Z</time>
      </trkpt>
      <trkpt lat="42.68584" lon="1.65046">
        <ele>1498</ele>
        <time>2018-11-18T10:57:12.000Z</time>
      </trkpt>
      <trkpt lat="42.68582" lon="1.65045">
        <ele>1498</ele>
        <time>2018-11-18T10:57:14.000Z</time>
      </trkpt>
      <trkpt lat="42.68581" lon="1.65045">
        <ele>1498</ele>
        <time>2018-11-18T10:57:16.000Z</time>
      </trkpt>
      <trkpt lat="42.6858" lon="1.65044">
        <ele>1498</ele>
        <time>2018-11-18T10:57:18.000Z</time>
      </trkpt>
      <trkpt lat="42.68579" lon="1.65045">
        <ele>1498</ele>
        <time>2018-11-18T10:57:20.000Z</time>
      </trkpt>
      <trkpt lat="42.68578" lon="1.65045">
        <ele>1498</ele>
        <time>2018-11-18T10:57:22.000Z</time>
      </trkpt>
      <trkpt lat="42.68577" lon="1.65044">
        <ele>1498</ele>
        <time>2018-11-18T10:57:24.000Z</time>
      </trkpt>
      <trkpt lat="42.68576" lon="1.65043">
        <ele>1498</ele>
        <time>2018-11-18T10:57:26.000Z</time>
      </trkpt>
      <trkpt lat="42.68575" lon="1.65043">
        <ele>1498</ele>
        <time>2018-11-18T10:57:28.000Z</time>
      </trkpt>
      <trkpt lat="42.68574" lon="1.65044">
        <ele>1498</ele>
        <time>2018-11-18T10:57:30.000Z</time>
      </trkpt>
      <trkpt lat="42.68573" lon="1.65044">
        <ele>1498</ele>
        <time>2018-11-18T10:57:32.000Z</time>
      </trkpt>
      <trkpt lat="42.68572" lon="1.65044">
        <ele>1498</ele>
        <time>2018-11-18T10:57:34.000Z</time>
      </trkpt>
      <trkpt lat="42.68572" lon="1.65044">
        <ele>1498</ele>
        <time>2018-11-18T10:57:36.000Z</time>
      </trkpt>
      <trkpt lat="42.68572" lon="1.65044">
        <ele>1498</ele>
        <time>2018-11-18T10:57:38.000Z</time>
      </trkpt>
      <trkpt lat="42.68571" lon="1.65044">
        <ele>1498</ele>
        <time>2018-11-18T10:57:40.000Z</time>
      </trkpt>
      <trkpt lat="42.68572" lon="1.65044">
        <ele>1498</ele>
        <time>2018-11-18T10:57:42.000Z</time>
      </trkpt>
      <trkpt lat="42.68571" lon="1.65044">
        <ele>1498</ele>
        <time>2018-11-18T10:57:44.000Z</time>
      </trkpt>
      <trkpt lat="42.68571" lon="1.65043">
        <ele>1498</ele>
        <time>2018-11-18T10:57:46.000Z</time>
      </trkpt>
      <trkpt lat="42.6857" lon="1.65044">
        <ele>1498</ele>
        <time>2018-11-18T10:57:48.000Z</time>
      </trkpt>
      <trkpt lat="42.6857" lon="1.65043">
        <ele>1498</ele>
        <time>2018-11-18T10:57:50.000Z</time>
      </trkpt>
      <trkpt lat="42.68569" lon="1.65044">
        <ele>1499</ele>
        <time>2018-11-18T10:57:52.000Z</time>
      </trkpt>
      <trkpt lat="42.68568" lon="1.65046">
        <ele>1499</ele>
        <time>2018-11-18T10:57:54.000Z</time>
      </trkpt>
      <trkpt lat="42.68566" lon="1.65047">
        <ele>1499</ele>
        <time>2018-11-18T10:57:56.000Z</time>
      </trkpt>
      <trkpt lat="42.68565" lon="1.65046">
        <ele>1499</ele>
        <time>2018-11-18T10:57:58.000Z</time>
      </trkpt>
      <trkpt lat="42.68564" lon="1.65046">
        <ele>1499</ele>
        <time>2018-11-18T10:58:00.000Z</time>
      </trkpt>
      <trkpt lat="42.68563" lon="1.65046">
        <ele>1499</ele>
        <time>2018-11-18T10:58:02.000Z</time>
      </trkpt>
      <trkpt lat="42.68562" lon="1.65047">
        <ele>1500</ele>
        <time>2018-11-18T10:58:04.000Z</time>
      </trkpt>
      <trkpt lat="42.68561" lon="1.65048">
        <ele>1500</ele>
        <time>2018-11-18T10:58:06.000Z</time>
      </trkpt>
      <trkpt lat="42.68559" lon="1.65049">
        <ele>1500</ele>
        <time>2018-11-18T10:58:08.000Z</time>
      </trkpt>
      <trkpt lat="42.68558" lon="1.65048">
        <ele>1500</ele>
        <time>2018-11-18T10:58:10.000Z</time>
      </trkpt>
      <trkpt lat="42.68558" lon="1.65049">
        <ele>1500</ele>
        <time>2018-11-18T10:58:12.000Z</time>
      </trkpt>
      <trkpt lat="42.68557" lon="1.65049">
        <ele>1500</ele>
        <time>2018-11-18T10:58:14.000Z</time>
      </trkpt>
      <trkpt lat="42.68555" lon="1.65048">
        <ele>1500</ele>
        <time>2018-11-18T10:58:16.000Z</time>
      </trkpt>
      <trkpt lat="42.68554" lon="1.65048">
        <ele>1500</ele>
        <time>2018-11-18T10:58:18.000Z</time>
      </trkpt>
      <trkpt lat="42.68552" lon="1.65047">
        <ele>1500</ele>
        <time>2018-11-18T10:58:20.000Z</time>
      </trkpt>
      <trkpt lat="42.68551" lon="1.65046">
        <ele>1500</ele>
        <time>2018-11-18T10:58:22.000Z</time>
      </trkpt>
      <trkpt lat="42.68551" lon="1.65046">
        <ele>1500</ele>
        <time>2018-11-18T10:58:24.000Z</time>
      </trkpt>
      <trkpt lat="42.6855" lon="1.65047">
        <ele>1500</ele>
        <time>2018-11-18T10:58:26.000Z</time>
      </trkpt>
      <trkpt lat="42.68549" lon="1.65048">
        <ele>1500</ele>
        <time>2018-11-18T10:58:28.000Z</time>
      </trkpt>
      <trkpt lat="42.68548" lon="1.6505">
        <ele>1501</ele>
        <time>2018-11-18T10:58:30.000Z</time>
      </trkpt>
      <trkpt lat="42.68547" lon="1.6505">
        <ele>1501</ele>
        <time>2018-11-18T10:58:32.000Z</time>
      </trkpt>
      <trkpt lat="42.68545" lon="1.65051">
        <ele>1501</ele>
        <time>2018-11-18T10:58:34.000Z</time>
      </trkpt>
      <trkpt lat="42.68544" lon="1.65051">
        <ele>1501</ele>
        <time>2018-11-18T10:58:36.000Z</time>
      </trkpt>
      <trkpt lat="42.68544" lon="1.65051">
        <ele>1501</ele>
        <time>2018-11-18T10:58:38.000Z</time>
      </trkpt>
      <trkpt lat="42.68543" lon="1.65051">
        <ele>1501</ele>
        <time>2018-11-18T10:58:40.000Z</time>
      </trkpt>
      <trkpt lat="42.68541" lon="1.6505">
        <ele>1501</ele>
        <time>2018-11-18T10:58:42.000Z</time>
      </trkpt>
      <trkpt lat="42.68541" lon="1.6505">
        <ele>1501</ele>
        <time>2018-11-18T10:58:44.000Z</time>
      </trkpt>
      <trkpt lat="42.6854" lon="1.6505">
        <ele>1501</ele>
        <time>2018-11-18T10:58:46.000Z</time>
      </trkpt>
      <trkpt lat="42.68539" lon="1.65049">
        <ele>1501</ele>
        <time>2018-11-18T10:58:48.000Z</time>
      </trkpt>
      <trkpt lat="42.68539" lon="1.65048">
        <ele>1501</ele>
        <time>2018-11-18T10:58:50.000Z</time>
      </trkpt>
      <trkpt lat="42.68539" lon="1.65045">
        <ele>1501</ele>
        <time>2018-11-18T10:58:52.000Z</time>
      </trkpt>
      <trkpt lat="42.68539" lon="1.65044">
        <ele>1501</ele>
        <time>2018-11-18T10:58:54.000Z</time>
      </trkpt>
      <trkpt lat="42.68538" lon="1.65043">
        <ele>1500</ele>
        <time>2018-11-18T10:58:56.000Z</time>
      </trkpt>
      <trkpt lat="42.68538" lon="1.65041">
        <ele>1500</ele>
        <time>2018-11-18T10:58:58.000Z</time>
      </trkpt>
      <trkpt lat="42.68538" lon="1.65038">
        <ele>1500</ele>
        <time>2018-11-18T10:59:00.000Z</time>
      </trkpt>
      <trkpt lat="42.68538" lon="1.65034">
        <ele>1499</ele>
        <time>2018-11-18T10:59:02.000Z</time>
      </trkpt>
      <trkpt lat="42.68538" lon="1.65032">
        <ele>1499</ele>
        <time>2018-11-18T10:59:04.000Z</time>
      </trkpt>
      <trkpt lat="42.68538" lon="1.65031">
        <ele>1499</ele>
        <time>2018-11-18T10:59:06.000Z</time>
      </trkpt>
      <trkpt lat="42.68539" lon="1.65031">
        <ele>1499</ele>
        <time>2018-11-18T10:59:08.000Z</time>
      </trkpt>
      <trkpt lat="42.68539" lon="1.65031">
        <ele>1499</ele>
        <time>2018-11-18T10:59:10.000Z</time>
      </trkpt>
      <trkpt lat="42.68539" lon="1.65031">
        <ele>1499</ele>
        <time>2018-11-18T10:59:12.000Z</time>
      </trkpt>
      <trkpt lat="42.68539" lon="1.65032">
        <ele>1499</ele>
        <time>2018-11-18T10:59:14.000Z</time>
      </trkpt>
      <trkpt lat="42.68539" lon="1.65032">
        <ele>1499</ele>
        <time>2018-11-18T10:59:16.000Z</time>
      </trkpt>
      <trkpt lat="42.68539" lon="1.65031">
        <ele>1499</ele>
        <time>2018-11-18T10:59:18.000Z</time>
      </trkpt>
      <trkpt lat="42.68539" lon="1.65031">
        <ele>1499</ele>
        <time>2018-11-18T10:59:20.000Z</time>
      </trkpt>
      <trkpt lat="42.68539" lon="1.65031">
        <ele>1499</ele>
        <time>2018-11-18T10:59:22.000Z</time>
      </trkpt>
      <trkpt lat="42.68539" lon="1.65031">
        <ele>1499</ele>
        <time>2018-11-18T10:59:24.000Z</time>
      </trkpt>
      <trkpt lat="42.68538" lon="1.65031">
        <ele>1499</ele>
        <time>2018-11-18T10:59:26.000Z</time>
      </trkpt>
      <trkpt lat="42.68537" lon="1.65031">
        <ele>1499</ele>
        <time>2018-11-18T10:59:28.000Z</time>
      </trkpt>
      <trkpt lat="42.68535" lon="1.65029">
        <ele>1499</ele>
        <time>2018-11-18T10:59:30.000Z</time>
      </trkpt>
      <trkpt lat="42.68535" lon="1.65027">
        <ele>1499</ele>
        <time>2018-11-18T10:59:32.000Z</time>
      </trkpt>
      <trkpt lat="42.68534" lon="1.65027">
        <ele>1499</ele>
        <time>2018-11-18T10:59:34.000Z</time>
      </trkpt>
      <trkpt lat="42.68534" lon="1.65026">
        <ele>1498</ele>
        <time>2018-11-18T10:59:36.000Z</time>
      </trkpt>
      <trkpt lat="42.68532" lon="1.65025">
        <ele>1498</ele>
        <time>2018-11-18T10:59:38.000Z</time>
      </trkpt>
      <trkpt lat="42.68531" lon="1.65024">
        <ele>1498</ele>
        <time>2018-11-18T10:59:40.000Z</time>
      </trkpt>
      <trkpt lat="42.6853" lon="1.65023">
        <ele>1498</ele>
        <time>2018-11-18T10:59:42.000Z</time>
      </trkpt>
      <trkpt lat="42.68529" lon="1.65022">
        <ele>1498</ele>
        <time>2018-11-18T10:59:44.000Z</time>
      </trkpt>
      <trkpt lat="42.68528" lon="1.65022">
        <ele>1498</ele>
        <time>2018-11-18T10:59:46.000Z</time>
      </trkpt>
      <trkpt lat="42.68527" lon="1.65022">
        <ele>1498</ele>
        <time>2018-11-18T10:59:48.000Z</time>
      </trkpt>
      <trkpt lat="42.68526" lon="1.65022">
        <ele>1498</ele>
        <time>2018-11-18T10:59:50.000Z</time>
      </trkpt>
      <trkpt lat="42.68525" lon="1.65022">
        <ele>1498</ele>
        <time>2018-11-18T10:59:52.000Z</time>
      </trkpt>
      <trkpt lat="42.68524" lon="1.6502">
        <ele>1498</ele>
        <time>2018-11-18T10:59:54.000Z</time>
      </trkpt>
      <trkpt lat="42.68523" lon="1.65019">
        <ele>1498</ele>
        <time>2018-11-18T10:59:56.000Z</time>
      </trkpt>
      <trkpt lat="42.68523" lon="1.65018">
        <ele>1498</ele>
        <time>2018-11-18T10:59:58.000Z</time>
      </trkpt>
      <trkpt lat="42.68523" lon="1.65018">
        <ele>1498</ele>
        <time>2018-11-18T11:00:00.000Z</time>
      </trkpt>
      <trkpt lat="42.68521" lon="1.65016">
        <ele>1498</ele>
        <time>2018-11-18T11:00:02.000Z</time>
      </trkpt>
      <trkpt lat="42.6852" lon="1.65014">
        <ele>1498</ele>
        <time>2018-11-18T11:00:04.000Z</time>
      </trkpt>
      <trkpt lat="42.68519" lon="1.65012">
        <ele>1497</ele>
        <time>2018-11-18T11:00:06.000Z</time>
      </trkpt>
      <trkpt lat="42.68518" lon="1.6501">
        <ele>1497</ele>
        <time>2018-11-18T11:00:08.000Z</time>
      </trkpt>
      <trkpt lat="42.68517" lon="1.65008">
        <ele>1497</ele>
        <time>2018-11-18T11:00:10.000Z</time>
      </trkpt>
      <trkpt lat="42.68516" lon="1.65006">
        <ele>1497</ele>
        <time>2018-11-18T11:00:12.000Z</time>
      </trkpt>
      <trkpt lat="42.68516" lon="1.65005">
        <ele>1497</ele>
        <time>2018-11-18T11:00:14.000Z</time>
      </trkpt>
      <trkpt lat="42.68516" lon="1.65005">
        <ele>1497</ele>
        <time>2018-11-18T11:00:16.000Z</time>
      </trkpt>
      <trkpt lat="42.68515" lon="1.65006">
        <ele>1497</ele>
        <time>2018-11-18T11:00:18.000Z</time>
      </trkpt>
      <trkpt lat="42.68513" lon="1.65008">
        <ele>1497</ele>
        <time>2018-11-18T11:00:20.000Z</time>
      </trkpt>
      <trkpt lat="42.68511" lon="1.65009">
        <ele>1498</ele>
        <time>2018-11-18T11:00:22.000Z</time>
      </trkpt>
      <trkpt lat="42.6851" lon="1.6501">
        <ele>1498</ele>
        <time>2018-11-18T11:00:24.000Z</time>
      </trkpt>
      <trkpt lat="42.68508" lon="1.6501">
        <ele>1498</ele>
        <time>2018-11-18T11:00:26.000Z</time>
      </trkpt>
      <trkpt lat="42.68506" lon="1.65009">
        <ele>1498</ele>
        <time>2018-11-18T11:00:28.000Z</time>
      </trkpt>
      <trkpt lat="42.68504" lon="1.65008">
        <ele>1498</ele>
        <time>2018-11-18T11:00:30.000Z</time>
      </trkpt>
      <trkpt lat="42.68503" lon="1.65006">
        <ele>1498</ele>
        <time>2018-11-18T11:00:32.000Z</time>
      </trkpt>
      <trkpt lat="42.68501" lon="1.65005">
        <ele>1498</ele>
        <time>2018-11-18T11:00:34.000Z</time>
      </trkpt>
      <trkpt lat="42.685" lon="1.65004">
        <ele>1498</ele>
        <time>2018-11-18T11:00:36.000Z</time>
      </trkpt>
      <trkpt lat="42.68499" lon="1.65003">
        <ele>1498</ele>
        <time>2018-11-18T11:00:38.000Z</time>
      </trkpt>
      <trkpt lat="42.68498" lon="1.65003">
        <ele>1498</ele>
        <time>2018-11-18T11:00:40.000Z</time>
      </trkpt>
      <trkpt lat="42.68496" lon="1.65002">
        <ele>1498</ele>
        <time>2018-11-18T11:00:42.000Z</time>
      </trkpt>
      <trkpt lat="42.68495" lon="1.65002">
        <ele>1499</ele>
        <time>2018-11-18T11:00:44.000Z</time>
      </trkpt>
      <trkpt lat="42.68494" lon="1.65002">
        <ele>1499</ele>
        <time>2018-11-18T11:00:46.000Z</time>
      </trkpt>
      <trkpt lat="42.68493" lon="1.65002">
        <ele>1499</ele>
        <time>2018-11-18T11:00:48.000Z</time>
      </trkpt>
      <trkpt lat="42.68492" lon="1.65001">
        <ele>1499</ele>
        <time>2018-11-18T11:00:50.000Z</time>
      </trkpt>
      <trkpt lat="42.68491" lon="1.65">
        <ele>1499</ele>
        <time>2018-11-18T11:00:52.000Z</time>
      </trkpt>
      <trkpt lat="42.6849" lon="1.65">
        <ele>1499</ele>
        <time>2018-11-18T11:00:54.000Z</time>
      </trkpt>
      <trkpt lat="42.68489" lon="1.65">
        <ele>1500</ele>
        <time>2018-11-18T11:00:56.000Z</time>
      </trkpt>
      <trkpt lat="42.68487" lon="1.65">
        <ele>1500</ele>
        <time>2018-11-18T11:00:58.000Z</time>
      </trkpt>
      <trkpt lat="42.68486" lon="1.64999">
        <ele>1500</ele>
        <time>2018-11-18T11:01:00.000Z</time>
      </trkpt>
      <trkpt lat="42.68486" lon="1.64998">
        <ele>1500</ele>
        <time>2018-11-18T11:01:02.000Z</time>
      </trkpt>
      <trkpt lat="42.68485" lon="1.64997">
        <ele>1500</ele>
        <time>2018-11-18T11:01:04.000Z</time>
      </trkpt>
      <trkpt lat="42.68484" lon="1.64996">
        <ele>1500</ele>
        <time>2018-11-18T11:01:06.000Z</time>
      </trkpt>
      <trkpt lat="42.68482" lon="1.64994">
        <ele>1500</ele>
        <time>2018-11-18T11:01:08.000Z</time>
      </trkpt>
      <trkpt lat="42.68481" lon="1.64993">
        <ele>1500</ele>
        <time>2018-11-18T11:01:10.000Z</time>
      </trkpt>
      <trkpt lat="42.6848" lon="1.64992">
        <ele>1500</ele>
        <time>2018-11-18T11:01:12.000Z</time>
      </trkpt>
      <trkpt lat="42.68479" lon="1.6499">
        <ele>1500</ele>
        <time>2018-11-18T11:01:14.000Z</time>
      </trkpt>
      <trkpt lat="42.68478" lon="1.64988">
        <ele>1500</ele>
        <time>2018-11-18T11:01:16.000Z</time>
      </trkpt>
      <trkpt lat="42.68477" lon="1.64986">
        <ele>1500</ele>
        <time>2018-11-18T11:01:18.000Z</time>
      </trkpt>
      <trkpt lat="42.68476" lon="1.64984">
        <ele>1500</ele>
        <time>2018-11-18T11:01:20.000Z</time>
      </trkpt>
      <trkpt lat="42.68475" lon="1.64983">
        <ele>1500</ele>
        <time>2018-11-18T11:01:22.000Z</time>
      </trkpt>
      <trkpt lat="42.68474" lon="1.64982">
        <ele>1501</ele>
        <time>2018-11-18T11:01:24.000Z</time>
      </trkpt>
      <trkpt lat="42.68473" lon="1.64981">
        <ele>1501</ele>
        <time>2018-11-18T11:01:26.000Z</time>
      </trkpt>
      <trkpt lat="42.68472" lon="1.64979">
        <ele>1501</ele>
        <time>2018-11-18T11:01:28.000Z</time>
      </trkpt>
      <trkpt lat="42.68472" lon="1.64978">
        <ele>1501</ele>
        <time>2018-11-18T11:01:30.000Z</time>
      </trkpt>
      <trkpt lat="42.6847" lon="1.64977">
        <ele>1501</ele>
        <time>2018-11-18T11:01:32.000Z</time>
      </trkpt>
      <trkpt lat="42.68469" lon="1.64978">
        <ele>1502</ele>
        <time>2018-11-18T11:01:34.000Z</time>
      </trkpt>
      <trkpt lat="42.68468" lon="1.64978">
        <ele>1502</ele>
        <time>2018-11-18T11:01:36.000Z</time>
      </trkpt>
      <trkpt lat="42.68466" lon="1.64977">
        <ele>1502</ele>
        <time>2018-11-18T11:01:38.000Z</time>
      </trkpt>
      <trkpt lat="42.68465" lon="1.64977">
        <ele>1502</ele>
        <time>2018-11-18T11:01:40.000Z</time>
      </trkpt>
      <trkpt lat="42.68463" lon="1.64977">
        <ele>1503</ele>
        <time>2018-11-18T11:01:42.000Z</time>
      </trkpt>
      <trkpt lat="42.68462" lon="1.64976">
        <ele>1503</ele>
        <time>2018-11-18T11:01:44.000Z</time>
      </trkpt>
      <trkpt lat="42.6846" lon="1.64975">
        <ele>1503</ele>
        <time>2018-11-18T11:01:46.000Z</time>
      </trkpt>
      <trkpt lat="42.68459" lon="1.64974">
        <ele>1503</ele>
        <time>2018-11-18T11:01:48.000Z</time>
      </trkpt>
      <trkpt lat="42.68458" lon="1.64974">
        <ele>1504</ele>
        <time>2018-11-18T11:01:50.000Z</time>
      </trkpt>
      <trkpt lat="42.68456" lon="1.64974">
        <ele>1504</ele>
        <time>2018-11-18T11:01:52.000Z</time>
      </trkpt>
      <trkpt lat="42.68455" lon="1.64975">
        <ele>1504</ele>
        <time>2018-11-18T11:01:54.000Z</time>
      </trkpt>
      <trkpt lat="42.68453" lon="1.64976">
        <ele>1505</ele>
        <time>2018-11-18T11:01:56.000Z</time>
      </trkpt>
      <trkpt lat="42.68452" lon="1.64976">
        <ele>1505</ele>
        <time>2018-11-18T11:01:58.000Z</time>
      </trkpt>
      <trkpt lat="42.68451" lon="1.64976">
        <ele>1505</ele>
        <time>2018-11-18T11:02:00.000Z</time>
      </trkpt>
      <trkpt lat="42.68451" lon="1.64975">
        <ele>1505</ele>
        <time>2018-11-18T11:02:02.000Z</time>
      </trkpt>
      <trkpt lat="42.68451" lon="1.64975">
        <ele>1505</ele>
        <time>2018-11-18T11:02:04.000Z</time>
      </trkpt>
      <trkpt lat="42.68451" lon="1.64975">
        <ele>1505</ele>
        <time>2018-11-18T11:02:06.000Z</time>
      </trkpt>
      <trkpt lat="42.68451" lon="1.64975">
        <ele>1505</ele>
        <time>2018-11-18T11:02:08.000Z</time>
      </trkpt>
      <trkpt lat="42.68451" lon="1.64975">
        <ele>1505</ele>
        <time>2018-11-18T11:02:10.000Z</time>
      </trkpt>
      <trkpt lat="42.68451" lon="1.64974">
        <ele>1505</ele>
        <time>2018-11-18T11:02:12.000Z</time>
      </trkpt>
      <trkpt lat="42.68451" lon="1.64973">
        <ele>1505</ele>
        <time>2018-11-18T11:02:14.000Z</time>
      </trkpt>
      <trkpt lat="42.6845" lon="1.64973">
        <ele>1505</ele>
        <time>2018-11-18T11:02:16.000Z</time>
      </trkpt>
      <trkpt lat="42.68451" lon="1.64972">
        <ele>1505</ele>
        <time>2018-11-18T11:02:18.000Z</time>
      </trkpt>
      <trkpt lat="42.68451" lon="1.64972">
        <ele>1505</ele>
        <time>2018-11-18T11:02:20.000Z</time>
      </trkpt>
      <trkpt lat="42.68451" lon="1.64972">
        <ele>1505</ele>
        <time>2018-11-18T11:02:22.000Z</time>
      </trkpt>
      <trkpt lat="42.68451" lon="1.64971">
        <ele>1505</ele>
        <time>2018-11-18T11:02:24.000Z</time>
      </trkpt>
      <trkpt lat="42.68451" lon="1.64971">
        <ele>1505</ele>
        <time>2018-11-18T11:02:26.000Z</time>
      </trkpt>
      <trkpt lat="42.68451" lon="1.64971">
        <ele>1505</ele>
        <time>2018-11-18T11:02:28.000Z</time>
      </trkpt>
      <trkpt lat="42.6845" lon="1.64971">
        <ele>1505</ele>
        <time>2018-11-18T11:02:30.000Z</time>
      </trkpt>
      <trkpt lat="42.68449" lon="1.64971">
        <ele>1505</ele>
        <time>2018-11-18T11:02:32.000Z</time>
      </trkpt>
      <trkpt lat="42.68449" lon="1.64971">
        <ele>1505</ele>
        <time>2018-11-18T11:02:34.000Z</time>
      </trkpt>
      <trkpt lat="42.68449" lon="1.64971">
        <ele>1505</ele>
        <time>2018-11-18T11:02:36.000Z</time>
      </trkpt>
      <trkpt lat="42.68449" lon="1.64971">
        <ele>1505</ele>
        <time>2018-11-18T11:02:38.000Z</time>
      </trkpt>
      <trkpt lat="42.68449" lon="1.64971">
        <ele>1505</ele>
        <time>2018-11-18T11:02:40.000Z</time>
      </trkpt>
      <trkpt lat="42.68449" lon="1.64971">
        <ele>1505</ele>
        <time>2018-11-18T11:02:42.000Z</time>
      </trkpt>
      <trkpt lat="42.68449" lon="1.64971">
        <ele>1505</ele>
        <time>2018-11-18T11:02:44.000Z</time>
      </trkpt>
      <trkpt lat="42.68449" lon="1.64971">
        <ele>1505</ele>
        <time>2018-11-18T11:02:46.000Z</time>
      </trkpt>
      <trkpt lat="42.68449" lon="1.64972">
        <ele>1505</ele>
        <time>2018-11-18T11:02:48.000Z</time>
      </trkpt>
      <trkpt lat="42.68449" lon="1.64972">
        <ele>1505</ele>
        <time>2018-11-18T11:02:50.000Z</time>
      </trkpt>
      <trkpt lat="42.68449" lon="1.64972">
        <ele>1505</ele>
        <time>2018-11-18T11:02:52.000Z</time>
      </trkpt>
      <trkpt lat="42.6845" lon="1.64973">
        <ele>1505</ele>
        <time>2018-11-18T11:02:54.000Z</time>
      </trkpt>
      <trkpt lat="42.6845" lon="1.64974">
        <ele>1505</ele>
        <time>2018-11-18T11:02:56.000Z</time>
      </trkpt>
      <trkpt lat="42.6845" lon="1.64974">
        <ele>1505</ele>
        <time>2018-11-18T11:02:58.000Z</time>
      </trkpt>
      <trkpt lat="42.6845" lon="1.64974">
        <ele>1505</ele>
        <time>2018-11-18T11:03:00.000Z</time>
      </trkpt>
      <trkpt lat="42.6845" lon="1.64974">
        <ele>1505</ele>
        <time>2018-11-18T11:03:02.000Z</time>
      </trkpt>
      <trkpt lat="42.6845" lon="1.64974">
        <ele>1505</ele>
        <time>2018-11-18T11:03:04.000Z</time>
      </trkpt>
      <trkpt lat="42.6845" lon="1.64974">
        <ele>1505</ele>
        <time>2018-11-18T11:03:06.000Z</time>
      </trkpt>
      <trkpt lat="42.6845" lon="1.64973">
        <ele>1505</ele>
        <time>2018-11-18T11:03:08.000Z</time>
      </trkpt>
      <trkpt lat="42.6845" lon="1.64973">
        <ele>1505</ele>
        <time>2018-11-18T11:03:10.000Z</time>
      </trkpt>
      <trkpt lat="42.6845" lon="1.64973">
        <ele>1505</ele>
        <time>2018-11-18T11:03:12.000Z</time>
      </trkpt>
      <trkpt lat="42.68449" lon="1.64972">
        <ele>1505</ele>
        <time>2018-11-18T11:03:14.000Z</time>
      </trkpt>
      <trkpt lat="42.68449" lon="1.64973">
        <ele>1505</ele>
        <time>2018-11-18T11:03:16.000Z</time>
      </trkpt>
      <trkpt lat="42.68449" lon="1.64972">
        <ele>1505</ele>
        <time>2018-11-18T11:03:18.000Z</time>
      </trkpt>
      <trkpt lat="42.68449" lon="1.64972">
        <ele>1505</ele>
        <time>2018-11-18T11:03:20.000Z</time>
      </trkpt>
      <trkpt lat="42.68449" lon="1.64973">
        <ele>1505</ele>
        <time>2018-11-18T11:03:22.000Z</time>
      </trkpt>
      <trkpt lat="42.68449" lon="1.64972">
        <ele>1505</ele>
        <time>2018-11-18T11:03:24.000Z</time>
      </trkpt>
      <trkpt lat="42.68449" lon="1.64972">
        <ele>1505</ele>
        <time>2018-11-18T11:03:26.000Z</time>
      </trkpt>
      <trkpt lat="42.68449" lon="1.64971">
        <ele>1505</ele>
        <time>2018-11-18T11:03:28.000Z</time>
      </trkpt>
      <trkpt lat="42.68448" lon="1.64971">
        <ele>1505</ele>
        <time>2018-11-18T11:03:30.000Z</time>
      </trkpt>
      <trkpt lat="42.68448" lon="1.64971">
        <ele>1506</ele>
        <time>2018-11-18T11:03:32.000Z</time>
      </trkpt>
      <trkpt lat="42.68448" lon="1.64971">
        <ele>1506</ele>
        <time>2018-11-18T11:03:34.000Z</time>
      </trkpt>
      <trkpt lat="42.68448" lon="1.64971">
        <ele>1506</ele>
        <time>2018-11-18T11:03:36.000Z</time>
      </trkpt>
      <trkpt lat="42.68448" lon="1.64971">
        <ele>1506</ele>
        <time>2018-11-18T11:03:38.000Z</time>
      </trkpt>
      <trkpt lat="42.68448" lon="1.64971">
        <ele>1506</ele>
        <time>2018-11-18T11:03:40.000Z</time>
      </trkpt>
      <trkpt lat="42.68448" lon="1.64971">
        <ele>1506</ele>
        <time>2018-11-18T11:03:42.000Z</time>
      </trkpt>
      <trkpt lat="42.68448" lon="1.6497">
        <ele>1506</ele>
        <time>2018-11-18T11:03:44.000Z</time>
      </trkpt>
      <trkpt lat="42.68448" lon="1.6497">
        <ele>1506</ele>
        <time>2018-11-18T11:03:46.000Z</time>
      </trkpt>
      <trkpt lat="42.68448" lon="1.6497">
        <ele>1506</ele>
        <time>2018-11-18T11:03:48.000Z</time>
      </trkpt>
      <trkpt lat="42.68448" lon="1.6497">
        <ele>1506</ele>
        <time>2018-11-18T11:03:50.000Z</time>
      </trkpt>
      <trkpt lat="42.68448" lon="1.6497">
        <ele>1506</ele>
        <time>2018-11-18T11:03:52.000Z</time>
      </trkpt>
      <trkpt lat="42.68447" lon="1.64969">
        <ele>1506</ele>
        <time>2018-11-18T11:03:54.000Z</time>
      </trkpt>
      <trkpt lat="42.68447" lon="1.64969">
        <ele>1506</ele>
        <time>2018-11-18T11:03:56.000Z</time>
      </trkpt>
      <trkpt lat="42.68447" lon="1.64969">
        <ele>1506</ele>
        <time>2018-11-18T11:03:58.000Z</time>
      </trkpt>
      <trkpt lat="42.68447" lon="1.6497">
        <ele>1506</ele>
        <time>2018-11-18T11:04:00.000Z</time>
      </trkpt>
      <trkpt lat="42.68447" lon="1.6497">
        <ele>1506</ele>
        <time>2018-11-18T11:04:02.000Z</time>
      </trkpt>
      <trkpt lat="42.68447" lon="1.6497">
        <ele>1506</ele>
        <time>2018-11-18T11:04:04.000Z</time>
      </trkpt>
      <trkpt lat="42.68447" lon="1.64969">
        <ele>1506</ele>
        <time>2018-11-18T11:04:06.000Z</time>
      </trkpt>
      <trkpt lat="42.68447" lon="1.6497">
        <ele>1506</ele>
        <time>2018-11-18T11:04:08.000Z</time>
      </trkpt>
      <trkpt lat="42.68447" lon="1.6497">
        <ele>1506</ele>
        <time>2018-11-18T11:04:10.000Z</time>
      </trkpt>
      <trkpt lat="42.68447" lon="1.6497">
        <ele>1506</ele>
        <time>2018-11-18T11:04:12.000Z</time>
      </trkpt>
      <trkpt lat="42.68448" lon="1.64971">
        <ele>1506</ele>
        <time>2018-11-18T11:04:14.000Z</time>
      </trkpt>
      <trkpt lat="42.68448" lon="1.64972">
        <ele>1506</ele>
        <time>2018-11-18T11:04:16.000Z</time>
      </trkpt>
      <trkpt lat="42.68448" lon="1.64973">
        <ele>1506</ele>
        <time>2018-11-18T11:04:18.000Z</time>
      </trkpt>
      <trkpt lat="42.68448" lon="1.64973">
        <ele>1506</ele>
        <time>2018-11-18T11:04:20.000Z</time>
      </trkpt>
      <trkpt lat="42.68448" lon="1.64973">
        <ele>1506</ele>
        <time>2018-11-18T11:04:22.000Z</time>
      </trkpt>
      <trkpt lat="42.68448" lon="1.64973">
        <ele>1506</ele>
        <time>2018-11-18T11:04:24.000Z</time>
      </trkpt>
      <trkpt lat="42.68449" lon="1.64974">
        <ele>1505</ele>
        <time>2018-11-18T11:04:26.000Z</time>
      </trkpt>
      <trkpt lat="42.68449" lon="1.64974">
        <ele>1505</ele>
        <time>2018-11-18T11:04:28.000Z</time>
      </trkpt>
      <trkpt lat="42.68449" lon="1.64974">
        <ele>1505</ele>
        <time>2018-11-18T11:04:30.000Z</time>
      </trkpt>
      <trkpt lat="42.68449" lon="1.64974">
        <ele>1505</ele>
        <time>2018-11-18T11:04:32.000Z</time>
      </trkpt>
      <trkpt lat="42.68449" lon="1.64973">
        <ele>1505</ele>
        <time>2018-11-18T11:04:34.000Z</time>
      </trkpt>
      <trkpt lat="42.68449" lon="1.64973">
        <ele>1505</ele>
        <time>2018-11-18T11:04:36.000Z</time>
      </trkpt>
      <trkpt lat="42.68449" lon="1.64973">
        <ele>1505</ele>
        <time>2018-11-18T11:04:38.000Z</time>
      </trkpt>
      <trkpt lat="42.68449" lon="1.64973">
        <ele>1505</ele>
        <time>2018-11-18T11:04:40.000Z</time>
      </trkpt>
      <trkpt lat="42.68449" lon="1.64972">
        <ele>1505</ele>
        <time>2018-11-18T11:04:42.000Z</time>
      </trkpt>
      <trkpt lat="42.68448" lon="1.64971">
        <ele>1506</ele>
        <time>2018-11-18T11:04:44.000Z</time>
      </trkpt>
      <trkpt lat="42.68448" lon="1.64969">
        <ele>1506</ele>
        <time>2018-11-18T11:04:46.000Z</time>
      </trkpt>
      <trkpt lat="42.68448" lon="1.64967">
        <ele>1506</ele>
        <time>2018-11-18T11:04:48.000Z</time>
      </trkpt>
      <trkpt lat="42.68447" lon="1.64965">
        <ele>1506</ele>
        <time>2018-11-18T11:04:50.000Z</time>
      </trkpt>
      <trkpt lat="42.68447" lon="1.64963">
        <ele>1506</ele>
        <time>2018-11-18T11:04:52.000Z</time>
      </trkpt>
      <trkpt lat="42.68447" lon="1.64961">
        <ele>1506</ele>
        <time>2018-11-18T11:04:54.000Z</time>
      </trkpt>
      <trkpt lat="42.68447" lon="1.64958">
        <ele>1506</ele>
        <time>2018-11-18T11:04:56.000Z</time>
      </trkpt>
      <trkpt lat="42.68446" lon="1.64956">
        <ele>1506</ele>
        <time>2018-11-18T11:04:58.000Z</time>
      </trkpt>
      <trkpt lat="42.68445" lon="1.64954">
        <ele>1506</ele>
        <time>2018-11-18T11:05:00.000Z</time>
      </trkpt>
      <trkpt lat="42.68445" lon="1.64954">
        <ele>1506</ele>
        <time>2018-11-18T11:05:02.000Z</time>
      </trkpt>
      <trkpt lat="42.68445" lon="1.64953">
        <ele>1506</ele>
        <time>2018-11-18T11:05:04.000Z</time>
      </trkpt>
      <trkpt lat="42.68443" lon="1.6495">
        <ele>1506</ele>
        <time>2018-11-18T11:05:06.000Z</time>
      </trkpt>
      <trkpt lat="42.68442" lon="1.64949">
        <ele>1507</ele>
        <time>2018-11-18T11:05:08.000Z</time>
      </trkpt>
      <trkpt lat="42.68441" lon="1.64948">
        <ele>1507</ele>
        <time>2018-11-18T11:05:10.000Z</time>
      </trkpt>
      <trkpt lat="42.6844" lon="1.64947">
        <ele>1507</ele>
        <time>2018-11-18T11:05:12.000Z</time>
      </trkpt>
      <trkpt lat="42.68439" lon="1.64946">
        <ele>1507</ele>
        <time>2018-11-18T11:05:14.000Z</time>
      </trkpt>
      <trkpt lat="42.68439" lon="1.64946">
        <ele>1507</ele>
        <time>2018-11-18T11:05:16.000Z</time>
      </trkpt>
      <trkpt lat="42.68438" lon="1.64944">
        <ele>1508</ele>
        <time>2018-11-18T11:05:18.000Z</time>
      </trkpt>
      <trkpt lat="42.68437" lon="1.64944">
        <ele>1508</ele>
        <time>2018-11-18T11:05:20.000Z</time>
      </trkpt>
      <trkpt lat="42.68437" lon="1.64942">
        <ele>1508</ele>
        <time>2018-11-18T11:05:22.000Z</time>
      </trkpt>
      <trkpt lat="42.68437" lon="1.64942">
        <ele>1508</ele>
        <time>2018-11-18T11:05:24.000Z</time>
      </trkpt>
      <trkpt lat="42.68436" lon="1.64942">
        <ele>1508</ele>
        <time>2018-11-18T11:05:26.000Z</time>
      </trkpt>
      <trkpt lat="42.68435" lon="1.64941">
        <ele>1508</ele>
        <time>2018-11-18T11:05:28.000Z</time>
      </trkpt>
      <trkpt lat="42.68434" lon="1.64941">
        <ele>1508</ele>
        <time>2018-11-18T11:05:30.000Z</time>
      </trkpt>
      <trkpt lat="42.68433" lon="1.6494">
        <ele>1508</ele>
        <time>2018-11-18T11:05:32.000Z</time>
      </trkpt>
      <trkpt lat="42.68432" lon="1.64939">
        <ele>1509</ele>
        <time>2018-11-18T11:05:34.000Z</time>
      </trkpt>
      <trkpt lat="42.68431" lon="1.64938">
        <ele>1509</ele>
        <time>2018-11-18T11:05:36.000Z</time>
      </trkpt>
      <trkpt lat="42.6843" lon="1.64937">
        <ele>1509</ele>
        <time>2018-11-18T11:05:38.000Z</time>
      </trkpt>
      <trkpt lat="42.68429" lon="1.64936">
        <ele>1509</ele>
        <time>2018-11-18T11:05:40.000Z</time>
      </trkpt>
      <trkpt lat="42.68429" lon="1.64935">
        <ele>1509</ele>
        <time>2018-11-18T11:05:42.000Z</time>
      </trkpt>
      <trkpt lat="42.68429" lon="1.64933">
        <ele>1509</ele>
        <time>2018-11-18T11:05:44.000Z</time>
      </trkpt>
      <trkpt lat="42.68429" lon="1.64933">
        <ele>1509</ele>
        <time>2018-11-18T11:05:46.000Z</time>
      </trkpt>
      <trkpt lat="42.68428" lon="1.64932">
        <ele>1509</ele>
        <time>2018-11-18T11:05:48.000Z</time>
      </trkpt>
      <trkpt lat="42.68427" lon="1.64931">
        <ele>1510</ele>
        <time>2018-11-18T11:05:50.000Z</time>
      </trkpt>
      <trkpt lat="42.68426" lon="1.64931">
        <ele>1510</ele>
        <time>2018-11-18T11:05:52.000Z</time>
      </trkpt>
      <trkpt lat="42.68425" lon="1.64932">
        <ele>1510</ele>
        <time>2018-11-18T11:05:54.000Z</time>
      </trkpt>
      <trkpt lat="42.68424" lon="1.64932">
        <ele>1510</ele>
        <time>2018-11-18T11:05:56.000Z</time>
      </trkpt>
      <trkpt lat="42.68423" lon="1.64931">
        <ele>1510</ele>
        <time>2018-11-18T11:05:58.000Z</time>
      </trkpt>
      <trkpt lat="42.68421" lon="1.64931">
        <ele>1511</ele>
        <time>2018-11-18T11:06:00.000Z</time>
      </trkpt>
      <trkpt lat="42.6842" lon="1.6493">
        <ele>1511</ele>
        <time>2018-11-18T11:06:02.000Z</time>
      </trkpt>
      <trkpt lat="42.68419" lon="1.6493">
        <ele>1511</ele>
        <time>2018-11-18T11:06:04.000Z</time>
      </trkpt>
      <trkpt lat="42.68418" lon="1.6493">
        <ele>1511</ele>
        <time>2018-11-18T11:06:06.000Z</time>
      </trkpt>
      <trkpt lat="42.68417" lon="1.64928">
        <ele>1512</ele>
        <time>2018-11-18T11:06:08.000Z</time>
      </trkpt>
      <trkpt lat="42.68416" lon="1.64927">
        <ele>1512</ele>
        <time>2018-11-18T11:06:10.000Z</time>
      </trkpt>
      <trkpt lat="42.68416" lon="1.64927">
        <ele>1512</ele>
        <time>2018-11-18T11:06:12.000Z</time>
      </trkpt>
      <trkpt lat="42.68415" lon="1.64927">
        <ele>1512</ele>
        <time>2018-11-18T11:06:14.000Z</time>
      </trkpt>
      <trkpt lat="42.68414" lon="1.64926">
        <ele>1512</ele>
        <time>2018-11-18T11:06:16.000Z</time>
      </trkpt>
      <trkpt lat="42.68413" lon="1.64926">
        <ele>1512</ele>
        <time>2018-11-18T11:06:18.000Z</time>
      </trkpt>
      <trkpt lat="42.68413" lon="1.64925">
        <ele>1512</ele>
        <time>2018-11-18T11:06:20.000Z</time>
      </trkpt>
      <trkpt lat="42.68412" lon="1.64923">
        <ele>1513</ele>
        <time>2018-11-18T11:06:22.000Z</time>
      </trkpt>
      <trkpt lat="42.68412" lon="1.64923">
        <ele>1513</ele>
        <time>2018-11-18T11:06:24.000Z</time>
      </trkpt>
      <trkpt lat="42.68411" lon="1.64922">
        <ele>1513</ele>
        <time>2018-11-18T11:06:26.000Z</time>
      </trkpt>
      <trkpt lat="42.68412" lon="1.64921">
        <ele>1513</ele>
        <time>2018-11-18T11:06:28.000Z</time>
      </trkpt>
      <trkpt lat="42.68412" lon="1.64921">
        <ele>1513</ele>
        <time>2018-11-18T11:06:30.000Z</time>
      </trkpt>
      <trkpt lat="42.68411" lon="1.64919">
        <ele>1513</ele>
        <time>2018-11-18T11:06:32.000Z</time>
      </trkpt>
      <trkpt lat="42.68411" lon="1.64919">
        <ele>1513</ele>
        <time>2018-11-18T11:06:34.000Z</time>
      </trkpt>
      <trkpt lat="42.6841" lon="1.64919">
        <ele>1513</ele>
        <time>2018-11-18T11:06:36.000Z</time>
      </trkpt>
      <trkpt lat="42.68409" lon="1.6492">
        <ele>1513</ele>
        <time>2018-11-18T11:06:38.000Z</time>
      </trkpt>
      <trkpt lat="42.68409" lon="1.6492">
        <ele>1513</ele>
        <time>2018-11-18T11:06:40.000Z</time>
      </trkpt>
      <trkpt lat="42.68408" lon="1.64921">
        <ele>1513</ele>
        <time>2018-11-18T11:06:42.000Z</time>
      </trkpt>
      <trkpt lat="42.68407" lon="1.64921">
        <ele>1514</ele>
        <time>2018-11-18T11:06:44.000Z</time>
      </trkpt>
      <trkpt lat="42.68406" lon="1.64922">
        <ele>1514</ele>
        <time>2018-11-18T11:06:46.000Z</time>
      </trkpt>
      <trkpt lat="42.68405" lon="1.64923">
        <ele>1514</ele>
        <time>2018-11-18T11:06:48.000Z</time>
      </trkpt>
      <trkpt lat="42.68404" lon="1.64924">
        <ele>1514</ele>
        <time>2018-11-18T11:06:50.000Z</time>
      </trkpt>
      <trkpt lat="42.68404" lon="1.64925">
        <ele>1514</ele>
        <time>2018-11-18T11:06:52.000Z</time>
      </trkpt>
      <trkpt lat="42.68404" lon="1.64927">
        <ele>1514</ele>
        <time>2018-11-18T11:06:54.000Z</time>
      </trkpt>
      <trkpt lat="42.68403" lon="1.64928">
        <ele>1514</ele>
        <time>2018-11-18T11:06:56.000Z</time>
      </trkpt>
      <trkpt lat="42.68402" lon="1.64929">
        <ele>1515</ele>
        <time>2018-11-18T11:06:58.000Z</time>
      </trkpt>
      <trkpt lat="42.68401" lon="1.6493">
        <ele>1515</ele>
        <time>2018-11-18T11:07:00.000Z</time>
      </trkpt>
      <trkpt lat="42.68399" lon="1.6493">
        <ele>1515</ele>
        <time>2018-11-18T11:07:02.000Z</time>
      </trkpt>
      <trkpt lat="42.68399" lon="1.64929">
        <ele>1515</ele>
        <time>2018-11-18T11:07:04.000Z</time>
      </trkpt>
      <trkpt lat="42.68398" lon="1.64929">
        <ele>1515</ele>
        <time>2018-11-18T11:07:06.000Z</time>
      </trkpt>
      <trkpt lat="42.68397" lon="1.64929">
        <ele>1516</ele>
        <time>2018-11-18T11:07:08.000Z</time>
      </trkpt>
      <trkpt lat="42.68397" lon="1.64929">
        <ele>1516</ele>
        <time>2018-11-18T11:07:10.000Z</time>
      </trkpt>
      <trkpt lat="42.68396" lon="1.64929">
        <ele>1516</ele>
        <time>2018-11-18T11:07:12.000Z</time>
      </trkpt>
      <trkpt lat="42.68395" lon="1.64929">
        <ele>1516</ele>
        <time>2018-11-18T11:07:14.000Z</time>
      </trkpt>
      <trkpt lat="42.68395" lon="1.64929">
        <ele>1516</ele>
        <time>2018-11-18T11:07:16.000Z</time>
      </trkpt>
      <trkpt lat="42.68395" lon="1.64929">
        <ele>1516</ele>
        <time>2018-11-18T11:07:18.000Z</time>
      </trkpt>
      <trkpt lat="42.68395" lon="1.64929">
        <ele>1516</ele>
        <time>2018-11-18T11:07:20.000Z</time>
      </trkpt>
      <trkpt lat="42.68395" lon="1.64929">
        <ele>1516</ele>
        <time>2018-11-18T11:07:22.000Z</time>
      </trkpt>
      <trkpt lat="42.68394" lon="1.64929">
        <ele>1516</ele>
        <time>2018-11-18T11:07:24.000Z</time>
      </trkpt>
      <trkpt lat="42.68394" lon="1.64929">
        <ele>1516</ele>
        <time>2018-11-18T11:07:26.000Z</time>
      </trkpt>
      <trkpt lat="42.68394" lon="1.64929">
        <ele>1516</ele>
        <time>2018-11-18T11:07:28.000Z</time>
      </trkpt>
      <trkpt lat="42.68394" lon="1.64929">
        <ele>1516</ele>
        <time>2018-11-18T11:07:30.000Z</time>
      </trkpt>
      <trkpt lat="42.68393" lon="1.64929">
        <ele>1516</ele>
        <time>2018-11-18T11:07:32.000Z</time>
      </trkpt>
      <trkpt lat="42.68394" lon="1.64928">
        <ele>1516</ele>
        <time>2018-11-18T11:07:34.000Z</time>
      </trkpt>
      <trkpt lat="42.68393" lon="1.64928">
        <ele>1516</ele>
        <time>2018-11-18T11:07:36.000Z</time>
      </trkpt>
      <trkpt lat="42.68393" lon="1.64928">
        <ele>1516</ele>
        <time>2018-11-18T11:07:38.000Z</time>
      </trkpt>
      <trkpt lat="42.68392" lon="1.6493">
        <ele>1517</ele>
        <time>2018-11-18T11:07:40.000Z</time>
      </trkpt>
      <trkpt lat="42.68392" lon="1.64933">
        <ele>1517</ele>
        <time>2018-11-18T11:07:42.000Z</time>
      </trkpt>
      <trkpt lat="42.68392" lon="1.64936">
        <ele>1517</ele>
        <time>2018-11-18T11:07:44.000Z</time>
      </trkpt>
      <trkpt lat="42.68392" lon="1.64939">
        <ele>1517</ele>
        <time>2018-11-18T11:07:46.000Z</time>
      </trkpt>
      <trkpt lat="42.68392" lon="1.64942">
        <ele>1517</ele>
        <time>2018-11-18T11:07:48.000Z</time>
      </trkpt>
      <trkpt lat="42.68391" lon="1.64945">
        <ele>1517</ele>
        <time>2018-11-18T11:07:50.000Z</time>
      </trkpt>
      <trkpt lat="42.6839" lon="1.64947">
        <ele>1517</ele>
        <time>2018-11-18T11:07:52.000Z</time>
      </trkpt>
      <trkpt lat="42.68388" lon="1.64949">
        <ele>1517</ele>
        <time>2018-11-18T11:07:54.000Z</time>
      </trkpt>
      <trkpt lat="42.68387" lon="1.64951">
        <ele>1518</ele>
        <time>2018-11-18T11:07:56.000Z</time>
      </trkpt>
      <trkpt lat="42.68386" lon="1.64952">
        <ele>1518</ele>
        <time>2018-11-18T11:07:58.000Z</time>
      </trkpt>
      <trkpt lat="42.68386" lon="1.64952">
        <ele>1518</ele>
        <time>2018-11-18T11:08:00.000Z</time>
      </trkpt>
      <trkpt lat="42.68385" lon="1.64953">
        <ele>1518</ele>
        <time>2018-11-18T11:08:02.000Z</time>
      </trkpt>
      <trkpt lat="42.68383" lon="1.64954">
        <ele>1519</ele>
        <time>2018-11-18T11:08:04.000Z</time>
      </trkpt>
      <trkpt lat="42.68382" lon="1.64955">
        <ele>1519</ele>
        <time>2018-11-18T11:08:06.000Z</time>
      </trkpt>
      <trkpt lat="42.68381" lon="1.64956">
        <ele>1520</ele>
        <time>2018-11-18T11:08:08.000Z</time>
      </trkpt>
      <trkpt lat="42.68379" lon="1.64957">
        <ele>1520</ele>
        <time>2018-11-18T11:08:10.000Z</time>
      </trkpt>
      <trkpt lat="42.68377" lon="1.64957">
        <ele>1521</ele>
        <time>2018-11-18T11:08:12.000Z</time>
      </trkpt>
      <trkpt lat="42.68376" lon="1.64958">
        <ele>1521</ele>
        <time>2018-11-18T11:08:14.000Z</time>
      </trkpt>
      <trkpt lat="42.68374" lon="1.64958">
        <ele>1522</ele>
        <time>2018-11-18T11:08:16.000Z</time>
      </trkpt>
      <trkpt lat="42.68372" lon="1.64958">
        <ele>1522</ele>
        <time>2018-11-18T11:08:18.000Z</time>
      </trkpt>
      <trkpt lat="42.68371" lon="1.64958">
        <ele>1523</ele>
        <time>2018-11-18T11:08:20.000Z</time>
      </trkpt>
      <trkpt lat="42.6837" lon="1.64958">
        <ele>1523</ele>
        <time>2018-11-18T11:08:22.000Z</time>
      </trkpt>
      <trkpt lat="42.68369" lon="1.64958">
        <ele>1523</ele>
        <time>2018-11-18T11:08:24.000Z</time>
      </trkpt>
      <trkpt lat="42.68368" lon="1.64958">
        <ele>1524</ele>
        <time>2018-11-18T11:08:26.000Z</time>
      </trkpt>
      <trkpt lat="42.68368" lon="1.64957">
        <ele>1524</ele>
        <time>2018-11-18T11:08:28.000Z</time>
      </trkpt>
      <trkpt lat="42.68367" lon="1.64956">
        <ele>1524</ele>
        <time>2018-11-18T11:08:30.000Z</time>
      </trkpt>
      <trkpt lat="42.68366" lon="1.64956">
        <ele>1524</ele>
        <time>2018-11-18T11:08:32.000Z</time>
      </trkpt>
      <trkpt lat="42.68364" lon="1.64957">
        <ele>1525</ele>
        <time>2018-11-18T11:08:34.000Z</time>
      </trkpt>
      <trkpt lat="42.68363" lon="1.64957">
        <ele>1525</ele>
        <time>2018-11-18T11:08:36.000Z</time>
      </trkpt>
      <trkpt lat="42.68362" lon="1.64957">
        <ele>1525</ele>
        <time>2018-11-18T11:08:38.000Z</time>
      </trkpt>
      <trkpt lat="42.6836" lon="1.64956">
        <ele>1526</ele>
        <time>2018-11-18T11:08:40.000Z</time>
      </trkpt>
      <trkpt lat="42.68359" lon="1.64955">
        <ele>1526</ele>
        <time>2018-11-18T11:08:42.000Z</time>
      </trkpt>
      <trkpt lat="42.68359" lon="1.64954">
        <ele>1526</ele>
        <time>2018-11-18T11:08:44.000Z</time>
      </trkpt>
      <trkpt lat="42.68359" lon="1.64952">
        <ele>1526</ele>
        <time>2018-11-18T11:08:46.000Z</time>
      </trkpt>
      <trkpt lat="42.68358" lon="1.64951">
        <ele>1526</ele>
        <time>2018-11-18T11:08:48.000Z</time>
      </trkpt>
      <trkpt lat="42.68358" lon="1.64949">
        <ele>1526</ele>
        <time>2018-11-18T11:08:50.000Z</time>
      </trkpt>
      <trkpt lat="42.68358" lon="1.64947">
        <ele>1526</ele>
        <time>2018-11-18T11:08:52.000Z</time>
      </trkpt>
      <trkpt lat="42.68356" lon="1.64946">
        <ele>1526</ele>
        <time>2018-11-18T11:08:54.000Z</time>
      </trkpt>
      <trkpt lat="42.68355" lon="1.64945">
        <ele>1526</ele>
        <time>2018-11-18T11:08:56.000Z</time>
      </trkpt>
      <trkpt lat="42.68355" lon="1.64945">
        <ele>1526</ele>
        <time>2018-11-18T11:08:58.000Z</time>
      </trkpt>
      <trkpt lat="42.68354" lon="1.64943">
        <ele>1526</ele>
        <time>2018-11-18T11:09:00.000Z</time>
      </trkpt>
      <trkpt lat="42.68353" lon="1.64942">
        <ele>1527</ele>
        <time>2018-11-18T11:09:02.000Z</time>
      </trkpt>
      <trkpt lat="42.68351" lon="1.64941">
        <ele>1527</ele>
        <time>2018-11-18T11:09:04.000Z</time>
      </trkpt>
      <trkpt lat="42.68351" lon="1.64939">
        <ele>1527</ele>
        <time>2018-11-18T11:09:06.000Z</time>
      </trkpt>
      <trkpt lat="42.68349" lon="1.64938">
        <ele>1527</ele>
        <time>2018-11-18T11:09:08.000Z</time>
      </trkpt>
      <trkpt lat="42.68348" lon="1.64937">
        <ele>1528</ele>
        <time>2018-11-18T11:09:10.000Z</time>
      </trkpt>
      <trkpt lat="42.68347" lon="1.64936">
        <ele>1528</ele>
        <time>2018-11-18T11:09:12.000Z</time>
      </trkpt>
      <trkpt lat="42.68346" lon="1.64935">
        <ele>1528</ele>
        <time>2018-11-18T11:09:14.000Z</time>
      </trkpt>
      <trkpt lat="42.68345" lon="1.64933">
        <ele>1528</ele>
        <time>2018-11-18T11:09:16.000Z</time>
      </trkpt>
      <trkpt lat="42.68343" lon="1.64932">
        <ele>1529</ele>
        <time>2018-11-18T11:09:18.000Z</time>
      </trkpt>
      <trkpt lat="42.68342" lon="1.6493">
        <ele>1529</ele>
        <time>2018-11-18T11:09:20.000Z</time>
      </trkpt>
      <trkpt lat="42.68342" lon="1.64929">
        <ele>1529</ele>
        <time>2018-11-18T11:09:22.000Z</time>
      </trkpt>
      <trkpt lat="42.68341" lon="1.64927">
        <ele>1529</ele>
        <time>2018-11-18T11:09:24.000Z</time>
      </trkpt>
      <trkpt lat="42.6834" lon="1.64925">
        <ele>1529</ele>
        <time>2018-11-18T11:09:26.000Z</time>
      </trkpt>
      <trkpt lat="42.6834" lon="1.64923">
        <ele>1529</ele>
        <time>2018-11-18T11:09:28.000Z</time>
      </trkpt>
      <trkpt lat="42.68339" lon="1.64922">
        <ele>1529</ele>
        <time>2018-11-18T11:09:30.000Z</time>
      </trkpt>
      <trkpt lat="42.68338" lon="1.6492">
        <ele>1529</ele>
        <time>2018-11-18T11:09:32.000Z</time>
      </trkpt>
      <trkpt lat="42.68337" lon="1.64919">
        <ele>1529</ele>
        <time>2018-11-18T11:09:34.000Z</time>
      </trkpt>
      <trkpt lat="42.68336" lon="1.64917">
        <ele>1529</ele>
        <time>2018-11-18T11:09:36.000Z</time>
      </trkpt>
      <trkpt lat="42.68335" lon="1.64916">
        <ele>1529</ele>
        <time>2018-11-18T11:09:38.000Z</time>
      </trkpt>
      <trkpt lat="42.68334" lon="1.64914">
        <ele>1529</ele>
        <time>2018-11-18T11:09:40.000Z</time>
      </trkpt>
      <trkpt lat="42.68333" lon="1.64913">
        <ele>1530</ele>
        <time>2018-11-18T11:09:42.000Z</time>
      </trkpt>
      <trkpt lat="42.68332" lon="1.64913">
        <ele>1530</ele>
        <time>2018-11-18T11:09:44.000Z</time>
      </trkpt>
      <trkpt lat="42.68331" lon="1.64912">
        <ele>1530</ele>
        <time>2018-11-18T11:09:46.000Z</time>
      </trkpt>
      <trkpt lat="42.68329" lon="1.64912">
        <ele>1530</ele>
        <time>2018-11-18T11:09:48.000Z</time>
      </trkpt>
      <trkpt lat="42.68327" lon="1.64912">
        <ele>1531</ele>
        <time>2018-11-18T11:09:50.000Z</time>
      </trkpt>
      <trkpt lat="42.68326" lon="1.6491">
        <ele>1531</ele>
        <time>2018-11-18T11:09:52.000Z</time>
      </trkpt>
      <trkpt lat="42.68325" lon="1.64909">
        <ele>1531</ele>
        <time>2018-11-18T11:09:54.000Z</time>
      </trkpt>
      <trkpt lat="42.68325" lon="1.64907">
        <ele>1531</ele>
        <time>2018-11-18T11:09:56.000Z</time>
      </trkpt>
      <trkpt lat="42.68326" lon="1.64906">
        <ele>1531</ele>
        <time>2018-11-18T11:09:58.000Z</time>
      </trkpt>
      <trkpt lat="42.68325" lon="1.64905">
        <ele>1531</ele>
        <time>2018-11-18T11:10:00.000Z</time>
      </trkpt>
      <trkpt lat="42.68325" lon="1.64904">
        <ele>1531</ele>
        <time>2018-11-18T11:10:02.000Z</time>
      </trkpt>
      <trkpt lat="42.68325" lon="1.64901">
        <ele>1530</ele>
        <time>2018-11-18T11:10:04.000Z</time>
      </trkpt>
      <trkpt lat="42.68324" lon="1.649">
        <ele>1530</ele>
        <time>2018-11-18T11:10:06.000Z</time>
      </trkpt>
      <trkpt lat="42.68324" lon="1.64898">
        <ele>1530</ele>
        <time>2018-11-18T11:10:08.000Z</time>
      </trkpt>
      <trkpt lat="42.68323" lon="1.64896">
        <ele>1530</ele>
        <time>2018-11-18T11:10:10.000Z</time>
      </trkpt>
      <trkpt lat="42.68322" lon="1.64895">
        <ele>1530</ele>
        <time>2018-11-18T11:10:12.000Z</time>
      </trkpt>
      <trkpt lat="42.6832" lon="1.64894">
        <ele>1530</ele>
        <time>2018-11-18T11:10:14.000Z</time>
      </trkpt>
      <trkpt lat="42.6832" lon="1.64892">
        <ele>1530</ele>
        <time>2018-11-18T11:10:16.000Z</time>
      </trkpt>
      <trkpt lat="42.68319" lon="1.64891">
        <ele>1530</ele>
        <time>2018-11-18T11:10:18.000Z</time>
      </trkpt>
      <trkpt lat="42.68318" lon="1.64889">
        <ele>1530</ele>
        <time>2018-11-18T11:10:20.000Z</time>
      </trkpt>
      <trkpt lat="42.68317" lon="1.64887">
        <ele>1530</ele>
        <time>2018-11-18T11:10:22.000Z</time>
      </trkpt>
      <trkpt lat="42.68316" lon="1.64885">
        <ele>1530</ele>
        <time>2018-11-18T11:10:24.000Z</time>
      </trkpt>
      <trkpt lat="42.68314" lon="1.64884">
        <ele>1530</ele>
        <time>2018-11-18T11:10:26.000Z</time>
      </trkpt>
      <trkpt lat="42.68313" lon="1.64883">
        <ele>1530</ele>
        <time>2018-11-18T11:10:28.000Z</time>
      </trkpt>
      <trkpt lat="42.68311" lon="1.64882">
        <ele>1530</ele>
        <time>2018-11-18T11:10:30.000Z</time>
      </trkpt>
      <trkpt lat="42.68309" lon="1.64882">
        <ele>1531</ele>
        <time>2018-11-18T11:10:32.000Z</time>
      </trkpt>
      <trkpt lat="42.68308" lon="1.64882">
        <ele>1531</ele>
        <time>2018-11-18T11:10:34.000Z</time>
      </trkpt>
      <trkpt lat="42.68307" lon="1.64882">
        <ele>1531</ele>
        <time>2018-11-18T11:10:36.000Z</time>
      </trkpt>
      <trkpt lat="42.68305" lon="1.64882">
        <ele>1532</ele>
        <time>2018-11-18T11:10:38.000Z</time>
      </trkpt>
      <trkpt lat="42.68303" lon="1.64883">
        <ele>1532</ele>
        <time>2018-11-18T11:10:40.000Z</time>
      </trkpt>
      <trkpt lat="42.68302" lon="1.64883">
        <ele>1532</ele>
        <time>2018-11-18T11:10:42.000Z</time>
      </trkpt>
      <trkpt lat="42.68301" lon="1.64883">
        <ele>1533</ele>
        <time>2018-11-18T11:10:44.000Z</time>
      </trkpt>
      <trkpt lat="42.683" lon="1.64883">
        <ele>1533</ele>
        <time>2018-11-18T11:10:46.000Z</time>
      </trkpt>
      <trkpt lat="42.68298" lon="1.64883">
        <ele>1533</ele>
        <time>2018-11-18T11:10:48.000Z</time>
      </trkpt>
      <trkpt lat="42.68297" lon="1.64883">
        <ele>1534</ele>
        <time>2018-11-18T11:10:50.000Z</time>
      </trkpt>
      <trkpt lat="42.68295" lon="1.64884">
        <ele>1534</ele>
        <time>2018-11-18T11:10:52.000Z</time>
      </trkpt>
      <trkpt lat="42.68294" lon="1.64885">
        <ele>1534</ele>
        <time>2018-11-18T11:10:54.000Z</time>
      </trkpt>
      <trkpt lat="42.68293" lon="1.64886">
        <ele>1535</ele>
        <time>2018-11-18T11:10:56.000Z</time>
      </trkpt>
      <trkpt lat="42.68292" lon="1.64888">
        <ele>1535</ele>
        <time>2018-11-18T11:10:58.000Z</time>
      </trkpt>
      <trkpt lat="42.68291" lon="1.64889">
        <ele>1536</ele>
        <time>2018-11-18T11:11:00.000Z</time>
      </trkpt>
      <trkpt lat="42.6829" lon="1.64891">
        <ele>1536</ele>
        <time>2018-11-18T11:11:02.000Z</time>
      </trkpt>
      <trkpt lat="42.6829" lon="1.64893">
        <ele>1537</ele>
        <time>2018-11-18T11:11:04.000Z</time>
      </trkpt>
      <trkpt lat="42.68289" lon="1.64894">
        <ele>1537</ele>
        <time>2018-11-18T11:11:06.000Z</time>
      </trkpt>
      <trkpt lat="42.68289" lon="1.64895">
        <ele>1537</ele>
        <time>2018-11-18T11:11:08.000Z</time>
      </trkpt>
      <trkpt lat="42.68288" lon="1.64897">
        <ele>1538</ele>
        <time>2018-11-18T11:11:10.000Z</time>
      </trkpt>
      <trkpt lat="42.68288" lon="1.64898">
        <ele>1538</ele>
        <time>2018-11-18T11:11:12.000Z</time>
      </trkpt>
      <trkpt lat="42.68287" lon="1.64899">
        <ele>1538</ele>
        <time>2018-11-18T11:11:14.000Z</time>
      </trkpt>
      <trkpt lat="42.68286" lon="1.64901">
        <ele>1539</ele>
        <time>2018-11-18T11:11:16.000Z</time>
      </trkpt>
      <trkpt lat="42.68286" lon="1.64902">
        <ele>1539</ele>
        <time>2018-11-18T11:11:18.000Z</time>
      </trkpt>
      <trkpt lat="42.68285" lon="1.64903">
        <ele>1539</ele>
        <time>2018-11-18T11:11:20.000Z</time>
      </trkpt>
      <trkpt lat="42.68285" lon="1.64904">
        <ele>1539</ele>
        <time>2018-11-18T11:11:22.000Z</time>
      </trkpt>
      <trkpt lat="42.68284" lon="1.64905">
        <ele>1540</ele>
        <time>2018-11-18T11:11:24.000Z</time>
      </trkpt>
      <trkpt lat="42.68284" lon="1.64906">
        <ele>1540</ele>
        <time>2018-11-18T11:11:26.000Z</time>
      </trkpt>
      <trkpt lat="42.68283" lon="1.64907">
        <ele>1540</ele>
        <time>2018-11-18T11:11:28.000Z</time>
      </trkpt>
      <trkpt lat="42.68282" lon="1.64907">
        <ele>1540</ele>
        <time>2018-11-18T11:11:30.000Z</time>
      </trkpt>
      <trkpt lat="42.68281" lon="1.64907">
        <ele>1540</ele>
        <time>2018-11-18T11:11:32.000Z</time>
      </trkpt>
      <trkpt lat="42.6828" lon="1.64908">
        <ele>1541</ele>
        <time>2018-11-18T11:11:34.000Z</time>
      </trkpt>
      <trkpt lat="42.68279" lon="1.64907">
        <ele>1541</ele>
        <time>2018-11-18T11:11:36.000Z</time>
      </trkpt>
      <trkpt lat="42.68278" lon="1.64907">
        <ele>1541</ele>
        <time>2018-11-18T11:11:38.000Z</time>
      </trkpt>
      <trkpt lat="42.68277" lon="1.64907">
        <ele>1541</ele>
        <time>2018-11-18T11:11:40.000Z</time>
      </trkpt>
      <trkpt lat="42.68276" lon="1.64907">
        <ele>1541</ele>
        <time>2018-11-18T11:11:42.000Z</time>
      </trkpt>
      <trkpt lat="42.68275" lon="1.64907">
        <ele>1542</ele>
        <time>2018-11-18T11:11:44.000Z</time>
      </trkpt>
      <trkpt lat="42.68274" lon="1.64906">
        <ele>1542</ele>
        <time>2018-11-18T11:11:46.000Z</time>
      </trkpt>
      <trkpt lat="42.68273" lon="1.64906">
        <ele>1542</ele>
        <time>2018-11-18T11:11:48.000Z</time>
      </trkpt>
      <trkpt lat="42.68272" lon="1.64906">
        <ele>1542</ele>
        <time>2018-11-18T11:11:50.000Z</time>
      </trkpt>
      <trkpt lat="42.68271" lon="1.64907">
        <ele>1543</ele>
        <time>2018-11-18T11:11:52.000Z</time>
      </trkpt>
      <trkpt lat="42.68269" lon="1.64907">
        <ele>1543</ele>
        <time>2018-11-18T11:11:54.000Z</time>
      </trkpt>
      <trkpt lat="42.68268" lon="1.64907">
        <ele>1543</ele>
        <time>2018-11-18T11:11:56.000Z</time>
      </trkpt>
      <trkpt lat="42.68267" lon="1.64907">
        <ele>1543</ele>
        <time>2018-11-18T11:11:58.000Z</time>
      </trkpt>
      <trkpt lat="42.68266" lon="1.64906">
        <ele>1544</ele>
        <time>2018-11-18T11:12:00.000Z</time>
      </trkpt>
      <trkpt lat="42.68265" lon="1.64906">
        <ele>1544</ele>
        <time>2018-11-18T11:12:02.000Z</time>
      </trkpt>
      <trkpt lat="42.68263" lon="1.64906">
        <ele>1544</ele>
        <time>2018-11-18T11:12:04.000Z</time>
      </trkpt>
      <trkpt lat="42.68262" lon="1.64905">
        <ele>1544</ele>
        <time>2018-11-18T11:12:06.000Z</time>
      </trkpt>
      <trkpt lat="42.68261" lon="1.64905">
        <ele>1545</ele>
        <time>2018-11-18T11:12:08.000Z</time>
      </trkpt>
      <trkpt lat="42.6826" lon="1.64904">
        <ele>1545</ele>
        <time>2018-11-18T11:12:10.000Z</time>
      </trkpt>
      <trkpt lat="42.68259" lon="1.64904">
        <ele>1545</ele>
        <time>2018-11-18T11:12:12.000Z</time>
      </trkpt>
      <trkpt lat="42.68257" lon="1.64904">
        <ele>1545</ele>
        <time>2018-11-18T11:12:14.000Z</time>
      </trkpt>
      <trkpt lat="42.68256" lon="1.64905">
        <ele>1546</ele>
        <time>2018-11-18T11:12:16.000Z</time>
      </trkpt>
      <trkpt lat="42.68255" lon="1.64905">
        <ele>1546</ele>
        <time>2018-11-18T11:12:18.000Z</time>
      </trkpt>
      <trkpt lat="42.68254" lon="1.64906">
        <ele>1546</ele>
        <time>2018-11-18T11:12:20.000Z</time>
      </trkpt>
      <trkpt lat="42.68254" lon="1.64906">
        <ele>1546</ele>
        <time>2018-11-18T11:12:22.000Z</time>
      </trkpt>
      <trkpt lat="42.68254" lon="1.64906">
        <ele>1546</ele>
        <time>2018-11-18T11:12:24.000Z</time>
      </trkpt>
      <trkpt lat="42.68253" lon="1.64905">
        <ele>1546</ele>
        <time>2018-11-18T11:12:26.000Z</time>
      </trkpt>
      <trkpt lat="42.68253" lon="1.64905">
        <ele>1546</ele>
        <time>2018-11-18T11:12:28.000Z</time>
      </trkpt>
      <trkpt lat="42.68253" lon="1.64905">
        <ele>1547</ele>
        <time>2018-11-18T11:12:30.000Z</time>
      </trkpt>
      <trkpt lat="42.68252" lon="1.64904">
        <ele>1547</ele>
        <time>2018-11-18T11:12:32.000Z</time>
      </trkpt>
      <trkpt lat="42.68252" lon="1.64903">
        <ele>1547</ele>
        <time>2018-11-18T11:12:34.000Z</time>
      </trkpt>
      <trkpt lat="42.68251" lon="1.64903">
        <ele>1547</ele>
        <time>2018-11-18T11:12:36.000Z</time>
      </trkpt>
      <trkpt lat="42.68251" lon="1.64902">
        <ele>1547</ele>
        <time>2018-11-18T11:12:38.000Z</time>
      </trkpt>
      <trkpt lat="42.68251" lon="1.64901">
        <ele>1546</ele>
        <time>2018-11-18T11:12:40.000Z</time>
      </trkpt>
      <trkpt lat="42.68251" lon="1.64901">
        <ele>1546</ele>
        <time>2018-11-18T11:12:42.000Z</time>
      </trkpt>
      <trkpt lat="42.68251" lon="1.64901">
        <ele>1546</ele>
        <time>2018-11-18T11:12:44.000Z</time>
      </trkpt>
      <trkpt lat="42.68251" lon="1.649">
        <ele>1546</ele>
        <time>2018-11-18T11:12:46.000Z</time>
      </trkpt>
      <trkpt lat="42.68251" lon="1.649">
        <ele>1546</ele>
        <time>2018-11-18T11:12:48.000Z</time>
      </trkpt>
      <trkpt lat="42.68252" lon="1.649">
        <ele>1546</ele>
        <time>2018-11-18T11:12:50.000Z</time>
      </trkpt>
      <trkpt lat="42.68252" lon="1.649">
        <ele>1546</ele>
        <time>2018-11-18T11:12:52.000Z</time>
      </trkpt>
      <trkpt lat="42.68252" lon="1.649">
        <ele>1546</ele>
        <time>2018-11-18T11:12:54.000Z</time>
      </trkpt>
      <trkpt lat="42.68252" lon="1.649">
        <ele>1546</ele>
        <time>2018-11-18T11:12:56.000Z</time>
      </trkpt>
      <trkpt lat="42.68252" lon="1.64901">
        <ele>1546</ele>
        <time>2018-11-18T11:12:58.000Z</time>
      </trkpt>
      <trkpt lat="42.68252" lon="1.64901">
        <ele>1546</ele>
        <time>2018-11-18T11:13:00.000Z</time>
      </trkpt>
      <trkpt lat="42.68251" lon="1.649">
        <ele>1546</ele>
        <time>2018-11-18T11:13:02.000Z</time>
      </trkpt>
      <trkpt lat="42.68252" lon="1.649">
        <ele>1546</ele>
        <time>2018-11-18T11:13:04.000Z</time>
      </trkpt>
      <trkpt lat="42.68252" lon="1.649">
        <ele>1546</ele>
        <time>2018-11-18T11:13:06.000Z</time>
      </trkpt>
      <trkpt lat="42.68252" lon="1.64899">
        <ele>1546</ele>
        <time>2018-11-18T11:13:08.000Z</time>
      </trkpt>
      <trkpt lat="42.68253" lon="1.64899">
        <ele>1546</ele>
        <time>2018-11-18T11:13:10.000Z</time>
      </trkpt>
      <trkpt lat="42.68253" lon="1.64899">
        <ele>1546</ele>
        <time>2018-11-18T11:13:12.000Z</time>
      </trkpt>
      <trkpt lat="42.68253" lon="1.649">
        <ele>1546</ele>
        <time>2018-11-18T11:13:14.000Z</time>
      </trkpt>
      <trkpt lat="42.68253" lon="1.649">
        <ele>1546</ele>
        <time>2018-11-18T11:13:16.000Z</time>
      </trkpt>
      <trkpt lat="42.68253" lon="1.64901">
        <ele>1546</ele>
        <time>2018-11-18T11:13:18.000Z</time>
      </trkpt>
      <trkpt lat="42.68253" lon="1.64901">
        <ele>1546</ele>
        <time>2018-11-18T11:13:20.000Z</time>
      </trkpt>
      <trkpt lat="42.68253" lon="1.64901">
        <ele>1546</ele>
        <time>2018-11-18T11:13:22.000Z</time>
      </trkpt>
      <trkpt lat="42.68252" lon="1.64901">
        <ele>1546</ele>
        <time>2018-11-18T11:13:24.000Z</time>
      </trkpt>
      <trkpt lat="42.68252" lon="1.649">
        <ele>1546</ele>
        <time>2018-11-18T11:13:26.000Z</time>
      </trkpt>
      <trkpt lat="42.68252" lon="1.64899">
        <ele>1546</ele>
        <time>2018-11-18T11:13:28.000Z</time>
      </trkpt>
      <trkpt lat="42.68252" lon="1.64898">
        <ele>1546</ele>
        <time>2018-11-18T11:13:30.000Z</time>
      </trkpt>
      <trkpt lat="42.68252" lon="1.64898">
        <ele>1546</ele>
        <time>2018-11-18T11:13:32.000Z</time>
      </trkpt>
      <trkpt lat="42.68252" lon="1.64898">
        <ele>1546</ele>
        <time>2018-11-18T11:13:34.000Z</time>
      </trkpt>
      <trkpt lat="42.68252" lon="1.64898">
        <ele>1546</ele>
        <time>2018-11-18T11:13:36.000Z</time>
      </trkpt>
      <trkpt lat="42.68252" lon="1.64899">
        <ele>1546</ele>
        <time>2018-11-18T11:13:38.000Z</time>
      </trkpt>
      <trkpt lat="42.68252" lon="1.649">
        <ele>1546</ele>
        <time>2018-11-18T11:13:40.000Z</time>
      </trkpt>
      <trkpt lat="42.68252" lon="1.649">
        <ele>1546</ele>
        <time>2018-11-18T11:13:42.000Z</time>
      </trkpt>
      <trkpt lat="42.68252" lon="1.649">
        <ele>1546</ele>
        <time>2018-11-18T11:13:44.000Z</time>
      </trkpt>
      <trkpt lat="42.68252" lon="1.649">
        <ele>1546</ele>
        <time>2018-11-18T11:13:46.000Z</time>
      </trkpt>
      <trkpt lat="42.68252" lon="1.64899">
        <ele>1546</ele>
        <time>2018-11-18T11:13:48.000Z</time>
      </trkpt>
      <trkpt lat="42.68253" lon="1.64899">
        <ele>1546</ele>
        <time>2018-11-18T11:13:50.000Z</time>
      </trkpt>
      <trkpt lat="42.68253" lon="1.649">
        <ele>1546</ele>
        <time>2018-11-18T11:13:52.000Z</time>
      </trkpt>
      <trkpt lat="42.68254" lon="1.649">
        <ele>1545</ele>
        <time>2018-11-18T11:13:54.000Z</time>
      </trkpt>
      <trkpt lat="42.68254" lon="1.649">
        <ele>1545</ele>
        <time>2018-11-18T11:13:56.000Z</time>
      </trkpt>
      <trkpt lat="42.68254" lon="1.649">
        <ele>1545</ele>
        <time>2018-11-18T11:13:58.000Z</time>
      </trkpt>
      <trkpt lat="42.68254" lon="1.649">
        <ele>1545</ele>
        <time>2018-11-18T11:14:00.000Z</time>
      </trkpt>
      <trkpt lat="42.68254" lon="1.649">
        <ele>1545</ele>
        <time>2018-11-18T11:14:02.000Z</time>
      </trkpt>
      <trkpt lat="42.68254" lon="1.649">
        <ele>1545</ele>
        <time>2018-11-18T11:14:04.000Z</time>
      </trkpt>
      <trkpt lat="42.68255" lon="1.649">
        <ele>1545</ele>
        <time>2018-11-18T11:14:06.000Z</time>
      </trkpt>
      <trkpt lat="42.68255" lon="1.649">
        <ele>1545</ele>
        <time>2018-11-18T11:14:08.000Z</time>
      </trkpt>
      <trkpt lat="42.68255" lon="1.64899">
        <ele>1545</ele>
        <time>2018-11-18T11:14:10.000Z</time>
      </trkpt>
      <trkpt lat="42.68255" lon="1.64899">
        <ele>1545</ele>
        <time>2018-11-18T11:14:12.000Z</time>
      </trkpt>
      <trkpt lat="42.68256" lon="1.64899">
        <ele>1545</ele>
        <time>2018-11-18T11:14:14.000Z</time>
      </trkpt>
      <trkpt lat="42.68256" lon="1.64899">
        <ele>1545</ele>
        <time>2018-11-18T11:14:16.000Z</time>
      </trkpt>
      <trkpt lat="42.68256" lon="1.64899">
        <ele>1545</ele>
        <time>2018-11-18T11:14:18.000Z</time>
      </trkpt>
      <trkpt lat="42.68256" lon="1.64899">
        <ele>1545</ele>
        <time>2018-11-18T11:14:20.000Z</time>
      </trkpt>
      <trkpt lat="42.68255" lon="1.649">
        <ele>1545</ele>
        <time>2018-11-18T11:14:22.000Z</time>
      </trkpt>
      <trkpt lat="42.68255" lon="1.649">
        <ele>1545</ele>
        <time>2018-11-18T11:14:24.000Z</time>
      </trkpt>
      <trkpt lat="42.68255" lon="1.649">
        <ele>1545</ele>
        <time>2018-11-18T11:14:26.000Z</time>
      </trkpt>
      <trkpt lat="42.68255" lon="1.64901">
        <ele>1545</ele>
        <time>2018-11-18T11:14:28.000Z</time>
      </trkpt>
      <trkpt lat="42.68255" lon="1.64901">
        <ele>1545</ele>
        <time>2018-11-18T11:14:30.000Z</time>
      </trkpt>
      <trkpt lat="42.68255" lon="1.64901">
        <ele>1545</ele>
        <time>2018-11-18T11:14:32.000Z</time>
      </trkpt>
      <trkpt lat="42.68255" lon="1.64901">
        <ele>1545</ele>
        <time>2018-11-18T11:14:34.000Z</time>
      </trkpt>
      <trkpt lat="42.68254" lon="1.64901">
        <ele>1546</ele>
        <time>2018-11-18T11:14:36.000Z</time>
      </trkpt>
      <trkpt lat="42.68254" lon="1.64902">
        <ele>1546</ele>
        <time>2018-11-18T11:14:38.000Z</time>
      </trkpt>
      <trkpt lat="42.68254" lon="1.64902">
        <ele>1546</ele>
        <time>2018-11-18T11:14:40.000Z</time>
      </trkpt>
      <trkpt lat="42.68254" lon="1.64902">
        <ele>1546</ele>
        <time>2018-11-18T11:14:42.000Z</time>
      </trkpt>
      <trkpt lat="42.68254" lon="1.64902">
        <ele>1546</ele>
        <time>2018-11-18T11:14:44.000Z</time>
      </trkpt>
      <trkpt lat="42.68254" lon="1.64901">
        <ele>1546</ele>
        <time>2018-11-18T11:14:46.000Z</time>
      </trkpt>
      <trkpt lat="42.68254" lon="1.64901">
        <ele>1546</ele>
        <time>2018-11-18T11:14:48.000Z</time>
      </trkpt>
      <trkpt lat="42.68254" lon="1.64901">
        <ele>1546</ele>
        <time>2018-11-18T11:14:50.000Z</time>
      </trkpt>
      <trkpt lat="42.68254" lon="1.64902">
        <ele>1546</ele>
        <time>2018-11-18T11:14:52.000Z</time>
      </trkpt>
      <trkpt lat="42.68254" lon="1.64902">
        <ele>1546</ele>
        <time>2018-11-18T11:14:54.000Z</time>
      </trkpt>
      <trkpt lat="42.68254" lon="1.64902">
        <ele>1546</ele>
        <time>2018-11-18T11:14:56.000Z</time>
      </trkpt>
      <trkpt lat="42.68254" lon="1.64902">
        <ele>1546</ele>
        <time>2018-11-18T11:14:58.000Z</time>
      </trkpt>
      <trkpt lat="42.68254" lon="1.64902">
        <ele>1546</ele>
        <time>2018-11-18T11:15:00.000Z</time>
      </trkpt>
      <trkpt lat="42.68254" lon="1.64902">
        <ele>1546</ele>
        <time>2018-11-18T11:15:02.000Z</time>
      </trkpt>
      <trkpt lat="42.68254" lon="1.64902">
        <ele>1546</ele>
        <time>2018-11-18T11:15:04.000Z</time>
      </trkpt>
      <trkpt lat="42.68254" lon="1.64901">
        <ele>1546</ele>
        <time>2018-11-18T11:15:06.000Z</time>
      </trkpt>
      <trkpt lat="42.68254" lon="1.64901">
        <ele>1546</ele>
        <time>2018-11-18T11:15:08.000Z</time>
      </trkpt>
      <trkpt lat="42.68254" lon="1.64901">
        <ele>1546</ele>
        <time>2018-11-18T11:15:10.000Z</time>
      </trkpt>
      <trkpt lat="42.68254" lon="1.64901">
        <ele>1546</ele>
        <time>2018-11-18T11:15:12.000Z</time>
      </trkpt>
      <trkpt lat="42.68255" lon="1.64901">
        <ele>1545</ele>
        <time>2018-11-18T11:15:14.000Z</time>
      </trkpt>
      <trkpt lat="42.68254" lon="1.64901">
        <ele>1545</ele>
        <time>2018-11-18T11:15:16.000Z</time>
      </trkpt>
      <trkpt lat="42.68254" lon="1.64901">
        <ele>1545</ele>
        <time>2018-11-18T11:15:18.000Z</time>
      </trkpt>
      <trkpt lat="42.68254" lon="1.64901">
        <ele>1545</ele>
        <time>2018-11-18T11:15:20.000Z</time>
      </trkpt>
      <trkpt lat="42.68254" lon="1.64901">
        <ele>1546</ele>
        <time>2018-11-18T11:15:22.000Z</time>
      </trkpt>
      <trkpt lat="42.68254" lon="1.64901">
        <ele>1546</ele>
        <time>2018-11-18T11:15:24.000Z</time>
      </trkpt>
      <trkpt lat="42.68254" lon="1.64901">
        <ele>1546</ele>
        <time>2018-11-18T11:15:26.000Z</time>
      </trkpt>
      <trkpt lat="42.68254" lon="1.64901">
        <ele>1546</ele>
        <time>2018-11-18T11:15:28.000Z</time>
      </trkpt>
      <trkpt lat="42.68253" lon="1.64902">
        <ele>1546</ele>
        <time>2018-11-18T11:15:30.000Z</time>
      </trkpt>
      <trkpt lat="42.68253" lon="1.64902">
        <ele>1546</ele>
        <time>2018-11-18T11:15:32.000Z</time>
      </trkpt>
      <trkpt lat="42.68253" lon="1.64904">
        <ele>1546</ele>
        <time>2018-11-18T11:15:34.000Z</time>
      </trkpt>
      <trkpt lat="42.68252" lon="1.64906">
        <ele>1547</ele>
        <time>2018-11-18T11:15:36.000Z</time>
      </trkpt>
      <trkpt lat="42.68251" lon="1.64907">
        <ele>1547</ele>
        <time>2018-11-18T11:15:38.000Z</time>
      </trkpt>
      <trkpt lat="42.68252" lon="1.64909">
        <ele>1548</ele>
        <time>2018-11-18T11:15:40.000Z</time>
      </trkpt>
      <trkpt lat="42.68252" lon="1.64911">
        <ele>1548</ele>
        <time>2018-11-18T11:15:42.000Z</time>
      </trkpt>
      <trkpt lat="42.68253" lon="1.64912">
        <ele>1548</ele>
        <time>2018-11-18T11:15:44.000Z</time>
      </trkpt>
      <trkpt lat="42.68255" lon="1.64913">
        <ele>1547</ele>
        <time>2018-11-18T11:15:46.000Z</time>
      </trkpt>
      <trkpt lat="42.68256" lon="1.64914">
        <ele>1547</ele>
        <time>2018-11-18T11:15:48.000Z</time>
      </trkpt>
      <trkpt lat="42.68258" lon="1.64915">
        <ele>1547</ele>
        <time>2018-11-18T11:15:50.000Z</time>
      </trkpt>
      <trkpt lat="42.68259" lon="1.64917">
        <ele>1547</ele>
        <time>2018-11-18T11:15:52.000Z</time>
      </trkpt>
      <trkpt lat="42.6826" lon="1.64918">
        <ele>1547</ele>
        <time>2018-11-18T11:15:54.000Z</time>
      </trkpt>
      <trkpt lat="42.68261" lon="1.64919">
        <ele>1546</ele>
        <time>2018-11-18T11:15:56.000Z</time>
      </trkpt>
      <trkpt lat="42.68261" lon="1.64921">
        <ele>1547</ele>
        <time>2018-11-18T11:15:58.000Z</time>
      </trkpt>
      <trkpt lat="42.68262" lon="1.64922">
        <ele>1547</ele>
        <time>2018-11-18T11:16:00.000Z</time>
      </trkpt>
      <trkpt lat="42.68263" lon="1.64924">
        <ele>1547</ele>
        <time>2018-11-18T11:16:02.000Z</time>
      </trkpt>
      <trkpt lat="42.68264" lon="1.64926">
        <ele>1547</ele>
        <time>2018-11-18T11:16:04.000Z</time>
      </trkpt>
      <trkpt lat="42.68265" lon="1.64927">
        <ele>1546</ele>
        <time>2018-11-18T11:16:06.000Z</time>
      </trkpt>
      <trkpt lat="42.68266" lon="1.64929">
        <ele>1546</ele>
        <time>2018-11-18T11:16:08.000Z</time>
      </trkpt>
      <trkpt lat="42.68267" lon="1.64931">
        <ele>1547</ele>
        <time>2018-11-18T11:16:10.000Z</time>
      </trkpt>
      <trkpt lat="42.68268" lon="1.64932">
        <ele>1547</ele>
        <time>2018-11-18T11:16:12.000Z</time>
      </trkpt>
      <trkpt lat="42.68268" lon="1.64934">
        <ele>1547</ele>
        <time>2018-11-18T11:16:14.000Z</time>
      </trkpt>
      <trkpt lat="42.68269" lon="1.64935">
        <ele>1547</ele>
        <time>2018-11-18T11:16:16.000Z</time>
      </trkpt>
      <trkpt lat="42.6827" lon="1.64936">
        <ele>1547</ele>
        <time>2018-11-18T11:16:18.000Z</time>
      </trkpt>
      <trkpt lat="42.68271" lon="1.64938">
        <ele>1547</ele>
        <time>2018-11-18T11:16:20.000Z</time>
      </trkpt>
      <trkpt lat="42.68272" lon="1.64939">
        <ele>1547</ele>
        <time>2018-11-18T11:16:22.000Z</time>
      </trkpt>
      <trkpt lat="42.68272" lon="1.64941">
        <ele>1547</ele>
        <time>2018-11-18T11:16:24.000Z</time>
      </trkpt>
      <trkpt lat="42.68272" lon="1.64942">
        <ele>1547</ele>
        <time>2018-11-18T11:16:26.000Z</time>
      </trkpt>
      <trkpt lat="42.68272" lon="1.64944">
        <ele>1547</ele>
        <time>2018-11-18T11:16:28.000Z</time>
      </trkpt>
      <trkpt lat="42.68273" lon="1.64945">
        <ele>1547</ele>
        <time>2018-11-18T11:16:30.000Z</time>
      </trkpt>
      <trkpt lat="42.68274" lon="1.64945">
        <ele>1547</ele>
        <time>2018-11-18T11:16:32.000Z</time>
      </trkpt>
      <trkpt lat="42.68275" lon="1.64946">
        <ele>1547</ele>
        <time>2018-11-18T11:16:34.000Z</time>
      </trkpt>
      <trkpt lat="42.68275" lon="1.64948">
        <ele>1547</ele>
        <time>2018-11-18T11:16:36.000Z</time>
      </trkpt>
      <trkpt lat="42.68276" lon="1.64948">
        <ele>1547</ele>
        <time>2018-11-18T11:16:38.000Z</time>
      </trkpt>
      <trkpt lat="42.68277" lon="1.64949">
        <ele>1547</ele>
        <time>2018-11-18T11:16:40.000Z</time>
      </trkpt>
      <trkpt lat="42.68278" lon="1.6495">
        <ele>1546</ele>
        <time>2018-11-18T11:16:42.000Z</time>
      </trkpt>
      <trkpt lat="42.68279" lon="1.6495">
        <ele>1546</ele>
        <time>2018-11-18T11:16:44.000Z</time>
      </trkpt>
      <trkpt lat="42.6828" lon="1.64951">
        <ele>1546</ele>
        <time>2018-11-18T11:16:46.000Z</time>
      </trkpt>
      <trkpt lat="42.6828" lon="1.64952">
        <ele>1546</ele>
        <time>2018-11-18T11:16:48.000Z</time>
      </trkpt>
      <trkpt lat="42.68281" lon="1.64953">
        <ele>1546</ele>
        <time>2018-11-18T11:16:50.000Z</time>
      </trkpt>
      <trkpt lat="42.68281" lon="1.64954">
        <ele>1546</ele>
        <time>2018-11-18T11:16:52.000Z</time>
      </trkpt>
      <trkpt lat="42.68281" lon="1.64955">
        <ele>1547</ele>
        <time>2018-11-18T11:16:54.000Z</time>
      </trkpt>
      <trkpt lat="42.68281" lon="1.64957">
        <ele>1547</ele>
        <time>2018-11-18T11:16:56.000Z</time>
      </trkpt>
      <trkpt lat="42.6828" lon="1.64958">
        <ele>1547</ele>
        <time>2018-11-18T11:16:58.000Z</time>
      </trkpt>
      <trkpt lat="42.68279" lon="1.64959">
        <ele>1548</ele>
        <time>2018-11-18T11:17:00.000Z</time>
      </trkpt>
      <trkpt lat="42.68279" lon="1.6496">
        <ele>1548</ele>
        <time>2018-11-18T11:17:02.000Z</time>
      </trkpt>
      <trkpt lat="42.68278" lon="1.64961">
        <ele>1549</ele>
        <time>2018-11-18T11:17:04.000Z</time>
      </trkpt>
      <trkpt lat="42.68277" lon="1.64962">
        <ele>1549</ele>
        <time>2018-11-18T11:17:06.000Z</time>
      </trkpt>
      <trkpt lat="42.68275" lon="1.64962">
        <ele>1550</ele>
        <time>2018-11-18T11:17:08.000Z</time>
      </trkpt>
      <trkpt lat="42.68274" lon="1.64962">
        <ele>1550</ele>
        <time>2018-11-18T11:17:10.000Z</time>
      </trkpt>
      <trkpt lat="42.68273" lon="1.64962">
        <ele>1550</ele>
        <time>2018-11-18T11:17:12.000Z</time>
      </trkpt>
      <trkpt lat="42.68272" lon="1.64962">
        <ele>1550</ele>
        <time>2018-11-18T11:17:14.000Z</time>
      </trkpt>
      <trkpt lat="42.68271" lon="1.64961">
        <ele>1550</ele>
        <time>2018-11-18T11:17:16.000Z</time>
      </trkpt>
      <trkpt lat="42.6827" lon="1.64961">
        <ele>1551</ele>
        <time>2018-11-18T11:17:18.000Z</time>
      </trkpt>
      <trkpt lat="42.6827" lon="1.64962">
        <ele>1551</ele>
        <time>2018-11-18T11:17:20.000Z</time>
      </trkpt>
      <trkpt lat="42.68269" lon="1.64962">
        <ele>1551</ele>
        <time>2018-11-18T11:17:22.000Z</time>
      </trkpt>
      <trkpt lat="42.68267" lon="1.64961">
        <ele>1552</ele>
        <time>2018-11-18T11:17:24.000Z</time>
      </trkpt>
      <trkpt lat="42.68266" lon="1.64961">
        <ele>1552</ele>
        <time>2018-11-18T11:17:26.000Z</time>
      </trkpt>
      <trkpt lat="42.68264" lon="1.64961">
        <ele>1553</ele>
        <time>2018-11-18T11:17:28.000Z</time>
      </trkpt>
      <trkpt lat="42.68262" lon="1.64962">
        <ele>1553</ele>
        <time>2018-11-18T11:17:30.000Z</time>
      </trkpt>
      <trkpt lat="42.6826" lon="1.64962">
        <ele>1554</ele>
        <time>2018-11-18T11:17:32.000Z</time>
      </trkpt>
      <trkpt lat="42.68258" lon="1.64962">
        <ele>1555</ele>
        <time>2018-11-18T11:17:34.000Z</time>
      </trkpt>
      <trkpt lat="42.68256" lon="1.64961">
        <ele>1555</ele>
        <time>2018-11-18T11:17:36.000Z</time>
      </trkpt>
      <trkpt lat="42.68255" lon="1.6496">
        <ele>1555</ele>
        <time>2018-11-18T11:17:38.000Z</time>
      </trkpt>
      <trkpt lat="42.68253" lon="1.64959">
        <ele>1555</ele>
        <time>2018-11-18T11:17:40.000Z</time>
      </trkpt>
      <trkpt lat="42.68252" lon="1.64958">
        <ele>1556</ele>
        <time>2018-11-18T11:17:42.000Z</time>
      </trkpt>
      <trkpt lat="42.68251" lon="1.64958">
        <ele>1556</ele>
        <time>2018-11-18T11:17:44.000Z</time>
      </trkpt>
      <trkpt lat="42.6825" lon="1.64957">
        <ele>1556</ele>
        <time>2018-11-18T11:17:46.000Z</time>
      </trkpt>
      <trkpt lat="42.68248" lon="1.64957">
        <ele>1557</ele>
        <time>2018-11-18T11:17:48.000Z</time>
      </trkpt>
      <trkpt lat="42.68247" lon="1.64957">
        <ele>1557</ele>
        <time>2018-11-18T11:17:50.000Z</time>
      </trkpt>
      <trkpt lat="42.68245" lon="1.64957">
        <ele>1557</ele>
        <time>2018-11-18T11:17:52.000Z</time>
      </trkpt>
      <trkpt lat="42.68244" lon="1.64956">
        <ele>1558</ele>
        <time>2018-11-18T11:17:54.000Z</time>
      </trkpt>
      <trkpt lat="42.68243" lon="1.64957">
        <ele>1558</ele>
        <time>2018-11-18T11:17:56.000Z</time>
      </trkpt>
      <trkpt lat="42.68241" lon="1.64957">
        <ele>1559</ele>
        <time>2018-11-18T11:17:58.000Z</time>
      </trkpt>
      <trkpt lat="42.6824" lon="1.64956">
        <ele>1559</ele>
        <time>2018-11-18T11:18:00.000Z</time>
      </trkpt>
      <trkpt lat="42.68239" lon="1.64957">
        <ele>1559</ele>
        <time>2018-11-18T11:18:02.000Z</time>
      </trkpt>
      <trkpt lat="42.68236" lon="1.64957">
        <ele>1560</ele>
        <time>2018-11-18T11:18:04.000Z</time>
      </trkpt>
      <trkpt lat="42.68234" lon="1.64956">
        <ele>1561</ele>
        <time>2018-11-18T11:18:06.000Z</time>
      </trkpt>
      <trkpt lat="42.68233" lon="1.64955">
        <ele>1561</ele>
        <time>2018-11-18T11:18:08.000Z</time>
      </trkpt>
      <trkpt lat="42.68231" lon="1.64955">
        <ele>1561</ele>
        <time>2018-11-18T11:18:10.000Z</time>
      </trkpt>
      <trkpt lat="42.68229" lon="1.64955">
        <ele>1562</ele>
        <time>2018-11-18T11:18:12.000Z</time>
      </trkpt>
      <trkpt lat="42.68227" lon="1.64954">
        <ele>1563</ele>
        <time>2018-11-18T11:18:14.000Z</time>
      </trkpt>
      <trkpt lat="42.68224" lon="1.64953">
        <ele>1563</ele>
        <time>2018-11-18T11:18:16.000Z</time>
      </trkpt>
      <trkpt lat="42.68223" lon="1.64953">
        <ele>1564</ele>
        <time>2018-11-18T11:18:18.000Z</time>
      </trkpt>
      <trkpt lat="42.68221" lon="1.64952">
        <ele>1564</ele>
        <time>2018-11-18T11:18:20.000Z</time>
      </trkpt>
      <trkpt lat="42.68219" lon="1.64951">
        <ele>1564</ele>
        <time>2018-11-18T11:18:22.000Z</time>
      </trkpt>
      <trkpt lat="42.68217" lon="1.6495">
        <ele>1565</ele>
        <time>2018-11-18T11:18:24.000Z</time>
      </trkpt>
      <trkpt lat="42.68215" lon="1.64949">
        <ele>1565</ele>
        <time>2018-11-18T11:18:26.000Z</time>
      </trkpt>
      <trkpt lat="42.68214" lon="1.64947">
        <ele>1565</ele>
        <time>2018-11-18T11:18:28.000Z</time>
      </trkpt>
      <trkpt lat="42.68213" lon="1.64945">
        <ele>1565</ele>
        <time>2018-11-18T11:18:30.000Z</time>
      </trkpt>
      <trkpt lat="42.68212" lon="1.64943">
        <ele>1565</ele>
        <time>2018-11-18T11:18:32.000Z</time>
      </trkpt>
      <trkpt lat="42.68212" lon="1.6494">
        <ele>1565</ele>
        <time>2018-11-18T11:18:34.000Z</time>
      </trkpt>
      <trkpt lat="42.68212" lon="1.64938">
        <ele>1564</ele>
        <time>2018-11-18T11:18:36.000Z</time>
      </trkpt>
      <trkpt lat="42.68211" lon="1.64935">
        <ele>1564</ele>
        <time>2018-11-18T11:18:38.000Z</time>
      </trkpt>
      <trkpt lat="42.68211" lon="1.64933">
        <ele>1564</ele>
        <time>2018-11-18T11:18:40.000Z</time>
      </trkpt>
      <trkpt lat="42.68211" lon="1.6493">
        <ele>1563</ele>
        <time>2018-11-18T11:18:42.000Z</time>
      </trkpt>
      <trkpt lat="42.6821" lon="1.64928">
        <ele>1563</ele>
        <time>2018-11-18T11:18:44.000Z</time>
      </trkpt>
      <trkpt lat="42.68209" lon="1.64926">
        <ele>1563</ele>
        <time>2018-11-18T11:18:46.000Z</time>
      </trkpt>
      <trkpt lat="42.68208" lon="1.64924">
        <ele>1563</ele>
        <time>2018-11-18T11:18:48.000Z</time>
      </trkpt>
      <trkpt lat="42.68208" lon="1.64921">
        <ele>1563</ele>
        <time>2018-11-18T11:18:50.000Z</time>
      </trkpt>
      <trkpt lat="42.68207" lon="1.64919">
        <ele>1563</ele>
        <time>2018-11-18T11:18:52.000Z</time>
      </trkpt>
      <trkpt lat="42.68206" lon="1.64917">
        <ele>1563</ele>
        <time>2018-11-18T11:18:54.000Z</time>
      </trkpt>
      <trkpt lat="42.68205" lon="1.64914">
        <ele>1562</ele>
        <time>2018-11-18T11:18:56.000Z</time>
      </trkpt>
      <trkpt lat="42.68204" lon="1.64912">
        <ele>1562</ele>
        <time>2018-11-18T11:18:58.000Z</time>
      </trkpt>
      <trkpt lat="42.68204" lon="1.64909">
        <ele>1562</ele>
        <time>2018-11-18T11:19:00.000Z</time>
      </trkpt>
      <trkpt lat="42.68203" lon="1.64907">
        <ele>1562</ele>
        <time>2018-11-18T11:19:02.000Z</time>
      </trkpt>
      <trkpt lat="42.68203" lon="1.64904">
        <ele>1561</ele>
        <time>2018-11-18T11:19:04.000Z</time>
      </trkpt>
      <trkpt lat="42.68203" lon="1.64901">
        <ele>1561</ele>
        <time>2018-11-18T11:19:06.000Z</time>
      </trkpt>
      <trkpt lat="42.68201" lon="1.64899">
        <ele>1561</ele>
        <time>2018-11-18T11:19:08.000Z</time>
      </trkpt>
      <trkpt lat="42.682" lon="1.64897">
        <ele>1561</ele>
        <time>2018-11-18T11:19:10.000Z</time>
      </trkpt>
      <trkpt lat="42.68199" lon="1.64894">
        <ele>1561</ele>
        <time>2018-11-18T11:19:12.000Z</time>
      </trkpt>
      <trkpt lat="42.68198" lon="1.64892">
        <ele>1561</ele>
        <time>2018-11-18T11:19:14.000Z</time>
      </trkpt>
      <trkpt lat="42.68197" lon="1.6489">
        <ele>1561</ele>
        <time>2018-11-18T11:19:16.000Z</time>
      </trkpt>
      <trkpt lat="42.68196" lon="1.64888">
        <ele>1562</ele>
        <time>2018-11-18T11:19:18.000Z</time>
      </trkpt>
      <trkpt lat="42.68194" lon="1.64886">
        <ele>1562</ele>
        <time>2018-11-18T11:19:20.000Z</time>
      </trkpt>
      <trkpt lat="42.68193" lon="1.64883">
        <ele>1562</ele>
        <time>2018-11-18T11:19:22.000Z</time>
      </trkpt>
      <trkpt lat="42.68192" lon="1.64881">
        <ele>1562</ele>
        <time>2018-11-18T11:19:24.000Z</time>
      </trkpt>
      <trkpt lat="42.6819" lon="1.6488">
        <ele>1562</ele>
        <time>2018-11-18T11:19:26.000Z</time>
      </trkpt>
      <trkpt lat="42.68189" lon="1.64878">
        <ele>1562</ele>
        <time>2018-11-18T11:19:28.000Z</time>
      </trkpt>
      <trkpt lat="42.68187" lon="1.64876">
        <ele>1563</ele>
        <time>2018-11-18T11:19:30.000Z</time>
      </trkpt>
      <trkpt lat="42.68186" lon="1.64875">
        <ele>1563</ele>
        <time>2018-11-18T11:19:32.000Z</time>
      </trkpt>
      <trkpt lat="42.68184" lon="1.64873">
        <ele>1563</ele>
        <time>2018-11-18T11:19:34.000Z</time>
      </trkpt>
      <trkpt lat="42.68183" lon="1.64871">
        <ele>1563</ele>
        <time>2018-11-18T11:19:36.000Z</time>
      </trkpt>
      <trkpt lat="42.68183" lon="1.64869">
        <ele>1563</ele>
        <time>2018-11-18T11:19:38.000Z</time>
      </trkpt>
      <trkpt lat="42.68181" lon="1.64867">
        <ele>1563</ele>
        <time>2018-11-18T11:19:40.000Z</time>
      </trkpt>
      <trkpt lat="42.6818" lon="1.64865">
        <ele>1563</ele>
        <time>2018-11-18T11:19:42.000Z</time>
      </trkpt>
      <trkpt lat="42.68178" lon="1.64863">
        <ele>1564</ele>
        <time>2018-11-18T11:19:44.000Z</time>
      </trkpt>
      <trkpt lat="42.68177" lon="1.64861">
        <ele>1564</ele>
        <time>2018-11-18T11:19:46.000Z</time>
      </trkpt>
      <trkpt lat="42.68176" lon="1.64859">
        <ele>1564</ele>
        <time>2018-11-18T11:19:48.000Z</time>
      </trkpt>
      <trkpt lat="42.68175" lon="1.64856">
        <ele>1564</ele>
        <time>2018-11-18T11:19:50.000Z</time>
      </trkpt>
      <trkpt lat="42.68173" lon="1.64855">
        <ele>1564</ele>
        <time>2018-11-18T11:19:52.000Z</time>
      </trkpt>
      <trkpt lat="42.68173" lon="1.64853">
        <ele>1564</ele>
        <time>2018-11-18T11:19:54.000Z</time>
      </trkpt>
      <trkpt lat="42.68172" lon="1.6485">
        <ele>1564</ele>
        <time>2018-11-18T11:19:56.000Z</time>
      </trkpt>
      <trkpt lat="42.68171" lon="1.64848">
        <ele>1564</ele>
        <time>2018-11-18T11:19:58.000Z</time>
      </trkpt>
      <trkpt lat="42.6817" lon="1.64846">
        <ele>1564</ele>
        <time>2018-11-18T11:20:00.000Z</time>
      </trkpt>
      <trkpt lat="42.68169" lon="1.64844">
        <ele>1564</ele>
        <time>2018-11-18T11:20:02.000Z</time>
      </trkpt>
      <trkpt lat="42.68168" lon="1.64842">
        <ele>1564</ele>
        <time>2018-11-18T11:20:04.000Z</time>
      </trkpt>
      <trkpt lat="42.68166" lon="1.6484">
        <ele>1564</ele>
        <time>2018-11-18T11:20:06.000Z</time>
      </trkpt>
      <trkpt lat="42.68165" lon="1.64839">
        <ele>1564</ele>
        <time>2018-11-18T11:20:08.000Z</time>
      </trkpt>
      <trkpt lat="42.68164" lon="1.64837">
        <ele>1564</ele>
        <time>2018-11-18T11:20:10.000Z</time>
      </trkpt>
      <trkpt lat="42.68162" lon="1.64835">
        <ele>1564</ele>
        <time>2018-11-18T11:20:12.000Z</time>
      </trkpt>
      <trkpt lat="42.68161" lon="1.64833">
        <ele>1565</ele>
        <time>2018-11-18T11:20:14.000Z</time>
      </trkpt>
      <trkpt lat="42.68159" lon="1.64831">
        <ele>1565</ele>
        <time>2018-11-18T11:20:16.000Z</time>
      </trkpt>
      <trkpt lat="42.68158" lon="1.6483">
        <ele>1565</ele>
        <time>2018-11-18T11:20:18.000Z</time>
      </trkpt>
      <trkpt lat="42.68157" lon="1.64827">
        <ele>1565</ele>
        <time>2018-11-18T11:20:20.000Z</time>
      </trkpt>
      <trkpt lat="42.68157" lon="1.64825">
        <ele>1564</ele>
        <time>2018-11-18T11:20:22.000Z</time>
      </trkpt>
      <trkpt lat="42.68156" lon="1.64823">
        <ele>1564</ele>
        <time>2018-11-18T11:20:24.000Z</time>
      </trkpt>
      <trkpt lat="42.68154" lon="1.64821">
        <ele>1565</ele>
        <time>2018-11-18T11:20:26.000Z</time>
      </trkpt>
      <trkpt lat="42.68153" lon="1.64819">
        <ele>1564</ele>
        <time>2018-11-18T11:20:28.000Z</time>
      </trkpt>
      <trkpt lat="42.68153" lon="1.64816">
        <ele>1564</ele>
        <time>2018-11-18T11:20:30.000Z</time>
      </trkpt>
      <trkpt lat="42.68152" lon="1.64814">
        <ele>1564</ele>
        <time>2018-11-18T11:20:32.000Z</time>
      </trkpt>
      <trkpt lat="42.68151" lon="1.64811">
        <ele>1563</ele>
        <time>2018-11-18T11:20:34.000Z</time>
      </trkpt>
      <trkpt lat="42.6815" lon="1.64809">
        <ele>1563</ele>
        <time>2018-11-18T11:20:36.000Z</time>
      </trkpt>
      <trkpt lat="42.68149" lon="1.64807">
        <ele>1563</ele>
        <time>2018-11-18T11:20:38.000Z</time>
      </trkpt>
      <trkpt lat="42.68148" lon="1.64805">
        <ele>1563</ele>
        <time>2018-11-18T11:20:40.000Z</time>
      </trkpt>
      <trkpt lat="42.68147" lon="1.64804">
        <ele>1563</ele>
        <time>2018-11-18T11:20:42.000Z</time>
      </trkpt>
      <trkpt lat="42.68147" lon="1.64801">
        <ele>1562</ele>
        <time>2018-11-18T11:20:44.000Z</time>
      </trkpt>
      <trkpt lat="42.68147" lon="1.64799">
        <ele>1562</ele>
        <time>2018-11-18T11:20:46.000Z</time>
      </trkpt>
      <trkpt lat="42.68146" lon="1.64797">
        <ele>1562</ele>
        <time>2018-11-18T11:20:48.000Z</time>
      </trkpt>
      <trkpt lat="42.68146" lon="1.64795">
        <ele>1561</ele>
        <time>2018-11-18T11:20:50.000Z</time>
      </trkpt>
      <trkpt lat="42.68145" lon="1.64792">
        <ele>1561</ele>
        <time>2018-11-18T11:20:52.000Z</time>
      </trkpt>
      <trkpt lat="42.68144" lon="1.6479">
        <ele>1561</ele>
        <time>2018-11-18T11:20:54.000Z</time>
      </trkpt>
      <trkpt lat="42.68144" lon="1.64787">
        <ele>1560</ele>
        <time>2018-11-18T11:20:56.000Z</time>
      </trkpt>
      <trkpt lat="42.68143" lon="1.64785">
        <ele>1560</ele>
        <time>2018-11-18T11:20:58.000Z</time>
      </trkpt>
      <trkpt lat="42.68142" lon="1.64783">
        <ele>1560</ele>
        <time>2018-11-18T11:21:00.000Z</time>
      </trkpt>
      <trkpt lat="42.6814" lon="1.64781">
        <ele>1560</ele>
        <time>2018-11-18T11:21:02.000Z</time>
      </trkpt>
      <trkpt lat="42.68139" lon="1.64779">
        <ele>1560</ele>
        <time>2018-11-18T11:21:04.000Z</time>
      </trkpt>
      <trkpt lat="42.68138" lon="1.64778">
        <ele>1560</ele>
        <time>2018-11-18T11:21:06.000Z</time>
      </trkpt>
      <trkpt lat="42.68137" lon="1.64776">
        <ele>1560</ele>
        <time>2018-11-18T11:21:08.000Z</time>
      </trkpt>
      <trkpt lat="42.68136" lon="1.64775">
        <ele>1560</ele>
        <time>2018-11-18T11:21:10.000Z</time>
      </trkpt>
      <trkpt lat="42.68135" lon="1.64774">
        <ele>1560</ele>
        <time>2018-11-18T11:21:12.000Z</time>
      </trkpt>
      <trkpt lat="42.68135" lon="1.64774">
        <ele>1560</ele>
        <time>2018-11-18T11:21:14.000Z</time>
      </trkpt>
      <trkpt lat="42.68134" lon="1.64773">
        <ele>1560</ele>
        <time>2018-11-18T11:21:16.000Z</time>
      </trkpt>
      <trkpt lat="42.68134" lon="1.64771">
        <ele>1560</ele>
        <time>2018-11-18T11:21:18.000Z</time>
      </trkpt>
      <trkpt lat="42.68133" lon="1.64771">
        <ele>1560</ele>
        <time>2018-11-18T11:21:20.000Z</time>
      </trkpt>
      <trkpt lat="42.68132" lon="1.64771">
        <ele>1560</ele>
        <time>2018-11-18T11:21:22.000Z</time>
      </trkpt>
      <trkpt lat="42.6813" lon="1.6477">
        <ele>1560</ele>
        <time>2018-11-18T11:21:24.000Z</time>
      </trkpt>
      <trkpt lat="42.68128" lon="1.64768">
        <ele>1560</ele>
        <time>2018-11-18T11:21:26.000Z</time>
      </trkpt>
      <trkpt lat="42.68126" lon="1.64767">
        <ele>1560</ele>
        <time>2018-11-18T11:21:28.000Z</time>
      </trkpt>
      <trkpt lat="42.68125" lon="1.64766">
        <ele>1560</ele>
        <time>2018-11-18T11:21:30.000Z</time>
      </trkpt>
      <trkpt lat="42.68123" lon="1.64764">
        <ele>1560</ele>
        <time>2018-11-18T11:21:32.000Z</time>
      </trkpt>
      <trkpt lat="42.68122" lon="1.64763">
        <ele>1560</ele>
        <time>2018-11-18T11:21:34.000Z</time>
      </trkpt>
      <trkpt lat="42.68121" lon="1.64762">
        <ele>1560</ele>
        <time>2018-11-18T11:21:36.000Z</time>
      </trkpt>
      <trkpt lat="42.68119" lon="1.64761">
        <ele>1561</ele>
        <time>2018-11-18T11:21:38.000Z</time>
      </trkpt>
      <trkpt lat="42.68118" lon="1.6476">
        <ele>1560</ele>
        <time>2018-11-18T11:21:40.000Z</time>
      </trkpt>
      <trkpt lat="42.68116" lon="1.64758">
        <ele>1561</ele>
        <time>2018-11-18T11:21:42.000Z</time>
      </trkpt>
      <trkpt lat="42.68115" lon="1.64756">
        <ele>1560</ele>
        <time>2018-11-18T11:21:44.000Z</time>
      </trkpt>
      <trkpt lat="42.68114" lon="1.64755">
        <ele>1560</ele>
        <time>2018-11-18T11:21:46.000Z</time>
      </trkpt>
      <trkpt lat="42.68113" lon="1.64753">
        <ele>1560</ele>
        <time>2018-11-18T11:21:48.000Z</time>
      </trkpt>
      <trkpt lat="42.68112" lon="1.64751">
        <ele>1560</ele>
        <time>2018-11-18T11:21:50.000Z</time>
      </trkpt>
      <trkpt lat="42.6811" lon="1.6475">
        <ele>1560</ele>
        <time>2018-11-18T11:21:52.000Z</time>
      </trkpt>
      <trkpt lat="42.68109" lon="1.64749">
        <ele>1560</ele>
        <time>2018-11-18T11:21:54.000Z</time>
      </trkpt>
      <trkpt lat="42.68107" lon="1.64748">
        <ele>1560</ele>
        <time>2018-11-18T11:21:56.000Z</time>
      </trkpt>
      <trkpt lat="42.68105" lon="1.64747">
        <ele>1561</ele>
        <time>2018-11-18T11:21:58.000Z</time>
      </trkpt>
      <trkpt lat="42.68104" lon="1.64746">
        <ele>1561</ele>
        <time>2018-11-18T11:22:00.000Z</time>
      </trkpt>
      <trkpt lat="42.68102" lon="1.64744">
        <ele>1561</ele>
        <time>2018-11-18T11:22:02.000Z</time>
      </trkpt>
      <trkpt lat="42.681" lon="1.64744">
        <ele>1561</ele>
        <time>2018-11-18T11:22:04.000Z</time>
      </trkpt>
      <trkpt lat="42.68098" lon="1.64744">
        <ele>1561</ele>
        <time>2018-11-18T11:22:06.000Z</time>
      </trkpt>
      <trkpt lat="42.68096" lon="1.64743">
        <ele>1562</ele>
        <time>2018-11-18T11:22:08.000Z</time>
      </trkpt>
      <trkpt lat="42.68094" lon="1.64742">
        <ele>1562</ele>
        <time>2018-11-18T11:22:10.000Z</time>
      </trkpt>
      <trkpt lat="42.68092" lon="1.64741">
        <ele>1562</ele>
        <time>2018-11-18T11:22:12.000Z</time>
      </trkpt>
      <trkpt lat="42.6809" lon="1.64741">
        <ele>1562</ele>
        <time>2018-11-18T11:22:14.000Z</time>
      </trkpt>
      <trkpt lat="42.68087" lon="1.6474">
        <ele>1563</ele>
        <time>2018-11-18T11:22:16.000Z</time>
      </trkpt>
      <trkpt lat="42.68086" lon="1.64739">
        <ele>1563</ele>
        <time>2018-11-18T11:22:18.000Z</time>
      </trkpt>
      <trkpt lat="42.68085" lon="1.64738">
        <ele>1563</ele>
        <time>2018-11-18T11:22:20.000Z</time>
      </trkpt>
      <trkpt lat="42.68084" lon="1.64737">
        <ele>1563</ele>
        <time>2018-11-18T11:22:22.000Z</time>
      </trkpt>
      <trkpt lat="42.68082" lon="1.64736">
        <ele>1562</ele>
        <time>2018-11-18T11:22:24.000Z</time>
      </trkpt>
      <trkpt lat="42.68081" lon="1.64735">
        <ele>1562</ele>
        <time>2018-11-18T11:22:26.000Z</time>
      </trkpt>
      <trkpt lat="42.6808" lon="1.64734">
        <ele>1562</ele>
        <time>2018-11-18T11:22:28.000Z</time>
      </trkpt>
      <trkpt lat="42.68079" lon="1.64732">
        <ele>1562</ele>
        <time>2018-11-18T11:22:30.000Z</time>
      </trkpt>
      <trkpt lat="42.68077" lon="1.64731">
        <ele>1562</ele>
        <time>2018-11-18T11:22:32.000Z</time>
      </trkpt>
      <trkpt lat="42.68076" lon="1.6473">
        <ele>1562</ele>
        <time>2018-11-18T11:22:34.000Z</time>
      </trkpt>
      <trkpt lat="42.68074" lon="1.64729">
        <ele>1562</ele>
        <time>2018-11-18T11:22:36.000Z</time>
      </trkpt>
      <trkpt lat="42.68073" lon="1.64727">
        <ele>1562</ele>
        <time>2018-11-18T11:22:38.000Z</time>
      </trkpt>
      <trkpt lat="42.68072" lon="1.64726">
        <ele>1562</ele>
        <time>2018-11-18T11:22:40.000Z</time>
      </trkpt>
      <trkpt lat="42.6807" lon="1.64725">
        <ele>1562</ele>
        <time>2018-11-18T11:22:42.000Z</time>
      </trkpt>
      <trkpt lat="42.68068" lon="1.64723">
        <ele>1562</ele>
        <time>2018-11-18T11:22:44.000Z</time>
      </trkpt>
      <trkpt lat="42.68067" lon="1.64722">
        <ele>1562</ele>
        <time>2018-11-18T11:22:46.000Z</time>
      </trkpt>
      <trkpt lat="42.68065" lon="1.64721">
        <ele>1562</ele>
        <time>2018-11-18T11:22:48.000Z</time>
      </trkpt>
      <trkpt lat="42.68064" lon="1.6472">
        <ele>1562</ele>
        <time>2018-11-18T11:22:50.000Z</time>
      </trkpt>
      <trkpt lat="42.68062" lon="1.64719">
        <ele>1562</ele>
        <time>2018-11-18T11:22:52.000Z</time>
      </trkpt>
      <trkpt lat="42.6806" lon="1.64717">
        <ele>1562</ele>
        <time>2018-11-18T11:22:54.000Z</time>
      </trkpt>
      <trkpt lat="42.68058" lon="1.64716">
        <ele>1562</ele>
        <time>2018-11-18T11:22:56.000Z</time>
      </trkpt>
      <trkpt lat="42.68057" lon="1.64715">
        <ele>1562</ele>
        <time>2018-11-18T11:22:58.000Z</time>
      </trkpt>
      <trkpt lat="42.68055" lon="1.64713">
        <ele>1562</ele>
        <time>2018-11-18T11:23:00.000Z</time>
      </trkpt>
      <trkpt lat="42.68054" lon="1.64712">
        <ele>1562</ele>
        <time>2018-11-18T11:23:02.000Z</time>
      </trkpt>
      <trkpt lat="42.68053" lon="1.64711">
        <ele>1562</ele>
        <time>2018-11-18T11:23:04.000Z</time>
      </trkpt>
      <trkpt lat="42.68051" lon="1.6471">
        <ele>1562</ele>
        <time>2018-11-18T11:23:06.000Z</time>
      </trkpt>
      <trkpt lat="42.6805" lon="1.64709">
        <ele>1562</ele>
        <time>2018-11-18T11:23:08.000Z</time>
      </trkpt>
      <trkpt lat="42.68048" lon="1.64708">
        <ele>1562</ele>
        <time>2018-11-18T11:23:10.000Z</time>
      </trkpt>
      <trkpt lat="42.68047" lon="1.64707">
        <ele>1562</ele>
        <time>2018-11-18T11:23:12.000Z</time>
      </trkpt>
      <trkpt lat="42.68046" lon="1.64706">
        <ele>1562</ele>
        <time>2018-11-18T11:23:14.000Z</time>
      </trkpt>
      <trkpt lat="42.68044" lon="1.64705">
        <ele>1562</ele>
        <time>2018-11-18T11:23:16.000Z</time>
      </trkpt>
      <trkpt lat="42.68042" lon="1.64704">
        <ele>1562</ele>
        <time>2018-11-18T11:23:18.000Z</time>
      </trkpt>
      <trkpt lat="42.68039" lon="1.64705">
        <ele>1562</ele>
        <time>2018-11-18T11:23:20.000Z</time>
      </trkpt>
      <trkpt lat="42.68037" lon="1.64704">
        <ele>1563</ele>
        <time>2018-11-18T11:23:22.000Z</time>
      </trkpt>
      <trkpt lat="42.68036" lon="1.64704">
        <ele>1563</ele>
        <time>2018-11-18T11:23:24.000Z</time>
      </trkpt>
      <trkpt lat="42.68034" lon="1.64704">
        <ele>1563</ele>
        <time>2018-11-18T11:23:26.000Z</time>
      </trkpt>
      <trkpt lat="42.68032" lon="1.64704">
        <ele>1563</ele>
        <time>2018-11-18T11:23:28.000Z</time>
      </trkpt>
      <trkpt lat="42.6803" lon="1.64703">
        <ele>1563</ele>
        <time>2018-11-18T11:23:30.000Z</time>
      </trkpt>
      <trkpt lat="42.68028" lon="1.64703">
        <ele>1564</ele>
        <time>2018-11-18T11:23:32.000Z</time>
      </trkpt>
      <trkpt lat="42.68025" lon="1.64703">
        <ele>1564</ele>
        <time>2018-11-18T11:23:34.000Z</time>
      </trkpt>
      <trkpt lat="42.68024" lon="1.64702">
        <ele>1564</ele>
        <time>2018-11-18T11:23:36.000Z</time>
      </trkpt>
      <trkpt lat="42.68023" lon="1.64702">
        <ele>1564</ele>
        <time>2018-11-18T11:23:38.000Z</time>
      </trkpt>
      <trkpt lat="42.68021" lon="1.64702">
        <ele>1564</ele>
        <time>2018-11-18T11:23:40.000Z</time>
      </trkpt>
      <trkpt lat="42.68019" lon="1.64702">
        <ele>1564</ele>
        <time>2018-11-18T11:23:42.000Z</time>
      </trkpt>
      <trkpt lat="42.68017" lon="1.64701">
        <ele>1565</ele>
        <time>2018-11-18T11:23:44.000Z</time>
      </trkpt>
      <trkpt lat="42.68017" lon="1.647">
        <ele>1564</ele>
        <time>2018-11-18T11:23:46.000Z</time>
      </trkpt>
      <trkpt lat="42.68016" lon="1.647">
        <ele>1564</ele>
        <time>2018-11-18T11:23:48.000Z</time>
      </trkpt>
      <trkpt lat="42.68015" lon="1.64701">
        <ele>1565</ele>
        <time>2018-11-18T11:23:50.000Z</time>
      </trkpt>
      <trkpt lat="42.68014" lon="1.64701">
        <ele>1565</ele>
        <time>2018-11-18T11:23:52.000Z</time>
      </trkpt>
      <trkpt lat="42.68013" lon="1.64701">
        <ele>1565</ele>
        <time>2018-11-18T11:23:54.000Z</time>
      </trkpt>
      <trkpt lat="42.68012" lon="1.64701">
        <ele>1565</ele>
        <time>2018-11-18T11:23:56.000Z</time>
      </trkpt>
      <trkpt lat="42.6801" lon="1.64702">
        <ele>1565</ele>
        <time>2018-11-18T11:23:58.000Z</time>
      </trkpt>
      <trkpt lat="42.68008" lon="1.64703">
        <ele>1566</ele>
        <time>2018-11-18T11:24:00.000Z</time>
      </trkpt>
      <trkpt lat="42.68007" lon="1.64703">
        <ele>1566</ele>
        <time>2018-11-18T11:24:02.000Z</time>
      </trkpt>
      <trkpt lat="42.68005" lon="1.64704">
        <ele>1566</ele>
        <time>2018-11-18T11:24:04.000Z</time>
      </trkpt>
      <trkpt lat="42.68003" lon="1.64704">
        <ele>1567</ele>
        <time>2018-11-18T11:24:06.000Z</time>
      </trkpt>
      <trkpt lat="42.68001" lon="1.64704">
        <ele>1567</ele>
        <time>2018-11-18T11:24:08.000Z</time>
      </trkpt>
      <trkpt lat="42.67999" lon="1.64704">
        <ele>1567</ele>
        <time>2018-11-18T11:24:10.000Z</time>
      </trkpt>
      <trkpt lat="42.67997" lon="1.64704">
        <ele>1568</ele>
        <time>2018-11-18T11:24:12.000Z</time>
      </trkpt>
      <trkpt lat="42.67997" lon="1.64702">
        <ele>1567</ele>
        <time>2018-11-18T11:24:14.000Z</time>
      </trkpt>
      <trkpt lat="42.67995" lon="1.64701">
        <ele>1567</ele>
        <time>2018-11-18T11:24:16.000Z</time>
      </trkpt>
      <trkpt lat="42.67994" lon="1.647">
        <ele>1567</ele>
        <time>2018-11-18T11:24:18.000Z</time>
      </trkpt>
      <trkpt lat="42.67992" lon="1.64699">
        <ele>1568</ele>
        <time>2018-11-18T11:24:20.000Z</time>
      </trkpt>
      <trkpt lat="42.6799" lon="1.64698">
        <ele>1568</ele>
        <time>2018-11-18T11:24:22.000Z</time>
      </trkpt>
      <trkpt lat="42.67988" lon="1.64697">
        <ele>1568</ele>
        <time>2018-11-18T11:24:24.000Z</time>
      </trkpt>
      <trkpt lat="42.67986" lon="1.64696">
        <ele>1568</ele>
        <time>2018-11-18T11:24:26.000Z</time>
      </trkpt>
      <trkpt lat="42.67984" lon="1.64694">
        <ele>1568</ele>
        <time>2018-11-18T11:24:28.000Z</time>
      </trkpt>
      <trkpt lat="42.67982" lon="1.64693">
        <ele>1568</ele>
        <time>2018-11-18T11:24:30.000Z</time>
      </trkpt>
      <trkpt lat="42.67982" lon="1.64691">
        <ele>1568</ele>
        <time>2018-11-18T11:24:32.000Z</time>
      </trkpt>
      <trkpt lat="42.6798" lon="1.64689">
        <ele>1568</ele>
        <time>2018-11-18T11:24:34.000Z</time>
      </trkpt>
      <trkpt lat="42.67979" lon="1.64688">
        <ele>1568</ele>
        <time>2018-11-18T11:24:36.000Z</time>
      </trkpt>
      <trkpt lat="42.67977" lon="1.64686">
        <ele>1568</ele>
        <time>2018-11-18T11:24:38.000Z</time>
      </trkpt>
      <trkpt lat="42.67976" lon="1.64684">
        <ele>1568</ele>
        <time>2018-11-18T11:24:40.000Z</time>
      </trkpt>
      <trkpt lat="42.67974" lon="1.64682">
        <ele>1568</ele>
        <time>2018-11-18T11:24:42.000Z</time>
      </trkpt>
      <trkpt lat="42.67973" lon="1.6468">
        <ele>1568</ele>
        <time>2018-11-18T11:24:44.000Z</time>
      </trkpt>
      <trkpt lat="42.67973" lon="1.64678">
        <ele>1567</ele>
        <time>2018-11-18T11:24:46.000Z</time>
      </trkpt>
      <trkpt lat="42.67971" lon="1.64676">
        <ele>1567</ele>
        <time>2018-11-18T11:24:48.000Z</time>
      </trkpt>
      <trkpt lat="42.67971" lon="1.64673">
        <ele>1567</ele>
        <time>2018-11-18T11:24:50.000Z</time>
      </trkpt>
      <trkpt lat="42.6797" lon="1.64671">
        <ele>1567</ele>
        <time>2018-11-18T11:24:52.000Z</time>
      </trkpt>
      <trkpt lat="42.67968" lon="1.64669">
        <ele>1567</ele>
        <time>2018-11-18T11:24:54.000Z</time>
      </trkpt>
      <trkpt lat="42.67966" lon="1.64667">
        <ele>1567</ele>
        <time>2018-11-18T11:24:56.000Z</time>
      </trkpt>
      <trkpt lat="42.67965" lon="1.64665">
        <ele>1566</ele>
        <time>2018-11-18T11:24:58.000Z</time>
      </trkpt>
      <trkpt lat="42.67964" lon="1.64664">
        <ele>1566</ele>
        <time>2018-11-18T11:25:00.000Z</time>
      </trkpt>
      <trkpt lat="42.67962" lon="1.64661">
        <ele>1566</ele>
        <time>2018-11-18T11:25:02.000Z</time>
      </trkpt>
      <trkpt lat="42.67961" lon="1.64659">
        <ele>1566</ele>
        <time>2018-11-18T11:25:04.000Z</time>
      </trkpt>
      <trkpt lat="42.6796" lon="1.64657">
        <ele>1566</ele>
        <time>2018-11-18T11:25:06.000Z</time>
      </trkpt>
      <trkpt lat="42.67958" lon="1.64655">
        <ele>1566</ele>
        <time>2018-11-18T11:25:08.000Z</time>
      </trkpt>
      <trkpt lat="42.67957" lon="1.64653">
        <ele>1566</ele>
        <time>2018-11-18T11:25:10.000Z</time>
      </trkpt>
      <trkpt lat="42.67956" lon="1.64651">
        <ele>1566</ele>
        <time>2018-11-18T11:25:12.000Z</time>
      </trkpt>
      <trkpt lat="42.67954" lon="1.64649">
        <ele>1566</ele>
        <time>2018-11-18T11:25:14.000Z</time>
      </trkpt>
      <trkpt lat="42.67953" lon="1.64646">
        <ele>1565</ele>
        <time>2018-11-18T11:25:16.000Z</time>
      </trkpt>
      <trkpt lat="42.67951" lon="1.64644">
        <ele>1566</ele>
        <time>2018-11-18T11:25:18.000Z</time>
      </trkpt>
      <trkpt lat="42.6795" lon="1.64642">
        <ele>1566</ele>
        <time>2018-11-18T11:25:20.000Z</time>
      </trkpt>
      <trkpt lat="42.67948" lon="1.6464">
        <ele>1566</ele>
        <time>2018-11-18T11:25:22.000Z</time>
      </trkpt>
      <trkpt lat="42.67946" lon="1.64638">
        <ele>1566</ele>
        <time>2018-11-18T11:25:24.000Z</time>
      </trkpt>
      <trkpt lat="42.67945" lon="1.64636">
        <ele>1566</ele>
        <time>2018-11-18T11:25:26.000Z</time>
      </trkpt>
      <trkpt lat="42.67944" lon="1.64634">
        <ele>1566</ele>
        <time>2018-11-18T11:25:28.000Z</time>
      </trkpt>
      <trkpt lat="42.67942" lon="1.64633">
        <ele>1566</ele>
        <time>2018-11-18T11:25:30.000Z</time>
      </trkpt>
      <trkpt lat="42.6794" lon="1.64631">
        <ele>1566</ele>
        <time>2018-11-18T11:25:32.000Z</time>
      </trkpt>
      <trkpt lat="42.67938" lon="1.6463">
        <ele>1566</ele>
        <time>2018-11-18T11:25:34.000Z</time>
      </trkpt>
      <trkpt lat="42.67936" lon="1.64628">
        <ele>1566</ele>
        <time>2018-11-18T11:25:36.000Z</time>
      </trkpt>
      <trkpt lat="42.67934" lon="1.64627">
        <ele>1566</ele>
        <time>2018-11-18T11:25:38.000Z</time>
      </trkpt>
      <trkpt lat="42.67932" lon="1.64625">
        <ele>1566</ele>
        <time>2018-11-18T11:25:40.000Z</time>
      </trkpt>
      <trkpt lat="42.67931" lon="1.64623">
        <ele>1566</ele>
        <time>2018-11-18T11:25:42.000Z</time>
      </trkpt>
      <trkpt lat="42.67929" lon="1.64621">
        <ele>1566</ele>
        <time>2018-11-18T11:25:44.000Z</time>
      </trkpt>
      <trkpt lat="42.67928" lon="1.64619">
        <ele>1566</ele>
        <time>2018-11-18T11:25:46.000Z</time>
      </trkpt>
      <trkpt lat="42.67927" lon="1.64618">
        <ele>1566</ele>
        <time>2018-11-18T11:25:48.000Z</time>
      </trkpt>
      <trkpt lat="42.67927" lon="1.64617">
        <ele>1566</ele>
        <time>2018-11-18T11:25:50.000Z</time>
      </trkpt>
      <trkpt lat="42.67927" lon="1.64616">
        <ele>1566</ele>
        <time>2018-11-18T11:25:52.000Z</time>
      </trkpt>
      <trkpt lat="42.67925" lon="1.64616">
        <ele>1566</ele>
        <time>2018-11-18T11:25:54.000Z</time>
      </trkpt>
      <trkpt lat="42.67925" lon="1.64616">
        <ele>1566</ele>
        <time>2018-11-18T11:25:56.000Z</time>
      </trkpt>
      <trkpt lat="42.67924" lon="1.64616">
        <ele>1566</ele>
        <time>2018-11-18T11:25:58.000Z</time>
      </trkpt>
      <trkpt lat="42.67922" lon="1.64614">
        <ele>1567</ele>
        <time>2018-11-18T11:26:00.000Z</time>
      </trkpt>
      <trkpt lat="42.67921" lon="1.64612">
        <ele>1566</ele>
        <time>2018-11-18T11:26:02.000Z</time>
      </trkpt>
      <trkpt lat="42.67919" lon="1.6461">
        <ele>1567</ele>
        <time>2018-11-18T11:26:04.000Z</time>
      </trkpt>
      <trkpt lat="42.67919" lon="1.64608">
        <ele>1566</ele>
        <time>2018-11-18T11:26:06.000Z</time>
      </trkpt>
      <trkpt lat="42.67917" lon="1.64606">
        <ele>1567</ele>
        <time>2018-11-18T11:26:08.000Z</time>
      </trkpt>
      <trkpt lat="42.67916" lon="1.64604">
        <ele>1567</ele>
        <time>2018-11-18T11:26:10.000Z</time>
      </trkpt>
      <trkpt lat="42.67915" lon="1.64602">
        <ele>1567</ele>
        <time>2018-11-18T11:26:12.000Z</time>
      </trkpt>
      <trkpt lat="42.67913" lon="1.646">
        <ele>1567</ele>
        <time>2018-11-18T11:26:14.000Z</time>
      </trkpt>
      <trkpt lat="42.67912" lon="1.64598">
        <ele>1567</ele>
        <time>2018-11-18T11:26:16.000Z</time>
      </trkpt>
      <trkpt lat="42.67911" lon="1.64595">
        <ele>1568</ele>
        <time>2018-11-18T11:26:18.000Z</time>
      </trkpt>
      <trkpt lat="42.67911" lon="1.64592">
        <ele>1567</ele>
        <time>2018-11-18T11:26:20.000Z</time>
      </trkpt>
      <trkpt lat="42.6791" lon="1.6459">
        <ele>1567</ele>
        <time>2018-11-18T11:26:22.000Z</time>
      </trkpt>
      <trkpt lat="42.67908" lon="1.64589">
        <ele>1567</ele>
        <time>2018-11-18T11:26:24.000Z</time>
      </trkpt>
      <trkpt lat="42.67906" lon="1.64587">
        <ele>1568</ele>
        <time>2018-11-18T11:26:26.000Z</time>
      </trkpt>
      <trkpt lat="42.67906" lon="1.64584">
        <ele>1568</ele>
        <time>2018-11-18T11:26:28.000Z</time>
      </trkpt>
      <trkpt lat="42.67905" lon="1.64582">
        <ele>1568</ele>
        <time>2018-11-18T11:26:30.000Z</time>
      </trkpt>
      <trkpt lat="42.67904" lon="1.64579">
        <ele>1568</ele>
        <time>2018-11-18T11:26:32.000Z</time>
      </trkpt>
      <trkpt lat="42.67903" lon="1.64577">
        <ele>1567</ele>
        <time>2018-11-18T11:26:34.000Z</time>
      </trkpt>
      <trkpt lat="42.67903" lon="1.64574">
        <ele>1567</ele>
        <time>2018-11-18T11:26:36.000Z</time>
      </trkpt>
      <trkpt lat="42.67902" lon="1.64572">
        <ele>1567</ele>
        <time>2018-11-18T11:26:38.000Z</time>
      </trkpt>
      <trkpt lat="42.679" lon="1.6457">
        <ele>1568</ele>
        <time>2018-11-18T11:26:40.000Z</time>
      </trkpt>
      <trkpt lat="42.67899" lon="1.64568">
        <ele>1567</ele>
        <time>2018-11-18T11:26:42.000Z</time>
      </trkpt>
      <trkpt lat="42.67899" lon="1.64565">
        <ele>1567</ele>
        <time>2018-11-18T11:26:44.000Z</time>
      </trkpt>
      <trkpt lat="42.67897" lon="1.64564">
        <ele>1567</ele>
        <time>2018-11-18T11:26:46.000Z</time>
      </trkpt>
      <trkpt lat="42.67895" lon="1.64562">
        <ele>1567</ele>
        <time>2018-11-18T11:26:48.000Z</time>
      </trkpt>
      <trkpt lat="42.67894" lon="1.64559">
        <ele>1567</ele>
        <time>2018-11-18T11:26:50.000Z</time>
      </trkpt>
      <trkpt lat="42.67893" lon="1.64556">
        <ele>1566</ele>
        <time>2018-11-18T11:26:52.000Z</time>
      </trkpt>
      <trkpt lat="42.67893" lon="1.64553">
        <ele>1566</ele>
        <time>2018-11-18T11:26:54.000Z</time>
      </trkpt>
      <trkpt lat="42.67893" lon="1.6455">
        <ele>1565</ele>
        <time>2018-11-18T11:26:56.000Z</time>
      </trkpt>
      <trkpt lat="42.67893" lon="1.64547">
        <ele>1564</ele>
        <time>2018-11-18T11:26:58.000Z</time>
      </trkpt>
      <trkpt lat="42.67892" lon="1.64545">
        <ele>1564</ele>
        <time>2018-11-18T11:27:00.000Z</time>
      </trkpt>
      <trkpt lat="42.67891" lon="1.64542">
        <ele>1563</ele>
        <time>2018-11-18T11:27:02.000Z</time>
      </trkpt>
      <trkpt lat="42.67891" lon="1.6454">
        <ele>1563</ele>
        <time>2018-11-18T11:27:04.000Z</time>
      </trkpt>
      <trkpt lat="42.67889" lon="1.64537">
        <ele>1563</ele>
        <time>2018-11-18T11:27:06.000Z</time>
      </trkpt>
      <trkpt lat="42.67889" lon="1.64534">
        <ele>1563</ele>
        <time>2018-11-18T11:27:08.000Z</time>
      </trkpt>
      <trkpt lat="42.67888" lon="1.64532">
        <ele>1563</ele>
        <time>2018-11-18T11:27:10.000Z</time>
      </trkpt>
      <trkpt lat="42.67886" lon="1.64531">
        <ele>1563</ele>
        <time>2018-11-18T11:27:12.000Z</time>
      </trkpt>
      <trkpt lat="42.67884" lon="1.64529">
        <ele>1563</ele>
        <time>2018-11-18T11:27:14.000Z</time>
      </trkpt>
      <trkpt lat="42.67883" lon="1.64527">
        <ele>1563</ele>
        <time>2018-11-18T11:27:16.000Z</time>
      </trkpt>
      <trkpt lat="42.67881" lon="1.64526">
        <ele>1563</ele>
        <time>2018-11-18T11:27:18.000Z</time>
      </trkpt>
      <trkpt lat="42.67879" lon="1.64525">
        <ele>1564</ele>
        <time>2018-11-18T11:27:20.000Z</time>
      </trkpt>
      <trkpt lat="42.67877" lon="1.64524">
        <ele>1564</ele>
        <time>2018-11-18T11:27:22.000Z</time>
      </trkpt>
      <trkpt lat="42.67875" lon="1.64522">
        <ele>1564</ele>
        <time>2018-11-18T11:27:24.000Z</time>
      </trkpt>
      <trkpt lat="42.67874" lon="1.64521">
        <ele>1564</ele>
        <time>2018-11-18T11:27:26.000Z</time>
      </trkpt>
      <trkpt lat="42.67873" lon="1.64518">
        <ele>1564</ele>
        <time>2018-11-18T11:27:28.000Z</time>
      </trkpt>
      <trkpt lat="42.67872" lon="1.64517">
        <ele>1564</ele>
        <time>2018-11-18T11:27:30.000Z</time>
      </trkpt>
      <trkpt lat="42.67871" lon="1.64515">
        <ele>1564</ele>
        <time>2018-11-18T11:27:32.000Z</time>
      </trkpt>
      <trkpt lat="42.67869" lon="1.64514">
        <ele>1564</ele>
        <time>2018-11-18T11:27:34.000Z</time>
      </trkpt>
      <trkpt lat="42.67867" lon="1.64514">
        <ele>1565</ele>
        <time>2018-11-18T11:27:36.000Z</time>
      </trkpt>
      <trkpt lat="42.67865" lon="1.64513">
        <ele>1565</ele>
        <time>2018-11-18T11:27:38.000Z</time>
      </trkpt>
      <trkpt lat="42.67864" lon="1.64512">
        <ele>1565</ele>
        <time>2018-11-18T11:27:40.000Z</time>
      </trkpt>
      <trkpt lat="42.67862" lon="1.6451">
        <ele>1565</ele>
        <time>2018-11-18T11:27:42.000Z</time>
      </trkpt>
      <trkpt lat="42.67861" lon="1.64509">
        <ele>1565</ele>
        <time>2018-11-18T11:27:44.000Z</time>
      </trkpt>
      <trkpt lat="42.6786" lon="1.64507">
        <ele>1565</ele>
        <time>2018-11-18T11:27:46.000Z</time>
      </trkpt>
      <trkpt lat="42.67858" lon="1.64506">
        <ele>1565</ele>
        <time>2018-11-18T11:27:48.000Z</time>
      </trkpt>
      <trkpt lat="42.67857" lon="1.64505">
        <ele>1565</ele>
        <time>2018-11-18T11:27:50.000Z</time>
      </trkpt>
      <trkpt lat="42.67856" lon="1.64504">
        <ele>1565</ele>
        <time>2018-11-18T11:27:52.000Z</time>
      </trkpt>
      <trkpt lat="42.67854" lon="1.64503">
        <ele>1566</ele>
        <time>2018-11-18T11:27:54.000Z</time>
      </trkpt>
      <trkpt lat="42.67853" lon="1.64501">
        <ele>1566</ele>
        <time>2018-11-18T11:27:56.000Z</time>
      </trkpt>
      <trkpt lat="42.67851" lon="1.64501">
        <ele>1566</ele>
        <time>2018-11-18T11:27:58.000Z</time>
      </trkpt>
      <trkpt lat="42.67849" lon="1.645">
        <ele>1567</ele>
        <time>2018-11-18T11:28:00.000Z</time>
      </trkpt>
      <trkpt lat="42.67847" lon="1.64498">
        <ele>1567</ele>
        <time>2018-11-18T11:28:02.000Z</time>
      </trkpt>
      <trkpt lat="42.67846" lon="1.64497">
        <ele>1567</ele>
        <time>2018-11-18T11:28:04.000Z</time>
      </trkpt>
      <trkpt lat="42.67844" lon="1.64496">
        <ele>1567</ele>
        <time>2018-11-18T11:28:06.000Z</time>
      </trkpt>
      <trkpt lat="42.67842" lon="1.64496">
        <ele>1568</ele>
        <time>2018-11-18T11:28:08.000Z</time>
      </trkpt>
      <trkpt lat="42.6784" lon="1.64495">
        <ele>1568</ele>
        <time>2018-11-18T11:28:10.000Z</time>
      </trkpt>
      <trkpt lat="42.67838" lon="1.64493">
        <ele>1569</ele>
        <time>2018-11-18T11:28:12.000Z</time>
      </trkpt>
      <trkpt lat="42.67836" lon="1.64493">
        <ele>1569</ele>
        <time>2018-11-18T11:28:14.000Z</time>
      </trkpt>
      <trkpt lat="42.67834" lon="1.64491">
        <ele>1569</ele>
        <time>2018-11-18T11:28:16.000Z</time>
      </trkpt>
      <trkpt lat="42.67833" lon="1.6449">
        <ele>1569</ele>
        <time>2018-11-18T11:28:18.000Z</time>
      </trkpt>
      <trkpt lat="42.67832" lon="1.64489">
        <ele>1569</ele>
        <time>2018-11-18T11:28:20.000Z</time>
      </trkpt>
      <trkpt lat="42.67831" lon="1.64487">
        <ele>1569</ele>
        <time>2018-11-18T11:28:22.000Z</time>
      </trkpt>
      <trkpt lat="42.67829" lon="1.64486">
        <ele>1569</ele>
        <time>2018-11-18T11:28:24.000Z</time>
      </trkpt>
      <trkpt lat="42.67828" lon="1.64485">
        <ele>1569</ele>
        <time>2018-11-18T11:28:26.000Z</time>
      </trkpt>
      <trkpt lat="42.67825" lon="1.64484">
        <ele>1569</ele>
        <time>2018-11-18T11:28:28.000Z</time>
      </trkpt>
      <trkpt lat="42.67824" lon="1.64483">
        <ele>1570</ele>
        <time>2018-11-18T11:28:30.000Z</time>
      </trkpt>
      <trkpt lat="42.67822" lon="1.64481">
        <ele>1570</ele>
        <time>2018-11-18T11:28:32.000Z</time>
      </trkpt>
      <trkpt lat="42.67821" lon="1.6448">
        <ele>1570</ele>
        <time>2018-11-18T11:28:34.000Z</time>
      </trkpt>
      <trkpt lat="42.67819" lon="1.64478">
        <ele>1570</ele>
        <time>2018-11-18T11:28:36.000Z</time>
      </trkpt>
      <trkpt lat="42.67817" lon="1.64478">
        <ele>1570</ele>
        <time>2018-11-18T11:28:38.000Z</time>
      </trkpt>
      <trkpt lat="42.67814" lon="1.64477">
        <ele>1571</ele>
        <time>2018-11-18T11:28:40.000Z</time>
      </trkpt>
      <trkpt lat="42.67812" lon="1.64476">
        <ele>1571</ele>
        <time>2018-11-18T11:28:42.000Z</time>
      </trkpt>
      <trkpt lat="42.6781" lon="1.64474">
        <ele>1571</ele>
        <time>2018-11-18T11:28:44.000Z</time>
      </trkpt>
      <trkpt lat="42.67807" lon="1.64473">
        <ele>1572</ele>
        <time>2018-11-18T11:28:46.000Z</time>
      </trkpt>
      <trkpt lat="42.67805" lon="1.64472">
        <ele>1572</ele>
        <time>2018-11-18T11:28:48.000Z</time>
      </trkpt>
      <trkpt lat="42.67803" lon="1.64471">
        <ele>1572</ele>
        <time>2018-11-18T11:28:50.000Z</time>
      </trkpt>
      <trkpt lat="42.67801" lon="1.6447">
        <ele>1573</ele>
        <time>2018-11-18T11:28:52.000Z</time>
      </trkpt>
      <trkpt lat="42.67799" lon="1.64469">
        <ele>1573</ele>
        <time>2018-11-18T11:28:54.000Z</time>
      </trkpt>
      <trkpt lat="42.67798" lon="1.64467">
        <ele>1573</ele>
        <time>2018-11-18T11:28:56.000Z</time>
      </trkpt>
      <trkpt lat="42.67797" lon="1.64465">
        <ele>1573</ele>
        <time>2018-11-18T11:28:58.000Z</time>
      </trkpt>
      <trkpt lat="42.67795" lon="1.64463">
        <ele>1573</ele>
        <time>2018-11-18T11:29:00.000Z</time>
      </trkpt>
      <trkpt lat="42.67794" lon="1.64462">
        <ele>1573</ele>
        <time>2018-11-18T11:29:02.000Z</time>
      </trkpt>
      <trkpt lat="42.67794" lon="1.64459">
        <ele>1572</ele>
        <time>2018-11-18T11:29:04.000Z</time>
      </trkpt>
      <trkpt lat="42.67793" lon="1.64456">
        <ele>1572</ele>
        <time>2018-11-18T11:29:06.000Z</time>
      </trkpt>
      <trkpt lat="42.67793" lon="1.64454">
        <ele>1571</ele>
        <time>2018-11-18T11:29:08.000Z</time>
      </trkpt>
      <trkpt lat="42.67792" lon="1.64452">
        <ele>1571</ele>
        <time>2018-11-18T11:29:10.000Z</time>
      </trkpt>
      <trkpt lat="42.67791" lon="1.64451">
        <ele>1571</ele>
        <time>2018-11-18T11:29:12.000Z</time>
      </trkpt>
      <trkpt lat="42.67789" lon="1.64448">
        <ele>1571</ele>
        <time>2018-11-18T11:29:14.000Z</time>
      </trkpt>
      <trkpt lat="42.67788" lon="1.64446">
        <ele>1571</ele>
        <time>2018-11-18T11:29:16.000Z</time>
      </trkpt>
      <trkpt lat="42.67786" lon="1.64445">
        <ele>1571</ele>
        <time>2018-11-18T11:29:18.000Z</time>
      </trkpt>
      <trkpt lat="42.67784" lon="1.64443">
        <ele>1571</ele>
        <time>2018-11-18T11:29:20.000Z</time>
      </trkpt>
      <trkpt lat="42.67782" lon="1.64442">
        <ele>1571</ele>
        <time>2018-11-18T11:29:22.000Z</time>
      </trkpt>
      <trkpt lat="42.67781" lon="1.6444">
        <ele>1571</ele>
        <time>2018-11-18T11:29:24.000Z</time>
      </trkpt>
      <trkpt lat="42.67779" lon="1.64438">
        <ele>1571</ele>
        <time>2018-11-18T11:29:26.000Z</time>
      </trkpt>
      <trkpt lat="42.67778" lon="1.64437">
        <ele>1571</ele>
        <time>2018-11-18T11:29:28.000Z</time>
      </trkpt>
      <trkpt lat="42.67777" lon="1.64436">
        <ele>1571</ele>
        <time>2018-11-18T11:29:30.000Z</time>
      </trkpt>
      <trkpt lat="42.67774" lon="1.64435">
        <ele>1572</ele>
        <time>2018-11-18T11:29:32.000Z</time>
      </trkpt>
      <trkpt lat="42.67773" lon="1.64433">
        <ele>1572</ele>
        <time>2018-11-18T11:29:34.000Z</time>
      </trkpt>
      <trkpt lat="42.67772" lon="1.64431">
        <ele>1572</ele>
        <time>2018-11-18T11:29:36.000Z</time>
      </trkpt>
      <trkpt lat="42.67771" lon="1.64429">
        <ele>1572</ele>
        <time>2018-11-18T11:29:38.000Z</time>
      </trkpt>
      <trkpt lat="42.67769" lon="1.64428">
        <ele>1572</ele>
        <time>2018-11-18T11:29:40.000Z</time>
      </trkpt>
      <trkpt lat="42.67767" lon="1.64427">
        <ele>1572</ele>
        <time>2018-11-18T11:29:42.000Z</time>
      </trkpt>
      <trkpt lat="42.67765" lon="1.64425">
        <ele>1572</ele>
        <time>2018-11-18T11:29:44.000Z</time>
      </trkpt>
      <trkpt lat="42.67764" lon="1.64424">
        <ele>1572</ele>
        <time>2018-11-18T11:29:46.000Z</time>
      </trkpt>
      <trkpt lat="42.67762" lon="1.64422">
        <ele>1572</ele>
        <time>2018-11-18T11:29:48.000Z</time>
      </trkpt>
      <trkpt lat="42.6776" lon="1.64421">
        <ele>1572</ele>
        <time>2018-11-18T11:29:50.000Z</time>
      </trkpt>
      <trkpt lat="42.67758" lon="1.64419">
        <ele>1572</ele>
        <time>2018-11-18T11:29:52.000Z</time>
      </trkpt>
      <trkpt lat="42.67758" lon="1.64417">
        <ele>1572</ele>
        <time>2018-11-18T11:29:54.000Z</time>
      </trkpt>
      <trkpt lat="42.67756" lon="1.64415">
        <ele>1572</ele>
        <time>2018-11-18T11:29:56.000Z</time>
      </trkpt>
      <trkpt lat="42.67755" lon="1.64413">
        <ele>1572</ele>
        <time>2018-11-18T11:29:58.000Z</time>
      </trkpt>
      <trkpt lat="42.67754" lon="1.6441">
        <ele>1571</ele>
        <time>2018-11-18T11:30:00.000Z</time>
      </trkpt>
      <trkpt lat="42.67755" lon="1.64407">
        <ele>1571</ele>
        <time>2018-11-18T11:30:02.000Z</time>
      </trkpt>
      <trkpt lat="42.67753" lon="1.64406">
        <ele>1571</ele>
        <time>2018-11-18T11:30:04.000Z</time>
      </trkpt>
      <trkpt lat="42.67753" lon="1.64403">
        <ele>1570</ele>
        <time>2018-11-18T11:30:06.000Z</time>
      </trkpt>
      <trkpt lat="42.67752" lon="1.64401">
        <ele>1570</ele>
        <time>2018-11-18T11:30:08.000Z</time>
      </trkpt>
      <trkpt lat="42.67751" lon="1.64399">
        <ele>1570</ele>
        <time>2018-11-18T11:30:10.000Z</time>
      </trkpt>
      <trkpt lat="42.67751" lon="1.64397">
        <ele>1570</ele>
        <time>2018-11-18T11:30:12.000Z</time>
      </trkpt>
      <trkpt lat="42.67752" lon="1.64394">
        <ele>1570</ele>
        <time>2018-11-18T11:30:14.000Z</time>
      </trkpt>
      <trkpt lat="42.67752" lon="1.64391">
        <ele>1570</ele>
        <time>2018-11-18T11:30:16.000Z</time>
      </trkpt>
      <trkpt lat="42.67753" lon="1.64388">
        <ele>1570</ele>
        <time>2018-11-18T11:30:18.000Z</time>
      </trkpt>
      <trkpt lat="42.67753" lon="1.64385">
        <ele>1569</ele>
        <time>2018-11-18T11:30:20.000Z</time>
      </trkpt>
      <trkpt lat="42.67754" lon="1.64383">
        <ele>1569</ele>
        <time>2018-11-18T11:30:22.000Z</time>
      </trkpt>
      <trkpt lat="42.67755" lon="1.64381">
        <ele>1569</ele>
        <time>2018-11-18T11:30:24.000Z</time>
      </trkpt>
      <trkpt lat="42.67755" lon="1.64381">
        <ele>1569</ele>
        <time>2018-11-18T11:30:26.000Z</time>
      </trkpt>
      <trkpt lat="42.67755" lon="1.64382">
        <ele>1569</ele>
        <time>2018-11-18T11:30:28.000Z</time>
      </trkpt>
      <trkpt lat="42.67754" lon="1.64382">
        <ele>1569</ele>
        <time>2018-11-18T11:30:30.000Z</time>
      </trkpt>
      <trkpt lat="42.67754" lon="1.64382">
        <ele>1569</ele>
        <time>2018-11-18T11:30:32.000Z</time>
      </trkpt>
      <trkpt lat="42.67755" lon="1.64383">
        <ele>1569</ele>
        <time>2018-11-18T11:30:34.000Z</time>
      </trkpt>
      <trkpt lat="42.67755" lon="1.64382">
        <ele>1569</ele>
        <time>2018-11-18T11:30:36.000Z</time>
      </trkpt>
      <trkpt lat="42.67755" lon="1.6438">
        <ele>1569</ele>
        <time>2018-11-18T11:30:38.000Z</time>
      </trkpt>
      <trkpt lat="42.67754" lon="1.64378">
        <ele>1569</ele>
        <time>2018-11-18T11:30:40.000Z</time>
      </trkpt>
      <trkpt lat="42.67755" lon="1.64375">
        <ele>1569</ele>
        <time>2018-11-18T11:30:42.000Z</time>
      </trkpt>
      <trkpt lat="42.67755" lon="1.64372">
        <ele>1569</ele>
        <time>2018-11-18T11:30:44.000Z</time>
      </trkpt>
      <trkpt lat="42.67756" lon="1.64369">
        <ele>1568</ele>
        <time>2018-11-18T11:30:46.000Z</time>
      </trkpt>
      <trkpt lat="42.67756" lon="1.64366">
        <ele>1568</ele>
        <time>2018-11-18T11:30:48.000Z</time>
      </trkpt>
      <trkpt lat="42.67757" lon="1.64364">
        <ele>1568</ele>
        <time>2018-11-18T11:30:50.000Z</time>
      </trkpt>
      <trkpt lat="42.67757" lon="1.64361">
        <ele>1568</ele>
        <time>2018-11-18T11:30:52.000Z</time>
      </trkpt>
      <trkpt lat="42.67758" lon="1.64358">
        <ele>1568</ele>
        <time>2018-11-18T11:30:54.000Z</time>
      </trkpt>
      <trkpt lat="42.67759" lon="1.64355">
        <ele>1567</ele>
        <time>2018-11-18T11:30:56.000Z</time>
      </trkpt>
      <trkpt lat="42.67759" lon="1.64352">
        <ele>1567</ele>
        <time>2018-11-18T11:30:58.000Z</time>
      </trkpt>
      <trkpt lat="42.6776" lon="1.6435">
        <ele>1567</ele>
        <time>2018-11-18T11:31:00.000Z</time>
      </trkpt>
      <trkpt lat="42.6776" lon="1.64347">
        <ele>1567</ele>
        <time>2018-11-18T11:31:02.000Z</time>
      </trkpt>
      <trkpt lat="42.67761" lon="1.64345">
        <ele>1567</ele>
        <time>2018-11-18T11:31:04.000Z</time>
      </trkpt>
      <trkpt lat="42.67761" lon="1.64342">
        <ele>1566</ele>
        <time>2018-11-18T11:31:06.000Z</time>
      </trkpt>
      <trkpt lat="42.67762" lon="1.64339">
        <ele>1566</ele>
        <time>2018-11-18T11:31:08.000Z</time>
      </trkpt>
      <trkpt lat="42.67762" lon="1.64336">
        <ele>1566</ele>
        <time>2018-11-18T11:31:10.000Z</time>
      </trkpt>
      <trkpt lat="42.67762" lon="1.64334">
        <ele>1566</ele>
        <time>2018-11-18T11:31:12.000Z</time>
      </trkpt>
      <trkpt lat="42.67763" lon="1.64331">
        <ele>1566</ele>
        <time>2018-11-18T11:31:14.000Z</time>
      </trkpt>
      <trkpt lat="42.67764" lon="1.64329">
        <ele>1566</ele>
        <time>2018-11-18T11:31:16.000Z</time>
      </trkpt>
      <trkpt lat="42.67764" lon="1.64327">
        <ele>1566</ele>
        <time>2018-11-18T11:31:18.000Z</time>
      </trkpt>
      <trkpt lat="42.67765" lon="1.64324">
        <ele>1566</ele>
        <time>2018-11-18T11:31:20.000Z</time>
      </trkpt>
      <trkpt lat="42.67765" lon="1.64322">
        <ele>1566</ele>
        <time>2018-11-18T11:31:22.000Z</time>
      </trkpt>
      <trkpt lat="42.67766" lon="1.6432">
        <ele>1566</ele>
        <time>2018-11-18T11:31:24.000Z</time>
      </trkpt>
      <trkpt lat="42.67766" lon="1.64318">
        <ele>1566</ele>
        <time>2018-11-18T11:31:26.000Z</time>
      </trkpt>
      <trkpt lat="42.67766" lon="1.64316">
        <ele>1566</ele>
        <time>2018-11-18T11:31:28.000Z</time>
      </trkpt>
      <trkpt lat="42.67766" lon="1.64314">
        <ele>1566</ele>
        <time>2018-11-18T11:31:30.000Z</time>
      </trkpt>
      <trkpt lat="42.67766" lon="1.6431">
        <ele>1567</ele>
        <time>2018-11-18T11:31:32.000Z</time>
      </trkpt>
      <trkpt lat="42.67767" lon="1.64308">
        <ele>1567</ele>
        <time>2018-11-18T11:31:34.000Z</time>
      </trkpt>
      <trkpt lat="42.67767" lon="1.64306">
        <ele>1567</ele>
        <time>2018-11-18T11:31:36.000Z</time>
      </trkpt>
      <trkpt lat="42.67768" lon="1.64305">
        <ele>1567</ele>
        <time>2018-11-18T11:31:38.000Z</time>
      </trkpt>
      <trkpt lat="42.67768" lon="1.64304">
        <ele>1567</ele>
        <time>2018-11-18T11:31:40.000Z</time>
      </trkpt>
      <trkpt lat="42.67768" lon="1.64304">
        <ele>1567</ele>
        <time>2018-11-18T11:31:42.000Z</time>
      </trkpt>
      <trkpt lat="42.67768" lon="1.64303">
        <ele>1567</ele>
        <time>2018-11-18T11:31:44.000Z</time>
      </trkpt>
      <trkpt lat="42.67768" lon="1.64302">
        <ele>1567</ele>
        <time>2018-11-18T11:31:46.000Z</time>
      </trkpt>
      <trkpt lat="42.67767" lon="1.64301">
        <ele>1567</ele>
        <time>2018-11-18T11:31:48.000Z</time>
      </trkpt>
      <trkpt lat="42.67767" lon="1.64301">
        <ele>1567</ele>
        <time>2018-11-18T11:31:50.000Z</time>
      </trkpt>
      <trkpt lat="42.67766" lon="1.643">
        <ele>1567</ele>
        <time>2018-11-18T11:31:52.000Z</time>
      </trkpt>
      <trkpt lat="42.67766" lon="1.64299">
        <ele>1567</ele>
        <time>2018-11-18T11:31:54.000Z</time>
      </trkpt>
      <trkpt lat="42.67766" lon="1.64298">
        <ele>1567</ele>
        <time>2018-11-18T11:31:56.000Z</time>
      </trkpt>
      <trkpt lat="42.67765" lon="1.64296">
        <ele>1567</ele>
        <time>2018-11-18T11:31:58.000Z</time>
      </trkpt>
      <trkpt lat="42.67764" lon="1.64295">
        <ele>1568</ele>
        <time>2018-11-18T11:32:00.000Z</time>
      </trkpt>
      <trkpt lat="42.67763" lon="1.64293">
        <ele>1568</ele>
        <time>2018-11-18T11:32:02.000Z</time>
      </trkpt>
      <trkpt lat="42.67764" lon="1.64291">
        <ele>1568</ele>
        <time>2018-11-18T11:32:04.000Z</time>
      </trkpt>
      <trkpt lat="42.67764" lon="1.6429">
        <ele>1568</ele>
        <time>2018-11-18T11:32:06.000Z</time>
      </trkpt>
      <trkpt lat="42.67765" lon="1.6429">
        <ele>1568</ele>
        <time>2018-11-18T11:32:08.000Z</time>
      </trkpt>
      <trkpt lat="42.67765" lon="1.64289">
        <ele>1568</ele>
        <time>2018-11-18T11:32:10.000Z</time>
      </trkpt>
      <trkpt lat="42.67765" lon="1.64289">
        <ele>1568</ele>
        <time>2018-11-18T11:32:12.000Z</time>
      </trkpt>
      <trkpt lat="42.67765" lon="1.6429">
        <ele>1568</ele>
        <time>2018-11-18T11:32:14.000Z</time>
      </trkpt>
      <trkpt lat="42.67765" lon="1.6429">
        <ele>1568</ele>
        <time>2018-11-18T11:32:16.000Z</time>
      </trkpt>
      <trkpt lat="42.67765" lon="1.6429">
        <ele>1568</ele>
        <time>2018-11-18T11:32:18.000Z</time>
      </trkpt>
      <trkpt lat="42.67765" lon="1.6429">
        <ele>1568</ele>
        <time>2018-11-18T11:32:20.000Z</time>
      </trkpt>
      <trkpt lat="42.67765" lon="1.6429">
        <ele>1568</ele>
        <time>2018-11-18T11:32:22.000Z</time>
      </trkpt>
      <trkpt lat="42.67765" lon="1.6429">
        <ele>1568</ele>
        <time>2018-11-18T11:32:24.000Z</time>
      </trkpt>
      <trkpt lat="42.67765" lon="1.6429">
        <ele>1568</ele>
        <time>2018-11-18T11:32:26.000Z</time>
      </trkpt>
      <trkpt lat="42.67765" lon="1.64291">
        <ele>1568</ele>
        <time>2018-11-18T11:32:28.000Z</time>
      </trkpt>
      <trkpt lat="42.67765" lon="1.64291">
        <ele>1568</ele>
        <time>2018-11-18T11:32:30.000Z</time>
      </trkpt>
      <trkpt lat="42.67764" lon="1.64291">
        <ele>1568</ele>
        <time>2018-11-18T11:32:32.000Z</time>
      </trkpt>
      <trkpt lat="42.67765" lon="1.6429">
        <ele>1568</ele>
        <time>2018-11-18T11:32:34.000Z</time>
      </trkpt>
      <trkpt lat="42.67764" lon="1.6429">
        <ele>1568</ele>
        <time>2018-11-18T11:32:36.000Z</time>
      </trkpt>
      <trkpt lat="42.67765" lon="1.64291">
        <ele>1568</ele>
        <time>2018-11-18T11:32:38.000Z</time>
      </trkpt>
      <trkpt lat="42.67765" lon="1.64293">
        <ele>1568</ele>
        <time>2018-11-18T11:32:40.000Z</time>
      </trkpt>
      <trkpt lat="42.67764" lon="1.64294">
        <ele>1568</ele>
        <time>2018-11-18T11:32:42.000Z</time>
      </trkpt>
      <trkpt lat="42.67764" lon="1.64293">
        <ele>1568</ele>
        <time>2018-11-18T11:32:44.000Z</time>
      </trkpt>
      <trkpt lat="42.67764" lon="1.64294">
        <ele>1568</ele>
        <time>2018-11-18T11:32:46.000Z</time>
      </trkpt>
      <trkpt lat="42.67764" lon="1.64294">
        <ele>1568</ele>
        <time>2018-11-18T11:32:48.000Z</time>
      </trkpt>
      <trkpt lat="42.67764" lon="1.64293">
        <ele>1568</ele>
        <time>2018-11-18T11:32:50.000Z</time>
      </trkpt>
      <trkpt lat="42.67764" lon="1.64293">
        <ele>1568</ele>
        <time>2018-11-18T11:32:52.000Z</time>
      </trkpt>
      <trkpt lat="42.67764" lon="1.64292">
        <ele>1568</ele>
        <time>2018-11-18T11:32:54.000Z</time>
      </trkpt>
      <trkpt lat="42.67764" lon="1.64292">
        <ele>1568</ele>
        <time>2018-11-18T11:32:56.000Z</time>
      </trkpt>
      <trkpt lat="42.67765" lon="1.64292">
        <ele>1568</ele>
        <time>2018-11-18T11:32:58.000Z</time>
      </trkpt>
      <trkpt lat="42.67765" lon="1.64291">
        <ele>1568</ele>
        <time>2018-11-18T11:33:00.000Z</time>
      </trkpt>
      <trkpt lat="42.67765" lon="1.64291">
        <ele>1568</ele>
        <time>2018-11-18T11:33:02.000Z</time>
      </trkpt>
      <trkpt lat="42.67766" lon="1.64291">
        <ele>1568</ele>
        <time>2018-11-18T11:33:04.000Z</time>
      </trkpt>
      <trkpt lat="42.67765" lon="1.64291">
        <ele>1568</ele>
        <time>2018-11-18T11:33:06.000Z</time>
      </trkpt>
      <trkpt lat="42.67765" lon="1.64291">
        <ele>1568</ele>
        <time>2018-11-18T11:33:08.000Z</time>
      </trkpt>
      <trkpt lat="42.67765" lon="1.64291">
        <ele>1568</ele>
        <time>2018-11-18T11:33:10.000Z</time>
      </trkpt>
      <trkpt lat="42.67764" lon="1.64291">
        <ele>1568</ele>
        <time>2018-11-18T11:33:12.000Z</time>
      </trkpt>
      <trkpt lat="42.67764" lon="1.64291">
        <ele>1568</ele>
        <time>2018-11-18T11:33:14.000Z</time>
      </trkpt>
      <trkpt lat="42.67763" lon="1.64291">
        <ele>1568</ele>
        <time>2018-11-18T11:33:16.000Z</time>
      </trkpt>
      <trkpt lat="42.67763" lon="1.64291">
        <ele>1568</ele>
        <time>2018-11-18T11:33:18.000Z</time>
      </trkpt>
      <trkpt lat="42.67763" lon="1.64291">
        <ele>1568</ele>
        <time>2018-11-18T11:33:20.000Z</time>
      </trkpt>
      <trkpt lat="42.67763" lon="1.64291">
        <ele>1568</ele>
        <time>2018-11-18T11:33:22.000Z</time>
      </trkpt>
      <trkpt lat="42.67763" lon="1.64291">
        <ele>1568</ele>
        <time>2018-11-18T11:33:24.000Z</time>
      </trkpt>
      <trkpt lat="42.67763" lon="1.64291">
        <ele>1568</ele>
        <time>2018-11-18T11:33:26.000Z</time>
      </trkpt>
      <trkpt lat="42.67763" lon="1.64292">
        <ele>1568</ele>
        <time>2018-11-18T11:33:28.000Z</time>
      </trkpt>
      <trkpt lat="42.67763" lon="1.64292">
        <ele>1568</ele>
        <time>2018-11-18T11:33:30.000Z</time>
      </trkpt>
      <trkpt lat="42.67763" lon="1.64293">
        <ele>1568</ele>
        <time>2018-11-18T11:33:32.000Z</time>
      </trkpt>
      <trkpt lat="42.67763" lon="1.64293">
        <ele>1568</ele>
        <time>2018-11-18T11:33:34.000Z</time>
      </trkpt>
      <trkpt lat="42.67763" lon="1.64293">
        <ele>1568</ele>
        <time>2018-11-18T11:33:36.000Z</time>
      </trkpt>
      <trkpt lat="42.67763" lon="1.64293">
        <ele>1568</ele>
        <time>2018-11-18T11:33:38.000Z</time>
      </trkpt>
      <trkpt lat="42.67763" lon="1.64293">
        <ele>1568</ele>
        <time>2018-11-18T11:33:40.000Z</time>
      </trkpt>
      <trkpt lat="42.67763" lon="1.64293">
        <ele>1568</ele>
        <time>2018-11-18T11:33:42.000Z</time>
      </trkpt>
      <trkpt lat="42.67763" lon="1.64292">
        <ele>1568</ele>
        <time>2018-11-18T11:33:44.000Z</time>
      </trkpt>
      <trkpt lat="42.67763" lon="1.64292">
        <ele>1568</ele>
        <time>2018-11-18T11:33:46.000Z</time>
      </trkpt>
      <trkpt lat="42.67763" lon="1.64293">
        <ele>1568</ele>
        <time>2018-11-18T11:33:48.000Z</time>
      </trkpt>
      <trkpt lat="42.67762" lon="1.64293">
        <ele>1568</ele>
        <time>2018-11-18T11:33:50.000Z</time>
      </trkpt>
      <trkpt lat="42.67763" lon="1.64293">
        <ele>1568</ele>
        <time>2018-11-18T11:33:52.000Z</time>
      </trkpt>
      <trkpt lat="42.67763" lon="1.64293">
        <ele>1568</ele>
        <time>2018-11-18T11:33:54.000Z</time>
      </trkpt>
      <trkpt lat="42.67763" lon="1.64293">
        <ele>1568</ele>
        <time>2018-11-18T11:33:56.000Z</time>
      </trkpt>
      <trkpt lat="42.67763" lon="1.64293">
        <ele>1568</ele>
        <time>2018-11-18T11:33:58.000Z</time>
      </trkpt>
      <trkpt lat="42.67763" lon="1.64292">
        <ele>1568</ele>
        <time>2018-11-18T11:34:00.000Z</time>
      </trkpt>
      <trkpt lat="42.67763" lon="1.64292">
        <ele>1568</ele>
        <time>2018-11-18T11:34:02.000Z</time>
      </trkpt>
      <trkpt lat="42.67763" lon="1.64291">
        <ele>1568</ele>
        <time>2018-11-18T11:34:04.000Z</time>
      </trkpt>
      <trkpt lat="42.67763" lon="1.64291">
        <ele>1568</ele>
        <time>2018-11-18T11:34:06.000Z</time>
      </trkpt>
      <trkpt lat="42.67763" lon="1.64291">
        <ele>1568</ele>
        <time>2018-11-18T11:34:08.000Z</time>
      </trkpt>
      <trkpt lat="42.67764" lon="1.6429">
        <ele>1568</ele>
        <time>2018-11-18T11:34:10.000Z</time>
      </trkpt>
      <trkpt lat="42.67764" lon="1.64289">
        <ele>1568</ele>
        <time>2018-11-18T11:34:12.000Z</time>
      </trkpt>
      <trkpt lat="42.67765" lon="1.64289">
        <ele>1568</ele>
        <time>2018-11-18T11:34:14.000Z</time>
      </trkpt>
      <trkpt lat="42.67765" lon="1.64289">
        <ele>1568</ele>
        <time>2018-11-18T11:34:16.000Z</time>
      </trkpt>
      <trkpt lat="42.67765" lon="1.64289">
        <ele>1568</ele>
        <time>2018-11-18T11:34:18.000Z</time>
      </trkpt>
      <trkpt lat="42.67765" lon="1.6429">
        <ele>1568</ele>
        <time>2018-11-18T11:34:20.000Z</time>
      </trkpt>
      <trkpt lat="42.67765" lon="1.64291">
        <ele>1568</ele>
        <time>2018-11-18T11:34:22.000Z</time>
      </trkpt>
      <trkpt lat="42.67765" lon="1.64293">
        <ele>1568</ele>
        <time>2018-11-18T11:34:24.000Z</time>
      </trkpt>
      <trkpt lat="42.67764" lon="1.64293">
        <ele>1568</ele>
        <time>2018-11-18T11:34:26.000Z</time>
      </trkpt>
      <trkpt lat="42.67764" lon="1.64293">
        <ele>1568</ele>
        <time>2018-11-18T11:34:28.000Z</time>
      </trkpt>
      <trkpt lat="42.67764" lon="1.64293">
        <ele>1568</ele>
        <time>2018-11-18T11:34:30.000Z</time>
      </trkpt>
      <trkpt lat="42.67764" lon="1.64293">
        <ele>1568</ele>
        <time>2018-11-18T11:34:32.000Z</time>
      </trkpt>
      <trkpt lat="42.67764" lon="1.64294">
        <ele>1568</ele>
        <time>2018-11-18T11:34:34.000Z</time>
      </trkpt>
      <trkpt lat="42.67764" lon="1.64294">
        <ele>1568</ele>
        <time>2018-11-18T11:34:36.000Z</time>
      </trkpt>
      <trkpt lat="42.67764" lon="1.64294">
        <ele>1568</ele>
        <time>2018-11-18T11:34:38.000Z</time>
      </trkpt>
      <trkpt lat="42.67764" lon="1.64294">
        <ele>1568</ele>
        <time>2018-11-18T11:34:40.000Z</time>
      </trkpt>
      <trkpt lat="42.67764" lon="1.64294">
        <ele>1568</ele>
        <time>2018-11-18T11:34:42.000Z</time>
      </trkpt>
      <trkpt lat="42.67764" lon="1.64294">
        <ele>1568</ele>
        <time>2018-11-18T11:34:44.000Z</time>
      </trkpt>
      <trkpt lat="42.67764" lon="1.64294">
        <ele>1568</ele>
        <time>2018-11-18T11:34:46.000Z</time>
      </trkpt>
      <trkpt lat="42.67764" lon="1.64294">
        <ele>1568</ele>
        <time>2018-11-18T11:34:48.000Z</time>
      </trkpt>
      <trkpt lat="42.67764" lon="1.64294">
        <ele>1568</ele>
        <time>2018-11-18T11:34:50.000Z</time>
      </trkpt>
      <trkpt lat="42.67764" lon="1.64294">
        <ele>1568</ele>
        <time>2018-11-18T11:34:52.000Z</time>
      </trkpt>
      <trkpt lat="42.67764" lon="1.64293">
        <ele>1568</ele>
        <time>2018-11-18T11:34:54.000Z</time>
      </trkpt>
      <trkpt lat="42.67764" lon="1.64293">
        <ele>1568</ele>
        <time>2018-11-18T11:34:56.000Z</time>
      </trkpt>
      <trkpt lat="42.67764" lon="1.64294">
        <ele>1568</ele>
        <time>2018-11-18T11:34:58.000Z</time>
      </trkpt>
      <trkpt lat="42.67764" lon="1.64293">
        <ele>1568</ele>
        <time>2018-11-18T11:35:00.000Z</time>
      </trkpt>
      <trkpt lat="42.67764" lon="1.64293">
        <ele>1568</ele>
        <time>2018-11-18T11:35:02.000Z</time>
      </trkpt>
      <trkpt lat="42.67764" lon="1.64293">
        <ele>1568</ele>
        <time>2018-11-18T11:35:04.000Z</time>
      </trkpt>
      <trkpt lat="42.67764" lon="1.64293">
        <ele>1568</ele>
        <time>2018-11-18T11:35:06.000Z</time>
      </trkpt>
      <trkpt lat="42.67764" lon="1.64293">
        <ele>1568</ele>
        <time>2018-11-18T11:35:08.000Z</time>
      </trkpt>
      <trkpt lat="42.67764" lon="1.64293">
        <ele>1568</ele>
        <time>2018-11-18T11:35:10.000Z</time>
      </trkpt>
      <trkpt lat="42.67764" lon="1.64293">
        <ele>1568</ele>
        <time>2018-11-18T11:35:12.000Z</time>
      </trkpt>
      <trkpt lat="42.67764" lon="1.64293">
        <ele>1568</ele>
        <time>2018-11-18T11:35:14.000Z</time>
      </trkpt>
      <trkpt lat="42.67764" lon="1.64293">
        <ele>1568</ele>
        <time>2018-11-18T11:35:16.000Z</time>
      </trkpt>
      <trkpt lat="42.67764" lon="1.64293">
        <ele>1568</ele>
        <time>2018-11-18T11:35:18.000Z</time>
      </trkpt>
      <trkpt lat="42.67764" lon="1.64293">
        <ele>1568</ele>
        <time>2018-11-18T11:35:20.000Z</time>
      </trkpt>
      <trkpt lat="42.67764" lon="1.64292">
        <ele>1568</ele>
        <time>2018-11-18T11:35:22.000Z</time>
      </trkpt>
      <trkpt lat="42.67764" lon="1.64292">
        <ele>1568</ele>
        <time>2018-11-18T11:35:24.000Z</time>
      </trkpt>
      <trkpt lat="42.67764" lon="1.64292">
        <ele>1568</ele>
        <time>2018-11-18T11:35:26.000Z</time>
      </trkpt>
      <trkpt lat="42.67764" lon="1.64292">
        <ele>1568</ele>
        <time>2018-11-18T11:35:28.000Z</time>
      </trkpt>
      <trkpt lat="42.67764" lon="1.64292">
        <ele>1568</ele>
        <time>2018-11-18T11:35:30.000Z</time>
      </trkpt>
      <trkpt lat="42.67764" lon="1.64293">
        <ele>1568</ele>
        <time>2018-11-18T11:35:32.000Z</time>
      </trkpt>
      <trkpt lat="42.67764" lon="1.64293">
        <ele>1568</ele>
        <time>2018-11-18T11:35:34.000Z</time>
      </trkpt>
      <trkpt lat="42.67765" lon="1.64294">
        <ele>1568</ele>
        <time>2018-11-18T11:35:36.000Z</time>
      </trkpt>
      <trkpt lat="42.67765" lon="1.64295">
        <ele>1567</ele>
        <time>2018-11-18T11:35:38.000Z</time>
      </trkpt>
      <trkpt lat="42.67764" lon="1.64295">
        <ele>1567</ele>
        <time>2018-11-18T11:35:40.000Z</time>
      </trkpt>
      <trkpt lat="42.67764" lon="1.64295">
        <ele>1567</ele>
        <time>2018-11-18T11:35:42.000Z</time>
      </trkpt>
      <trkpt lat="42.67764" lon="1.64295">
        <ele>1567</ele>
        <time>2018-11-18T11:35:44.000Z</time>
      </trkpt>
      <trkpt lat="42.67764" lon="1.64295">
        <ele>1567</ele>
        <time>2018-11-18T11:35:46.000Z</time>
      </trkpt>
      <trkpt lat="42.67764" lon="1.64294">
        <ele>1568</ele>
        <time>2018-11-18T11:35:48.000Z</time>
      </trkpt>
      <trkpt lat="42.67764" lon="1.64293">
        <ele>1568</ele>
        <time>2018-11-18T11:35:50.000Z</time>
      </trkpt>
      <trkpt lat="42.67764" lon="1.64293">
        <ele>1568</ele>
        <time>2018-11-18T11:35:52.000Z</time>
      </trkpt>
      <trkpt lat="42.67764" lon="1.64293">
        <ele>1568</ele>
        <time>2018-11-18T11:35:54.000Z</time>
      </trkpt>
      <trkpt lat="42.67764" lon="1.64293">
        <ele>1568</ele>
        <time>2018-11-18T11:35:56.000Z</time>
      </trkpt>
      <trkpt lat="42.67764" lon="1.64293">
        <ele>1568</ele>
        <time>2018-11-18T11:35:58.000Z</time>
      </trkpt>
      <trkpt lat="42.67764" lon="1.64293">
        <ele>1568</ele>
        <time>2018-11-18T11:36:00.000Z</time>
      </trkpt>
      <trkpt lat="42.67764" lon="1.64293">
        <ele>1568</ele>
        <time>2018-11-18T11:36:02.000Z</time>
      </trkpt>
      <trkpt lat="42.67765" lon="1.64293">
        <ele>1568</ele>
        <time>2018-11-18T11:36:04.000Z</time>
      </trkpt>
      <trkpt lat="42.67766" lon="1.64294">
        <ele>1567</ele>
        <time>2018-11-18T11:36:06.000Z</time>
      </trkpt>
      <trkpt lat="42.67767" lon="1.64295">
        <ele>1567</ele>
        <time>2018-11-18T11:36:08.000Z</time>
      </trkpt>
      <trkpt lat="42.67768" lon="1.64296">
        <ele>1567</ele>
        <time>2018-11-18T11:36:10.000Z</time>
      </trkpt>
      <trkpt lat="42.67768" lon="1.64298">
        <ele>1567</ele>
        <time>2018-11-18T11:36:12.000Z</time>
      </trkpt>
      <trkpt lat="42.67769" lon="1.64299">
        <ele>1567</ele>
        <time>2018-11-18T11:36:14.000Z</time>
      </trkpt>
      <trkpt lat="42.67769" lon="1.643">
        <ele>1567</ele>
        <time>2018-11-18T11:36:16.000Z</time>
      </trkpt>
      <trkpt lat="42.67769" lon="1.64301">
        <ele>1567</ele>
        <time>2018-11-18T11:36:18.000Z</time>
      </trkpt>
      <trkpt lat="42.67769" lon="1.64303">
        <ele>1567</ele>
        <time>2018-11-18T11:36:20.000Z</time>
      </trkpt>
      <trkpt lat="42.67768" lon="1.64305">
        <ele>1567</ele>
        <time>2018-11-18T11:36:22.000Z</time>
      </trkpt>
      <trkpt lat="42.67768" lon="1.64307">
        <ele>1567</ele>
        <time>2018-11-18T11:36:24.000Z</time>
      </trkpt>
      <trkpt lat="42.67768" lon="1.6431">
        <ele>1567</ele>
        <time>2018-11-18T11:36:26.000Z</time>
      </trkpt>
      <trkpt lat="42.67768" lon="1.64312">
        <ele>1566</ele>
        <time>2018-11-18T11:36:28.000Z</time>
      </trkpt>
      <trkpt lat="42.67767" lon="1.64314">
        <ele>1566</ele>
        <time>2018-11-18T11:36:30.000Z</time>
      </trkpt>
      <trkpt lat="42.67767" lon="1.64315">
        <ele>1566</ele>
        <time>2018-11-18T11:36:32.000Z</time>
      </trkpt>
      <trkpt lat="42.67765" lon="1.64317">
        <ele>1566</ele>
        <time>2018-11-18T11:36:34.000Z</time>
      </trkpt>
      <trkpt lat="42.67764" lon="1.64317">
        <ele>1566</ele>
        <time>2018-11-18T11:36:36.000Z</time>
      </trkpt>
      <trkpt lat="42.67762" lon="1.64318">
        <ele>1567</ele>
        <time>2018-11-18T11:36:38.000Z</time>
      </trkpt>
      <trkpt lat="42.67761" lon="1.64318">
        <ele>1567</ele>
        <time>2018-11-18T11:36:40.000Z</time>
      </trkpt>
      <trkpt lat="42.67759" lon="1.64317">
        <ele>1567</ele>
        <time>2018-11-18T11:36:42.000Z</time>
      </trkpt>
      <trkpt lat="42.67757" lon="1.64316">
        <ele>1567</ele>
        <time>2018-11-18T11:36:44.000Z</time>
      </trkpt>
      <trkpt lat="42.67755" lon="1.64314">
        <ele>1567</ele>
        <time>2018-11-18T11:36:46.000Z</time>
      </trkpt>
      <trkpt lat="42.67754" lon="1.64313">
        <ele>1567</ele>
        <time>2018-11-18T11:36:48.000Z</time>
      </trkpt>
      <trkpt lat="42.67753" lon="1.64311">
        <ele>1567</ele>
        <time>2018-11-18T11:36:50.000Z</time>
      </trkpt>
      <trkpt lat="42.67751" lon="1.64309">
        <ele>1568</ele>
        <time>2018-11-18T11:36:52.000Z</time>
      </trkpt>
      <trkpt lat="42.6775" lon="1.64307">
        <ele>1568</ele>
        <time>2018-11-18T11:36:54.000Z</time>
      </trkpt>
      <trkpt lat="42.67749" lon="1.64305">
        <ele>1568</ele>
        <time>2018-11-18T11:36:56.000Z</time>
      </trkpt>
      <trkpt lat="42.67747" lon="1.64303">
        <ele>1568</ele>
        <time>2018-11-18T11:36:58.000Z</time>
      </trkpt>
      <trkpt lat="42.67746" lon="1.64301">
        <ele>1569</ele>
        <time>2018-11-18T11:37:00.000Z</time>
      </trkpt>
      <trkpt lat="42.67744" lon="1.64299">
        <ele>1569</ele>
        <time>2018-11-18T11:37:02.000Z</time>
      </trkpt>
      <trkpt lat="42.67744" lon="1.64297">
        <ele>1569</ele>
        <time>2018-11-18T11:37:04.000Z</time>
      </trkpt>
      <trkpt lat="42.67743" lon="1.64296">
        <ele>1569</ele>
        <time>2018-11-18T11:37:06.000Z</time>
      </trkpt>
      <trkpt lat="42.67742" lon="1.64295">
        <ele>1569</ele>
        <time>2018-11-18T11:37:08.000Z</time>
      </trkpt>
      <trkpt lat="42.6774" lon="1.64293">
        <ele>1569</ele>
        <time>2018-11-18T11:37:10.000Z</time>
      </trkpt>
      <trkpt lat="42.67739" lon="1.64293">
        <ele>1570</ele>
        <time>2018-11-18T11:37:12.000Z</time>
      </trkpt>
      <trkpt lat="42.67737" lon="1.64293">
        <ele>1570</ele>
        <time>2018-11-18T11:37:14.000Z</time>
      </trkpt>
      <trkpt lat="42.67736" lon="1.64292">
        <ele>1570</ele>
        <time>2018-11-18T11:37:16.000Z</time>
      </trkpt>
      <trkpt lat="42.67734" lon="1.64292">
        <ele>1570</ele>
        <time>2018-11-18T11:37:18.000Z</time>
      </trkpt>
      <trkpt lat="42.67733" lon="1.6429">
        <ele>1570</ele>
        <time>2018-11-18T11:37:20.000Z</time>
      </trkpt>
      <trkpt lat="42.67733" lon="1.64289">
        <ele>1570</ele>
        <time>2018-11-18T11:37:22.000Z</time>
      </trkpt>
      <trkpt lat="42.67732" lon="1.64289">
        <ele>1570</ele>
        <time>2018-11-18T11:37:24.000Z</time>
      </trkpt>
      <trkpt lat="42.67733" lon="1.64287">
        <ele>1570</ele>
        <time>2018-11-18T11:37:26.000Z</time>
      </trkpt>
      <trkpt lat="42.67733" lon="1.64286">
        <ele>1571</ele>
        <time>2018-11-18T11:37:28.000Z</time>
      </trkpt>
      <trkpt lat="42.67732" lon="1.64285">
        <ele>1571</ele>
        <time>2018-11-18T11:37:30.000Z</time>
      </trkpt>
      <trkpt lat="42.67732" lon="1.64283">
        <ele>1571</ele>
        <time>2018-11-18T11:37:32.000Z</time>
      </trkpt>
      <trkpt lat="42.67732" lon="1.64282">
        <ele>1571</ele>
        <time>2018-11-18T11:37:34.000Z</time>
      </trkpt>
      <trkpt lat="42.67731" lon="1.64282">
        <ele>1571</ele>
        <time>2018-11-18T11:37:36.000Z</time>
      </trkpt>
      <trkpt lat="42.67731" lon="1.64282">
        <ele>1571</ele>
        <time>2018-11-18T11:37:38.000Z</time>
      </trkpt>
      <trkpt lat="42.6773" lon="1.64281">
        <ele>1571</ele>
        <time>2018-11-18T11:37:40.000Z</time>
      </trkpt>
      <trkpt lat="42.6773" lon="1.6428">
        <ele>1571</ele>
        <time>2018-11-18T11:37:42.000Z</time>
      </trkpt>
      <trkpt lat="42.67729" lon="1.6428">
        <ele>1571</ele>
        <time>2018-11-18T11:37:44.000Z</time>
      </trkpt>
      <trkpt lat="42.67727" lon="1.6428">
        <ele>1571</ele>
        <time>2018-11-18T11:37:46.000Z</time>
      </trkpt>
      <trkpt lat="42.67726" lon="1.6428">
        <ele>1571</ele>
        <time>2018-11-18T11:37:48.000Z</time>
      </trkpt>
      <trkpt lat="42.67725" lon="1.64281">
        <ele>1572</ele>
        <time>2018-11-18T11:37:50.000Z</time>
      </trkpt>
      <trkpt lat="42.67724" lon="1.64282">
        <ele>1572</ele>
        <time>2018-11-18T11:37:52.000Z</time>
      </trkpt>
      <trkpt lat="42.67722" lon="1.64282">
        <ele>1572</ele>
        <time>2018-11-18T11:37:54.000Z</time>
      </trkpt>
      <trkpt lat="42.67721" lon="1.64282">
        <ele>1572</ele>
        <time>2018-11-18T11:37:56.000Z</time>
      </trkpt>
      <trkpt lat="42.6772" lon="1.6428">
        <ele>1572</ele>
        <time>2018-11-18T11:37:58.000Z</time>
      </trkpt>
      <trkpt lat="42.67719" lon="1.64279">
        <ele>1572</ele>
        <time>2018-11-18T11:38:00.000Z</time>
      </trkpt>
      <trkpt lat="42.67719" lon="1.64279">
        <ele>1572</ele>
        <time>2018-11-18T11:38:02.000Z</time>
      </trkpt>
      <trkpt lat="42.67718" lon="1.64278">
        <ele>1572</ele>
        <time>2018-11-18T11:38:04.000Z</time>
      </trkpt>
      <trkpt lat="42.67717" lon="1.64277">
        <ele>1572</ele>
        <time>2018-11-18T11:38:06.000Z</time>
      </trkpt>
      <trkpt lat="42.67716" lon="1.64277">
        <ele>1573</ele>
        <time>2018-11-18T11:38:08.000Z</time>
      </trkpt>
      <trkpt lat="42.67716" lon="1.64278">
        <ele>1573</ele>
        <time>2018-11-18T11:38:10.000Z</time>
      </trkpt>
      <trkpt lat="42.67714" lon="1.64278">
        <ele>1573</ele>
        <time>2018-11-18T11:38:12.000Z</time>
      </trkpt>
      <trkpt lat="42.67713" lon="1.64277">
        <ele>1573</ele>
        <time>2018-11-18T11:38:14.000Z</time>
      </trkpt>
      <trkpt lat="42.67712" lon="1.64277">
        <ele>1573</ele>
        <time>2018-11-18T11:38:16.000Z</time>
      </trkpt>
      <trkpt lat="42.67712" lon="1.64275">
        <ele>1573</ele>
        <time>2018-11-18T11:38:18.000Z</time>
      </trkpt>
      <trkpt lat="42.67711" lon="1.64273">
        <ele>1573</ele>
        <time>2018-11-18T11:38:20.000Z</time>
      </trkpt>
      <trkpt lat="42.67711" lon="1.64271">
        <ele>1573</ele>
        <time>2018-11-18T11:38:22.000Z</time>
      </trkpt>
      <trkpt lat="42.67711" lon="1.6427">
        <ele>1573</ele>
        <time>2018-11-18T11:38:24.000Z</time>
      </trkpt>
      <trkpt lat="42.67711" lon="1.64269">
        <ele>1573</ele>
        <time>2018-11-18T11:38:26.000Z</time>
      </trkpt>
      <trkpt lat="42.6771" lon="1.64268">
        <ele>1574</ele>
        <time>2018-11-18T11:38:28.000Z</time>
      </trkpt>
      <trkpt lat="42.6771" lon="1.64268">
        <ele>1574</ele>
        <time>2018-11-18T11:38:30.000Z</time>
      </trkpt>
      <trkpt lat="42.67711" lon="1.64268">
        <ele>1574</ele>
        <time>2018-11-18T11:38:32.000Z</time>
      </trkpt>
      <trkpt lat="42.67711" lon="1.64268">
        <ele>1574</ele>
        <time>2018-11-18T11:38:34.000Z</time>
      </trkpt>
      <trkpt lat="42.67711" lon="1.64267">
        <ele>1574</ele>
        <time>2018-11-18T11:38:36.000Z</time>
      </trkpt>
      <trkpt lat="42.67711" lon="1.64267">
        <ele>1573</ele>
        <time>2018-11-18T11:38:38.000Z</time>
      </trkpt>
      <trkpt lat="42.67711" lon="1.64267">
        <ele>1573</ele>
        <time>2018-11-18T11:38:40.000Z</time>
      </trkpt>
      <trkpt lat="42.67711" lon="1.64267">
        <ele>1574</ele>
        <time>2018-11-18T11:38:42.000Z</time>
      </trkpt>
      <trkpt lat="42.6771" lon="1.64265">
        <ele>1574</ele>
        <time>2018-11-18T11:38:44.000Z</time>
      </trkpt>
      <trkpt lat="42.67708" lon="1.64262">
        <ele>1574</ele>
        <time>2018-11-18T11:38:46.000Z</time>
      </trkpt>
      <trkpt lat="42.67708" lon="1.64261">
        <ele>1574</ele>
        <time>2018-11-18T11:38:48.000Z</time>
      </trkpt>
      <trkpt lat="42.67707" lon="1.64261">
        <ele>1574</ele>
        <time>2018-11-18T11:38:50.000Z</time>
      </trkpt>
      <trkpt lat="42.67707" lon="1.64262">
        <ele>1574</ele>
        <time>2018-11-18T11:38:52.000Z</time>
      </trkpt>
      <trkpt lat="42.67707" lon="1.64262">
        <ele>1574</ele>
        <time>2018-11-18T11:38:54.000Z</time>
      </trkpt>
      <trkpt lat="42.67707" lon="1.64261">
        <ele>1574</ele>
        <time>2018-11-18T11:38:56.000Z</time>
      </trkpt>
      <trkpt lat="42.67707" lon="1.64261">
        <ele>1574</ele>
        <time>2018-11-18T11:38:58.000Z</time>
      </trkpt>
      <trkpt lat="42.67707" lon="1.64261">
        <ele>1574</ele>
        <time>2018-11-18T11:39:00.000Z</time>
      </trkpt>
      <trkpt lat="42.67707" lon="1.64261">
        <ele>1574</ele>
        <time>2018-11-18T11:39:02.000Z</time>
      </trkpt>
      <trkpt lat="42.67707" lon="1.64261">
        <ele>1574</ele>
        <time>2018-11-18T11:39:04.000Z</time>
      </trkpt>
      <trkpt lat="42.67705" lon="1.64261">
        <ele>1574</ele>
        <time>2018-11-18T11:39:06.000Z</time>
      </trkpt>
      <trkpt lat="42.67704" lon="1.6426">
        <ele>1574</ele>
        <time>2018-11-18T11:39:08.000Z</time>
      </trkpt>
      <trkpt lat="42.67704" lon="1.6426">
        <ele>1574</ele>
        <time>2018-11-18T11:39:10.000Z</time>
      </trkpt>
      <trkpt lat="42.67704" lon="1.6426">
        <ele>1575</ele>
        <time>2018-11-18T11:39:12.000Z</time>
      </trkpt>
      <trkpt lat="42.67704" lon="1.6426">
        <ele>1575</ele>
        <time>2018-11-18T11:39:14.000Z</time>
      </trkpt>
      <trkpt lat="42.67704" lon="1.6426">
        <ele>1575</ele>
        <time>2018-11-18T11:39:16.000Z</time>
      </trkpt>
      <trkpt lat="42.67704" lon="1.6426">
        <ele>1575</ele>
        <time>2018-11-18T11:39:18.000Z</time>
      </trkpt>
      <trkpt lat="42.67704" lon="1.6426">
        <ele>1575</ele>
        <time>2018-11-18T11:39:20.000Z</time>
      </trkpt>
      <trkpt lat="42.67704" lon="1.6426">
        <ele>1575</ele>
        <time>2018-11-18T11:39:22.000Z</time>
      </trkpt>
      <trkpt lat="42.67704" lon="1.6426">
        <ele>1575</ele>
        <time>2018-11-18T11:39:24.000Z</time>
      </trkpt>
      <trkpt lat="42.67704" lon="1.6426">
        <ele>1575</ele>
        <time>2018-11-18T11:39:26.000Z</time>
      </trkpt>
      <trkpt lat="42.67704" lon="1.6426">
        <ele>1575</ele>
        <time>2018-11-18T11:39:28.000Z</time>
      </trkpt>
      <trkpt lat="42.67704" lon="1.6426">
        <ele>1575</ele>
        <time>2018-11-18T11:39:30.000Z</time>
      </trkpt>
      <trkpt lat="42.67703" lon="1.6426">
        <ele>1575</ele>
        <time>2018-11-18T11:39:32.000Z</time>
      </trkpt>
      <trkpt lat="42.67702" lon="1.64259">
        <ele>1575</ele>
        <time>2018-11-18T11:39:34.000Z</time>
      </trkpt>
      <trkpt lat="42.67701" lon="1.64258">
        <ele>1575</ele>
        <time>2018-11-18T11:39:36.000Z</time>
      </trkpt>
      <trkpt lat="42.677" lon="1.64257">
        <ele>1575</ele>
        <time>2018-11-18T11:39:38.000Z</time>
      </trkpt>
      <trkpt lat="42.67698" lon="1.64256">
        <ele>1575</ele>
        <time>2018-11-18T11:39:40.000Z</time>
      </trkpt>
      <trkpt lat="42.67696" lon="1.64258">
        <ele>1575</ele>
        <time>2018-11-18T11:39:42.000Z</time>
      </trkpt>
      <trkpt lat="42.67695" lon="1.6426">
        <ele>1575</ele>
        <time>2018-11-18T11:39:44.000Z</time>
      </trkpt>
      <trkpt lat="42.67695" lon="1.64261">
        <ele>1575</ele>
        <time>2018-11-18T11:39:46.000Z</time>
      </trkpt>
      <trkpt lat="42.67694" lon="1.64262">
        <ele>1575</ele>
        <time>2018-11-18T11:39:48.000Z</time>
      </trkpt>
      <trkpt lat="42.67694" lon="1.64262">
        <ele>1575</ele>
        <time>2018-11-18T11:39:50.000Z</time>
      </trkpt>
      <trkpt lat="42.67694" lon="1.64263">
        <ele>1575</ele>
        <time>2018-11-18T11:39:52.000Z</time>
      </trkpt>
      <trkpt lat="42.67694" lon="1.64263">
        <ele>1575</ele>
        <time>2018-11-18T11:39:54.000Z</time>
      </trkpt>
      <trkpt lat="42.67693" lon="1.64263">
        <ele>1576</ele>
        <time>2018-11-18T11:39:56.000Z</time>
      </trkpt>
      <trkpt lat="42.67693" lon="1.64263">
        <ele>1576</ele>
        <time>2018-11-18T11:39:58.000Z</time>
      </trkpt>
      <trkpt lat="42.67693" lon="1.64263">
        <ele>1576</ele>
        <time>2018-11-18T11:40:00.000Z</time>
      </trkpt>
      <trkpt lat="42.67693" lon="1.64263">
        <ele>1576</ele>
        <time>2018-11-18T11:40:02.000Z</time>
      </trkpt>
      <trkpt lat="42.67693" lon="1.64263">
        <ele>1576</ele>
        <time>2018-11-18T11:40:04.000Z</time>
      </trkpt>
      <trkpt lat="42.67693" lon="1.64263">
        <ele>1576</ele>
        <time>2018-11-18T11:40:06.000Z</time>
      </trkpt>
      <trkpt lat="42.67693" lon="1.64263">
        <ele>1576</ele>
        <time>2018-11-18T11:40:08.000Z</time>
      </trkpt>
      <trkpt lat="42.67693" lon="1.64263">
        <ele>1576</ele>
        <time>2018-11-18T11:40:10.000Z</time>
      </trkpt>
      <trkpt lat="42.67693" lon="1.64263">
        <ele>1576</ele>
        <time>2018-11-18T11:40:12.000Z</time>
      </trkpt>
      <trkpt lat="42.67693" lon="1.64263">
        <ele>1576</ele>
        <time>2018-11-18T11:40:14.000Z</time>
      </trkpt>
      <trkpt lat="42.67693" lon="1.64264">
        <ele>1576</ele>
        <time>2018-11-18T11:40:16.000Z</time>
      </trkpt>
      <trkpt lat="42.67693" lon="1.64264">
        <ele>1576</ele>
        <time>2018-11-18T11:40:18.000Z</time>
      </trkpt>
      <trkpt lat="42.67693" lon="1.64264">
        <ele>1576</ele>
        <time>2018-11-18T11:40:20.000Z</time>
      </trkpt>
      <trkpt lat="42.67693" lon="1.64264">
        <ele>1576</ele>
        <time>2018-11-18T11:40:22.000Z</time>
      </trkpt>
      <trkpt lat="42.67693" lon="1.64264">
        <ele>1576</ele>
        <time>2018-11-18T11:40:24.000Z</time>
      </trkpt>
      <trkpt lat="42.67693" lon="1.64264">
        <ele>1576</ele>
        <time>2018-11-18T11:40:26.000Z</time>
      </trkpt>
      <trkpt lat="42.67693" lon="1.64264">
        <ele>1576</ele>
        <time>2018-11-18T11:40:28.000Z</time>
      </trkpt>
      <trkpt lat="42.67693" lon="1.64264">
        <ele>1576</ele>
        <time>2018-11-18T11:40:30.000Z</time>
      </trkpt>
      <trkpt lat="42.67692" lon="1.64265">
        <ele>1576</ele>
        <time>2018-11-18T11:40:32.000Z</time>
      </trkpt>
      <trkpt lat="42.6769" lon="1.64265">
        <ele>1576</ele>
        <time>2018-11-18T11:40:34.000Z</time>
      </trkpt>
      <trkpt lat="42.67688" lon="1.64266">
        <ele>1576</ele>
        <time>2018-11-18T11:40:36.000Z</time>
      </trkpt>
      <trkpt lat="42.67687" lon="1.64266">
        <ele>1576</ele>
        <time>2018-11-18T11:40:38.000Z</time>
      </trkpt>
      <trkpt lat="42.67686" lon="1.64266">
        <ele>1576</ele>
        <time>2018-11-18T11:40:40.000Z</time>
      </trkpt>
      <trkpt lat="42.67684" lon="1.64267">
        <ele>1576</ele>
        <time>2018-11-18T11:40:42.000Z</time>
      </trkpt>
      <trkpt lat="42.67683" lon="1.64268">
        <ele>1577</ele>
        <time>2018-11-18T11:40:44.000Z</time>
      </trkpt>
      <trkpt lat="42.67681" lon="1.64269">
        <ele>1577</ele>
        <time>2018-11-18T11:40:46.000Z</time>
      </trkpt>
      <trkpt lat="42.67679" lon="1.64268">
        <ele>1577</ele>
        <time>2018-11-18T11:40:48.000Z</time>
      </trkpt>
      <trkpt lat="42.67677" lon="1.64267">
        <ele>1577</ele>
        <time>2018-11-18T11:40:50.000Z</time>
      </trkpt>
      <trkpt lat="42.67676" lon="1.64266">
        <ele>1578</ele>
        <time>2018-11-18T11:40:52.000Z</time>
      </trkpt>
      <trkpt lat="42.67674" lon="1.64266">
        <ele>1578</ele>
        <time>2018-11-18T11:40:54.000Z</time>
      </trkpt>
      <trkpt lat="42.67672" lon="1.64265">
        <ele>1578</ele>
        <time>2018-11-18T11:40:56.000Z</time>
      </trkpt>
      <trkpt lat="42.67671" lon="1.64265">
        <ele>1578</ele>
        <time>2018-11-18T11:40:58.000Z</time>
      </trkpt>
      <trkpt lat="42.6767" lon="1.64263">
        <ele>1578</ele>
        <time>2018-11-18T11:41:00.000Z</time>
      </trkpt>
      <trkpt lat="42.6767" lon="1.64261">
        <ele>1578</ele>
        <time>2018-11-18T11:41:02.000Z</time>
      </trkpt>
      <trkpt lat="42.67669" lon="1.6426">
        <ele>1578</ele>
        <time>2018-11-18T11:41:04.000Z</time>
      </trkpt>
      <trkpt lat="42.67668" lon="1.64259">
        <ele>1579</ele>
        <time>2018-11-18T11:41:06.000Z</time>
      </trkpt>
      <trkpt lat="42.67668" lon="1.64257">
        <ele>1579</ele>
        <time>2018-11-18T11:41:08.000Z</time>
      </trkpt>
      <trkpt lat="42.67667" lon="1.64256">
        <ele>1579</ele>
        <time>2018-11-18T11:41:10.000Z</time>
      </trkpt>
      <trkpt lat="42.67667" lon="1.64255">
        <ele>1579</ele>
        <time>2018-11-18T11:41:12.000Z</time>
      </trkpt>
      <trkpt lat="42.67667" lon="1.64255">
        <ele>1579</ele>
        <time>2018-11-18T11:41:14.000Z</time>
      </trkpt>
      <trkpt lat="42.67668" lon="1.64253">
        <ele>1579</ele>
        <time>2018-11-18T11:41:16.000Z</time>
      </trkpt>
      <trkpt lat="42.67668" lon="1.64252">
        <ele>1579</ele>
        <time>2018-11-18T11:41:18.000Z</time>
      </trkpt>
      <trkpt lat="42.67669" lon="1.6425">
        <ele>1579</ele>
        <time>2018-11-18T11:41:20.000Z</time>
      </trkpt>
      <trkpt lat="42.6767" lon="1.64248">
        <ele>1579</ele>
        <time>2018-11-18T11:41:22.000Z</time>
      </trkpt>
      <trkpt lat="42.67671" lon="1.64246">
        <ele>1579</ele>
        <time>2018-11-18T11:41:24.000Z</time>
      </trkpt>
      <trkpt lat="42.67673" lon="1.64244">
        <ele>1578</ele>
        <time>2018-11-18T11:41:26.000Z</time>
      </trkpt>
      <trkpt lat="42.67673" lon="1.64242">
        <ele>1578</ele>
        <time>2018-11-18T11:41:28.000Z</time>
      </trkpt>
      <trkpt lat="42.67673" lon="1.6424">
        <ele>1579</ele>
        <time>2018-11-18T11:41:30.000Z</time>
      </trkpt>
      <trkpt lat="42.67673" lon="1.64238">
        <ele>1579</ele>
        <time>2018-11-18T11:41:32.000Z</time>
      </trkpt>
      <trkpt lat="42.67673" lon="1.64237">
        <ele>1579</ele>
        <time>2018-11-18T11:41:34.000Z</time>
      </trkpt>
      <trkpt lat="42.67672" lon="1.64234">
        <ele>1579</ele>
        <time>2018-11-18T11:41:36.000Z</time>
      </trkpt>
      <trkpt lat="42.67672" lon="1.64232">
        <ele>1579</ele>
        <time>2018-11-18T11:41:38.000Z</time>
      </trkpt>
      <trkpt lat="42.67671" lon="1.6423">
        <ele>1579</ele>
        <time>2018-11-18T11:41:40.000Z</time>
      </trkpt>
      <trkpt lat="42.6767" lon="1.64228">
        <ele>1580</ele>
        <time>2018-11-18T11:41:42.000Z</time>
      </trkpt>
      <trkpt lat="42.67669" lon="1.64226">
        <ele>1580</ele>
        <time>2018-11-18T11:41:44.000Z</time>
      </trkpt>
      <trkpt lat="42.67668" lon="1.64225">
        <ele>1580</ele>
        <time>2018-11-18T11:41:46.000Z</time>
      </trkpt>
      <trkpt lat="42.6767" lon="1.64222">
        <ele>1580</ele>
        <time>2018-11-18T11:41:48.000Z</time>
      </trkpt>
      <trkpt lat="42.67669" lon="1.64221">
        <ele>1580</ele>
        <time>2018-11-18T11:41:50.000Z</time>
      </trkpt>
      <trkpt lat="42.67669" lon="1.64219">
        <ele>1580</ele>
        <time>2018-11-18T11:41:52.000Z</time>
      </trkpt>
      <trkpt lat="42.6767" lon="1.64218">
        <ele>1580</ele>
        <time>2018-11-18T11:41:54.000Z</time>
      </trkpt>
      <trkpt lat="42.6767" lon="1.64217">
        <ele>1580</ele>
        <time>2018-11-18T11:41:56.000Z</time>
      </trkpt>
      <trkpt lat="42.67669" lon="1.64216">
        <ele>1580</ele>
        <time>2018-11-18T11:41:58.000Z</time>
      </trkpt>
      <trkpt lat="42.67669" lon="1.64215">
        <ele>1581</ele>
        <time>2018-11-18T11:42:00.000Z</time>
      </trkpt>
      <trkpt lat="42.67669" lon="1.64214">
        <ele>1581</ele>
        <time>2018-11-18T11:42:02.000Z</time>
      </trkpt>
      <trkpt lat="42.67669" lon="1.64214">
        <ele>1581</ele>
        <time>2018-11-18T11:42:04.000Z</time>
      </trkpt>
      <trkpt lat="42.67668" lon="1.64213">
        <ele>1581</ele>
        <time>2018-11-18T11:42:06.000Z</time>
      </trkpt>
      <trkpt lat="42.67667" lon="1.64212">
        <ele>1581</ele>
        <time>2018-11-18T11:42:08.000Z</time>
      </trkpt>
      <trkpt lat="42.67666" lon="1.6421">
        <ele>1581</ele>
        <time>2018-11-18T11:42:10.000Z</time>
      </trkpt>
      <trkpt lat="42.67665" lon="1.64209">
        <ele>1581</ele>
        <time>2018-11-18T11:42:12.000Z</time>
      </trkpt>
      <trkpt lat="42.67664" lon="1.64206">
        <ele>1582</ele>
        <time>2018-11-18T11:42:14.000Z</time>
      </trkpt>
      <trkpt lat="42.67663" lon="1.64204">
        <ele>1582</ele>
        <time>2018-11-18T11:42:16.000Z</time>
      </trkpt>
      <trkpt lat="42.67664" lon="1.64202">
        <ele>1582</ele>
        <time>2018-11-18T11:42:18.000Z</time>
      </trkpt>
      <trkpt lat="42.67663" lon="1.642">
        <ele>1582</ele>
        <time>2018-11-18T11:42:20.000Z</time>
      </trkpt>
      <trkpt lat="42.67663" lon="1.64198">
        <ele>1582</ele>
        <time>2018-11-18T11:42:22.000Z</time>
      </trkpt>
      <trkpt lat="42.67663" lon="1.64196">
        <ele>1582</ele>
        <time>2018-11-18T11:42:24.000Z</time>
      </trkpt>
      <trkpt lat="42.67664" lon="1.64194">
        <ele>1582</ele>
        <time>2018-11-18T11:42:26.000Z</time>
      </trkpt>
      <trkpt lat="42.67663" lon="1.64191">
        <ele>1583</ele>
        <time>2018-11-18T11:42:28.000Z</time>
      </trkpt>
      <trkpt lat="42.67663" lon="1.64189">
        <ele>1583</ele>
        <time>2018-11-18T11:42:30.000Z</time>
      </trkpt>
      <trkpt lat="42.67663" lon="1.64187">
        <ele>1583</ele>
        <time>2018-11-18T11:42:32.000Z</time>
      </trkpt>
      <trkpt lat="42.67663" lon="1.64185">
        <ele>1583</ele>
        <time>2018-11-18T11:42:34.000Z</time>
      </trkpt>
      <trkpt lat="42.67663" lon="1.64183">
        <ele>1583</ele>
        <time>2018-11-18T11:42:36.000Z</time>
      </trkpt>
      <trkpt lat="42.67664" lon="1.64181">
        <ele>1583</ele>
        <time>2018-11-18T11:42:38.000Z</time>
      </trkpt>
      <trkpt lat="42.67665" lon="1.64179">
        <ele>1583</ele>
        <time>2018-11-18T11:42:40.000Z</time>
      </trkpt>
      <trkpt lat="42.67665" lon="1.64177">
        <ele>1584</ele>
        <time>2018-11-18T11:42:42.000Z</time>
      </trkpt>
      <trkpt lat="42.67664" lon="1.64175">
        <ele>1584</ele>
        <time>2018-11-18T11:42:44.000Z</time>
      </trkpt>
      <trkpt lat="42.67663" lon="1.64173">
        <ele>1584</ele>
        <time>2018-11-18T11:42:46.000Z</time>
      </trkpt>
      <trkpt lat="42.67662" lon="1.64171">
        <ele>1584</ele>
        <time>2018-11-18T11:42:48.000Z</time>
      </trkpt>
      <trkpt lat="42.67662" lon="1.64169">
        <ele>1584</ele>
        <time>2018-11-18T11:42:50.000Z</time>
      </trkpt>
      <trkpt lat="42.6766" lon="1.64168">
        <ele>1585</ele>
        <time>2018-11-18T11:42:52.000Z</time>
      </trkpt>
      <trkpt lat="42.67659" lon="1.64165">
        <ele>1585</ele>
        <time>2018-11-18T11:42:54.000Z</time>
      </trkpt>
      <trkpt lat="42.67658" lon="1.64164">
        <ele>1585</ele>
        <time>2018-11-18T11:42:56.000Z</time>
      </trkpt>
      <trkpt lat="42.67658" lon="1.64162">
        <ele>1585</ele>
        <time>2018-11-18T11:42:58.000Z</time>
      </trkpt>
      <trkpt lat="42.67658" lon="1.64161">
        <ele>1585</ele>
        <time>2018-11-18T11:43:00.000Z</time>
      </trkpt>
      <trkpt lat="42.67658" lon="1.64161">
        <ele>1585</ele>
        <time>2018-11-18T11:43:02.000Z</time>
      </trkpt>
      <trkpt lat="42.67658" lon="1.6416">
        <ele>1585</ele>
        <time>2018-11-18T11:43:04.000Z</time>
      </trkpt>
      <trkpt lat="42.67657" lon="1.64159">
        <ele>1585</ele>
        <time>2018-11-18T11:43:06.000Z</time>
      </trkpt>
      <trkpt lat="42.67656" lon="1.64158">
        <ele>1586</ele>
        <time>2018-11-18T11:43:08.000Z</time>
      </trkpt>
      <trkpt lat="42.67655" lon="1.64157">
        <ele>1586</ele>
        <time>2018-11-18T11:43:10.000Z</time>
      </trkpt>
      <trkpt lat="42.67654" lon="1.64155">
        <ele>1586</ele>
        <time>2018-11-18T11:43:12.000Z</time>
      </trkpt>
      <trkpt lat="42.67654" lon="1.64153">
        <ele>1586</ele>
        <time>2018-11-18T11:43:14.000Z</time>
      </trkpt>
      <trkpt lat="42.67653" lon="1.64151">
        <ele>1586</ele>
        <time>2018-11-18T11:43:16.000Z</time>
      </trkpt>
      <trkpt lat="42.67653" lon="1.6415">
        <ele>1586</ele>
        <time>2018-11-18T11:43:18.000Z</time>
      </trkpt>
      <trkpt lat="42.67652" lon="1.64148">
        <ele>1586</ele>
        <time>2018-11-18T11:43:20.000Z</time>
      </trkpt>
      <trkpt lat="42.67651" lon="1.64147">
        <ele>1587</ele>
        <time>2018-11-18T11:43:22.000Z</time>
      </trkpt>
      <trkpt lat="42.67651" lon="1.64145">
        <ele>1587</ele>
        <time>2018-11-18T11:43:24.000Z</time>
      </trkpt>
      <trkpt lat="42.6765" lon="1.64143">
        <ele>1587</ele>
        <time>2018-11-18T11:43:26.000Z</time>
      </trkpt>
      <trkpt lat="42.67649" lon="1.64141">
        <ele>1587</ele>
        <time>2018-11-18T11:43:28.000Z</time>
      </trkpt>
      <trkpt lat="42.67649" lon="1.64139">
        <ele>1587</ele>
        <time>2018-11-18T11:43:30.000Z</time>
      </trkpt>
      <trkpt lat="42.67649" lon="1.64136">
        <ele>1587</ele>
        <time>2018-11-18T11:43:32.000Z</time>
      </trkpt>
      <trkpt lat="42.67648" lon="1.64134">
        <ele>1587</ele>
        <time>2018-11-18T11:43:34.000Z</time>
      </trkpt>
      <trkpt lat="42.67648" lon="1.64132">
        <ele>1588</ele>
        <time>2018-11-18T11:43:36.000Z</time>
      </trkpt>
      <trkpt lat="42.67648" lon="1.6413">
        <ele>1588</ele>
        <time>2018-11-18T11:43:38.000Z</time>
      </trkpt>
      <trkpt lat="42.67647" lon="1.64128">
        <ele>1588</ele>
        <time>2018-11-18T11:43:40.000Z</time>
      </trkpt>
      <trkpt lat="42.67647" lon="1.64127">
        <ele>1588</ele>
        <time>2018-11-18T11:43:42.000Z</time>
      </trkpt>
      <trkpt lat="42.67646" lon="1.64129">
        <ele>1588</ele>
        <time>2018-11-18T11:43:44.000Z</time>
      </trkpt>
      <trkpt lat="42.67645" lon="1.6413">
        <ele>1588</ele>
        <time>2018-11-18T11:43:46.000Z</time>
      </trkpt>
      <trkpt lat="42.67644" lon="1.64131">
        <ele>1588</ele>
        <time>2018-11-18T11:43:48.000Z</time>
      </trkpt>
      <trkpt lat="42.67642" lon="1.64132">
        <ele>1588</ele>
        <time>2018-11-18T11:43:50.000Z</time>
      </trkpt>
      <trkpt lat="42.67641" lon="1.64133">
        <ele>1588</ele>
        <time>2018-11-18T11:43:52.000Z</time>
      </trkpt>
      <trkpt lat="42.6764" lon="1.64131">
        <ele>1588</ele>
        <time>2018-11-18T11:43:54.000Z</time>
      </trkpt>
      <trkpt lat="42.67639" lon="1.64129">
        <ele>1588</ele>
        <time>2018-11-18T11:43:56.000Z</time>
      </trkpt>
      <trkpt lat="42.67638" lon="1.64127">
        <ele>1588</ele>
        <time>2018-11-18T11:43:58.000Z</time>
      </trkpt>
      <trkpt lat="42.67639" lon="1.64124">
        <ele>1589</ele>
        <time>2018-11-18T11:44:00.000Z</time>
      </trkpt>
      <trkpt lat="42.67639" lon="1.64121">
        <ele>1589</ele>
        <time>2018-11-18T11:44:02.000Z</time>
      </trkpt>
      <trkpt lat="42.67639" lon="1.64119">
        <ele>1589</ele>
        <time>2018-11-18T11:44:04.000Z</time>
      </trkpt>
      <trkpt lat="42.67638" lon="1.64116">
        <ele>1589</ele>
        <time>2018-11-18T11:44:06.000Z</time>
      </trkpt>
      <trkpt lat="42.67638" lon="1.64114">
        <ele>1589</ele>
        <time>2018-11-18T11:44:08.000Z</time>
      </trkpt>
      <trkpt lat="42.6764" lon="1.64112">
        <ele>1590</ele>
        <time>2018-11-18T11:44:10.000Z</time>
      </trkpt>
      <trkpt lat="42.6764" lon="1.64111">
        <ele>1590</ele>
        <time>2018-11-18T11:44:12.000Z</time>
      </trkpt>
      <trkpt lat="42.67641" lon="1.6411">
        <ele>1590</ele>
        <time>2018-11-18T11:44:14.000Z</time>
      </trkpt>
      <trkpt lat="42.67641" lon="1.64108">
        <ele>1590</ele>
        <time>2018-11-18T11:44:16.000Z</time>
      </trkpt>
      <trkpt lat="42.67641" lon="1.64106">
        <ele>1590</ele>
        <time>2018-11-18T11:44:18.000Z</time>
      </trkpt>
      <trkpt lat="42.67641" lon="1.64105">
        <ele>1590</ele>
        <time>2018-11-18T11:44:20.000Z</time>
      </trkpt>
      <trkpt lat="42.67641" lon="1.64104">
        <ele>1590</ele>
        <time>2018-11-18T11:44:22.000Z</time>
      </trkpt>
      <trkpt lat="42.67641" lon="1.64103">
        <ele>1590</ele>
        <time>2018-11-18T11:44:24.000Z</time>
      </trkpt>
      <trkpt lat="42.67641" lon="1.64104">
        <ele>1590</ele>
        <time>2018-11-18T11:44:26.000Z</time>
      </trkpt>
      <trkpt lat="42.67641" lon="1.64104">
        <ele>1590</ele>
        <time>2018-11-18T11:44:28.000Z</time>
      </trkpt>
      <trkpt lat="42.67641" lon="1.64103">
        <ele>1590</ele>
        <time>2018-11-18T11:44:30.000Z</time>
      </trkpt>
      <trkpt lat="42.67641" lon="1.64102">
        <ele>1590</ele>
        <time>2018-11-18T11:44:32.000Z</time>
      </trkpt>
      <trkpt lat="42.67639" lon="1.64101">
        <ele>1590</ele>
        <time>2018-11-18T11:44:34.000Z</time>
      </trkpt>
      <trkpt lat="42.67638" lon="1.64099">
        <ele>1591</ele>
        <time>2018-11-18T11:44:36.000Z</time>
      </trkpt>
      <trkpt lat="42.67639" lon="1.64096">
        <ele>1591</ele>
        <time>2018-11-18T11:44:38.000Z</time>
      </trkpt>
      <trkpt lat="42.6764" lon="1.64095">
        <ele>1591</ele>
        <time>2018-11-18T11:44:40.000Z</time>
      </trkpt>
      <trkpt lat="42.6764" lon="1.64094">
        <ele>1591</ele>
        <time>2018-11-18T11:44:42.000Z</time>
      </trkpt>
      <trkpt lat="42.6764" lon="1.64094">
        <ele>1591</ele>
        <time>2018-11-18T11:44:44.000Z</time>
      </trkpt>
      <trkpt lat="42.6764" lon="1.64094">
        <ele>1591</ele>
        <time>2018-11-18T11:44:46.000Z</time>
      </trkpt>
      <trkpt lat="42.6764" lon="1.64094">
        <ele>1591</ele>
        <time>2018-11-18T11:44:48.000Z</time>
      </trkpt>
      <trkpt lat="42.6764" lon="1.64094">
        <ele>1591</ele>
        <time>2018-11-18T11:44:50.000Z</time>
      </trkpt>
      <trkpt lat="42.6764" lon="1.64094">
        <ele>1591</ele>
        <time>2018-11-18T11:44:52.000Z</time>
      </trkpt>
      <trkpt lat="42.6764" lon="1.64094">
        <ele>1591</ele>
        <time>2018-11-18T11:44:54.000Z</time>
      </trkpt>
      <trkpt lat="42.6764" lon="1.64094">
        <ele>1591</ele>
        <time>2018-11-18T11:44:56.000Z</time>
      </trkpt>
      <trkpt lat="42.6764" lon="1.64094">
        <ele>1591</ele>
        <time>2018-11-18T11:44:58.000Z</time>
      </trkpt>
      <trkpt lat="42.6764" lon="1.64094">
        <ele>1591</ele>
        <time>2018-11-18T11:45:00.000Z</time>
      </trkpt>
      <trkpt lat="42.6764" lon="1.64093">
        <ele>1591</ele>
        <time>2018-11-18T11:45:02.000Z</time>
      </trkpt>
      <trkpt lat="42.67639" lon="1.64093">
        <ele>1591</ele>
        <time>2018-11-18T11:45:04.000Z</time>
      </trkpt>
      <trkpt lat="42.67639" lon="1.64093">
        <ele>1591</ele>
        <time>2018-11-18T11:45:06.000Z</time>
      </trkpt>
      <trkpt lat="42.67639" lon="1.64093">
        <ele>1591</ele>
        <time>2018-11-18T11:45:08.000Z</time>
      </trkpt>
      <trkpt lat="42.67639" lon="1.64093">
        <ele>1591</ele>
        <time>2018-11-18T11:45:10.000Z</time>
      </trkpt>
      <trkpt lat="42.67639" lon="1.64093">
        <ele>1591</ele>
        <time>2018-11-18T11:45:12.000Z</time>
      </trkpt>
      <trkpt lat="42.67639" lon="1.64093">
        <ele>1591</ele>
        <time>2018-11-18T11:45:14.000Z</time>
      </trkpt>
      <trkpt lat="42.67639" lon="1.64094">
        <ele>1591</ele>
        <time>2018-11-18T11:45:16.000Z</time>
      </trkpt>
      <trkpt lat="42.67639" lon="1.64094">
        <ele>1591</ele>
        <time>2018-11-18T11:45:18.000Z</time>
      </trkpt>
      <trkpt lat="42.67639" lon="1.64094">
        <ele>1591</ele>
        <time>2018-11-18T11:45:20.000Z</time>
      </trkpt>
      <trkpt lat="42.67639" lon="1.64095">
        <ele>1591</ele>
        <time>2018-11-18T11:45:22.000Z</time>
      </trkpt>
      <trkpt lat="42.67638" lon="1.64095">
        <ele>1591</ele>
        <time>2018-11-18T11:45:24.000Z</time>
      </trkpt>
      <trkpt lat="42.67637" lon="1.64095">
        <ele>1591</ele>
        <time>2018-11-18T11:45:26.000Z</time>
      </trkpt>
      <trkpt lat="42.67637" lon="1.64095">
        <ele>1591</ele>
        <time>2018-11-18T11:45:28.000Z</time>
      </trkpt>
      <trkpt lat="42.67637" lon="1.64096">
        <ele>1591</ele>
        <time>2018-11-18T11:45:30.000Z</time>
      </trkpt>
      <trkpt lat="42.67637" lon="1.64096">
        <ele>1591</ele>
        <time>2018-11-18T11:45:32.000Z</time>
      </trkpt>
      <trkpt lat="42.67637" lon="1.64096">
        <ele>1591</ele>
        <time>2018-11-18T11:45:34.000Z</time>
      </trkpt>
      <trkpt lat="42.67637" lon="1.64096">
        <ele>1591</ele>
        <time>2018-11-18T11:45:36.000Z</time>
      </trkpt>
      <trkpt lat="42.67637" lon="1.64096">
        <ele>1591</ele>
        <time>2018-11-18T11:45:38.000Z</time>
      </trkpt>
      <trkpt lat="42.67637" lon="1.64096">
        <ele>1591</ele>
        <time>2018-11-18T11:45:40.000Z</time>
      </trkpt>
      <trkpt lat="42.67637" lon="1.64096">
        <ele>1591</ele>
        <time>2018-11-18T11:45:42.000Z</time>
      </trkpt>
      <trkpt lat="42.67637" lon="1.64096">
        <ele>1591</ele>
        <time>2018-11-18T11:45:44.000Z</time>
      </trkpt>
      <trkpt lat="42.67637" lon="1.64096">
        <ele>1591</ele>
        <time>2018-11-18T11:45:46.000Z</time>
      </trkpt>
      <trkpt lat="42.67637" lon="1.64096">
        <ele>1591</ele>
        <time>2018-11-18T11:45:48.000Z</time>
      </trkpt>
      <trkpt lat="42.67637" lon="1.64096">
        <ele>1591</ele>
        <time>2018-11-18T11:45:50.000Z</time>
      </trkpt>
      <trkpt lat="42.67637" lon="1.64096">
        <ele>1591</ele>
        <time>2018-11-18T11:45:52.000Z</time>
      </trkpt>
      <trkpt lat="42.67637" lon="1.64096">
        <ele>1591</ele>
        <time>2018-11-18T11:45:54.000Z</time>
      </trkpt>
      <trkpt lat="42.67638" lon="1.64096">
        <ele>1591</ele>
        <time>2018-11-18T11:45:56.000Z</time>
      </trkpt>
      <trkpt lat="42.67638" lon="1.64096">
        <ele>1591</ele>
        <time>2018-11-18T11:45:58.000Z</time>
      </trkpt>
      <trkpt lat="42.67638" lon="1.64096">
        <ele>1591</ele>
        <time>2018-11-18T11:46:00.000Z</time>
      </trkpt>
      <trkpt lat="42.67638" lon="1.64096">
        <ele>1591</ele>
        <time>2018-11-18T11:46:02.000Z</time>
      </trkpt>
      <trkpt lat="42.67638" lon="1.64096">
        <ele>1591</ele>
        <time>2018-11-18T11:46:04.000Z</time>
      </trkpt>
      <trkpt lat="42.67637" lon="1.64096">
        <ele>1591</ele>
        <time>2018-11-18T11:46:06.000Z</time>
      </trkpt>
      <trkpt lat="42.67637" lon="1.64096">
        <ele>1591</ele>
        <time>2018-11-18T11:46:08.000Z</time>
      </trkpt>
      <trkpt lat="42.67637" lon="1.64096">
        <ele>1591</ele>
        <time>2018-11-18T11:46:10.000Z</time>
      </trkpt>
      <trkpt lat="42.67637" lon="1.64096">
        <ele>1591</ele>
        <time>2018-11-18T11:46:12.000Z</time>
      </trkpt>
      <trkpt lat="42.67636" lon="1.64096">
        <ele>1591</ele>
        <time>2018-11-18T11:46:14.000Z</time>
      </trkpt>
      <trkpt lat="42.67636" lon="1.64096">
        <ele>1591</ele>
        <time>2018-11-18T11:46:16.000Z</time>
      </trkpt>
      <trkpt lat="42.67636" lon="1.64096">
        <ele>1591</ele>
        <time>2018-11-18T11:46:18.000Z</time>
      </trkpt>
      <trkpt lat="42.67636" lon="1.64096">
        <ele>1591</ele>
        <time>2018-11-18T11:46:20.000Z</time>
      </trkpt>
      <trkpt lat="42.67637" lon="1.64096">
        <ele>1591</ele>
        <time>2018-11-18T11:46:22.000Z</time>
      </trkpt>
      <trkpt lat="42.67637" lon="1.64096">
        <ele>1591</ele>
        <time>2018-11-18T11:46:24.000Z</time>
      </trkpt>
      <trkpt lat="42.67637" lon="1.64096">
        <ele>1591</ele>
        <time>2018-11-18T11:46:26.000Z</time>
      </trkpt>
      <trkpt lat="42.67637" lon="1.64096">
        <ele>1591</ele>
        <time>2018-11-18T11:46:28.000Z</time>
      </trkpt>
      <trkpt lat="42.67636" lon="1.64095">
        <ele>1591</ele>
        <time>2018-11-18T11:46:30.000Z</time>
      </trkpt>
      <trkpt lat="42.67635" lon="1.64095">
        <ele>1591</ele>
        <time>2018-11-18T11:46:32.000Z</time>
      </trkpt>
      <trkpt lat="42.67634" lon="1.64094">
        <ele>1591</ele>
        <time>2018-11-18T11:46:34.000Z</time>
      </trkpt>
      <trkpt lat="42.67632" lon="1.64094">
        <ele>1591</ele>
        <time>2018-11-18T11:46:36.000Z</time>
      </trkpt>
      <trkpt lat="42.6763" lon="1.64093">
        <ele>1591</ele>
        <time>2018-11-18T11:46:38.000Z</time>
      </trkpt>
      <trkpt lat="42.67628" lon="1.64093">
        <ele>1591</ele>
        <time>2018-11-18T11:46:40.000Z</time>
      </trkpt>
      <trkpt lat="42.67626" lon="1.64093">
        <ele>1592</ele>
        <time>2018-11-18T11:46:42.000Z</time>
      </trkpt>
      <trkpt lat="42.67624" lon="1.64093">
        <ele>1592</ele>
        <time>2018-11-18T11:46:44.000Z</time>
      </trkpt>
      <trkpt lat="42.67622" lon="1.64093">
        <ele>1592</ele>
        <time>2018-11-18T11:46:46.000Z</time>
      </trkpt>
      <trkpt lat="42.67621" lon="1.64092">
        <ele>1592</ele>
        <time>2018-11-18T11:46:48.000Z</time>
      </trkpt>
      <trkpt lat="42.6762" lon="1.6409">
        <ele>1592</ele>
        <time>2018-11-18T11:46:50.000Z</time>
      </trkpt>
      <trkpt lat="42.67618" lon="1.64088">
        <ele>1592</ele>
        <time>2018-11-18T11:46:52.000Z</time>
      </trkpt>
      <trkpt lat="42.67616" lon="1.64088">
        <ele>1592</ele>
        <time>2018-11-18T11:46:54.000Z</time>
      </trkpt>
      <trkpt lat="42.67615" lon="1.64087">
        <ele>1592</ele>
        <time>2018-11-18T11:46:56.000Z</time>
      </trkpt>
      <trkpt lat="42.67614" lon="1.64087">
        <ele>1593</ele>
        <time>2018-11-18T11:46:58.000Z</time>
      </trkpt>
      <trkpt lat="42.67613" lon="1.64087">
        <ele>1593</ele>
        <time>2018-11-18T11:47:00.000Z</time>
      </trkpt>
      <trkpt lat="42.67611" lon="1.64086">
        <ele>1593</ele>
        <time>2018-11-18T11:47:02.000Z</time>
      </trkpt>
      <trkpt lat="42.6761" lon="1.64085">
        <ele>1593</ele>
        <time>2018-11-18T11:47:04.000Z</time>
      </trkpt>
      <trkpt lat="42.67608" lon="1.64084">
        <ele>1593</ele>
        <time>2018-11-18T11:47:06.000Z</time>
      </trkpt>
      <trkpt lat="42.67607" lon="1.64082">
        <ele>1593</ele>
        <time>2018-11-18T11:47:08.000Z</time>
      </trkpt>
      <trkpt lat="42.67606" lon="1.6408">
        <ele>1593</ele>
        <time>2018-11-18T11:47:10.000Z</time>
      </trkpt>
      <trkpt lat="42.67605" lon="1.64079">
        <ele>1594</ele>
        <time>2018-11-18T11:47:12.000Z</time>
      </trkpt>
      <trkpt lat="42.67603" lon="1.64078">
        <ele>1594</ele>
        <time>2018-11-18T11:47:14.000Z</time>
      </trkpt>
      <trkpt lat="42.67602" lon="1.64078">
        <ele>1594</ele>
        <time>2018-11-18T11:47:16.000Z</time>
      </trkpt>
      <trkpt lat="42.676" lon="1.64077">
        <ele>1594</ele>
        <time>2018-11-18T11:47:18.000Z</time>
      </trkpt>
      <trkpt lat="42.67598" lon="1.64077">
        <ele>1594</ele>
        <time>2018-11-18T11:47:20.000Z</time>
      </trkpt>
      <trkpt lat="42.67597" lon="1.64075">
        <ele>1594</ele>
        <time>2018-11-18T11:47:22.000Z</time>
      </trkpt>
      <trkpt lat="42.67595" lon="1.64074">
        <ele>1594</ele>
        <time>2018-11-18T11:47:24.000Z</time>
      </trkpt>
      <trkpt lat="42.67594" lon="1.64071">
        <ele>1595</ele>
        <time>2018-11-18T11:47:26.000Z</time>
      </trkpt>
      <trkpt lat="42.67592" lon="1.6407">
        <ele>1595</ele>
        <time>2018-11-18T11:47:28.000Z</time>
      </trkpt>
      <trkpt lat="42.6759" lon="1.64068">
        <ele>1595</ele>
        <time>2018-11-18T11:47:30.000Z</time>
      </trkpt>
      <trkpt lat="42.67588" lon="1.64068">
        <ele>1595</ele>
        <time>2018-11-18T11:47:32.000Z</time>
      </trkpt>
      <trkpt lat="42.67587" lon="1.64068">
        <ele>1595</ele>
        <time>2018-11-18T11:47:34.000Z</time>
      </trkpt>
      <trkpt lat="42.67584" lon="1.64069">
        <ele>1595</ele>
        <time>2018-11-18T11:47:36.000Z</time>
      </trkpt>
      <trkpt lat="42.67582" lon="1.64071">
        <ele>1595</ele>
        <time>2018-11-18T11:47:38.000Z</time>
      </trkpt>
      <trkpt lat="42.67581" lon="1.64072">
        <ele>1595</ele>
        <time>2018-11-18T11:47:40.000Z</time>
      </trkpt>
      <trkpt lat="42.67579" lon="1.64074">
        <ele>1595</ele>
        <time>2018-11-18T11:47:42.000Z</time>
      </trkpt>
      <trkpt lat="42.67578" lon="1.64074">
        <ele>1595</ele>
        <time>2018-11-18T11:47:44.000Z</time>
      </trkpt>
      <trkpt lat="42.67576" lon="1.64074">
        <ele>1595</ele>
        <time>2018-11-18T11:47:46.000Z</time>
      </trkpt>
      <trkpt lat="42.67574" lon="1.64073">
        <ele>1595</ele>
        <time>2018-11-18T11:47:48.000Z</time>
      </trkpt>
      <trkpt lat="42.67573" lon="1.64073">
        <ele>1595</ele>
        <time>2018-11-18T11:47:50.000Z</time>
      </trkpt>
      <trkpt lat="42.6757" lon="1.64074">
        <ele>1595</ele>
        <time>2018-11-18T11:47:52.000Z</time>
      </trkpt>
      <trkpt lat="42.67568" lon="1.64074">
        <ele>1595</ele>
        <time>2018-11-18T11:47:54.000Z</time>
      </trkpt>
      <trkpt lat="42.67567" lon="1.64074">
        <ele>1595</ele>
        <time>2018-11-18T11:47:56.000Z</time>
      </trkpt>
      <trkpt lat="42.67565" lon="1.64074">
        <ele>1595</ele>
        <time>2018-11-18T11:47:58.000Z</time>
      </trkpt>
      <trkpt lat="42.67563" lon="1.64075">
        <ele>1595</ele>
        <time>2018-11-18T11:48:00.000Z</time>
      </trkpt>
      <trkpt lat="42.6756" lon="1.64076">
        <ele>1595</ele>
        <time>2018-11-18T11:48:02.000Z</time>
      </trkpt>
      <trkpt lat="42.67559" lon="1.64078">
        <ele>1595</ele>
        <time>2018-11-18T11:48:04.000Z</time>
      </trkpt>
      <trkpt lat="42.67557" lon="1.64078">
        <ele>1595</ele>
        <time>2018-11-18T11:48:06.000Z</time>
      </trkpt>
      <trkpt lat="42.67555" lon="1.64079">
        <ele>1595</ele>
        <time>2018-11-18T11:48:08.000Z</time>
      </trkpt>
      <trkpt lat="42.67554" lon="1.64079">
        <ele>1595</ele>
        <time>2018-11-18T11:48:10.000Z</time>
      </trkpt>
      <trkpt lat="42.67551" lon="1.64079">
        <ele>1595</ele>
        <time>2018-11-18T11:48:12.000Z</time>
      </trkpt>
      <trkpt lat="42.67549" lon="1.64079">
        <ele>1595</ele>
        <time>2018-11-18T11:48:14.000Z</time>
      </trkpt>
      <trkpt lat="42.67548" lon="1.64079">
        <ele>1595</ele>
        <time>2018-11-18T11:48:16.000Z</time>
      </trkpt>
      <trkpt lat="42.67546" lon="1.6408">
        <ele>1595</ele>
        <time>2018-11-18T11:48:18.000Z</time>
      </trkpt>
      <trkpt lat="42.67544" lon="1.6408">
        <ele>1595</ele>
        <time>2018-11-18T11:48:20.000Z</time>
      </trkpt>
      <trkpt lat="42.67543" lon="1.6408">
        <ele>1596</ele>
        <time>2018-11-18T11:48:22.000Z</time>
      </trkpt>
      <trkpt lat="42.67541" lon="1.64079">
        <ele>1596</ele>
        <time>2018-11-18T11:48:24.000Z</time>
      </trkpt>
      <trkpt lat="42.6754" lon="1.64077">
        <ele>1596</ele>
        <time>2018-11-18T11:48:26.000Z</time>
      </trkpt>
      <trkpt lat="42.67539" lon="1.64076">
        <ele>1596</ele>
        <time>2018-11-18T11:48:28.000Z</time>
      </trkpt>
      <trkpt lat="42.67538" lon="1.64074">
        <ele>1596</ele>
        <time>2018-11-18T11:48:30.000Z</time>
      </trkpt>
      <trkpt lat="42.67536" lon="1.64074">
        <ele>1596</ele>
        <time>2018-11-18T11:48:32.000Z</time>
      </trkpt>
      <trkpt lat="42.67535" lon="1.64072">
        <ele>1596</ele>
        <time>2018-11-18T11:48:34.000Z</time>
      </trkpt>
      <trkpt lat="42.67533" lon="1.64071">
        <ele>1596</ele>
        <time>2018-11-18T11:48:36.000Z</time>
      </trkpt>
      <trkpt lat="42.67532" lon="1.64069">
        <ele>1596</ele>
        <time>2018-11-18T11:48:38.000Z</time>
      </trkpt>
      <trkpt lat="42.67531" lon="1.64068">
        <ele>1596</ele>
        <time>2018-11-18T11:48:40.000Z</time>
      </trkpt>
      <trkpt lat="42.67529" lon="1.64067">
        <ele>1596</ele>
        <time>2018-11-18T11:48:42.000Z</time>
      </trkpt>
      <trkpt lat="42.67528" lon="1.64065">
        <ele>1596</ele>
        <time>2018-11-18T11:48:44.000Z</time>
      </trkpt>
      <trkpt lat="42.67526" lon="1.64064">
        <ele>1596</ele>
        <time>2018-11-18T11:48:46.000Z</time>
      </trkpt>
      <trkpt lat="42.67526" lon="1.64064">
        <ele>1596</ele>
        <time>2018-11-18T11:48:48.000Z</time>
      </trkpt>
      <trkpt lat="42.67525" lon="1.64063">
        <ele>1596</ele>
        <time>2018-11-18T11:48:50.000Z</time>
      </trkpt>
      <trkpt lat="42.67524" lon="1.64062">
        <ele>1596</ele>
        <time>2018-11-18T11:48:52.000Z</time>
      </trkpt>
      <trkpt lat="42.67524" lon="1.64061">
        <ele>1596</ele>
        <time>2018-11-18T11:48:54.000Z</time>
      </trkpt>
      <trkpt lat="42.67523" lon="1.64059">
        <ele>1596</ele>
        <time>2018-11-18T11:48:56.000Z</time>
      </trkpt>
      <trkpt lat="42.67522" lon="1.64058">
        <ele>1596</ele>
        <time>2018-11-18T11:48:58.000Z</time>
      </trkpt>
      <trkpt lat="42.67522" lon="1.64057">
        <ele>1596</ele>
        <time>2018-11-18T11:49:00.000Z</time>
      </trkpt>
      <trkpt lat="42.67521" lon="1.64056">
        <ele>1596</ele>
        <time>2018-11-18T11:49:02.000Z</time>
      </trkpt>
      <trkpt lat="42.6752" lon="1.64055">
        <ele>1596</ele>
        <time>2018-11-18T11:49:04.000Z</time>
      </trkpt>
      <trkpt lat="42.67517" lon="1.64055">
        <ele>1596</ele>
        <time>2018-11-18T11:49:06.000Z</time>
      </trkpt>
      <trkpt lat="42.67516" lon="1.64055">
        <ele>1597</ele>
        <time>2018-11-18T11:49:08.000Z</time>
      </trkpt>
      <trkpt lat="42.67514" lon="1.64054">
        <ele>1597</ele>
        <time>2018-11-18T11:49:10.000Z</time>
      </trkpt>
      <trkpt lat="42.67512" lon="1.64054">
        <ele>1597</ele>
        <time>2018-11-18T11:49:12.000Z</time>
      </trkpt>
      <trkpt lat="42.6751" lon="1.64053">
        <ele>1597</ele>
        <time>2018-11-18T11:49:14.000Z</time>
      </trkpt>
      <trkpt lat="42.67508" lon="1.64052">
        <ele>1597</ele>
        <time>2018-11-18T11:49:16.000Z</time>
      </trkpt>
      <trkpt lat="42.67507" lon="1.64051">
        <ele>1597</ele>
        <time>2018-11-18T11:49:18.000Z</time>
      </trkpt>
      <trkpt lat="42.67505" lon="1.64051">
        <ele>1597</ele>
        <time>2018-11-18T11:49:20.000Z</time>
      </trkpt>
      <trkpt lat="42.67503" lon="1.64051">
        <ele>1597</ele>
        <time>2018-11-18T11:49:22.000Z</time>
      </trkpt>
      <trkpt lat="42.67502" lon="1.6405">
        <ele>1597</ele>
        <time>2018-11-18T11:49:24.000Z</time>
      </trkpt>
      <trkpt lat="42.675" lon="1.6405">
        <ele>1597</ele>
        <time>2018-11-18T11:49:26.000Z</time>
      </trkpt>
      <trkpt lat="42.67499" lon="1.6405">
        <ele>1597</ele>
        <time>2018-11-18T11:49:28.000Z</time>
      </trkpt>
      <trkpt lat="42.67496" lon="1.64051">
        <ele>1597</ele>
        <time>2018-11-18T11:49:30.000Z</time>
      </trkpt>
      <trkpt lat="42.67494" lon="1.64051">
        <ele>1597</ele>
        <time>2018-11-18T11:49:32.000Z</time>
      </trkpt>
      <trkpt lat="42.67492" lon="1.6405">
        <ele>1597</ele>
        <time>2018-11-18T11:49:34.000Z</time>
      </trkpt>
      <trkpt lat="42.67489" lon="1.6405">
        <ele>1597</ele>
        <time>2018-11-18T11:49:36.000Z</time>
      </trkpt>
      <trkpt lat="42.67487" lon="1.6405">
        <ele>1597</ele>
        <time>2018-11-18T11:49:38.000Z</time>
      </trkpt>
      <trkpt lat="42.67485" lon="1.6405">
        <ele>1597</ele>
        <time>2018-11-18T11:49:40.000Z</time>
      </trkpt>
      <trkpt lat="42.67482" lon="1.6405">
        <ele>1597</ele>
        <time>2018-11-18T11:49:42.000Z</time>
      </trkpt>
      <trkpt lat="42.6748" lon="1.64049">
        <ele>1597</ele>
        <time>2018-11-18T11:49:44.000Z</time>
      </trkpt>
      <trkpt lat="42.67479" lon="1.64047">
        <ele>1597</ele>
        <time>2018-11-18T11:49:46.000Z</time>
      </trkpt>
      <trkpt lat="42.67477" lon="1.64046">
        <ele>1597</ele>
        <time>2018-11-18T11:49:48.000Z</time>
      </trkpt>
      <trkpt lat="42.67477" lon="1.64044">
        <ele>1597</ele>
        <time>2018-11-18T11:49:50.000Z</time>
      </trkpt>
      <trkpt lat="42.67476" lon="1.64042">
        <ele>1597</ele>
        <time>2018-11-18T11:49:52.000Z</time>
      </trkpt>
      <trkpt lat="42.67475" lon="1.64041">
        <ele>1597</ele>
        <time>2018-11-18T11:49:54.000Z</time>
      </trkpt>
      <trkpt lat="42.67474" lon="1.64039">
        <ele>1597</ele>
        <time>2018-11-18T11:49:56.000Z</time>
      </trkpt>
      <trkpt lat="42.67473" lon="1.64038">
        <ele>1597</ele>
        <time>2018-11-18T11:49:58.000Z</time>
      </trkpt>
      <trkpt lat="42.67473" lon="1.64038">
        <ele>1597</ele>
        <time>2018-11-18T11:50:00.000Z</time>
      </trkpt>
      <trkpt lat="42.67472" lon="1.64038">
        <ele>1597</ele>
        <time>2018-11-18T11:50:02.000Z</time>
      </trkpt>
      <trkpt lat="42.67472" lon="1.64038">
        <ele>1597</ele>
        <time>2018-11-18T11:50:04.000Z</time>
      </trkpt>
      <trkpt lat="42.67471" lon="1.64039">
        <ele>1597</ele>
        <time>2018-11-18T11:50:06.000Z</time>
      </trkpt>
      <trkpt lat="42.67471" lon="1.64039">
        <ele>1597</ele>
        <time>2018-11-18T11:50:08.000Z</time>
      </trkpt>
      <trkpt lat="42.6747" lon="1.6404">
        <ele>1597</ele>
        <time>2018-11-18T11:50:10.000Z</time>
      </trkpt>
      <trkpt lat="42.6747" lon="1.6404">
        <ele>1597</ele>
        <time>2018-11-18T11:50:12.000Z</time>
      </trkpt>
      <trkpt lat="42.6747" lon="1.6404">
        <ele>1597</ele>
        <time>2018-11-18T11:50:14.000Z</time>
      </trkpt>
      <trkpt lat="42.6747" lon="1.6404">
        <ele>1597</ele>
        <time>2018-11-18T11:50:16.000Z</time>
      </trkpt>
      <trkpt lat="42.6747" lon="1.6404">
        <ele>1597</ele>
        <time>2018-11-18T11:50:18.000Z</time>
      </trkpt>
      <trkpt lat="42.6747" lon="1.6404">
        <ele>1597</ele>
        <time>2018-11-18T11:50:20.000Z</time>
      </trkpt>
      <trkpt lat="42.6747" lon="1.6404">
        <ele>1597</ele>
        <time>2018-11-18T11:50:22.000Z</time>
      </trkpt>
      <trkpt lat="42.6747" lon="1.6404">
        <ele>1597</ele>
        <time>2018-11-18T11:50:24.000Z</time>
      </trkpt>
      <trkpt lat="42.67469" lon="1.64039">
        <ele>1597</ele>
        <time>2018-11-18T11:50:26.000Z</time>
      </trkpt>
      <trkpt lat="42.67468" lon="1.64037">
        <ele>1597</ele>
        <time>2018-11-18T11:50:28.000Z</time>
      </trkpt>
      <trkpt lat="42.67467" lon="1.64037">
        <ele>1597</ele>
        <time>2018-11-18T11:50:30.000Z</time>
      </trkpt>
      <trkpt lat="42.67466" lon="1.64037">
        <ele>1597</ele>
        <time>2018-11-18T11:50:32.000Z</time>
      </trkpt>
      <trkpt lat="42.67465" lon="1.64036">
        <ele>1598</ele>
        <time>2018-11-18T11:50:34.000Z</time>
      </trkpt>
      <trkpt lat="42.67465" lon="1.64033">
        <ele>1597</ele>
        <time>2018-11-18T11:50:36.000Z</time>
      </trkpt>
      <trkpt lat="42.67465" lon="1.6403">
        <ele>1597</ele>
        <time>2018-11-18T11:50:38.000Z</time>
      </trkpt>
      <trkpt lat="42.67464" lon="1.64028">
        <ele>1597</ele>
        <time>2018-11-18T11:50:40.000Z</time>
      </trkpt>
      <trkpt lat="42.67463" lon="1.64025">
        <ele>1597</ele>
        <time>2018-11-18T11:50:42.000Z</time>
      </trkpt>
      <trkpt lat="42.67461" lon="1.64024">
        <ele>1597</ele>
        <time>2018-11-18T11:50:44.000Z</time>
      </trkpt>
      <trkpt lat="42.6746" lon="1.64024">
        <ele>1597</ele>
        <time>2018-11-18T11:50:46.000Z</time>
      </trkpt>
      <trkpt lat="42.67458" lon="1.64022">
        <ele>1598</ele>
        <time>2018-11-18T11:50:48.000Z</time>
      </trkpt>
      <trkpt lat="42.67456" lon="1.6402">
        <ele>1598</ele>
        <time>2018-11-18T11:50:50.000Z</time>
      </trkpt>
      <trkpt lat="42.67454" lon="1.64018">
        <ele>1598</ele>
        <time>2018-11-18T11:50:52.000Z</time>
      </trkpt>
      <trkpt lat="42.67452" lon="1.64017">
        <ele>1598</ele>
        <time>2018-11-18T11:50:54.000Z</time>
      </trkpt>
      <trkpt lat="42.67451" lon="1.64014">
        <ele>1598</ele>
        <time>2018-11-18T11:50:56.000Z</time>
      </trkpt>
      <trkpt lat="42.67449" lon="1.64012">
        <ele>1598</ele>
        <time>2018-11-18T11:50:58.000Z</time>
      </trkpt>
      <trkpt lat="42.67448" lon="1.6401">
        <ele>1598</ele>
        <time>2018-11-18T11:51:00.000Z</time>
      </trkpt>
      <trkpt lat="42.67447" lon="1.64009">
        <ele>1598</ele>
        <time>2018-11-18T11:51:02.000Z</time>
      </trkpt>
      <trkpt lat="42.67446" lon="1.64008">
        <ele>1598</ele>
        <time>2018-11-18T11:51:04.000Z</time>
      </trkpt>
      <trkpt lat="42.67445" lon="1.64007">
        <ele>1598</ele>
        <time>2018-11-18T11:51:06.000Z</time>
      </trkpt>
      <trkpt lat="42.67443" lon="1.64006">
        <ele>1598</ele>
        <time>2018-11-18T11:51:08.000Z</time>
      </trkpt>
      <trkpt lat="42.67441" lon="1.64005">
        <ele>1598</ele>
        <time>2018-11-18T11:51:10.000Z</time>
      </trkpt>
      <trkpt lat="42.6744" lon="1.64003">
        <ele>1598</ele>
        <time>2018-11-18T11:51:12.000Z</time>
      </trkpt>
      <trkpt lat="42.67438" lon="1.64001">
        <ele>1598</ele>
        <time>2018-11-18T11:51:14.000Z</time>
      </trkpt>
      <trkpt lat="42.67437" lon="1.64">
        <ele>1598</ele>
        <time>2018-11-18T11:51:16.000Z</time>
      </trkpt>
      <trkpt lat="42.67435" lon="1.63999">
        <ele>1598</ele>
        <time>2018-11-18T11:51:18.000Z</time>
      </trkpt>
      <trkpt lat="42.67433" lon="1.63998">
        <ele>1598</ele>
        <time>2018-11-18T11:51:20.000Z</time>
      </trkpt>
      <trkpt lat="42.67431" lon="1.63998">
        <ele>1598</ele>
        <time>2018-11-18T11:51:22.000Z</time>
      </trkpt>
      <trkpt lat="42.67429" lon="1.63998">
        <ele>1598</ele>
        <time>2018-11-18T11:51:24.000Z</time>
      </trkpt>
      <trkpt lat="42.67428" lon="1.63997">
        <ele>1598</ele>
        <time>2018-11-18T11:51:26.000Z</time>
      </trkpt>
      <trkpt lat="42.67426" lon="1.63996">
        <ele>1598</ele>
        <time>2018-11-18T11:51:28.000Z</time>
      </trkpt>
      <trkpt lat="42.67424" lon="1.63996">
        <ele>1598</ele>
        <time>2018-11-18T11:51:30.000Z</time>
      </trkpt>
      <trkpt lat="42.67422" lon="1.63996">
        <ele>1598</ele>
        <time>2018-11-18T11:51:32.000Z</time>
      </trkpt>
      <trkpt lat="42.67419" lon="1.63997">
        <ele>1598</ele>
        <time>2018-11-18T11:51:34.000Z</time>
      </trkpt>
      <trkpt lat="42.67416" lon="1.63997">
        <ele>1599</ele>
        <time>2018-11-18T11:51:36.000Z</time>
      </trkpt>
      <trkpt lat="42.67414" lon="1.63997">
        <ele>1599</ele>
        <time>2018-11-18T11:51:38.000Z</time>
      </trkpt>
      <trkpt lat="42.67412" lon="1.63996">
        <ele>1599</ele>
        <time>2018-11-18T11:51:40.000Z</time>
      </trkpt>
      <trkpt lat="42.6741" lon="1.63996">
        <ele>1599</ele>
        <time>2018-11-18T11:51:42.000Z</time>
      </trkpt>
      <trkpt lat="42.67409" lon="1.63995">
        <ele>1600</ele>
        <time>2018-11-18T11:51:44.000Z</time>
      </trkpt>
      <trkpt lat="42.6741" lon="1.63994">
        <ele>1599</ele>
        <time>2018-11-18T11:51:46.000Z</time>
      </trkpt>
      <trkpt lat="42.67413" lon="1.63992">
        <ele>1599</ele>
        <time>2018-11-18T11:51:48.000Z</time>
      </trkpt>
      <trkpt lat="42.67414" lon="1.63991">
        <ele>1599</ele>
        <time>2018-11-18T11:51:50.000Z</time>
      </trkpt>
      <trkpt lat="42.67415" lon="1.6399">
        <ele>1599</ele>
        <time>2018-11-18T11:51:52.000Z</time>
      </trkpt>
      <trkpt lat="42.67415" lon="1.6399">
        <ele>1599</ele>
        <time>2018-11-18T11:51:54.000Z</time>
      </trkpt>
      <trkpt lat="42.67416" lon="1.63988">
        <ele>1599</ele>
        <time>2018-11-18T11:51:56.000Z</time>
      </trkpt>
      <trkpt lat="42.67417" lon="1.63986">
        <ele>1598</ele>
        <time>2018-11-18T11:51:58.000Z</time>
      </trkpt>
      <trkpt lat="42.67417" lon="1.63986">
        <ele>1598</ele>
        <time>2018-11-18T11:52:00.000Z</time>
      </trkpt>
      <trkpt lat="42.67417" lon="1.63985">
        <ele>1598</ele>
        <time>2018-11-18T11:52:02.000Z</time>
      </trkpt>
      <trkpt lat="42.67417" lon="1.63984">
        <ele>1598</ele>
        <time>2018-11-18T11:52:04.000Z</time>
      </trkpt>
      <trkpt lat="42.67416" lon="1.63982">
        <ele>1598</ele>
        <time>2018-11-18T11:52:06.000Z</time>
      </trkpt>
      <trkpt lat="42.67415" lon="1.63981">
        <ele>1598</ele>
        <time>2018-11-18T11:52:08.000Z</time>
      </trkpt>
      <trkpt lat="42.67413" lon="1.6398">
        <ele>1598</ele>
        <time>2018-11-18T11:52:10.000Z</time>
      </trkpt>
      <trkpt lat="42.67412" lon="1.63979">
        <ele>1598</ele>
        <time>2018-11-18T11:52:12.000Z</time>
      </trkpt>
      <trkpt lat="42.6741" lon="1.63979">
        <ele>1599</ele>
        <time>2018-11-18T11:52:14.000Z</time>
      </trkpt>
      <trkpt lat="42.67408" lon="1.63978">
        <ele>1599</ele>
        <time>2018-11-18T11:52:16.000Z</time>
      </trkpt>
      <trkpt lat="42.67407" lon="1.63977">
        <ele>1599</ele>
        <time>2018-11-18T11:52:18.000Z</time>
      </trkpt>
      <trkpt lat="42.67405" lon="1.63977">
        <ele>1599</ele>
        <time>2018-11-18T11:52:20.000Z</time>
      </trkpt>
      <trkpt lat="42.67403" lon="1.63976">
        <ele>1599</ele>
        <time>2018-11-18T11:52:22.000Z</time>
      </trkpt>
      <trkpt lat="42.67401" lon="1.63975">
        <ele>1599</ele>
        <time>2018-11-18T11:52:24.000Z</time>
      </trkpt>
      <trkpt lat="42.67398" lon="1.63975">
        <ele>1600</ele>
        <time>2018-11-18T11:52:26.000Z</time>
      </trkpt>
      <trkpt lat="42.67396" lon="1.63974">
        <ele>1600</ele>
        <time>2018-11-18T11:52:28.000Z</time>
      </trkpt>
      <trkpt lat="42.67394" lon="1.63974">
        <ele>1600</ele>
        <time>2018-11-18T11:52:30.000Z</time>
      </trkpt>
      <trkpt lat="42.67392" lon="1.63974">
        <ele>1600</ele>
        <time>2018-11-18T11:52:32.000Z</time>
      </trkpt>
      <trkpt lat="42.6739" lon="1.63975">
        <ele>1601</ele>
        <time>2018-11-18T11:52:34.000Z</time>
      </trkpt>
      <trkpt lat="42.6739" lon="1.63975">
        <ele>1601</ele>
        <time>2018-11-18T11:52:36.000Z</time>
      </trkpt>
      <trkpt lat="42.67388" lon="1.63976">
        <ele>1601</ele>
        <time>2018-11-18T11:52:38.000Z</time>
      </trkpt>
      <trkpt lat="42.67387" lon="1.63976">
        <ele>1601</ele>
        <time>2018-11-18T11:52:40.000Z</time>
      </trkpt>
      <trkpt lat="42.67387" lon="1.63976">
        <ele>1601</ele>
        <time>2018-11-18T11:52:42.000Z</time>
      </trkpt>
      <trkpt lat="42.67387" lon="1.63976">
        <ele>1601</ele>
        <time>2018-11-18T11:52:44.000Z</time>
      </trkpt>
      <trkpt lat="42.67387" lon="1.63977">
        <ele>1601</ele>
        <time>2018-11-18T11:52:46.000Z</time>
      </trkpt>
      <trkpt lat="42.67387" lon="1.63977">
        <ele>1601</ele>
        <time>2018-11-18T11:52:48.000Z</time>
      </trkpt>
      <trkpt lat="42.67387" lon="1.63977">
        <ele>1601</ele>
        <time>2018-11-18T11:52:50.000Z</time>
      </trkpt>
      <trkpt lat="42.67387" lon="1.63977">
        <ele>1601</ele>
        <time>2018-11-18T11:52:52.000Z</time>
      </trkpt>
      <trkpt lat="42.67387" lon="1.63977">
        <ele>1601</ele>
        <time>2018-11-18T11:52:54.000Z</time>
      </trkpt>
      <trkpt lat="42.67387" lon="1.63977">
        <ele>1601</ele>
        <time>2018-11-18T11:52:56.000Z</time>
      </trkpt>
      <trkpt lat="42.67387" lon="1.63977">
        <ele>1601</ele>
        <time>2018-11-18T11:52:58.000Z</time>
      </trkpt>
      <trkpt lat="42.67387" lon="1.63977">
        <ele>1601</ele>
        <time>2018-11-18T11:53:00.000Z</time>
      </trkpt>
      <trkpt lat="42.67386" lon="1.63977">
        <ele>1601</ele>
        <time>2018-11-18T11:53:02.000Z</time>
      </trkpt>
      <trkpt lat="42.67386" lon="1.63978">
        <ele>1602</ele>
        <time>2018-11-18T11:53:04.000Z</time>
      </trkpt>
      <trkpt lat="42.67385" lon="1.63978">
        <ele>1602</ele>
        <time>2018-11-18T11:53:06.000Z</time>
      </trkpt>
      <trkpt lat="42.67385" lon="1.63978">
        <ele>1602</ele>
        <time>2018-11-18T11:53:08.000Z</time>
      </trkpt>
      <trkpt lat="42.67386" lon="1.63978">
        <ele>1602</ele>
        <time>2018-11-18T11:53:10.000Z</time>
      </trkpt>
      <trkpt lat="42.67387" lon="1.63979">
        <ele>1602</ele>
        <time>2018-11-18T11:53:12.000Z</time>
      </trkpt>
      <trkpt lat="42.67387" lon="1.6398">
        <ele>1602</ele>
        <time>2018-11-18T11:53:14.000Z</time>
      </trkpt>
      <trkpt lat="42.67386" lon="1.63982">
        <ele>1602</ele>
        <time>2018-11-18T11:53:16.000Z</time>
      </trkpt>
      <trkpt lat="42.67385" lon="1.63985">
        <ele>1602</ele>
        <time>2018-11-18T11:53:18.000Z</time>
      </trkpt>
      <trkpt lat="42.67384" lon="1.63987">
        <ele>1603</ele>
        <time>2018-11-18T11:53:20.000Z</time>
      </trkpt>
      <trkpt lat="42.67381" lon="1.63988">
        <ele>1603</ele>
        <time>2018-11-18T11:53:22.000Z</time>
      </trkpt>
      <trkpt lat="42.6738" lon="1.6399">
        <ele>1603</ele>
        <time>2018-11-18T11:53:24.000Z</time>
      </trkpt>
      <trkpt lat="42.6738" lon="1.63993">
        <ele>1603</ele>
        <time>2018-11-18T11:53:26.000Z</time>
      </trkpt>
      <trkpt lat="42.67379" lon="1.63995">
        <ele>1603</ele>
        <time>2018-11-18T11:53:28.000Z</time>
      </trkpt>
      <trkpt lat="42.67378" lon="1.63998">
        <ele>1604</ele>
        <time>2018-11-18T11:53:30.000Z</time>
      </trkpt>
      <trkpt lat="42.67377" lon="1.64001">
        <ele>1604</ele>
        <time>2018-11-18T11:53:32.000Z</time>
      </trkpt>
      <trkpt lat="42.67377" lon="1.64003">
        <ele>1604</ele>
        <time>2018-11-18T11:53:34.000Z</time>
      </trkpt>
      <trkpt lat="42.67377" lon="1.64005">
        <ele>1604</ele>
        <time>2018-11-18T11:53:36.000Z</time>
      </trkpt>
      <trkpt lat="42.67377" lon="1.64008">
        <ele>1604</ele>
        <time>2018-11-18T11:53:38.000Z</time>
      </trkpt>
      <trkpt lat="42.67376" lon="1.64011">
        <ele>1604</ele>
        <time>2018-11-18T11:53:40.000Z</time>
      </trkpt>
      <trkpt lat="42.67376" lon="1.64013">
        <ele>1604</ele>
        <time>2018-11-18T11:53:42.000Z</time>
      </trkpt>
      <trkpt lat="42.67376" lon="1.64015">
        <ele>1604</ele>
        <time>2018-11-18T11:53:44.000Z</time>
      </trkpt>
      <trkpt lat="42.67375" lon="1.64018">
        <ele>1604</ele>
        <time>2018-11-18T11:53:46.000Z</time>
      </trkpt>
      <trkpt lat="42.67374" lon="1.64018">
        <ele>1604</ele>
        <time>2018-11-18T11:53:48.000Z</time>
      </trkpt>
      <trkpt lat="42.67373" lon="1.64018">
        <ele>1605</ele>
        <time>2018-11-18T11:53:50.000Z</time>
      </trkpt>
      <trkpt lat="42.67373" lon="1.64018">
        <ele>1605</ele>
        <time>2018-11-18T11:53:52.000Z</time>
      </trkpt>
      <trkpt lat="42.67373" lon="1.64017">
        <ele>1605</ele>
        <time>2018-11-18T11:53:54.000Z</time>
      </trkpt>
      <trkpt lat="42.67373" lon="1.64016">
        <ele>1605</ele>
        <time>2018-11-18T11:53:56.000Z</time>
      </trkpt>
      <trkpt lat="42.67372" lon="1.64015">
        <ele>1605</ele>
        <time>2018-11-18T11:53:58.000Z</time>
      </trkpt>
      <trkpt lat="42.67372" lon="1.64013">
        <ele>1605</ele>
        <time>2018-11-18T11:54:00.000Z</time>
      </trkpt>
      <trkpt lat="42.67371" lon="1.64011">
        <ele>1605</ele>
        <time>2018-11-18T11:54:02.000Z</time>
      </trkpt>
      <trkpt lat="42.67371" lon="1.64008">
        <ele>1605</ele>
        <time>2018-11-18T11:54:04.000Z</time>
      </trkpt>
      <trkpt lat="42.67371" lon="1.64006">
        <ele>1605</ele>
        <time>2018-11-18T11:54:06.000Z</time>
      </trkpt>
      <trkpt lat="42.67372" lon="1.64005">
        <ele>1605</ele>
        <time>2018-11-18T11:54:08.000Z</time>
      </trkpt>
      <trkpt lat="42.67372" lon="1.64004">
        <ele>1605</ele>
        <time>2018-11-18T11:54:10.000Z</time>
      </trkpt>
      <trkpt lat="42.67372" lon="1.64003">
        <ele>1605</ele>
        <time>2018-11-18T11:54:12.000Z</time>
      </trkpt>
      <trkpt lat="42.67371" lon="1.64003">
        <ele>1605</ele>
        <time>2018-11-18T11:54:14.000Z</time>
      </trkpt>
      <trkpt lat="42.67371" lon="1.64003">
        <ele>1605</ele>
        <time>2018-11-18T11:54:16.000Z</time>
      </trkpt>
      <trkpt lat="42.67371" lon="1.64003">
        <ele>1605</ele>
        <time>2018-11-18T11:54:18.000Z</time>
      </trkpt>
      <trkpt lat="42.67371" lon="1.64003">
        <ele>1605</ele>
        <time>2018-11-18T11:54:20.000Z</time>
      </trkpt>
      <trkpt lat="42.67372" lon="1.64003">
        <ele>1605</ele>
        <time>2018-11-18T11:54:22.000Z</time>
      </trkpt>
      <trkpt lat="42.67372" lon="1.64003">
        <ele>1604</ele>
        <time>2018-11-18T11:54:24.000Z</time>
      </trkpt>
      <trkpt lat="42.67372" lon="1.64003">
        <ele>1604</ele>
        <time>2018-11-18T11:54:26.000Z</time>
      </trkpt>
      <trkpt lat="42.67373" lon="1.64003">
        <ele>1604</ele>
        <time>2018-11-18T11:54:28.000Z</time>
      </trkpt>
      <trkpt lat="42.67373" lon="1.64003">
        <ele>1604</ele>
        <time>2018-11-18T11:54:30.000Z</time>
      </trkpt>
      <trkpt lat="42.67373" lon="1.64003">
        <ele>1604</ele>
        <time>2018-11-18T11:54:32.000Z</time>
      </trkpt>
      <trkpt lat="42.67373" lon="1.64003">
        <ele>1604</ele>
        <time>2018-11-18T11:54:34.000Z</time>
      </trkpt>
      <trkpt lat="42.67373" lon="1.64003">
        <ele>1604</ele>
        <time>2018-11-18T11:54:36.000Z</time>
      </trkpt>
      <trkpt lat="42.67373" lon="1.64003">
        <ele>1604</ele>
        <time>2018-11-18T11:54:38.000Z</time>
      </trkpt>
      <trkpt lat="42.67373" lon="1.64003">
        <ele>1604</ele>
        <time>2018-11-18T11:54:40.000Z</time>
      </trkpt>
      <trkpt lat="42.67373" lon="1.64003">
        <ele>1604</ele>
        <time>2018-11-18T11:54:42.000Z</time>
      </trkpt>
      <trkpt lat="42.67373" lon="1.64002">
        <ele>1604</ele>
        <time>2018-11-18T11:54:44.000Z</time>
      </trkpt>
      <trkpt lat="42.67373" lon="1.64003">
        <ele>1604</ele>
        <time>2018-11-18T11:54:46.000Z</time>
      </trkpt>
      <trkpt lat="42.67374" lon="1.64002">
        <ele>1604</ele>
        <time>2018-11-18T11:54:48.000Z</time>
      </trkpt>
      <trkpt lat="42.67374" lon="1.64002">
        <ele>1604</ele>
        <time>2018-11-18T11:54:50.000Z</time>
      </trkpt>
      <trkpt lat="42.67375" lon="1.64002">
        <ele>1604</ele>
        <time>2018-11-18T11:54:52.000Z</time>
      </trkpt>
      <trkpt lat="42.67375" lon="1.64001">
        <ele>1604</ele>
        <time>2018-11-18T11:54:54.000Z</time>
      </trkpt>
      <trkpt lat="42.67376" lon="1.64001">
        <ele>1604</ele>
        <time>2018-11-18T11:54:56.000Z</time>
      </trkpt>
      <trkpt lat="42.67377" lon="1.64">
        <ele>1604</ele>
        <time>2018-11-18T11:54:58.000Z</time>
      </trkpt>
      <trkpt lat="42.67377" lon="1.64">
        <ele>1604</ele>
        <time>2018-11-18T11:55:00.000Z</time>
      </trkpt>
      <trkpt lat="42.67378" lon="1.64">
        <ele>1604</ele>
        <time>2018-11-18T11:55:02.000Z</time>
      </trkpt>
      <trkpt lat="42.67378" lon="1.64">
        <ele>1604</ele>
        <time>2018-11-18T11:55:04.000Z</time>
      </trkpt>
      <trkpt lat="42.67378" lon="1.64">
        <ele>1604</ele>
        <time>2018-11-18T11:55:06.000Z</time>
      </trkpt>
      <trkpt lat="42.67378" lon="1.64">
        <ele>1604</ele>
        <time>2018-11-18T11:55:08.000Z</time>
      </trkpt>
      <trkpt lat="42.67377" lon="1.64">
        <ele>1604</ele>
        <time>2018-11-18T11:55:10.000Z</time>
      </trkpt>
      <trkpt lat="42.67377" lon="1.64">
        <ele>1604</ele>
        <time>2018-11-18T11:55:12.000Z</time>
      </trkpt>
      <trkpt lat="42.67376" lon="1.64001">
        <ele>1604</ele>
        <time>2018-11-18T11:55:14.000Z</time>
      </trkpt>
      <trkpt lat="42.67375" lon="1.64001">
        <ele>1604</ele>
        <time>2018-11-18T11:55:16.000Z</time>
      </trkpt>
      <trkpt lat="42.67375" lon="1.64001">
        <ele>1604</ele>
        <time>2018-11-18T11:55:18.000Z</time>
      </trkpt>
      <trkpt lat="42.67375" lon="1.64001">
        <ele>1604</ele>
        <time>2018-11-18T11:55:20.000Z</time>
      </trkpt>
      <trkpt lat="42.67374" lon="1.64002">
        <ele>1604</ele>
        <time>2018-11-18T11:55:22.000Z</time>
      </trkpt>
      <trkpt lat="42.67374" lon="1.64002">
        <ele>1604</ele>
        <time>2018-11-18T11:55:24.000Z</time>
      </trkpt>
      <trkpt lat="42.67374" lon="1.64002">
        <ele>1604</ele>
        <time>2018-11-18T11:55:26.000Z</time>
      </trkpt>
      <trkpt lat="42.67374" lon="1.64002">
        <ele>1604</ele>
        <time>2018-11-18T11:55:28.000Z</time>
      </trkpt>
      <trkpt lat="42.67373" lon="1.64002">
        <ele>1604</ele>
        <time>2018-11-18T11:55:30.000Z</time>
      </trkpt>
      <trkpt lat="42.67374" lon="1.64002">
        <ele>1604</ele>
        <time>2018-11-18T11:55:32.000Z</time>
      </trkpt>
      <trkpt lat="42.67374" lon="1.64002">
        <ele>1604</ele>
        <time>2018-11-18T11:55:34.000Z</time>
      </trkpt>
      <trkpt lat="42.67373" lon="1.64002">
        <ele>1604</ele>
        <time>2018-11-18T11:55:36.000Z</time>
      </trkpt>
      <trkpt lat="42.67372" lon="1.64003">
        <ele>1604</ele>
        <time>2018-11-18T11:55:38.000Z</time>
      </trkpt>
      <trkpt lat="42.67372" lon="1.64003">
        <ele>1605</ele>
        <time>2018-11-18T11:55:40.000Z</time>
      </trkpt>
      <trkpt lat="42.67372" lon="1.64003">
        <ele>1605</ele>
        <time>2018-11-18T11:55:42.000Z</time>
      </trkpt>
      <trkpt lat="42.67372" lon="1.64003">
        <ele>1604</ele>
        <time>2018-11-18T11:55:44.000Z</time>
      </trkpt>
      <trkpt lat="42.67373" lon="1.64003">
        <ele>1604</ele>
        <time>2018-11-18T11:55:46.000Z</time>
      </trkpt>
      <trkpt lat="42.67373" lon="1.64003">
        <ele>1604</ele>
        <time>2018-11-18T11:55:48.000Z</time>
      </trkpt>
      <trkpt lat="42.67372" lon="1.64003">
        <ele>1604</ele>
        <time>2018-11-18T11:55:50.000Z</time>
      </trkpt>
      <trkpt lat="42.67372" lon="1.64002">
        <ele>1604</ele>
        <time>2018-11-18T11:55:52.000Z</time>
      </trkpt>
      <trkpt lat="42.67372" lon="1.64002">
        <ele>1604</ele>
        <time>2018-11-18T11:55:54.000Z</time>
      </trkpt>
      <trkpt lat="42.67373" lon="1.64002">
        <ele>1604</ele>
        <time>2018-11-18T11:55:56.000Z</time>
      </trkpt>
      <trkpt lat="42.67372" lon="1.64002">
        <ele>1604</ele>
        <time>2018-11-18T11:55:58.000Z</time>
      </trkpt>
      <trkpt lat="42.67372" lon="1.64002">
        <ele>1604</ele>
        <time>2018-11-18T11:56:00.000Z</time>
      </trkpt>
      <trkpt lat="42.67371" lon="1.64003">
        <ele>1605</ele>
        <time>2018-11-18T11:56:02.000Z</time>
      </trkpt>
      <trkpt lat="42.67371" lon="1.64003">
        <ele>1605</ele>
        <time>2018-11-18T11:56:04.000Z</time>
      </trkpt>
      <trkpt lat="42.6737" lon="1.64003">
        <ele>1605</ele>
        <time>2018-11-18T11:56:06.000Z</time>
      </trkpt>
      <trkpt lat="42.6737" lon="1.64003">
        <ele>1605</ele>
        <time>2018-11-18T11:56:08.000Z</time>
      </trkpt>
      <trkpt lat="42.6737" lon="1.64003">
        <ele>1605</ele>
        <time>2018-11-18T11:56:10.000Z</time>
      </trkpt>
      <trkpt lat="42.67371" lon="1.64003">
        <ele>1605</ele>
        <time>2018-11-18T11:56:12.000Z</time>
      </trkpt>
      <trkpt lat="42.67371" lon="1.64003">
        <ele>1605</ele>
        <time>2018-11-18T11:56:14.000Z</time>
      </trkpt>
      <trkpt lat="42.6737" lon="1.64003">
        <ele>1605</ele>
        <time>2018-11-18T11:56:16.000Z</time>
      </trkpt>
      <trkpt lat="42.67368" lon="1.64002">
        <ele>1605</ele>
        <time>2018-11-18T11:56:18.000Z</time>
      </trkpt>
      <trkpt lat="42.67367" lon="1.64001">
        <ele>1605</ele>
        <time>2018-11-18T11:56:20.000Z</time>
      </trkpt>
      <trkpt lat="42.67365" lon="1.64001">
        <ele>1605</ele>
        <time>2018-11-18T11:56:22.000Z</time>
      </trkpt>
      <trkpt lat="42.67364" lon="1.63999">
        <ele>1606</ele>
        <time>2018-11-18T11:56:24.000Z</time>
      </trkpt>
      <trkpt lat="42.67363" lon="1.63997">
        <ele>1606</ele>
        <time>2018-11-18T11:56:26.000Z</time>
      </trkpt>
      <trkpt lat="42.67362" lon="1.63994">
        <ele>1606</ele>
        <time>2018-11-18T11:56:28.000Z</time>
      </trkpt>
      <trkpt lat="42.67361" lon="1.63991">
        <ele>1606</ele>
        <time>2018-11-18T11:56:30.000Z</time>
      </trkpt>
      <trkpt lat="42.6736" lon="1.63989">
        <ele>1606</ele>
        <time>2018-11-18T11:56:32.000Z</time>
      </trkpt>
      <trkpt lat="42.67359" lon="1.63986">
        <ele>1606</ele>
        <time>2018-11-18T11:56:34.000Z</time>
      </trkpt>
      <trkpt lat="42.67358" lon="1.63984">
        <ele>1606</ele>
        <time>2018-11-18T11:56:36.000Z</time>
      </trkpt>
      <trkpt lat="42.67356" lon="1.63981">
        <ele>1606</ele>
        <time>2018-11-18T11:56:38.000Z</time>
      </trkpt>
      <trkpt lat="42.67354" lon="1.63979">
        <ele>1606</ele>
        <time>2018-11-18T11:56:40.000Z</time>
      </trkpt>
      <trkpt lat="42.67353" lon="1.63976">
        <ele>1606</ele>
        <time>2018-11-18T11:56:42.000Z</time>
      </trkpt>
      <trkpt lat="42.67351" lon="1.63974">
        <ele>1606</ele>
        <time>2018-11-18T11:56:44.000Z</time>
      </trkpt>
      <trkpt lat="42.67349" lon="1.63972">
        <ele>1606</ele>
        <time>2018-11-18T11:56:46.000Z</time>
      </trkpt>
      <trkpt lat="42.67347" lon="1.63969">
        <ele>1606</ele>
        <time>2018-11-18T11:56:48.000Z</time>
      </trkpt>
      <trkpt lat="42.67346" lon="1.63965">
        <ele>1606</ele>
        <time>2018-11-18T11:56:50.000Z</time>
      </trkpt>
      <trkpt lat="42.67345" lon="1.63963">
        <ele>1605</ele>
        <time>2018-11-18T11:56:52.000Z</time>
      </trkpt>
      <trkpt lat="42.67345" lon="1.63959">
        <ele>1605</ele>
        <time>2018-11-18T11:56:54.000Z</time>
      </trkpt>
      <trkpt lat="42.67343" lon="1.63956">
        <ele>1605</ele>
        <time>2018-11-18T11:56:56.000Z</time>
      </trkpt>
      <trkpt lat="42.67342" lon="1.63953">
        <ele>1605</ele>
        <time>2018-11-18T11:56:58.000Z</time>
      </trkpt>
      <trkpt lat="42.6734" lon="1.6395">
        <ele>1605</ele>
        <time>2018-11-18T11:57:00.000Z</time>
      </trkpt>
      <trkpt lat="42.67339" lon="1.63947">
        <ele>1604</ele>
        <time>2018-11-18T11:57:02.000Z</time>
      </trkpt>
      <trkpt lat="42.67338" lon="1.63945">
        <ele>1604</ele>
        <time>2018-11-18T11:57:04.000Z</time>
      </trkpt>
      <trkpt lat="42.67337" lon="1.63942">
        <ele>1604</ele>
        <time>2018-11-18T11:57:06.000Z</time>
      </trkpt>
      <trkpt lat="42.67337" lon="1.63938">
        <ele>1604</ele>
        <time>2018-11-18T11:57:08.000Z</time>
      </trkpt>
      <trkpt lat="42.67336" lon="1.63935">
        <ele>1604</ele>
        <time>2018-11-18T11:57:10.000Z</time>
      </trkpt>
      <trkpt lat="42.67336" lon="1.63932">
        <ele>1603</ele>
        <time>2018-11-18T11:57:12.000Z</time>
      </trkpt>
      <trkpt lat="42.67334" lon="1.63929">
        <ele>1603</ele>
        <time>2018-11-18T11:57:14.000Z</time>
      </trkpt>
      <trkpt lat="42.67332" lon="1.63927">
        <ele>1603</ele>
        <time>2018-11-18T11:57:16.000Z</time>
      </trkpt>
      <trkpt lat="42.67331" lon="1.63924">
        <ele>1603</ele>
        <time>2018-11-18T11:57:18.000Z</time>
      </trkpt>
      <trkpt lat="42.6733" lon="1.63921">
        <ele>1603</ele>
        <time>2018-11-18T11:57:20.000Z</time>
      </trkpt>
      <trkpt lat="42.67328" lon="1.63918">
        <ele>1603</ele>
        <time>2018-11-18T11:57:22.000Z</time>
      </trkpt>
      <trkpt lat="42.67326" lon="1.63915">
        <ele>1603</ele>
        <time>2018-11-18T11:57:24.000Z</time>
      </trkpt>
      <trkpt lat="42.67325" lon="1.63912">
        <ele>1603</ele>
        <time>2018-11-18T11:57:26.000Z</time>
      </trkpt>
      <trkpt lat="42.67325" lon="1.63908">
        <ele>1603</ele>
        <time>2018-11-18T11:57:28.000Z</time>
      </trkpt>
      <trkpt lat="42.67324" lon="1.63905">
        <ele>1602</ele>
        <time>2018-11-18T11:57:30.000Z</time>
      </trkpt>
      <trkpt lat="42.67323" lon="1.63902">
        <ele>1602</ele>
        <time>2018-11-18T11:57:32.000Z</time>
      </trkpt>
      <trkpt lat="42.67322" lon="1.639">
        <ele>1602</ele>
        <time>2018-11-18T11:57:34.000Z</time>
      </trkpt>
      <trkpt lat="42.67321" lon="1.63897">
        <ele>1602</ele>
        <time>2018-11-18T11:57:36.000Z</time>
      </trkpt>
      <trkpt lat="42.67319" lon="1.63895">
        <ele>1602</ele>
        <time>2018-11-18T11:57:38.000Z</time>
      </trkpt>
      <trkpt lat="42.67319" lon="1.63892">
        <ele>1602</ele>
        <time>2018-11-18T11:57:40.000Z</time>
      </trkpt>
      <trkpt lat="42.67319" lon="1.63891">
        <ele>1602</ele>
        <time>2018-11-18T11:57:42.000Z</time>
      </trkpt>
      <trkpt lat="42.6732" lon="1.63891">
        <ele>1602</ele>
        <time>2018-11-18T11:57:44.000Z</time>
      </trkpt>
      <trkpt lat="42.6732" lon="1.63891">
        <ele>1602</ele>
        <time>2018-11-18T11:57:46.000Z</time>
      </trkpt>
      <trkpt lat="42.6732" lon="1.63891">
        <ele>1602</ele>
        <time>2018-11-18T11:57:48.000Z</time>
      </trkpt>
      <trkpt lat="42.6732" lon="1.6389">
        <ele>1602</ele>
        <time>2018-11-18T11:57:50.000Z</time>
      </trkpt>
      <trkpt lat="42.67319" lon="1.6389">
        <ele>1602</ele>
        <time>2018-11-18T11:57:52.000Z</time>
      </trkpt>
      <trkpt lat="42.67317" lon="1.63889">
        <ele>1602</ele>
        <time>2018-11-18T11:57:54.000Z</time>
      </trkpt>
      <trkpt lat="42.67315" lon="1.63887">
        <ele>1602</ele>
        <time>2018-11-18T11:57:56.000Z</time>
      </trkpt>
      <trkpt lat="42.67315" lon="1.63885">
        <ele>1602</ele>
        <time>2018-11-18T11:57:58.000Z</time>
      </trkpt>
      <trkpt lat="42.67314" lon="1.63884">
        <ele>1602</ele>
        <time>2018-11-18T11:58:00.000Z</time>
      </trkpt>
      <trkpt lat="42.67313" lon="1.63883">
        <ele>1602</ele>
        <time>2018-11-18T11:58:02.000Z</time>
      </trkpt>
      <trkpt lat="42.67313" lon="1.63883">
        <ele>1602</ele>
        <time>2018-11-18T11:58:04.000Z</time>
      </trkpt>
      <trkpt lat="42.67313" lon="1.63882">
        <ele>1602</ele>
        <time>2018-11-18T11:58:06.000Z</time>
      </trkpt>
      <trkpt lat="42.67313" lon="1.63882">
        <ele>1602</ele>
        <time>2018-11-18T11:58:08.000Z</time>
      </trkpt>
      <trkpt lat="42.67312" lon="1.63883">
        <ele>1602</ele>
        <time>2018-11-18T11:58:10.000Z</time>
      </trkpt>
      <trkpt lat="42.67311" lon="1.63883">
        <ele>1602</ele>
        <time>2018-11-18T11:58:12.000Z</time>
      </trkpt>
      <trkpt lat="42.6731" lon="1.63883">
        <ele>1603</ele>
        <time>2018-11-18T11:58:14.000Z</time>
      </trkpt>
      <trkpt lat="42.67309" lon="1.63882">
        <ele>1603</ele>
        <time>2018-11-18T11:58:16.000Z</time>
      </trkpt>
      <trkpt lat="42.67309" lon="1.63882">
        <ele>1603</ele>
        <time>2018-11-18T11:58:18.000Z</time>
      </trkpt>
      <trkpt lat="42.6731" lon="1.63882">
        <ele>1602</ele>
        <time>2018-11-18T11:58:20.000Z</time>
      </trkpt>
      <trkpt lat="42.6731" lon="1.63881">
        <ele>1602</ele>
        <time>2018-11-18T11:58:22.000Z</time>
      </trkpt>
      <trkpt lat="42.67311" lon="1.63881">
        <ele>1602</ele>
        <time>2018-11-18T11:58:24.000Z</time>
      </trkpt>
      <trkpt lat="42.6731" lon="1.63881">
        <ele>1602</ele>
        <time>2018-11-18T11:58:26.000Z</time>
      </trkpt>
      <trkpt lat="42.6731" lon="1.6388">
        <ele>1602</ele>
        <time>2018-11-18T11:58:28.000Z</time>
      </trkpt>
      <trkpt lat="42.67309" lon="1.6388">
        <ele>1603</ele>
        <time>2018-11-18T11:58:30.000Z</time>
      </trkpt>
      <trkpt lat="42.67307" lon="1.63879">
        <ele>1603</ele>
        <time>2018-11-18T11:58:32.000Z</time>
      </trkpt>
      <trkpt lat="42.67307" lon="1.63877">
        <ele>1602</ele>
        <time>2018-11-18T11:58:34.000Z</time>
      </trkpt>
      <trkpt lat="42.67307" lon="1.63876">
        <ele>1602</ele>
        <time>2018-11-18T11:58:36.000Z</time>
      </trkpt>
      <trkpt lat="42.67306" lon="1.63875">
        <ele>1603</ele>
        <time>2018-11-18T11:58:38.000Z</time>
      </trkpt>
      <trkpt lat="42.67304" lon="1.63875">
        <ele>1603</ele>
        <time>2018-11-18T11:58:40.000Z</time>
      </trkpt>
      <trkpt lat="42.67303" lon="1.63875">
        <ele>1603</ele>
        <time>2018-11-18T11:58:42.000Z</time>
      </trkpt>
      <trkpt lat="42.67301" lon="1.63873">
        <ele>1603</ele>
        <time>2018-11-18T11:58:44.000Z</time>
      </trkpt>
      <trkpt lat="42.673" lon="1.63871">
        <ele>1603</ele>
        <time>2018-11-18T11:58:46.000Z</time>
      </trkpt>
      <trkpt lat="42.67299" lon="1.63869">
        <ele>1603</ele>
        <time>2018-11-18T11:58:48.000Z</time>
      </trkpt>
      <trkpt lat="42.67298" lon="1.63866">
        <ele>1603</ele>
        <time>2018-11-18T11:58:50.000Z</time>
      </trkpt>
      <trkpt lat="42.67297" lon="1.63864">
        <ele>1603</ele>
        <time>2018-11-18T11:58:52.000Z</time>
      </trkpt>
      <trkpt lat="42.67295" lon="1.63863">
        <ele>1603</ele>
        <time>2018-11-18T11:58:54.000Z</time>
      </trkpt>
      <trkpt lat="42.67294" lon="1.63862">
        <ele>1603</ele>
        <time>2018-11-18T11:58:56.000Z</time>
      </trkpt>
      <trkpt lat="42.67293" lon="1.63859">
        <ele>1603</ele>
        <time>2018-11-18T11:58:58.000Z</time>
      </trkpt>
      <trkpt lat="42.67292" lon="1.63856">
        <ele>1603</ele>
        <time>2018-11-18T11:59:00.000Z</time>
      </trkpt>
      <trkpt lat="42.67291" lon="1.63854">
        <ele>1603</ele>
        <time>2018-11-18T11:59:02.000Z</time>
      </trkpt>
      <trkpt lat="42.6729" lon="1.63852">
        <ele>1603</ele>
        <time>2018-11-18T11:59:04.000Z</time>
      </trkpt>
      <trkpt lat="42.67289" lon="1.6385">
        <ele>1603</ele>
        <time>2018-11-18T11:59:06.000Z</time>
      </trkpt>
      <trkpt lat="42.67287" lon="1.63848">
        <ele>1604</ele>
        <time>2018-11-18T11:59:08.000Z</time>
      </trkpt>
      <trkpt lat="42.67285" lon="1.63846">
        <ele>1604</ele>
        <time>2018-11-18T11:59:10.000Z</time>
      </trkpt>
      <trkpt lat="42.67285" lon="1.63844">
        <ele>1604</ele>
        <time>2018-11-18T11:59:12.000Z</time>
      </trkpt>
      <trkpt lat="42.67284" lon="1.63843">
        <ele>1604</ele>
        <time>2018-11-18T11:59:14.000Z</time>
      </trkpt>
      <trkpt lat="42.67283" lon="1.63842">
        <ele>1604</ele>
        <time>2018-11-18T11:59:16.000Z</time>
      </trkpt>
      <trkpt lat="42.67282" lon="1.63841">
        <ele>1604</ele>
        <time>2018-11-18T11:59:18.000Z</time>
      </trkpt>
      <trkpt lat="42.67282" lon="1.63838">
        <ele>1604</ele>
        <time>2018-11-18T11:59:20.000Z</time>
      </trkpt>
      <trkpt lat="42.67281" lon="1.63837">
        <ele>1604</ele>
        <time>2018-11-18T11:59:22.000Z</time>
      </trkpt>
      <trkpt lat="42.67281" lon="1.63835">
        <ele>1604</ele>
        <time>2018-11-18T11:59:24.000Z</time>
      </trkpt>
      <trkpt lat="42.67279" lon="1.63834">
        <ele>1604</ele>
        <time>2018-11-18T11:59:26.000Z</time>
      </trkpt>
      <trkpt lat="42.67278" lon="1.63833">
        <ele>1604</ele>
        <time>2018-11-18T11:59:28.000Z</time>
      </trkpt>
      <trkpt lat="42.67277" lon="1.63833">
        <ele>1604</ele>
        <time>2018-11-18T11:59:30.000Z</time>
      </trkpt>
      <trkpt lat="42.67276" lon="1.63831">
        <ele>1604</ele>
        <time>2018-11-18T11:59:32.000Z</time>
      </trkpt>
      <trkpt lat="42.67274" lon="1.6383">
        <ele>1604</ele>
        <time>2018-11-18T11:59:34.000Z</time>
      </trkpt>
      <trkpt lat="42.67273" lon="1.63829">
        <ele>1605</ele>
        <time>2018-11-18T11:59:36.000Z</time>
      </trkpt>
      <trkpt lat="42.67272" lon="1.63827">
        <ele>1605</ele>
        <time>2018-11-18T11:59:38.000Z</time>
      </trkpt>
      <trkpt lat="42.67271" lon="1.63825">
        <ele>1605</ele>
        <time>2018-11-18T11:59:40.000Z</time>
      </trkpt>
      <trkpt lat="42.67271" lon="1.63823">
        <ele>1605</ele>
        <time>2018-11-18T11:59:42.000Z</time>
      </trkpt>
      <trkpt lat="42.67269" lon="1.63822">
        <ele>1605</ele>
        <time>2018-11-18T11:59:44.000Z</time>
      </trkpt>
      <trkpt lat="42.67267" lon="1.63821">
        <ele>1605</ele>
        <time>2018-11-18T11:59:46.000Z</time>
      </trkpt>
      <trkpt lat="42.67266" lon="1.6382">
        <ele>1605</ele>
        <time>2018-11-18T11:59:48.000Z</time>
      </trkpt>
      <trkpt lat="42.67264" lon="1.6382">
        <ele>1605</ele>
        <time>2018-11-18T11:59:50.000Z</time>
      </trkpt>
      <trkpt lat="42.67262" lon="1.63819">
        <ele>1605</ele>
        <time>2018-11-18T11:59:52.000Z</time>
      </trkpt>
      <trkpt lat="42.67262" lon="1.63818">
        <ele>1605</ele>
        <time>2018-11-18T11:59:54.000Z</time>
      </trkpt>
      <trkpt lat="42.6726" lon="1.63818">
        <ele>1605</ele>
        <time>2018-11-18T11:59:56.000Z</time>
      </trkpt>
      <trkpt lat="42.67259" lon="1.63817">
        <ele>1605</ele>
        <time>2018-11-18T11:59:58.000Z</time>
      </trkpt>
      <trkpt lat="42.67258" lon="1.63816">
        <ele>1605</ele>
        <time>2018-11-18T12:00:00.000Z</time>
      </trkpt>
      <trkpt lat="42.67257" lon="1.63816">
        <ele>1606</ele>
        <time>2018-11-18T12:00:02.000Z</time>
      </trkpt>
      <trkpt lat="42.67256" lon="1.63815">
        <ele>1606</ele>
        <time>2018-11-18T12:00:04.000Z</time>
      </trkpt>
      <trkpt lat="42.67255" lon="1.63813">
        <ele>1606</ele>
        <time>2018-11-18T12:00:06.000Z</time>
      </trkpt>
      <trkpt lat="42.67253" lon="1.63812">
        <ele>1606</ele>
        <time>2018-11-18T12:00:08.000Z</time>
      </trkpt>
      <trkpt lat="42.67253" lon="1.63811">
        <ele>1606</ele>
        <time>2018-11-18T12:00:10.000Z</time>
      </trkpt>
      <trkpt lat="42.67252" lon="1.63811">
        <ele>1606</ele>
        <time>2018-11-18T12:00:12.000Z</time>
      </trkpt>
      <trkpt lat="42.67251" lon="1.6381">
        <ele>1606</ele>
        <time>2018-11-18T12:00:14.000Z</time>
      </trkpt>
      <trkpt lat="42.67251" lon="1.6381">
        <ele>1606</ele>
        <time>2018-11-18T12:00:16.000Z</time>
      </trkpt>
      <trkpt lat="42.6725" lon="1.6381">
        <ele>1606</ele>
        <time>2018-11-18T12:00:18.000Z</time>
      </trkpt>
      <trkpt lat="42.67248" lon="1.6381">
        <ele>1606</ele>
        <time>2018-11-18T12:00:20.000Z</time>
      </trkpt>
      <trkpt lat="42.67248" lon="1.6381">
        <ele>1606</ele>
        <time>2018-11-18T12:00:22.000Z</time>
      </trkpt>
      <trkpt lat="42.67247" lon="1.6381">
        <ele>1606</ele>
        <time>2018-11-18T12:00:24.000Z</time>
      </trkpt>
      <trkpt lat="42.67245" lon="1.63809">
        <ele>1606</ele>
        <time>2018-11-18T12:00:26.000Z</time>
      </trkpt>
      <trkpt lat="42.67243" lon="1.63809">
        <ele>1606</ele>
        <time>2018-11-18T12:00:28.000Z</time>
      </trkpt>
      <trkpt lat="42.67242" lon="1.63809">
        <ele>1606</ele>
        <time>2018-11-18T12:00:30.000Z</time>
      </trkpt>
      <trkpt lat="42.6724" lon="1.63809">
        <ele>1607</ele>
        <time>2018-11-18T12:00:32.000Z</time>
      </trkpt>
      <trkpt lat="42.67239" lon="1.63809">
        <ele>1607</ele>
        <time>2018-11-18T12:00:34.000Z</time>
      </trkpt>
      <trkpt lat="42.67237" lon="1.63808">
        <ele>1607</ele>
        <time>2018-11-18T12:00:36.000Z</time>
      </trkpt>
      <trkpt lat="42.67237" lon="1.63807">
        <ele>1607</ele>
        <time>2018-11-18T12:00:38.000Z</time>
      </trkpt>
      <trkpt lat="42.67236" lon="1.63806">
        <ele>1607</ele>
        <time>2018-11-18T12:00:40.000Z</time>
      </trkpt>
      <trkpt lat="42.67236" lon="1.63804">
        <ele>1606</ele>
        <time>2018-11-18T12:00:42.000Z</time>
      </trkpt>
      <trkpt lat="42.67236" lon="1.63803">
        <ele>1606</ele>
        <time>2018-11-18T12:00:44.000Z</time>
      </trkpt>
      <trkpt lat="42.67235" lon="1.63802">
        <ele>1606</ele>
        <time>2018-11-18T12:00:46.000Z</time>
      </trkpt>
      <trkpt lat="42.67234" lon="1.63801">
        <ele>1606</ele>
        <time>2018-11-18T12:00:48.000Z</time>
      </trkpt>
      <trkpt lat="42.67233" lon="1.63801">
        <ele>1606</ele>
        <time>2018-11-18T12:00:50.000Z</time>
      </trkpt>
      <trkpt lat="42.67233" lon="1.63801">
        <ele>1607</ele>
        <time>2018-11-18T12:00:52.000Z</time>
      </trkpt>
      <trkpt lat="42.67232" lon="1.638">
        <ele>1607</ele>
        <time>2018-11-18T12:00:54.000Z</time>
      </trkpt>
      <trkpt lat="42.67232" lon="1.63799">
        <ele>1606</ele>
        <time>2018-11-18T12:00:56.000Z</time>
      </trkpt>
      <trkpt lat="42.67232" lon="1.63798">
        <ele>1606</ele>
        <time>2018-11-18T12:00:58.000Z</time>
      </trkpt>
      <trkpt lat="42.67231" lon="1.63797">
        <ele>1606</ele>
        <time>2018-11-18T12:01:00.000Z</time>
      </trkpt>
      <trkpt lat="42.67228" lon="1.63797">
        <ele>1607</ele>
        <time>2018-11-18T12:01:02.000Z</time>
      </trkpt>
      <trkpt lat="42.67227" lon="1.63796">
        <ele>1607</ele>
        <time>2018-11-18T12:01:04.000Z</time>
      </trkpt>
      <trkpt lat="42.67226" lon="1.63796">
        <ele>1607</ele>
        <time>2018-11-18T12:01:06.000Z</time>
      </trkpt>
      <trkpt lat="42.67224" lon="1.63797">
        <ele>1607</ele>
        <time>2018-11-18T12:01:08.000Z</time>
      </trkpt>
      <trkpt lat="42.67222" lon="1.63797">
        <ele>1608</ele>
        <time>2018-11-18T12:01:10.000Z</time>
      </trkpt>
      <trkpt lat="42.67221" lon="1.63797">
        <ele>1608</ele>
        <time>2018-11-18T12:01:12.000Z</time>
      </trkpt>
      <trkpt lat="42.67218" lon="1.63797">
        <ele>1608</ele>
        <time>2018-11-18T12:01:14.000Z</time>
      </trkpt>
      <trkpt lat="42.67216" lon="1.63798">
        <ele>1609</ele>
        <time>2018-11-18T12:01:16.000Z</time>
      </trkpt>
      <trkpt lat="42.67215" lon="1.63797">
        <ele>1609</ele>
        <time>2018-11-18T12:01:18.000Z</time>
      </trkpt>
      <trkpt lat="42.67214" lon="1.63796">
        <ele>1609</ele>
        <time>2018-11-18T12:01:20.000Z</time>
      </trkpt>
      <trkpt lat="42.67214" lon="1.63795">
        <ele>1609</ele>
        <time>2018-11-18T12:01:22.000Z</time>
      </trkpt>
      <trkpt lat="42.67213" lon="1.63794">
        <ele>1609</ele>
        <time>2018-11-18T12:01:24.000Z</time>
      </trkpt>
      <trkpt lat="42.67212" lon="1.63793">
        <ele>1609</ele>
        <time>2018-11-18T12:01:26.000Z</time>
      </trkpt>
      <trkpt lat="42.67212" lon="1.63792">
        <ele>1608</ele>
        <time>2018-11-18T12:01:28.000Z</time>
      </trkpt>
      <trkpt lat="42.67211" lon="1.63792">
        <ele>1609</ele>
        <time>2018-11-18T12:01:30.000Z</time>
      </trkpt>
      <trkpt lat="42.6721" lon="1.63793">
        <ele>1609</ele>
        <time>2018-11-18T12:01:32.000Z</time>
      </trkpt>
      <trkpt lat="42.67208" lon="1.63794">
        <ele>1609</ele>
        <time>2018-11-18T12:01:34.000Z</time>
      </trkpt>
      <trkpt lat="42.67206" lon="1.63795">
        <ele>1610</ele>
        <time>2018-11-18T12:01:36.000Z</time>
      </trkpt>
      <trkpt lat="42.67204" lon="1.63794">
        <ele>1610</ele>
        <time>2018-11-18T12:01:38.000Z</time>
      </trkpt>
      <trkpt lat="42.67204" lon="1.63793">
        <ele>1610</ele>
        <time>2018-11-18T12:01:40.000Z</time>
      </trkpt>
      <trkpt lat="42.67203" lon="1.63793">
        <ele>1610</ele>
        <time>2018-11-18T12:01:42.000Z</time>
      </trkpt>
      <trkpt lat="42.67203" lon="1.63793">
        <ele>1610</ele>
        <time>2018-11-18T12:01:44.000Z</time>
      </trkpt>
      <trkpt lat="42.67203" lon="1.63793">
        <ele>1610</ele>
        <time>2018-11-18T12:01:46.000Z</time>
      </trkpt>
      <trkpt lat="42.67203" lon="1.63793">
        <ele>1610</ele>
        <time>2018-11-18T12:01:48.000Z</time>
      </trkpt>
      <trkpt lat="42.67203" lon="1.63792">
        <ele>1610</ele>
        <time>2018-11-18T12:01:50.000Z</time>
      </trkpt>
      <trkpt lat="42.67203" lon="1.63791">
        <ele>1610</ele>
        <time>2018-11-18T12:01:52.000Z</time>
      </trkpt>
      <trkpt lat="42.67202" lon="1.63791">
        <ele>1610</ele>
        <time>2018-11-18T12:01:54.000Z</time>
      </trkpt>
      <trkpt lat="42.67201" lon="1.63791">
        <ele>1610</ele>
        <time>2018-11-18T12:01:56.000Z</time>
      </trkpt>
      <trkpt lat="42.67199" lon="1.6379">
        <ele>1610</ele>
        <time>2018-11-18T12:01:58.000Z</time>
      </trkpt>
      <trkpt lat="42.67197" lon="1.63789">
        <ele>1610</ele>
        <time>2018-11-18T12:02:00.000Z</time>
      </trkpt>
      <trkpt lat="42.67196" lon="1.63787">
        <ele>1610</ele>
        <time>2018-11-18T12:02:02.000Z</time>
      </trkpt>
      <trkpt lat="42.67196" lon="1.63787">
        <ele>1610</ele>
        <time>2018-11-18T12:02:04.000Z</time>
      </trkpt>
      <trkpt lat="42.67195" lon="1.63787">
        <ele>1610</ele>
        <time>2018-11-18T12:02:06.000Z</time>
      </trkpt>
      <trkpt lat="42.67195" lon="1.63786">
        <ele>1610</ele>
        <time>2018-11-18T12:02:08.000Z</time>
      </trkpt>
      <trkpt lat="42.67194" lon="1.63785">
        <ele>1610</ele>
        <time>2018-11-18T12:02:10.000Z</time>
      </trkpt>
      <trkpt lat="42.67193" lon="1.63784">
        <ele>1610</ele>
        <time>2018-11-18T12:02:12.000Z</time>
      </trkpt>
      <trkpt lat="42.67192" lon="1.63783">
        <ele>1610</ele>
        <time>2018-11-18T12:02:14.000Z</time>
      </trkpt>
      <trkpt lat="42.67191" lon="1.63783">
        <ele>1611</ele>
        <time>2018-11-18T12:02:16.000Z</time>
      </trkpt>
      <trkpt lat="42.67189" lon="1.63783">
        <ele>1611</ele>
        <time>2018-11-18T12:02:18.000Z</time>
      </trkpt>
      <trkpt lat="42.67189" lon="1.63783">
        <ele>1611</ele>
        <time>2018-11-18T12:02:20.000Z</time>
      </trkpt>
      <trkpt lat="42.67188" lon="1.63783">
        <ele>1611</ele>
        <time>2018-11-18T12:02:22.000Z</time>
      </trkpt>
      <trkpt lat="42.67186" lon="1.63783">
        <ele>1611</ele>
        <time>2018-11-18T12:02:24.000Z</time>
      </trkpt>
      <trkpt lat="42.67186" lon="1.63783">
        <ele>1611</ele>
        <time>2018-11-18T12:02:26.000Z</time>
      </trkpt>
      <trkpt lat="42.67185" lon="1.63782">
        <ele>1611</ele>
        <time>2018-11-18T12:02:28.000Z</time>
      </trkpt>
      <trkpt lat="42.67183" lon="1.63781">
        <ele>1611</ele>
        <time>2018-11-18T12:02:30.000Z</time>
      </trkpt>
      <trkpt lat="42.67182" lon="1.6378">
        <ele>1611</ele>
        <time>2018-11-18T12:02:32.000Z</time>
      </trkpt>
      <trkpt lat="42.6718" lon="1.63779">
        <ele>1612</ele>
        <time>2018-11-18T12:02:34.000Z</time>
      </trkpt>
      <trkpt lat="42.6718" lon="1.63778">
        <ele>1611</ele>
        <time>2018-11-18T12:02:36.000Z</time>
      </trkpt>
      <trkpt lat="42.67179" lon="1.63777">
        <ele>1611</ele>
        <time>2018-11-18T12:02:38.000Z</time>
      </trkpt>
      <trkpt lat="42.67178" lon="1.63777">
        <ele>1612</ele>
        <time>2018-11-18T12:02:40.000Z</time>
      </trkpt>
      <trkpt lat="42.67177" lon="1.63777">
        <ele>1612</ele>
        <time>2018-11-18T12:02:42.000Z</time>
      </trkpt>
      <trkpt lat="42.67176" lon="1.63777">
        <ele>1612</ele>
        <time>2018-11-18T12:02:44.000Z</time>
      </trkpt>
      <trkpt lat="42.67175" lon="1.63777">
        <ele>1612</ele>
        <time>2018-11-18T12:02:46.000Z</time>
      </trkpt>
      <trkpt lat="42.67174" lon="1.63777">
        <ele>1612</ele>
        <time>2018-11-18T12:02:48.000Z</time>
      </trkpt>
      <trkpt lat="42.67173" lon="1.63777">
        <ele>1612</ele>
        <time>2018-11-18T12:02:50.000Z</time>
      </trkpt>
      <trkpt lat="42.67173" lon="1.63777">
        <ele>1612</ele>
        <time>2018-11-18T12:02:52.000Z</time>
      </trkpt>
      <trkpt lat="42.67172" lon="1.63776">
        <ele>1612</ele>
        <time>2018-11-18T12:02:54.000Z</time>
      </trkpt>
      <trkpt lat="42.6717" lon="1.63776">
        <ele>1613</ele>
        <time>2018-11-18T12:02:56.000Z</time>
      </trkpt>
      <trkpt lat="42.67169" lon="1.63776">
        <ele>1613</ele>
        <time>2018-11-18T12:02:58.000Z</time>
      </trkpt>
      <trkpt lat="42.67168" lon="1.63775">
        <ele>1613</ele>
        <time>2018-11-18T12:03:00.000Z</time>
      </trkpt>
      <trkpt lat="42.67167" lon="1.63775">
        <ele>1613</ele>
        <time>2018-11-18T12:03:02.000Z</time>
      </trkpt>
      <trkpt lat="42.67166" lon="1.63775">
        <ele>1613</ele>
        <time>2018-11-18T12:03:04.000Z</time>
      </trkpt>
      <trkpt lat="42.67164" lon="1.63774">
        <ele>1613</ele>
        <time>2018-11-18T12:03:06.000Z</time>
      </trkpt>
      <trkpt lat="42.67164" lon="1.63774">
        <ele>1613</ele>
        <time>2018-11-18T12:03:08.000Z</time>
      </trkpt>
      <trkpt lat="42.67163" lon="1.63774">
        <ele>1613</ele>
        <time>2018-11-18T12:03:10.000Z</time>
      </trkpt>
      <trkpt lat="42.67162" lon="1.63773">
        <ele>1613</ele>
        <time>2018-11-18T12:03:12.000Z</time>
      </trkpt>
      <trkpt lat="42.67161" lon="1.63773">
        <ele>1613</ele>
        <time>2018-11-18T12:03:14.000Z</time>
      </trkpt>
      <trkpt lat="42.67159" lon="1.63773">
        <ele>1613</ele>
        <time>2018-11-18T12:03:16.000Z</time>
      </trkpt>
      <trkpt lat="42.67158" lon="1.63772">
        <ele>1613</ele>
        <time>2018-11-18T12:03:18.000Z</time>
      </trkpt>
      <trkpt lat="42.67156" lon="1.63772">
        <ele>1613</ele>
        <time>2018-11-18T12:03:20.000Z</time>
      </trkpt>
      <trkpt lat="42.67155" lon="1.63771">
        <ele>1613</ele>
        <time>2018-11-18T12:03:22.000Z</time>
      </trkpt>
      <trkpt lat="42.67153" lon="1.6377">
        <ele>1613</ele>
        <time>2018-11-18T12:03:24.000Z</time>
      </trkpt>
      <trkpt lat="42.67152" lon="1.63769">
        <ele>1613</ele>
        <time>2018-11-18T12:03:26.000Z</time>
      </trkpt>
      <trkpt lat="42.67151" lon="1.63768">
        <ele>1613</ele>
        <time>2018-11-18T12:03:28.000Z</time>
      </trkpt>
      <trkpt lat="42.67149" lon="1.63767">
        <ele>1613</ele>
        <time>2018-11-18T12:03:30.000Z</time>
      </trkpt>
      <trkpt lat="42.67148" lon="1.63766">
        <ele>1613</ele>
        <time>2018-11-18T12:03:32.000Z</time>
      </trkpt>
      <trkpt lat="42.67146" lon="1.63766">
        <ele>1613</ele>
        <time>2018-11-18T12:03:34.000Z</time>
      </trkpt>
      <trkpt lat="42.67144" lon="1.63764">
        <ele>1613</ele>
        <time>2018-11-18T12:03:36.000Z</time>
      </trkpt>
      <trkpt lat="42.67142" lon="1.63762">
        <ele>1613</ele>
        <time>2018-11-18T12:03:38.000Z</time>
      </trkpt>
      <trkpt lat="42.6714" lon="1.63761">
        <ele>1613</ele>
        <time>2018-11-18T12:03:40.000Z</time>
      </trkpt>
      <trkpt lat="42.67138" lon="1.63759">
        <ele>1613</ele>
        <time>2018-11-18T12:03:42.000Z</time>
      </trkpt>
      <trkpt lat="42.67135" lon="1.63758">
        <ele>1613</ele>
        <time>2018-11-18T12:03:44.000Z</time>
      </trkpt>
      <trkpt lat="42.67134" lon="1.63756">
        <ele>1613</ele>
        <time>2018-11-18T12:03:46.000Z</time>
      </trkpt>
      <trkpt lat="42.67132" lon="1.63755">
        <ele>1613</ele>
        <time>2018-11-18T12:03:48.000Z</time>
      </trkpt>
      <trkpt lat="42.6713" lon="1.63754">
        <ele>1613</ele>
        <time>2018-11-18T12:03:50.000Z</time>
      </trkpt>
      <trkpt lat="42.67129" lon="1.63753">
        <ele>1613</ele>
        <time>2018-11-18T12:03:52.000Z</time>
      </trkpt>
      <trkpt lat="42.67127" lon="1.63752">
        <ele>1613</ele>
        <time>2018-11-18T12:03:54.000Z</time>
      </trkpt>
      <trkpt lat="42.67126" lon="1.63751">
        <ele>1613</ele>
        <time>2018-11-18T12:03:56.000Z</time>
      </trkpt>
      <trkpt lat="42.67125" lon="1.63751">
        <ele>1613</ele>
        <time>2018-11-18T12:03:58.000Z</time>
      </trkpt>
      <trkpt lat="42.67125" lon="1.6375">
        <ele>1613</ele>
        <time>2018-11-18T12:04:00.000Z</time>
      </trkpt>
      <trkpt lat="42.67126" lon="1.6375">
        <ele>1613</ele>
        <time>2018-11-18T12:04:02.000Z</time>
      </trkpt>
      <trkpt lat="42.67126" lon="1.63749">
        <ele>1613</ele>
        <time>2018-11-18T12:04:04.000Z</time>
      </trkpt>
      <trkpt lat="42.67126" lon="1.63748">
        <ele>1612</ele>
        <time>2018-11-18T12:04:06.000Z</time>
      </trkpt>
      <trkpt lat="42.67126" lon="1.63748">
        <ele>1612</ele>
        <time>2018-11-18T12:04:08.000Z</time>
      </trkpt>
      <trkpt lat="42.67126" lon="1.63748">
        <ele>1612</ele>
        <time>2018-11-18T12:04:10.000Z</time>
      </trkpt>
      <trkpt lat="42.67126" lon="1.63748">
        <ele>1612</ele>
        <time>2018-11-18T12:04:12.000Z</time>
      </trkpt>
      <trkpt lat="42.67126" lon="1.63748">
        <ele>1612</ele>
        <time>2018-11-18T12:04:14.000Z</time>
      </trkpt>
      <trkpt lat="42.67126" lon="1.63748">
        <ele>1612</ele>
        <time>2018-11-18T12:04:16.000Z</time>
      </trkpt>
      <trkpt lat="42.67126" lon="1.63748">
        <ele>1612</ele>
        <time>2018-11-18T12:04:18.000Z</time>
      </trkpt>
      <trkpt lat="42.67126" lon="1.63747">
        <ele>1612</ele>
        <time>2018-11-18T12:04:20.000Z</time>
      </trkpt>
      <trkpt lat="42.67125" lon="1.63747">
        <ele>1612</ele>
        <time>2018-11-18T12:04:22.000Z</time>
      </trkpt>
      <trkpt lat="42.67124" lon="1.63747">
        <ele>1612</ele>
        <time>2018-11-18T12:04:24.000Z</time>
      </trkpt>
      <trkpt lat="42.67124" lon="1.63747">
        <ele>1613</ele>
        <time>2018-11-18T12:04:26.000Z</time>
      </trkpt>
      <trkpt lat="42.67123" lon="1.63747">
        <ele>1612</ele>
        <time>2018-11-18T12:04:28.000Z</time>
      </trkpt>
      <trkpt lat="42.67122" lon="1.63746">
        <ele>1612</ele>
        <time>2018-11-18T12:04:30.000Z</time>
      </trkpt>
      <trkpt lat="42.67121" lon="1.63743">
        <ele>1612</ele>
        <time>2018-11-18T12:04:32.000Z</time>
      </trkpt>
      <trkpt lat="42.67121" lon="1.63743">
        <ele>1612</ele>
        <time>2018-11-18T12:04:34.000Z</time>
      </trkpt>
      <trkpt lat="42.6712" lon="1.63742">
        <ele>1612</ele>
        <time>2018-11-18T12:04:36.000Z</time>
      </trkpt>
      <trkpt lat="42.67119" lon="1.63741">
        <ele>1612</ele>
        <time>2018-11-18T12:04:38.000Z</time>
      </trkpt>
      <trkpt lat="42.67117" lon="1.63741">
        <ele>1612</ele>
        <time>2018-11-18T12:04:40.000Z</time>
      </trkpt>
      <trkpt lat="42.67115" lon="1.6374">
        <ele>1612</ele>
        <time>2018-11-18T12:04:42.000Z</time>
      </trkpt>
      <trkpt lat="42.67113" lon="1.63741">
        <ele>1612</ele>
        <time>2018-11-18T12:04:44.000Z</time>
      </trkpt>
      <trkpt lat="42.67112" lon="1.6374">
        <ele>1613</ele>
        <time>2018-11-18T12:04:46.000Z</time>
      </trkpt>
      <trkpt lat="42.6711" lon="1.6374">
        <ele>1613</ele>
        <time>2018-11-18T12:04:48.000Z</time>
      </trkpt>
      <trkpt lat="42.67109" lon="1.6374">
        <ele>1613</ele>
        <time>2018-11-18T12:04:50.000Z</time>
      </trkpt>
      <trkpt lat="42.67108" lon="1.6374">
        <ele>1613</ele>
        <time>2018-11-18T12:04:52.000Z</time>
      </trkpt>
      <trkpt lat="42.67107" lon="1.63739">
        <ele>1613</ele>
        <time>2018-11-18T12:04:54.000Z</time>
      </trkpt>
      <trkpt lat="42.67106" lon="1.6374">
        <ele>1613</ele>
        <time>2018-11-18T12:04:56.000Z</time>
      </trkpt>
      <trkpt lat="42.67106" lon="1.6374">
        <ele>1613</ele>
        <time>2018-11-18T12:04:58.000Z</time>
      </trkpt>
      <trkpt lat="42.67105" lon="1.63739">
        <ele>1613</ele>
        <time>2018-11-18T12:05:00.000Z</time>
      </trkpt>
      <trkpt lat="42.67104" lon="1.63737">
        <ele>1613</ele>
        <time>2018-11-18T12:05:02.000Z</time>
      </trkpt>
      <trkpt lat="42.67103" lon="1.63734">
        <ele>1612</ele>
        <time>2018-11-18T12:05:04.000Z</time>
      </trkpt>
      <trkpt lat="42.67102" lon="1.63732">
        <ele>1612</ele>
        <time>2018-11-18T12:05:06.000Z</time>
      </trkpt>
      <trkpt lat="42.67101" lon="1.63729">
        <ele>1612</ele>
        <time>2018-11-18T12:05:08.000Z</time>
      </trkpt>
      <trkpt lat="42.671" lon="1.63728">
        <ele>1612</ele>
        <time>2018-11-18T12:05:10.000Z</time>
      </trkpt>
      <trkpt lat="42.67098" lon="1.63726">
        <ele>1612</ele>
        <time>2018-11-18T12:05:12.000Z</time>
      </trkpt>
      <trkpt lat="42.67097" lon="1.63725">
        <ele>1612</ele>
        <time>2018-11-18T12:05:14.000Z</time>
      </trkpt>
      <trkpt lat="42.67095" lon="1.63723">
        <ele>1612</ele>
        <time>2018-11-18T12:05:16.000Z</time>
      </trkpt>
      <trkpt lat="42.67094" lon="1.63721">
        <ele>1612</ele>
        <time>2018-11-18T12:05:18.000Z</time>
      </trkpt>
      <trkpt lat="42.67092" lon="1.6372">
        <ele>1612</ele>
        <time>2018-11-18T12:05:20.000Z</time>
      </trkpt>
      <trkpt lat="42.6709" lon="1.63718">
        <ele>1612</ele>
        <time>2018-11-18T12:05:22.000Z</time>
      </trkpt>
      <trkpt lat="42.67089" lon="1.63716">
        <ele>1611</ele>
        <time>2018-11-18T12:05:24.000Z</time>
      </trkpt>
      <trkpt lat="42.67087" lon="1.63713">
        <ele>1611</ele>
        <time>2018-11-18T12:05:26.000Z</time>
      </trkpt>
      <trkpt lat="42.67086" lon="1.63712">
        <ele>1611</ele>
        <time>2018-11-18T12:05:28.000Z</time>
      </trkpt>
      <trkpt lat="42.67084" lon="1.63709">
        <ele>1611</ele>
        <time>2018-11-18T12:05:30.000Z</time>
      </trkpt>
      <trkpt lat="42.67084" lon="1.63707">
        <ele>1611</ele>
        <time>2018-11-18T12:05:32.000Z</time>
      </trkpt>
      <trkpt lat="42.67083" lon="1.63706">
        <ele>1611</ele>
        <time>2018-11-18T12:05:34.000Z</time>
      </trkpt>
      <trkpt lat="42.67083" lon="1.63703">
        <ele>1610</ele>
        <time>2018-11-18T12:05:36.000Z</time>
      </trkpt>
      <trkpt lat="42.67081" lon="1.63701">
        <ele>1610</ele>
        <time>2018-11-18T12:05:38.000Z</time>
      </trkpt>
      <trkpt lat="42.67081" lon="1.63699">
        <ele>1610</ele>
        <time>2018-11-18T12:05:40.000Z</time>
      </trkpt>
      <trkpt lat="42.6708" lon="1.63696">
        <ele>1610</ele>
        <time>2018-11-18T12:05:42.000Z</time>
      </trkpt>
      <trkpt lat="42.67079" lon="1.63695">
        <ele>1610</ele>
        <time>2018-11-18T12:05:44.000Z</time>
      </trkpt>
      <trkpt lat="42.67077" lon="1.63695">
        <ele>1610</ele>
        <time>2018-11-18T12:05:46.000Z</time>
      </trkpt>
      <trkpt lat="42.67075" lon="1.63694">
        <ele>1610</ele>
        <time>2018-11-18T12:05:48.000Z</time>
      </trkpt>
      <trkpt lat="42.67074" lon="1.63692">
        <ele>1610</ele>
        <time>2018-11-18T12:05:50.000Z</time>
      </trkpt>
      <trkpt lat="42.67073" lon="1.63691">
        <ele>1610</ele>
        <time>2018-11-18T12:05:52.000Z</time>
      </trkpt>
      <trkpt lat="42.67071" lon="1.6369">
        <ele>1610</ele>
        <time>2018-11-18T12:05:54.000Z</time>
      </trkpt>
      <trkpt lat="42.6707" lon="1.63689">
        <ele>1610</ele>
        <time>2018-11-18T12:05:56.000Z</time>
      </trkpt>
      <trkpt lat="42.67069" lon="1.63688">
        <ele>1610</ele>
        <time>2018-11-18T12:05:58.000Z</time>
      </trkpt>
      <trkpt lat="42.67067" lon="1.63687">
        <ele>1610</ele>
        <time>2018-11-18T12:06:00.000Z</time>
      </trkpt>
      <trkpt lat="42.67065" lon="1.63686">
        <ele>1610</ele>
        <time>2018-11-18T12:06:02.000Z</time>
      </trkpt>
      <trkpt lat="42.67063" lon="1.63685">
        <ele>1610</ele>
        <time>2018-11-18T12:06:04.000Z</time>
      </trkpt>
      <trkpt lat="42.67062" lon="1.63684">
        <ele>1610</ele>
        <time>2018-11-18T12:06:06.000Z</time>
      </trkpt>
      <trkpt lat="42.6706" lon="1.63683">
        <ele>1611</ele>
        <time>2018-11-18T12:06:08.000Z</time>
      </trkpt>
      <trkpt lat="42.67058" lon="1.63683">
        <ele>1611</ele>
        <time>2018-11-18T12:06:10.000Z</time>
      </trkpt>
      <trkpt lat="42.67057" lon="1.63682">
        <ele>1611</ele>
        <time>2018-11-18T12:06:12.000Z</time>
      </trkpt>
      <trkpt lat="42.67055" lon="1.6368">
        <ele>1611</ele>
        <time>2018-11-18T12:06:14.000Z</time>
      </trkpt>
      <trkpt lat="42.67054" lon="1.63679">
        <ele>1611</ele>
        <time>2018-11-18T12:06:16.000Z</time>
      </trkpt>
      <trkpt lat="42.67053" lon="1.63678">
        <ele>1611</ele>
        <time>2018-11-18T12:06:18.000Z</time>
      </trkpt>
      <trkpt lat="42.67051" lon="1.63676">
        <ele>1611</ele>
        <time>2018-11-18T12:06:20.000Z</time>
      </trkpt>
      <trkpt lat="42.6705" lon="1.63674">
        <ele>1611</ele>
        <time>2018-11-18T12:06:22.000Z</time>
      </trkpt>
      <trkpt lat="42.6705" lon="1.63671">
        <ele>1610</ele>
        <time>2018-11-18T12:06:24.000Z</time>
      </trkpt>
      <trkpt lat="42.6705" lon="1.63669">
        <ele>1610</ele>
        <time>2018-11-18T12:06:26.000Z</time>
      </trkpt>
      <trkpt lat="42.67049" lon="1.63667">
        <ele>1610</ele>
        <time>2018-11-18T12:06:28.000Z</time>
      </trkpt>
      <trkpt lat="42.67048" lon="1.63665">
        <ele>1610</ele>
        <time>2018-11-18T12:06:30.000Z</time>
      </trkpt>
      <trkpt lat="42.67047" lon="1.63663">
        <ele>1609</ele>
        <time>2018-11-18T12:06:32.000Z</time>
      </trkpt>
      <trkpt lat="42.67046" lon="1.6366">
        <ele>1609</ele>
        <time>2018-11-18T12:06:34.000Z</time>
      </trkpt>
      <trkpt lat="42.67045" lon="1.63659">
        <ele>1609</ele>
        <time>2018-11-18T12:06:36.000Z</time>
      </trkpt>
      <trkpt lat="42.67044" lon="1.63657">
        <ele>1609</ele>
        <time>2018-11-18T12:06:38.000Z</time>
      </trkpt>
      <trkpt lat="42.67043" lon="1.63655">
        <ele>1609</ele>
        <time>2018-11-18T12:06:40.000Z</time>
      </trkpt>
      <trkpt lat="42.67042" lon="1.63653">
        <ele>1609</ele>
        <time>2018-11-18T12:06:42.000Z</time>
      </trkpt>
      <trkpt lat="42.67041" lon="1.63652">
        <ele>1609</ele>
        <time>2018-11-18T12:06:44.000Z</time>
      </trkpt>
      <trkpt lat="42.6704" lon="1.6365">
        <ele>1609</ele>
        <time>2018-11-18T12:06:46.000Z</time>
      </trkpt>
      <trkpt lat="42.67039" lon="1.63648">
        <ele>1609</ele>
        <time>2018-11-18T12:06:48.000Z</time>
      </trkpt>
      <trkpt lat="42.67038" lon="1.63645">
        <ele>1609</ele>
        <time>2018-11-18T12:06:50.000Z</time>
      </trkpt>
      <trkpt lat="42.67037" lon="1.63643">
        <ele>1609</ele>
        <time>2018-11-18T12:06:52.000Z</time>
      </trkpt>
      <trkpt lat="42.67036" lon="1.63641">
        <ele>1608</ele>
        <time>2018-11-18T12:06:54.000Z</time>
      </trkpt>
      <trkpt lat="42.67034" lon="1.63639">
        <ele>1608</ele>
        <time>2018-11-18T12:06:56.000Z</time>
      </trkpt>
      <trkpt lat="42.67033" lon="1.63637">
        <ele>1608</ele>
        <time>2018-11-18T12:06:58.000Z</time>
      </trkpt>
      <trkpt lat="42.67032" lon="1.63635">
        <ele>1608</ele>
        <time>2018-11-18T12:07:00.000Z</time>
      </trkpt>
      <trkpt lat="42.6703" lon="1.63634">
        <ele>1608</ele>
        <time>2018-11-18T12:07:02.000Z</time>
      </trkpt>
      <trkpt lat="42.67028" lon="1.63633">
        <ele>1609</ele>
        <time>2018-11-18T12:07:04.000Z</time>
      </trkpt>
      <trkpt lat="42.67027" lon="1.63632">
        <ele>1609</ele>
        <time>2018-11-18T12:07:06.000Z</time>
      </trkpt>
      <trkpt lat="42.67025" lon="1.63631">
        <ele>1609</ele>
        <time>2018-11-18T12:07:08.000Z</time>
      </trkpt>
      <trkpt lat="42.67024" lon="1.6363">
        <ele>1609</ele>
        <time>2018-11-18T12:07:10.000Z</time>
      </trkpt>
      <trkpt lat="42.67022" lon="1.63629">
        <ele>1609</ele>
        <time>2018-11-18T12:07:12.000Z</time>
      </trkpt>
      <trkpt lat="42.67021" lon="1.63629">
        <ele>1609</ele>
        <time>2018-11-18T12:07:14.000Z</time>
      </trkpt>
      <trkpt lat="42.67019" lon="1.6363">
        <ele>1609</ele>
        <time>2018-11-18T12:07:16.000Z</time>
      </trkpt>
      <trkpt lat="42.67018" lon="1.63631">
        <ele>1610</ele>
        <time>2018-11-18T12:07:18.000Z</time>
      </trkpt>
      <trkpt lat="42.67017" lon="1.63632">
        <ele>1610</ele>
        <time>2018-11-18T12:07:20.000Z</time>
      </trkpt>
      <trkpt lat="42.67015" lon="1.63633">
        <ele>1610</ele>
        <time>2018-11-18T12:07:22.000Z</time>
      </trkpt>
      <trkpt lat="42.67014" lon="1.63635">
        <ele>1610</ele>
        <time>2018-11-18T12:07:24.000Z</time>
      </trkpt>
      <trkpt lat="42.67012" lon="1.63636">
        <ele>1611</ele>
        <time>2018-11-18T12:07:26.000Z</time>
      </trkpt>
      <trkpt lat="42.6701" lon="1.63636">
        <ele>1611</ele>
        <time>2018-11-18T12:07:28.000Z</time>
      </trkpt>
      <trkpt lat="42.67009" lon="1.63636">
        <ele>1611</ele>
        <time>2018-11-18T12:07:30.000Z</time>
      </trkpt>
      <trkpt lat="42.67007" lon="1.63637">
        <ele>1611</ele>
        <time>2018-11-18T12:07:32.000Z</time>
      </trkpt>
      <trkpt lat="42.67005" lon="1.63637">
        <ele>1611</ele>
        <time>2018-11-18T12:07:34.000Z</time>
      </trkpt>
      <trkpt lat="42.67003" lon="1.63637">
        <ele>1612</ele>
        <time>2018-11-18T12:07:36.000Z</time>
      </trkpt>
      <trkpt lat="42.67002" lon="1.63637">
        <ele>1612</ele>
        <time>2018-11-18T12:07:38.000Z</time>
      </trkpt>
      <trkpt lat="42.67" lon="1.63638">
        <ele>1612</ele>
        <time>2018-11-18T12:07:40.000Z</time>
      </trkpt>
      <trkpt lat="42.66999" lon="1.63638">
        <ele>1612</ele>
        <time>2018-11-18T12:07:42.000Z</time>
      </trkpt>
      <trkpt lat="42.66998" lon="1.63639">
        <ele>1612</ele>
        <time>2018-11-18T12:07:44.000Z</time>
      </trkpt>
      <trkpt lat="42.66997" lon="1.6364">
        <ele>1612</ele>
        <time>2018-11-18T12:07:46.000Z</time>
      </trkpt>
      <trkpt lat="42.66996" lon="1.63642">
        <ele>1613</ele>
        <time>2018-11-18T12:07:48.000Z</time>
      </trkpt>
      <trkpt lat="42.66994" lon="1.63643">
        <ele>1613</ele>
        <time>2018-11-18T12:07:50.000Z</time>
      </trkpt>
      <trkpt lat="42.66993" lon="1.63645">
        <ele>1613</ele>
        <time>2018-11-18T12:07:52.000Z</time>
      </trkpt>
      <trkpt lat="42.66993" lon="1.63647">
        <ele>1614</ele>
        <time>2018-11-18T12:07:54.000Z</time>
      </trkpt>
      <trkpt lat="42.66993" lon="1.63648">
        <ele>1614</ele>
        <time>2018-11-18T12:07:56.000Z</time>
      </trkpt>
      <trkpt lat="42.66993" lon="1.63648">
        <ele>1614</ele>
        <time>2018-11-18T12:07:58.000Z</time>
      </trkpt>
      <trkpt lat="42.66993" lon="1.63648">
        <ele>1614</ele>
        <time>2018-11-18T12:08:00.000Z</time>
      </trkpt>
      <trkpt lat="42.66993" lon="1.63648">
        <ele>1614</ele>
        <time>2018-11-18T12:08:02.000Z</time>
      </trkpt>
      <trkpt lat="42.66993" lon="1.63648">
        <ele>1614</ele>
        <time>2018-11-18T12:08:04.000Z</time>
      </trkpt>
      <trkpt lat="42.66993" lon="1.63648">
        <ele>1614</ele>
        <time>2018-11-18T12:08:06.000Z</time>
      </trkpt>
      <trkpt lat="42.66993" lon="1.63648">
        <ele>1614</ele>
        <time>2018-11-18T12:08:08.000Z</time>
      </trkpt>
      <trkpt lat="42.66993" lon="1.63648">
        <ele>1614</ele>
        <time>2018-11-18T12:08:10.000Z</time>
      </trkpt>
      <trkpt lat="42.66992" lon="1.63649">
        <ele>1614</ele>
        <time>2018-11-18T12:08:12.000Z</time>
      </trkpt>
      <trkpt lat="42.66992" lon="1.6365">
        <ele>1614</ele>
        <time>2018-11-18T12:08:14.000Z</time>
      </trkpt>
      <trkpt lat="42.66992" lon="1.63651">
        <ele>1614</ele>
        <time>2018-11-18T12:08:16.000Z</time>
      </trkpt>
      <trkpt lat="42.66992" lon="1.63653">
        <ele>1615</ele>
        <time>2018-11-18T12:08:18.000Z</time>
      </trkpt>
      <trkpt lat="42.66992" lon="1.63654">
        <ele>1615</ele>
        <time>2018-11-18T12:08:20.000Z</time>
      </trkpt>
      <trkpt lat="42.66991" lon="1.63654">
        <ele>1615</ele>
        <time>2018-11-18T12:08:22.000Z</time>
      </trkpt>
      <trkpt lat="42.66991" lon="1.63654">
        <ele>1615</ele>
        <time>2018-11-18T12:08:24.000Z</time>
      </trkpt>
      <trkpt lat="42.66991" lon="1.63654">
        <ele>1615</ele>
        <time>2018-11-18T12:08:26.000Z</time>
      </trkpt>
      <trkpt lat="42.66991" lon="1.63655">
        <ele>1615</ele>
        <time>2018-11-18T12:08:28.000Z</time>
      </trkpt>
      <trkpt lat="42.6699" lon="1.63654">
        <ele>1615</ele>
        <time>2018-11-18T12:08:30.000Z</time>
      </trkpt>
      <trkpt lat="42.6699" lon="1.63654">
        <ele>1615</ele>
        <time>2018-11-18T12:08:32.000Z</time>
      </trkpt>
      <trkpt lat="42.66989" lon="1.63655">
        <ele>1616</ele>
        <time>2018-11-18T12:08:34.000Z</time>
      </trkpt>
      <trkpt lat="42.66989" lon="1.63655">
        <ele>1616</ele>
        <time>2018-11-18T12:08:36.000Z</time>
      </trkpt>
      <trkpt lat="42.66989" lon="1.63655">
        <ele>1616</ele>
        <time>2018-11-18T12:08:38.000Z</time>
      </trkpt>
      <trkpt lat="42.6699" lon="1.63655">
        <ele>1615</ele>
        <time>2018-11-18T12:08:40.000Z</time>
      </trkpt>
      <trkpt lat="42.6699" lon="1.63655">
        <ele>1615</ele>
        <time>2018-11-18T12:08:42.000Z</time>
      </trkpt>
      <trkpt lat="42.66989" lon="1.63655">
        <ele>1616</ele>
        <time>2018-11-18T12:08:44.000Z</time>
      </trkpt>
      <trkpt lat="42.66989" lon="1.63655">
        <ele>1616</ele>
        <time>2018-11-18T12:08:46.000Z</time>
      </trkpt>
      <trkpt lat="42.66989" lon="1.63655">
        <ele>1616</ele>
        <time>2018-11-18T12:08:48.000Z</time>
      </trkpt>
      <trkpt lat="42.66989" lon="1.63655">
        <ele>1616</ele>
        <time>2018-11-18T12:08:50.000Z</time>
      </trkpt>
      <trkpt lat="42.67082" lon="1.63698">
        <ele>1610</ele>
        <time>2018-11-18T13:03:36.000Z</time>
      </trkpt>
      <trkpt lat="42.67084" lon="1.63695">
        <ele>1609</ele>
        <time>2018-11-18T13:03:38.000Z</time>
      </trkpt>
      <trkpt lat="42.67082" lon="1.63699">
        <ele>1610</ele>
        <time>2018-11-18T13:03:40.000Z</time>
      </trkpt>
      <trkpt lat="42.67083" lon="1.63702">
        <ele>1610</ele>
        <time>2018-11-18T13:03:43.000Z</time>
      </trkpt>
      <trkpt lat="42.67085" lon="1.63695">
        <ele>1609</ele>
        <time>2018-11-18T13:03:45.000Z</time>
      </trkpt>
      <trkpt lat="42.6709" lon="1.63697">
        <ele>1609</ele>
        <time>2018-11-18T13:03:47.000Z</time>
      </trkpt>
      <trkpt lat="42.6709" lon="1.63699">
        <ele>1609</ele>
        <time>2018-11-18T13:03:49.000Z</time>
      </trkpt>
      <trkpt lat="42.67094" lon="1.63703">
        <ele>1609</ele>
        <time>2018-11-18T13:03:51.000Z</time>
      </trkpt>
      <trkpt lat="42.67095" lon="1.63707">
        <ele>1610</ele>
        <time>2018-11-18T13:03:53.000Z</time>
      </trkpt>
      <trkpt lat="42.67098" lon="1.63708">
        <ele>1610</ele>
        <time>2018-11-18T13:03:55.000Z</time>
      </trkpt>
      <trkpt lat="42.67097" lon="1.63711">
        <ele>1610</ele>
        <time>2018-11-18T13:03:57.000Z</time>
      </trkpt>
      <trkpt lat="42.67101" lon="1.63709">
        <ele>1609</ele>
        <time>2018-11-18T13:03:59.000Z</time>
      </trkpt>
      <trkpt lat="42.671" lon="1.63712">
        <ele>1610</ele>
        <time>2018-11-18T13:04:01.000Z</time>
      </trkpt>
      <trkpt lat="42.67101" lon="1.63716">
        <ele>1610</ele>
        <time>2018-11-18T13:04:03.000Z</time>
      </trkpt>
      <trkpt lat="42.67103" lon="1.63717">
        <ele>1610</ele>
        <time>2018-11-18T13:04:05.000Z</time>
      </trkpt>
      <trkpt lat="42.67106" lon="1.6372">
        <ele>1610</ele>
        <time>2018-11-18T13:04:07.000Z</time>
      </trkpt>
      <trkpt lat="42.67107" lon="1.63723">
        <ele>1611</ele>
        <time>2018-11-18T13:04:09.000Z</time>
      </trkpt>
      <trkpt lat="42.67108" lon="1.63725">
        <ele>1611</ele>
        <time>2018-11-18T13:04:11.000Z</time>
      </trkpt>
      <trkpt lat="42.67108" lon="1.63728">
        <ele>1611</ele>
        <time>2018-11-18T13:04:13.000Z</time>
      </trkpt>
      <trkpt lat="42.67109" lon="1.6373">
        <ele>1611</ele>
        <time>2018-11-18T13:04:15.000Z</time>
      </trkpt>
      <trkpt lat="42.67111" lon="1.63732">
        <ele>1611</ele>
        <time>2018-11-18T13:04:17.000Z</time>
      </trkpt>
      <trkpt lat="42.67112" lon="1.63734">
        <ele>1612</ele>
        <time>2018-11-18T13:04:19.000Z</time>
      </trkpt>
      <trkpt lat="42.67112" lon="1.63736">
        <ele>1612</ele>
        <time>2018-11-18T13:04:21.000Z</time>
      </trkpt>
      <trkpt lat="42.67112" lon="1.63739">
        <ele>1612</ele>
        <time>2018-11-18T13:04:23.000Z</time>
      </trkpt>
      <trkpt lat="42.67113" lon="1.6374">
        <ele>1612</ele>
        <time>2018-11-18T13:04:25.000Z</time>
      </trkpt>
      <trkpt lat="42.67113" lon="1.63741">
        <ele>1613</ele>
        <time>2018-11-18T13:04:27.000Z</time>
      </trkpt>
      <trkpt lat="42.67113" lon="1.63742">
        <ele>1613</ele>
        <time>2018-11-18T13:04:29.000Z</time>
      </trkpt>
      <trkpt lat="42.67114" lon="1.63742">
        <ele>1613</ele>
        <time>2018-11-18T13:04:31.000Z</time>
      </trkpt>
      <trkpt lat="42.67115" lon="1.63743">
        <ele>1613</ele>
        <time>2018-11-18T13:04:33.000Z</time>
      </trkpt>
      <trkpt lat="42.67116" lon="1.63744">
        <ele>1613</ele>
        <time>2018-11-18T13:04:35.000Z</time>
      </trkpt>
      <trkpt lat="42.67117" lon="1.63745">
        <ele>1613</ele>
        <time>2018-11-18T13:04:37.000Z</time>
      </trkpt>
      <trkpt lat="42.67119" lon="1.63745">
        <ele>1613</ele>
        <time>2018-11-18T13:04:39.000Z</time>
      </trkpt>
      <trkpt lat="42.6712" lon="1.63745">
        <ele>1613</ele>
        <time>2018-11-18T13:04:41.000Z</time>
      </trkpt>
      <trkpt lat="42.67122" lon="1.63746">
        <ele>1612</ele>
        <time>2018-11-18T13:04:43.000Z</time>
      </trkpt>
      <trkpt lat="42.67123" lon="1.63746">
        <ele>1612</ele>
        <time>2018-11-18T13:04:45.000Z</time>
      </trkpt>
      <trkpt lat="42.67124" lon="1.63746">
        <ele>1612</ele>
        <time>2018-11-18T13:04:47.000Z</time>
      </trkpt>
      <trkpt lat="42.67125" lon="1.63746">
        <ele>1612</ele>
        <time>2018-11-18T13:04:49.000Z</time>
      </trkpt>
      <trkpt lat="42.67126" lon="1.63745">
        <ele>1612</ele>
        <time>2018-11-18T13:04:51.000Z</time>
      </trkpt>
      <trkpt lat="42.67128" lon="1.63745">
        <ele>1612</ele>
        <time>2018-11-18T13:04:53.000Z</time>
      </trkpt>
      <trkpt lat="42.67129" lon="1.63746">
        <ele>1612</ele>
        <time>2018-11-18T13:04:55.000Z</time>
      </trkpt>
      <trkpt lat="42.6713" lon="1.63747">
        <ele>1612</ele>
        <time>2018-11-18T13:04:57.000Z</time>
      </trkpt>
      <trkpt lat="42.67132" lon="1.63748">
        <ele>1612</ele>
        <time>2018-11-18T13:04:59.000Z</time>
      </trkpt>
      <trkpt lat="42.67133" lon="1.63749">
        <ele>1612</ele>
        <time>2018-11-18T13:05:01.000Z</time>
      </trkpt>
      <trkpt lat="42.67135" lon="1.6375">
        <ele>1612</ele>
        <time>2018-11-18T13:05:03.000Z</time>
      </trkpt>
      <trkpt lat="42.67136" lon="1.63751">
        <ele>1612</ele>
        <time>2018-11-18T13:05:05.000Z</time>
      </trkpt>
      <trkpt lat="42.67138" lon="1.63752">
        <ele>1612</ele>
        <time>2018-11-18T13:05:07.000Z</time>
      </trkpt>
      <trkpt lat="42.6714" lon="1.63752">
        <ele>1612</ele>
        <time>2018-11-18T13:05:09.000Z</time>
      </trkpt>
      <trkpt lat="42.67142" lon="1.63754">
        <ele>1612</ele>
        <time>2018-11-18T13:05:11.000Z</time>
      </trkpt>
      <trkpt lat="42.67144" lon="1.63755">
        <ele>1612</ele>
        <time>2018-11-18T13:05:13.000Z</time>
      </trkpt>
      <trkpt lat="42.67145" lon="1.63757">
        <ele>1612</ele>
        <time>2018-11-18T13:05:15.000Z</time>
      </trkpt>
      <trkpt lat="42.67147" lon="1.63758">
        <ele>1612</ele>
        <time>2018-11-18T13:05:17.000Z</time>
      </trkpt>
      <trkpt lat="42.67149" lon="1.6376">
        <ele>1612</ele>
        <time>2018-11-18T13:05:19.000Z</time>
      </trkpt>
      <trkpt lat="42.67151" lon="1.63761">
        <ele>1612</ele>
        <time>2018-11-18T13:05:21.000Z</time>
      </trkpt>
      <trkpt lat="42.67152" lon="1.63763">
        <ele>1612</ele>
        <time>2018-11-18T13:05:23.000Z</time>
      </trkpt>
      <trkpt lat="42.67154" lon="1.63765">
        <ele>1612</ele>
        <time>2018-11-18T13:05:25.000Z</time>
      </trkpt>
      <trkpt lat="42.67156" lon="1.63766">
        <ele>1612</ele>
        <time>2018-11-18T13:05:27.000Z</time>
      </trkpt>
      <trkpt lat="42.67157" lon="1.63767">
        <ele>1613</ele>
        <time>2018-11-18T13:05:29.000Z</time>
      </trkpt>
      <trkpt lat="42.67159" lon="1.63768">
        <ele>1613</ele>
        <time>2018-11-18T13:05:31.000Z</time>
      </trkpt>
      <trkpt lat="42.6716" lon="1.63769">
        <ele>1613</ele>
        <time>2018-11-18T13:05:33.000Z</time>
      </trkpt>
      <trkpt lat="42.67161" lon="1.6377">
        <ele>1613</ele>
        <time>2018-11-18T13:05:35.000Z</time>
      </trkpt>
      <trkpt lat="42.67163" lon="1.63771">
        <ele>1613</ele>
        <time>2018-11-18T13:05:37.000Z</time>
      </trkpt>
      <trkpt lat="42.67164" lon="1.63772">
        <ele>1613</ele>
        <time>2018-11-18T13:05:39.000Z</time>
      </trkpt>
      <trkpt lat="42.67165" lon="1.63772">
        <ele>1613</ele>
        <time>2018-11-18T13:05:41.000Z</time>
      </trkpt>
      <trkpt lat="42.67166" lon="1.63772">
        <ele>1613</ele>
        <time>2018-11-18T13:05:43.000Z</time>
      </trkpt>
      <trkpt lat="42.67167" lon="1.63772">
        <ele>1612</ele>
        <time>2018-11-18T13:05:45.000Z</time>
      </trkpt>
      <trkpt lat="42.67168" lon="1.63772">
        <ele>1612</ele>
        <time>2018-11-18T13:05:47.000Z</time>
      </trkpt>
      <trkpt lat="42.6717" lon="1.63773">
        <ele>1612</ele>
        <time>2018-11-18T13:05:49.000Z</time>
      </trkpt>
      <trkpt lat="42.67171" lon="1.63774">
        <ele>1612</ele>
        <time>2018-11-18T13:05:51.000Z</time>
      </trkpt>
      <trkpt lat="42.67172" lon="1.63774">
        <ele>1612</ele>
        <time>2018-11-18T13:05:53.000Z</time>
      </trkpt>
      <trkpt lat="42.67173" lon="1.63775">
        <ele>1612</ele>
        <time>2018-11-18T13:05:55.000Z</time>
      </trkpt>
      <trkpt lat="42.67175" lon="1.63776">
        <ele>1612</ele>
        <time>2018-11-18T13:05:57.000Z</time>
      </trkpt>
      <trkpt lat="42.67176" lon="1.63776">
        <ele>1612</ele>
        <time>2018-11-18T13:05:59.000Z</time>
      </trkpt>
      <trkpt lat="42.67178" lon="1.63775">
        <ele>1611</ele>
        <time>2018-11-18T13:06:01.000Z</time>
      </trkpt>
      <trkpt lat="42.67179" lon="1.63775">
        <ele>1611</ele>
        <time>2018-11-18T13:06:03.000Z</time>
      </trkpt>
      <trkpt lat="42.67181" lon="1.63775">
        <ele>1611</ele>
        <time>2018-11-18T13:06:05.000Z</time>
      </trkpt>
      <trkpt lat="42.67183" lon="1.63776">
        <ele>1611</ele>
        <time>2018-11-18T13:06:07.000Z</time>
      </trkpt>
      <trkpt lat="42.67185" lon="1.63777">
        <ele>1611</ele>
        <time>2018-11-18T13:06:09.000Z</time>
      </trkpt>
      <trkpt lat="42.67187" lon="1.63779">
        <ele>1610</ele>
        <time>2018-11-18T13:06:11.000Z</time>
      </trkpt>
      <trkpt lat="42.67189" lon="1.6378">
        <ele>1610</ele>
        <time>2018-11-18T13:06:13.000Z</time>
      </trkpt>
      <trkpt lat="42.67191" lon="1.63781">
        <ele>1610</ele>
        <time>2018-11-18T13:06:15.000Z</time>
      </trkpt>
      <trkpt lat="42.67193" lon="1.63781">
        <ele>1610</ele>
        <time>2018-11-18T13:06:17.000Z</time>
      </trkpt>
      <trkpt lat="42.67195" lon="1.63782">
        <ele>1610</ele>
        <time>2018-11-18T13:06:19.000Z</time>
      </trkpt>
      <trkpt lat="42.67197" lon="1.63782">
        <ele>1609</ele>
        <time>2018-11-18T13:06:21.000Z</time>
      </trkpt>
      <trkpt lat="42.67199" lon="1.63782">
        <ele>1609</ele>
        <time>2018-11-18T13:06:23.000Z</time>
      </trkpt>
      <trkpt lat="42.672" lon="1.63781">
        <ele>1609</ele>
        <time>2018-11-18T13:06:25.000Z</time>
      </trkpt>
      <trkpt lat="42.67202" lon="1.6378">
        <ele>1608</ele>
        <time>2018-11-18T13:06:27.000Z</time>
      </trkpt>
      <trkpt lat="42.67204" lon="1.6378">
        <ele>1608</ele>
        <time>2018-11-18T13:06:29.000Z</time>
      </trkpt>
      <trkpt lat="42.67205" lon="1.63779">
        <ele>1608</ele>
        <time>2018-11-18T13:06:31.000Z</time>
      </trkpt>
      <trkpt lat="42.67207" lon="1.63779">
        <ele>1607</ele>
        <time>2018-11-18T13:06:33.000Z</time>
      </trkpt>
      <trkpt lat="42.67207" lon="1.6378">
        <ele>1607</ele>
        <time>2018-11-18T13:06:35.000Z</time>
      </trkpt>
      <trkpt lat="42.67208" lon="1.63781">
        <ele>1608</ele>
        <time>2018-11-18T13:06:37.000Z</time>
      </trkpt>
      <trkpt lat="42.67208" lon="1.63783">
        <ele>1608</ele>
        <time>2018-11-18T13:06:39.000Z</time>
      </trkpt>
      <trkpt lat="42.67208" lon="1.63785">
        <ele>1608</ele>
        <time>2018-11-18T13:06:41.000Z</time>
      </trkpt>
      <trkpt lat="42.67209" lon="1.63787">
        <ele>1608</ele>
        <time>2018-11-18T13:06:43.000Z</time>
      </trkpt>
      <trkpt lat="42.67209" lon="1.63788">
        <ele>1608</ele>
        <time>2018-11-18T13:06:45.000Z</time>
      </trkpt>
      <trkpt lat="42.6721" lon="1.63789">
        <ele>1608</ele>
        <time>2018-11-18T13:06:47.000Z</time>
      </trkpt>
      <trkpt lat="42.6721" lon="1.63789">
        <ele>1608</ele>
        <time>2018-11-18T13:06:49.000Z</time>
      </trkpt>
      <trkpt lat="42.67213" lon="1.63792">
        <ele>1608</ele>
        <time>2018-11-18T13:06:51.000Z</time>
      </trkpt>
      <trkpt lat="42.67214" lon="1.63793">
        <ele>1608</ele>
        <time>2018-11-18T13:06:53.000Z</time>
      </trkpt>
      <trkpt lat="42.67215" lon="1.63794">
        <ele>1608</ele>
        <time>2018-11-18T13:06:55.000Z</time>
      </trkpt>
      <trkpt lat="42.67216" lon="1.63794">
        <ele>1608</ele>
        <time>2018-11-18T13:06:57.000Z</time>
      </trkpt>
      <trkpt lat="42.67217" lon="1.63794">
        <ele>1608</ele>
        <time>2018-11-18T13:06:59.000Z</time>
      </trkpt>
      <trkpt lat="42.67219" lon="1.63794">
        <ele>1608</ele>
        <time>2018-11-18T13:07:01.000Z</time>
      </trkpt>
      <trkpt lat="42.6722" lon="1.63794">
        <ele>1607</ele>
        <time>2018-11-18T13:07:03.000Z</time>
      </trkpt>
      <trkpt lat="42.67222" lon="1.63794">
        <ele>1607</ele>
        <time>2018-11-18T13:07:05.000Z</time>
      </trkpt>
      <trkpt lat="42.67224" lon="1.63796">
        <ele>1607</ele>
        <time>2018-11-18T13:07:07.000Z</time>
      </trkpt>
      <trkpt lat="42.67225" lon="1.63797">
        <ele>1607</ele>
        <time>2018-11-18T13:07:09.000Z</time>
      </trkpt>
      <trkpt lat="42.67227" lon="1.63798">
        <ele>1607</ele>
        <time>2018-11-18T13:07:11.000Z</time>
      </trkpt>
      <trkpt lat="42.67228" lon="1.63798">
        <ele>1607</ele>
        <time>2018-11-18T13:07:13.000Z</time>
      </trkpt>
      <trkpt lat="42.6723" lon="1.63798">
        <ele>1606</ele>
        <time>2018-11-18T13:07:15.000Z</time>
      </trkpt>
      <trkpt lat="42.67232" lon="1.63797">
        <ele>1606</ele>
        <time>2018-11-18T13:07:17.000Z</time>
      </trkpt>
      <trkpt lat="42.67234" lon="1.63797">
        <ele>1606</ele>
        <time>2018-11-18T13:07:19.000Z</time>
      </trkpt>
      <trkpt lat="42.67236" lon="1.63797">
        <ele>1606</ele>
        <time>2018-11-18T13:07:21.000Z</time>
      </trkpt>
      <trkpt lat="42.67238" lon="1.63797">
        <ele>1606</ele>
        <time>2018-11-18T13:07:23.000Z</time>
      </trkpt>
      <trkpt lat="42.6724" lon="1.63798">
        <ele>1606</ele>
        <time>2018-11-18T13:07:25.000Z</time>
      </trkpt>
      <trkpt lat="42.67241" lon="1.638">
        <ele>1606</ele>
        <time>2018-11-18T13:07:27.000Z</time>
      </trkpt>
      <trkpt lat="42.67243" lon="1.63801">
        <ele>1606</ele>
        <time>2018-11-18T13:07:29.000Z</time>
      </trkpt>
      <trkpt lat="42.67244" lon="1.63803">
        <ele>1606</ele>
        <time>2018-11-18T13:07:31.000Z</time>
      </trkpt>
      <trkpt lat="42.67245" lon="1.63804">
        <ele>1606</ele>
        <time>2018-11-18T13:07:33.000Z</time>
      </trkpt>
      <trkpt lat="42.67246" lon="1.63806">
        <ele>1606</ele>
        <time>2018-11-18T13:07:35.000Z</time>
      </trkpt>
      <trkpt lat="42.67248" lon="1.63806">
        <ele>1606</ele>
        <time>2018-11-18T13:07:37.000Z</time>
      </trkpt>
      <trkpt lat="42.67249" lon="1.63807">
        <ele>1606</ele>
        <time>2018-11-18T13:07:39.000Z</time>
      </trkpt>
      <trkpt lat="42.67251" lon="1.63809">
        <ele>1606</ele>
        <time>2018-11-18T13:07:41.000Z</time>
      </trkpt>
      <trkpt lat="42.67252" lon="1.63808">
        <ele>1606</ele>
        <time>2018-11-18T13:07:43.000Z</time>
      </trkpt>
      <trkpt lat="42.67254" lon="1.63809">
        <ele>1605</ele>
        <time>2018-11-18T13:07:45.000Z</time>
      </trkpt>
      <trkpt lat="42.67255" lon="1.6381">
        <ele>1605</ele>
        <time>2018-11-18T13:07:47.000Z</time>
      </trkpt>
      <trkpt lat="42.67256" lon="1.63811">
        <ele>1605</ele>
        <time>2018-11-18T13:07:49.000Z</time>
      </trkpt>
      <trkpt lat="42.67257" lon="1.63812">
        <ele>1605</ele>
        <time>2018-11-18T13:07:51.000Z</time>
      </trkpt>
      <trkpt lat="42.67258" lon="1.63811">
        <ele>1605</ele>
        <time>2018-11-18T13:07:53.000Z</time>
      </trkpt>
      <trkpt lat="42.67259" lon="1.63811">
        <ele>1605</ele>
        <time>2018-11-18T13:07:55.000Z</time>
      </trkpt>
      <trkpt lat="42.67261" lon="1.63812">
        <ele>1605</ele>
        <time>2018-11-18T13:07:57.000Z</time>
      </trkpt>
      <trkpt lat="42.67262" lon="1.63813">
        <ele>1605</ele>
        <time>2018-11-18T13:07:59.000Z</time>
      </trkpt>
      <trkpt lat="42.67263" lon="1.63814">
        <ele>1605</ele>
        <time>2018-11-18T13:08:01.000Z</time>
      </trkpt>
      <trkpt lat="42.67264" lon="1.63815">
        <ele>1605</ele>
        <time>2018-11-18T13:08:03.000Z</time>
      </trkpt>
      <trkpt lat="42.67266" lon="1.63816">
        <ele>1605</ele>
        <time>2018-11-18T13:08:05.000Z</time>
      </trkpt>
      <trkpt lat="42.67267" lon="1.63816">
        <ele>1605</ele>
        <time>2018-11-18T13:08:07.000Z</time>
      </trkpt>
      <trkpt lat="42.67269" lon="1.63816">
        <ele>1605</ele>
        <time>2018-11-18T13:08:09.000Z</time>
      </trkpt>
      <trkpt lat="42.6727" lon="1.63817">
        <ele>1605</ele>
        <time>2018-11-18T13:08:11.000Z</time>
      </trkpt>
      <trkpt lat="42.67271" lon="1.63818">
        <ele>1605</ele>
        <time>2018-11-18T13:08:13.000Z</time>
      </trkpt>
      <trkpt lat="42.67274" lon="1.6382">
        <ele>1605</ele>
        <time>2018-11-18T13:08:15.000Z</time>
      </trkpt>
      <trkpt lat="42.67275" lon="1.63821">
        <ele>1604</ele>
        <time>2018-11-18T13:08:17.000Z</time>
      </trkpt>
      <trkpt lat="42.67277" lon="1.63822">
        <ele>1604</ele>
        <time>2018-11-18T13:08:19.000Z</time>
      </trkpt>
      <trkpt lat="42.67278" lon="1.63823">
        <ele>1604</ele>
        <time>2018-11-18T13:08:21.000Z</time>
      </trkpt>
      <trkpt lat="42.6728" lon="1.63825">
        <ele>1604</ele>
        <time>2018-11-18T13:08:23.000Z</time>
      </trkpt>
      <trkpt lat="42.67281" lon="1.63827">
        <ele>1604</ele>
        <time>2018-11-18T13:08:25.000Z</time>
      </trkpt>
      <trkpt lat="42.67282" lon="1.63829">
        <ele>1604</ele>
        <time>2018-11-18T13:08:27.000Z</time>
      </trkpt>
      <trkpt lat="42.67284" lon="1.63831">
        <ele>1604</ele>
        <time>2018-11-18T13:08:29.000Z</time>
      </trkpt>
      <trkpt lat="42.67285" lon="1.63832">
        <ele>1604</ele>
        <time>2018-11-18T13:08:31.000Z</time>
      </trkpt>
      <trkpt lat="42.67286" lon="1.63833">
        <ele>1604</ele>
        <time>2018-11-18T13:08:33.000Z</time>
      </trkpt>
      <trkpt lat="42.67288" lon="1.63833">
        <ele>1604</ele>
        <time>2018-11-18T13:08:35.000Z</time>
      </trkpt>
      <trkpt lat="42.67289" lon="1.63834">
        <ele>1603</ele>
        <time>2018-11-18T13:08:37.000Z</time>
      </trkpt>
      <trkpt lat="42.67291" lon="1.63836">
        <ele>1603</ele>
        <time>2018-11-18T13:08:39.000Z</time>
      </trkpt>
      <trkpt lat="42.67291" lon="1.63838">
        <ele>1603</ele>
        <time>2018-11-18T13:08:41.000Z</time>
      </trkpt>
      <trkpt lat="42.67291" lon="1.6384">
        <ele>1603</ele>
        <time>2018-11-18T13:08:43.000Z</time>
      </trkpt>
      <trkpt lat="42.67293" lon="1.63842">
        <ele>1603</ele>
        <time>2018-11-18T13:08:45.000Z</time>
      </trkpt>
      <trkpt lat="42.67294" lon="1.63844">
        <ele>1603</ele>
        <time>2018-11-18T13:08:47.000Z</time>
      </trkpt>
      <trkpt lat="42.67295" lon="1.63847">
        <ele>1603</ele>
        <time>2018-11-18T13:08:49.000Z</time>
      </trkpt>
      <trkpt lat="42.67296" lon="1.63849">
        <ele>1603</ele>
        <time>2018-11-18T13:08:51.000Z</time>
      </trkpt>
      <trkpt lat="42.67297" lon="1.63851">
        <ele>1603</ele>
        <time>2018-11-18T13:08:53.000Z</time>
      </trkpt>
      <trkpt lat="42.67298" lon="1.63854">
        <ele>1603</ele>
        <time>2018-11-18T13:08:55.000Z</time>
      </trkpt>
      <trkpt lat="42.67299" lon="1.63856">
        <ele>1603</ele>
        <time>2018-11-18T13:08:57.000Z</time>
      </trkpt>
      <trkpt lat="42.673" lon="1.63858">
        <ele>1603</ele>
        <time>2018-11-18T13:08:59.000Z</time>
      </trkpt>
      <trkpt lat="42.67301" lon="1.63861">
        <ele>1603</ele>
        <time>2018-11-18T13:09:01.000Z</time>
      </trkpt>
      <trkpt lat="42.67302" lon="1.63863">
        <ele>1602</ele>
        <time>2018-11-18T13:09:03.000Z</time>
      </trkpt>
      <trkpt lat="42.67303" lon="1.63866">
        <ele>1602</ele>
        <time>2018-11-18T13:09:05.000Z</time>
      </trkpt>
      <trkpt lat="42.67304" lon="1.63868">
        <ele>1602</ele>
        <time>2018-11-18T13:09:07.000Z</time>
      </trkpt>
      <trkpt lat="42.67304" lon="1.63871">
        <ele>1602</ele>
        <time>2018-11-18T13:09:09.000Z</time>
      </trkpt>
      <trkpt lat="42.67305" lon="1.63873">
        <ele>1602</ele>
        <time>2018-11-18T13:09:11.000Z</time>
      </trkpt>
      <trkpt lat="42.67306" lon="1.63874">
        <ele>1602</ele>
        <time>2018-11-18T13:09:13.000Z</time>
      </trkpt>
      <trkpt lat="42.67308" lon="1.63875">
        <ele>1602</ele>
        <time>2018-11-18T13:09:15.000Z</time>
      </trkpt>
      <trkpt lat="42.6731" lon="1.63875">
        <ele>1602</ele>
        <time>2018-11-18T13:09:17.000Z</time>
      </trkpt>
      <trkpt lat="42.67312" lon="1.63875">
        <ele>1602</ele>
        <time>2018-11-18T13:09:19.000Z</time>
      </trkpt>
      <trkpt lat="42.67312" lon="1.63875">
        <ele>1602</ele>
        <time>2018-11-18T13:09:21.000Z</time>
      </trkpt>
      <trkpt lat="42.67313" lon="1.63875">
        <ele>1602</ele>
        <time>2018-11-18T13:09:23.000Z</time>
      </trkpt>
      <trkpt lat="42.67314" lon="1.63876">
        <ele>1602</ele>
        <time>2018-11-18T13:09:25.000Z</time>
      </trkpt>
      <trkpt lat="42.67315" lon="1.63876">
        <ele>1602</ele>
        <time>2018-11-18T13:09:27.000Z</time>
      </trkpt>
      <trkpt lat="42.67315" lon="1.63876">
        <ele>1601</ele>
        <time>2018-11-18T13:09:29.000Z</time>
      </trkpt>
      <trkpt lat="42.67316" lon="1.63877">
        <ele>1601</ele>
        <time>2018-11-18T13:09:31.000Z</time>
      </trkpt>
      <trkpt lat="42.67318" lon="1.63878">
        <ele>1601</ele>
        <time>2018-11-18T13:09:33.000Z</time>
      </trkpt>
      <trkpt lat="42.67319" lon="1.63879">
        <ele>1601</ele>
        <time>2018-11-18T13:09:35.000Z</time>
      </trkpt>
      <trkpt lat="42.67319" lon="1.6388">
        <ele>1601</ele>
        <time>2018-11-18T13:09:37.000Z</time>
      </trkpt>
      <trkpt lat="42.67322" lon="1.6388">
        <ele>1601</ele>
        <time>2018-11-18T13:09:39.000Z</time>
      </trkpt>
      <trkpt lat="42.67323" lon="1.63882">
        <ele>1601</ele>
        <time>2018-11-18T13:09:41.000Z</time>
      </trkpt>
      <trkpt lat="42.67323" lon="1.63884">
        <ele>1601</ele>
        <time>2018-11-18T13:09:43.000Z</time>
      </trkpt>
      <trkpt lat="42.67323" lon="1.63886">
        <ele>1601</ele>
        <time>2018-11-18T13:09:45.000Z</time>
      </trkpt>
      <trkpt lat="42.67323" lon="1.63888">
        <ele>1601</ele>
        <time>2018-11-18T13:09:47.000Z</time>
      </trkpt>
      <trkpt lat="42.67324" lon="1.6389">
        <ele>1601</ele>
        <time>2018-11-18T13:09:49.000Z</time>
      </trkpt>
      <trkpt lat="42.67325" lon="1.63892">
        <ele>1601</ele>
        <time>2018-11-18T13:09:51.000Z</time>
      </trkpt>
      <trkpt lat="42.67326" lon="1.63894">
        <ele>1601</ele>
        <time>2018-11-18T13:09:53.000Z</time>
      </trkpt>
      <trkpt lat="42.67328" lon="1.63895">
        <ele>1601</ele>
        <time>2018-11-18T13:09:55.000Z</time>
      </trkpt>
      <trkpt lat="42.67329" lon="1.63898">
        <ele>1601</ele>
        <time>2018-11-18T13:09:57.000Z</time>
      </trkpt>
      <trkpt lat="42.6733" lon="1.639">
        <ele>1601</ele>
        <time>2018-11-18T13:09:59.000Z</time>
      </trkpt>
      <trkpt lat="42.67331" lon="1.63902">
        <ele>1601</ele>
        <time>2018-11-18T13:10:01.000Z</time>
      </trkpt>
      <trkpt lat="42.67332" lon="1.63904">
        <ele>1601</ele>
        <time>2018-11-18T13:10:03.000Z</time>
      </trkpt>
      <trkpt lat="42.67334" lon="1.63906">
        <ele>1601</ele>
        <time>2018-11-18T13:10:05.000Z</time>
      </trkpt>
      <trkpt lat="42.67335" lon="1.63909">
        <ele>1601</ele>
        <time>2018-11-18T13:10:07.000Z</time>
      </trkpt>
      <trkpt lat="42.67336" lon="1.63912">
        <ele>1601</ele>
        <time>2018-11-18T13:10:09.000Z</time>
      </trkpt>
      <trkpt lat="42.67336" lon="1.63914">
        <ele>1601</ele>
        <time>2018-11-18T13:10:11.000Z</time>
      </trkpt>
      <trkpt lat="42.67337" lon="1.63917">
        <ele>1602</ele>
        <time>2018-11-18T13:10:13.000Z</time>
      </trkpt>
      <trkpt lat="42.67337" lon="1.6392">
        <ele>1602</ele>
        <time>2018-11-18T13:10:15.000Z</time>
      </trkpt>
      <trkpt lat="42.67338" lon="1.63923">
        <ele>1602</ele>
        <time>2018-11-18T13:10:17.000Z</time>
      </trkpt>
      <trkpt lat="42.67339" lon="1.63924">
        <ele>1602</ele>
        <time>2018-11-18T13:10:19.000Z</time>
      </trkpt>
      <trkpt lat="42.6734" lon="1.63926">
        <ele>1602</ele>
        <time>2018-11-18T13:10:21.000Z</time>
      </trkpt>
      <trkpt lat="42.67342" lon="1.63929">
        <ele>1602</ele>
        <time>2018-11-18T13:10:23.000Z</time>
      </trkpt>
      <trkpt lat="42.67342" lon="1.6393">
        <ele>1602</ele>
        <time>2018-11-18T13:10:25.000Z</time>
      </trkpt>
      <trkpt lat="42.67343" lon="1.63933">
        <ele>1602</ele>
        <time>2018-11-18T13:10:27.000Z</time>
      </trkpt>
      <trkpt lat="42.67345" lon="1.63935">
        <ele>1602</ele>
        <time>2018-11-18T13:10:29.000Z</time>
      </trkpt>
      <trkpt lat="42.67345" lon="1.63938">
        <ele>1603</ele>
        <time>2018-11-18T13:10:31.000Z</time>
      </trkpt>
      <trkpt lat="42.67346" lon="1.6394">
        <ele>1603</ele>
        <time>2018-11-18T13:10:33.000Z</time>
      </trkpt>
      <trkpt lat="42.67347" lon="1.63943">
        <ele>1603</ele>
        <time>2018-11-18T13:10:35.000Z</time>
      </trkpt>
      <trkpt lat="42.67348" lon="1.63945">
        <ele>1603</ele>
        <time>2018-11-18T13:10:37.000Z</time>
      </trkpt>
      <trkpt lat="42.67349" lon="1.63947">
        <ele>1603</ele>
        <time>2018-11-18T13:10:39.000Z</time>
      </trkpt>
      <trkpt lat="42.6735" lon="1.63949">
        <ele>1603</ele>
        <time>2018-11-18T13:10:41.000Z</time>
      </trkpt>
      <trkpt lat="42.6735" lon="1.63952">
        <ele>1604</ele>
        <time>2018-11-18T13:10:43.000Z</time>
      </trkpt>
      <trkpt lat="42.67351" lon="1.63955">
        <ele>1604</ele>
        <time>2018-11-18T13:10:45.000Z</time>
      </trkpt>
      <trkpt lat="42.67351" lon="1.63958">
        <ele>1604</ele>
        <time>2018-11-18T13:10:47.000Z</time>
      </trkpt>
      <trkpt lat="42.67351" lon="1.63961">
        <ele>1604</ele>
        <time>2018-11-18T13:10:49.000Z</time>
      </trkpt>
      <trkpt lat="42.67352" lon="1.63964">
        <ele>1605</ele>
        <time>2018-11-18T13:10:51.000Z</time>
      </trkpt>
      <trkpt lat="42.67354" lon="1.63966">
        <ele>1605</ele>
        <time>2018-11-18T13:10:53.000Z</time>
      </trkpt>
      <trkpt lat="42.67355" lon="1.63968">
        <ele>1605</ele>
        <time>2018-11-18T13:10:55.000Z</time>
      </trkpt>
      <trkpt lat="42.67356" lon="1.6397">
        <ele>1605</ele>
        <time>2018-11-18T13:10:57.000Z</time>
      </trkpt>
      <trkpt lat="42.67357" lon="1.63972">
        <ele>1605</ele>
        <time>2018-11-18T13:10:59.000Z</time>
      </trkpt>
      <trkpt lat="42.67359" lon="1.63975">
        <ele>1605</ele>
        <time>2018-11-18T13:11:01.000Z</time>
      </trkpt>
      <trkpt lat="42.67361" lon="1.63977">
        <ele>1605</ele>
        <time>2018-11-18T13:11:03.000Z</time>
      </trkpt>
      <trkpt lat="42.67363" lon="1.6398">
        <ele>1605</ele>
        <time>2018-11-18T13:11:05.000Z</time>
      </trkpt>
      <trkpt lat="42.67364" lon="1.63982">
        <ele>1605</ele>
        <time>2018-11-18T13:11:07.000Z</time>
      </trkpt>
      <trkpt lat="42.67365" lon="1.63984">
        <ele>1605</ele>
        <time>2018-11-18T13:11:09.000Z</time>
      </trkpt>
      <trkpt lat="42.67366" lon="1.63986">
        <ele>1605</ele>
        <time>2018-11-18T13:11:11.000Z</time>
      </trkpt>
      <trkpt lat="42.67368" lon="1.63988">
        <ele>1605</ele>
        <time>2018-11-18T13:11:13.000Z</time>
      </trkpt>
      <trkpt lat="42.67368" lon="1.6399">
        <ele>1605</ele>
        <time>2018-11-18T13:11:15.000Z</time>
      </trkpt>
      <trkpt lat="42.67369" lon="1.63993">
        <ele>1605</ele>
        <time>2018-11-18T13:11:17.000Z</time>
      </trkpt>
      <trkpt lat="42.6737" lon="1.63995">
        <ele>1605</ele>
        <time>2018-11-18T13:11:19.000Z</time>
      </trkpt>
      <trkpt lat="42.67371" lon="1.63997">
        <ele>1605</ele>
        <time>2018-11-18T13:11:21.000Z</time>
      </trkpt>
      <trkpt lat="42.67373" lon="1.63999">
        <ele>1604</ele>
        <time>2018-11-18T13:11:23.000Z</time>
      </trkpt>
      <trkpt lat="42.67374" lon="1.64002">
        <ele>1604</ele>
        <time>2018-11-18T13:11:25.000Z</time>
      </trkpt>
      <trkpt lat="42.67375" lon="1.64004">
        <ele>1604</ele>
        <time>2018-11-18T13:11:27.000Z</time>
      </trkpt>
      <trkpt lat="42.67376" lon="1.64007">
        <ele>1604</ele>
        <time>2018-11-18T13:11:29.000Z</time>
      </trkpt>
      <trkpt lat="42.67376" lon="1.6401">
        <ele>1604</ele>
        <time>2018-11-18T13:11:31.000Z</time>
      </trkpt>
      <trkpt lat="42.67377" lon="1.64012">
        <ele>1604</ele>
        <time>2018-11-18T13:11:33.000Z</time>
      </trkpt>
      <trkpt lat="42.67377" lon="1.64014">
        <ele>1604</ele>
        <time>2018-11-18T13:11:35.000Z</time>
      </trkpt>
      <trkpt lat="42.67378" lon="1.64016">
        <ele>1604</ele>
        <time>2018-11-18T13:11:37.000Z</time>
      </trkpt>
      <trkpt lat="42.67379" lon="1.64018">
        <ele>1604</ele>
        <time>2018-11-18T13:11:39.000Z</time>
      </trkpt>
      <trkpt lat="42.67381" lon="1.64019">
        <ele>1604</ele>
        <time>2018-11-18T13:11:41.000Z</time>
      </trkpt>
      <trkpt lat="42.67382" lon="1.64021">
        <ele>1603</ele>
        <time>2018-11-18T13:11:43.000Z</time>
      </trkpt>
      <trkpt lat="42.67384" lon="1.64023">
        <ele>1603</ele>
        <time>2018-11-18T13:11:45.000Z</time>
      </trkpt>
      <trkpt lat="42.67385" lon="1.64024">
        <ele>1603</ele>
        <time>2018-11-18T13:11:47.000Z</time>
      </trkpt>
      <trkpt lat="42.67387" lon="1.64026">
        <ele>1603</ele>
        <time>2018-11-18T13:11:49.000Z</time>
      </trkpt>
      <trkpt lat="42.67388" lon="1.64027">
        <ele>1603</ele>
        <time>2018-11-18T13:11:51.000Z</time>
      </trkpt>
      <trkpt lat="42.6739" lon="1.64029">
        <ele>1602</ele>
        <time>2018-11-18T13:11:53.000Z</time>
      </trkpt>
      <trkpt lat="42.67391" lon="1.6403">
        <ele>1602</ele>
        <time>2018-11-18T13:11:55.000Z</time>
      </trkpt>
      <trkpt lat="42.67393" lon="1.64032">
        <ele>1602</ele>
        <time>2018-11-18T13:11:57.000Z</time>
      </trkpt>
      <trkpt lat="42.67393" lon="1.64033">
        <ele>1602</ele>
        <time>2018-11-18T13:11:59.000Z</time>
      </trkpt>
      <trkpt lat="42.67394" lon="1.64034">
        <ele>1602</ele>
        <time>2018-11-18T13:12:01.000Z</time>
      </trkpt>
      <trkpt lat="42.67395" lon="1.64035">
        <ele>1602</ele>
        <time>2018-11-18T13:12:03.000Z</time>
      </trkpt>
      <trkpt lat="42.67397" lon="1.64037">
        <ele>1602</ele>
        <time>2018-11-18T13:12:05.000Z</time>
      </trkpt>
      <trkpt lat="42.67399" lon="1.64038">
        <ele>1601</ele>
        <time>2018-11-18T13:12:07.000Z</time>
      </trkpt>
      <trkpt lat="42.67401" lon="1.64039">
        <ele>1601</ele>
        <time>2018-11-18T13:12:09.000Z</time>
      </trkpt>
      <trkpt lat="42.67403" lon="1.64041">
        <ele>1601</ele>
        <time>2018-11-18T13:12:11.000Z</time>
      </trkpt>
      <trkpt lat="42.67405" lon="1.64044">
        <ele>1601</ele>
        <time>2018-11-18T13:12:13.000Z</time>
      </trkpt>
      <trkpt lat="42.67407" lon="1.64046">
        <ele>1600</ele>
        <time>2018-11-18T13:12:15.000Z</time>
      </trkpt>
      <trkpt lat="42.67409" lon="1.64048">
        <ele>1600</ele>
        <time>2018-11-18T13:12:17.000Z</time>
      </trkpt>
      <trkpt lat="42.67411" lon="1.6405">
        <ele>1600</ele>
        <time>2018-11-18T13:12:19.000Z</time>
      </trkpt>
      <trkpt lat="42.67414" lon="1.64052">
        <ele>1600</ele>
        <time>2018-11-18T13:12:21.000Z</time>
      </trkpt>
      <trkpt lat="42.67417" lon="1.64054">
        <ele>1599</ele>
        <time>2018-11-18T13:12:23.000Z</time>
      </trkpt>
      <trkpt lat="42.67419" lon="1.64056">
        <ele>1599</ele>
        <time>2018-11-18T13:12:25.000Z</time>
      </trkpt>
      <trkpt lat="42.67421" lon="1.64057">
        <ele>1599</ele>
        <time>2018-11-18T13:12:27.000Z</time>
      </trkpt>
      <trkpt lat="42.67424" lon="1.64057">
        <ele>1599</ele>
        <time>2018-11-18T13:12:29.000Z</time>
      </trkpt>
      <trkpt lat="42.67426" lon="1.64058">
        <ele>1599</ele>
        <time>2018-11-18T13:12:31.000Z</time>
      </trkpt>
      <trkpt lat="42.67427" lon="1.64059">
        <ele>1599</ele>
        <time>2018-11-18T13:12:33.000Z</time>
      </trkpt>
      <trkpt lat="42.67428" lon="1.64061">
        <ele>1599</ele>
        <time>2018-11-18T13:12:35.000Z</time>
      </trkpt>
      <trkpt lat="42.67429" lon="1.64062">
        <ele>1599</ele>
        <time>2018-11-18T13:12:37.000Z</time>
      </trkpt>
      <trkpt lat="42.67428" lon="1.64062">
        <ele>1599</ele>
        <time>2018-11-18T13:12:39.000Z</time>
      </trkpt>
      <trkpt lat="42.67428" lon="1.64062">
        <ele>1599</ele>
        <time>2018-11-18T13:12:41.000Z</time>
      </trkpt>
      <trkpt lat="42.67428" lon="1.64061">
        <ele>1599</ele>
        <time>2018-11-18T13:12:43.000Z</time>
      </trkpt>
      <trkpt lat="42.67427" lon="1.64061">
        <ele>1599</ele>
        <time>2018-11-18T13:12:45.000Z</time>
      </trkpt>
      <trkpt lat="42.67428" lon="1.64061">
        <ele>1599</ele>
        <time>2018-11-18T13:12:47.000Z</time>
      </trkpt>
      <trkpt lat="42.67428" lon="1.64061">
        <ele>1599</ele>
        <time>2018-11-18T13:12:49.000Z</time>
      </trkpt>
      <trkpt lat="42.6743" lon="1.64064">
        <ele>1599</ele>
        <time>2018-11-18T13:12:51.000Z</time>
      </trkpt>
      <trkpt lat="42.6743" lon="1.64064">
        <ele>1599</ele>
        <time>2018-11-18T13:12:53.000Z</time>
      </trkpt>
      <trkpt lat="42.6743" lon="1.64065">
        <ele>1599</ele>
        <time>2018-11-18T13:12:55.000Z</time>
      </trkpt>
      <trkpt lat="42.67432" lon="1.64066">
        <ele>1599</ele>
        <time>2018-11-18T13:12:57.000Z</time>
      </trkpt>
      <trkpt lat="42.67433" lon="1.64067">
        <ele>1599</ele>
        <time>2018-11-18T13:12:59.000Z</time>
      </trkpt>
      <trkpt lat="42.67434" lon="1.64069">
        <ele>1599</ele>
        <time>2018-11-18T13:13:01.000Z</time>
      </trkpt>
      <trkpt lat="42.67435" lon="1.64071">
        <ele>1599</ele>
        <time>2018-11-18T13:13:03.000Z</time>
      </trkpt>
      <trkpt lat="42.67437" lon="1.64074">
        <ele>1598</ele>
        <time>2018-11-18T13:13:05.000Z</time>
      </trkpt>
      <trkpt lat="42.67437" lon="1.64077">
        <ele>1598</ele>
        <time>2018-11-18T13:13:07.000Z</time>
      </trkpt>
      <trkpt lat="42.67437" lon="1.64079">
        <ele>1598</ele>
        <time>2018-11-18T13:13:09.000Z</time>
      </trkpt>
      <trkpt lat="42.67437" lon="1.64082">
        <ele>1598</ele>
        <time>2018-11-18T13:13:11.000Z</time>
      </trkpt>
      <trkpt lat="42.67437" lon="1.64084">
        <ele>1598</ele>
        <time>2018-11-18T13:13:13.000Z</time>
      </trkpt>
      <trkpt lat="42.67438" lon="1.64085">
        <ele>1598</ele>
        <time>2018-11-18T13:13:15.000Z</time>
      </trkpt>
      <trkpt lat="42.6744" lon="1.64086">
        <ele>1597</ele>
        <time>2018-11-18T13:13:17.000Z</time>
      </trkpt>
      <trkpt lat="42.67442" lon="1.64088">
        <ele>1597</ele>
        <time>2018-11-18T13:13:19.000Z</time>
      </trkpt>
      <trkpt lat="42.67444" lon="1.64089">
        <ele>1597</ele>
        <time>2018-11-18T13:13:21.000Z</time>
      </trkpt>
      <trkpt lat="42.67446" lon="1.64091">
        <ele>1597</ele>
        <time>2018-11-18T13:13:23.000Z</time>
      </trkpt>
      <trkpt lat="42.67447" lon="1.64092">
        <ele>1597</ele>
        <time>2018-11-18T13:13:25.000Z</time>
      </trkpt>
      <trkpt lat="42.67447" lon="1.64092">
        <ele>1597</ele>
        <time>2018-11-18T13:13:27.000Z</time>
      </trkpt>
      <trkpt lat="42.67448" lon="1.64092">
        <ele>1597</ele>
        <time>2018-11-18T13:13:29.000Z</time>
      </trkpt>
      <trkpt lat="42.67448" lon="1.64092">
        <ele>1597</ele>
        <time>2018-11-18T13:13:31.000Z</time>
      </trkpt>
      <trkpt lat="42.67448" lon="1.64093">
        <ele>1597</ele>
        <time>2018-11-18T13:13:33.000Z</time>
      </trkpt>
      <trkpt lat="42.67448" lon="1.64093">
        <ele>1597</ele>
        <time>2018-11-18T13:13:35.000Z</time>
      </trkpt>
      <trkpt lat="42.67448" lon="1.64094">
        <ele>1597</ele>
        <time>2018-11-18T13:13:37.000Z</time>
      </trkpt>
      <trkpt lat="42.67449" lon="1.64095">
        <ele>1597</ele>
        <time>2018-11-18T13:13:39.000Z</time>
      </trkpt>
      <trkpt lat="42.67449" lon="1.64095">
        <ele>1597</ele>
        <time>2018-11-18T13:13:41.000Z</time>
      </trkpt>
      <trkpt lat="42.6745" lon="1.64097">
        <ele>1597</ele>
        <time>2018-11-18T13:13:43.000Z</time>
      </trkpt>
      <trkpt lat="42.67451" lon="1.64097">
        <ele>1597</ele>
        <time>2018-11-18T13:13:45.000Z</time>
      </trkpt>
      <trkpt lat="42.67451" lon="1.64097">
        <ele>1597</ele>
        <time>2018-11-18T13:13:47.000Z</time>
      </trkpt>
      <trkpt lat="42.67452" lon="1.64097">
        <ele>1597</ele>
        <time>2018-11-18T13:13:49.000Z</time>
      </trkpt>
      <trkpt lat="42.67452" lon="1.64098">
        <ele>1597</ele>
        <time>2018-11-18T13:13:51.000Z</time>
      </trkpt>
      <trkpt lat="42.67452" lon="1.64098">
        <ele>1596</ele>
        <time>2018-11-18T13:13:53.000Z</time>
      </trkpt>
      <trkpt lat="42.67452" lon="1.64098">
        <ele>1596</ele>
        <time>2018-11-18T13:13:55.000Z</time>
      </trkpt>
      <trkpt lat="42.67452" lon="1.64098">
        <ele>1597</ele>
        <time>2018-11-18T13:13:57.000Z</time>
      </trkpt>
      <trkpt lat="42.67452" lon="1.64098">
        <ele>1596</ele>
        <time>2018-11-18T13:13:59.000Z</time>
      </trkpt>
      <trkpt lat="42.67452" lon="1.64099">
        <ele>1596</ele>
        <time>2018-11-18T13:14:01.000Z</time>
      </trkpt>
      <trkpt lat="42.67452" lon="1.641">
        <ele>1596</ele>
        <time>2018-11-18T13:14:03.000Z</time>
      </trkpt>
      <trkpt lat="42.67452" lon="1.641">
        <ele>1596</ele>
        <time>2018-11-18T13:14:05.000Z</time>
      </trkpt>
      <trkpt lat="42.67453" lon="1.64101">
        <ele>1596</ele>
        <time>2018-11-18T13:14:07.000Z</time>
      </trkpt>
      <trkpt lat="42.67453" lon="1.64102">
        <ele>1596</ele>
        <time>2018-11-18T13:14:09.000Z</time>
      </trkpt>
      <trkpt lat="42.67454" lon="1.64103">
        <ele>1596</ele>
        <time>2018-11-18T13:14:11.000Z</time>
      </trkpt>
      <trkpt lat="42.67455" lon="1.64105">
        <ele>1596</ele>
        <time>2018-11-18T13:14:13.000Z</time>
      </trkpt>
      <trkpt lat="42.67456" lon="1.64106">
        <ele>1596</ele>
        <time>2018-11-18T13:14:15.000Z</time>
      </trkpt>
      <trkpt lat="42.67458" lon="1.64106">
        <ele>1596</ele>
        <time>2018-11-18T13:14:17.000Z</time>
      </trkpt>
      <trkpt lat="42.67459" lon="1.64107">
        <ele>1596</ele>
        <time>2018-11-18T13:14:19.000Z</time>
      </trkpt>
      <trkpt lat="42.6746" lon="1.64109">
        <ele>1596</ele>
        <time>2018-11-18T13:14:21.000Z</time>
      </trkpt>
      <trkpt lat="42.67461" lon="1.64111">
        <ele>1596</ele>
        <time>2018-11-18T13:14:23.000Z</time>
      </trkpt>
      <trkpt lat="42.67461" lon="1.64112">
        <ele>1596</ele>
        <time>2018-11-18T13:14:25.000Z</time>
      </trkpt>
      <trkpt lat="42.67461" lon="1.64114">
        <ele>1596</ele>
        <time>2018-11-18T13:14:27.000Z</time>
      </trkpt>
      <trkpt lat="42.67461" lon="1.64115">
        <ele>1596</ele>
        <time>2018-11-18T13:14:29.000Z</time>
      </trkpt>
      <trkpt lat="42.67462" lon="1.64117">
        <ele>1596</ele>
        <time>2018-11-18T13:14:31.000Z</time>
      </trkpt>
      <trkpt lat="42.67463" lon="1.64117">
        <ele>1596</ele>
        <time>2018-11-18T13:14:33.000Z</time>
      </trkpt>
      <trkpt lat="42.67464" lon="1.64118">
        <ele>1595</ele>
        <time>2018-11-18T13:14:35.000Z</time>
      </trkpt>
      <trkpt lat="42.67465" lon="1.64119">
        <ele>1595</ele>
        <time>2018-11-18T13:14:37.000Z</time>
      </trkpt>
      <trkpt lat="42.67466" lon="1.6412">
        <ele>1595</ele>
        <time>2018-11-18T13:14:39.000Z</time>
      </trkpt>
      <trkpt lat="42.67467" lon="1.64121">
        <ele>1595</ele>
        <time>2018-11-18T13:14:41.000Z</time>
      </trkpt>
      <trkpt lat="42.67467" lon="1.64123">
        <ele>1595</ele>
        <time>2018-11-18T13:14:43.000Z</time>
      </trkpt>
      <trkpt lat="42.67467" lon="1.64125">
        <ele>1595</ele>
        <time>2018-11-18T13:14:45.000Z</time>
      </trkpt>
      <trkpt lat="42.67467" lon="1.64126">
        <ele>1595</ele>
        <time>2018-11-18T13:14:47.000Z</time>
      </trkpt>
      <trkpt lat="42.67468" lon="1.64128">
        <ele>1595</ele>
        <time>2018-11-18T13:14:49.000Z</time>
      </trkpt>
      <trkpt lat="42.67469" lon="1.64129">
        <ele>1595</ele>
        <time>2018-11-18T13:14:51.000Z</time>
      </trkpt>
      <trkpt lat="42.6747" lon="1.64131">
        <ele>1595</ele>
        <time>2018-11-18T13:14:53.000Z</time>
      </trkpt>
      <trkpt lat="42.67471" lon="1.64132">
        <ele>1595</ele>
        <time>2018-11-18T13:14:55.000Z</time>
      </trkpt>
      <trkpt lat="42.67472" lon="1.64133">
        <ele>1595</ele>
        <time>2018-11-18T13:14:57.000Z</time>
      </trkpt>
      <trkpt lat="42.67473" lon="1.64136">
        <ele>1595</ele>
        <time>2018-11-18T13:14:59.000Z</time>
      </trkpt>
      <trkpt lat="42.67474" lon="1.64138">
        <ele>1595</ele>
        <time>2018-11-18T13:15:01.000Z</time>
      </trkpt>
      <trkpt lat="42.67475" lon="1.6414">
        <ele>1595</ele>
        <time>2018-11-18T13:15:03.000Z</time>
      </trkpt>
      <trkpt lat="42.67476" lon="1.64143">
        <ele>1595</ele>
        <time>2018-11-18T13:15:05.000Z</time>
      </trkpt>
      <trkpt lat="42.67476" lon="1.64145">
        <ele>1595</ele>
        <time>2018-11-18T13:15:07.000Z</time>
      </trkpt>
      <trkpt lat="42.67476" lon="1.64147">
        <ele>1595</ele>
        <time>2018-11-18T13:15:09.000Z</time>
      </trkpt>
      <trkpt lat="42.67476" lon="1.64149">
        <ele>1595</ele>
        <time>2018-11-18T13:15:11.000Z</time>
      </trkpt>
      <trkpt lat="42.67478" lon="1.64149">
        <ele>1595</ele>
        <time>2018-11-18T13:15:13.000Z</time>
      </trkpt>
      <trkpt lat="42.67479" lon="1.64149">
        <ele>1595</ele>
        <time>2018-11-18T13:15:15.000Z</time>
      </trkpt>
      <trkpt lat="42.6748" lon="1.64151">
        <ele>1595</ele>
        <time>2018-11-18T13:15:17.000Z</time>
      </trkpt>
      <trkpt lat="42.67481" lon="1.64152">
        <ele>1595</ele>
        <time>2018-11-18T13:15:19.000Z</time>
      </trkpt>
      <trkpt lat="42.67481" lon="1.64153">
        <ele>1595</ele>
        <time>2018-11-18T13:15:21.000Z</time>
      </trkpt>
      <trkpt lat="42.67482" lon="1.64154">
        <ele>1595</ele>
        <time>2018-11-18T13:15:23.000Z</time>
      </trkpt>
      <trkpt lat="42.67482" lon="1.64155">
        <ele>1595</ele>
        <time>2018-11-18T13:15:25.000Z</time>
      </trkpt>
      <trkpt lat="42.67483" lon="1.64157">
        <ele>1595</ele>
        <time>2018-11-18T13:15:27.000Z</time>
      </trkpt>
      <trkpt lat="42.67484" lon="1.64159">
        <ele>1595</ele>
        <time>2018-11-18T13:15:29.000Z</time>
      </trkpt>
      <trkpt lat="42.67485" lon="1.6416">
        <ele>1595</ele>
        <time>2018-11-18T13:15:31.000Z</time>
      </trkpt>
      <trkpt lat="42.67485" lon="1.64163">
        <ele>1595</ele>
        <time>2018-11-18T13:15:33.000Z</time>
      </trkpt>
      <trkpt lat="42.67485" lon="1.64165">
        <ele>1595</ele>
        <time>2018-11-18T13:15:35.000Z</time>
      </trkpt>
      <trkpt lat="42.67486" lon="1.64167">
        <ele>1595</ele>
        <time>2018-11-18T13:15:37.000Z</time>
      </trkpt>
      <trkpt lat="42.67487" lon="1.64168">
        <ele>1594</ele>
        <time>2018-11-18T13:15:39.000Z</time>
      </trkpt>
      <trkpt lat="42.67489" lon="1.64169">
        <ele>1594</ele>
        <time>2018-11-18T13:15:41.000Z</time>
      </trkpt>
      <trkpt lat="42.67491" lon="1.64171">
        <ele>1594</ele>
        <time>2018-11-18T13:15:43.000Z</time>
      </trkpt>
      <trkpt lat="42.67492" lon="1.64172">
        <ele>1594</ele>
        <time>2018-11-18T13:15:45.000Z</time>
      </trkpt>
      <trkpt lat="42.67493" lon="1.64174">
        <ele>1594</ele>
        <time>2018-11-18T13:15:47.000Z</time>
      </trkpt>
      <trkpt lat="42.67495" lon="1.64175">
        <ele>1594</ele>
        <time>2018-11-18T13:15:49.000Z</time>
      </trkpt>
      <trkpt lat="42.67496" lon="1.64177">
        <ele>1593</ele>
        <time>2018-11-18T13:15:51.000Z</time>
      </trkpt>
      <trkpt lat="42.67498" lon="1.64179">
        <ele>1593</ele>
        <time>2018-11-18T13:15:53.000Z</time>
      </trkpt>
      <trkpt lat="42.675" lon="1.6418">
        <ele>1593</ele>
        <time>2018-11-18T13:15:55.000Z</time>
      </trkpt>
      <trkpt lat="42.67501" lon="1.64181">
        <ele>1593</ele>
        <time>2018-11-18T13:15:57.000Z</time>
      </trkpt>
      <trkpt lat="42.67503" lon="1.64182">
        <ele>1593</ele>
        <time>2018-11-18T13:15:59.000Z</time>
      </trkpt>
      <trkpt lat="42.67504" lon="1.64182">
        <ele>1593</ele>
        <time>2018-11-18T13:16:01.000Z</time>
      </trkpt>
      <trkpt lat="42.67504" lon="1.64182">
        <ele>1593</ele>
        <time>2018-11-18T13:16:03.000Z</time>
      </trkpt>
      <trkpt lat="42.67504" lon="1.64184">
        <ele>1593</ele>
        <time>2018-11-18T13:16:05.000Z</time>
      </trkpt>
      <trkpt lat="42.67504" lon="1.64185">
        <ele>1593</ele>
        <time>2018-11-18T13:16:07.000Z</time>
      </trkpt>
      <trkpt lat="42.67504" lon="1.64185">
        <ele>1593</ele>
        <time>2018-11-18T13:16:09.000Z</time>
      </trkpt>
      <trkpt lat="42.67504" lon="1.64186">
        <ele>1593</ele>
        <time>2018-11-18T13:16:11.000Z</time>
      </trkpt>
      <trkpt lat="42.67504" lon="1.64186">
        <ele>1593</ele>
        <time>2018-11-18T13:16:13.000Z</time>
      </trkpt>
      <trkpt lat="42.67506" lon="1.64187">
        <ele>1592</ele>
        <time>2018-11-18T13:16:15.000Z</time>
      </trkpt>
      <trkpt lat="42.67507" lon="1.64189">
        <ele>1592</ele>
        <time>2018-11-18T13:16:17.000Z</time>
      </trkpt>
      <trkpt lat="42.67508" lon="1.6419">
        <ele>1592</ele>
        <time>2018-11-18T13:16:19.000Z</time>
      </trkpt>
      <trkpt lat="42.67509" lon="1.64193">
        <ele>1592</ele>
        <time>2018-11-18T13:16:21.000Z</time>
      </trkpt>
      <trkpt lat="42.67511" lon="1.64194">
        <ele>1592</ele>
        <time>2018-11-18T13:16:23.000Z</time>
      </trkpt>
      <trkpt lat="42.67513" lon="1.64195">
        <ele>1592</ele>
        <time>2018-11-18T13:16:25.000Z</time>
      </trkpt>
      <trkpt lat="42.67515" lon="1.64197">
        <ele>1591</ele>
        <time>2018-11-18T13:16:27.000Z</time>
      </trkpt>
      <trkpt lat="42.67517" lon="1.64199">
        <ele>1591</ele>
        <time>2018-11-18T13:16:29.000Z</time>
      </trkpt>
      <trkpt lat="42.67519" lon="1.642">
        <ele>1591</ele>
        <time>2018-11-18T13:16:31.000Z</time>
      </trkpt>
      <trkpt lat="42.67521" lon="1.64202">
        <ele>1591</ele>
        <time>2018-11-18T13:16:33.000Z</time>
      </trkpt>
      <trkpt lat="42.67523" lon="1.64204">
        <ele>1590</ele>
        <time>2018-11-18T13:16:35.000Z</time>
      </trkpt>
      <trkpt lat="42.67524" lon="1.64206">
        <ele>1590</ele>
        <time>2018-11-18T13:16:37.000Z</time>
      </trkpt>
      <trkpt lat="42.67525" lon="1.64208">
        <ele>1590</ele>
        <time>2018-11-18T13:16:39.000Z</time>
      </trkpt>
      <trkpt lat="42.67525" lon="1.64209">
        <ele>1590</ele>
        <time>2018-11-18T13:16:41.000Z</time>
      </trkpt>
      <trkpt lat="42.67524" lon="1.64209">
        <ele>1590</ele>
        <time>2018-11-18T13:16:43.000Z</time>
      </trkpt>
      <trkpt lat="42.67523" lon="1.64209">
        <ele>1590</ele>
        <time>2018-11-18T13:16:45.000Z</time>
      </trkpt>
      <trkpt lat="42.67523" lon="1.64209">
        <ele>1590</ele>
        <time>2018-11-18T13:16:47.000Z</time>
      </trkpt>
      <trkpt lat="42.67522" lon="1.64209">
        <ele>1591</ele>
        <time>2018-11-18T13:16:49.000Z</time>
      </trkpt>
      <trkpt lat="42.67522" lon="1.64209">
        <ele>1591</ele>
        <time>2018-11-18T13:16:51.000Z</time>
      </trkpt>
      <trkpt lat="42.67522" lon="1.64209">
        <ele>1591</ele>
        <time>2018-11-18T13:16:53.000Z</time>
      </trkpt>
      <trkpt lat="42.67521" lon="1.6421">
        <ele>1591</ele>
        <time>2018-11-18T13:16:55.000Z</time>
      </trkpt>
      <trkpt lat="42.67521" lon="1.64209">
        <ele>1591</ele>
        <time>2018-11-18T13:16:57.000Z</time>
      </trkpt>
      <trkpt lat="42.67521" lon="1.64209">
        <ele>1591</ele>
        <time>2018-11-18T13:16:59.000Z</time>
      </trkpt>
      <trkpt lat="42.67521" lon="1.64209">
        <ele>1591</ele>
        <time>2018-11-18T13:17:01.000Z</time>
      </trkpt>
      <trkpt lat="42.67521" lon="1.64209">
        <ele>1591</ele>
        <time>2018-11-18T13:17:03.000Z</time>
      </trkpt>
      <trkpt lat="42.6752" lon="1.64208">
        <ele>1591</ele>
        <time>2018-11-18T13:17:05.000Z</time>
      </trkpt>
      <trkpt lat="42.6752" lon="1.64207">
        <ele>1591</ele>
        <time>2018-11-18T13:17:07.000Z</time>
      </trkpt>
      <trkpt lat="42.6752" lon="1.64207">
        <ele>1591</ele>
        <time>2018-11-18T13:17:09.000Z</time>
      </trkpt>
      <trkpt lat="42.6752" lon="1.64206">
        <ele>1591</ele>
        <time>2018-11-18T13:17:11.000Z</time>
      </trkpt>
      <trkpt lat="42.6752" lon="1.64206">
        <ele>1591</ele>
        <time>2018-11-18T13:17:13.000Z</time>
      </trkpt>
      <trkpt lat="42.6752" lon="1.64206">
        <ele>1591</ele>
        <time>2018-11-18T13:17:15.000Z</time>
      </trkpt>
      <trkpt lat="42.67521" lon="1.64206">
        <ele>1591</ele>
        <time>2018-11-18T13:17:17.000Z</time>
      </trkpt>
      <trkpt lat="42.67521" lon="1.64206">
        <ele>1591</ele>
        <time>2018-11-18T13:17:19.000Z</time>
      </trkpt>
      <trkpt lat="42.67521" lon="1.64207">
        <ele>1591</ele>
        <time>2018-11-18T13:17:21.000Z</time>
      </trkpt>
      <trkpt lat="42.67521" lon="1.64207">
        <ele>1591</ele>
        <time>2018-11-18T13:17:23.000Z</time>
      </trkpt>
      <trkpt lat="42.67522" lon="1.64207">
        <ele>1591</ele>
        <time>2018-11-18T13:17:25.000Z</time>
      </trkpt>
      <trkpt lat="42.67522" lon="1.64207">
        <ele>1591</ele>
        <time>2018-11-18T13:17:27.000Z</time>
      </trkpt>
      <trkpt lat="42.67521" lon="1.64207">
        <ele>1591</ele>
        <time>2018-11-18T13:17:29.000Z</time>
      </trkpt>
      <trkpt lat="42.67521" lon="1.64206">
        <ele>1591</ele>
        <time>2018-11-18T13:17:31.000Z</time>
      </trkpt>
      <trkpt lat="42.67521" lon="1.64207">
        <ele>1591</ele>
        <time>2018-11-18T13:17:33.000Z</time>
      </trkpt>
      <trkpt lat="42.67521" lon="1.64207">
        <ele>1591</ele>
        <time>2018-11-18T13:17:35.000Z</time>
      </trkpt>
      <trkpt lat="42.67521" lon="1.64207">
        <ele>1591</ele>
        <time>2018-11-18T13:17:37.000Z</time>
      </trkpt>
      <trkpt lat="42.67521" lon="1.64207">
        <ele>1591</ele>
        <time>2018-11-18T13:17:39.000Z</time>
      </trkpt>
      <trkpt lat="42.67521" lon="1.64207">
        <ele>1591</ele>
        <time>2018-11-18T13:17:41.000Z</time>
      </trkpt>
      <trkpt lat="42.67521" lon="1.64207">
        <ele>1591</ele>
        <time>2018-11-18T13:17:43.000Z</time>
      </trkpt>
      <trkpt lat="42.67521" lon="1.64206">
        <ele>1591</ele>
        <time>2018-11-18T13:17:45.000Z</time>
      </trkpt>
      <trkpt lat="42.67522" lon="1.64206">
        <ele>1591</ele>
        <time>2018-11-18T13:17:47.000Z</time>
      </trkpt>
      <trkpt lat="42.67523" lon="1.64208">
        <ele>1591</ele>
        <time>2018-11-18T13:17:49.000Z</time>
      </trkpt>
      <trkpt lat="42.67524" lon="1.6421">
        <ele>1590</ele>
        <time>2018-11-18T13:17:51.000Z</time>
      </trkpt>
      <trkpt lat="42.67526" lon="1.64211">
        <ele>1590</ele>
        <time>2018-11-18T13:17:53.000Z</time>
      </trkpt>
      <trkpt lat="42.67528" lon="1.64213">
        <ele>1590</ele>
        <time>2018-11-18T13:17:55.000Z</time>
      </trkpt>
      <trkpt lat="42.6753" lon="1.64215">
        <ele>1590</ele>
        <time>2018-11-18T13:17:57.000Z</time>
      </trkpt>
      <trkpt lat="42.67532" lon="1.64218">
        <ele>1589</ele>
        <time>2018-11-18T13:17:59.000Z</time>
      </trkpt>
      <trkpt lat="42.67534" lon="1.64219">
        <ele>1589</ele>
        <time>2018-11-18T13:18:01.000Z</time>
      </trkpt>
      <trkpt lat="42.67536" lon="1.64222">
        <ele>1589</ele>
        <time>2018-11-18T13:18:03.000Z</time>
      </trkpt>
      <trkpt lat="42.67537" lon="1.64225">
        <ele>1589</ele>
        <time>2018-11-18T13:18:05.000Z</time>
      </trkpt>
      <trkpt lat="42.67538" lon="1.64227">
        <ele>1589</ele>
        <time>2018-11-18T13:18:07.000Z</time>
      </trkpt>
      <trkpt lat="42.6754" lon="1.64229">
        <ele>1588</ele>
        <time>2018-11-18T13:18:09.000Z</time>
      </trkpt>
      <trkpt lat="42.67542" lon="1.64232">
        <ele>1588</ele>
        <time>2018-11-18T13:18:11.000Z</time>
      </trkpt>
      <trkpt lat="42.67544" lon="1.64234">
        <ele>1588</ele>
        <time>2018-11-18T13:18:13.000Z</time>
      </trkpt>
      <trkpt lat="42.67546" lon="1.64238">
        <ele>1588</ele>
        <time>2018-11-18T13:18:15.000Z</time>
      </trkpt>
      <trkpt lat="42.67547" lon="1.6424">
        <ele>1588</ele>
        <time>2018-11-18T13:18:17.000Z</time>
      </trkpt>
      <trkpt lat="42.67549" lon="1.64242">
        <ele>1588</ele>
        <time>2018-11-18T13:18:19.000Z</time>
      </trkpt>
      <trkpt lat="42.6755" lon="1.64244">
        <ele>1588</ele>
        <time>2018-11-18T13:18:21.000Z</time>
      </trkpt>
      <trkpt lat="42.67551" lon="1.64246">
        <ele>1588</ele>
        <time>2018-11-18T13:18:23.000Z</time>
      </trkpt>
      <trkpt lat="42.67552" lon="1.64247">
        <ele>1588</ele>
        <time>2018-11-18T13:18:25.000Z</time>
      </trkpt>
      <trkpt lat="42.67554" lon="1.64248">
        <ele>1588</ele>
        <time>2018-11-18T13:18:27.000Z</time>
      </trkpt>
      <trkpt lat="42.67556" lon="1.64249">
        <ele>1588</ele>
        <time>2018-11-18T13:18:29.000Z</time>
      </trkpt>
      <trkpt lat="42.67558" lon="1.6425">
        <ele>1588</ele>
        <time>2018-11-18T13:18:31.000Z</time>
      </trkpt>
      <trkpt lat="42.6756" lon="1.64251">
        <ele>1588</ele>
        <time>2018-11-18T13:18:33.000Z</time>
      </trkpt>
      <trkpt lat="42.67562" lon="1.64251">
        <ele>1588</ele>
        <time>2018-11-18T13:18:35.000Z</time>
      </trkpt>
      <trkpt lat="42.67564" lon="1.64251">
        <ele>1587</ele>
        <time>2018-11-18T13:18:37.000Z</time>
      </trkpt>
      <trkpt lat="42.67566" lon="1.64252">
        <ele>1587</ele>
        <time>2018-11-18T13:18:39.000Z</time>
      </trkpt>
      <trkpt lat="42.67568" lon="1.64252">
        <ele>1587</ele>
        <time>2018-11-18T13:18:41.000Z</time>
      </trkpt>
      <trkpt lat="42.6757" lon="1.64253">
        <ele>1587</ele>
        <time>2018-11-18T13:18:43.000Z</time>
      </trkpt>
      <trkpt lat="42.67572" lon="1.64254">
        <ele>1586</ele>
        <time>2018-11-18T13:18:45.000Z</time>
      </trkpt>
      <trkpt lat="42.67574" lon="1.64255">
        <ele>1586</ele>
        <time>2018-11-18T13:18:47.000Z</time>
      </trkpt>
      <trkpt lat="42.67576" lon="1.64256">
        <ele>1586</ele>
        <time>2018-11-18T13:18:49.000Z</time>
      </trkpt>
      <trkpt lat="42.67578" lon="1.64257">
        <ele>1586</ele>
        <time>2018-11-18T13:18:51.000Z</time>
      </trkpt>
      <trkpt lat="42.67581" lon="1.64258">
        <ele>1586</ele>
        <time>2018-11-18T13:18:53.000Z</time>
      </trkpt>
      <trkpt lat="42.67582" lon="1.6426">
        <ele>1586</ele>
        <time>2018-11-18T13:18:55.000Z</time>
      </trkpt>
      <trkpt lat="42.67584" lon="1.64262">
        <ele>1586</ele>
        <time>2018-11-18T13:18:57.000Z</time>
      </trkpt>
      <trkpt lat="42.67585" lon="1.64263">
        <ele>1586</ele>
        <time>2018-11-18T13:18:59.000Z</time>
      </trkpt>
      <trkpt lat="42.67587" lon="1.64265">
        <ele>1586</ele>
        <time>2018-11-18T13:19:01.000Z</time>
      </trkpt>
      <trkpt lat="42.67588" lon="1.64268">
        <ele>1586</ele>
        <time>2018-11-18T13:19:03.000Z</time>
      </trkpt>
      <trkpt lat="42.6759" lon="1.6427">
        <ele>1586</ele>
        <time>2018-11-18T13:19:05.000Z</time>
      </trkpt>
      <trkpt lat="42.67591" lon="1.64271">
        <ele>1586</ele>
        <time>2018-11-18T13:19:07.000Z</time>
      </trkpt>
      <trkpt lat="42.67592" lon="1.64273">
        <ele>1586</ele>
        <time>2018-11-18T13:19:09.000Z</time>
      </trkpt>
      <trkpt lat="42.67593" lon="1.64275">
        <ele>1586</ele>
        <time>2018-11-18T13:19:11.000Z</time>
      </trkpt>
      <trkpt lat="42.67594" lon="1.64276">
        <ele>1586</ele>
        <time>2018-11-18T13:19:13.000Z</time>
      </trkpt>
      <trkpt lat="42.67596" lon="1.64278">
        <ele>1586</ele>
        <time>2018-11-18T13:19:15.000Z</time>
      </trkpt>
      <trkpt lat="42.67598" lon="1.6428">
        <ele>1586</ele>
        <time>2018-11-18T13:19:17.000Z</time>
      </trkpt>
      <trkpt lat="42.676" lon="1.64282">
        <ele>1585</ele>
        <time>2018-11-18T13:19:19.000Z</time>
      </trkpt>
      <trkpt lat="42.67602" lon="1.64284">
        <ele>1585</ele>
        <time>2018-11-18T13:19:21.000Z</time>
      </trkpt>
      <trkpt lat="42.67604" lon="1.64285">
        <ele>1585</ele>
        <time>2018-11-18T13:19:23.000Z</time>
      </trkpt>
      <trkpt lat="42.67605" lon="1.64286">
        <ele>1585</ele>
        <time>2018-11-18T13:19:25.000Z</time>
      </trkpt>
      <trkpt lat="42.67607" lon="1.64287">
        <ele>1585</ele>
        <time>2018-11-18T13:19:27.000Z</time>
      </trkpt>
      <trkpt lat="42.67609" lon="1.64288">
        <ele>1585</ele>
        <time>2018-11-18T13:19:29.000Z</time>
      </trkpt>
      <trkpt lat="42.67611" lon="1.64288">
        <ele>1584</ele>
        <time>2018-11-18T13:19:31.000Z</time>
      </trkpt>
      <trkpt lat="42.67612" lon="1.64289">
        <ele>1584</ele>
        <time>2018-11-18T13:19:33.000Z</time>
      </trkpt>
      <trkpt lat="42.67614" lon="1.64289">
        <ele>1584</ele>
        <time>2018-11-18T13:19:35.000Z</time>
      </trkpt>
      <trkpt lat="42.67616" lon="1.6429">
        <ele>1584</ele>
        <time>2018-11-18T13:19:37.000Z</time>
      </trkpt>
      <trkpt lat="42.67617" lon="1.64291">
        <ele>1583</ele>
        <time>2018-11-18T13:19:39.000Z</time>
      </trkpt>
      <trkpt lat="42.67618" lon="1.64292">
        <ele>1583</ele>
        <time>2018-11-18T13:19:41.000Z</time>
      </trkpt>
      <trkpt lat="42.6762" lon="1.64293">
        <ele>1583</ele>
        <time>2018-11-18T13:19:43.000Z</time>
      </trkpt>
      <trkpt lat="42.67621" lon="1.64294">
        <ele>1583</ele>
        <time>2018-11-18T13:19:45.000Z</time>
      </trkpt>
      <trkpt lat="42.67622" lon="1.64295">
        <ele>1583</ele>
        <time>2018-11-18T13:19:47.000Z</time>
      </trkpt>
      <trkpt lat="42.67622" lon="1.64295">
        <ele>1583</ele>
        <time>2018-11-18T13:19:49.000Z</time>
      </trkpt>
      <trkpt lat="42.67623" lon="1.64294">
        <ele>1583</ele>
        <time>2018-11-18T13:19:51.000Z</time>
      </trkpt>
      <trkpt lat="42.67625" lon="1.64294">
        <ele>1582</ele>
        <time>2018-11-18T13:19:53.000Z</time>
      </trkpt>
      <trkpt lat="42.67626" lon="1.64295">
        <ele>1582</ele>
        <time>2018-11-18T13:19:55.000Z</time>
      </trkpt>
      <trkpt lat="42.67626" lon="1.64297">
        <ele>1582</ele>
        <time>2018-11-18T13:19:57.000Z</time>
      </trkpt>
      <trkpt lat="42.67627" lon="1.64298">
        <ele>1582</ele>
        <time>2018-11-18T13:19:59.000Z</time>
      </trkpt>
      <trkpt lat="42.67627" lon="1.643">
        <ele>1583</ele>
        <time>2018-11-18T13:20:01.000Z</time>
      </trkpt>
      <trkpt lat="42.67627" lon="1.643">
        <ele>1583</ele>
        <time>2018-11-18T13:20:03.000Z</time>
      </trkpt>
      <trkpt lat="42.67628" lon="1.643">
        <ele>1583</ele>
        <time>2018-11-18T13:20:05.000Z</time>
      </trkpt>
      <trkpt lat="42.67628" lon="1.64301">
        <ele>1583</ele>
        <time>2018-11-18T13:20:07.000Z</time>
      </trkpt>
      <trkpt lat="42.67627" lon="1.64302">
        <ele>1583</ele>
        <time>2018-11-18T13:20:09.000Z</time>
      </trkpt>
      <trkpt lat="42.67628" lon="1.64304">
        <ele>1583</ele>
        <time>2018-11-18T13:20:11.000Z</time>
      </trkpt>
      <trkpt lat="42.67628" lon="1.64305">
        <ele>1583</ele>
        <time>2018-11-18T13:20:13.000Z</time>
      </trkpt>
      <trkpt lat="42.67629" lon="1.64306">
        <ele>1583</ele>
        <time>2018-11-18T13:20:15.000Z</time>
      </trkpt>
      <trkpt lat="42.67632" lon="1.64305">
        <ele>1582</ele>
        <time>2018-11-18T13:20:17.000Z</time>
      </trkpt>
      <trkpt lat="42.67634" lon="1.64305">
        <ele>1582</ele>
        <time>2018-11-18T13:20:19.000Z</time>
      </trkpt>
      <trkpt lat="42.67636" lon="1.64306">
        <ele>1582</ele>
        <time>2018-11-18T13:20:21.000Z</time>
      </trkpt>
      <trkpt lat="42.67638" lon="1.64307">
        <ele>1582</ele>
        <time>2018-11-18T13:20:23.000Z</time>
      </trkpt>
      <trkpt lat="42.67639" lon="1.64309">
        <ele>1582</ele>
        <time>2018-11-18T13:20:25.000Z</time>
      </trkpt>
      <trkpt lat="42.6764" lon="1.6431">
        <ele>1581</ele>
        <time>2018-11-18T13:20:27.000Z</time>
      </trkpt>
      <trkpt lat="42.67641" lon="1.64311">
        <ele>1581</ele>
        <time>2018-11-18T13:20:29.000Z</time>
      </trkpt>
      <trkpt lat="42.67642" lon="1.64313">
        <ele>1582</ele>
        <time>2018-11-18T13:20:31.000Z</time>
      </trkpt>
      <trkpt lat="42.67643" lon="1.64314">
        <ele>1582</ele>
        <time>2018-11-18T13:20:33.000Z</time>
      </trkpt>
      <trkpt lat="42.67644" lon="1.64315">
        <ele>1581</ele>
        <time>2018-11-18T13:20:35.000Z</time>
      </trkpt>
      <trkpt lat="42.67646" lon="1.64316">
        <ele>1581</ele>
        <time>2018-11-18T13:20:37.000Z</time>
      </trkpt>
      <trkpt lat="42.67647" lon="1.64317">
        <ele>1581</ele>
        <time>2018-11-18T13:20:39.000Z</time>
      </trkpt>
      <trkpt lat="42.67649" lon="1.64317">
        <ele>1581</ele>
        <time>2018-11-18T13:20:41.000Z</time>
      </trkpt>
      <trkpt lat="42.67651" lon="1.64319">
        <ele>1581</ele>
        <time>2018-11-18T13:20:43.000Z</time>
      </trkpt>
      <trkpt lat="42.67653" lon="1.6432">
        <ele>1580</ele>
        <time>2018-11-18T13:20:45.000Z</time>
      </trkpt>
      <trkpt lat="42.67654" lon="1.64322">
        <ele>1580</ele>
        <time>2018-11-18T13:20:47.000Z</time>
      </trkpt>
      <trkpt lat="42.67656" lon="1.64324">
        <ele>1580</ele>
        <time>2018-11-18T13:20:49.000Z</time>
      </trkpt>
      <trkpt lat="42.67657" lon="1.64325">
        <ele>1581</ele>
        <time>2018-11-18T13:20:51.000Z</time>
      </trkpt>
      <trkpt lat="42.67658" lon="1.64327">
        <ele>1581</ele>
        <time>2018-11-18T13:20:53.000Z</time>
      </trkpt>
      <trkpt lat="42.67659" lon="1.64329">
        <ele>1581</ele>
        <time>2018-11-18T13:20:55.000Z</time>
      </trkpt>
      <trkpt lat="42.6766" lon="1.64331">
        <ele>1581</ele>
        <time>2018-11-18T13:20:57.000Z</time>
      </trkpt>
      <trkpt lat="42.67661" lon="1.64333">
        <ele>1581</ele>
        <time>2018-11-18T13:20:59.000Z</time>
      </trkpt>
      <trkpt lat="42.67662" lon="1.64335">
        <ele>1581</ele>
        <time>2018-11-18T13:21:01.000Z</time>
      </trkpt>
      <trkpt lat="42.67663" lon="1.64336">
        <ele>1581</ele>
        <time>2018-11-18T13:21:03.000Z</time>
      </trkpt>
      <trkpt lat="42.67665" lon="1.64337">
        <ele>1581</ele>
        <time>2018-11-18T13:21:05.000Z</time>
      </trkpt>
      <trkpt lat="42.67667" lon="1.64338">
        <ele>1581</ele>
        <time>2018-11-18T13:21:07.000Z</time>
      </trkpt>
      <trkpt lat="42.67669" lon="1.64338">
        <ele>1580</ele>
        <time>2018-11-18T13:21:09.000Z</time>
      </trkpt>
      <trkpt lat="42.6767" lon="1.64337">
        <ele>1580</ele>
        <time>2018-11-18T13:21:11.000Z</time>
      </trkpt>
      <trkpt lat="42.67672" lon="1.64336">
        <ele>1579</ele>
        <time>2018-11-18T13:21:13.000Z</time>
      </trkpt>
      <trkpt lat="42.67673" lon="1.64336">
        <ele>1579</ele>
        <time>2018-11-18T13:21:15.000Z</time>
      </trkpt>
      <trkpt lat="42.67675" lon="1.64336">
        <ele>1578</ele>
        <time>2018-11-18T13:21:17.000Z</time>
      </trkpt>
      <trkpt lat="42.67676" lon="1.64335">
        <ele>1578</ele>
        <time>2018-11-18T13:21:19.000Z</time>
      </trkpt>
      <trkpt lat="42.67677" lon="1.64334">
        <ele>1578</ele>
        <time>2018-11-18T13:21:21.000Z</time>
      </trkpt>
      <trkpt lat="42.67678" lon="1.64333">
        <ele>1577</ele>
        <time>2018-11-18T13:21:23.000Z</time>
      </trkpt>
      <trkpt lat="42.6768" lon="1.64332">
        <ele>1577</ele>
        <time>2018-11-18T13:21:25.000Z</time>
      </trkpt>
      <trkpt lat="42.67681" lon="1.64332">
        <ele>1576</ele>
        <time>2018-11-18T13:21:27.000Z</time>
      </trkpt>
      <trkpt lat="42.67683" lon="1.64332">
        <ele>1576</ele>
        <time>2018-11-18T13:21:29.000Z</time>
      </trkpt>
      <trkpt lat="42.67684" lon="1.64332">
        <ele>1576</ele>
        <time>2018-11-18T13:21:31.000Z</time>
      </trkpt>
      <trkpt lat="42.67686" lon="1.64332">
        <ele>1576</ele>
        <time>2018-11-18T13:21:33.000Z</time>
      </trkpt>
      <trkpt lat="42.67687" lon="1.64333">
        <ele>1575</ele>
        <time>2018-11-18T13:21:35.000Z</time>
      </trkpt>
      <trkpt lat="42.67689" lon="1.64334">
        <ele>1575</ele>
        <time>2018-11-18T13:21:37.000Z</time>
      </trkpt>
      <trkpt lat="42.6769" lon="1.64335">
        <ele>1575</ele>
        <time>2018-11-18T13:21:39.000Z</time>
      </trkpt>
      <trkpt lat="42.67692" lon="1.64335">
        <ele>1575</ele>
        <time>2018-11-18T13:21:41.000Z</time>
      </trkpt>
      <trkpt lat="42.67694" lon="1.64336">
        <ele>1575</ele>
        <time>2018-11-18T13:21:43.000Z</time>
      </trkpt>
      <trkpt lat="42.67695" lon="1.64337">
        <ele>1575</ele>
        <time>2018-11-18T13:21:45.000Z</time>
      </trkpt>
      <trkpt lat="42.67697" lon="1.64337">
        <ele>1574</ele>
        <time>2018-11-18T13:21:47.000Z</time>
      </trkpt>
      <trkpt lat="42.67698" lon="1.64337">
        <ele>1574</ele>
        <time>2018-11-18T13:21:49.000Z</time>
      </trkpt>
      <trkpt lat="42.677" lon="1.64336">
        <ele>1574</ele>
        <time>2018-11-18T13:21:51.000Z</time>
      </trkpt>
      <trkpt lat="42.67701" lon="1.64337">
        <ele>1574</ele>
        <time>2018-11-18T13:21:53.000Z</time>
      </trkpt>
      <trkpt lat="42.67702" lon="1.64337">
        <ele>1574</ele>
        <time>2018-11-18T13:21:55.000Z</time>
      </trkpt>
      <trkpt lat="42.67703" lon="1.64337">
        <ele>1574</ele>
        <time>2018-11-18T13:21:57.000Z</time>
      </trkpt>
      <trkpt lat="42.67703" lon="1.64337">
        <ele>1574</ele>
        <time>2018-11-18T13:21:59.000Z</time>
      </trkpt>
      <trkpt lat="42.67703" lon="1.64337">
        <ele>1574</ele>
        <time>2018-11-18T13:22:01.000Z</time>
      </trkpt>
      <trkpt lat="42.67703" lon="1.64338">
        <ele>1574</ele>
        <time>2018-11-18T13:22:03.000Z</time>
      </trkpt>
      <trkpt lat="42.67704" lon="1.64337">
        <ele>1574</ele>
        <time>2018-11-18T13:22:05.000Z</time>
      </trkpt>
      <trkpt lat="42.67706" lon="1.64338">
        <ele>1573</ele>
        <time>2018-11-18T13:22:07.000Z</time>
      </trkpt>
      <trkpt lat="42.67707" lon="1.64338">
        <ele>1573</ele>
        <time>2018-11-18T13:22:09.000Z</time>
      </trkpt>
      <trkpt lat="42.67709" lon="1.64338">
        <ele>1573</ele>
        <time>2018-11-18T13:22:11.000Z</time>
      </trkpt>
      <trkpt lat="42.6771" lon="1.64338">
        <ele>1573</ele>
        <time>2018-11-18T13:22:13.000Z</time>
      </trkpt>
      <trkpt lat="42.67712" lon="1.64339">
        <ele>1573</ele>
        <time>2018-11-18T13:22:15.000Z</time>
      </trkpt>
      <trkpt lat="42.67714" lon="1.6434">
        <ele>1572</ele>
        <time>2018-11-18T13:22:17.000Z</time>
      </trkpt>
      <trkpt lat="42.67716" lon="1.64342">
        <ele>1572</ele>
        <time>2018-11-18T13:22:19.000Z</time>
      </trkpt>
      <trkpt lat="42.67718" lon="1.64343">
        <ele>1572</ele>
        <time>2018-11-18T13:22:21.000Z</time>
      </trkpt>
      <trkpt lat="42.67719" lon="1.64343">
        <ele>1572</ele>
        <time>2018-11-18T13:22:23.000Z</time>
      </trkpt>
      <trkpt lat="42.67721" lon="1.64343">
        <ele>1572</ele>
        <time>2018-11-18T13:22:25.000Z</time>
      </trkpt>
      <trkpt lat="42.67723" lon="1.64343">
        <ele>1571</ele>
        <time>2018-11-18T13:22:27.000Z</time>
      </trkpt>
      <trkpt lat="42.67725" lon="1.64344">
        <ele>1571</ele>
        <time>2018-11-18T13:22:29.000Z</time>
      </trkpt>
      <trkpt lat="42.67727" lon="1.64344">
        <ele>1571</ele>
        <time>2018-11-18T13:22:31.000Z</time>
      </trkpt>
      <trkpt lat="42.67729" lon="1.64345">
        <ele>1571</ele>
        <time>2018-11-18T13:22:33.000Z</time>
      </trkpt>
      <trkpt lat="42.67731" lon="1.64347">
        <ele>1571</ele>
        <time>2018-11-18T13:22:35.000Z</time>
      </trkpt>
      <trkpt lat="42.67732" lon="1.64348">
        <ele>1571</ele>
        <time>2018-11-18T13:22:37.000Z</time>
      </trkpt>
      <trkpt lat="42.67733" lon="1.64349">
        <ele>1570</ele>
        <time>2018-11-18T13:22:39.000Z</time>
      </trkpt>
      <trkpt lat="42.67735" lon="1.6435">
        <ele>1570</ele>
        <time>2018-11-18T13:22:41.000Z</time>
      </trkpt>
      <trkpt lat="42.67736" lon="1.64352">
        <ele>1570</ele>
        <time>2018-11-18T13:22:43.000Z</time>
      </trkpt>
      <trkpt lat="42.67737" lon="1.64353">
        <ele>1570</ele>
        <time>2018-11-18T13:22:45.000Z</time>
      </trkpt>
      <trkpt lat="42.67738" lon="1.64354">
        <ele>1570</ele>
        <time>2018-11-18T13:22:47.000Z</time>
      </trkpt>
      <trkpt lat="42.67739" lon="1.64355">
        <ele>1570</ele>
        <time>2018-11-18T13:22:49.000Z</time>
      </trkpt>
      <trkpt lat="42.6774" lon="1.64356">
        <ele>1570</ele>
        <time>2018-11-18T13:22:51.000Z</time>
      </trkpt>
      <trkpt lat="42.67741" lon="1.64356">
        <ele>1570</ele>
        <time>2018-11-18T13:22:53.000Z</time>
      </trkpt>
      <trkpt lat="42.67742" lon="1.64357">
        <ele>1570</ele>
        <time>2018-11-18T13:22:55.000Z</time>
      </trkpt>
      <trkpt lat="42.67743" lon="1.64358">
        <ele>1570</ele>
        <time>2018-11-18T13:22:57.000Z</time>
      </trkpt>
      <trkpt lat="42.67744" lon="1.64359">
        <ele>1570</ele>
        <time>2018-11-18T13:22:59.000Z</time>
      </trkpt>
      <trkpt lat="42.67745" lon="1.6436">
        <ele>1569</ele>
        <time>2018-11-18T13:23:01.000Z</time>
      </trkpt>
      <trkpt lat="42.67746" lon="1.6436">
        <ele>1569</ele>
        <time>2018-11-18T13:23:03.000Z</time>
      </trkpt>
      <trkpt lat="42.67747" lon="1.6436">
        <ele>1569</ele>
        <time>2018-11-18T13:23:05.000Z</time>
      </trkpt>
      <trkpt lat="42.67748" lon="1.6436">
        <ele>1569</ele>
        <time>2018-11-18T13:23:07.000Z</time>
      </trkpt>
      <trkpt lat="42.67749" lon="1.64361">
        <ele>1569</ele>
        <time>2018-11-18T13:23:09.000Z</time>
      </trkpt>
      <trkpt lat="42.6775" lon="1.64361">
        <ele>1569</ele>
        <time>2018-11-18T13:23:11.000Z</time>
      </trkpt>
      <trkpt lat="42.67751" lon="1.64362">
        <ele>1569</ele>
        <time>2018-11-18T13:23:13.000Z</time>
      </trkpt>
      <trkpt lat="42.67752" lon="1.64363">
        <ele>1569</ele>
        <time>2018-11-18T13:23:15.000Z</time>
      </trkpt>
      <trkpt lat="42.67752" lon="1.64363">
        <ele>1569</ele>
        <time>2018-11-18T13:23:17.000Z</time>
      </trkpt>
      <trkpt lat="42.67753" lon="1.64363">
        <ele>1569</ele>
        <time>2018-11-18T13:23:19.000Z</time>
      </trkpt>
      <trkpt lat="42.67755" lon="1.64363">
        <ele>1568</ele>
        <time>2018-11-18T13:23:21.000Z</time>
      </trkpt>
      <trkpt lat="42.67754" lon="1.64365">
        <ele>1568</ele>
        <time>2018-11-18T13:23:23.000Z</time>
      </trkpt>
      <trkpt lat="42.67755" lon="1.64365">
        <ele>1568</ele>
        <time>2018-11-18T13:23:25.000Z</time>
      </trkpt>
      <trkpt lat="42.67755" lon="1.64366">
        <ele>1568</ele>
        <time>2018-11-18T13:23:27.000Z</time>
      </trkpt>
      <trkpt lat="42.67756" lon="1.64368">
        <ele>1568</ele>
        <time>2018-11-18T13:23:29.000Z</time>
      </trkpt>
      <trkpt lat="42.67756" lon="1.64368">
        <ele>1568</ele>
        <time>2018-11-18T13:23:31.000Z</time>
      </trkpt>
      <trkpt lat="42.67756" lon="1.64368">
        <ele>1568</ele>
        <time>2018-11-18T13:23:33.000Z</time>
      </trkpt>
      <trkpt lat="42.67755" lon="1.64368">
        <ele>1568</ele>
        <time>2018-11-18T13:23:35.000Z</time>
      </trkpt>
      <trkpt lat="42.67756" lon="1.64368">
        <ele>1568</ele>
        <time>2018-11-18T13:23:37.000Z</time>
      </trkpt>
      <trkpt lat="42.67757" lon="1.64367">
        <ele>1568</ele>
        <time>2018-11-18T13:23:39.000Z</time>
      </trkpt>
      <trkpt lat="42.67757" lon="1.64366">
        <ele>1568</ele>
        <time>2018-11-18T13:23:41.000Z</time>
      </trkpt>
      <trkpt lat="42.67758" lon="1.64366">
        <ele>1568</ele>
        <time>2018-11-18T13:23:43.000Z</time>
      </trkpt>
      <trkpt lat="42.6776" lon="1.64368">
        <ele>1567</ele>
        <time>2018-11-18T13:23:45.000Z</time>
      </trkpt>
      <trkpt lat="42.67761" lon="1.6437">
        <ele>1567</ele>
        <time>2018-11-18T13:23:47.000Z</time>
      </trkpt>
      <trkpt lat="42.6776" lon="1.64372">
        <ele>1568</ele>
        <time>2018-11-18T13:23:49.000Z</time>
      </trkpt>
      <trkpt lat="42.6776" lon="1.64373">
        <ele>1568</ele>
        <time>2018-11-18T13:23:51.000Z</time>
      </trkpt>
      <trkpt lat="42.67759" lon="1.64373">
        <ele>1568</ele>
        <time>2018-11-18T13:23:53.000Z</time>
      </trkpt>
      <trkpt lat="42.67759" lon="1.64373">
        <ele>1568</ele>
        <time>2018-11-18T13:23:55.000Z</time>
      </trkpt>
      <trkpt lat="42.67758" lon="1.64373">
        <ele>1568</ele>
        <time>2018-11-18T13:23:57.000Z</time>
      </trkpt>
      <trkpt lat="42.67758" lon="1.64373">
        <ele>1568</ele>
        <time>2018-11-18T13:23:59.000Z</time>
      </trkpt>
      <trkpt lat="42.67758" lon="1.64373">
        <ele>1568</ele>
        <time>2018-11-18T13:24:01.000Z</time>
      </trkpt>
      <trkpt lat="42.67759" lon="1.64373">
        <ele>1568</ele>
        <time>2018-11-18T13:24:03.000Z</time>
      </trkpt>
      <trkpt lat="42.67759" lon="1.64373">
        <ele>1568</ele>
        <time>2018-11-18T13:24:05.000Z</time>
      </trkpt>
      <trkpt lat="42.67759" lon="1.64373">
        <ele>1568</ele>
        <time>2018-11-18T13:24:07.000Z</time>
      </trkpt>
      <trkpt lat="42.67759" lon="1.64374">
        <ele>1568</ele>
        <time>2018-11-18T13:24:09.000Z</time>
      </trkpt>
      <trkpt lat="42.67759" lon="1.64374">
        <ele>1568</ele>
        <time>2018-11-18T13:24:11.000Z</time>
      </trkpt>
      <trkpt lat="42.67759" lon="1.64375">
        <ele>1568</ele>
        <time>2018-11-18T13:24:13.000Z</time>
      </trkpt>
      <trkpt lat="42.67758" lon="1.64375">
        <ele>1568</ele>
        <time>2018-11-18T13:24:15.000Z</time>
      </trkpt>
      <trkpt lat="42.67758" lon="1.64375">
        <ele>1568</ele>
        <time>2018-11-18T13:24:17.000Z</time>
      </trkpt>
      <trkpt lat="42.67758" lon="1.64375">
        <ele>1568</ele>
        <time>2018-11-18T13:24:19.000Z</time>
      </trkpt>
      <trkpt lat="42.67758" lon="1.64375">
        <ele>1568</ele>
        <time>2018-11-18T13:24:21.000Z</time>
      </trkpt>
      <trkpt lat="42.67758" lon="1.64375">
        <ele>1568</ele>
        <time>2018-11-18T13:24:23.000Z</time>
      </trkpt>
      <trkpt lat="42.67758" lon="1.64375">
        <ele>1568</ele>
        <time>2018-11-18T13:24:25.000Z</time>
      </trkpt>
      <trkpt lat="42.67758" lon="1.64375">
        <ele>1568</ele>
        <time>2018-11-18T13:24:27.000Z</time>
      </trkpt>
      <trkpt lat="42.67758" lon="1.64375">
        <ele>1568</ele>
        <time>2018-11-18T13:24:29.000Z</time>
      </trkpt>
      <trkpt lat="42.67758" lon="1.64375">
        <ele>1568</ele>
        <time>2018-11-18T13:24:31.000Z</time>
      </trkpt>
      <trkpt lat="42.67758" lon="1.64375">
        <ele>1568</ele>
        <time>2018-11-18T13:24:33.000Z</time>
      </trkpt>
      <trkpt lat="42.67758" lon="1.64374">
        <ele>1568</ele>
        <time>2018-11-18T13:24:35.000Z</time>
      </trkpt>
      <trkpt lat="42.67758" lon="1.64374">
        <ele>1568</ele>
        <time>2018-11-18T13:24:37.000Z</time>
      </trkpt>
      <trkpt lat="42.67758" lon="1.64373">
        <ele>1568</ele>
        <time>2018-11-18T13:24:39.000Z</time>
      </trkpt>
      <trkpt lat="42.67758" lon="1.64372">
        <ele>1568</ele>
        <time>2018-11-18T13:24:41.000Z</time>
      </trkpt>
      <trkpt lat="42.67758" lon="1.64372">
        <ele>1568</ele>
        <time>2018-11-18T13:24:43.000Z</time>
      </trkpt>
      <trkpt lat="42.67758" lon="1.64372">
        <ele>1568</ele>
        <time>2018-11-18T13:24:45.000Z</time>
      </trkpt>
      <trkpt lat="42.67758" lon="1.64371">
        <ele>1568</ele>
        <time>2018-11-18T13:24:47.000Z</time>
      </trkpt>
      <trkpt lat="42.67758" lon="1.64371">
        <ele>1568</ele>
        <time>2018-11-18T13:24:49.000Z</time>
      </trkpt>
      <trkpt lat="42.67758" lon="1.64372">
        <ele>1568</ele>
        <time>2018-11-18T13:24:51.000Z</time>
      </trkpt>
      <trkpt lat="42.67758" lon="1.64372">
        <ele>1568</ele>
        <time>2018-11-18T13:24:53.000Z</time>
      </trkpt>
      <trkpt lat="42.67758" lon="1.64372">
        <ele>1568</ele>
        <time>2018-11-18T13:24:55.000Z</time>
      </trkpt>
      <trkpt lat="42.67758" lon="1.64372">
        <ele>1568</ele>
        <time>2018-11-18T13:24:57.000Z</time>
      </trkpt>
      <trkpt lat="42.67758" lon="1.64372">
        <ele>1568</ele>
        <time>2018-11-18T13:24:59.000Z</time>
      </trkpt>
      <trkpt lat="42.67758" lon="1.64372">
        <ele>1568</ele>
        <time>2018-11-18T13:25:01.000Z</time>
      </trkpt>
      <trkpt lat="42.67759" lon="1.64371">
        <ele>1568</ele>
        <time>2018-11-18T13:25:03.000Z</time>
      </trkpt>
      <trkpt lat="42.67759" lon="1.64371">
        <ele>1568</ele>
        <time>2018-11-18T13:25:05.000Z</time>
      </trkpt>
      <trkpt lat="42.67759" lon="1.64371">
        <ele>1568</ele>
        <time>2018-11-18T13:25:07.000Z</time>
      </trkpt>
      <trkpt lat="42.67759" lon="1.64372">
        <ele>1568</ele>
        <time>2018-11-18T13:25:09.000Z</time>
      </trkpt>
      <trkpt lat="42.67759" lon="1.64372">
        <ele>1568</ele>
        <time>2018-11-18T13:25:11.000Z</time>
      </trkpt>
      <trkpt lat="42.67759" lon="1.64372">
        <ele>1568</ele>
        <time>2018-11-18T13:25:13.000Z</time>
      </trkpt>
      <trkpt lat="42.67759" lon="1.64372">
        <ele>1568</ele>
        <time>2018-11-18T13:25:15.000Z</time>
      </trkpt>
      <trkpt lat="42.67759" lon="1.64371">
        <ele>1568</ele>
        <time>2018-11-18T13:25:17.000Z</time>
      </trkpt>
      <trkpt lat="42.67759" lon="1.64371">
        <ele>1568</ele>
        <time>2018-11-18T13:25:19.000Z</time>
      </trkpt>
      <trkpt lat="42.67759" lon="1.6437">
        <ele>1568</ele>
        <time>2018-11-18T13:25:21.000Z</time>
      </trkpt>
      <trkpt lat="42.67759" lon="1.6437">
        <ele>1568</ele>
        <time>2018-11-18T13:25:23.000Z</time>
      </trkpt>
      <trkpt lat="42.67759" lon="1.64369">
        <ele>1568</ele>
        <time>2018-11-18T13:25:25.000Z</time>
      </trkpt>
      <trkpt lat="42.67759" lon="1.64369">
        <ele>1568</ele>
        <time>2018-11-18T13:25:27.000Z</time>
      </trkpt>
      <trkpt lat="42.67759" lon="1.64369">
        <ele>1568</ele>
        <time>2018-11-18T13:25:29.000Z</time>
      </trkpt>
      <trkpt lat="42.67759" lon="1.64368">
        <ele>1568</ele>
        <time>2018-11-18T13:25:31.000Z</time>
      </trkpt>
      <trkpt lat="42.67759" lon="1.64368">
        <ele>1568</ele>
        <time>2018-11-18T13:25:33.000Z</time>
      </trkpt>
      <trkpt lat="42.67759" lon="1.64369">
        <ele>1568</ele>
        <time>2018-11-18T13:25:35.000Z</time>
      </trkpt>
      <trkpt lat="42.67759" lon="1.64369">
        <ele>1568</ele>
        <time>2018-11-18T13:25:37.000Z</time>
      </trkpt>
      <trkpt lat="42.67759" lon="1.64369">
        <ele>1568</ele>
        <time>2018-11-18T13:25:39.000Z</time>
      </trkpt>
      <trkpt lat="42.67759" lon="1.64369">
        <ele>1568</ele>
        <time>2018-11-18T13:25:41.000Z</time>
      </trkpt>
      <trkpt lat="42.67759" lon="1.64369">
        <ele>1568</ele>
        <time>2018-11-18T13:25:43.000Z</time>
      </trkpt>
      <trkpt lat="42.67759" lon="1.6437">
        <ele>1568</ele>
        <time>2018-11-18T13:25:45.000Z</time>
      </trkpt>
      <trkpt lat="42.67759" lon="1.6437">
        <ele>1568</ele>
        <time>2018-11-18T13:25:47.000Z</time>
      </trkpt>
      <trkpt lat="42.67759" lon="1.6437">
        <ele>1568</ele>
        <time>2018-11-18T13:25:49.000Z</time>
      </trkpt>
      <trkpt lat="42.67759" lon="1.6437">
        <ele>1568</ele>
        <time>2018-11-18T13:25:51.000Z</time>
      </trkpt>
      <trkpt lat="42.67759" lon="1.64371">
        <ele>1568</ele>
        <time>2018-11-18T13:25:53.000Z</time>
      </trkpt>
      <trkpt lat="42.67759" lon="1.64371">
        <ele>1568</ele>
        <time>2018-11-18T13:25:55.000Z</time>
      </trkpt>
      <trkpt lat="42.67759" lon="1.64371">
        <ele>1568</ele>
        <time>2018-11-18T13:25:57.000Z</time>
      </trkpt>
      <trkpt lat="42.67759" lon="1.64371">
        <ele>1568</ele>
        <time>2018-11-18T13:25:59.000Z</time>
      </trkpt>
      <trkpt lat="42.67759" lon="1.64371">
        <ele>1568</ele>
        <time>2018-11-18T13:26:01.000Z</time>
      </trkpt>
      <trkpt lat="42.67759" lon="1.64371">
        <ele>1568</ele>
        <time>2018-11-18T13:26:03.000Z</time>
      </trkpt>
      <trkpt lat="42.67759" lon="1.64371">
        <ele>1568</ele>
        <time>2018-11-18T13:26:05.000Z</time>
      </trkpt>
      <trkpt lat="42.67759" lon="1.64371">
        <ele>1568</ele>
        <time>2018-11-18T13:26:07.000Z</time>
      </trkpt>
      <trkpt lat="42.67759" lon="1.6437">
        <ele>1568</ele>
        <time>2018-11-18T13:26:09.000Z</time>
      </trkpt>
      <trkpt lat="42.67759" lon="1.6437">
        <ele>1568</ele>
        <time>2018-11-18T13:26:11.000Z</time>
      </trkpt>
      <trkpt lat="42.67759" lon="1.6437">
        <ele>1568</ele>
        <time>2018-11-18T13:26:13.000Z</time>
      </trkpt>
      <trkpt lat="42.67759" lon="1.6437">
        <ele>1568</ele>
        <time>2018-11-18T13:26:15.000Z</time>
      </trkpt>
      <trkpt lat="42.67759" lon="1.6437">
        <ele>1568</ele>
        <time>2018-11-18T13:26:17.000Z</time>
      </trkpt>
      <trkpt lat="42.6776" lon="1.6437">
        <ele>1568</ele>
        <time>2018-11-18T13:26:19.000Z</time>
      </trkpt>
      <trkpt lat="42.6776" lon="1.6437">
        <ele>1568</ele>
        <time>2018-11-18T13:26:21.000Z</time>
      </trkpt>
      <trkpt lat="42.67759" lon="1.6437">
        <ele>1568</ele>
        <time>2018-11-18T13:26:23.000Z</time>
      </trkpt>
      <trkpt lat="42.67759" lon="1.6437">
        <ele>1568</ele>
        <time>2018-11-18T13:26:25.000Z</time>
      </trkpt>
      <trkpt lat="42.67759" lon="1.6437">
        <ele>1568</ele>
        <time>2018-11-18T13:26:27.000Z</time>
      </trkpt>
      <trkpt lat="42.6776" lon="1.6437">
        <ele>1568</ele>
        <time>2018-11-18T13:26:29.000Z</time>
      </trkpt>
      <trkpt lat="42.6776" lon="1.6437">
        <ele>1568</ele>
        <time>2018-11-18T13:26:31.000Z</time>
      </trkpt>
      <trkpt lat="42.6776" lon="1.6437">
        <ele>1568</ele>
        <time>2018-11-18T13:26:33.000Z</time>
      </trkpt>
      <trkpt lat="42.6776" lon="1.6437">
        <ele>1568</ele>
        <time>2018-11-18T13:26:35.000Z</time>
      </trkpt>
      <trkpt lat="42.6776" lon="1.6437">
        <ele>1568</ele>
        <time>2018-11-18T13:26:37.000Z</time>
      </trkpt>
      <trkpt lat="42.6776" lon="1.6437">
        <ele>1568</ele>
        <time>2018-11-18T13:26:39.000Z</time>
      </trkpt>
      <trkpt lat="42.6776" lon="1.6437">
        <ele>1568</ele>
        <time>2018-11-18T13:26:41.000Z</time>
      </trkpt>
      <trkpt lat="42.6776" lon="1.6437">
        <ele>1568</ele>
        <time>2018-11-18T13:26:43.000Z</time>
      </trkpt>
      <trkpt lat="42.6776" lon="1.6437">
        <ele>1568</ele>
        <time>2018-11-18T13:26:45.000Z</time>
      </trkpt>
      <trkpt lat="42.6776" lon="1.6437">
        <ele>1568</ele>
        <time>2018-11-18T13:26:47.000Z</time>
      </trkpt>
      <trkpt lat="42.6776" lon="1.6437">
        <ele>1568</ele>
        <time>2018-11-18T13:26:49.000Z</time>
      </trkpt>
      <trkpt lat="42.6776" lon="1.6437">
        <ele>1568</ele>
        <time>2018-11-18T13:26:51.000Z</time>
      </trkpt>
      <trkpt lat="42.6776" lon="1.6437">
        <ele>1568</ele>
        <time>2018-11-18T13:26:53.000Z</time>
      </trkpt>
      <trkpt lat="42.6776" lon="1.6437">
        <ele>1568</ele>
        <time>2018-11-18T13:26:55.000Z</time>
      </trkpt>
      <trkpt lat="42.6776" lon="1.6437">
        <ele>1568</ele>
        <time>2018-11-18T13:26:57.000Z</time>
      </trkpt>
      <trkpt lat="42.6776" lon="1.6437">
        <ele>1568</ele>
        <time>2018-11-18T13:26:59.000Z</time>
      </trkpt>
      <trkpt lat="42.6776" lon="1.6437">
        <ele>1568</ele>
        <time>2018-11-18T13:27:01.000Z</time>
      </trkpt>
      <trkpt lat="42.6776" lon="1.6437">
        <ele>1568</ele>
        <time>2018-11-18T13:27:03.000Z</time>
      </trkpt>
      <trkpt lat="42.6776" lon="1.6437">
        <ele>1568</ele>
        <time>2018-11-18T13:27:05.000Z</time>
      </trkpt>
      <trkpt lat="42.6776" lon="1.6437">
        <ele>1568</ele>
        <time>2018-11-18T13:27:07.000Z</time>
      </trkpt>
      <trkpt lat="42.67759" lon="1.6437">
        <ele>1568</ele>
        <time>2018-11-18T13:27:09.000Z</time>
      </trkpt>
      <trkpt lat="42.67759" lon="1.6437">
        <ele>1568</ele>
        <time>2018-11-18T13:27:11.000Z</time>
      </trkpt>
      <trkpt lat="42.67759" lon="1.6437">
        <ele>1568</ele>
        <time>2018-11-18T13:27:13.000Z</time>
      </trkpt>
      <trkpt lat="42.67759" lon="1.6437">
        <ele>1568</ele>
        <time>2018-11-18T13:27:15.000Z</time>
      </trkpt>
      <trkpt lat="42.67759" lon="1.6437">
        <ele>1568</ele>
        <time>2018-11-18T13:27:17.000Z</time>
      </trkpt>
      <trkpt lat="42.67759" lon="1.6437">
        <ele>1568</ele>
        <time>2018-11-18T13:27:19.000Z</time>
      </trkpt>
      <trkpt lat="42.67759" lon="1.6437">
        <ele>1568</ele>
        <time>2018-11-18T13:27:21.000Z</time>
      </trkpt>
      <trkpt lat="42.67759" lon="1.6437">
        <ele>1568</ele>
        <time>2018-11-18T13:27:23.000Z</time>
      </trkpt>
      <trkpt lat="42.67759" lon="1.6437">
        <ele>1568</ele>
        <time>2018-11-18T13:27:25.000Z</time>
      </trkpt>
      <trkpt lat="42.67759" lon="1.6437">
        <ele>1568</ele>
        <time>2018-11-18T13:27:27.000Z</time>
      </trkpt>
      <trkpt lat="42.67759" lon="1.6437">
        <ele>1568</ele>
        <time>2018-11-18T13:27:29.000Z</time>
      </trkpt>
      <trkpt lat="42.67759" lon="1.6437">
        <ele>1568</ele>
        <time>2018-11-18T13:27:31.000Z</time>
      </trkpt>
      <trkpt lat="42.67759" lon="1.6437">
        <ele>1568</ele>
        <time>2018-11-18T13:27:33.000Z</time>
      </trkpt>
      <trkpt lat="42.67759" lon="1.64369">
        <ele>1568</ele>
        <time>2018-11-18T13:27:35.000Z</time>
      </trkpt>
      <trkpt lat="42.67759" lon="1.64369">
        <ele>1568</ele>
        <time>2018-11-18T13:27:37.000Z</time>
      </trkpt>
      <trkpt lat="42.67759" lon="1.64369">
        <ele>1568</ele>
        <time>2018-11-18T13:27:39.000Z</time>
      </trkpt>
      <trkpt lat="42.67759" lon="1.6437">
        <ele>1568</ele>
        <time>2018-11-18T13:27:41.000Z</time>
      </trkpt>
      <trkpt lat="42.67759" lon="1.6437">
        <ele>1568</ele>
        <time>2018-11-18T13:27:43.000Z</time>
      </trkpt>
      <trkpt lat="42.67759" lon="1.6437">
        <ele>1568</ele>
        <time>2018-11-18T13:27:45.000Z</time>
      </trkpt>
      <trkpt lat="42.67759" lon="1.6437">
        <ele>1568</ele>
        <time>2018-11-18T13:27:47.000Z</time>
      </trkpt>
      <trkpt lat="42.67759" lon="1.6437">
        <ele>1568</ele>
        <time>2018-11-18T13:27:49.000Z</time>
      </trkpt>
      <trkpt lat="42.67759" lon="1.6437">
        <ele>1568</ele>
        <time>2018-11-18T13:27:51.000Z</time>
      </trkpt>
      <trkpt lat="42.67758" lon="1.6437">
        <ele>1568</ele>
        <time>2018-11-18T13:27:53.000Z</time>
      </trkpt>
      <trkpt lat="42.67758" lon="1.6437">
        <ele>1568</ele>
        <time>2018-11-18T13:27:55.000Z</time>
      </trkpt>
      <trkpt lat="42.67758" lon="1.6437">
        <ele>1568</ele>
        <time>2018-11-18T13:27:57.000Z</time>
      </trkpt>
      <trkpt lat="42.67758" lon="1.6437">
        <ele>1568</ele>
        <time>2018-11-18T13:27:59.000Z</time>
      </trkpt>
      <trkpt lat="42.67759" lon="1.6437">
        <ele>1568</ele>
        <time>2018-11-18T13:28:01.000Z</time>
      </trkpt>
      <trkpt lat="42.67759" lon="1.6437">
        <ele>1568</ele>
        <time>2018-11-18T13:28:03.000Z</time>
      </trkpt>
      <trkpt lat="42.67759" lon="1.6437">
        <ele>1568</ele>
        <time>2018-11-18T13:28:05.000Z</time>
      </trkpt>
      <trkpt lat="42.67759" lon="1.6437">
        <ele>1568</ele>
        <time>2018-11-18T13:28:07.000Z</time>
      </trkpt>
      <trkpt lat="42.67759" lon="1.6437">
        <ele>1568</ele>
        <time>2018-11-18T13:28:09.000Z</time>
      </trkpt>
      <trkpt lat="42.67759" lon="1.64369">
        <ele>1568</ele>
        <time>2018-11-18T13:28:11.000Z</time>
      </trkpt>
      <trkpt lat="42.67759" lon="1.64369">
        <ele>1568</ele>
        <time>2018-11-18T13:28:13.000Z</time>
      </trkpt>
      <trkpt lat="42.67759" lon="1.64369">
        <ele>1568</ele>
        <time>2018-11-18T13:28:15.000Z</time>
      </trkpt>
      <trkpt lat="42.67759" lon="1.64369">
        <ele>1568</ele>
        <time>2018-11-18T13:28:17.000Z</time>
      </trkpt>
      <trkpt lat="42.67759" lon="1.6437">
        <ele>1568</ele>
        <time>2018-11-18T13:28:19.000Z</time>
      </trkpt>
      <trkpt lat="42.67759" lon="1.6437">
        <ele>1568</ele>
        <time>2018-11-18T13:28:21.000Z</time>
      </trkpt>
      <trkpt lat="42.67759" lon="1.6437">
        <ele>1568</ele>
        <time>2018-11-18T13:28:23.000Z</time>
      </trkpt>
      <trkpt lat="42.67759" lon="1.64371">
        <ele>1568</ele>
        <time>2018-11-18T13:28:25.000Z</time>
      </trkpt>
      <trkpt lat="42.67759" lon="1.64371">
        <ele>1568</ele>
        <time>2018-11-18T13:28:27.000Z</time>
      </trkpt>
      <trkpt lat="42.67759" lon="1.64371">
        <ele>1568</ele>
        <time>2018-11-18T13:28:29.000Z</time>
      </trkpt>
      <trkpt lat="42.6776" lon="1.64371">
        <ele>1568</ele>
        <time>2018-11-18T13:28:31.000Z</time>
      </trkpt>
      <trkpt lat="42.6776" lon="1.64371">
        <ele>1568</ele>
        <time>2018-11-18T13:28:33.000Z</time>
      </trkpt>
      <trkpt lat="42.6776" lon="1.64371">
        <ele>1568</ele>
        <time>2018-11-18T13:28:35.000Z</time>
      </trkpt>
      <trkpt lat="42.6776" lon="1.64371">
        <ele>1568</ele>
        <time>2018-11-18T13:28:37.000Z</time>
      </trkpt>
      <trkpt lat="42.6776" lon="1.64371">
        <ele>1568</ele>
        <time>2018-11-18T13:28:39.000Z</time>
      </trkpt>
      <trkpt lat="42.6776" lon="1.64372">
        <ele>1568</ele>
        <time>2018-11-18T13:28:41.000Z</time>
      </trkpt>
      <trkpt lat="42.67761" lon="1.64372">
        <ele>1568</ele>
        <time>2018-11-18T13:28:43.000Z</time>
      </trkpt>
      <trkpt lat="42.67761" lon="1.64372">
        <ele>1568</ele>
        <time>2018-11-18T13:28:45.000Z</time>
      </trkpt>
      <trkpt lat="42.67761" lon="1.64372">
        <ele>1568</ele>
        <time>2018-11-18T13:28:47.000Z</time>
      </trkpt>
      <trkpt lat="42.67761" lon="1.64372">
        <ele>1567</ele>
        <time>2018-11-18T13:28:49.000Z</time>
      </trkpt>
      <trkpt lat="42.67761" lon="1.64373">
        <ele>1567</ele>
        <time>2018-11-18T13:28:51.000Z</time>
      </trkpt>
      <trkpt lat="42.67761" lon="1.64373">
        <ele>1568</ele>
        <time>2018-11-18T13:28:53.000Z</time>
      </trkpt>
      <trkpt lat="42.67761" lon="1.64373">
        <ele>1568</ele>
        <time>2018-11-18T13:28:55.000Z</time>
      </trkpt>
      <trkpt lat="42.67761" lon="1.64373">
        <ele>1568</ele>
        <time>2018-11-18T13:28:57.000Z</time>
      </trkpt>
      <trkpt lat="42.6776" lon="1.64373">
        <ele>1568</ele>
        <time>2018-11-18T13:28:59.000Z</time>
      </trkpt>
      <trkpt lat="42.6776" lon="1.64373">
        <ele>1568</ele>
        <time>2018-11-18T13:29:01.000Z</time>
      </trkpt>
      <trkpt lat="42.67761" lon="1.64373">
        <ele>1568</ele>
        <time>2018-11-18T13:29:03.000Z</time>
      </trkpt>
      <trkpt lat="42.6776" lon="1.64373">
        <ele>1568</ele>
        <time>2018-11-18T13:29:05.000Z</time>
      </trkpt>
      <trkpt lat="42.6776" lon="1.64372">
        <ele>1568</ele>
        <time>2018-11-18T13:29:07.000Z</time>
      </trkpt>
      <trkpt lat="42.6776" lon="1.64372">
        <ele>1568</ele>
        <time>2018-11-18T13:29:09.000Z</time>
      </trkpt>
      <trkpt lat="42.6776" lon="1.64371">
        <ele>1568</ele>
        <time>2018-11-18T13:29:11.000Z</time>
      </trkpt>
      <trkpt lat="42.6776" lon="1.64371">
        <ele>1568</ele>
        <time>2018-11-18T13:29:13.000Z</time>
      </trkpt>
      <trkpt lat="42.6776" lon="1.64371">
        <ele>1568</ele>
        <time>2018-11-18T13:29:15.000Z</time>
      </trkpt>
      <trkpt lat="42.6776" lon="1.6437">
        <ele>1568</ele>
        <time>2018-11-18T13:29:17.000Z</time>
      </trkpt>
      <trkpt lat="42.6776" lon="1.6437">
        <ele>1568</ele>
        <time>2018-11-18T13:29:19.000Z</time>
      </trkpt>
      <trkpt lat="42.67759" lon="1.6437">
        <ele>1568</ele>
        <time>2018-11-18T13:29:21.000Z</time>
      </trkpt>
      <trkpt lat="42.67759" lon="1.64369">
        <ele>1568</ele>
        <time>2018-11-18T13:29:23.000Z</time>
      </trkpt>
      <trkpt lat="42.67759" lon="1.64369">
        <ele>1568</ele>
        <time>2018-11-18T13:29:25.000Z</time>
      </trkpt>
      <trkpt lat="42.67759" lon="1.64369">
        <ele>1568</ele>
        <time>2018-11-18T13:29:27.000Z</time>
      </trkpt>
      <trkpt lat="42.67758" lon="1.64368">
        <ele>1568</ele>
        <time>2018-11-18T13:29:29.000Z</time>
      </trkpt>
      <trkpt lat="42.67758" lon="1.64368">
        <ele>1568</ele>
        <time>2018-11-18T13:29:31.000Z</time>
      </trkpt>
      <trkpt lat="42.67758" lon="1.64367">
        <ele>1568</ele>
        <time>2018-11-18T13:29:33.000Z</time>
      </trkpt>
      <trkpt lat="42.67758" lon="1.64367">
        <ele>1568</ele>
        <time>2018-11-18T13:29:35.000Z</time>
      </trkpt>
      <trkpt lat="42.67757" lon="1.64367">
        <ele>1568</ele>
        <time>2018-11-18T13:29:37.000Z</time>
      </trkpt>
      <trkpt lat="42.67757" lon="1.64367">
        <ele>1568</ele>
        <time>2018-11-18T13:29:39.000Z</time>
      </trkpt>
      <trkpt lat="42.67757" lon="1.64367">
        <ele>1568</ele>
        <time>2018-11-18T13:29:41.000Z</time>
      </trkpt>
      <trkpt lat="42.67757" lon="1.64368">
        <ele>1568</ele>
        <time>2018-11-18T13:29:43.000Z</time>
      </trkpt>
      <trkpt lat="42.67756" lon="1.64368">
        <ele>1568</ele>
        <time>2018-11-18T13:29:45.000Z</time>
      </trkpt>
      <trkpt lat="42.67757" lon="1.64368">
        <ele>1568</ele>
        <time>2018-11-18T13:29:47.000Z</time>
      </trkpt>
      <trkpt lat="42.67757" lon="1.64368">
        <ele>1568</ele>
        <time>2018-11-18T13:29:49.000Z</time>
      </trkpt>
      <trkpt lat="42.67757" lon="1.64368">
        <ele>1568</ele>
        <time>2018-11-18T13:29:51.000Z</time>
      </trkpt>
      <trkpt lat="42.67758" lon="1.64368">
        <ele>1568</ele>
        <time>2018-11-18T13:29:53.000Z</time>
      </trkpt>
      <trkpt lat="42.67758" lon="1.64369">
        <ele>1568</ele>
        <time>2018-11-18T13:29:55.000Z</time>
      </trkpt>
      <trkpt lat="42.67759" lon="1.64369">
        <ele>1568</ele>
        <time>2018-11-18T13:29:57.000Z</time>
      </trkpt>
      <trkpt lat="42.67759" lon="1.6437">
        <ele>1568</ele>
        <time>2018-11-18T13:29:59.000Z</time>
      </trkpt>
      <trkpt lat="42.67759" lon="1.6437">
        <ele>1568</ele>
        <time>2018-11-18T13:30:01.000Z</time>
      </trkpt>
      <trkpt lat="42.6776" lon="1.6437">
        <ele>1568</ele>
        <time>2018-11-18T13:30:03.000Z</time>
      </trkpt>
      <trkpt lat="42.6776" lon="1.64371">
        <ele>1568</ele>
        <time>2018-11-18T13:30:05.000Z</time>
      </trkpt>
      <trkpt lat="42.6776" lon="1.6437">
        <ele>1568</ele>
        <time>2018-11-18T13:30:07.000Z</time>
      </trkpt>
      <trkpt lat="42.6776" lon="1.6437">
        <ele>1568</ele>
        <time>2018-11-18T13:30:09.000Z</time>
      </trkpt>
      <trkpt lat="42.6776" lon="1.6437">
        <ele>1568</ele>
        <time>2018-11-18T13:30:11.000Z</time>
      </trkpt>
      <trkpt lat="42.6776" lon="1.6437">
        <ele>1568</ele>
        <time>2018-11-18T13:30:13.000Z</time>
      </trkpt>
      <trkpt lat="42.6776" lon="1.6437">
        <ele>1568</ele>
        <time>2018-11-18T13:30:15.000Z</time>
      </trkpt>
      <trkpt lat="42.6776" lon="1.6437">
        <ele>1568</ele>
        <time>2018-11-18T13:30:17.000Z</time>
      </trkpt>
      <trkpt lat="42.6776" lon="1.6437">
        <ele>1568</ele>
        <time>2018-11-18T13:30:19.000Z</time>
      </trkpt>
      <trkpt lat="42.67759" lon="1.64369">
        <ele>1568</ele>
        <time>2018-11-18T13:30:21.000Z</time>
      </trkpt>
      <trkpt lat="42.67759" lon="1.64369">
        <ele>1568</ele>
        <time>2018-11-18T13:30:23.000Z</time>
      </trkpt>
      <trkpt lat="42.67759" lon="1.64369">
        <ele>1568</ele>
        <time>2018-11-18T13:30:25.000Z</time>
      </trkpt>
      <trkpt lat="42.67759" lon="1.64369">
        <ele>1568</ele>
        <time>2018-11-18T13:30:27.000Z</time>
      </trkpt>
      <trkpt lat="42.67759" lon="1.64368">
        <ele>1568</ele>
        <time>2018-11-18T13:30:29.000Z</time>
      </trkpt>
      <trkpt lat="42.67759" lon="1.64369">
        <ele>1568</ele>
        <time>2018-11-18T13:30:31.000Z</time>
      </trkpt>
      <trkpt lat="42.67758" lon="1.64369">
        <ele>1568</ele>
        <time>2018-11-18T13:30:33.000Z</time>
      </trkpt>
      <trkpt lat="42.67759" lon="1.64369">
        <ele>1568</ele>
        <time>2018-11-18T13:30:35.000Z</time>
      </trkpt>
      <trkpt lat="42.67759" lon="1.64369">
        <ele>1568</ele>
        <time>2018-11-18T13:30:37.000Z</time>
      </trkpt>
      <trkpt lat="42.67759" lon="1.64369">
        <ele>1568</ele>
        <time>2018-11-18T13:30:39.000Z</time>
      </trkpt>
      <trkpt lat="42.67758" lon="1.64368">
        <ele>1568</ele>
        <time>2018-11-18T13:30:41.000Z</time>
      </trkpt>
      <trkpt lat="42.67758" lon="1.64368">
        <ele>1568</ele>
        <time>2018-11-18T13:30:43.000Z</time>
      </trkpt>
      <trkpt lat="42.67758" lon="1.64368">
        <ele>1568</ele>
        <time>2018-11-18T13:30:45.000Z</time>
      </trkpt>
      <trkpt lat="42.67758" lon="1.64368">
        <ele>1568</ele>
        <time>2018-11-18T13:30:47.000Z</time>
      </trkpt>
      <trkpt lat="42.67758" lon="1.64368">
        <ele>1568</ele>
        <time>2018-11-18T13:30:49.000Z</time>
      </trkpt>
      <trkpt lat="42.67758" lon="1.64367">
        <ele>1568</ele>
        <time>2018-11-18T13:30:51.000Z</time>
      </trkpt>
      <trkpt lat="42.67758" lon="1.64367">
        <ele>1568</ele>
        <time>2018-11-18T13:30:53.000Z</time>
      </trkpt>
      <trkpt lat="42.67758" lon="1.64367">
        <ele>1568</ele>
        <time>2018-11-18T13:30:55.000Z</time>
      </trkpt>
      <trkpt lat="42.67758" lon="1.64366">
        <ele>1568</ele>
        <time>2018-11-18T13:30:57.000Z</time>
      </trkpt>
      <trkpt lat="42.67758" lon="1.64366">
        <ele>1568</ele>
        <time>2018-11-18T13:30:59.000Z</time>
      </trkpt>
      <trkpt lat="42.67758" lon="1.64366">
        <ele>1568</ele>
        <time>2018-11-18T13:31:01.000Z</time>
      </trkpt>
      <trkpt lat="42.67758" lon="1.64366">
        <ele>1568</ele>
        <time>2018-11-18T13:31:03.000Z</time>
      </trkpt>
      <trkpt lat="42.67758" lon="1.64366">
        <ele>1568</ele>
        <time>2018-11-18T13:31:05.000Z</time>
      </trkpt>
      <trkpt lat="42.67758" lon="1.64366">
        <ele>1568</ele>
        <time>2018-11-18T13:31:07.000Z</time>
      </trkpt>
      <trkpt lat="42.67758" lon="1.64366">
        <ele>1568</ele>
        <time>2018-11-18T13:31:09.000Z</time>
      </trkpt>
      <trkpt lat="42.67759" lon="1.64367">
        <ele>1568</ele>
        <time>2018-11-18T13:31:11.000Z</time>
      </trkpt>
      <trkpt lat="42.67759" lon="1.64367">
        <ele>1568</ele>
        <time>2018-11-18T13:31:13.000Z</time>
      </trkpt>
      <trkpt lat="42.67759" lon="1.64367">
        <ele>1568</ele>
        <time>2018-11-18T13:31:15.000Z</time>
      </trkpt>
      <trkpt lat="42.67758" lon="1.64368">
        <ele>1568</ele>
        <time>2018-11-18T13:31:17.000Z</time>
      </trkpt>
      <trkpt lat="42.67759" lon="1.64368">
        <ele>1568</ele>
        <time>2018-11-18T13:31:19.000Z</time>
      </trkpt>
      <trkpt lat="42.67759" lon="1.64368">
        <ele>1568</ele>
        <time>2018-11-18T13:31:21.000Z</time>
      </trkpt>
      <trkpt lat="42.67759" lon="1.64369">
        <ele>1568</ele>
        <time>2018-11-18T13:31:23.000Z</time>
      </trkpt>
      <trkpt lat="42.67759" lon="1.64369">
        <ele>1568</ele>
        <time>2018-11-18T13:31:25.000Z</time>
      </trkpt>
      <trkpt lat="42.67759" lon="1.64369">
        <ele>1568</ele>
        <time>2018-11-18T13:31:27.000Z</time>
      </trkpt>
      <trkpt lat="42.67759" lon="1.6437">
        <ele>1568</ele>
        <time>2018-11-18T13:31:29.000Z</time>
      </trkpt>
      <trkpt lat="42.67758" lon="1.6437">
        <ele>1568</ele>
        <time>2018-11-18T13:31:31.000Z</time>
      </trkpt>
      <trkpt lat="42.67758" lon="1.6437">
        <ele>1568</ele>
        <time>2018-11-18T13:31:33.000Z</time>
      </trkpt>
      <trkpt lat="42.67758" lon="1.6437">
        <ele>1568</ele>
        <time>2018-11-18T13:31:35.000Z</time>
      </trkpt>
      <trkpt lat="42.67758" lon="1.6437">
        <ele>1568</ele>
        <time>2018-11-18T13:31:37.000Z</time>
      </trkpt>
      <trkpt lat="42.67758" lon="1.6437">
        <ele>1568</ele>
        <time>2018-11-18T13:31:39.000Z</time>
      </trkpt>
      <trkpt lat="42.67758" lon="1.64371">
        <ele>1568</ele>
        <time>2018-11-18T13:31:41.000Z</time>
      </trkpt>
      <trkpt lat="42.67758" lon="1.6437">
        <ele>1568</ele>
        <time>2018-11-18T13:31:43.000Z</time>
      </trkpt>
      <trkpt lat="42.67758" lon="1.64369">
        <ele>1568</ele>
        <time>2018-11-18T13:31:45.000Z</time>
      </trkpt>
      <trkpt lat="42.67758" lon="1.64369">
        <ele>1568</ele>
        <time>2018-11-18T13:31:47.000Z</time>
      </trkpt>
      <trkpt lat="42.67758" lon="1.64369">
        <ele>1568</ele>
        <time>2018-11-18T13:31:49.000Z</time>
      </trkpt>
      <trkpt lat="42.67758" lon="1.64369">
        <ele>1568</ele>
        <time>2018-11-18T13:31:51.000Z</time>
      </trkpt>
      <trkpt lat="42.67759" lon="1.6437">
        <ele>1568</ele>
        <time>2018-11-18T13:31:53.000Z</time>
      </trkpt>
      <trkpt lat="42.67759" lon="1.6437">
        <ele>1568</ele>
        <time>2018-11-18T13:31:55.000Z</time>
      </trkpt>
      <trkpt lat="42.67759" lon="1.6437">
        <ele>1568</ele>
        <time>2018-11-18T13:31:57.000Z</time>
      </trkpt>
      <trkpt lat="42.67759" lon="1.64371">
        <ele>1568</ele>
        <time>2018-11-18T13:31:59.000Z</time>
      </trkpt>
      <trkpt lat="42.67759" lon="1.64371">
        <ele>1568</ele>
        <time>2018-11-18T13:32:01.000Z</time>
      </trkpt>
      <trkpt lat="42.67759" lon="1.64371">
        <ele>1568</ele>
        <time>2018-11-18T13:32:03.000Z</time>
      </trkpt>
      <trkpt lat="42.67759" lon="1.6437">
        <ele>1568</ele>
        <time>2018-11-18T13:32:05.000Z</time>
      </trkpt>
      <trkpt lat="42.67759" lon="1.64371">
        <ele>1568</ele>
        <time>2018-11-18T13:32:07.000Z</time>
      </trkpt>
      <trkpt lat="42.67759" lon="1.64371">
        <ele>1568</ele>
        <time>2018-11-18T13:32:09.000Z</time>
      </trkpt>
      <trkpt lat="42.67759" lon="1.64371">
        <ele>1568</ele>
        <time>2018-11-18T13:32:11.000Z</time>
      </trkpt>
      <trkpt lat="42.67759" lon="1.6437">
        <ele>1568</ele>
        <time>2018-11-18T13:32:13.000Z</time>
      </trkpt>
      <trkpt lat="42.6776" lon="1.6437">
        <ele>1568</ele>
        <time>2018-11-18T13:32:15.000Z</time>
      </trkpt>
      <trkpt lat="42.6776" lon="1.6437">
        <ele>1568</ele>
        <time>2018-11-18T13:32:17.000Z</time>
      </trkpt>
      <trkpt lat="42.6776" lon="1.64371">
        <ele>1568</ele>
        <time>2018-11-18T13:32:19.000Z</time>
      </trkpt>
      <trkpt lat="42.67759" lon="1.64371">
        <ele>1568</ele>
        <time>2018-11-18T13:32:21.000Z</time>
      </trkpt>
      <trkpt lat="42.67759" lon="1.64372">
        <ele>1568</ele>
        <time>2018-11-18T13:32:23.000Z</time>
      </trkpt>
      <trkpt lat="42.67759" lon="1.64372">
        <ele>1568</ele>
        <time>2018-11-18T13:32:25.000Z</time>
      </trkpt>
      <trkpt lat="42.67759" lon="1.64373">
        <ele>1568</ele>
        <time>2018-11-18T13:32:27.000Z</time>
      </trkpt>
      <trkpt lat="42.67759" lon="1.64373">
        <ele>1568</ele>
        <time>2018-11-18T13:32:29.000Z</time>
      </trkpt>
      <trkpt lat="42.67759" lon="1.64373">
        <ele>1568</ele>
        <time>2018-11-18T13:32:31.000Z</time>
      </trkpt>
      <trkpt lat="42.6776" lon="1.64373">
        <ele>1568</ele>
        <time>2018-11-18T13:32:33.000Z</time>
      </trkpt>
      <trkpt lat="42.6776" lon="1.64372">
        <ele>1568</ele>
        <time>2018-11-18T13:32:35.000Z</time>
      </trkpt>
      <trkpt lat="42.6776" lon="1.64372">
        <ele>1568</ele>
        <time>2018-11-18T13:32:37.000Z</time>
      </trkpt>
      <trkpt lat="42.67759" lon="1.64372">
        <ele>1568</ele>
        <time>2018-11-18T13:32:39.000Z</time>
      </trkpt>
      <trkpt lat="42.67759" lon="1.64372">
        <ele>1568</ele>
        <time>2018-11-18T13:32:41.000Z</time>
      </trkpt>
      <trkpt lat="42.67759" lon="1.64372">
        <ele>1568</ele>
        <time>2018-11-18T13:32:43.000Z</time>
      </trkpt>
      <trkpt lat="42.67759" lon="1.64372">
        <ele>1568</ele>
        <time>2018-11-18T13:32:45.000Z</time>
      </trkpt>
      <trkpt lat="42.67759" lon="1.64371">
        <ele>1568</ele>
        <time>2018-11-18T13:32:47.000Z</time>
      </trkpt>
      <trkpt lat="42.67759" lon="1.64371">
        <ele>1568</ele>
        <time>2018-11-18T13:32:49.000Z</time>
      </trkpt>
      <trkpt lat="42.67759" lon="1.64371">
        <ele>1568</ele>
        <time>2018-11-18T13:32:51.000Z</time>
      </trkpt>
      <trkpt lat="42.67759" lon="1.6437">
        <ele>1568</ele>
        <time>2018-11-18T13:32:53.000Z</time>
      </trkpt>
      <trkpt lat="42.67759" lon="1.6437">
        <ele>1568</ele>
        <time>2018-11-18T13:32:55.000Z</time>
      </trkpt>
      <trkpt lat="42.67759" lon="1.6437">
        <ele>1568</ele>
        <time>2018-11-18T13:32:57.000Z</time>
      </trkpt>
      <trkpt lat="42.67759" lon="1.64371">
        <ele>1568</ele>
        <time>2018-11-18T13:32:59.000Z</time>
      </trkpt>
      <trkpt lat="42.67759" lon="1.6437">
        <ele>1568</ele>
        <time>2018-11-18T13:33:01.000Z</time>
      </trkpt>
      <trkpt lat="42.67759" lon="1.6437">
        <ele>1568</ele>
        <time>2018-11-18T13:33:03.000Z</time>
      </trkpt>
      <trkpt lat="42.67759" lon="1.64371">
        <ele>1568</ele>
        <time>2018-11-18T13:33:05.000Z</time>
      </trkpt>
      <trkpt lat="42.67759" lon="1.64371">
        <ele>1568</ele>
        <time>2018-11-18T13:33:07.000Z</time>
      </trkpt>
      <trkpt lat="42.67759" lon="1.64371">
        <ele>1568</ele>
        <time>2018-11-18T13:33:09.000Z</time>
      </trkpt>
      <trkpt lat="42.67759" lon="1.64371">
        <ele>1568</ele>
        <time>2018-11-18T13:33:11.000Z</time>
      </trkpt>
      <trkpt lat="42.67759" lon="1.64372">
        <ele>1568</ele>
        <time>2018-11-18T13:33:13.000Z</time>
      </trkpt>
      <trkpt lat="42.67759" lon="1.64372">
        <ele>1568</ele>
        <time>2018-11-18T13:33:15.000Z</time>
      </trkpt>
      <trkpt lat="42.6776" lon="1.64372">
        <ele>1568</ele>
        <time>2018-11-18T13:33:17.000Z</time>
      </trkpt>
      <trkpt lat="42.67761" lon="1.64375">
        <ele>1568</ele>
        <time>2018-11-18T13:33:19.000Z</time>
      </trkpt>
      <trkpt lat="42.67761" lon="1.64375">
        <ele>1568</ele>
        <time>2018-11-18T13:33:21.000Z</time>
      </trkpt>
      <trkpt lat="42.67761" lon="1.64375">
        <ele>1568</ele>
        <time>2018-11-18T13:33:23.000Z</time>
      </trkpt>
      <trkpt lat="42.6776" lon="1.64375">
        <ele>1568</ele>
        <time>2018-11-18T13:33:25.000Z</time>
      </trkpt>
      <trkpt lat="42.6776" lon="1.64375">
        <ele>1568</ele>
        <time>2018-11-18T13:33:27.000Z</time>
      </trkpt>
      <trkpt lat="42.6776" lon="1.64374">
        <ele>1568</ele>
        <time>2018-11-18T13:33:29.000Z</time>
      </trkpt>
      <trkpt lat="42.6776" lon="1.64374">
        <ele>1568</ele>
        <time>2018-11-18T13:33:31.000Z</time>
      </trkpt>
      <trkpt lat="42.6776" lon="1.64374">
        <ele>1568</ele>
        <time>2018-11-18T13:33:33.000Z</time>
      </trkpt>
      <trkpt lat="42.67759" lon="1.64374">
        <ele>1568</ele>
        <time>2018-11-18T13:33:35.000Z</time>
      </trkpt>
      <trkpt lat="42.67759" lon="1.64374">
        <ele>1568</ele>
        <time>2018-11-18T13:33:37.000Z</time>
      </trkpt>
      <trkpt lat="42.67759" lon="1.64374">
        <ele>1568</ele>
        <time>2018-11-18T13:33:39.000Z</time>
      </trkpt>
      <trkpt lat="42.6776" lon="1.64375">
        <ele>1568</ele>
        <time>2018-11-18T13:33:41.000Z</time>
      </trkpt>
      <trkpt lat="42.67759" lon="1.64375">
        <ele>1568</ele>
        <time>2018-11-18T13:33:43.000Z</time>
      </trkpt>
      <trkpt lat="42.67759" lon="1.64375">
        <ele>1568</ele>
        <time>2018-11-18T13:33:45.000Z</time>
      </trkpt>
      <trkpt lat="42.67759" lon="1.64375">
        <ele>1568</ele>
        <time>2018-11-18T13:33:47.000Z</time>
      </trkpt>
      <trkpt lat="42.67759" lon="1.64375">
        <ele>1568</ele>
        <time>2018-11-18T13:33:49.000Z</time>
      </trkpt>
      <trkpt lat="42.67759" lon="1.64375">
        <ele>1568</ele>
        <time>2018-11-18T13:33:51.000Z</time>
      </trkpt>
      <trkpt lat="42.67759" lon="1.64374">
        <ele>1568</ele>
        <time>2018-11-18T13:33:53.000Z</time>
      </trkpt>
      <trkpt lat="42.67759" lon="1.64374">
        <ele>1568</ele>
        <time>2018-11-18T13:33:55.000Z</time>
      </trkpt>
      <trkpt lat="42.67759" lon="1.64374">
        <ele>1568</ele>
        <time>2018-11-18T13:33:57.000Z</time>
      </trkpt>
      <trkpt lat="42.67759" lon="1.64374">
        <ele>1568</ele>
        <time>2018-11-18T13:33:59.000Z</time>
      </trkpt>
      <trkpt lat="42.67759" lon="1.64374">
        <ele>1568</ele>
        <time>2018-11-18T13:34:01.000Z</time>
      </trkpt>
      <trkpt lat="42.67759" lon="1.64375">
        <ele>1568</ele>
        <time>2018-11-18T13:34:03.000Z</time>
      </trkpt>
      <trkpt lat="42.6776" lon="1.64377">
        <ele>1568</ele>
        <time>2018-11-18T13:34:05.000Z</time>
      </trkpt>
      <trkpt lat="42.67759" lon="1.64378">
        <ele>1568</ele>
        <time>2018-11-18T13:34:07.000Z</time>
      </trkpt>
      <trkpt lat="42.67759" lon="1.64379">
        <ele>1568</ele>
        <time>2018-11-18T13:34:09.000Z</time>
      </trkpt>
      <trkpt lat="42.67758" lon="1.64382">
        <ele>1568</ele>
        <time>2018-11-18T13:34:11.000Z</time>
      </trkpt>
      <trkpt lat="42.67757" lon="1.64385">
        <ele>1569</ele>
        <time>2018-11-18T13:34:13.000Z</time>
      </trkpt>
      <trkpt lat="42.67756" lon="1.64388">
        <ele>1569</ele>
        <time>2018-11-18T13:34:15.000Z</time>
      </trkpt>
      <trkpt lat="42.67755" lon="1.64391">
        <ele>1569</ele>
        <time>2018-11-18T13:34:17.000Z</time>
      </trkpt>
      <trkpt lat="42.67755" lon="1.64394">
        <ele>1569</ele>
        <time>2018-11-18T13:34:19.000Z</time>
      </trkpt>
      <trkpt lat="42.67754" lon="1.64397">
        <ele>1570</ele>
        <time>2018-11-18T13:34:21.000Z</time>
      </trkpt>
      <trkpt lat="42.67754" lon="1.644">
        <ele>1570</ele>
        <time>2018-11-18T13:34:23.000Z</time>
      </trkpt>
      <trkpt lat="42.67755" lon="1.64402">
        <ele>1570</ele>
        <time>2018-11-18T13:34:25.000Z</time>
      </trkpt>
      <trkpt lat="42.67755" lon="1.64405">
        <ele>1570</ele>
        <time>2018-11-18T13:34:27.000Z</time>
      </trkpt>
      <trkpt lat="42.67755" lon="1.64408">
        <ele>1571</ele>
        <time>2018-11-18T13:34:29.000Z</time>
      </trkpt>
      <trkpt lat="42.67755" lon="1.6441">
        <ele>1571</ele>
        <time>2018-11-18T13:34:31.000Z</time>
      </trkpt>
      <trkpt lat="42.67756" lon="1.64411">
        <ele>1571</ele>
        <time>2018-11-18T13:34:33.000Z</time>
      </trkpt>
      <trkpt lat="42.67756" lon="1.64412">
        <ele>1572</ele>
        <time>2018-11-18T13:34:35.000Z</time>
      </trkpt>
      <trkpt lat="42.67757" lon="1.64414">
        <ele>1572</ele>
        <time>2018-11-18T13:34:37.000Z</time>
      </trkpt>
      <trkpt lat="42.67758" lon="1.64416">
        <ele>1572</ele>
        <time>2018-11-18T13:34:39.000Z</time>
      </trkpt>
      <trkpt lat="42.67759" lon="1.64418">
        <ele>1572</ele>
        <time>2018-11-18T13:34:41.000Z</time>
      </trkpt>
      <trkpt lat="42.67761" lon="1.64421">
        <ele>1572</ele>
        <time>2018-11-18T13:34:43.000Z</time>
      </trkpt>
      <trkpt lat="42.67762" lon="1.64423">
        <ele>1572</ele>
        <time>2018-11-18T13:34:45.000Z</time>
      </trkpt>
      <trkpt lat="42.67764" lon="1.64424">
        <ele>1572</ele>
        <time>2018-11-18T13:34:47.000Z</time>
      </trkpt>
      <trkpt lat="42.67765" lon="1.64427">
        <ele>1572</ele>
        <time>2018-11-18T13:34:49.000Z</time>
      </trkpt>
      <trkpt lat="42.67767" lon="1.64429">
        <ele>1572</ele>
        <time>2018-11-18T13:34:51.000Z</time>
      </trkpt>
      <trkpt lat="42.67768" lon="1.64431">
        <ele>1572</ele>
        <time>2018-11-18T13:34:53.000Z</time>
      </trkpt>
      <trkpt lat="42.6777" lon="1.64433">
        <ele>1572</ele>
        <time>2018-11-18T13:34:55.000Z</time>
      </trkpt>
      <trkpt lat="42.67771" lon="1.64435">
        <ele>1573</ele>
        <time>2018-11-18T13:34:57.000Z</time>
      </trkpt>
      <trkpt lat="42.67773" lon="1.64436">
        <ele>1572</ele>
        <time>2018-11-18T13:34:59.000Z</time>
      </trkpt>
      <trkpt lat="42.67774" lon="1.64439">
        <ele>1573</ele>
        <time>2018-11-18T13:35:01.000Z</time>
      </trkpt>
      <trkpt lat="42.67775" lon="1.6444">
        <ele>1573</ele>
        <time>2018-11-18T13:35:03.000Z</time>
      </trkpt>
      <trkpt lat="42.67777" lon="1.64442">
        <ele>1573</ele>
        <time>2018-11-18T13:35:05.000Z</time>
      </trkpt>
      <trkpt lat="42.67779" lon="1.64443">
        <ele>1573</ele>
        <time>2018-11-18T13:35:07.000Z</time>
      </trkpt>
      <trkpt lat="42.6778" lon="1.64445">
        <ele>1573</ele>
        <time>2018-11-18T13:35:09.000Z</time>
      </trkpt>
      <trkpt lat="42.67782" lon="1.64447">
        <ele>1572</ele>
        <time>2018-11-18T13:35:11.000Z</time>
      </trkpt>
      <trkpt lat="42.67783" lon="1.64448">
        <ele>1573</ele>
        <time>2018-11-18T13:35:13.000Z</time>
      </trkpt>
      <trkpt lat="42.67785" lon="1.6445">
        <ele>1572</ele>
        <time>2018-11-18T13:35:15.000Z</time>
      </trkpt>
      <trkpt lat="42.67786" lon="1.64451">
        <ele>1572</ele>
        <time>2018-11-18T13:35:17.000Z</time>
      </trkpt>
      <trkpt lat="42.67788" lon="1.64453">
        <ele>1572</ele>
        <time>2018-11-18T13:35:19.000Z</time>
      </trkpt>
      <trkpt lat="42.67789" lon="1.64455">
        <ele>1572</ele>
        <time>2018-11-18T13:35:21.000Z</time>
      </trkpt>
      <trkpt lat="42.67791" lon="1.64456">
        <ele>1572</ele>
        <time>2018-11-18T13:35:23.000Z</time>
      </trkpt>
      <trkpt lat="42.67792" lon="1.64458">
        <ele>1572</ele>
        <time>2018-11-18T13:35:25.000Z</time>
      </trkpt>
      <trkpt lat="42.67793" lon="1.6446">
        <ele>1572</ele>
        <time>2018-11-18T13:35:27.000Z</time>
      </trkpt>
      <trkpt lat="42.67795" lon="1.64461">
        <ele>1572</ele>
        <time>2018-11-18T13:35:29.000Z</time>
      </trkpt>
      <trkpt lat="42.67796" lon="1.64463">
        <ele>1572</ele>
        <time>2018-11-18T13:35:31.000Z</time>
      </trkpt>
      <trkpt lat="42.67798" lon="1.64465">
        <ele>1572</ele>
        <time>2018-11-18T13:35:33.000Z</time>
      </trkpt>
      <trkpt lat="42.67799" lon="1.64467">
        <ele>1573</ele>
        <time>2018-11-18T13:35:35.000Z</time>
      </trkpt>
      <trkpt lat="42.678" lon="1.64469">
        <ele>1573</ele>
        <time>2018-11-18T13:35:37.000Z</time>
      </trkpt>
      <trkpt lat="42.67802" lon="1.64471">
        <ele>1573</ele>
        <time>2018-11-18T13:35:39.000Z</time>
      </trkpt>
      <trkpt lat="42.67804" lon="1.64473">
        <ele>1573</ele>
        <time>2018-11-18T13:35:41.000Z</time>
      </trkpt>
      <trkpt lat="42.67805" lon="1.64475">
        <ele>1573</ele>
        <time>2018-11-18T13:35:43.000Z</time>
      </trkpt>
      <trkpt lat="42.67807" lon="1.64476">
        <ele>1573</ele>
        <time>2018-11-18T13:35:45.000Z</time>
      </trkpt>
      <trkpt lat="42.67809" lon="1.64477">
        <ele>1572</ele>
        <time>2018-11-18T13:35:47.000Z</time>
      </trkpt>
      <trkpt lat="42.6781" lon="1.64479">
        <ele>1572</ele>
        <time>2018-11-18T13:35:49.000Z</time>
      </trkpt>
      <trkpt lat="42.67812" lon="1.6448">
        <ele>1572</ele>
        <time>2018-11-18T13:35:51.000Z</time>
      </trkpt>
      <trkpt lat="42.67814" lon="1.64481">
        <ele>1572</ele>
        <time>2018-11-18T13:35:53.000Z</time>
      </trkpt>
      <trkpt lat="42.67815" lon="1.64482">
        <ele>1572</ele>
        <time>2018-11-18T13:35:55.000Z</time>
      </trkpt>
      <trkpt lat="42.67817" lon="1.64484">
        <ele>1572</ele>
        <time>2018-11-18T13:35:57.000Z</time>
      </trkpt>
      <trkpt lat="42.67818" lon="1.64485">
        <ele>1572</ele>
        <time>2018-11-18T13:35:59.000Z</time>
      </trkpt>
      <trkpt lat="42.6782" lon="1.64486">
        <ele>1571</ele>
        <time>2018-11-18T13:36:01.000Z</time>
      </trkpt>
      <trkpt lat="42.67823" lon="1.64487">
        <ele>1571</ele>
        <time>2018-11-18T13:36:03.000Z</time>
      </trkpt>
      <trkpt lat="42.67825" lon="1.64489">
        <ele>1571</ele>
        <time>2018-11-18T13:36:05.000Z</time>
      </trkpt>
      <trkpt lat="42.67827" lon="1.6449">
        <ele>1571</ele>
        <time>2018-11-18T13:36:07.000Z</time>
      </trkpt>
      <trkpt lat="42.67829" lon="1.64491">
        <ele>1570</ele>
        <time>2018-11-18T13:36:09.000Z</time>
      </trkpt>
      <trkpt lat="42.67831" lon="1.64492">
        <ele>1570</ele>
        <time>2018-11-18T13:36:11.000Z</time>
      </trkpt>
      <trkpt lat="42.67833" lon="1.64493">
        <ele>1570</ele>
        <time>2018-11-18T13:36:13.000Z</time>
      </trkpt>
      <trkpt lat="42.67835" lon="1.64494">
        <ele>1569</ele>
        <time>2018-11-18T13:36:15.000Z</time>
      </trkpt>
      <trkpt lat="42.67837" lon="1.64494">
        <ele>1569</ele>
        <time>2018-11-18T13:36:17.000Z</time>
      </trkpt>
      <trkpt lat="42.67839" lon="1.64495">
        <ele>1568</ele>
        <time>2018-11-18T13:36:19.000Z</time>
      </trkpt>
      <trkpt lat="42.67841" lon="1.64495">
        <ele>1568</ele>
        <time>2018-11-18T13:36:21.000Z</time>
      </trkpt>
      <trkpt lat="42.67843" lon="1.64495">
        <ele>1567</ele>
        <time>2018-11-18T13:36:23.000Z</time>
      </trkpt>
      <trkpt lat="42.67845" lon="1.64496">
        <ele>1567</ele>
        <time>2018-11-18T13:36:25.000Z</time>
      </trkpt>
      <trkpt lat="42.67846" lon="1.64498">
        <ele>1567</ele>
        <time>2018-11-18T13:36:27.000Z</time>
      </trkpt>
      <trkpt lat="42.67847" lon="1.645">
        <ele>1567</ele>
        <time>2018-11-18T13:36:29.000Z</time>
      </trkpt>
      <trkpt lat="42.67849" lon="1.64501">
        <ele>1567</ele>
        <time>2018-11-18T13:36:31.000Z</time>
      </trkpt>
      <trkpt lat="42.67851" lon="1.64502">
        <ele>1567</ele>
        <time>2018-11-18T13:36:33.000Z</time>
      </trkpt>
      <trkpt lat="42.67852" lon="1.64503">
        <ele>1566</ele>
        <time>2018-11-18T13:36:35.000Z</time>
      </trkpt>
      <trkpt lat="42.67854" lon="1.64504">
        <ele>1566</ele>
        <time>2018-11-18T13:36:37.000Z</time>
      </trkpt>
      <trkpt lat="42.67856" lon="1.64505">
        <ele>1566</ele>
        <time>2018-11-18T13:36:39.000Z</time>
      </trkpt>
      <trkpt lat="42.67858" lon="1.64505">
        <ele>1565</ele>
        <time>2018-11-18T13:36:41.000Z</time>
      </trkpt>
      <trkpt lat="42.67859" lon="1.64507">
        <ele>1565</ele>
        <time>2018-11-18T13:36:43.000Z</time>
      </trkpt>
      <trkpt lat="42.67861" lon="1.64508">
        <ele>1565</ele>
        <time>2018-11-18T13:36:45.000Z</time>
      </trkpt>
      <trkpt lat="42.67862" lon="1.64509">
        <ele>1565</ele>
        <time>2018-11-18T13:36:47.000Z</time>
      </trkpt>
      <trkpt lat="42.67864" lon="1.6451">
        <ele>1565</ele>
        <time>2018-11-18T13:36:49.000Z</time>
      </trkpt>
      <trkpt lat="42.67866" lon="1.64511">
        <ele>1564</ele>
        <time>2018-11-18T13:36:51.000Z</time>
      </trkpt>
      <trkpt lat="42.67868" lon="1.64511">
        <ele>1564</ele>
        <time>2018-11-18T13:36:53.000Z</time>
      </trkpt>
      <trkpt lat="42.6787" lon="1.64512">
        <ele>1564</ele>
        <time>2018-11-18T13:36:55.000Z</time>
      </trkpt>
      <trkpt lat="42.67872" lon="1.64514">
        <ele>1564</ele>
        <time>2018-11-18T13:36:57.000Z</time>
      </trkpt>
      <trkpt lat="42.67874" lon="1.64514">
        <ele>1563</ele>
        <time>2018-11-18T13:36:59.000Z</time>
      </trkpt>
      <trkpt lat="42.67876" lon="1.64516">
        <ele>1563</ele>
        <time>2018-11-18T13:37:01.000Z</time>
      </trkpt>
      <trkpt lat="42.67877" lon="1.64517">
        <ele>1563</ele>
        <time>2018-11-18T13:37:03.000Z</time>
      </trkpt>
      <trkpt lat="42.67879" lon="1.64518">
        <ele>1563</ele>
        <time>2018-11-18T13:37:05.000Z</time>
      </trkpt>
      <trkpt lat="42.67881" lon="1.64518">
        <ele>1563</ele>
        <time>2018-11-18T13:37:07.000Z</time>
      </trkpt>
      <trkpt lat="42.67882" lon="1.64519">
        <ele>1562</ele>
        <time>2018-11-18T13:37:09.000Z</time>
      </trkpt>
      <trkpt lat="42.67884" lon="1.64521">
        <ele>1562</ele>
        <time>2018-11-18T13:37:11.000Z</time>
      </trkpt>
      <trkpt lat="42.67885" lon="1.64522">
        <ele>1562</ele>
        <time>2018-11-18T13:37:13.000Z</time>
      </trkpt>
      <trkpt lat="42.67886" lon="1.64524">
        <ele>1562</ele>
        <time>2018-11-18T13:37:15.000Z</time>
      </trkpt>
      <trkpt lat="42.67888" lon="1.64526">
        <ele>1562</ele>
        <time>2018-11-18T13:37:17.000Z</time>
      </trkpt>
      <trkpt lat="42.67889" lon="1.64528">
        <ele>1562</ele>
        <time>2018-11-18T13:37:19.000Z</time>
      </trkpt>
      <trkpt lat="42.6789" lon="1.6453">
        <ele>1562</ele>
        <time>2018-11-18T13:37:21.000Z</time>
      </trkpt>
      <trkpt lat="42.67891" lon="1.64532">
        <ele>1562</ele>
        <time>2018-11-18T13:37:23.000Z</time>
      </trkpt>
      <trkpt lat="42.67892" lon="1.64534">
        <ele>1562</ele>
        <time>2018-11-18T13:37:25.000Z</time>
      </trkpt>
      <trkpt lat="42.67894" lon="1.64536">
        <ele>1562</ele>
        <time>2018-11-18T13:37:27.000Z</time>
      </trkpt>
      <trkpt lat="42.67895" lon="1.64538">
        <ele>1562</ele>
        <time>2018-11-18T13:37:29.000Z</time>
      </trkpt>
      <trkpt lat="42.67895" lon="1.6454">
        <ele>1562</ele>
        <time>2018-11-18T13:37:31.000Z</time>
      </trkpt>
      <trkpt lat="42.67896" lon="1.64542">
        <ele>1562</ele>
        <time>2018-11-18T13:37:33.000Z</time>
      </trkpt>
      <trkpt lat="42.67896" lon="1.64545">
        <ele>1563</ele>
        <time>2018-11-18T13:37:35.000Z</time>
      </trkpt>
      <trkpt lat="42.67897" lon="1.64548">
        <ele>1563</ele>
        <time>2018-11-18T13:37:37.000Z</time>
      </trkpt>
      <trkpt lat="42.67897" lon="1.64551">
        <ele>1564</ele>
        <time>2018-11-18T13:37:39.000Z</time>
      </trkpt>
      <trkpt lat="42.67898" lon="1.64553">
        <ele>1564</ele>
        <time>2018-11-18T13:37:41.000Z</time>
      </trkpt>
      <trkpt lat="42.67898" lon="1.64556">
        <ele>1565</ele>
        <time>2018-11-18T13:37:43.000Z</time>
      </trkpt>
      <trkpt lat="42.67898" lon="1.64559">
        <ele>1566</ele>
        <time>2018-11-18T13:37:45.000Z</time>
      </trkpt>
      <trkpt lat="42.67898" lon="1.64561">
        <ele>1566</ele>
        <time>2018-11-18T13:37:47.000Z</time>
      </trkpt>
      <trkpt lat="42.67899" lon="1.64564">
        <ele>1567</ele>
        <time>2018-11-18T13:37:49.000Z</time>
      </trkpt>
      <trkpt lat="42.67899" lon="1.64566">
        <ele>1567</ele>
        <time>2018-11-18T13:37:51.000Z</time>
      </trkpt>
      <trkpt lat="42.67899" lon="1.64568">
        <ele>1568</ele>
        <time>2018-11-18T13:37:53.000Z</time>
      </trkpt>
      <trkpt lat="42.679" lon="1.64571">
        <ele>1568</ele>
        <time>2018-11-18T13:37:55.000Z</time>
      </trkpt>
      <trkpt lat="42.67901" lon="1.64574">
        <ele>1568</ele>
        <time>2018-11-18T13:37:57.000Z</time>
      </trkpt>
      <trkpt lat="42.67901" lon="1.64576">
        <ele>1568</ele>
        <time>2018-11-18T13:37:59.000Z</time>
      </trkpt>
      <trkpt lat="42.67903" lon="1.64578">
        <ele>1568</ele>
        <time>2018-11-18T13:38:01.000Z</time>
      </trkpt>
      <trkpt lat="42.67904" lon="1.6458">
        <ele>1568</ele>
        <time>2018-11-18T13:38:03.000Z</time>
      </trkpt>
      <trkpt lat="42.67905" lon="1.64582">
        <ele>1568</ele>
        <time>2018-11-18T13:38:05.000Z</time>
      </trkpt>
      <trkpt lat="42.67905" lon="1.64583">
        <ele>1568</ele>
        <time>2018-11-18T13:38:07.000Z</time>
      </trkpt>
      <trkpt lat="42.67906" lon="1.64585">
        <ele>1568</ele>
        <time>2018-11-18T13:38:09.000Z</time>
      </trkpt>
      <trkpt lat="42.67908" lon="1.64586">
        <ele>1567</ele>
        <time>2018-11-18T13:38:11.000Z</time>
      </trkpt>
      <trkpt lat="42.6791" lon="1.64589">
        <ele>1567</ele>
        <time>2018-11-18T13:38:13.000Z</time>
      </trkpt>
      <trkpt lat="42.67911" lon="1.6459">
        <ele>1567</ele>
        <time>2018-11-18T13:38:15.000Z</time>
      </trkpt>
      <trkpt lat="42.67913" lon="1.64592">
        <ele>1566</ele>
        <time>2018-11-18T13:38:17.000Z</time>
      </trkpt>
      <trkpt lat="42.67915" lon="1.64594">
        <ele>1566</ele>
        <time>2018-11-18T13:38:19.000Z</time>
      </trkpt>
      <trkpt lat="42.67916" lon="1.64596">
        <ele>1566</ele>
        <time>2018-11-18T13:38:21.000Z</time>
      </trkpt>
      <trkpt lat="42.67918" lon="1.64597">
        <ele>1565</ele>
        <time>2018-11-18T13:38:23.000Z</time>
      </trkpt>
      <trkpt lat="42.67919" lon="1.64599">
        <ele>1565</ele>
        <time>2018-11-18T13:38:25.000Z</time>
      </trkpt>
      <trkpt lat="42.6792" lon="1.646">
        <ele>1565</ele>
        <time>2018-11-18T13:38:27.000Z</time>
      </trkpt>
      <trkpt lat="42.67921" lon="1.64602">
        <ele>1565</ele>
        <time>2018-11-18T13:38:29.000Z</time>
      </trkpt>
      <trkpt lat="42.67923" lon="1.64603">
        <ele>1565</ele>
        <time>2018-11-18T13:38:31.000Z</time>
      </trkpt>
      <trkpt lat="42.67925" lon="1.64604">
        <ele>1565</ele>
        <time>2018-11-18T13:38:33.000Z</time>
      </trkpt>
      <trkpt lat="42.67926" lon="1.64606">
        <ele>1565</ele>
        <time>2018-11-18T13:38:35.000Z</time>
      </trkpt>
      <trkpt lat="42.67928" lon="1.64608">
        <ele>1565</ele>
        <time>2018-11-18T13:38:37.000Z</time>
      </trkpt>
      <trkpt lat="42.67928" lon="1.6461">
        <ele>1565</ele>
        <time>2018-11-18T13:38:39.000Z</time>
      </trkpt>
      <trkpt lat="42.67929" lon="1.64612">
        <ele>1565</ele>
        <time>2018-11-18T13:38:41.000Z</time>
      </trkpt>
      <trkpt lat="42.6793" lon="1.64613">
        <ele>1565</ele>
        <time>2018-11-18T13:38:43.000Z</time>
      </trkpt>
      <trkpt lat="42.67932" lon="1.64615">
        <ele>1565</ele>
        <time>2018-11-18T13:38:45.000Z</time>
      </trkpt>
      <trkpt lat="42.67933" lon="1.64616">
        <ele>1565</ele>
        <time>2018-11-18T13:38:47.000Z</time>
      </trkpt>
      <trkpt lat="42.67935" lon="1.64618">
        <ele>1565</ele>
        <time>2018-11-18T13:38:49.000Z</time>
      </trkpt>
      <trkpt lat="42.67936" lon="1.64619">
        <ele>1565</ele>
        <time>2018-11-18T13:38:51.000Z</time>
      </trkpt>
      <trkpt lat="42.67938" lon="1.6462">
        <ele>1565</ele>
        <time>2018-11-18T13:38:53.000Z</time>
      </trkpt>
      <trkpt lat="42.67939" lon="1.64622">
        <ele>1565</ele>
        <time>2018-11-18T13:38:55.000Z</time>
      </trkpt>
      <trkpt lat="42.6794" lon="1.64624">
        <ele>1565</ele>
        <time>2018-11-18T13:38:57.000Z</time>
      </trkpt>
      <trkpt lat="42.67941" lon="1.64626">
        <ele>1565</ele>
        <time>2018-11-18T13:38:59.000Z</time>
      </trkpt>
      <trkpt lat="42.67942" lon="1.64627">
        <ele>1565</ele>
        <time>2018-11-18T13:39:01.000Z</time>
      </trkpt>
      <trkpt lat="42.67944" lon="1.64629">
        <ele>1565</ele>
        <time>2018-11-18T13:39:03.000Z</time>
      </trkpt>
      <trkpt lat="42.67946" lon="1.6463">
        <ele>1565</ele>
        <time>2018-11-18T13:39:05.000Z</time>
      </trkpt>
      <trkpt lat="42.67947" lon="1.64631">
        <ele>1565</ele>
        <time>2018-11-18T13:39:07.000Z</time>
      </trkpt>
      <trkpt lat="42.67949" lon="1.64633">
        <ele>1565</ele>
        <time>2018-11-18T13:39:09.000Z</time>
      </trkpt>
      <trkpt lat="42.6795" lon="1.64635">
        <ele>1564</ele>
        <time>2018-11-18T13:39:11.000Z</time>
      </trkpt>
      <trkpt lat="42.67952" lon="1.64636">
        <ele>1564</ele>
        <time>2018-11-18T13:39:13.000Z</time>
      </trkpt>
      <trkpt lat="42.67953" lon="1.64638">
        <ele>1564</ele>
        <time>2018-11-18T13:39:15.000Z</time>
      </trkpt>
      <trkpt lat="42.67954" lon="1.6464">
        <ele>1565</ele>
        <time>2018-11-18T13:39:17.000Z</time>
      </trkpt>
      <trkpt lat="42.67955" lon="1.64642">
        <ele>1565</ele>
        <time>2018-11-18T13:39:19.000Z</time>
      </trkpt>
      <trkpt lat="42.67956" lon="1.64644">
        <ele>1565</ele>
        <time>2018-11-18T13:39:21.000Z</time>
      </trkpt>
      <trkpt lat="42.67957" lon="1.64646">
        <ele>1565</ele>
        <time>2018-11-18T13:39:23.000Z</time>
      </trkpt>
      <trkpt lat="42.67958" lon="1.64648">
        <ele>1565</ele>
        <time>2018-11-18T13:39:25.000Z</time>
      </trkpt>
      <trkpt lat="42.67959" lon="1.64649">
        <ele>1565</ele>
        <time>2018-11-18T13:39:27.000Z</time>
      </trkpt>
      <trkpt lat="42.67959" lon="1.64652">
        <ele>1565</ele>
        <time>2018-11-18T13:39:29.000Z</time>
      </trkpt>
      <trkpt lat="42.67961" lon="1.64654">
        <ele>1565</ele>
        <time>2018-11-18T13:39:31.000Z</time>
      </trkpt>
      <trkpt lat="42.67962" lon="1.64655">
        <ele>1565</ele>
        <time>2018-11-18T13:39:33.000Z</time>
      </trkpt>
      <trkpt lat="42.67963" lon="1.64657">
        <ele>1565</ele>
        <time>2018-11-18T13:39:35.000Z</time>
      </trkpt>
      <trkpt lat="42.67964" lon="1.64659">
        <ele>1566</ele>
        <time>2018-11-18T13:39:37.000Z</time>
      </trkpt>
      <trkpt lat="42.67965" lon="1.6466">
        <ele>1566</ele>
        <time>2018-11-18T13:39:39.000Z</time>
      </trkpt>
      <trkpt lat="42.67966" lon="1.64662">
        <ele>1566</ele>
        <time>2018-11-18T13:39:41.000Z</time>
      </trkpt>
      <trkpt lat="42.67967" lon="1.64664">
        <ele>1566</ele>
        <time>2018-11-18T13:39:43.000Z</time>
      </trkpt>
      <trkpt lat="42.67969" lon="1.64665">
        <ele>1566</ele>
        <time>2018-11-18T13:39:45.000Z</time>
      </trkpt>
      <trkpt lat="42.6797" lon="1.64667">
        <ele>1566</ele>
        <time>2018-11-18T13:39:47.000Z</time>
      </trkpt>
      <trkpt lat="42.6797" lon="1.6467">
        <ele>1566</ele>
        <time>2018-11-18T13:39:49.000Z</time>
      </trkpt>
      <trkpt lat="42.67971" lon="1.64672">
        <ele>1567</ele>
        <time>2018-11-18T13:39:51.000Z</time>
      </trkpt>
      <trkpt lat="42.67971" lon="1.64673">
        <ele>1567</ele>
        <time>2018-11-18T13:39:53.000Z</time>
      </trkpt>
      <trkpt lat="42.67972" lon="1.64676">
        <ele>1567</ele>
        <time>2018-11-18T13:39:55.000Z</time>
      </trkpt>
      <trkpt lat="42.67973" lon="1.64678">
        <ele>1567</ele>
        <time>2018-11-18T13:39:57.000Z</time>
      </trkpt>
      <trkpt lat="42.67974" lon="1.6468">
        <ele>1567</ele>
        <time>2018-11-18T13:39:59.000Z</time>
      </trkpt>
      <trkpt lat="42.67975" lon="1.64682">
        <ele>1568</ele>
        <time>2018-11-18T13:40:01.000Z</time>
      </trkpt>
      <trkpt lat="42.67976" lon="1.64684">
        <ele>1568</ele>
        <time>2018-11-18T13:40:03.000Z</time>
      </trkpt>
      <trkpt lat="42.67978" lon="1.64685">
        <ele>1568</ele>
        <time>2018-11-18T13:40:05.000Z</time>
      </trkpt>
      <trkpt lat="42.67979" lon="1.64687">
        <ele>1568</ele>
        <time>2018-11-18T13:40:07.000Z</time>
      </trkpt>
      <trkpt lat="42.6798" lon="1.64688">
        <ele>1568</ele>
        <time>2018-11-18T13:40:09.000Z</time>
      </trkpt>
      <trkpt lat="42.6798" lon="1.64688">
        <ele>1568</ele>
        <time>2018-11-18T13:40:11.000Z</time>
      </trkpt>
      <trkpt lat="42.6798" lon="1.64688">
        <ele>1568</ele>
        <time>2018-11-18T13:40:13.000Z</time>
      </trkpt>
      <trkpt lat="42.6798" lon="1.64689">
        <ele>1568</ele>
        <time>2018-11-18T13:40:15.000Z</time>
      </trkpt>
      <trkpt lat="42.67981" lon="1.64689">
        <ele>1568</ele>
        <time>2018-11-18T13:40:17.000Z</time>
      </trkpt>
      <trkpt lat="42.67981" lon="1.6469">
        <ele>1568</ele>
        <time>2018-11-18T13:40:19.000Z</time>
      </trkpt>
      <trkpt lat="42.67982" lon="1.6469">
        <ele>1568</ele>
        <time>2018-11-18T13:40:21.000Z</time>
      </trkpt>
      <trkpt lat="42.67983" lon="1.64691">
        <ele>1568</ele>
        <time>2018-11-18T13:40:23.000Z</time>
      </trkpt>
      <trkpt lat="42.67985" lon="1.64692">
        <ele>1568</ele>
        <time>2018-11-18T13:40:25.000Z</time>
      </trkpt>
      <trkpt lat="42.67986" lon="1.64694">
        <ele>1568</ele>
        <time>2018-11-18T13:40:27.000Z</time>
      </trkpt>
      <trkpt lat="42.67989" lon="1.64695">
        <ele>1568</ele>
        <time>2018-11-18T13:40:29.000Z</time>
      </trkpt>
      <trkpt lat="42.6799" lon="1.64696">
        <ele>1567</ele>
        <time>2018-11-18T13:40:31.000Z</time>
      </trkpt>
      <trkpt lat="42.67992" lon="1.64697">
        <ele>1567</ele>
        <time>2018-11-18T13:40:33.000Z</time>
      </trkpt>
      <trkpt lat="42.67994" lon="1.64697">
        <ele>1567</ele>
        <time>2018-11-18T13:40:35.000Z</time>
      </trkpt>
      <trkpt lat="42.67996" lon="1.64698">
        <ele>1567</ele>
        <time>2018-11-18T13:40:37.000Z</time>
      </trkpt>
      <trkpt lat="42.67997" lon="1.64698">
        <ele>1567</ele>
        <time>2018-11-18T13:40:39.000Z</time>
      </trkpt>
      <trkpt lat="42.67999" lon="1.64699">
        <ele>1566</ele>
        <time>2018-11-18T13:40:41.000Z</time>
      </trkpt>
      <trkpt lat="42.68001" lon="1.64699">
        <ele>1566</ele>
        <time>2018-11-18T13:40:43.000Z</time>
      </trkpt>
      <trkpt lat="42.68002" lon="1.64701">
        <ele>1566</ele>
        <time>2018-11-18T13:40:45.000Z</time>
      </trkpt>
      <trkpt lat="42.68002" lon="1.64701">
        <ele>1566</ele>
        <time>2018-11-18T13:40:47.000Z</time>
      </trkpt>
      <trkpt lat="42.68002" lon="1.64702">
        <ele>1567</ele>
        <time>2018-11-18T13:40:49.000Z</time>
      </trkpt>
      <trkpt lat="42.68001" lon="1.64703">
        <ele>1567</ele>
        <time>2018-11-18T13:40:51.000Z</time>
      </trkpt>
      <trkpt lat="42.68001" lon="1.64703">
        <ele>1567</ele>
        <time>2018-11-18T13:40:53.000Z</time>
      </trkpt>
      <trkpt lat="42.68001" lon="1.64704">
        <ele>1567</ele>
        <time>2018-11-18T13:40:55.000Z</time>
      </trkpt>
      <trkpt lat="42.68001" lon="1.64704">
        <ele>1567</ele>
        <time>2018-11-18T13:40:57.000Z</time>
      </trkpt>
      <trkpt lat="42.68002" lon="1.64705">
        <ele>1567</ele>
        <time>2018-11-18T13:40:59.000Z</time>
      </trkpt>
      <trkpt lat="42.68003" lon="1.64705">
        <ele>1567</ele>
        <time>2018-11-18T13:41:01.000Z</time>
      </trkpt>
      <trkpt lat="42.68004" lon="1.64705">
        <ele>1567</ele>
        <time>2018-11-18T13:41:03.000Z</time>
      </trkpt>
      <trkpt lat="42.68004" lon="1.64705">
        <ele>1567</ele>
        <time>2018-11-18T13:41:05.000Z</time>
      </trkpt>
      <trkpt lat="42.68004" lon="1.64706">
        <ele>1567</ele>
        <time>2018-11-18T13:41:07.000Z</time>
      </trkpt>
      <trkpt lat="42.68004" lon="1.64706">
        <ele>1567</ele>
        <time>2018-11-18T13:41:09.000Z</time>
      </trkpt>
      <trkpt lat="42.68004" lon="1.64706">
        <ele>1567</ele>
        <time>2018-11-18T13:41:11.000Z</time>
      </trkpt>
      <trkpt lat="42.68004" lon="1.64706">
        <ele>1567</ele>
        <time>2018-11-18T13:41:13.000Z</time>
      </trkpt>
      <trkpt lat="42.68004" lon="1.64706">
        <ele>1567</ele>
        <time>2018-11-18T13:41:15.000Z</time>
      </trkpt>
      <trkpt lat="42.68004" lon="1.64706">
        <ele>1567</ele>
        <time>2018-11-18T13:41:17.000Z</time>
      </trkpt>
      <trkpt lat="42.68004" lon="1.64705">
        <ele>1567</ele>
        <time>2018-11-18T13:41:19.000Z</time>
      </trkpt>
      <trkpt lat="42.68004" lon="1.64705">
        <ele>1567</ele>
        <time>2018-11-18T13:41:21.000Z</time>
      </trkpt>
      <trkpt lat="42.68004" lon="1.64705">
        <ele>1567</ele>
        <time>2018-11-18T13:41:23.000Z</time>
      </trkpt>
      <trkpt lat="42.68004" lon="1.64706">
        <ele>1567</ele>
        <time>2018-11-18T13:41:25.000Z</time>
      </trkpt>
      <trkpt lat="42.68005" lon="1.64706">
        <ele>1567</ele>
        <time>2018-11-18T13:41:27.000Z</time>
      </trkpt>
      <trkpt lat="42.68005" lon="1.64706">
        <ele>1567</ele>
        <time>2018-11-18T13:41:29.000Z</time>
      </trkpt>
      <trkpt lat="42.68005" lon="1.64705">
        <ele>1567</ele>
        <time>2018-11-18T13:41:31.000Z</time>
      </trkpt>
      <trkpt lat="42.68005" lon="1.64705">
        <ele>1567</ele>
        <time>2018-11-18T13:41:33.000Z</time>
      </trkpt>
      <trkpt lat="42.68005" lon="1.64705">
        <ele>1567</ele>
        <time>2018-11-18T13:41:35.000Z</time>
      </trkpt>
      <trkpt lat="42.68005" lon="1.64705">
        <ele>1567</ele>
        <time>2018-11-18T13:41:37.000Z</time>
      </trkpt>
      <trkpt lat="42.68005" lon="1.64704">
        <ele>1566</ele>
        <time>2018-11-18T13:41:39.000Z</time>
      </trkpt>
      <trkpt lat="42.68005" lon="1.64704">
        <ele>1566</ele>
        <time>2018-11-18T13:41:41.000Z</time>
      </trkpt>
      <trkpt lat="42.68005" lon="1.64704">
        <ele>1566</ele>
        <time>2018-11-18T13:41:43.000Z</time>
      </trkpt>
      <trkpt lat="42.68005" lon="1.64703">
        <ele>1566</ele>
        <time>2018-11-18T13:41:45.000Z</time>
      </trkpt>
      <trkpt lat="42.68006" lon="1.64702">
        <ele>1566</ele>
        <time>2018-11-18T13:41:47.000Z</time>
      </trkpt>
      <trkpt lat="42.68008" lon="1.64701">
        <ele>1565</ele>
        <time>2018-11-18T13:41:49.000Z</time>
      </trkpt>
      <trkpt lat="42.6801" lon="1.647">
        <ele>1565</ele>
        <time>2018-11-18T13:41:51.000Z</time>
      </trkpt>
      <trkpt lat="42.68013" lon="1.64699">
        <ele>1565</ele>
        <time>2018-11-18T13:41:53.000Z</time>
      </trkpt>
      <trkpt lat="42.68015" lon="1.64698">
        <ele>1564</ele>
        <time>2018-11-18T13:41:55.000Z</time>
      </trkpt>
      <trkpt lat="42.68017" lon="1.64697">
        <ele>1564</ele>
        <time>2018-11-18T13:41:57.000Z</time>
      </trkpt>
      <trkpt lat="42.6802" lon="1.64696">
        <ele>1563</ele>
        <time>2018-11-18T13:41:59.000Z</time>
      </trkpt>
      <trkpt lat="42.68022" lon="1.64696">
        <ele>1563</ele>
        <time>2018-11-18T13:42:01.000Z</time>
      </trkpt>
      <trkpt lat="42.68025" lon="1.64696">
        <ele>1563</ele>
        <time>2018-11-18T13:42:03.000Z</time>
      </trkpt>
      <trkpt lat="42.68027" lon="1.64696">
        <ele>1562</ele>
        <time>2018-11-18T13:42:05.000Z</time>
      </trkpt>
      <trkpt lat="42.68029" lon="1.64696">
        <ele>1562</ele>
        <time>2018-11-18T13:42:07.000Z</time>
      </trkpt>
      <trkpt lat="42.68032" lon="1.64696">
        <ele>1562</ele>
        <time>2018-11-18T13:42:09.000Z</time>
      </trkpt>
      <trkpt lat="42.68034" lon="1.64696">
        <ele>1562</ele>
        <time>2018-11-18T13:42:11.000Z</time>
      </trkpt>
      <trkpt lat="42.68036" lon="1.64696">
        <ele>1561</ele>
        <time>2018-11-18T13:42:13.000Z</time>
      </trkpt>
      <trkpt lat="42.68038" lon="1.64696">
        <ele>1561</ele>
        <time>2018-11-18T13:42:15.000Z</time>
      </trkpt>
      <trkpt lat="42.6804" lon="1.64697">
        <ele>1561</ele>
        <time>2018-11-18T13:42:17.000Z</time>
      </trkpt>
      <trkpt lat="42.68042" lon="1.64697">
        <ele>1561</ele>
        <time>2018-11-18T13:42:19.000Z</time>
      </trkpt>
      <trkpt lat="42.68045" lon="1.64698">
        <ele>1561</ele>
        <time>2018-11-18T13:42:21.000Z</time>
      </trkpt>
      <trkpt lat="42.68047" lon="1.64699">
        <ele>1560</ele>
        <time>2018-11-18T13:42:23.000Z</time>
      </trkpt>
      <trkpt lat="42.68049" lon="1.64699">
        <ele>1560</ele>
        <time>2018-11-18T13:42:25.000Z</time>
      </trkpt>
      <trkpt lat="42.68051" lon="1.64701">
        <ele>1560</ele>
        <time>2018-11-18T13:42:27.000Z</time>
      </trkpt>
      <trkpt lat="42.68053" lon="1.64702">
        <ele>1560</ele>
        <time>2018-11-18T13:42:29.000Z</time>
      </trkpt>
      <trkpt lat="42.68055" lon="1.64704">
        <ele>1560</ele>
        <time>2018-11-18T13:42:31.000Z</time>
      </trkpt>
      <trkpt lat="42.68057" lon="1.64705">
        <ele>1560</ele>
        <time>2018-11-18T13:42:33.000Z</time>
      </trkpt>
      <trkpt lat="42.68059" lon="1.64706">
        <ele>1560</ele>
        <time>2018-11-18T13:42:35.000Z</time>
      </trkpt>
      <trkpt lat="42.68061" lon="1.64707">
        <ele>1560</ele>
        <time>2018-11-18T13:42:37.000Z</time>
      </trkpt>
      <trkpt lat="42.68063" lon="1.64709">
        <ele>1560</ele>
        <time>2018-11-18T13:42:39.000Z</time>
      </trkpt>
      <trkpt lat="42.68065" lon="1.6471">
        <ele>1560</ele>
        <time>2018-11-18T13:42:41.000Z</time>
      </trkpt>
      <trkpt lat="42.68068" lon="1.64711">
        <ele>1560</ele>
        <time>2018-11-18T13:42:43.000Z</time>
      </trkpt>
      <trkpt lat="42.6807" lon="1.64712">
        <ele>1560</ele>
        <time>2018-11-18T13:42:45.000Z</time>
      </trkpt>
      <trkpt lat="42.68072" lon="1.64714">
        <ele>1560</ele>
        <time>2018-11-18T13:42:47.000Z</time>
      </trkpt>
      <trkpt lat="42.68074" lon="1.64716">
        <ele>1560</ele>
        <time>2018-11-18T13:42:49.000Z</time>
      </trkpt>
      <trkpt lat="42.68076" lon="1.64718">
        <ele>1560</ele>
        <time>2018-11-18T13:42:51.000Z</time>
      </trkpt>
      <trkpt lat="42.68078" lon="1.64719">
        <ele>1560</ele>
        <time>2018-11-18T13:42:53.000Z</time>
      </trkpt>
      <trkpt lat="42.68081" lon="1.64721">
        <ele>1560</ele>
        <time>2018-11-18T13:42:55.000Z</time>
      </trkpt>
      <trkpt lat="42.68082" lon="1.64722">
        <ele>1560</ele>
        <time>2018-11-18T13:42:57.000Z</time>
      </trkpt>
      <trkpt lat="42.68084" lon="1.64724">
        <ele>1560</ele>
        <time>2018-11-18T13:42:59.000Z</time>
      </trkpt>
      <trkpt lat="42.68086" lon="1.64726">
        <ele>1560</ele>
        <time>2018-11-18T13:43:01.000Z</time>
      </trkpt>
      <trkpt lat="42.68088" lon="1.64727">
        <ele>1560</ele>
        <time>2018-11-18T13:43:03.000Z</time>
      </trkpt>
      <trkpt lat="42.6809" lon="1.64729">
        <ele>1560</ele>
        <time>2018-11-18T13:43:05.000Z</time>
      </trkpt>
      <trkpt lat="42.68092" lon="1.6473">
        <ele>1560</ele>
        <time>2018-11-18T13:43:07.000Z</time>
      </trkpt>
      <trkpt lat="42.68093" lon="1.64732">
        <ele>1560</ele>
        <time>2018-11-18T13:43:09.000Z</time>
      </trkpt>
      <trkpt lat="42.68095" lon="1.64733">
        <ele>1560</ele>
        <time>2018-11-18T13:43:11.000Z</time>
      </trkpt>
      <trkpt lat="42.68097" lon="1.64734">
        <ele>1560</ele>
        <time>2018-11-18T13:43:13.000Z</time>
      </trkpt>
      <trkpt lat="42.681" lon="1.64735">
        <ele>1560</ele>
        <time>2018-11-18T13:43:15.000Z</time>
      </trkpt>
      <trkpt lat="42.68101" lon="1.64736">
        <ele>1559</ele>
        <time>2018-11-18T13:43:17.000Z</time>
      </trkpt>
      <trkpt lat="42.68104" lon="1.64737">
        <ele>1559</ele>
        <time>2018-11-18T13:43:19.000Z</time>
      </trkpt>
      <trkpt lat="42.68105" lon="1.64738">
        <ele>1559</ele>
        <time>2018-11-18T13:43:21.000Z</time>
      </trkpt>
      <trkpt lat="42.68108" lon="1.64739">
        <ele>1559</ele>
        <time>2018-11-18T13:43:23.000Z</time>
      </trkpt>
      <trkpt lat="42.68109" lon="1.6474">
        <ele>1559</ele>
        <time>2018-11-18T13:43:25.000Z</time>
      </trkpt>
      <trkpt lat="42.68112" lon="1.64741">
        <ele>1559</ele>
        <time>2018-11-18T13:43:27.000Z</time>
      </trkpt>
      <trkpt lat="42.68114" lon="1.64742">
        <ele>1558</ele>
        <time>2018-11-18T13:43:29.000Z</time>
      </trkpt>
      <trkpt lat="42.68116" lon="1.64742">
        <ele>1558</ele>
        <time>2018-11-18T13:43:31.000Z</time>
      </trkpt>
      <trkpt lat="42.68118" lon="1.64743">
        <ele>1558</ele>
        <time>2018-11-18T13:43:33.000Z</time>
      </trkpt>
      <trkpt lat="42.6812" lon="1.64744">
        <ele>1558</ele>
        <time>2018-11-18T13:43:35.000Z</time>
      </trkpt>
      <trkpt lat="42.68122" lon="1.64746">
        <ele>1558</ele>
        <time>2018-11-18T13:43:37.000Z</time>
      </trkpt>
      <trkpt lat="42.68124" lon="1.64748">
        <ele>1557</ele>
        <time>2018-11-18T13:43:39.000Z</time>
      </trkpt>
      <trkpt lat="42.68126" lon="1.64749">
        <ele>1557</ele>
        <time>2018-11-18T13:43:41.000Z</time>
      </trkpt>
      <trkpt lat="42.68129" lon="1.64751">
        <ele>1557</ele>
        <time>2018-11-18T13:43:43.000Z</time>
      </trkpt>
      <trkpt lat="42.6813" lon="1.64753">
        <ele>1557</ele>
        <time>2018-11-18T13:43:45.000Z</time>
      </trkpt>
      <trkpt lat="42.68133" lon="1.64754">
        <ele>1557</ele>
        <time>2018-11-18T13:43:47.000Z</time>
      </trkpt>
      <trkpt lat="42.68134" lon="1.64756">
        <ele>1557</ele>
        <time>2018-11-18T13:43:49.000Z</time>
      </trkpt>
      <trkpt lat="42.68136" lon="1.64758">
        <ele>1557</ele>
        <time>2018-11-18T13:43:51.000Z</time>
      </trkpt>
      <trkpt lat="42.68137" lon="1.6476">
        <ele>1557</ele>
        <time>2018-11-18T13:43:53.000Z</time>
      </trkpt>
      <trkpt lat="42.68139" lon="1.64762">
        <ele>1557</ele>
        <time>2018-11-18T13:43:55.000Z</time>
      </trkpt>
      <trkpt lat="42.6814" lon="1.64765">
        <ele>1557</ele>
        <time>2018-11-18T13:43:57.000Z</time>
      </trkpt>
      <trkpt lat="42.68142" lon="1.64767">
        <ele>1557</ele>
        <time>2018-11-18T13:43:59.000Z</time>
      </trkpt>
      <trkpt lat="42.68144" lon="1.64768">
        <ele>1557</ele>
        <time>2018-11-18T13:44:01.000Z</time>
      </trkpt>
      <trkpt lat="42.68145" lon="1.64771">
        <ele>1558</ele>
        <time>2018-11-18T13:44:03.000Z</time>
      </trkpt>
      <trkpt lat="42.68146" lon="1.64773">
        <ele>1558</ele>
        <time>2018-11-18T13:44:05.000Z</time>
      </trkpt>
      <trkpt lat="42.68147" lon="1.64776">
        <ele>1558</ele>
        <time>2018-11-18T13:44:07.000Z</time>
      </trkpt>
      <trkpt lat="42.68148" lon="1.64779">
        <ele>1558</ele>
        <time>2018-11-18T13:44:09.000Z</time>
      </trkpt>
      <trkpt lat="42.68149" lon="1.64781">
        <ele>1559</ele>
        <time>2018-11-18T13:44:11.000Z</time>
      </trkpt>
      <trkpt lat="42.6815" lon="1.64783">
        <ele>1559</ele>
        <time>2018-11-18T13:44:13.000Z</time>
      </trkpt>
      <trkpt lat="42.6815" lon="1.64785">
        <ele>1559</ele>
        <time>2018-11-18T13:44:15.000Z</time>
      </trkpt>
      <trkpt lat="42.68151" lon="1.64788">
        <ele>1559</ele>
        <time>2018-11-18T13:44:17.000Z</time>
      </trkpt>
      <trkpt lat="42.68152" lon="1.64791">
        <ele>1560</ele>
        <time>2018-11-18T13:44:19.000Z</time>
      </trkpt>
      <trkpt lat="42.68153" lon="1.64794">
        <ele>1560</ele>
        <time>2018-11-18T13:44:21.000Z</time>
      </trkpt>
      <trkpt lat="42.68154" lon="1.64797">
        <ele>1560</ele>
        <time>2018-11-18T13:44:23.000Z</time>
      </trkpt>
      <trkpt lat="42.68155" lon="1.64799">
        <ele>1560</ele>
        <time>2018-11-18T13:44:25.000Z</time>
      </trkpt>
      <trkpt lat="42.68156" lon="1.64802">
        <ele>1561</ele>
        <time>2018-11-18T13:44:27.000Z</time>
      </trkpt>
      <trkpt lat="42.68157" lon="1.64804">
        <ele>1561</ele>
        <time>2018-11-18T13:44:29.000Z</time>
      </trkpt>
      <trkpt lat="42.68158" lon="1.64807">
        <ele>1561</ele>
        <time>2018-11-18T13:44:31.000Z</time>
      </trkpt>
      <trkpt lat="42.68158" lon="1.64809">
        <ele>1561</ele>
        <time>2018-11-18T13:44:33.000Z</time>
      </trkpt>
      <trkpt lat="42.68159" lon="1.64812">
        <ele>1562</ele>
        <time>2018-11-18T13:44:35.000Z</time>
      </trkpt>
      <trkpt lat="42.68159" lon="1.64814">
        <ele>1562</ele>
        <time>2018-11-18T13:44:37.000Z</time>
      </trkpt>
      <trkpt lat="42.6816" lon="1.64816">
        <ele>1563</ele>
        <time>2018-11-18T13:44:39.000Z</time>
      </trkpt>
      <trkpt lat="42.6816" lon="1.64819">
        <ele>1563</ele>
        <time>2018-11-18T13:44:41.000Z</time>
      </trkpt>
      <trkpt lat="42.68161" lon="1.64821">
        <ele>1563</ele>
        <time>2018-11-18T13:44:43.000Z</time>
      </trkpt>
      <trkpt lat="42.68162" lon="1.64824">
        <ele>1563</ele>
        <time>2018-11-18T13:44:45.000Z</time>
      </trkpt>
      <trkpt lat="42.68163" lon="1.64826">
        <ele>1563</ele>
        <time>2018-11-18T13:44:47.000Z</time>
      </trkpt>
      <trkpt lat="42.68164" lon="1.64829">
        <ele>1564</ele>
        <time>2018-11-18T13:44:49.000Z</time>
      </trkpt>
      <trkpt lat="42.68165" lon="1.64831">
        <ele>1564</ele>
        <time>2018-11-18T13:44:51.000Z</time>
      </trkpt>
      <trkpt lat="42.68166" lon="1.64833">
        <ele>1564</ele>
        <time>2018-11-18T13:44:53.000Z</time>
      </trkpt>
      <trkpt lat="42.68168" lon="1.64835">
        <ele>1563</ele>
        <time>2018-11-18T13:44:55.000Z</time>
      </trkpt>
      <trkpt lat="42.6817" lon="1.64836">
        <ele>1563</ele>
        <time>2018-11-18T13:44:57.000Z</time>
      </trkpt>
      <trkpt lat="42.68171" lon="1.64838">
        <ele>1563</ele>
        <time>2018-11-18T13:44:59.000Z</time>
      </trkpt>
      <trkpt lat="42.68172" lon="1.64841">
        <ele>1563</ele>
        <time>2018-11-18T13:45:01.000Z</time>
      </trkpt>
      <trkpt lat="42.68173" lon="1.64843">
        <ele>1563</ele>
        <time>2018-11-18T13:45:03.000Z</time>
      </trkpt>
      <trkpt lat="42.68174" lon="1.64846">
        <ele>1563</ele>
        <time>2018-11-18T13:45:05.000Z</time>
      </trkpt>
      <trkpt lat="42.68176" lon="1.64848">
        <ele>1563</ele>
        <time>2018-11-18T13:45:07.000Z</time>
      </trkpt>
      <trkpt lat="42.68177" lon="1.64851">
        <ele>1563</ele>
        <time>2018-11-18T13:45:09.000Z</time>
      </trkpt>
      <trkpt lat="42.68179" lon="1.64853">
        <ele>1562</ele>
        <time>2018-11-18T13:45:11.000Z</time>
      </trkpt>
      <trkpt lat="42.6818" lon="1.64855">
        <ele>1562</ele>
        <time>2018-11-18T13:45:13.000Z</time>
      </trkpt>
      <trkpt lat="42.68181" lon="1.64858">
        <ele>1562</ele>
        <time>2018-11-18T13:45:15.000Z</time>
      </trkpt>
      <trkpt lat="42.68182" lon="1.64861">
        <ele>1562</ele>
        <time>2018-11-18T13:45:17.000Z</time>
      </trkpt>
      <trkpt lat="42.68183" lon="1.64863">
        <ele>1562</ele>
        <time>2018-11-18T13:45:19.000Z</time>
      </trkpt>
      <trkpt lat="42.68185" lon="1.64865">
        <ele>1562</ele>
        <time>2018-11-18T13:45:21.000Z</time>
      </trkpt>
      <trkpt lat="42.68186" lon="1.64868">
        <ele>1562</ele>
        <time>2018-11-18T13:45:23.000Z</time>
      </trkpt>
      <trkpt lat="42.68187" lon="1.6487">
        <ele>1562</ele>
        <time>2018-11-18T13:45:25.000Z</time>
      </trkpt>
      <trkpt lat="42.68188" lon="1.64871">
        <ele>1562</ele>
        <time>2018-11-18T13:45:27.000Z</time>
      </trkpt>
      <trkpt lat="42.6819" lon="1.64873">
        <ele>1561</ele>
        <time>2018-11-18T13:45:29.000Z</time>
      </trkpt>
      <trkpt lat="42.68191" lon="1.64875">
        <ele>1561</ele>
        <time>2018-11-18T13:45:31.000Z</time>
      </trkpt>
      <trkpt lat="42.68193" lon="1.64877">
        <ele>1561</ele>
        <time>2018-11-18T13:45:33.000Z</time>
      </trkpt>
      <trkpt lat="42.68194" lon="1.64879">
        <ele>1561</ele>
        <time>2018-11-18T13:45:35.000Z</time>
      </trkpt>
      <trkpt lat="42.68196" lon="1.64881">
        <ele>1560</ele>
        <time>2018-11-18T13:45:37.000Z</time>
      </trkpt>
      <trkpt lat="42.68198" lon="1.64882">
        <ele>1560</ele>
        <time>2018-11-18T13:45:39.000Z</time>
      </trkpt>
      <trkpt lat="42.68199" lon="1.64885">
        <ele>1560</ele>
        <time>2018-11-18T13:45:41.000Z</time>
      </trkpt>
      <trkpt lat="42.682" lon="1.64887">
        <ele>1560</ele>
        <time>2018-11-18T13:45:43.000Z</time>
      </trkpt>
      <trkpt lat="42.68201" lon="1.64889">
        <ele>1560</ele>
        <time>2018-11-18T13:45:45.000Z</time>
      </trkpt>
      <trkpt lat="42.68202" lon="1.64891">
        <ele>1560</ele>
        <time>2018-11-18T13:45:47.000Z</time>
      </trkpt>
      <trkpt lat="42.68203" lon="1.64894">
        <ele>1560</ele>
        <time>2018-11-18T13:45:49.000Z</time>
      </trkpt>
      <trkpt lat="42.68204" lon="1.64896">
        <ele>1560</ele>
        <time>2018-11-18T13:45:51.000Z</time>
      </trkpt>
      <trkpt lat="42.68205" lon="1.64898">
        <ele>1560</ele>
        <time>2018-11-18T13:45:53.000Z</time>
      </trkpt>
      <trkpt lat="42.68205" lon="1.64901">
        <ele>1560</ele>
        <time>2018-11-18T13:45:55.000Z</time>
      </trkpt>
      <trkpt lat="42.68207" lon="1.64902">
        <ele>1560</ele>
        <time>2018-11-18T13:45:57.000Z</time>
      </trkpt>
      <trkpt lat="42.68208" lon="1.64904">
        <ele>1560</ele>
        <time>2018-11-18T13:45:59.000Z</time>
      </trkpt>
      <trkpt lat="42.68208" lon="1.64906">
        <ele>1560</ele>
        <time>2018-11-18T13:46:01.000Z</time>
      </trkpt>
      <trkpt lat="42.68209" lon="1.64909">
        <ele>1560</ele>
        <time>2018-11-18T13:46:03.000Z</time>
      </trkpt>
      <trkpt lat="42.68209" lon="1.64912">
        <ele>1561</ele>
        <time>2018-11-18T13:46:05.000Z</time>
      </trkpt>
      <trkpt lat="42.68209" lon="1.64915">
        <ele>1561</ele>
        <time>2018-11-18T13:46:07.000Z</time>
      </trkpt>
      <trkpt lat="42.6821" lon="1.64916">
        <ele>1561</ele>
        <time>2018-11-18T13:46:09.000Z</time>
      </trkpt>
      <trkpt lat="42.68212" lon="1.64918">
        <ele>1561</ele>
        <time>2018-11-18T13:46:11.000Z</time>
      </trkpt>
      <trkpt lat="42.68212" lon="1.6492">
        <ele>1561</ele>
        <time>2018-11-18T13:46:13.000Z</time>
      </trkpt>
      <trkpt lat="42.68214" lon="1.64923">
        <ele>1561</ele>
        <time>2018-11-18T13:46:15.000Z</time>
      </trkpt>
      <trkpt lat="42.68215" lon="1.64925">
        <ele>1561</ele>
        <time>2018-11-18T13:46:17.000Z</time>
      </trkpt>
      <trkpt lat="42.68216" lon="1.64927">
        <ele>1561</ele>
        <time>2018-11-18T13:46:19.000Z</time>
      </trkpt>
      <trkpt lat="42.68217" lon="1.6493">
        <ele>1561</ele>
        <time>2018-11-18T13:46:21.000Z</time>
      </trkpt>
      <trkpt lat="42.68217" lon="1.64933">
        <ele>1562</ele>
        <time>2018-11-18T13:46:23.000Z</time>
      </trkpt>
      <trkpt lat="42.68218" lon="1.64936">
        <ele>1562</ele>
        <time>2018-11-18T13:46:25.000Z</time>
      </trkpt>
      <trkpt lat="42.68219" lon="1.64939">
        <ele>1562</ele>
        <time>2018-11-18T13:46:27.000Z</time>
      </trkpt>
      <trkpt lat="42.6822" lon="1.64941">
        <ele>1562</ele>
        <time>2018-11-18T13:46:29.000Z</time>
      </trkpt>
      <trkpt lat="42.68221" lon="1.64943">
        <ele>1562</ele>
        <time>2018-11-18T13:46:31.000Z</time>
      </trkpt>
      <trkpt lat="42.68223" lon="1.64945">
        <ele>1562</ele>
        <time>2018-11-18T13:46:33.000Z</time>
      </trkpt>
      <trkpt lat="42.68225" lon="1.64947">
        <ele>1562</ele>
        <time>2018-11-18T13:46:35.000Z</time>
      </trkpt>
      <trkpt lat="42.68226" lon="1.64948">
        <ele>1562</ele>
        <time>2018-11-18T13:46:37.000Z</time>
      </trkpt>
      <trkpt lat="42.68228" lon="1.64949">
        <ele>1561</ele>
        <time>2018-11-18T13:46:39.000Z</time>
      </trkpt>
      <trkpt lat="42.6823" lon="1.6495">
        <ele>1561</ele>
        <time>2018-11-18T13:46:41.000Z</time>
      </trkpt>
      <trkpt lat="42.68231" lon="1.6495">
        <ele>1561</ele>
        <time>2018-11-18T13:46:43.000Z</time>
      </trkpt>
      <trkpt lat="42.68231" lon="1.6495">
        <ele>1560</ele>
        <time>2018-11-18T13:46:45.000Z</time>
      </trkpt>
      <trkpt lat="42.68231" lon="1.6495">
        <ele>1561</ele>
        <time>2018-11-18T13:46:47.000Z</time>
      </trkpt>
      <trkpt lat="42.68231" lon="1.6495">
        <ele>1561</ele>
        <time>2018-11-18T13:46:49.000Z</time>
      </trkpt>
      <trkpt lat="42.68231" lon="1.6495">
        <ele>1561</ele>
        <time>2018-11-18T13:46:51.000Z</time>
      </trkpt>
      <trkpt lat="42.68231" lon="1.6495">
        <ele>1561</ele>
        <time>2018-11-18T13:46:53.000Z</time>
      </trkpt>
      <trkpt lat="42.68231" lon="1.64949">
        <ele>1561</ele>
        <time>2018-11-18T13:46:55.000Z</time>
      </trkpt>
      <trkpt lat="42.68231" lon="1.64949">
        <ele>1561</ele>
        <time>2018-11-18T13:46:57.000Z</time>
      </trkpt>
      <trkpt lat="42.68231" lon="1.64949">
        <ele>1561</ele>
        <time>2018-11-18T13:46:59.000Z</time>
      </trkpt>
      <trkpt lat="42.68231" lon="1.64949">
        <ele>1560</ele>
        <time>2018-11-18T13:47:01.000Z</time>
      </trkpt>
      <trkpt lat="42.68232" lon="1.64949">
        <ele>1560</ele>
        <time>2018-11-18T13:47:03.000Z</time>
      </trkpt>
      <trkpt lat="42.68232" lon="1.64949">
        <ele>1560</ele>
        <time>2018-11-18T13:47:05.000Z</time>
      </trkpt>
      <trkpt lat="42.68232" lon="1.64949">
        <ele>1560</ele>
        <time>2018-11-18T13:47:07.000Z</time>
      </trkpt>
      <trkpt lat="42.68232" lon="1.64949">
        <ele>1560</ele>
        <time>2018-11-18T13:47:09.000Z</time>
      </trkpt>
      <trkpt lat="42.68232" lon="1.6495">
        <ele>1560</ele>
        <time>2018-11-18T13:47:11.000Z</time>
      </trkpt>
      <trkpt lat="42.68233" lon="1.64951">
        <ele>1560</ele>
        <time>2018-11-18T13:47:13.000Z</time>
      </trkpt>
      <trkpt lat="42.68233" lon="1.64952">
        <ele>1560</ele>
        <time>2018-11-18T13:47:15.000Z</time>
      </trkpt>
      <trkpt lat="42.68233" lon="1.64952">
        <ele>1560</ele>
        <time>2018-11-18T13:47:17.000Z</time>
      </trkpt>
      <trkpt lat="42.68233" lon="1.64952">
        <ele>1560</ele>
        <time>2018-11-18T13:47:19.000Z</time>
      </trkpt>
      <trkpt lat="42.68233" lon="1.64953">
        <ele>1560</ele>
        <time>2018-11-18T13:47:21.000Z</time>
      </trkpt>
      <trkpt lat="42.68233" lon="1.64953">
        <ele>1561</ele>
        <time>2018-11-18T13:47:23.000Z</time>
      </trkpt>
      <trkpt lat="42.68233" lon="1.64954">
        <ele>1561</ele>
        <time>2018-11-18T13:47:25.000Z</time>
      </trkpt>
      <trkpt lat="42.68233" lon="1.64954">
        <ele>1561</ele>
        <time>2018-11-18T13:47:27.000Z</time>
      </trkpt>
      <trkpt lat="42.68233" lon="1.64955">
        <ele>1561</ele>
        <time>2018-11-18T13:47:29.000Z</time>
      </trkpt>
      <trkpt lat="42.68233" lon="1.64955">
        <ele>1561</ele>
        <time>2018-11-18T13:47:31.000Z</time>
      </trkpt>
      <trkpt lat="42.68232" lon="1.64955">
        <ele>1561</ele>
        <time>2018-11-18T13:47:33.000Z</time>
      </trkpt>
      <trkpt lat="42.68233" lon="1.64955">
        <ele>1561</ele>
        <time>2018-11-18T13:47:35.000Z</time>
      </trkpt>
      <trkpt lat="42.68232" lon="1.64955">
        <ele>1561</ele>
        <time>2018-11-18T13:47:37.000Z</time>
      </trkpt>
      <trkpt lat="42.68232" lon="1.64955">
        <ele>1561</ele>
        <time>2018-11-18T13:47:39.000Z</time>
      </trkpt>
      <trkpt lat="42.68232" lon="1.64954">
        <ele>1561</ele>
        <time>2018-11-18T13:47:41.000Z</time>
      </trkpt>
      <trkpt lat="42.68232" lon="1.64954">
        <ele>1561</ele>
        <time>2018-11-18T13:47:43.000Z</time>
      </trkpt>
      <trkpt lat="42.68232" lon="1.64954">
        <ele>1561</ele>
        <time>2018-11-18T13:47:45.000Z</time>
      </trkpt>
      <trkpt lat="42.68232" lon="1.64953">
        <ele>1561</ele>
        <time>2018-11-18T13:47:47.000Z</time>
      </trkpt>
      <trkpt lat="42.68232" lon="1.64953">
        <ele>1561</ele>
        <time>2018-11-18T13:47:49.000Z</time>
      </trkpt>
      <trkpt lat="42.68231" lon="1.64952">
        <ele>1561</ele>
        <time>2018-11-18T13:47:51.000Z</time>
      </trkpt>
      <trkpt lat="42.68231" lon="1.64952">
        <ele>1561</ele>
        <time>2018-11-18T13:47:53.000Z</time>
      </trkpt>
      <trkpt lat="42.68231" lon="1.64953">
        <ele>1561</ele>
        <time>2018-11-18T13:47:55.000Z</time>
      </trkpt>
      <trkpt lat="42.68231" lon="1.64953">
        <ele>1561</ele>
        <time>2018-11-18T13:47:57.000Z</time>
      </trkpt>
      <trkpt lat="42.68231" lon="1.64952">
        <ele>1561</ele>
        <time>2018-11-18T13:47:59.000Z</time>
      </trkpt>
      <trkpt lat="42.68231" lon="1.64952">
        <ele>1561</ele>
        <time>2018-11-18T13:48:01.000Z</time>
      </trkpt>
      <trkpt lat="42.68231" lon="1.64952">
        <ele>1561</ele>
        <time>2018-11-18T13:48:03.000Z</time>
      </trkpt>
      <trkpt lat="42.68232" lon="1.64952">
        <ele>1561</ele>
        <time>2018-11-18T13:48:05.000Z</time>
      </trkpt>
      <trkpt lat="42.68232" lon="1.64952">
        <ele>1561</ele>
        <time>2018-11-18T13:48:07.000Z</time>
      </trkpt>
      <trkpt lat="42.68232" lon="1.64952">
        <ele>1561</ele>
        <time>2018-11-18T13:48:09.000Z</time>
      </trkpt>
      <trkpt lat="42.68232" lon="1.64952">
        <ele>1561</ele>
        <time>2018-11-18T13:48:11.000Z</time>
      </trkpt>
      <trkpt lat="42.68232" lon="1.64952">
        <ele>1561</ele>
        <time>2018-11-18T13:48:13.000Z</time>
      </trkpt>
      <trkpt lat="42.68231" lon="1.64952">
        <ele>1561</ele>
        <time>2018-11-18T13:48:15.000Z</time>
      </trkpt>
      <trkpt lat="42.68231" lon="1.64953">
        <ele>1561</ele>
        <time>2018-11-18T13:48:17.000Z</time>
      </trkpt>
      <trkpt lat="42.68231" lon="1.64953">
        <ele>1561</ele>
        <time>2018-11-18T13:48:19.000Z</time>
      </trkpt>
      <trkpt lat="42.68231" lon="1.64953">
        <ele>1561</ele>
        <time>2018-11-18T13:48:21.000Z</time>
      </trkpt>
      <trkpt lat="42.68232" lon="1.64953">
        <ele>1561</ele>
        <time>2018-11-18T13:48:23.000Z</time>
      </trkpt>
      <trkpt lat="42.68232" lon="1.64953">
        <ele>1561</ele>
        <time>2018-11-18T13:48:25.000Z</time>
      </trkpt>
      <trkpt lat="42.68232" lon="1.64952">
        <ele>1561</ele>
        <time>2018-11-18T13:48:27.000Z</time>
      </trkpt>
      <trkpt lat="42.68232" lon="1.64952">
        <ele>1561</ele>
        <time>2018-11-18T13:48:29.000Z</time>
      </trkpt>
      <trkpt lat="42.68232" lon="1.64953">
        <ele>1561</ele>
        <time>2018-11-18T13:48:31.000Z</time>
      </trkpt>
      <trkpt lat="42.68232" lon="1.64953">
        <ele>1561</ele>
        <time>2018-11-18T13:48:33.000Z</time>
      </trkpt>
      <trkpt lat="42.68233" lon="1.64953">
        <ele>1561</ele>
        <time>2018-11-18T13:48:35.000Z</time>
      </trkpt>
      <trkpt lat="42.68233" lon="1.64953">
        <ele>1561</ele>
        <time>2018-11-18T13:48:37.000Z</time>
      </trkpt>
      <trkpt lat="42.68232" lon="1.64954">
        <ele>1561</ele>
        <time>2018-11-18T13:48:39.000Z</time>
      </trkpt>
      <trkpt lat="42.68232" lon="1.64955">
        <ele>1561</ele>
        <time>2018-11-18T13:48:41.000Z</time>
      </trkpt>
      <trkpt lat="42.68231" lon="1.64955">
        <ele>1561</ele>
        <time>2018-11-18T13:48:43.000Z</time>
      </trkpt>
      <trkpt lat="42.68231" lon="1.64956">
        <ele>1562</ele>
        <time>2018-11-18T13:48:45.000Z</time>
      </trkpt>
      <trkpt lat="42.6823" lon="1.64956">
        <ele>1562</ele>
        <time>2018-11-18T13:48:47.000Z</time>
      </trkpt>
      <trkpt lat="42.6823" lon="1.64957">
        <ele>1562</ele>
        <time>2018-11-18T13:48:49.000Z</time>
      </trkpt>
      <trkpt lat="42.6823" lon="1.64957">
        <ele>1562</ele>
        <time>2018-11-18T13:48:51.000Z</time>
      </trkpt>
      <trkpt lat="42.68229" lon="1.64957">
        <ele>1562</ele>
        <time>2018-11-18T13:48:53.000Z</time>
      </trkpt>
      <trkpt lat="42.68229" lon="1.64958">
        <ele>1562</ele>
        <time>2018-11-18T13:48:55.000Z</time>
      </trkpt>
      <trkpt lat="42.68229" lon="1.64958">
        <ele>1563</ele>
        <time>2018-11-18T13:48:57.000Z</time>
      </trkpt>
      <trkpt lat="42.68229" lon="1.64956">
        <ele>1562</ele>
        <time>2018-11-18T13:48:59.000Z</time>
      </trkpt>
      <trkpt lat="42.68232" lon="1.64955">
        <ele>1561</ele>
        <time>2018-11-18T13:49:01.000Z</time>
      </trkpt>
      <trkpt lat="42.68234" lon="1.64955">
        <ele>1561</ele>
        <time>2018-11-18T13:49:03.000Z</time>
      </trkpt>
      <trkpt lat="42.68236" lon="1.64955">
        <ele>1560</ele>
        <time>2018-11-18T13:49:05.000Z</time>
      </trkpt>
      <trkpt lat="42.68238" lon="1.64956">
        <ele>1560</ele>
        <time>2018-11-18T13:49:07.000Z</time>
      </trkpt>
      <trkpt lat="42.68239" lon="1.64955">
        <ele>1559</ele>
        <time>2018-11-18T13:49:09.000Z</time>
      </trkpt>
      <trkpt lat="42.68241" lon="1.64955">
        <ele>1558</ele>
        <time>2018-11-18T13:49:11.000Z</time>
      </trkpt>
      <trkpt lat="42.68243" lon="1.64955">
        <ele>1558</ele>
        <time>2018-11-18T13:49:13.000Z</time>
      </trkpt>
      <trkpt lat="42.68244" lon="1.64954">
        <ele>1557</ele>
        <time>2018-11-18T13:49:15.000Z</time>
      </trkpt>
      <trkpt lat="42.68246" lon="1.64954">
        <ele>1557</ele>
        <time>2018-11-18T13:49:17.000Z</time>
      </trkpt>
      <trkpt lat="42.68248" lon="1.64953">
        <ele>1556</ele>
        <time>2018-11-18T13:49:19.000Z</time>
      </trkpt>
      <trkpt lat="42.6825" lon="1.64952">
        <ele>1555</ele>
        <time>2018-11-18T13:49:21.000Z</time>
      </trkpt>
      <trkpt lat="42.68252" lon="1.64952">
        <ele>1555</ele>
        <time>2018-11-18T13:49:23.000Z</time>
      </trkpt>
      <trkpt lat="42.68254" lon="1.64952">
        <ele>1554</ele>
        <time>2018-11-18T13:49:25.000Z</time>
      </trkpt>
      <trkpt lat="42.68256" lon="1.64952">
        <ele>1553</ele>
        <time>2018-11-18T13:49:27.000Z</time>
      </trkpt>
      <trkpt lat="42.68258" lon="1.64953">
        <ele>1553</ele>
        <time>2018-11-18T13:49:29.000Z</time>
      </trkpt>
      <trkpt lat="42.6826" lon="1.64954">
        <ele>1552</ele>
        <time>2018-11-18T13:49:31.000Z</time>
      </trkpt>
      <trkpt lat="42.68262" lon="1.64954">
        <ele>1552</ele>
        <time>2018-11-18T13:49:33.000Z</time>
      </trkpt>
      <trkpt lat="42.68264" lon="1.64955">
        <ele>1551</ele>
        <time>2018-11-18T13:49:35.000Z</time>
      </trkpt>
      <trkpt lat="42.68266" lon="1.64955">
        <ele>1551</ele>
        <time>2018-11-18T13:49:37.000Z</time>
      </trkpt>
      <trkpt lat="42.68268" lon="1.64955">
        <ele>1550</ele>
        <time>2018-11-18T13:49:39.000Z</time>
      </trkpt>
      <trkpt lat="42.68271" lon="1.64956">
        <ele>1550</ele>
        <time>2018-11-18T13:49:41.000Z</time>
      </trkpt>
      <trkpt lat="42.68274" lon="1.64955">
        <ele>1549</ele>
        <time>2018-11-18T13:49:43.000Z</time>
      </trkpt>
      <trkpt lat="42.68276" lon="1.64954">
        <ele>1548</ele>
        <time>2018-11-18T13:49:45.000Z</time>
      </trkpt>
      <trkpt lat="42.68278" lon="1.64955">
        <ele>1547</ele>
        <time>2018-11-18T13:49:47.000Z</time>
      </trkpt>
      <trkpt lat="42.68281" lon="1.64955">
        <ele>1547</ele>
        <time>2018-11-18T13:49:49.000Z</time>
      </trkpt>
      <trkpt lat="42.68283" lon="1.64956">
        <ele>1546</ele>
        <time>2018-11-18T13:49:51.000Z</time>
      </trkpt>
      <trkpt lat="42.68284" lon="1.64955">
        <ele>1545</ele>
        <time>2018-11-18T13:49:53.000Z</time>
      </trkpt>
      <trkpt lat="42.68285" lon="1.64953">
        <ele>1545</ele>
        <time>2018-11-18T13:49:55.000Z</time>
      </trkpt>
      <trkpt lat="42.68286" lon="1.64952">
        <ele>1545</ele>
        <time>2018-11-18T13:49:57.000Z</time>
      </trkpt>
      <trkpt lat="42.68286" lon="1.64952">
        <ele>1544</ele>
        <time>2018-11-18T13:49:59.000Z</time>
      </trkpt>
      <trkpt lat="42.68285" lon="1.64951">
        <ele>1545</ele>
        <time>2018-11-18T13:50:01.000Z</time>
      </trkpt>
      <trkpt lat="42.68284" lon="1.6495">
        <ele>1545</ele>
        <time>2018-11-18T13:50:03.000Z</time>
      </trkpt>
      <trkpt lat="42.68282" lon="1.64949">
        <ele>1545</ele>
        <time>2018-11-18T13:50:05.000Z</time>
      </trkpt>
      <trkpt lat="42.6828" lon="1.64948">
        <ele>1546</ele>
        <time>2018-11-18T13:50:07.000Z</time>
      </trkpt>
      <trkpt lat="42.68279" lon="1.64947">
        <ele>1546</ele>
        <time>2018-11-18T13:50:09.000Z</time>
      </trkpt>
      <trkpt lat="42.68279" lon="1.64944">
        <ele>1545</ele>
        <time>2018-11-18T13:50:11.000Z</time>
      </trkpt>
      <trkpt lat="42.68278" lon="1.64942">
        <ele>1545</ele>
        <time>2018-11-18T13:50:13.000Z</time>
      </trkpt>
      <trkpt lat="42.68277" lon="1.6494">
        <ele>1545</ele>
        <time>2018-11-18T13:50:15.000Z</time>
      </trkpt>
      <trkpt lat="42.68276" lon="1.64938">
        <ele>1545</ele>
        <time>2018-11-18T13:50:17.000Z</time>
      </trkpt>
      <trkpt lat="42.68275" lon="1.64937">
        <ele>1545</ele>
        <time>2018-11-18T13:50:19.000Z</time>
      </trkpt>
      <trkpt lat="42.68274" lon="1.64935">
        <ele>1545</ele>
        <time>2018-11-18T13:50:21.000Z</time>
      </trkpt>
      <trkpt lat="42.68273" lon="1.64933">
        <ele>1545</ele>
        <time>2018-11-18T13:50:23.000Z</time>
      </trkpt>
      <trkpt lat="42.68271" lon="1.64931">
        <ele>1545</ele>
        <time>2018-11-18T13:50:25.000Z</time>
      </trkpt>
      <trkpt lat="42.6827" lon="1.64929">
        <ele>1545</ele>
        <time>2018-11-18T13:50:27.000Z</time>
      </trkpt>
      <trkpt lat="42.68268" lon="1.64926">
        <ele>1546</ele>
        <time>2018-11-18T13:50:29.000Z</time>
      </trkpt>
      <trkpt lat="42.68266" lon="1.64924">
        <ele>1546</ele>
        <time>2018-11-18T13:50:31.000Z</time>
      </trkpt>
      <trkpt lat="42.68265" lon="1.64922">
        <ele>1545</ele>
        <time>2018-11-18T13:50:33.000Z</time>
      </trkpt>
      <trkpt lat="42.68264" lon="1.6492">
        <ele>1546</ele>
        <time>2018-11-18T13:50:35.000Z</time>
      </trkpt>
      <trkpt lat="42.68262" lon="1.64918">
        <ele>1546</ele>
        <time>2018-11-18T13:50:37.000Z</time>
      </trkpt>
      <trkpt lat="42.6826" lon="1.64916">
        <ele>1546</ele>
        <time>2018-11-18T13:50:39.000Z</time>
      </trkpt>
      <trkpt lat="42.68258" lon="1.64914">
        <ele>1546</ele>
        <time>2018-11-18T13:50:41.000Z</time>
      </trkpt>
      <trkpt lat="42.68257" lon="1.64913">
        <ele>1547</ele>
        <time>2018-11-18T13:50:43.000Z</time>
      </trkpt>
      <trkpt lat="42.68256" lon="1.64911">
        <ele>1547</ele>
        <time>2018-11-18T13:50:45.000Z</time>
      </trkpt>
      <trkpt lat="42.68256" lon="1.64908">
        <ele>1546</ele>
        <time>2018-11-18T13:50:47.000Z</time>
      </trkpt>
      <trkpt lat="42.68258" lon="1.64906">
        <ele>1545</ele>
        <time>2018-11-18T13:50:49.000Z</time>
      </trkpt>
      <trkpt lat="42.68259" lon="1.64904">
        <ele>1545</ele>
        <time>2018-11-18T13:50:51.000Z</time>
      </trkpt>
      <trkpt lat="42.6826" lon="1.64903">
        <ele>1544</ele>
        <time>2018-11-18T13:50:53.000Z</time>
      </trkpt>
      <trkpt lat="42.68262" lon="1.64902">
        <ele>1544</ele>
        <time>2018-11-18T13:50:55.000Z</time>
      </trkpt>
      <trkpt lat="42.68264" lon="1.64901">
        <ele>1544</ele>
        <time>2018-11-18T13:50:57.000Z</time>
      </trkpt>
      <trkpt lat="42.68265" lon="1.64902">
        <ele>1543</ele>
        <time>2018-11-18T13:50:59.000Z</time>
      </trkpt>
      <trkpt lat="42.68266" lon="1.64902">
        <ele>1543</ele>
        <time>2018-11-18T13:51:01.000Z</time>
      </trkpt>
      <trkpt lat="42.68268" lon="1.64902">
        <ele>1543</ele>
        <time>2018-11-18T13:51:03.000Z</time>
      </trkpt>
      <trkpt lat="42.68269" lon="1.64902">
        <ele>1542</ele>
        <time>2018-11-18T13:51:05.000Z</time>
      </trkpt>
      <trkpt lat="42.68272" lon="1.64901">
        <ele>1542</ele>
        <time>2018-11-18T13:51:07.000Z</time>
      </trkpt>
      <trkpt lat="42.68274" lon="1.64901">
        <ele>1541</ele>
        <time>2018-11-18T13:51:09.000Z</time>
      </trkpt>
      <trkpt lat="42.68275" lon="1.64901">
        <ele>1541</ele>
        <time>2018-11-18T13:51:11.000Z</time>
      </trkpt>
      <trkpt lat="42.68277" lon="1.64901">
        <ele>1541</ele>
        <time>2018-11-18T13:51:13.000Z</time>
      </trkpt>
      <trkpt lat="42.68278" lon="1.64901">
        <ele>1540</ele>
        <time>2018-11-18T13:51:15.000Z</time>
      </trkpt>
      <trkpt lat="42.6828" lon="1.64901">
        <ele>1540</ele>
        <time>2018-11-18T13:51:17.000Z</time>
      </trkpt>
      <trkpt lat="42.68282" lon="1.64901">
        <ele>1540</ele>
        <time>2018-11-18T13:51:19.000Z</time>
      </trkpt>
      <trkpt lat="42.68284" lon="1.649">
        <ele>1539</ele>
        <time>2018-11-18T13:51:21.000Z</time>
      </trkpt>
      <trkpt lat="42.68285" lon="1.64899">
        <ele>1539</ele>
        <time>2018-11-18T13:51:23.000Z</time>
      </trkpt>
      <trkpt lat="42.68286" lon="1.64898">
        <ele>1538</ele>
        <time>2018-11-18T13:51:25.000Z</time>
      </trkpt>
      <trkpt lat="42.68287" lon="1.64896">
        <ele>1538</ele>
        <time>2018-11-18T13:51:27.000Z</time>
      </trkpt>
      <trkpt lat="42.68289" lon="1.64895">
        <ele>1537</ele>
        <time>2018-11-18T13:51:29.000Z</time>
      </trkpt>
      <trkpt lat="42.6829" lon="1.64894">
        <ele>1537</ele>
        <time>2018-11-18T13:51:31.000Z</time>
      </trkpt>
      <trkpt lat="42.68292" lon="1.64893">
        <ele>1536</ele>
        <time>2018-11-18T13:51:33.000Z</time>
      </trkpt>
      <trkpt lat="42.68292" lon="1.64891">
        <ele>1536</ele>
        <time>2018-11-18T13:51:35.000Z</time>
      </trkpt>
      <trkpt lat="42.68293" lon="1.64888">
        <ele>1535</ele>
        <time>2018-11-18T13:51:37.000Z</time>
      </trkpt>
      <trkpt lat="42.68294" lon="1.64885">
        <ele>1535</ele>
        <time>2018-11-18T13:51:39.000Z</time>
      </trkpt>
      <trkpt lat="42.68295" lon="1.64884">
        <ele>1534</ele>
        <time>2018-11-18T13:51:41.000Z</time>
      </trkpt>
      <trkpt lat="42.68296" lon="1.64882">
        <ele>1534</ele>
        <time>2018-11-18T13:51:43.000Z</time>
      </trkpt>
      <trkpt lat="42.68297" lon="1.64881">
        <ele>1533</ele>
        <time>2018-11-18T13:51:45.000Z</time>
      </trkpt>
      <trkpt lat="42.68298" lon="1.64879">
        <ele>1533</ele>
        <time>2018-11-18T13:51:47.000Z</time>
      </trkpt>
      <trkpt lat="42.68298" lon="1.64878">
        <ele>1532</ele>
        <time>2018-11-18T13:51:49.000Z</time>
      </trkpt>
      <trkpt lat="42.68299" lon="1.64876">
        <ele>1532</ele>
        <time>2018-11-18T13:51:51.000Z</time>
      </trkpt>
      <trkpt lat="42.68302" lon="1.64875">
        <ele>1531</ele>
        <time>2018-11-18T13:51:53.000Z</time>
      </trkpt>
      <trkpt lat="42.68304" lon="1.64874">
        <ele>1531</ele>
        <time>2018-11-18T13:51:55.000Z</time>
      </trkpt>
      <trkpt lat="42.68306" lon="1.64874">
        <ele>1530</ele>
        <time>2018-11-18T13:51:57.000Z</time>
      </trkpt>
      <trkpt lat="42.68308" lon="1.64874">
        <ele>1530</ele>
        <time>2018-11-18T13:51:59.000Z</time>
      </trkpt>
      <trkpt lat="42.6831" lon="1.64873">
        <ele>1529</ele>
        <time>2018-11-18T13:52:01.000Z</time>
      </trkpt>
      <trkpt lat="42.68312" lon="1.64873">
        <ele>1529</ele>
        <time>2018-11-18T13:52:03.000Z</time>
      </trkpt>
      <trkpt lat="42.68313" lon="1.64873">
        <ele>1529</ele>
        <time>2018-11-18T13:52:05.000Z</time>
      </trkpt>
      <trkpt lat="42.68316" lon="1.64874">
        <ele>1529</ele>
        <time>2018-11-18T13:52:07.000Z</time>
      </trkpt>
      <trkpt lat="42.68318" lon="1.64875">
        <ele>1528</ele>
        <time>2018-11-18T13:52:09.000Z</time>
      </trkpt>
      <trkpt lat="42.6832" lon="1.64877">
        <ele>1528</ele>
        <time>2018-11-18T13:52:11.000Z</time>
      </trkpt>
      <trkpt lat="42.68321" lon="1.64878">
        <ele>1528</ele>
        <time>2018-11-18T13:52:13.000Z</time>
      </trkpt>
      <trkpt lat="42.68323" lon="1.6488">
        <ele>1528</ele>
        <time>2018-11-18T13:52:15.000Z</time>
      </trkpt>
      <trkpt lat="42.68325" lon="1.64883">
        <ele>1528</ele>
        <time>2018-11-18T13:52:17.000Z</time>
      </trkpt>
      <trkpt lat="42.68326" lon="1.64885">
        <ele>1528</ele>
        <time>2018-11-18T13:52:19.000Z</time>
      </trkpt>
      <trkpt lat="42.68327" lon="1.64888">
        <ele>1528</ele>
        <time>2018-11-18T13:52:21.000Z</time>
      </trkpt>
      <trkpt lat="42.68329" lon="1.6489">
        <ele>1528</ele>
        <time>2018-11-18T13:52:23.000Z</time>
      </trkpt>
      <trkpt lat="42.6833" lon="1.64892">
        <ele>1528</ele>
        <time>2018-11-18T13:52:25.000Z</time>
      </trkpt>
      <trkpt lat="42.68331" lon="1.64895">
        <ele>1528</ele>
        <time>2018-11-18T13:52:27.000Z</time>
      </trkpt>
      <trkpt lat="42.68333" lon="1.64897">
        <ele>1528</ele>
        <time>2018-11-18T13:52:29.000Z</time>
      </trkpt>
      <trkpt lat="42.68333" lon="1.64899">
        <ele>1528</ele>
        <time>2018-11-18T13:52:31.000Z</time>
      </trkpt>
      <trkpt lat="42.68334" lon="1.64901">
        <ele>1528</ele>
        <time>2018-11-18T13:52:33.000Z</time>
      </trkpt>
      <trkpt lat="42.68334" lon="1.64902">
        <ele>1528</ele>
        <time>2018-11-18T13:52:35.000Z</time>
      </trkpt>
      <trkpt lat="42.68336" lon="1.64902">
        <ele>1528</ele>
        <time>2018-11-18T13:52:37.000Z</time>
      </trkpt>
      <trkpt lat="42.68337" lon="1.64902">
        <ele>1528</ele>
        <time>2018-11-18T13:52:39.000Z</time>
      </trkpt>
      <trkpt lat="42.68339" lon="1.64903">
        <ele>1527</ele>
        <time>2018-11-18T13:52:41.000Z</time>
      </trkpt>
      <trkpt lat="42.68341" lon="1.64905">
        <ele>1527</ele>
        <time>2018-11-18T13:52:43.000Z</time>
      </trkpt>
      <trkpt lat="42.68342" lon="1.64907">
        <ele>1527</ele>
        <time>2018-11-18T13:52:45.000Z</time>
      </trkpt>
      <trkpt lat="42.68343" lon="1.64909">
        <ele>1527</ele>
        <time>2018-11-18T13:52:47.000Z</time>
      </trkpt>
      <trkpt lat="42.68344" lon="1.64911">
        <ele>1527</ele>
        <time>2018-11-18T13:52:49.000Z</time>
      </trkpt>
      <trkpt lat="42.68345" lon="1.64914">
        <ele>1527</ele>
        <time>2018-11-18T13:52:51.000Z</time>
      </trkpt>
      <trkpt lat="42.68346" lon="1.64916">
        <ele>1527</ele>
        <time>2018-11-18T13:52:53.000Z</time>
      </trkpt>
      <trkpt lat="42.68347" lon="1.64918">
        <ele>1526</ele>
        <time>2018-11-18T13:52:55.000Z</time>
      </trkpt>
      <trkpt lat="42.68348" lon="1.6492">
        <ele>1526</ele>
        <time>2018-11-18T13:52:57.000Z</time>
      </trkpt>
      <trkpt lat="42.6835" lon="1.64922">
        <ele>1526</ele>
        <time>2018-11-18T13:52:59.000Z</time>
      </trkpt>
      <trkpt lat="42.68351" lon="1.64923">
        <ele>1526</ele>
        <time>2018-11-18T13:53:01.000Z</time>
      </trkpt>
      <trkpt lat="42.68353" lon="1.64925">
        <ele>1525</ele>
        <time>2018-11-18T13:53:03.000Z</time>
      </trkpt>
      <trkpt lat="42.68354" lon="1.64926">
        <ele>1525</ele>
        <time>2018-11-18T13:53:05.000Z</time>
      </trkpt>
      <trkpt lat="42.68355" lon="1.64928">
        <ele>1525</ele>
        <time>2018-11-18T13:53:07.000Z</time>
      </trkpt>
      <trkpt lat="42.68356" lon="1.6493">
        <ele>1525</ele>
        <time>2018-11-18T13:53:09.000Z</time>
      </trkpt>
      <trkpt lat="42.68357" lon="1.64932">
        <ele>1524</ele>
        <time>2018-11-18T13:53:11.000Z</time>
      </trkpt>
      <trkpt lat="42.68358" lon="1.64933">
        <ele>1524</ele>
        <time>2018-11-18T13:53:13.000Z</time>
      </trkpt>
      <trkpt lat="42.68359" lon="1.64934">
        <ele>1524</ele>
        <time>2018-11-18T13:53:15.000Z</time>
      </trkpt>
      <trkpt lat="42.68361" lon="1.64936">
        <ele>1524</ele>
        <time>2018-11-18T13:53:17.000Z</time>
      </trkpt>
      <trkpt lat="42.68362" lon="1.64938">
        <ele>1524</ele>
        <time>2018-11-18T13:53:19.000Z</time>
      </trkpt>
      <trkpt lat="42.68363" lon="1.6494">
        <ele>1524</ele>
        <time>2018-11-18T13:53:21.000Z</time>
      </trkpt>
      <trkpt lat="42.68364" lon="1.64941">
        <ele>1523</ele>
        <time>2018-11-18T13:53:23.000Z</time>
      </trkpt>
      <trkpt lat="42.68365" lon="1.64942">
        <ele>1523</ele>
        <time>2018-11-18T13:53:25.000Z</time>
      </trkpt>
      <trkpt lat="42.68366" lon="1.64943">
        <ele>1523</ele>
        <time>2018-11-18T13:53:27.000Z</time>
      </trkpt>
      <trkpt lat="42.68367" lon="1.64943">
        <ele>1523</ele>
        <time>2018-11-18T13:53:29.000Z</time>
      </trkpt>
      <trkpt lat="42.68368" lon="1.64944">
        <ele>1522</ele>
        <time>2018-11-18T13:53:31.000Z</time>
      </trkpt>
      <trkpt lat="42.6837" lon="1.64945">
        <ele>1522</ele>
        <time>2018-11-18T13:53:33.000Z</time>
      </trkpt>
      <trkpt lat="42.68371" lon="1.64946">
        <ele>1522</ele>
        <time>2018-11-18T13:53:35.000Z</time>
      </trkpt>
      <trkpt lat="42.68372" lon="1.64946">
        <ele>1522</ele>
        <time>2018-11-18T13:53:37.000Z</time>
      </trkpt>
      <trkpt lat="42.68373" lon="1.64947">
        <ele>1521</ele>
        <time>2018-11-18T13:53:39.000Z</time>
      </trkpt>
      <trkpt lat="42.68374" lon="1.64947">
        <ele>1521</ele>
        <time>2018-11-18T13:53:41.000Z</time>
      </trkpt>
      <trkpt lat="42.68375" lon="1.64948">
        <ele>1521</ele>
        <time>2018-11-18T13:53:43.000Z</time>
      </trkpt>
      <trkpt lat="42.68377" lon="1.64947">
        <ele>1520</ele>
        <time>2018-11-18T13:53:45.000Z</time>
      </trkpt>
      <trkpt lat="42.68379" lon="1.64947">
        <ele>1520</ele>
        <time>2018-11-18T13:53:47.000Z</time>
      </trkpt>
      <trkpt lat="42.6838" lon="1.64946">
        <ele>1519</ele>
        <time>2018-11-18T13:53:49.000Z</time>
      </trkpt>
      <trkpt lat="42.68382" lon="1.64945">
        <ele>1519</ele>
        <time>2018-11-18T13:53:51.000Z</time>
      </trkpt>
      <trkpt lat="42.68384" lon="1.64944">
        <ele>1518</ele>
        <time>2018-11-18T13:53:53.000Z</time>
      </trkpt>
      <trkpt lat="42.68386" lon="1.64944">
        <ele>1518</ele>
        <time>2018-11-18T13:53:55.000Z</time>
      </trkpt>
      <trkpt lat="42.68388" lon="1.64943">
        <ele>1517</ele>
        <time>2018-11-18T13:53:57.000Z</time>
      </trkpt>
      <trkpt lat="42.6839" lon="1.64942">
        <ele>1517</ele>
        <time>2018-11-18T13:53:59.000Z</time>
      </trkpt>
      <trkpt lat="42.68391" lon="1.6494">
        <ele>1517</ele>
        <time>2018-11-18T13:54:01.000Z</time>
      </trkpt>
      <trkpt lat="42.68393" lon="1.64938">
        <ele>1516</ele>
        <time>2018-11-18T13:54:03.000Z</time>
      </trkpt>
      <trkpt lat="42.68394" lon="1.64937">
        <ele>1516</ele>
        <time>2018-11-18T13:54:05.000Z</time>
      </trkpt>
      <trkpt lat="42.68396" lon="1.64934">
        <ele>1516</ele>
        <time>2018-11-18T13:54:07.000Z</time>
      </trkpt>
      <trkpt lat="42.68396" lon="1.64931">
        <ele>1516</ele>
        <time>2018-11-18T13:54:09.000Z</time>
      </trkpt>
      <trkpt lat="42.68397" lon="1.64928">
        <ele>1516</ele>
        <time>2018-11-18T13:54:11.000Z</time>
      </trkpt>
      <trkpt lat="42.68398" lon="1.64927">
        <ele>1515</ele>
        <time>2018-11-18T13:54:13.000Z</time>
      </trkpt>
      <trkpt lat="42.68399" lon="1.64924">
        <ele>1515</ele>
        <time>2018-11-18T13:54:15.000Z</time>
      </trkpt>
      <trkpt lat="42.68401" lon="1.64922">
        <ele>1515</ele>
        <time>2018-11-18T13:54:17.000Z</time>
      </trkpt>
      <trkpt lat="42.68402" lon="1.64921">
        <ele>1515</ele>
        <time>2018-11-18T13:54:19.000Z</time>
      </trkpt>
      <trkpt lat="42.68404" lon="1.64921">
        <ele>1514</ele>
        <time>2018-11-18T13:54:21.000Z</time>
      </trkpt>
      <trkpt lat="42.68405" lon="1.64922">
        <ele>1514</ele>
        <time>2018-11-18T13:54:23.000Z</time>
      </trkpt>
      <trkpt lat="42.68406" lon="1.64922">
        <ele>1514</ele>
        <time>2018-11-18T13:54:25.000Z</time>
      </trkpt>
      <trkpt lat="42.68406" lon="1.64922">
        <ele>1514</ele>
        <time>2018-11-18T13:54:27.000Z</time>
      </trkpt>
      <trkpt lat="42.68406" lon="1.64923">
        <ele>1514</ele>
        <time>2018-11-18T13:54:29.000Z</time>
      </trkpt>
      <trkpt lat="42.68405" lon="1.64923">
        <ele>1514</ele>
        <time>2018-11-18T13:54:31.000Z</time>
      </trkpt>
      <trkpt lat="42.68405" lon="1.64923">
        <ele>1514</ele>
        <time>2018-11-18T13:54:33.000Z</time>
      </trkpt>
      <trkpt lat="42.68405" lon="1.64923">
        <ele>1514</ele>
        <time>2018-11-18T13:54:35.000Z</time>
      </trkpt>
      <trkpt lat="42.68406" lon="1.64921">
        <ele>1514</ele>
        <time>2018-11-18T13:54:37.000Z</time>
      </trkpt>
      <trkpt lat="42.68407" lon="1.64919">
        <ele>1514</ele>
        <time>2018-11-18T13:54:39.000Z</time>
      </trkpt>
      <trkpt lat="42.68409" lon="1.64917">
        <ele>1513</ele>
        <time>2018-11-18T13:54:41.000Z</time>
      </trkpt>
      <trkpt lat="42.6841" lon="1.64916">
        <ele>1513</ele>
        <time>2018-11-18T13:54:43.000Z</time>
      </trkpt>
      <trkpt lat="42.68412" lon="1.64917">
        <ele>1513</ele>
        <time>2018-11-18T13:54:45.000Z</time>
      </trkpt>
      <trkpt lat="42.68413" lon="1.64918">
        <ele>1512</ele>
        <time>2018-11-18T13:54:47.000Z</time>
      </trkpt>
      <trkpt lat="42.68414" lon="1.64918">
        <ele>1512</ele>
        <time>2018-11-18T13:54:49.000Z</time>
      </trkpt>
      <trkpt lat="42.68415" lon="1.64917">
        <ele>1512</ele>
        <time>2018-11-18T13:54:51.000Z</time>
      </trkpt>
      <trkpt lat="42.68415" lon="1.64916">
        <ele>1512</ele>
        <time>2018-11-18T13:54:53.000Z</time>
      </trkpt>
      <trkpt lat="42.68416" lon="1.64916">
        <ele>1512</ele>
        <time>2018-11-18T13:54:55.000Z</time>
      </trkpt>
      <trkpt lat="42.68416" lon="1.64915">
        <ele>1512</ele>
        <time>2018-11-18T13:54:57.000Z</time>
      </trkpt>
      <trkpt lat="42.68416" lon="1.64914">
        <ele>1512</ele>
        <time>2018-11-18T13:54:59.000Z</time>
      </trkpt>
      <trkpt lat="42.68417" lon="1.64914">
        <ele>1512</ele>
        <time>2018-11-18T13:55:01.000Z</time>
      </trkpt>
      <trkpt lat="42.68419" lon="1.64913">
        <ele>1511</ele>
        <time>2018-11-18T13:55:03.000Z</time>
      </trkpt>
      <trkpt lat="42.6842" lon="1.64915">
        <ele>1511</ele>
        <time>2018-11-18T13:55:05.000Z</time>
      </trkpt>
      <trkpt lat="42.68421" lon="1.64916">
        <ele>1511</ele>
        <time>2018-11-18T13:55:07.000Z</time>
      </trkpt>
      <trkpt lat="42.68422" lon="1.64918">
        <ele>1511</ele>
        <time>2018-11-18T13:55:09.000Z</time>
      </trkpt>
      <trkpt lat="42.68423" lon="1.64918">
        <ele>1510</ele>
        <time>2018-11-18T13:55:11.000Z</time>
      </trkpt>
      <trkpt lat="42.68423" lon="1.64919">
        <ele>1510</ele>
        <time>2018-11-18T13:55:13.000Z</time>
      </trkpt>
      <trkpt lat="42.68425" lon="1.64919">
        <ele>1510</ele>
        <time>2018-11-18T13:55:15.000Z</time>
      </trkpt>
      <trkpt lat="42.68426" lon="1.6492">
        <ele>1510</ele>
        <time>2018-11-18T13:55:17.000Z</time>
      </trkpt>
      <trkpt lat="42.68427" lon="1.6492">
        <ele>1510</ele>
        <time>2018-11-18T13:55:19.000Z</time>
      </trkpt>
      <trkpt lat="42.68428" lon="1.64921">
        <ele>1509</ele>
        <time>2018-11-18T13:55:21.000Z</time>
      </trkpt>
      <trkpt lat="42.6843" lon="1.64921">
        <ele>1509</ele>
        <time>2018-11-18T13:55:23.000Z</time>
      </trkpt>
      <trkpt lat="42.68431" lon="1.64921">
        <ele>1509</ele>
        <time>2018-11-18T13:55:25.000Z</time>
      </trkpt>
      <trkpt lat="42.68432" lon="1.64921">
        <ele>1509</ele>
        <time>2018-11-18T13:55:27.000Z</time>
      </trkpt>
      <trkpt lat="42.68433" lon="1.64921">
        <ele>1508</ele>
        <time>2018-11-18T13:55:29.000Z</time>
      </trkpt>
      <trkpt lat="42.68435" lon="1.64921">
        <ele>1508</ele>
        <time>2018-11-18T13:55:31.000Z</time>
      </trkpt>
      <trkpt lat="42.68435" lon="1.64923">
        <ele>1508</ele>
        <time>2018-11-18T13:55:33.000Z</time>
      </trkpt>
      <trkpt lat="42.68435" lon="1.64924">
        <ele>1508</ele>
        <time>2018-11-18T13:55:35.000Z</time>
      </trkpt>
      <trkpt lat="42.68436" lon="1.64926">
        <ele>1508</ele>
        <time>2018-11-18T13:55:37.000Z</time>
      </trkpt>
      <trkpt lat="42.68437" lon="1.64928">
        <ele>1508</ele>
        <time>2018-11-18T13:55:39.000Z</time>
      </trkpt>
      <trkpt lat="42.68437" lon="1.64928">
        <ele>1508</ele>
        <time>2018-11-18T13:55:41.000Z</time>
      </trkpt>
      <trkpt lat="42.68438" lon="1.6493">
        <ele>1508</ele>
        <time>2018-11-18T13:55:43.000Z</time>
      </trkpt>
      <trkpt lat="42.68438" lon="1.6493">
        <ele>1507</ele>
        <time>2018-11-18T13:55:45.000Z</time>
      </trkpt>
      <trkpt lat="42.68439" lon="1.64931">
        <ele>1507</ele>
        <time>2018-11-18T13:55:47.000Z</time>
      </trkpt>
      <trkpt lat="42.6844" lon="1.64931">
        <ele>1507</ele>
        <time>2018-11-18T13:55:49.000Z</time>
      </trkpt>
      <trkpt lat="42.68441" lon="1.64932">
        <ele>1507</ele>
        <time>2018-11-18T13:55:51.000Z</time>
      </trkpt>
      <trkpt lat="42.68441" lon="1.64934">
        <ele>1507</ele>
        <time>2018-11-18T13:55:53.000Z</time>
      </trkpt>
      <trkpt lat="42.68442" lon="1.64935">
        <ele>1507</ele>
        <time>2018-11-18T13:55:55.000Z</time>
      </trkpt>
      <trkpt lat="42.68443" lon="1.64936">
        <ele>1507</ele>
        <time>2018-11-18T13:55:57.000Z</time>
      </trkpt>
      <trkpt lat="42.68443" lon="1.64936">
        <ele>1506</ele>
        <time>2018-11-18T13:55:59.000Z</time>
      </trkpt>
      <trkpt lat="42.68444" lon="1.64937">
        <ele>1506</ele>
        <time>2018-11-18T13:56:01.000Z</time>
      </trkpt>
      <trkpt lat="42.68445" lon="1.64937">
        <ele>1506</ele>
        <time>2018-11-18T13:56:03.000Z</time>
      </trkpt>
      <trkpt lat="42.68446" lon="1.64938">
        <ele>1506</ele>
        <time>2018-11-18T13:56:05.000Z</time>
      </trkpt>
      <trkpt lat="42.68447" lon="1.64938">
        <ele>1506</ele>
        <time>2018-11-18T13:56:07.000Z</time>
      </trkpt>
      <trkpt lat="42.68449" lon="1.6494">
        <ele>1505</ele>
        <time>2018-11-18T13:56:09.000Z</time>
      </trkpt>
      <trkpt lat="42.68451" lon="1.64942">
        <ele>1505</ele>
        <time>2018-11-18T13:56:11.000Z</time>
      </trkpt>
      <trkpt lat="42.68451" lon="1.64944">
        <ele>1505</ele>
        <time>2018-11-18T13:56:13.000Z</time>
      </trkpt>
      <trkpt lat="42.68452" lon="1.64946">
        <ele>1505</ele>
        <time>2018-11-18T13:56:15.000Z</time>
      </trkpt>
      <trkpt lat="42.68453" lon="1.64948">
        <ele>1505</ele>
        <time>2018-11-18T13:56:17.000Z</time>
      </trkpt>
      <trkpt lat="42.68454" lon="1.64951">
        <ele>1505</ele>
        <time>2018-11-18T13:56:19.000Z</time>
      </trkpt>
      <trkpt lat="42.68454" lon="1.64953">
        <ele>1504</ele>
        <time>2018-11-18T13:56:21.000Z</time>
      </trkpt>
      <trkpt lat="42.68454" lon="1.64956">
        <ele>1504</ele>
        <time>2018-11-18T13:56:23.000Z</time>
      </trkpt>
      <trkpt lat="42.68455" lon="1.64959">
        <ele>1504</ele>
        <time>2018-11-18T13:56:25.000Z</time>
      </trkpt>
      <trkpt lat="42.68455" lon="1.64961">
        <ele>1504</ele>
        <time>2018-11-18T13:56:27.000Z</time>
      </trkpt>
      <trkpt lat="42.68456" lon="1.64963">
        <ele>1504</ele>
        <time>2018-11-18T13:56:29.000Z</time>
      </trkpt>
      <trkpt lat="42.68457" lon="1.64964">
        <ele>1504</ele>
        <time>2018-11-18T13:56:31.000Z</time>
      </trkpt>
      <trkpt lat="42.68458" lon="1.64964">
        <ele>1504</ele>
        <time>2018-11-18T13:56:33.000Z</time>
      </trkpt>
      <trkpt lat="42.68458" lon="1.64964">
        <ele>1504</ele>
        <time>2018-11-18T13:56:35.000Z</time>
      </trkpt>
      <trkpt lat="42.68458" lon="1.64965">
        <ele>1504</ele>
        <time>2018-11-18T13:56:37.000Z</time>
      </trkpt>
      <trkpt lat="42.68458" lon="1.64966">
        <ele>1504</ele>
        <time>2018-11-18T13:56:39.000Z</time>
      </trkpt>
      <trkpt lat="42.68458" lon="1.64966">
        <ele>1504</ele>
        <time>2018-11-18T13:56:41.000Z</time>
      </trkpt>
      <trkpt lat="42.68459" lon="1.64965">
        <ele>1503</ele>
        <time>2018-11-18T13:56:43.000Z</time>
      </trkpt>
      <trkpt lat="42.68461" lon="1.64965">
        <ele>1503</ele>
        <time>2018-11-18T13:56:45.000Z</time>
      </trkpt>
      <trkpt lat="42.68463" lon="1.64965">
        <ele>1503</ele>
        <time>2018-11-18T13:56:47.000Z</time>
      </trkpt>
      <trkpt lat="42.68464" lon="1.64966">
        <ele>1502</ele>
        <time>2018-11-18T13:56:49.000Z</time>
      </trkpt>
      <trkpt lat="42.68466" lon="1.64966">
        <ele>1502</ele>
        <time>2018-11-18T13:56:51.000Z</time>
      </trkpt>
      <trkpt lat="42.68467" lon="1.64967">
        <ele>1502</ele>
        <time>2018-11-18T13:56:53.000Z</time>
      </trkpt>
      <trkpt lat="42.68468" lon="1.64967">
        <ele>1502</ele>
        <time>2018-11-18T13:56:55.000Z</time>
      </trkpt>
      <trkpt lat="42.68469" lon="1.64967">
        <ele>1501</ele>
        <time>2018-11-18T13:56:57.000Z</time>
      </trkpt>
      <trkpt lat="42.68471" lon="1.64968">
        <ele>1501</ele>
        <time>2018-11-18T13:56:59.000Z</time>
      </trkpt>
      <trkpt lat="42.68472" lon="1.64968">
        <ele>1501</ele>
        <time>2018-11-18T13:57:01.000Z</time>
      </trkpt>
      <trkpt lat="42.68473" lon="1.64967">
        <ele>1501</ele>
        <time>2018-11-18T13:57:03.000Z</time>
      </trkpt>
      <trkpt lat="42.68475" lon="1.64969">
        <ele>1500</ele>
        <time>2018-11-18T13:57:05.000Z</time>
      </trkpt>
      <trkpt lat="42.68477" lon="1.6497">
        <ele>1500</ele>
        <time>2018-11-18T13:57:07.000Z</time>
      </trkpt>
      <trkpt lat="42.68478" lon="1.64971">
        <ele>1500</ele>
        <time>2018-11-18T13:57:09.000Z</time>
      </trkpt>
      <trkpt lat="42.68479" lon="1.64971">
        <ele>1500</ele>
        <time>2018-11-18T13:57:11.000Z</time>
      </trkpt>
      <trkpt lat="42.6848" lon="1.64973">
        <ele>1499</ele>
        <time>2018-11-18T13:57:13.000Z</time>
      </trkpt>
      <trkpt lat="42.68481" lon="1.64974">
        <ele>1499</ele>
        <time>2018-11-18T13:57:15.000Z</time>
      </trkpt>
      <trkpt lat="42.68482" lon="1.64976">
        <ele>1499</ele>
        <time>2018-11-18T13:57:17.000Z</time>
      </trkpt>
      <trkpt lat="42.68484" lon="1.64979">
        <ele>1499</ele>
        <time>2018-11-18T13:57:19.000Z</time>
      </trkpt>
      <trkpt lat="42.68485" lon="1.6498">
        <ele>1499</ele>
        <time>2018-11-18T13:57:21.000Z</time>
      </trkpt>
      <trkpt lat="42.68486" lon="1.64982">
        <ele>1498</ele>
        <time>2018-11-18T13:57:23.000Z</time>
      </trkpt>
      <trkpt lat="42.68487" lon="1.64983">
        <ele>1498</ele>
        <time>2018-11-18T13:57:25.000Z</time>
      </trkpt>
      <trkpt lat="42.68489" lon="1.64984">
        <ele>1498</ele>
        <time>2018-11-18T13:57:27.000Z</time>
      </trkpt>
      <trkpt lat="42.68491" lon="1.64985">
        <ele>1497</ele>
        <time>2018-11-18T13:57:29.000Z</time>
      </trkpt>
      <trkpt lat="42.68492" lon="1.64987">
        <ele>1497</ele>
        <time>2018-11-18T13:57:31.000Z</time>
      </trkpt>
      <trkpt lat="42.68493" lon="1.64989">
        <ele>1497</ele>
        <time>2018-11-18T13:57:33.000Z</time>
      </trkpt>
      <trkpt lat="42.68494" lon="1.6499">
        <ele>1497</ele>
        <time>2018-11-18T13:57:35.000Z</time>
      </trkpt>
      <trkpt lat="42.68495" lon="1.6499">
        <ele>1497</ele>
        <time>2018-11-18T13:57:37.000Z</time>
      </trkpt>
      <trkpt lat="42.68496" lon="1.6499">
        <ele>1497</ele>
        <time>2018-11-18T13:57:39.000Z</time>
      </trkpt>
      <trkpt lat="42.68497" lon="1.64991">
        <ele>1497</ele>
        <time>2018-11-18T13:57:41.000Z</time>
      </trkpt>
      <trkpt lat="42.68498" lon="1.64991">
        <ele>1497</ele>
        <time>2018-11-18T13:57:43.000Z</time>
      </trkpt>
      <trkpt lat="42.68499" lon="1.64991">
        <ele>1496</ele>
        <time>2018-11-18T13:57:45.000Z</time>
      </trkpt>
      <trkpt lat="42.68501" lon="1.64992">
        <ele>1496</ele>
        <time>2018-11-18T13:57:47.000Z</time>
      </trkpt>
      <trkpt lat="42.68502" lon="1.64993">
        <ele>1496</ele>
        <time>2018-11-18T13:57:49.000Z</time>
      </trkpt>
      <trkpt lat="42.68503" lon="1.64993">
        <ele>1496</ele>
        <time>2018-11-18T13:57:51.000Z</time>
      </trkpt>
      <trkpt lat="42.68505" lon="1.64994">
        <ele>1496</ele>
        <time>2018-11-18T13:57:53.000Z</time>
      </trkpt>
      <trkpt lat="42.68506" lon="1.64995">
        <ele>1496</ele>
        <time>2018-11-18T13:57:55.000Z</time>
      </trkpt>
      <trkpt lat="42.68508" lon="1.64997">
        <ele>1496</ele>
        <time>2018-11-18T13:57:57.000Z</time>
      </trkpt>
      <trkpt lat="42.6851" lon="1.64998">
        <ele>1496</ele>
        <time>2018-11-18T13:57:59.000Z</time>
      </trkpt>
      <trkpt lat="42.68511" lon="1.64998">
        <ele>1496</ele>
        <time>2018-11-18T13:58:01.000Z</time>
      </trkpt>
      <trkpt lat="42.68513" lon="1.64999">
        <ele>1496</ele>
        <time>2018-11-18T13:58:03.000Z</time>
      </trkpt>
      <trkpt lat="42.68515" lon="1.64999">
        <ele>1496</ele>
        <time>2018-11-18T13:58:05.000Z</time>
      </trkpt>
      <trkpt lat="42.68516" lon="1.65">
        <ele>1496</ele>
        <time>2018-11-18T13:58:07.000Z</time>
      </trkpt>
      <trkpt lat="42.68518" lon="1.65001">
        <ele>1496</ele>
        <time>2018-11-18T13:58:09.000Z</time>
      </trkpt>
      <trkpt lat="42.68519" lon="1.65002">
        <ele>1496</ele>
        <time>2018-11-18T13:58:11.000Z</time>
      </trkpt>
      <trkpt lat="42.68521" lon="1.65003">
        <ele>1496</ele>
        <time>2018-11-18T13:58:13.000Z</time>
      </trkpt>
      <trkpt lat="42.68523" lon="1.65003">
        <ele>1496</ele>
        <time>2018-11-18T13:58:15.000Z</time>
      </trkpt>
      <trkpt lat="42.68525" lon="1.65003">
        <ele>1496</ele>
        <time>2018-11-18T13:58:17.000Z</time>
      </trkpt>
      <trkpt lat="42.68526" lon="1.65003">
        <ele>1496</ele>
        <time>2018-11-18T13:58:19.000Z</time>
      </trkpt>
      <trkpt lat="42.68527" lon="1.65002">
        <ele>1496</ele>
        <time>2018-11-18T13:58:21.000Z</time>
      </trkpt>
      <trkpt lat="42.68528" lon="1.65002">
        <ele>1495</ele>
        <time>2018-11-18T13:58:23.000Z</time>
      </trkpt>
      <trkpt lat="42.6853" lon="1.65003">
        <ele>1495</ele>
        <time>2018-11-18T13:58:25.000Z</time>
      </trkpt>
      <trkpt lat="42.68531" lon="1.65004">
        <ele>1496</ele>
        <time>2018-11-18T13:58:27.000Z</time>
      </trkpt>
      <trkpt lat="42.68532" lon="1.65006">
        <ele>1496</ele>
        <time>2018-11-18T13:58:29.000Z</time>
      </trkpt>
      <trkpt lat="42.68533" lon="1.65007">
        <ele>1496</ele>
        <time>2018-11-18T13:58:31.000Z</time>
      </trkpt>
      <trkpt lat="42.68534" lon="1.65008">
        <ele>1496</ele>
        <time>2018-11-18T13:58:33.000Z</time>
      </trkpt>
      <trkpt lat="42.68534" lon="1.65009">
        <ele>1496</ele>
        <time>2018-11-18T13:58:35.000Z</time>
      </trkpt>
      <trkpt lat="42.68536" lon="1.6501">
        <ele>1496</ele>
        <time>2018-11-18T13:58:37.000Z</time>
      </trkpt>
      <trkpt lat="42.68538" lon="1.65013">
        <ele>1496</ele>
        <time>2018-11-18T13:58:39.000Z</time>
      </trkpt>
      <trkpt lat="42.6854" lon="1.65015">
        <ele>1496</ele>
        <time>2018-11-18T13:58:41.000Z</time>
      </trkpt>
      <trkpt lat="42.68541" lon="1.65017">
        <ele>1497</ele>
        <time>2018-11-18T13:58:43.000Z</time>
      </trkpt>
      <trkpt lat="42.68543" lon="1.65019">
        <ele>1497</ele>
        <time>2018-11-18T13:58:45.000Z</time>
      </trkpt>
      <trkpt lat="42.68544" lon="1.65019">
        <ele>1497</ele>
        <time>2018-11-18T13:58:47.000Z</time>
      </trkpt>
      <trkpt lat="42.68545" lon="1.6502">
        <ele>1497</ele>
        <time>2018-11-18T13:58:49.000Z</time>
      </trkpt>
      <trkpt lat="42.68547" lon="1.6502">
        <ele>1497</ele>
        <time>2018-11-18T13:58:51.000Z</time>
      </trkpt>
      <trkpt lat="42.68548" lon="1.65021">
        <ele>1497</ele>
        <time>2018-11-18T13:58:53.000Z</time>
      </trkpt>
      <trkpt lat="42.68549" lon="1.65022">
        <ele>1497</ele>
        <time>2018-11-18T13:58:55.000Z</time>
      </trkpt>
      <trkpt lat="42.6855" lon="1.65023">
        <ele>1497</ele>
        <time>2018-11-18T13:58:57.000Z</time>
      </trkpt>
      <trkpt lat="42.68551" lon="1.65024">
        <ele>1497</ele>
        <time>2018-11-18T13:58:59.000Z</time>
      </trkpt>
      <trkpt lat="42.68551" lon="1.65024">
        <ele>1497</ele>
        <time>2018-11-18T13:59:01.000Z</time>
      </trkpt>
      <trkpt lat="42.68551" lon="1.65024">
        <ele>1497</ele>
        <time>2018-11-18T13:59:03.000Z</time>
      </trkpt>
      <trkpt lat="42.68552" lon="1.65025">
        <ele>1497</ele>
        <time>2018-11-18T13:59:05.000Z</time>
      </trkpt>
      <trkpt lat="42.68553" lon="1.65025">
        <ele>1497</ele>
        <time>2018-11-18T13:59:07.000Z</time>
      </trkpt>
      <trkpt lat="42.68553" lon="1.65026">
        <ele>1497</ele>
        <time>2018-11-18T13:59:09.000Z</time>
      </trkpt>
      <trkpt lat="42.68553" lon="1.65026">
        <ele>1497</ele>
        <time>2018-11-18T13:59:11.000Z</time>
      </trkpt>
      <trkpt lat="42.68553" lon="1.65027">
        <ele>1497</ele>
        <time>2018-11-18T13:59:13.000Z</time>
      </trkpt>
      <trkpt lat="42.68554" lon="1.65026">
        <ele>1497</ele>
        <time>2018-11-18T13:59:15.000Z</time>
      </trkpt>
      <trkpt lat="42.68555" lon="1.65025">
        <ele>1497</ele>
        <time>2018-11-18T13:59:17.000Z</time>
      </trkpt>
      <trkpt lat="42.68556" lon="1.65026">
        <ele>1497</ele>
        <time>2018-11-18T13:59:19.000Z</time>
      </trkpt>
      <trkpt lat="42.68557" lon="1.65028">
        <ele>1497</ele>
        <time>2018-11-18T13:59:21.000Z</time>
      </trkpt>
      <trkpt lat="42.68558" lon="1.65029">
        <ele>1497</ele>
        <time>2018-11-18T13:59:23.000Z</time>
      </trkpt>
      <trkpt lat="42.68558" lon="1.6503">
        <ele>1497</ele>
        <time>2018-11-18T13:59:25.000Z</time>
      </trkpt>
      <trkpt lat="42.68558" lon="1.6503">
        <ele>1497</ele>
        <time>2018-11-18T13:59:27.000Z</time>
      </trkpt>
      <trkpt lat="42.68558" lon="1.6503">
        <ele>1497</ele>
        <time>2018-11-18T13:59:29.000Z</time>
      </trkpt>
      <trkpt lat="42.68559" lon="1.65031">
        <ele>1497</ele>
        <time>2018-11-18T13:59:31.000Z</time>
      </trkpt>
      <trkpt lat="42.68559" lon="1.65031">
        <ele>1497</ele>
        <time>2018-11-18T13:59:33.000Z</time>
      </trkpt>
      <trkpt lat="42.6856" lon="1.65031">
        <ele>1497</ele>
        <time>2018-11-18T13:59:35.000Z</time>
      </trkpt>
      <trkpt lat="42.68561" lon="1.6503">
        <ele>1497</ele>
        <time>2018-11-18T13:59:37.000Z</time>
      </trkpt>
      <trkpt lat="42.68562" lon="1.65029">
        <ele>1497</ele>
        <time>2018-11-18T13:59:39.000Z</time>
      </trkpt>
      <trkpt lat="42.68563" lon="1.65029">
        <ele>1497</ele>
        <time>2018-11-18T13:59:41.000Z</time>
      </trkpt>
      <trkpt lat="42.68564" lon="1.6503">
        <ele>1497</ele>
        <time>2018-11-18T13:59:43.000Z</time>
      </trkpt>
      <trkpt lat="42.68565" lon="1.65031">
        <ele>1497</ele>
        <time>2018-11-18T13:59:45.000Z</time>
      </trkpt>
      <trkpt lat="42.68565" lon="1.65033">
        <ele>1497</ele>
        <time>2018-11-18T13:59:47.000Z</time>
      </trkpt>
      <trkpt lat="42.68566" lon="1.65034">
        <ele>1497</ele>
        <time>2018-11-18T13:59:49.000Z</time>
      </trkpt>
      <trkpt lat="42.68566" lon="1.65035">
        <ele>1497</ele>
        <time>2018-11-18T13:59:51.000Z</time>
      </trkpt>
      <trkpt lat="42.68567" lon="1.65035">
        <ele>1497</ele>
        <time>2018-11-18T13:59:53.000Z</time>
      </trkpt>
      <trkpt lat="42.68568" lon="1.65034">
        <ele>1497</ele>
        <time>2018-11-18T13:59:55.000Z</time>
      </trkpt>
      <trkpt lat="42.6857" lon="1.65035">
        <ele>1497</ele>
        <time>2018-11-18T13:59:57.000Z</time>
      </trkpt>
      <trkpt lat="42.68571" lon="1.65036">
        <ele>1497</ele>
        <time>2018-11-18T13:59:59.000Z</time>
      </trkpt>
      <trkpt lat="42.68572" lon="1.65035">
        <ele>1497</ele>
        <time>2018-11-18T14:00:01.000Z</time>
      </trkpt>
      <trkpt lat="42.68572" lon="1.65034">
        <ele>1497</ele>
        <time>2018-11-18T14:00:03.000Z</time>
      </trkpt>
      <trkpt lat="42.68574" lon="1.65033">
        <ele>1496</ele>
        <time>2018-11-18T14:00:05.000Z</time>
      </trkpt>
      <trkpt lat="42.68575" lon="1.65032">
        <ele>1496</ele>
        <time>2018-11-18T14:00:07.000Z</time>
      </trkpt>
      <trkpt lat="42.68576" lon="1.65032">
        <ele>1496</ele>
        <time>2018-11-18T14:00:09.000Z</time>
      </trkpt>
      <trkpt lat="42.68578" lon="1.65031">
        <ele>1496</ele>
        <time>2018-11-18T14:00:11.000Z</time>
      </trkpt>
      <trkpt lat="42.68579" lon="1.6503">
        <ele>1495</ele>
        <time>2018-11-18T14:00:13.000Z</time>
      </trkpt>
      <trkpt lat="42.6858" lon="1.65029">
        <ele>1495</ele>
        <time>2018-11-18T14:00:15.000Z</time>
      </trkpt>
      <trkpt lat="42.6858" lon="1.65029">
        <ele>1495</ele>
        <time>2018-11-18T14:00:17.000Z</time>
      </trkpt>
      <trkpt lat="42.6858" lon="1.6503">
        <ele>1495</ele>
        <time>2018-11-18T14:00:19.000Z</time>
      </trkpt>
      <trkpt lat="42.6858" lon="1.6503">
        <ele>1495</ele>
        <time>2018-11-18T14:00:21.000Z</time>
      </trkpt>
      <trkpt lat="42.6858" lon="1.6503">
        <ele>1495</ele>
        <time>2018-11-18T14:00:23.000Z</time>
      </trkpt>
      <trkpt lat="42.6858" lon="1.6503">
        <ele>1495</ele>
        <time>2018-11-18T14:00:25.000Z</time>
      </trkpt>
      <trkpt lat="42.6858" lon="1.65031">
        <ele>1496</ele>
        <time>2018-11-18T14:00:27.000Z</time>
      </trkpt>
      <trkpt lat="42.68581" lon="1.65032">
        <ele>1496</ele>
        <time>2018-11-18T14:00:29.000Z</time>
      </trkpt>
      <trkpt lat="42.68581" lon="1.65033">
        <ele>1496</ele>
        <time>2018-11-18T14:00:31.000Z</time>
      </trkpt>
      <trkpt lat="42.68581" lon="1.65035">
        <ele>1496</ele>
        <time>2018-11-18T14:00:33.000Z</time>
      </trkpt>
      <trkpt lat="42.6858" lon="1.65036">
        <ele>1496</ele>
        <time>2018-11-18T14:00:35.000Z</time>
      </trkpt>
      <trkpt lat="42.6858" lon="1.65036">
        <ele>1496</ele>
        <time>2018-11-18T14:00:37.000Z</time>
      </trkpt>
      <trkpt lat="42.68579" lon="1.65037">
        <ele>1497</ele>
        <time>2018-11-18T14:00:39.000Z</time>
      </trkpt>
      <trkpt lat="42.68579" lon="1.65037">
        <ele>1497</ele>
        <time>2018-11-18T14:00:41.000Z</time>
      </trkpt>
      <trkpt lat="42.68579" lon="1.65037">
        <ele>1497</ele>
        <time>2018-11-18T14:00:43.000Z</time>
      </trkpt>
      <trkpt lat="42.68579" lon="1.65038">
        <ele>1497</ele>
        <time>2018-11-18T14:00:45.000Z</time>
      </trkpt>
      <trkpt lat="42.68578" lon="1.65038">
        <ele>1497</ele>
        <time>2018-11-18T14:00:47.000Z</time>
      </trkpt>
      <trkpt lat="42.68578" lon="1.65039">
        <ele>1497</ele>
        <time>2018-11-18T14:00:49.000Z</time>
      </trkpt>
      <trkpt lat="42.68578" lon="1.65039">
        <ele>1497</ele>
        <time>2018-11-18T14:00:51.000Z</time>
      </trkpt>
      <trkpt lat="42.68578" lon="1.65038">
        <ele>1497</ele>
        <time>2018-11-18T14:00:53.000Z</time>
      </trkpt>
      <trkpt lat="42.68578" lon="1.65039">
        <ele>1497</ele>
        <time>2018-11-18T14:00:55.000Z</time>
      </trkpt>
      <trkpt lat="42.68579" lon="1.65039">
        <ele>1497</ele>
        <time>2018-11-18T14:00:57.000Z</time>
      </trkpt>
      <trkpt lat="42.68579" lon="1.65039">
        <ele>1497</ele>
        <time>2018-11-18T14:00:59.000Z</time>
      </trkpt>
      <trkpt lat="42.68579" lon="1.65039">
        <ele>1497</ele>
        <time>2018-11-18T14:01:01.000Z</time>
      </trkpt>
      <trkpt lat="42.68579" lon="1.65039">
        <ele>1497</ele>
        <time>2018-11-18T14:01:03.000Z</time>
      </trkpt>
      <trkpt lat="42.68579" lon="1.65038">
        <ele>1497</ele>
        <time>2018-11-18T14:01:05.000Z</time>
      </trkpt>
      <trkpt lat="42.68579" lon="1.65038">
        <ele>1497</ele>
        <time>2018-11-18T14:01:07.000Z</time>
      </trkpt>
      <trkpt lat="42.68579" lon="1.65037">
        <ele>1497</ele>
        <time>2018-11-18T14:01:09.000Z</time>
      </trkpt>
      <trkpt lat="42.68579" lon="1.65038">
        <ele>1497</ele>
        <time>2018-11-18T14:01:11.000Z</time>
      </trkpt>
      <trkpt lat="42.68578" lon="1.65039">
        <ele>1497</ele>
        <time>2018-11-18T14:01:13.000Z</time>
      </trkpt>
      <trkpt lat="42.68578" lon="1.65039">
        <ele>1497</ele>
        <time>2018-11-18T14:01:15.000Z</time>
      </trkpt>
      <trkpt lat="42.68578" lon="1.6504">
        <ele>1497</ele>
        <time>2018-11-18T14:01:17.000Z</time>
      </trkpt>
      <trkpt lat="42.68579" lon="1.6504">
        <ele>1497</ele>
        <time>2018-11-18T14:01:19.000Z</time>
      </trkpt>
      <trkpt lat="42.68578" lon="1.6504">
        <ele>1497</ele>
        <time>2018-11-18T14:01:21.000Z</time>
      </trkpt>
      <trkpt lat="42.68578" lon="1.6504">
        <ele>1497</ele>
        <time>2018-11-18T14:01:23.000Z</time>
      </trkpt>
      <trkpt lat="42.68578" lon="1.6504">
        <ele>1497</ele>
        <time>2018-11-18T14:01:25.000Z</time>
      </trkpt>
      <trkpt lat="42.68578" lon="1.6504">
        <ele>1497</ele>
        <time>2018-11-18T14:01:27.000Z</time>
      </trkpt>
      <trkpt lat="42.68578" lon="1.65038">
        <ele>1497</ele>
        <time>2018-11-18T14:01:29.000Z</time>
      </trkpt>
      <trkpt lat="42.6858" lon="1.65037">
        <ele>1497</ele>
        <time>2018-11-18T14:01:31.000Z</time>
      </trkpt>
      <trkpt lat="42.68581" lon="1.65035">
        <ele>1496</ele>
        <time>2018-11-18T14:01:33.000Z</time>
      </trkpt>
      <trkpt lat="42.68582" lon="1.65035">
        <ele>1496</ele>
        <time>2018-11-18T14:01:35.000Z</time>
      </trkpt>
      <trkpt lat="42.68584" lon="1.65034">
        <ele>1496</ele>
        <time>2018-11-18T14:01:37.000Z</time>
      </trkpt>
      <trkpt lat="42.68586" lon="1.65034">
        <ele>1496</ele>
        <time>2018-11-18T14:01:39.000Z</time>
      </trkpt>
      <trkpt lat="42.68588" lon="1.65035">
        <ele>1496</ele>
        <time>2018-11-18T14:01:41.000Z</time>
      </trkpt>
      <trkpt lat="42.68589" lon="1.65035">
        <ele>1496</ele>
        <time>2018-11-18T14:01:43.000Z</time>
      </trkpt>
      <trkpt lat="42.6859" lon="1.65037">
        <ele>1496</ele>
        <time>2018-11-18T14:01:45.000Z</time>
      </trkpt>
      <trkpt lat="42.68592" lon="1.65039">
        <ele>1496</ele>
        <time>2018-11-18T14:01:47.000Z</time>
      </trkpt>
      <trkpt lat="42.68593" lon="1.65039">
        <ele>1496</ele>
        <time>2018-11-18T14:01:49.000Z</time>
      </trkpt>
      <trkpt lat="42.68594" lon="1.6504">
        <ele>1496</ele>
        <time>2018-11-18T14:01:51.000Z</time>
      </trkpt>
      <trkpt lat="42.68594" lon="1.65039">
        <ele>1496</ele>
        <time>2018-11-18T14:01:53.000Z</time>
      </trkpt>
      <trkpt lat="42.68595" lon="1.65037">
        <ele>1496</ele>
        <time>2018-11-18T14:01:55.000Z</time>
      </trkpt>
      <trkpt lat="42.68596" lon="1.65036">
        <ele>1496</ele>
        <time>2018-11-18T14:01:57.000Z</time>
      </trkpt>
      <trkpt lat="42.68597" lon="1.65034">
        <ele>1495</ele>
        <time>2018-11-18T14:01:59.000Z</time>
      </trkpt>
      <trkpt lat="42.68598" lon="1.65033">
        <ele>1495</ele>
        <time>2018-11-18T14:02:01.000Z</time>
      </trkpt>
      <trkpt lat="42.686" lon="1.65032">
        <ele>1495</ele>
        <time>2018-11-18T14:02:03.000Z</time>
      </trkpt>
      <trkpt lat="42.68602" lon="1.65032">
        <ele>1495</ele>
        <time>2018-11-18T14:02:05.000Z</time>
      </trkpt>
      <trkpt lat="42.68603" lon="1.65032">
        <ele>1495</ele>
        <time>2018-11-18T14:02:07.000Z</time>
      </trkpt>
      <trkpt lat="42.68605" lon="1.65033">
        <ele>1495</ele>
        <time>2018-11-18T14:02:09.000Z</time>
      </trkpt>
      <trkpt lat="42.68606" lon="1.65034">
        <ele>1495</ele>
        <time>2018-11-18T14:02:11.000Z</time>
      </trkpt>
      <trkpt lat="42.68607" lon="1.65035">
        <ele>1495</ele>
        <time>2018-11-18T14:02:13.000Z</time>
      </trkpt>
      <trkpt lat="42.68608" lon="1.65036">
        <ele>1495</ele>
        <time>2018-11-18T14:02:15.000Z</time>
      </trkpt>
      <trkpt lat="42.68609" lon="1.65037">
        <ele>1495</ele>
        <time>2018-11-18T14:02:17.000Z</time>
      </trkpt>
      <trkpt lat="42.68609" lon="1.65037">
        <ele>1495</ele>
        <time>2018-11-18T14:02:19.000Z</time>
      </trkpt>
      <trkpt lat="42.6861" lon="1.65038">
        <ele>1496</ele>
        <time>2018-11-18T14:02:21.000Z</time>
      </trkpt>
      <trkpt lat="42.6861" lon="1.65038">
        <ele>1496</ele>
        <time>2018-11-18T14:02:23.000Z</time>
      </trkpt>
      <trkpt lat="42.68611" lon="1.65039">
        <ele>1496</ele>
        <time>2018-11-18T14:02:25.000Z</time>
      </trkpt>
      <trkpt lat="42.68611" lon="1.65039">
        <ele>1496</ele>
        <time>2018-11-18T14:02:27.000Z</time>
      </trkpt>
      <trkpt lat="42.68611" lon="1.65039">
        <ele>1496</ele>
        <time>2018-11-18T14:02:29.000Z</time>
      </trkpt>
      <trkpt lat="42.68611" lon="1.65039">
        <ele>1496</ele>
        <time>2018-11-18T14:02:31.000Z</time>
      </trkpt>
      <trkpt lat="42.68611" lon="1.65039">
        <ele>1496</ele>
        <time>2018-11-18T14:02:33.000Z</time>
      </trkpt>
      <trkpt lat="42.68612" lon="1.65039">
        <ele>1496</ele>
        <time>2018-11-18T14:02:35.000Z</time>
      </trkpt>
      <trkpt lat="42.68613" lon="1.65039">
        <ele>1496</ele>
        <time>2018-11-18T14:02:37.000Z</time>
      </trkpt>
      <trkpt lat="42.68613" lon="1.65039">
        <ele>1496</ele>
        <time>2018-11-18T14:02:39.000Z</time>
      </trkpt>
      <trkpt lat="42.68613" lon="1.65039">
        <ele>1496</ele>
        <time>2018-11-18T14:02:41.000Z</time>
      </trkpt>
      <trkpt lat="42.68614" lon="1.65039">
        <ele>1496</ele>
        <time>2018-11-18T14:02:43.000Z</time>
      </trkpt>
      <trkpt lat="42.68615" lon="1.65039">
        <ele>1496</ele>
        <time>2018-11-18T14:02:45.000Z</time>
      </trkpt>
      <trkpt lat="42.68615" lon="1.65038">
        <ele>1495</ele>
        <time>2018-11-18T14:02:47.000Z</time>
      </trkpt>
      <trkpt lat="42.68615" lon="1.65039">
        <ele>1496</ele>
        <time>2018-11-18T14:02:49.000Z</time>
      </trkpt>
      <trkpt lat="42.68616" lon="1.65038">
        <ele>1495</ele>
        <time>2018-11-18T14:02:51.000Z</time>
      </trkpt>
      <trkpt lat="42.68616" lon="1.65039">
        <ele>1496</ele>
        <time>2018-11-18T14:02:53.000Z</time>
      </trkpt>
      <trkpt lat="42.68617" lon="1.65039">
        <ele>1496</ele>
        <time>2018-11-18T14:02:55.000Z</time>
      </trkpt>
      <trkpt lat="42.68619" lon="1.65039">
        <ele>1495</ele>
        <time>2018-11-18T14:02:57.000Z</time>
      </trkpt>
      <trkpt lat="42.6862" lon="1.65039">
        <ele>1495</ele>
        <time>2018-11-18T14:02:59.000Z</time>
      </trkpt>
      <trkpt lat="42.68622" lon="1.65038">
        <ele>1495</ele>
        <time>2018-11-18T14:03:01.000Z</time>
      </trkpt>
      <trkpt lat="42.68622" lon="1.65036">
        <ele>1495</ele>
        <time>2018-11-18T14:03:03.000Z</time>
      </trkpt>
      <trkpt lat="42.68623" lon="1.65035">
        <ele>1495</ele>
        <time>2018-11-18T14:03:05.000Z</time>
      </trkpt>
      <trkpt lat="42.68623" lon="1.65034">
        <ele>1495</ele>
        <time>2018-11-18T14:03:07.000Z</time>
      </trkpt>
      <trkpt lat="42.68623" lon="1.65033">
        <ele>1494</ele>
        <time>2018-11-18T14:03:09.000Z</time>
      </trkpt>
      <trkpt lat="42.68623" lon="1.65032">
        <ele>1494</ele>
        <time>2018-11-18T14:03:11.000Z</time>
      </trkpt>
      <trkpt lat="42.68623" lon="1.6503">
        <ele>1494</ele>
        <time>2018-11-18T14:03:13.000Z</time>
      </trkpt>
      <trkpt lat="42.68624" lon="1.65029">
        <ele>1494</ele>
        <time>2018-11-18T14:03:15.000Z</time>
      </trkpt>
      <trkpt lat="42.68625" lon="1.65028">
        <ele>1494</ele>
        <time>2018-11-18T14:03:17.000Z</time>
      </trkpt>
      <trkpt lat="42.68625" lon="1.65028">
        <ele>1494</ele>
        <time>2018-11-18T14:03:19.000Z</time>
      </trkpt>
      <trkpt lat="42.68626" lon="1.65026">
        <ele>1493</ele>
        <time>2018-11-18T14:03:21.000Z</time>
      </trkpt>
      <trkpt lat="42.68627" lon="1.65025">
        <ele>1493</ele>
        <time>2018-11-18T14:03:23.000Z</time>
      </trkpt>
      <trkpt lat="42.68628" lon="1.65025">
        <ele>1493</ele>
        <time>2018-11-18T14:03:25.000Z</time>
      </trkpt>
      <trkpt lat="42.68629" lon="1.65024">
        <ele>1493</ele>
        <time>2018-11-18T14:03:27.000Z</time>
      </trkpt>
      <trkpt lat="42.68631" lon="1.65023">
        <ele>1493</ele>
        <time>2018-11-18T14:03:29.000Z</time>
      </trkpt>
      <trkpt lat="42.68632" lon="1.65022">
        <ele>1492</ele>
        <time>2018-11-18T14:03:31.000Z</time>
      </trkpt>
      <trkpt lat="42.68634" lon="1.6502">
        <ele>1492</ele>
        <time>2018-11-18T14:03:33.000Z</time>
      </trkpt>
      <trkpt lat="42.68635" lon="1.6502">
        <ele>1492</ele>
        <time>2018-11-18T14:03:35.000Z</time>
      </trkpt>
      <trkpt lat="42.68637" lon="1.6502">
        <ele>1492</ele>
        <time>2018-11-18T14:03:37.000Z</time>
      </trkpt>
      <trkpt lat="42.68638" lon="1.65019">
        <ele>1492</ele>
        <time>2018-11-18T14:03:39.000Z</time>
      </trkpt>
      <trkpt lat="42.6864" lon="1.65019">
        <ele>1491</ele>
        <time>2018-11-18T14:03:41.000Z</time>
      </trkpt>
      <trkpt lat="42.68641" lon="1.65019">
        <ele>1491</ele>
        <time>2018-11-18T14:03:43.000Z</time>
      </trkpt>
      <trkpt lat="42.68642" lon="1.65018">
        <ele>1491</ele>
        <time>2018-11-18T14:03:45.000Z</time>
      </trkpt>
      <trkpt lat="42.68643" lon="1.65018">
        <ele>1491</ele>
        <time>2018-11-18T14:03:47.000Z</time>
      </trkpt>
      <trkpt lat="42.68645" lon="1.65018">
        <ele>1491</ele>
        <time>2018-11-18T14:03:49.000Z</time>
      </trkpt>
      <trkpt lat="42.68646" lon="1.65017">
        <ele>1491</ele>
        <time>2018-11-18T14:03:51.000Z</time>
      </trkpt>
      <trkpt lat="42.68647" lon="1.65017">
        <ele>1491</ele>
        <time>2018-11-18T14:03:53.000Z</time>
      </trkpt>
      <trkpt lat="42.68649" lon="1.65017">
        <ele>1491</ele>
        <time>2018-11-18T14:03:55.000Z</time>
      </trkpt>
      <trkpt lat="42.68651" lon="1.65017">
        <ele>1491</ele>
        <time>2018-11-18T14:03:57.000Z</time>
      </trkpt>
      <trkpt lat="42.68652" lon="1.65018">
        <ele>1491</ele>
        <time>2018-11-18T14:03:59.000Z</time>
      </trkpt>
      <trkpt lat="42.68654" lon="1.65019">
        <ele>1491</ele>
        <time>2018-11-18T14:04:01.000Z</time>
      </trkpt>
      <trkpt lat="42.68655" lon="1.65019">
        <ele>1491</ele>
        <time>2018-11-18T14:04:03.000Z</time>
      </trkpt>
      <trkpt lat="42.68656" lon="1.6502">
        <ele>1491</ele>
        <time>2018-11-18T14:04:05.000Z</time>
      </trkpt>
      <trkpt lat="42.68657" lon="1.65021">
        <ele>1491</ele>
        <time>2018-11-18T14:04:07.000Z</time>
      </trkpt>
      <trkpt lat="42.68658" lon="1.65021">
        <ele>1491</ele>
        <time>2018-11-18T14:04:09.000Z</time>
      </trkpt>
      <trkpt lat="42.68659" lon="1.65021">
        <ele>1491</ele>
        <time>2018-11-18T14:04:11.000Z</time>
      </trkpt>
      <trkpt lat="42.6866" lon="1.65021">
        <ele>1491</ele>
        <time>2018-11-18T14:04:13.000Z</time>
      </trkpt>
      <trkpt lat="42.68661" lon="1.65022">
        <ele>1491</ele>
        <time>2018-11-18T14:04:15.000Z</time>
      </trkpt>
      <trkpt lat="42.68663" lon="1.65022">
        <ele>1491</ele>
        <time>2018-11-18T14:04:17.000Z</time>
      </trkpt>
      <trkpt lat="42.68664" lon="1.65022">
        <ele>1491</ele>
        <time>2018-11-18T14:04:19.000Z</time>
      </trkpt>
      <trkpt lat="42.68665" lon="1.65022">
        <ele>1491</ele>
        <time>2018-11-18T14:04:21.000Z</time>
      </trkpt>
      <trkpt lat="42.68665" lon="1.65022">
        <ele>1491</ele>
        <time>2018-11-18T14:04:23.000Z</time>
      </trkpt>
      <trkpt lat="42.68666" lon="1.65021">
        <ele>1491</ele>
        <time>2018-11-18T14:04:25.000Z</time>
      </trkpt>
      <trkpt lat="42.68667" lon="1.65021">
        <ele>1491</ele>
        <time>2018-11-18T14:04:27.000Z</time>
      </trkpt>
      <trkpt lat="42.68669" lon="1.65021">
        <ele>1490</ele>
        <time>2018-11-18T14:04:29.000Z</time>
      </trkpt>
      <trkpt lat="42.6867" lon="1.6502">
        <ele>1490</ele>
        <time>2018-11-18T14:04:31.000Z</time>
      </trkpt>
      <trkpt lat="42.68671" lon="1.6502">
        <ele>1490</ele>
        <time>2018-11-18T14:04:33.000Z</time>
      </trkpt>
      <trkpt lat="42.68673" lon="1.6502">
        <ele>1490</ele>
        <time>2018-11-18T14:04:35.000Z</time>
      </trkpt>
      <trkpt lat="42.68674" lon="1.65019">
        <ele>1490</ele>
        <time>2018-11-18T14:04:37.000Z</time>
      </trkpt>
      <trkpt lat="42.68674" lon="1.65018">
        <ele>1489</ele>
        <time>2018-11-18T14:04:39.000Z</time>
      </trkpt>
      <trkpt lat="42.68675" lon="1.65017">
        <ele>1489</ele>
        <time>2018-11-18T14:04:41.000Z</time>
      </trkpt>
      <trkpt lat="42.68676" lon="1.65016">
        <ele>1489</ele>
        <time>2018-11-18T14:04:43.000Z</time>
      </trkpt>
      <trkpt lat="42.68677" lon="1.65016">
        <ele>1489</ele>
        <time>2018-11-18T14:04:45.000Z</time>
      </trkpt>
      <trkpt lat="42.68677" lon="1.65015">
        <ele>1489</ele>
        <time>2018-11-18T14:04:47.000Z</time>
      </trkpt>
      <trkpt lat="42.68678" lon="1.65014">
        <ele>1489</ele>
        <time>2018-11-18T14:04:49.000Z</time>
      </trkpt>
      <trkpt lat="42.68679" lon="1.65014">
        <ele>1489</ele>
        <time>2018-11-18T14:04:51.000Z</time>
      </trkpt>
      <trkpt lat="42.6868" lon="1.65014">
        <ele>1488</ele>
        <time>2018-11-18T14:04:53.000Z</time>
      </trkpt>
      <trkpt lat="42.68681" lon="1.65014">
        <ele>1488</ele>
        <time>2018-11-18T14:04:55.000Z</time>
      </trkpt>
      <trkpt lat="42.68682" lon="1.65013">
        <ele>1488</ele>
        <time>2018-11-18T14:04:57.000Z</time>
      </trkpt>
      <trkpt lat="42.68684" lon="1.65014">
        <ele>1488</ele>
        <time>2018-11-18T14:04:59.000Z</time>
      </trkpt>
      <trkpt lat="42.68685" lon="1.65014">
        <ele>1488</ele>
        <time>2018-11-18T14:05:01.000Z</time>
      </trkpt>
      <trkpt lat="42.68686" lon="1.65014">
        <ele>1488</ele>
        <time>2018-11-18T14:05:03.000Z</time>
      </trkpt>
      <trkpt lat="42.68687" lon="1.65014">
        <ele>1488</ele>
        <time>2018-11-18T14:05:05.000Z</time>
      </trkpt>
      <trkpt lat="42.68687" lon="1.65015">
        <ele>1488</ele>
        <time>2018-11-18T14:05:07.000Z</time>
      </trkpt>
      <trkpt lat="42.68688" lon="1.65015">
        <ele>1488</ele>
        <time>2018-11-18T14:05:09.000Z</time>
      </trkpt>
      <trkpt lat="42.68688" lon="1.65015">
        <ele>1488</ele>
        <time>2018-11-18T14:05:11.000Z</time>
      </trkpt>
      <trkpt lat="42.68688" lon="1.65015">
        <ele>1488</ele>
        <time>2018-11-18T14:05:13.000Z</time>
      </trkpt>
      <trkpt lat="42.68689" lon="1.65016">
        <ele>1488</ele>
        <time>2018-11-18T14:05:15.000Z</time>
      </trkpt>
      <trkpt lat="42.68689" lon="1.65016">
        <ele>1488</ele>
        <time>2018-11-18T14:05:17.000Z</time>
      </trkpt>
      <trkpt lat="42.6869" lon="1.65015">
        <ele>1488</ele>
        <time>2018-11-18T14:05:19.000Z</time>
      </trkpt>
      <trkpt lat="42.6869" lon="1.65015">
        <ele>1488</ele>
        <time>2018-11-18T14:05:21.000Z</time>
      </trkpt>
      <trkpt lat="42.68691" lon="1.65015">
        <ele>1488</ele>
        <time>2018-11-18T14:05:23.000Z</time>
      </trkpt>
      <trkpt lat="42.68692" lon="1.65015">
        <ele>1488</ele>
        <time>2018-11-18T14:05:25.000Z</time>
      </trkpt>
      <trkpt lat="42.68692" lon="1.65015">
        <ele>1488</ele>
        <time>2018-11-18T14:05:27.000Z</time>
      </trkpt>
      <trkpt lat="42.68694" lon="1.65016">
        <ele>1488</ele>
        <time>2018-11-18T14:05:29.000Z</time>
      </trkpt>
      <trkpt lat="42.68694" lon="1.65016">
        <ele>1488</ele>
        <time>2018-11-18T14:05:31.000Z</time>
      </trkpt>
      <trkpt lat="42.68695" lon="1.65016">
        <ele>1488</ele>
        <time>2018-11-18T14:05:33.000Z</time>
      </trkpt>
      <trkpt lat="42.68695" lon="1.65016">
        <ele>1488</ele>
        <time>2018-11-18T14:05:35.000Z</time>
      </trkpt>
      <trkpt lat="42.68696" lon="1.65014">
        <ele>1488</ele>
        <time>2018-11-18T14:05:37.000Z</time>
      </trkpt>
      <trkpt lat="42.68697" lon="1.65013">
        <ele>1487</ele>
        <time>2018-11-18T14:05:39.000Z</time>
      </trkpt>
      <trkpt lat="42.68697" lon="1.65013">
        <ele>1487</ele>
        <time>2018-11-18T14:05:41.000Z</time>
      </trkpt>
      <trkpt lat="42.68699" lon="1.65013">
        <ele>1487</ele>
        <time>2018-11-18T14:05:43.000Z</time>
      </trkpt>
      <trkpt lat="42.687" lon="1.65013">
        <ele>1487</ele>
        <time>2018-11-18T14:05:45.000Z</time>
      </trkpt>
      <trkpt lat="42.68701" lon="1.65013">
        <ele>1487</ele>
        <time>2018-11-18T14:05:47.000Z</time>
      </trkpt>
      <trkpt lat="42.68702" lon="1.65013">
        <ele>1486</ele>
        <time>2018-11-18T14:05:49.000Z</time>
      </trkpt>
      <trkpt lat="42.68704" lon="1.65014">
        <ele>1486</ele>
        <time>2018-11-18T14:05:51.000Z</time>
      </trkpt>
      <trkpt lat="42.68705" lon="1.65013">
        <ele>1486</ele>
        <time>2018-11-18T14:05:53.000Z</time>
      </trkpt>
      <trkpt lat="42.68706" lon="1.65013">
        <ele>1486</ele>
        <time>2018-11-18T14:05:55.000Z</time>
      </trkpt>
      <trkpt lat="42.68707" lon="1.65013">
        <ele>1486</ele>
        <time>2018-11-18T14:05:57.000Z</time>
      </trkpt>
      <trkpt lat="42.68707" lon="1.65012">
        <ele>1485</ele>
        <time>2018-11-18T14:05:59.000Z</time>
      </trkpt>
      <trkpt lat="42.68708" lon="1.65012">
        <ele>1485</ele>
        <time>2018-11-18T14:06:01.000Z</time>
      </trkpt>
      <trkpt lat="42.68709" lon="1.65012">
        <ele>1485</ele>
        <time>2018-11-18T14:06:03.000Z</time>
      </trkpt>
      <trkpt lat="42.68709" lon="1.6501">
        <ele>1485</ele>
        <time>2018-11-18T14:06:05.000Z</time>
      </trkpt>
      <trkpt lat="42.68711" lon="1.65009">
        <ele>1484</ele>
        <time>2018-11-18T14:06:07.000Z</time>
      </trkpt>
      <trkpt lat="42.68713" lon="1.65008">
        <ele>1483</ele>
        <time>2018-11-18T14:06:09.000Z</time>
      </trkpt>
      <trkpt lat="42.68715" lon="1.65008">
        <ele>1483</ele>
        <time>2018-11-18T14:06:11.000Z</time>
      </trkpt>
      <trkpt lat="42.68716" lon="1.65008">
        <ele>1483</ele>
        <time>2018-11-18T14:06:13.000Z</time>
      </trkpt>
      <trkpt lat="42.68717" lon="1.65008">
        <ele>1483</ele>
        <time>2018-11-18T14:06:15.000Z</time>
      </trkpt>
      <trkpt lat="42.68717" lon="1.65006">
        <ele>1482</ele>
        <time>2018-11-18T14:06:17.000Z</time>
      </trkpt>
      <trkpt lat="42.68719" lon="1.65006">
        <ele>1482</ele>
        <time>2018-11-18T14:06:19.000Z</time>
      </trkpt>
      <trkpt lat="42.6872" lon="1.65007">
        <ele>1482</ele>
        <time>2018-11-18T14:06:21.000Z</time>
      </trkpt>
      <trkpt lat="42.68722" lon="1.65007">
        <ele>1482</ele>
        <time>2018-11-18T14:06:23.000Z</time>
      </trkpt>
      <trkpt lat="42.68723" lon="1.65008">
        <ele>1482</ele>
        <time>2018-11-18T14:06:25.000Z</time>
      </trkpt>
      <trkpt lat="42.68724" lon="1.65008">
        <ele>1482</ele>
        <time>2018-11-18T14:06:27.000Z</time>
      </trkpt>
      <trkpt lat="42.68725" lon="1.65008">
        <ele>1481</ele>
        <time>2018-11-18T14:06:29.000Z</time>
      </trkpt>
      <trkpt lat="42.68726" lon="1.65007">
        <ele>1481</ele>
        <time>2018-11-18T14:06:31.000Z</time>
      </trkpt>
      <trkpt lat="42.68727" lon="1.65007">
        <ele>1481</ele>
        <time>2018-11-18T14:06:33.000Z</time>
      </trkpt>
      <trkpt lat="42.68729" lon="1.65008">
        <ele>1481</ele>
        <time>2018-11-18T14:06:35.000Z</time>
      </trkpt>
      <trkpt lat="42.6873" lon="1.65008">
        <ele>1481</ele>
        <time>2018-11-18T14:06:37.000Z</time>
      </trkpt>
      <trkpt lat="42.68731" lon="1.65009">
        <ele>1481</ele>
        <time>2018-11-18T14:06:39.000Z</time>
      </trkpt>
      <trkpt lat="42.68732" lon="1.65009">
        <ele>1481</ele>
        <time>2018-11-18T14:06:41.000Z</time>
      </trkpt>
      <trkpt lat="42.68733" lon="1.6501">
        <ele>1481</ele>
        <time>2018-11-18T14:06:43.000Z</time>
      </trkpt>
      <trkpt lat="42.68734" lon="1.65011">
        <ele>1481</ele>
        <time>2018-11-18T14:06:45.000Z</time>
      </trkpt>
      <trkpt lat="42.68736" lon="1.65012">
        <ele>1481</ele>
        <time>2018-11-18T14:06:47.000Z</time>
      </trkpt>
      <trkpt lat="42.68737" lon="1.65013">
        <ele>1481</ele>
        <time>2018-11-18T14:06:49.000Z</time>
      </trkpt>
      <trkpt lat="42.68737" lon="1.65013">
        <ele>1481</ele>
        <time>2018-11-18T14:06:51.000Z</time>
      </trkpt>
      <trkpt lat="42.68737" lon="1.65013">
        <ele>1481</ele>
        <time>2018-11-18T14:06:53.000Z</time>
      </trkpt>
      <trkpt lat="42.68737" lon="1.65014">
        <ele>1481</ele>
        <time>2018-11-18T14:06:55.000Z</time>
      </trkpt>
      <trkpt lat="42.68737" lon="1.65014">
        <ele>1481</ele>
        <time>2018-11-18T14:06:57.000Z</time>
      </trkpt>
      <trkpt lat="42.68737" lon="1.65015">
        <ele>1481</ele>
        <time>2018-11-18T14:06:59.000Z</time>
      </trkpt>
      <trkpt lat="42.68738" lon="1.65015">
        <ele>1481</ele>
        <time>2018-11-18T14:07:01.000Z</time>
      </trkpt>
      <trkpt lat="42.68738" lon="1.65014">
        <ele>1481</ele>
        <time>2018-11-18T14:07:03.000Z</time>
      </trkpt>
      <trkpt lat="42.68738" lon="1.65014">
        <ele>1481</ele>
        <time>2018-11-18T14:07:05.000Z</time>
      </trkpt>
      <trkpt lat="42.68738" lon="1.65014">
        <ele>1481</ele>
        <time>2018-11-18T14:07:07.000Z</time>
      </trkpt>
      <trkpt lat="42.68738" lon="1.65014">
        <ele>1481</ele>
        <time>2018-11-18T14:07:09.000Z</time>
      </trkpt>
      <trkpt lat="42.68739" lon="1.65014">
        <ele>1481</ele>
        <time>2018-11-18T14:07:11.000Z</time>
      </trkpt>
      <trkpt lat="42.6874" lon="1.65015">
        <ele>1481</ele>
        <time>2018-11-18T14:07:13.000Z</time>
      </trkpt>
      <trkpt lat="42.6874" lon="1.65014">
        <ele>1481</ele>
        <time>2018-11-18T14:07:15.000Z</time>
      </trkpt>
      <trkpt lat="42.68741" lon="1.65014">
        <ele>1481</ele>
        <time>2018-11-18T14:07:17.000Z</time>
      </trkpt>
      <trkpt lat="42.68742" lon="1.65014">
        <ele>1481</ele>
        <time>2018-11-18T14:07:19.000Z</time>
      </trkpt>
      <trkpt lat="42.68743" lon="1.65014">
        <ele>1481</ele>
        <time>2018-11-18T14:07:21.000Z</time>
      </trkpt>
      <trkpt lat="42.68743" lon="1.65015">
        <ele>1480</ele>
        <time>2018-11-18T14:07:23.000Z</time>
      </trkpt>
      <trkpt lat="42.68744" lon="1.65015">
        <ele>1481</ele>
        <time>2018-11-18T14:07:25.000Z</time>
      </trkpt>
      <trkpt lat="42.68744" lon="1.65015">
        <ele>1481</ele>
        <time>2018-11-18T14:07:27.000Z</time>
      </trkpt>
      <trkpt lat="42.68744" lon="1.65014">
        <ele>1480</ele>
        <time>2018-11-18T14:07:29.000Z</time>
      </trkpt>
      <trkpt lat="42.68744" lon="1.65013">
        <ele>1480</ele>
        <time>2018-11-18T14:07:31.000Z</time>
      </trkpt>
      <trkpt lat="42.68744" lon="1.65012">
        <ele>1480</ele>
        <time>2018-11-18T14:07:33.000Z</time>
      </trkpt>
      <trkpt lat="42.68745" lon="1.65011">
        <ele>1479</ele>
        <time>2018-11-18T14:07:35.000Z</time>
      </trkpt>
      <trkpt lat="42.68746" lon="1.65011">
        <ele>1479</ele>
        <time>2018-11-18T14:07:37.000Z</time>
      </trkpt>
      <trkpt lat="42.68748" lon="1.65011">
        <ele>1479</ele>
        <time>2018-11-18T14:07:39.000Z</time>
      </trkpt>
      <trkpt lat="42.68749" lon="1.6501">
        <ele>1478</ele>
        <time>2018-11-18T14:07:41.000Z</time>
      </trkpt>
      <trkpt lat="42.6875" lon="1.65009">
        <ele>1478</ele>
        <time>2018-11-18T14:07:43.000Z</time>
      </trkpt>
      <trkpt lat="42.68752" lon="1.6501">
        <ele>1478</ele>
        <time>2018-11-18T14:07:45.000Z</time>
      </trkpt>
      <trkpt lat="42.68754" lon="1.65011">
        <ele>1478</ele>
        <time>2018-11-18T14:07:47.000Z</time>
      </trkpt>
      <trkpt lat="42.68755" lon="1.65011">
        <ele>1478</ele>
        <time>2018-11-18T14:07:49.000Z</time>
      </trkpt>
      <trkpt lat="42.68757" lon="1.65011">
        <ele>1478</ele>
        <time>2018-11-18T14:07:51.000Z</time>
      </trkpt>
      <trkpt lat="42.68758" lon="1.65012">
        <ele>1478</ele>
        <time>2018-11-18T14:07:53.000Z</time>
      </trkpt>
      <trkpt lat="42.68759" lon="1.65013">
        <ele>1479</ele>
        <time>2018-11-18T14:07:55.000Z</time>
      </trkpt>
      <trkpt lat="42.68761" lon="1.65013">
        <ele>1479</ele>
        <time>2018-11-18T14:07:57.000Z</time>
      </trkpt>
      <trkpt lat="42.68761" lon="1.65013">
        <ele>1479</ele>
        <time>2018-11-18T14:07:59.000Z</time>
      </trkpt>
      <trkpt lat="42.68762" lon="1.65013">
        <ele>1479</ele>
        <time>2018-11-18T14:08:01.000Z</time>
      </trkpt>
      <trkpt lat="42.68763" lon="1.65013">
        <ele>1479</ele>
        <time>2018-11-18T14:08:03.000Z</time>
      </trkpt>
      <trkpt lat="42.68763" lon="1.65014">
        <ele>1479</ele>
        <time>2018-11-18T14:08:05.000Z</time>
      </trkpt>
      <trkpt lat="42.68763" lon="1.65014">
        <ele>1479</ele>
        <time>2018-11-18T14:08:07.000Z</time>
      </trkpt>
      <trkpt lat="42.68765" lon="1.65014">
        <ele>1479</ele>
        <time>2018-11-18T14:08:09.000Z</time>
      </trkpt>
      <trkpt lat="42.68765" lon="1.65013">
        <ele>1479</ele>
        <time>2018-11-18T14:08:11.000Z</time>
      </trkpt>
      <trkpt lat="42.68765" lon="1.65013">
        <ele>1479</ele>
        <time>2018-11-18T14:08:13.000Z</time>
      </trkpt>
      <trkpt lat="42.68767" lon="1.65012">
        <ele>1478</ele>
        <time>2018-11-18T14:08:15.000Z</time>
      </trkpt>
      <trkpt lat="42.68768" lon="1.65011">
        <ele>1478</ele>
        <time>2018-11-18T14:08:17.000Z</time>
      </trkpt>
      <trkpt lat="42.68769" lon="1.6501">
        <ele>1478</ele>
        <time>2018-11-18T14:08:19.000Z</time>
      </trkpt>
      <trkpt lat="42.6877" lon="1.65009">
        <ele>1478</ele>
        <time>2018-11-18T14:08:21.000Z</time>
      </trkpt>
      <trkpt lat="42.68771" lon="1.65008">
        <ele>1477</ele>
        <time>2018-11-18T14:08:23.000Z</time>
      </trkpt>
      <trkpt lat="42.68772" lon="1.65007">
        <ele>1477</ele>
        <time>2018-11-18T14:08:25.000Z</time>
      </trkpt>
      <trkpt lat="42.68773" lon="1.65005">
        <ele>1477</ele>
        <time>2018-11-18T14:08:27.000Z</time>
      </trkpt>
      <trkpt lat="42.68774" lon="1.65004">
        <ele>1476</ele>
        <time>2018-11-18T14:08:29.000Z</time>
      </trkpt>
      <trkpt lat="42.68776" lon="1.65002">
        <ele>1475</ele>
        <time>2018-11-18T14:08:31.000Z</time>
      </trkpt>
      <trkpt lat="42.68777" lon="1.65">
        <ele>1474</ele>
        <time>2018-11-18T14:08:33.000Z</time>
      </trkpt>
      <trkpt lat="42.68778" lon="1.64999">
        <ele>1474</ele>
        <time>2018-11-18T14:08:35.000Z</time>
      </trkpt>
      <trkpt lat="42.68778" lon="1.64997">
        <ele>1474</ele>
        <time>2018-11-18T14:08:37.000Z</time>
      </trkpt>
      <trkpt lat="42.68779" lon="1.64996">
        <ele>1473</ele>
        <time>2018-11-18T14:08:39.000Z</time>
      </trkpt>
      <trkpt lat="42.6878" lon="1.64995">
        <ele>1473</ele>
        <time>2018-11-18T14:08:41.000Z</time>
      </trkpt>
      <trkpt lat="42.68781" lon="1.64994">
        <ele>1472</ele>
        <time>2018-11-18T14:08:43.000Z</time>
      </trkpt>
      <trkpt lat="42.68782" lon="1.64993">
        <ele>1472</ele>
        <time>2018-11-18T14:08:45.000Z</time>
      </trkpt>
      <trkpt lat="42.68782" lon="1.64992">
        <ele>1471</ele>
        <time>2018-11-18T14:08:47.000Z</time>
      </trkpt>
      <trkpt lat="42.68783" lon="1.64991">
        <ele>1471</ele>
        <time>2018-11-18T14:08:49.000Z</time>
      </trkpt>
      <trkpt lat="42.68784" lon="1.64991">
        <ele>1471</ele>
        <time>2018-11-18T14:08:51.000Z</time>
      </trkpt>
      <trkpt lat="42.68785" lon="1.64991">
        <ele>1471</ele>
        <time>2018-11-18T14:08:53.000Z</time>
      </trkpt>
      <trkpt lat="42.68785" lon="1.64991">
        <ele>1471</ele>
        <time>2018-11-18T14:08:55.000Z</time>
      </trkpt>
      <trkpt lat="42.68786" lon="1.64991">
        <ele>1471</ele>
        <time>2018-11-18T14:08:57.000Z</time>
      </trkpt>
      <trkpt lat="42.68787" lon="1.6499">
        <ele>1471</ele>
        <time>2018-11-18T14:08:59.000Z</time>
      </trkpt>
      <trkpt lat="42.68788" lon="1.64989">
        <ele>1470</ele>
        <time>2018-11-18T14:09:01.000Z</time>
      </trkpt>
      <trkpt lat="42.68788" lon="1.64989">
        <ele>1470</ele>
        <time>2018-11-18T14:09:03.000Z</time>
      </trkpt>
      <trkpt lat="42.68788" lon="1.64989">
        <ele>1470</ele>
        <time>2018-11-18T14:09:05.000Z</time>
      </trkpt>
      <trkpt lat="42.68789" lon="1.6499">
        <ele>1470</ele>
        <time>2018-11-18T14:09:07.000Z</time>
      </trkpt>
      <trkpt lat="42.6879" lon="1.64991">
        <ele>1470</ele>
        <time>2018-11-18T14:09:09.000Z</time>
      </trkpt>
      <trkpt lat="42.68791" lon="1.64991">
        <ele>1470</ele>
        <time>2018-11-18T14:09:11.000Z</time>
      </trkpt>
      <trkpt lat="42.68792" lon="1.64991">
        <ele>1470</ele>
        <time>2018-11-18T14:09:13.000Z</time>
      </trkpt>
      <trkpt lat="42.68793" lon="1.6499">
        <ele>1470</ele>
        <time>2018-11-18T14:09:15.000Z</time>
      </trkpt>
      <trkpt lat="42.68795" lon="1.6499">
        <ele>1470</ele>
        <time>2018-11-18T14:09:17.000Z</time>
      </trkpt>
      <trkpt lat="42.68797" lon="1.6499">
        <ele>1470</ele>
        <time>2018-11-18T14:09:19.000Z</time>
      </trkpt>
      <trkpt lat="42.68798" lon="1.6499">
        <ele>1470</ele>
        <time>2018-11-18T14:09:21.000Z</time>
      </trkpt>
      <trkpt lat="42.688" lon="1.6499">
        <ele>1470</ele>
        <time>2018-11-18T14:09:23.000Z</time>
      </trkpt>
      <trkpt lat="42.68802" lon="1.6499">
        <ele>1469</ele>
        <time>2018-11-18T14:09:25.000Z</time>
      </trkpt>
      <trkpt lat="42.68804" lon="1.64989">
        <ele>1469</ele>
        <time>2018-11-18T14:09:27.000Z</time>
      </trkpt>
      <trkpt lat="42.68805" lon="1.64989">
        <ele>1469</ele>
        <time>2018-11-18T14:09:29.000Z</time>
      </trkpt>
      <trkpt lat="42.68806" lon="1.64988">
        <ele>1469</ele>
        <time>2018-11-18T14:09:31.000Z</time>
      </trkpt>
      <trkpt lat="42.68808" lon="1.64988">
        <ele>1468</ele>
        <time>2018-11-18T14:09:33.000Z</time>
      </trkpt>
      <trkpt lat="42.6881" lon="1.64988">
        <ele>1468</ele>
        <time>2018-11-18T14:09:35.000Z</time>
      </trkpt>
      <trkpt lat="42.68811" lon="1.64989">
        <ele>1469</ele>
        <time>2018-11-18T14:09:37.000Z</time>
      </trkpt>
      <trkpt lat="42.68812" lon="1.64989">
        <ele>1468</ele>
        <time>2018-11-18T14:09:39.000Z</time>
      </trkpt>
      <trkpt lat="42.68814" lon="1.64989">
        <ele>1468</ele>
        <time>2018-11-18T14:09:41.000Z</time>
      </trkpt>
      <trkpt lat="42.68815" lon="1.64988">
        <ele>1468</ele>
        <time>2018-11-18T14:09:43.000Z</time>
      </trkpt>
      <trkpt lat="42.68816" lon="1.64987">
        <ele>1468</ele>
        <time>2018-11-18T14:09:45.000Z</time>
      </trkpt>
      <trkpt lat="42.68818" lon="1.64987">
        <ele>1467</ele>
        <time>2018-11-18T14:09:47.000Z</time>
      </trkpt>
      <trkpt lat="42.68818" lon="1.64986">
        <ele>1467</ele>
        <time>2018-11-18T14:09:49.000Z</time>
      </trkpt>
      <trkpt lat="42.6882" lon="1.64986">
        <ele>1467</ele>
        <time>2018-11-18T14:09:51.000Z</time>
      </trkpt>
      <trkpt lat="42.68821" lon="1.64986">
        <ele>1467</ele>
        <time>2018-11-18T14:09:53.000Z</time>
      </trkpt>
      <trkpt lat="42.68822" lon="1.64985">
        <ele>1467</ele>
        <time>2018-11-18T14:09:55.000Z</time>
      </trkpt>
      <trkpt lat="42.68823" lon="1.64985">
        <ele>1467</ele>
        <time>2018-11-18T14:09:57.000Z</time>
      </trkpt>
      <trkpt lat="42.68824" lon="1.64984">
        <ele>1467</ele>
        <time>2018-11-18T14:09:59.000Z</time>
      </trkpt>
      <trkpt lat="42.68825" lon="1.64983">
        <ele>1467</ele>
        <time>2018-11-18T14:10:01.000Z</time>
      </trkpt>
      <trkpt lat="42.68827" lon="1.64983">
        <ele>1467</ele>
        <time>2018-11-18T14:10:03.000Z</time>
      </trkpt>
      <trkpt lat="42.68828" lon="1.64981">
        <ele>1466</ele>
        <time>2018-11-18T14:10:05.000Z</time>
      </trkpt>
      <trkpt lat="42.68829" lon="1.64981">
        <ele>1466</ele>
        <time>2018-11-18T14:10:07.000Z</time>
      </trkpt>
      <trkpt lat="42.6883" lon="1.6498">
        <ele>1466</ele>
        <time>2018-11-18T14:10:09.000Z</time>
      </trkpt>
      <trkpt lat="42.68831" lon="1.6498">
        <ele>1466</ele>
        <time>2018-11-18T14:10:11.000Z</time>
      </trkpt>
      <trkpt lat="42.68832" lon="1.6498">
        <ele>1466</ele>
        <time>2018-11-18T14:10:13.000Z</time>
      </trkpt>
      <trkpt lat="42.68833" lon="1.64979">
        <ele>1466</ele>
        <time>2018-11-18T14:10:15.000Z</time>
      </trkpt>
      <trkpt lat="42.68834" lon="1.64979">
        <ele>1465</ele>
        <time>2018-11-18T14:10:17.000Z</time>
      </trkpt>
      <trkpt lat="42.68835" lon="1.64977">
        <ele>1465</ele>
        <time>2018-11-18T14:10:19.000Z</time>
      </trkpt>
      <trkpt lat="42.68835" lon="1.64977">
        <ele>1465</ele>
        <time>2018-11-18T14:10:21.000Z</time>
      </trkpt>
      <trkpt lat="42.68836" lon="1.64975">
        <ele>1465</ele>
        <time>2018-11-18T14:10:23.000Z</time>
      </trkpt>
      <trkpt lat="42.68838" lon="1.64974">
        <ele>1464</ele>
        <time>2018-11-18T14:10:25.000Z</time>
      </trkpt>
      <trkpt lat="42.68839" lon="1.64973">
        <ele>1464</ele>
        <time>2018-11-18T14:10:27.000Z</time>
      </trkpt>
      <trkpt lat="42.68841" lon="1.64973">
        <ele>1464</ele>
        <time>2018-11-18T14:10:29.000Z</time>
      </trkpt>
      <trkpt lat="42.68843" lon="1.64974">
        <ele>1464</ele>
        <time>2018-11-18T14:10:31.000Z</time>
      </trkpt>
      <trkpt lat="42.68844" lon="1.64974">
        <ele>1464</ele>
        <time>2018-11-18T14:10:33.000Z</time>
      </trkpt>
      <trkpt lat="42.68846" lon="1.64975">
        <ele>1464</ele>
        <time>2018-11-18T14:10:35.000Z</time>
      </trkpt>
      <trkpt lat="42.68847" lon="1.64975">
        <ele>1464</ele>
        <time>2018-11-18T14:10:37.000Z</time>
      </trkpt>
      <trkpt lat="42.68849" lon="1.64974">
        <ele>1464</ele>
        <time>2018-11-18T14:10:39.000Z</time>
      </trkpt>
      <trkpt lat="42.6885" lon="1.64973">
        <ele>1464</ele>
        <time>2018-11-18T14:10:41.000Z</time>
      </trkpt>
      <trkpt lat="42.68852" lon="1.64973">
        <ele>1464</ele>
        <time>2018-11-18T14:10:43.000Z</time>
      </trkpt>
      <trkpt lat="42.68854" lon="1.64972">
        <ele>1463</ele>
        <time>2018-11-18T14:10:45.000Z</time>
      </trkpt>
      <trkpt lat="42.68855" lon="1.64972">
        <ele>1463</ele>
        <time>2018-11-18T14:10:47.000Z</time>
      </trkpt>
      <trkpt lat="42.68857" lon="1.64973">
        <ele>1463</ele>
        <time>2018-11-18T14:10:49.000Z</time>
      </trkpt>
      <trkpt lat="42.68859" lon="1.64975">
        <ele>1464</ele>
        <time>2018-11-18T14:10:51.000Z</time>
      </trkpt>
      <trkpt lat="42.6886" lon="1.64975">
        <ele>1464</ele>
        <time>2018-11-18T14:10:53.000Z</time>
      </trkpt>
      <trkpt lat="42.68861" lon="1.64976">
        <ele>1464</ele>
        <time>2018-11-18T14:10:55.000Z</time>
      </trkpt>
      <trkpt lat="42.68862" lon="1.64976">
        <ele>1464</ele>
        <time>2018-11-18T14:10:57.000Z</time>
      </trkpt>
      <trkpt lat="42.68864" lon="1.64976">
        <ele>1464</ele>
        <time>2018-11-18T14:10:59.000Z</time>
      </trkpt>
      <trkpt lat="42.68865" lon="1.64977">
        <ele>1464</ele>
        <time>2018-11-18T14:11:01.000Z</time>
      </trkpt>
      <trkpt lat="42.68866" lon="1.64977">
        <ele>1464</ele>
        <time>2018-11-18T14:11:03.000Z</time>
      </trkpt>
      <trkpt lat="42.68868" lon="1.64977">
        <ele>1464</ele>
        <time>2018-11-18T14:11:05.000Z</time>
      </trkpt>
      <trkpt lat="42.68869" lon="1.64977">
        <ele>1464</ele>
        <time>2018-11-18T14:11:07.000Z</time>
      </trkpt>
      <trkpt lat="42.68871" lon="1.64977">
        <ele>1464</ele>
        <time>2018-11-18T14:11:09.000Z</time>
      </trkpt>
      <trkpt lat="42.68872" lon="1.64977">
        <ele>1463</ele>
        <time>2018-11-18T14:11:11.000Z</time>
      </trkpt>
      <trkpt lat="42.68873" lon="1.64976">
        <ele>1463</ele>
        <time>2018-11-18T14:11:13.000Z</time>
      </trkpt>
      <trkpt lat="42.68874" lon="1.64975">
        <ele>1463</ele>
        <time>2018-11-18T14:11:15.000Z</time>
      </trkpt>
      <trkpt lat="42.68875" lon="1.64977">
        <ele>1463</ele>
        <time>2018-11-18T14:11:17.000Z</time>
      </trkpt>
      <trkpt lat="42.68876" lon="1.64977">
        <ele>1463</ele>
        <time>2018-11-18T14:11:19.000Z</time>
      </trkpt>
      <trkpt lat="42.68877" lon="1.64978">
        <ele>1463</ele>
        <time>2018-11-18T14:11:21.000Z</time>
      </trkpt>
      <trkpt lat="42.68878" lon="1.64977">
        <ele>1463</ele>
        <time>2018-11-18T14:11:23.000Z</time>
      </trkpt>
      <trkpt lat="42.68878" lon="1.64977">
        <ele>1463</ele>
        <time>2018-11-18T14:11:25.000Z</time>
      </trkpt>
      <trkpt lat="42.6888" lon="1.64976">
        <ele>1463</ele>
        <time>2018-11-18T14:11:27.000Z</time>
      </trkpt>
      <trkpt lat="42.68881" lon="1.64976">
        <ele>1463</ele>
        <time>2018-11-18T14:11:29.000Z</time>
      </trkpt>
      <trkpt lat="42.68882" lon="1.64977">
        <ele>1463</ele>
        <time>2018-11-18T14:11:31.000Z</time>
      </trkpt>
      <trkpt lat="42.68884" lon="1.64977">
        <ele>1463</ele>
        <time>2018-11-18T14:11:33.000Z</time>
      </trkpt>
      <trkpt lat="42.68886" lon="1.64977">
        <ele>1463</ele>
        <time>2018-11-18T14:11:35.000Z</time>
      </trkpt>
      <trkpt lat="42.68888" lon="1.64977">
        <ele>1463</ele>
        <time>2018-11-18T14:11:37.000Z</time>
      </trkpt>
      <trkpt lat="42.6889" lon="1.64977">
        <ele>1463</ele>
        <time>2018-11-18T14:11:39.000Z</time>
      </trkpt>
      <trkpt lat="42.68892" lon="1.64976">
        <ele>1463</ele>
        <time>2018-11-18T14:11:41.000Z</time>
      </trkpt>
      <trkpt lat="42.68893" lon="1.64977">
        <ele>1463</ele>
        <time>2018-11-18T14:11:43.000Z</time>
      </trkpt>
      <trkpt lat="42.68894" lon="1.64977">
        <ele>1463</ele>
        <time>2018-11-18T14:11:45.000Z</time>
      </trkpt>
      <trkpt lat="42.68896" lon="1.64977">
        <ele>1463</ele>
        <time>2018-11-18T14:11:47.000Z</time>
      </trkpt>
      <trkpt lat="42.68898" lon="1.64976">
        <ele>1462</ele>
        <time>2018-11-18T14:11:49.000Z</time>
      </trkpt>
      <trkpt lat="42.68899" lon="1.64978">
        <ele>1463</ele>
        <time>2018-11-18T14:11:51.000Z</time>
      </trkpt>
      <trkpt lat="42.689" lon="1.64978">
        <ele>1463</ele>
        <time>2018-11-18T14:11:53.000Z</time>
      </trkpt>
      <trkpt lat="42.68901" lon="1.64977">
        <ele>1462</ele>
        <time>2018-11-18T14:11:55.000Z</time>
      </trkpt>
      <trkpt lat="42.68903" lon="1.64977">
        <ele>1462</ele>
        <time>2018-11-18T14:11:57.000Z</time>
      </trkpt>
      <trkpt lat="42.68904" lon="1.64976">
        <ele>1462</ele>
        <time>2018-11-18T14:11:59.000Z</time>
      </trkpt>
      <trkpt lat="42.68906" lon="1.64975">
        <ele>1462</ele>
        <time>2018-11-18T14:12:01.000Z</time>
      </trkpt>
      <trkpt lat="42.68908" lon="1.64975">
        <ele>1462</ele>
        <time>2018-11-18T14:12:03.000Z</time>
      </trkpt>
      <trkpt lat="42.68909" lon="1.64975">
        <ele>1462</ele>
        <time>2018-11-18T14:12:05.000Z</time>
      </trkpt>
      <trkpt lat="42.6891" lon="1.64975">
        <ele>1462</ele>
        <time>2018-11-18T14:12:07.000Z</time>
      </trkpt>
      <trkpt lat="42.6891" lon="1.64975">
        <ele>1462</ele>
        <time>2018-11-18T14:12:09.000Z</time>
      </trkpt>
      <trkpt lat="42.68911" lon="1.64976">
        <ele>1462</ele>
        <time>2018-11-18T14:12:11.000Z</time>
      </trkpt>
      <trkpt lat="42.68911" lon="1.64977">
        <ele>1462</ele>
        <time>2018-11-18T14:12:13.000Z</time>
      </trkpt>
      <trkpt lat="42.68911" lon="1.64977">
        <ele>1462</ele>
        <time>2018-11-18T14:12:15.000Z</time>
      </trkpt>
      <trkpt lat="42.68911" lon="1.64976">
        <ele>1462</ele>
        <time>2018-11-18T14:12:17.000Z</time>
      </trkpt>
      <trkpt lat="42.68911" lon="1.64976">
        <ele>1462</ele>
        <time>2018-11-18T14:12:19.000Z</time>
      </trkpt>
      <trkpt lat="42.68911" lon="1.64976">
        <ele>1462</ele>
        <time>2018-11-18T14:12:21.000Z</time>
      </trkpt>
      <trkpt lat="42.68911" lon="1.64976">
        <ele>1462</ele>
        <time>2018-11-18T14:12:23.000Z</time>
      </trkpt>
      <trkpt lat="42.68911" lon="1.64976">
        <ele>1462</ele>
        <time>2018-11-18T14:12:25.000Z</time>
      </trkpt>
      <trkpt lat="42.68911" lon="1.64975">
        <ele>1462</ele>
        <time>2018-11-18T14:12:27.000Z</time>
      </trkpt>
      <trkpt lat="42.68911" lon="1.64975">
        <ele>1462</ele>
        <time>2018-11-18T14:12:29.000Z</time>
      </trkpt>
      <trkpt lat="42.68911" lon="1.64976">
        <ele>1462</ele>
        <time>2018-11-18T14:12:31.000Z</time>
      </trkpt>
      <trkpt lat="42.68911" lon="1.64976">
        <ele>1462</ele>
        <time>2018-11-18T14:12:33.000Z</time>
      </trkpt>
      <trkpt lat="42.68911" lon="1.64976">
        <ele>1462</ele>
        <time>2018-11-18T14:12:35.000Z</time>
      </trkpt>
      <trkpt lat="42.68911" lon="1.64977">
        <ele>1462</ele>
        <time>2018-11-18T14:12:37.000Z</time>
      </trkpt>
      <trkpt lat="42.6891" lon="1.64977">
        <ele>1462</ele>
        <time>2018-11-18T14:12:39.000Z</time>
      </trkpt>
      <trkpt lat="42.6891" lon="1.64978">
        <ele>1462</ele>
        <time>2018-11-18T14:12:41.000Z</time>
      </trkpt>
      <trkpt lat="42.6891" lon="1.64978">
        <ele>1462</ele>
        <time>2018-11-18T14:12:43.000Z</time>
      </trkpt>
      <trkpt lat="42.6891" lon="1.64978">
        <ele>1462</ele>
        <time>2018-11-18T14:12:45.000Z</time>
      </trkpt>
      <trkpt lat="42.6891" lon="1.64978">
        <ele>1462</ele>
        <time>2018-11-18T14:12:47.000Z</time>
      </trkpt>
      <trkpt lat="42.6891" lon="1.64978">
        <ele>1462</ele>
        <time>2018-11-18T14:12:49.000Z</time>
      </trkpt>
      <trkpt lat="42.68909" lon="1.64979">
        <ele>1462</ele>
        <time>2018-11-18T14:12:51.000Z</time>
      </trkpt>
      <trkpt lat="42.68909" lon="1.64979">
        <ele>1462</ele>
        <time>2018-11-18T14:12:53.000Z</time>
      </trkpt>
      <trkpt lat="42.68909" lon="1.64979">
        <ele>1462</ele>
        <time>2018-11-18T14:12:55.000Z</time>
      </trkpt>
      <trkpt lat="42.68909" lon="1.64979">
        <ele>1462</ele>
        <time>2018-11-18T14:12:57.000Z</time>
      </trkpt>
      <trkpt lat="42.68909" lon="1.6498">
        <ele>1463</ele>
        <time>2018-11-18T14:12:59.000Z</time>
      </trkpt>
      <trkpt lat="42.68908" lon="1.6498">
        <ele>1463</ele>
        <time>2018-11-18T14:13:01.000Z</time>
      </trkpt>
      <trkpt lat="42.68908" lon="1.6498">
        <ele>1463</ele>
        <time>2018-11-18T14:13:03.000Z</time>
      </trkpt>
      <trkpt lat="42.68907" lon="1.6498">
        <ele>1463</ele>
        <time>2018-11-18T14:13:05.000Z</time>
      </trkpt>
      <trkpt lat="42.68907" lon="1.64981">
        <ele>1463</ele>
        <time>2018-11-18T14:13:07.000Z</time>
      </trkpt>
      <trkpt lat="42.68908" lon="1.6498">
        <ele>1463</ele>
        <time>2018-11-18T14:13:09.000Z</time>
      </trkpt>
      <trkpt lat="42.68908" lon="1.64981">
        <ele>1463</ele>
        <time>2018-11-18T14:13:11.000Z</time>
      </trkpt>
      <trkpt lat="42.68908" lon="1.6498">
        <ele>1463</ele>
        <time>2018-11-18T14:13:13.000Z</time>
      </trkpt>
      <trkpt lat="42.68908" lon="1.6498">
        <ele>1463</ele>
        <time>2018-11-18T14:13:15.000Z</time>
      </trkpt>
      <trkpt lat="42.68908" lon="1.6498">
        <ele>1463</ele>
        <time>2018-11-18T14:13:17.000Z</time>
      </trkpt>
      <trkpt lat="42.68908" lon="1.6498">
        <ele>1463</ele>
        <time>2018-11-18T14:13:19.000Z</time>
      </trkpt>
      <trkpt lat="42.68908" lon="1.64981">
        <ele>1463</ele>
        <time>2018-11-18T14:13:21.000Z</time>
      </trkpt>
      <trkpt lat="42.68908" lon="1.64981">
        <ele>1463</ele>
        <time>2018-11-18T14:13:23.000Z</time>
      </trkpt>
      <trkpt lat="42.68908" lon="1.64981">
        <ele>1463</ele>
        <time>2018-11-18T14:13:25.000Z</time>
      </trkpt>
      <trkpt lat="42.68909" lon="1.6498">
        <ele>1463</ele>
        <time>2018-11-18T14:13:27.000Z</time>
      </trkpt>
      <trkpt lat="42.68909" lon="1.64979">
        <ele>1462</ele>
        <time>2018-11-18T14:13:29.000Z</time>
      </trkpt>
      <trkpt lat="42.68909" lon="1.64978">
        <ele>1462</ele>
        <time>2018-11-18T14:13:31.000Z</time>
      </trkpt>
      <trkpt lat="42.68909" lon="1.64978">
        <ele>1462</ele>
        <time>2018-11-18T14:13:33.000Z</time>
      </trkpt>
      <trkpt lat="42.68909" lon="1.64978">
        <ele>1462</ele>
        <time>2018-11-18T14:13:35.000Z</time>
      </trkpt>
      <trkpt lat="42.68909" lon="1.64978">
        <ele>1462</ele>
        <time>2018-11-18T14:13:37.000Z</time>
      </trkpt>
      <trkpt lat="42.68909" lon="1.64977">
        <ele>1462</ele>
        <time>2018-11-18T14:13:39.000Z</time>
      </trkpt>
      <trkpt lat="42.68908" lon="1.64976">
        <ele>1462</ele>
        <time>2018-11-18T14:13:41.000Z</time>
      </trkpt>
      <trkpt lat="42.68908" lon="1.64976">
        <ele>1462</ele>
        <time>2018-11-18T14:13:43.000Z</time>
      </trkpt>
      <trkpt lat="42.68908" lon="1.64976">
        <ele>1462</ele>
        <time>2018-11-18T14:13:45.000Z</time>
      </trkpt>
      <trkpt lat="42.68908" lon="1.64976">
        <ele>1462</ele>
        <time>2018-11-18T14:13:47.000Z</time>
      </trkpt>
      <trkpt lat="42.68908" lon="1.64977">
        <ele>1462</ele>
        <time>2018-11-18T14:13:49.000Z</time>
      </trkpt>
      <trkpt lat="42.68907" lon="1.64977">
        <ele>1462</ele>
        <time>2018-11-18T14:13:51.000Z</time>
      </trkpt>
      <trkpt lat="42.68907" lon="1.64977">
        <ele>1462</ele>
        <time>2018-11-18T14:13:53.000Z</time>
      </trkpt>
      <trkpt lat="42.68907" lon="1.64976">
        <ele>1462</ele>
        <time>2018-11-18T14:13:55.000Z</time>
      </trkpt>
      <trkpt lat="42.68907" lon="1.64976">
        <ele>1462</ele>
        <time>2018-11-18T14:13:57.000Z</time>
      </trkpt>
      <trkpt lat="42.68907" lon="1.64976">
        <ele>1462</ele>
        <time>2018-11-18T14:13:59.000Z</time>
      </trkpt>
      <trkpt lat="42.68907" lon="1.64976">
        <ele>1462</ele>
        <time>2018-11-18T14:14:01.000Z</time>
      </trkpt>
      <trkpt lat="42.68908" lon="1.64976">
        <ele>1462</ele>
        <time>2018-11-18T14:14:03.000Z</time>
      </trkpt>
      <trkpt lat="42.68908" lon="1.64976">
        <ele>1462</ele>
        <time>2018-11-18T14:14:05.000Z</time>
      </trkpt>
      <trkpt lat="42.68908" lon="1.64976">
        <ele>1462</ele>
        <time>2018-11-18T14:14:07.000Z</time>
      </trkpt>
      <trkpt lat="42.68908" lon="1.64975">
        <ele>1462</ele>
        <time>2018-11-18T14:14:09.000Z</time>
      </trkpt>
      <trkpt lat="42.68909" lon="1.64975">
        <ele>1462</ele>
        <time>2018-11-18T14:14:11.000Z</time>
      </trkpt>
      <trkpt lat="42.68909" lon="1.64974">
        <ele>1461</ele>
        <time>2018-11-18T14:14:13.000Z</time>
      </trkpt>
      <trkpt lat="42.6891" lon="1.64973">
        <ele>1461</ele>
        <time>2018-11-18T14:14:15.000Z</time>
      </trkpt>
      <trkpt lat="42.6891" lon="1.64974">
        <ele>1461</ele>
        <time>2018-11-18T14:14:17.000Z</time>
      </trkpt>
      <trkpt lat="42.6891" lon="1.64974">
        <ele>1461</ele>
        <time>2018-11-18T14:14:19.000Z</time>
      </trkpt>
      <trkpt lat="42.6891" lon="1.64974">
        <ele>1461</ele>
        <time>2018-11-18T14:14:21.000Z</time>
      </trkpt>
      <trkpt lat="42.6891" lon="1.64974">
        <ele>1461</ele>
        <time>2018-11-18T14:14:23.000Z</time>
      </trkpt>
      <trkpt lat="42.6891" lon="1.64974">
        <ele>1461</ele>
        <time>2018-11-18T14:14:25.000Z</time>
      </trkpt>
      <trkpt lat="42.6891" lon="1.64974">
        <ele>1461</ele>
        <time>2018-11-18T14:14:27.000Z</time>
      </trkpt>
      <trkpt lat="42.6891" lon="1.64974">
        <ele>1461</ele>
        <time>2018-11-18T14:14:29.000Z</time>
      </trkpt>
      <trkpt lat="42.6891" lon="1.64975">
        <ele>1462</ele>
        <time>2018-11-18T14:14:31.000Z</time>
      </trkpt>
      <trkpt lat="42.6891" lon="1.64975">
        <ele>1462</ele>
        <time>2018-11-18T14:14:33.000Z</time>
      </trkpt>
      <trkpt lat="42.68911" lon="1.64975">
        <ele>1461</ele>
        <time>2018-11-18T14:14:35.000Z</time>
      </trkpt>
      <trkpt lat="42.68911" lon="1.64975">
        <ele>1461</ele>
        <time>2018-11-18T14:14:37.000Z</time>
      </trkpt>
      <trkpt lat="42.68912" lon="1.64975">
        <ele>1461</ele>
        <time>2018-11-18T14:14:39.000Z</time>
      </trkpt>
      <trkpt lat="42.68913" lon="1.64975">
        <ele>1461</ele>
        <time>2018-11-18T14:14:41.000Z</time>
      </trkpt>
      <trkpt lat="42.68913" lon="1.64974">
        <ele>1461</ele>
        <time>2018-11-18T14:14:43.000Z</time>
      </trkpt>
      <trkpt lat="42.68913" lon="1.64974">
        <ele>1461</ele>
        <time>2018-11-18T14:14:45.000Z</time>
      </trkpt>
      <trkpt lat="42.68913" lon="1.64974">
        <ele>1461</ele>
        <time>2018-11-18T14:14:47.000Z</time>
      </trkpt>
      <trkpt lat="42.68913" lon="1.64974">
        <ele>1461</ele>
        <time>2018-11-18T14:14:49.000Z</time>
      </trkpt>
      <trkpt lat="42.68913" lon="1.64975">
        <ele>1461</ele>
        <time>2018-11-18T14:14:51.000Z</time>
      </trkpt>
      <trkpt lat="42.68913" lon="1.64975">
        <ele>1461</ele>
        <time>2018-11-18T14:14:53.000Z</time>
      </trkpt>
      <trkpt lat="42.68913" lon="1.64975">
        <ele>1461</ele>
        <time>2018-11-18T14:14:55.000Z</time>
      </trkpt>
      <trkpt lat="42.68913" lon="1.64975">
        <ele>1461</ele>
        <time>2018-11-18T14:14:57.000Z</time>
      </trkpt>
      <trkpt lat="42.68913" lon="1.64975">
        <ele>1461</ele>
        <time>2018-11-18T14:14:59.000Z</time>
      </trkpt>
      <trkpt lat="42.68913" lon="1.64975">
        <ele>1461</ele>
        <time>2018-11-18T14:15:01.000Z</time>
      </trkpt>
      <trkpt lat="42.68913" lon="1.64975">
        <ele>1461</ele>
        <time>2018-11-18T14:15:03.000Z</time>
      </trkpt>
      <trkpt lat="42.68913" lon="1.64975">
        <ele>1461</ele>
        <time>2018-11-18T14:15:05.000Z</time>
      </trkpt>
      <trkpt lat="42.68913" lon="1.64976">
        <ele>1461</ele>
        <time>2018-11-18T14:15:07.000Z</time>
      </trkpt>
      <trkpt lat="42.68914" lon="1.64976">
        <ele>1461</ele>
        <time>2018-11-18T14:15:09.000Z</time>
      </trkpt>
      <trkpt lat="42.68913" lon="1.64976">
        <ele>1461</ele>
        <time>2018-11-18T14:15:11.000Z</time>
      </trkpt>
      <trkpt lat="42.68913" lon="1.64975">
        <ele>1461</ele>
        <time>2018-11-18T14:15:13.000Z</time>
      </trkpt>
      <trkpt lat="42.68913" lon="1.64975">
        <ele>1461</ele>
        <time>2018-11-18T14:15:15.000Z</time>
      </trkpt>
      <trkpt lat="42.68912" lon="1.64975">
        <ele>1461</ele>
        <time>2018-11-18T14:15:17.000Z</time>
      </trkpt>
      <trkpt lat="42.68912" lon="1.64974">
        <ele>1461</ele>
        <time>2018-11-18T14:15:19.000Z</time>
      </trkpt>
      <trkpt lat="42.68912" lon="1.64974">
        <ele>1461</ele>
        <time>2018-11-18T14:15:21.000Z</time>
      </trkpt>
      <trkpt lat="42.68912" lon="1.64974">
        <ele>1461</ele>
        <time>2018-11-18T14:15:23.000Z</time>
      </trkpt>
      <trkpt lat="42.68913" lon="1.64974">
        <ele>1461</ele>
        <time>2018-11-18T14:15:25.000Z</time>
      </trkpt>
      <trkpt lat="42.68913" lon="1.64975">
        <ele>1461</ele>
        <time>2018-11-18T14:15:27.000Z</time>
      </trkpt>
      <trkpt lat="42.68913" lon="1.64975">
        <ele>1461</ele>
        <time>2018-11-18T14:15:29.000Z</time>
      </trkpt>
      <trkpt lat="42.68913" lon="1.64976">
        <ele>1461</ele>
        <time>2018-11-18T14:15:31.000Z</time>
      </trkpt>
      <trkpt lat="42.68914" lon="1.64976">
        <ele>1461</ele>
        <time>2018-11-18T14:15:33.000Z</time>
      </trkpt>
      <trkpt lat="42.68914" lon="1.64977">
        <ele>1461</ele>
        <time>2018-11-18T14:15:35.000Z</time>
      </trkpt>
      <trkpt lat="42.68914" lon="1.64977">
        <ele>1461</ele>
        <time>2018-11-18T14:15:37.000Z</time>
      </trkpt>
      <trkpt lat="42.68914" lon="1.64977">
        <ele>1461</ele>
        <time>2018-11-18T14:15:39.000Z</time>
      </trkpt>
      <trkpt lat="42.68915" lon="1.64977">
        <ele>1461</ele>
        <time>2018-11-18T14:15:41.000Z</time>
      </trkpt>
      <trkpt lat="42.68915" lon="1.64977">
        <ele>1461</ele>
        <time>2018-11-18T14:15:43.000Z</time>
      </trkpt>
      <trkpt lat="42.68915" lon="1.64977">
        <ele>1461</ele>
        <time>2018-11-18T14:15:45.000Z</time>
      </trkpt>
      <trkpt lat="42.68916" lon="1.64977">
        <ele>1461</ele>
        <time>2018-11-18T14:15:47.000Z</time>
      </trkpt>
      <trkpt lat="42.68915" lon="1.64977">
        <ele>1461</ele>
        <time>2018-11-18T14:15:49.000Z</time>
      </trkpt>
      <trkpt lat="42.68915" lon="1.64977">
        <ele>1461</ele>
        <time>2018-11-18T14:15:51.000Z</time>
      </trkpt>
      <trkpt lat="42.68916" lon="1.64977">
        <ele>1461</ele>
        <time>2018-11-18T14:15:53.000Z</time>
      </trkpt>
      <trkpt lat="42.68916" lon="1.64976">
        <ele>1461</ele>
        <time>2018-11-18T14:15:55.000Z</time>
      </trkpt>
      <trkpt lat="42.68917" lon="1.64976">
        <ele>1461</ele>
        <time>2018-11-18T14:15:57.000Z</time>
      </trkpt>
      <trkpt lat="42.68917" lon="1.64976">
        <ele>1461</ele>
        <time>2018-11-18T14:15:59.000Z</time>
      </trkpt>
      <trkpt lat="42.68917" lon="1.64976">
        <ele>1461</ele>
        <time>2018-11-18T14:16:01.000Z</time>
      </trkpt>
      <trkpt lat="42.68917" lon="1.64975">
        <ele>1460</ele>
        <time>2018-11-18T14:16:03.000Z</time>
      </trkpt>
      <trkpt lat="42.68917" lon="1.64975">
        <ele>1460</ele>
        <time>2018-11-18T14:16:05.000Z</time>
      </trkpt>
      <trkpt lat="42.68917" lon="1.64975">
        <ele>1460</ele>
        <time>2018-11-18T14:16:07.000Z</time>
      </trkpt>
      <trkpt lat="42.68916" lon="1.64975">
        <ele>1460</ele>
        <time>2018-11-18T14:16:09.000Z</time>
      </trkpt>
      <trkpt lat="42.68916" lon="1.64975">
        <ele>1460</ele>
        <time>2018-11-18T14:16:11.000Z</time>
      </trkpt>
      <trkpt lat="42.68916" lon="1.64975">
        <ele>1461</ele>
        <time>2018-11-18T14:16:13.000Z</time>
      </trkpt>
      <trkpt lat="42.68916" lon="1.64975">
        <ele>1461</ele>
        <time>2018-11-18T14:16:15.000Z</time>
      </trkpt>
      <trkpt lat="42.68916" lon="1.64975">
        <ele>1461</ele>
        <time>2018-11-18T14:16:17.000Z</time>
      </trkpt>
      <trkpt lat="42.68916" lon="1.64976">
        <ele>1461</ele>
        <time>2018-11-18T14:16:19.000Z</time>
      </trkpt>
      <trkpt lat="42.68915" lon="1.64976">
        <ele>1461</ele>
        <time>2018-11-18T14:16:21.000Z</time>
      </trkpt>
      <trkpt lat="42.68915" lon="1.64976">
        <ele>1461</ele>
        <time>2018-11-18T14:16:23.000Z</time>
      </trkpt>
      <trkpt lat="42.68914" lon="1.64976">
        <ele>1461</ele>
        <time>2018-11-18T14:16:25.000Z</time>
      </trkpt>
      <trkpt lat="42.68914" lon="1.64976">
        <ele>1461</ele>
        <time>2018-11-18T14:16:27.000Z</time>
      </trkpt>
      <trkpt lat="42.68914" lon="1.64976">
        <ele>1461</ele>
        <time>2018-11-18T14:16:29.000Z</time>
      </trkpt>
      <trkpt lat="42.68914" lon="1.64975">
        <ele>1461</ele>
        <time>2018-11-18T14:16:31.000Z</time>
      </trkpt>
      <trkpt lat="42.68913" lon="1.64975">
        <ele>1461</ele>
        <time>2018-11-18T14:16:33.000Z</time>
      </trkpt>
      <trkpt lat="42.68913" lon="1.64975">
        <ele>1461</ele>
        <time>2018-11-18T14:16:35.000Z</time>
      </trkpt>
      <trkpt lat="42.68913" lon="1.64975">
        <ele>1461</ele>
        <time>2018-11-18T14:16:37.000Z</time>
      </trkpt>
      <trkpt lat="42.68913" lon="1.64975">
        <ele>1461</ele>
        <time>2018-11-18T14:16:39.000Z</time>
      </trkpt>
      <trkpt lat="42.68913" lon="1.64975">
        <ele>1461</ele>
        <time>2018-11-18T14:16:41.000Z</time>
      </trkpt>
      <trkpt lat="42.68913" lon="1.64975">
        <ele>1461</ele>
        <time>2018-11-18T14:16:43.000Z</time>
      </trkpt>
      <trkpt lat="42.68913" lon="1.64974">
        <ele>1461</ele>
        <time>2018-11-18T14:16:45.000Z</time>
      </trkpt>
      <trkpt lat="42.68913" lon="1.64974">
        <ele>1461</ele>
        <time>2018-11-18T14:16:47.000Z</time>
      </trkpt>
      <trkpt lat="42.68913" lon="1.64974">
        <ele>1461</ele>
        <time>2018-11-18T14:16:49.000Z</time>
      </trkpt>
      <trkpt lat="42.68913" lon="1.64974">
        <ele>1461</ele>
        <time>2018-11-18T14:16:51.000Z</time>
      </trkpt>
      <trkpt lat="42.68914" lon="1.64974">
        <ele>1461</ele>
        <time>2018-11-18T14:16:53.000Z</time>
      </trkpt>
      <trkpt lat="42.68914" lon="1.64974">
        <ele>1461</ele>
        <time>2018-11-18T14:16:55.000Z</time>
      </trkpt>
      <trkpt lat="42.68914" lon="1.64973">
        <ele>1460</ele>
        <time>2018-11-18T14:16:57.000Z</time>
      </trkpt>
      <trkpt lat="42.68914" lon="1.64973">
        <ele>1460</ele>
        <time>2018-11-18T14:16:59.000Z</time>
      </trkpt>
      <trkpt lat="42.68914" lon="1.64973">
        <ele>1460</ele>
        <time>2018-11-18T14:17:01.000Z</time>
      </trkpt>
      <trkpt lat="42.68914" lon="1.64973">
        <ele>1460</ele>
        <time>2018-11-18T14:17:03.000Z</time>
      </trkpt>
      <trkpt lat="42.68914" lon="1.64973">
        <ele>1460</ele>
        <time>2018-11-18T14:17:05.000Z</time>
      </trkpt>
      <trkpt lat="42.68914" lon="1.64974">
        <ele>1461</ele>
        <time>2018-11-18T14:17:07.000Z</time>
      </trkpt>
      <trkpt lat="42.68914" lon="1.64974">
        <ele>1461</ele>
        <time>2018-11-18T14:17:09.000Z</time>
      </trkpt>
      <trkpt lat="42.68914" lon="1.64974">
        <ele>1461</ele>
        <time>2018-11-18T14:17:11.000Z</time>
      </trkpt>
      <trkpt lat="42.68914" lon="1.64974">
        <ele>1461</ele>
        <time>2018-11-18T14:17:13.000Z</time>
      </trkpt>
      <trkpt lat="42.68914" lon="1.64974">
        <ele>1461</ele>
        <time>2018-11-18T14:17:15.000Z</time>
      </trkpt>
      <trkpt lat="42.68914" lon="1.64974">
        <ele>1461</ele>
        <time>2018-11-18T14:17:17.000Z</time>
      </trkpt>
      <trkpt lat="42.68913" lon="1.64974">
        <ele>1461</ele>
        <time>2018-11-18T14:17:19.000Z</time>
      </trkpt>
      <trkpt lat="42.68913" lon="1.64974">
        <ele>1461</ele>
        <time>2018-11-18T14:17:21.000Z</time>
      </trkpt>
      <trkpt lat="42.68912" lon="1.64974">
        <ele>1461</ele>
        <time>2018-11-18T14:17:23.000Z</time>
      </trkpt>
      <trkpt lat="42.68912" lon="1.64974">
        <ele>1461</ele>
        <time>2018-11-18T14:17:25.000Z</time>
      </trkpt>
      <trkpt lat="42.68911" lon="1.64974">
        <ele>1461</ele>
        <time>2018-11-18T14:17:27.000Z</time>
      </trkpt>
      <trkpt lat="42.68911" lon="1.64975">
        <ele>1462</ele>
        <time>2018-11-18T14:17:29.000Z</time>
      </trkpt>
      <trkpt lat="42.68911" lon="1.64975">
        <ele>1462</ele>
        <time>2018-11-18T14:17:31.000Z</time>
      </trkpt>
      <trkpt lat="42.68911" lon="1.64975">
        <ele>1462</ele>
        <time>2018-11-18T14:17:33.000Z</time>
      </trkpt>
      <trkpt lat="42.68911" lon="1.64975">
        <ele>1462</ele>
        <time>2018-11-18T14:17:35.000Z</time>
      </trkpt>
      <trkpt lat="42.68911" lon="1.64975">
        <ele>1461</ele>
        <time>2018-11-18T14:17:37.000Z</time>
      </trkpt>
      <trkpt lat="42.68912" lon="1.64976">
        <ele>1462</ele>
        <time>2018-11-18T14:17:39.000Z</time>
      </trkpt>
      <trkpt lat="42.68912" lon="1.64976">
        <ele>1462</ele>
        <time>2018-11-18T14:17:41.000Z</time>
      </trkpt>
      <trkpt lat="42.68912" lon="1.64976">
        <ele>1462</ele>
        <time>2018-11-18T14:17:43.000Z</time>
      </trkpt>
      <trkpt lat="42.68912" lon="1.64977">
        <ele>1462</ele>
        <time>2018-11-18T14:17:45.000Z</time>
      </trkpt>
      <trkpt lat="42.68912" lon="1.64977">
        <ele>1462</ele>
        <time>2018-11-18T14:17:47.000Z</time>
      </trkpt>
      <trkpt lat="42.68912" lon="1.64977">
        <ele>1462</ele>
        <time>2018-11-18T14:17:49.000Z</time>
      </trkpt>
      <trkpt lat="42.68913" lon="1.64977">
        <ele>1462</ele>
        <time>2018-11-18T14:17:51.000Z</time>
      </trkpt>
      <trkpt lat="42.68913" lon="1.64977">
        <ele>1462</ele>
        <time>2018-11-18T14:17:53.000Z</time>
      </trkpt>
      <trkpt lat="42.68913" lon="1.64976">
        <ele>1461</ele>
        <time>2018-11-18T14:17:55.000Z</time>
      </trkpt>
      <trkpt lat="42.68913" lon="1.64976">
        <ele>1461</ele>
        <time>2018-11-18T14:17:57.000Z</time>
      </trkpt>
      <trkpt lat="42.68914" lon="1.64975">
        <ele>1461</ele>
        <time>2018-11-18T14:17:59.000Z</time>
      </trkpt>
      <trkpt lat="42.68914" lon="1.64974">
        <ele>1461</ele>
        <time>2018-11-18T14:18:01.000Z</time>
      </trkpt>
      <trkpt lat="42.68915" lon="1.64974">
        <ele>1460</ele>
        <time>2018-11-18T14:18:03.000Z</time>
      </trkpt>
      <trkpt lat="42.68916" lon="1.64974">
        <ele>1460</ele>
        <time>2018-11-18T14:18:05.000Z</time>
      </trkpt>
      <trkpt lat="42.68916" lon="1.64974">
        <ele>1460</ele>
        <time>2018-11-18T14:18:07.000Z</time>
      </trkpt>
      <trkpt lat="42.68918" lon="1.64975">
        <ele>1460</ele>
        <time>2018-11-18T14:18:09.000Z</time>
      </trkpt>
      <trkpt lat="42.68919" lon="1.64975">
        <ele>1460</ele>
        <time>2018-11-18T14:18:11.000Z</time>
      </trkpt>
      <trkpt lat="42.68921" lon="1.64976">
        <ele>1460</ele>
        <time>2018-11-18T14:18:13.000Z</time>
      </trkpt>
      <trkpt lat="42.68923" lon="1.64976">
        <ele>1460</ele>
        <time>2018-11-18T14:18:15.000Z</time>
      </trkpt>
      <trkpt lat="42.68925" lon="1.64976">
        <ele>1459</ele>
        <time>2018-11-18T14:18:17.000Z</time>
      </trkpt>
      <trkpt lat="42.68927" lon="1.64976">
        <ele>1459</ele>
        <time>2018-11-18T14:18:19.000Z</time>
      </trkpt>
      <trkpt lat="42.68929" lon="1.64977">
        <ele>1459</ele>
        <time>2018-11-18T14:18:21.000Z</time>
      </trkpt>
      <trkpt lat="42.68929" lon="1.64978">
        <ele>1460</ele>
        <time>2018-11-18T14:18:23.000Z</time>
      </trkpt>
      <trkpt lat="42.68931" lon="1.64979">
        <ele>1460</ele>
        <time>2018-11-18T14:18:25.000Z</time>
      </trkpt>
      <trkpt lat="42.68933" lon="1.64979">
        <ele>1459</ele>
        <time>2018-11-18T14:18:27.000Z</time>
      </trkpt>
      <trkpt lat="42.68935" lon="1.64979">
        <ele>1459</ele>
        <time>2018-11-18T14:18:29.000Z</time>
      </trkpt>
      <trkpt lat="42.68937" lon="1.64979">
        <ele>1459</ele>
        <time>2018-11-18T14:18:31.000Z</time>
      </trkpt>
      <trkpt lat="42.68938" lon="1.64979">
        <ele>1459</ele>
        <time>2018-11-18T14:18:33.000Z</time>
      </trkpt>
      <trkpt lat="42.6894" lon="1.6498">
        <ele>1459</ele>
        <time>2018-11-18T14:18:35.000Z</time>
      </trkpt>
      <trkpt lat="42.68942" lon="1.64981">
        <ele>1459</ele>
        <time>2018-11-18T14:18:37.000Z</time>
      </trkpt>
      <trkpt lat="42.68944" lon="1.64981">
        <ele>1458</ele>
        <time>2018-11-18T14:18:39.000Z</time>
      </trkpt>
      <trkpt lat="42.68945" lon="1.64981">
        <ele>1458</ele>
        <time>2018-11-18T14:18:41.000Z</time>
      </trkpt>
      <trkpt lat="42.68946" lon="1.64982">
        <ele>1458</ele>
        <time>2018-11-18T14:18:43.000Z</time>
      </trkpt>
      <trkpt lat="42.68947" lon="1.64983">
        <ele>1459</ele>
        <time>2018-11-18T14:18:45.000Z</time>
      </trkpt>
      <trkpt lat="42.68949" lon="1.64984">
        <ele>1459</ele>
        <time>2018-11-18T14:18:47.000Z</time>
      </trkpt>
      <trkpt lat="42.6895" lon="1.64986">
        <ele>1459</ele>
        <time>2018-11-18T14:18:49.000Z</time>
      </trkpt>
      <trkpt lat="42.68952" lon="1.64987">
        <ele>1459</ele>
        <time>2018-11-18T14:18:51.000Z</time>
      </trkpt>
      <trkpt lat="42.68954" lon="1.64986">
        <ele>1459</ele>
        <time>2018-11-18T14:18:53.000Z</time>
      </trkpt>
      <trkpt lat="42.68955" lon="1.64987">
        <ele>1459</ele>
        <time>2018-11-18T14:18:55.000Z</time>
      </trkpt>
      <trkpt lat="42.68956" lon="1.64989">
        <ele>1460</ele>
        <time>2018-11-18T14:18:57.000Z</time>
      </trkpt>
      <trkpt lat="42.68958" lon="1.64992">
        <ele>1461</ele>
        <time>2018-11-18T14:18:59.000Z</time>
      </trkpt>
      <trkpt lat="42.68959" lon="1.64993">
        <ele>1461</ele>
        <time>2018-11-18T14:19:01.000Z</time>
      </trkpt>
      <trkpt lat="42.6896" lon="1.64994">
        <ele>1461</ele>
        <time>2018-11-18T14:19:03.000Z</time>
      </trkpt>
      <trkpt lat="42.68962" lon="1.64993">
        <ele>1461</ele>
        <time>2018-11-18T14:19:05.000Z</time>
      </trkpt>
      <trkpt lat="42.68964" lon="1.64994">
        <ele>1461</ele>
        <time>2018-11-18T14:19:07.000Z</time>
      </trkpt>
      <trkpt lat="42.68965" lon="1.64995">
        <ele>1461</ele>
        <time>2018-11-18T14:19:09.000Z</time>
      </trkpt>
      <trkpt lat="42.68967" lon="1.64996">
        <ele>1461</ele>
        <time>2018-11-18T14:19:11.000Z</time>
      </trkpt>
      <trkpt lat="42.68968" lon="1.64997">
        <ele>1462</ele>
        <time>2018-11-18T14:19:13.000Z</time>
      </trkpt>
      <trkpt lat="42.68969" lon="1.64998">
        <ele>1462</ele>
        <time>2018-11-18T14:19:15.000Z</time>
      </trkpt>
      <trkpt lat="42.68971" lon="1.65">
        <ele>1463</ele>
        <time>2018-11-18T14:19:17.000Z</time>
      </trkpt>
      <trkpt lat="42.68972" lon="1.65002">
        <ele>1463</ele>
        <time>2018-11-18T14:19:19.000Z</time>
      </trkpt>
      <trkpt lat="42.68972" lon="1.65004">
        <ele>1465</ele>
        <time>2018-11-18T14:19:21.000Z</time>
      </trkpt>
      <trkpt lat="42.68972" lon="1.65005">
        <ele>1465</ele>
        <time>2018-11-18T14:19:23.000Z</time>
      </trkpt>
      <trkpt lat="42.68973" lon="1.65005">
        <ele>1465</ele>
        <time>2018-11-18T14:19:25.000Z</time>
      </trkpt>
      <trkpt lat="42.68973" lon="1.65006">
        <ele>1465</ele>
        <time>2018-11-18T14:19:27.000Z</time>
      </trkpt>
      <trkpt lat="42.68973" lon="1.65005">
        <ele>1465</ele>
        <time>2018-11-18T14:19:29.000Z</time>
      </trkpt>
      <trkpt lat="42.68974" lon="1.65005">
        <ele>1465</ele>
        <time>2018-11-18T14:19:31.000Z</time>
      </trkpt>
      <trkpt lat="42.68975" lon="1.65005">
        <ele>1465</ele>
        <time>2018-11-18T14:19:33.000Z</time>
      </trkpt>
      <trkpt lat="42.68975" lon="1.65005">
        <ele>1465</ele>
        <time>2018-11-18T14:19:35.000Z</time>
      </trkpt>
      <trkpt lat="42.68976" lon="1.65005">
        <ele>1464</ele>
        <time>2018-11-18T14:19:37.000Z</time>
      </trkpt>
      <trkpt lat="42.68978" lon="1.65005">
        <ele>1464</ele>
        <time>2018-11-18T14:19:39.000Z</time>
      </trkpt>
      <trkpt lat="42.68978" lon="1.65006">
        <ele>1465</ele>
        <time>2018-11-18T14:19:41.000Z</time>
      </trkpt>
      <trkpt lat="42.68978" lon="1.65007">
        <ele>1465</ele>
        <time>2018-11-18T14:19:43.000Z</time>
      </trkpt>
      <trkpt lat="42.68979" lon="1.65007">
        <ele>1465</ele>
        <time>2018-11-18T14:19:45.000Z</time>
      </trkpt>
      <trkpt lat="42.6898" lon="1.65008">
        <ele>1465</ele>
        <time>2018-11-18T14:19:47.000Z</time>
      </trkpt>
      <trkpt lat="42.68981" lon="1.6501">
        <ele>1466</ele>
        <time>2018-11-18T14:19:49.000Z</time>
      </trkpt>
      <trkpt lat="42.68982" lon="1.65011">
        <ele>1466</ele>
        <time>2018-11-18T14:19:51.000Z</time>
      </trkpt>
      <trkpt lat="42.68984" lon="1.65011">
        <ele>1466</ele>
        <time>2018-11-18T14:19:53.000Z</time>
      </trkpt>
      <trkpt lat="42.68985" lon="1.6501">
        <ele>1466</ele>
        <time>2018-11-18T14:19:55.000Z</time>
      </trkpt>
      <trkpt lat="42.68986" lon="1.65011">
        <ele>1466</ele>
        <time>2018-11-18T14:19:57.000Z</time>
      </trkpt>
      <trkpt lat="42.68987" lon="1.65012">
        <ele>1466</ele>
        <time>2018-11-18T14:19:59.000Z</time>
      </trkpt>
      <trkpt lat="42.68988" lon="1.65012">
        <ele>1466</ele>
        <time>2018-11-18T14:20:01.000Z</time>
      </trkpt>
      <trkpt lat="42.68988" lon="1.65014">
        <ele>1467</ele>
        <time>2018-11-18T14:20:03.000Z</time>
      </trkpt>
      <trkpt lat="42.68989" lon="1.65014">
        <ele>1467</ele>
        <time>2018-11-18T14:20:05.000Z</time>
      </trkpt>
      <trkpt lat="42.6899" lon="1.65015">
        <ele>1467</ele>
        <time>2018-11-18T14:20:07.000Z</time>
      </trkpt>
      <trkpt lat="42.68992" lon="1.65016">
        <ele>1467</ele>
        <time>2018-11-18T14:20:09.000Z</time>
      </trkpt>
      <trkpt lat="42.68993" lon="1.65018">
        <ele>1468</ele>
        <time>2018-11-18T14:20:11.000Z</time>
      </trkpt>
      <trkpt lat="42.68994" lon="1.65018">
        <ele>1468</ele>
        <time>2018-11-18T14:20:13.000Z</time>
      </trkpt>
      <trkpt lat="42.68995" lon="1.65018">
        <ele>1468</ele>
        <time>2018-11-18T14:20:15.000Z</time>
      </trkpt>
      <trkpt lat="42.68996" lon="1.65018">
        <ele>1468</ele>
        <time>2018-11-18T14:20:17.000Z</time>
      </trkpt>
      <trkpt lat="42.68997" lon="1.65019">
        <ele>1468</ele>
        <time>2018-11-18T14:20:19.000Z</time>
      </trkpt>
      <trkpt lat="42.68999" lon="1.6502">
        <ele>1468</ele>
        <time>2018-11-18T14:20:21.000Z</time>
      </trkpt>
      <trkpt lat="42.69" lon="1.65021">
        <ele>1468</ele>
        <time>2018-11-18T14:20:23.000Z</time>
      </trkpt>
      <trkpt lat="42.69001" lon="1.65021">
        <ele>1468</ele>
        <time>2018-11-18T14:20:25.000Z</time>
      </trkpt>
      <trkpt lat="42.69002" lon="1.65021">
        <ele>1468</ele>
        <time>2018-11-18T14:20:27.000Z</time>
      </trkpt>
      <trkpt lat="42.69003" lon="1.6502">
        <ele>1468</ele>
        <time>2018-11-18T14:20:29.000Z</time>
      </trkpt>
      <trkpt lat="42.69004" lon="1.6502">
        <ele>1467</ele>
        <time>2018-11-18T14:20:31.000Z</time>
      </trkpt>
      <trkpt lat="42.69006" lon="1.65019">
        <ele>1467</ele>
        <time>2018-11-18T14:20:33.000Z</time>
      </trkpt>
      <trkpt lat="42.69008" lon="1.6502">
        <ele>1466</ele>
        <time>2018-11-18T14:20:35.000Z</time>
      </trkpt>
      <trkpt lat="42.6901" lon="1.65021">
        <ele>1467</ele>
        <time>2018-11-18T14:20:37.000Z</time>
      </trkpt>
      <trkpt lat="42.69011" lon="1.65022">
        <ele>1466</ele>
        <time>2018-11-18T14:20:39.000Z</time>
      </trkpt>
      <trkpt lat="42.69012" lon="1.65022">
        <ele>1466</ele>
        <time>2018-11-18T14:20:41.000Z</time>
      </trkpt>
      <trkpt lat="42.69013" lon="1.65022">
        <ele>1466</ele>
        <time>2018-11-18T14:20:43.000Z</time>
      </trkpt>
      <trkpt lat="42.69015" lon="1.65022">
        <ele>1466</ele>
        <time>2018-11-18T14:20:45.000Z</time>
      </trkpt>
      <trkpt lat="42.69016" lon="1.65022">
        <ele>1465</ele>
        <time>2018-11-18T14:20:47.000Z</time>
      </trkpt>
      <trkpt lat="42.69017" lon="1.65022">
        <ele>1465</ele>
        <time>2018-11-18T14:20:49.000Z</time>
      </trkpt>
      <trkpt lat="42.69018" lon="1.65022">
        <ele>1465</ele>
        <time>2018-11-18T14:20:51.000Z</time>
      </trkpt>
      <trkpt lat="42.69019" lon="1.65022">
        <ele>1465</ele>
        <time>2018-11-18T14:20:53.000Z</time>
      </trkpt>
      <trkpt lat="42.69021" lon="1.65022">
        <ele>1464</ele>
        <time>2018-11-18T14:20:55.000Z</time>
      </trkpt>
      <trkpt lat="42.69023" lon="1.65023">
        <ele>1464</ele>
        <time>2018-11-18T14:20:57.000Z</time>
      </trkpt>
      <trkpt lat="42.69024" lon="1.65025">
        <ele>1465</ele>
        <time>2018-11-18T14:20:59.000Z</time>
      </trkpt>
      <trkpt lat="42.69025" lon="1.65026">
        <ele>1465</ele>
        <time>2018-11-18T14:21:01.000Z</time>
      </trkpt>
      <trkpt lat="42.69026" lon="1.65027">
        <ele>1465</ele>
        <time>2018-11-18T14:21:03.000Z</time>
      </trkpt>
      <trkpt lat="42.69026" lon="1.65028">
        <ele>1465</ele>
        <time>2018-11-18T14:21:05.000Z</time>
      </trkpt>
      <trkpt lat="42.69028" lon="1.65028">
        <ele>1465</ele>
        <time>2018-11-18T14:21:07.000Z</time>
      </trkpt>
      <trkpt lat="42.69028" lon="1.65028">
        <ele>1465</ele>
        <time>2018-11-18T14:21:09.000Z</time>
      </trkpt>
      <trkpt lat="42.69029" lon="1.65029">
        <ele>1465</ele>
        <time>2018-11-18T14:21:11.000Z</time>
      </trkpt>
      <trkpt lat="42.69029" lon="1.65029">
        <ele>1465</ele>
        <time>2018-11-18T14:21:13.000Z</time>
      </trkpt>
      <trkpt lat="42.6903" lon="1.65029">
        <ele>1465</ele>
        <time>2018-11-18T14:21:15.000Z</time>
      </trkpt>
      <trkpt lat="42.69031" lon="1.65029">
        <ele>1465</ele>
        <time>2018-11-18T14:21:17.000Z</time>
      </trkpt>
      <trkpt lat="42.69032" lon="1.6503">
        <ele>1465</ele>
        <time>2018-11-18T14:21:19.000Z</time>
      </trkpt>
      <trkpt lat="42.69033" lon="1.6503">
        <ele>1465</ele>
        <time>2018-11-18T14:21:21.000Z</time>
      </trkpt>
      <trkpt lat="42.69034" lon="1.65031">
        <ele>1465</ele>
        <time>2018-11-18T14:21:23.000Z</time>
      </trkpt>
      <trkpt lat="42.69035" lon="1.65031">
        <ele>1465</ele>
        <time>2018-11-18T14:21:25.000Z</time>
      </trkpt>
      <trkpt lat="42.69036" lon="1.65032">
        <ele>1465</ele>
        <time>2018-11-18T14:21:27.000Z</time>
      </trkpt>
      <trkpt lat="42.69037" lon="1.65033">
        <ele>1465</ele>
        <time>2018-11-18T14:21:29.000Z</time>
      </trkpt>
      <trkpt lat="42.69038" lon="1.65034">
        <ele>1465</ele>
        <time>2018-11-18T14:21:31.000Z</time>
      </trkpt>
      <trkpt lat="42.69039" lon="1.65034">
        <ele>1465</ele>
        <time>2018-11-18T14:21:33.000Z</time>
      </trkpt>
      <trkpt lat="42.6904" lon="1.65034">
        <ele>1465</ele>
        <time>2018-11-18T14:21:35.000Z</time>
      </trkpt>
      <trkpt lat="42.69041" lon="1.65033">
        <ele>1464</ele>
        <time>2018-11-18T14:21:37.000Z</time>
      </trkpt>
      <trkpt lat="42.69042" lon="1.65033">
        <ele>1464</ele>
        <time>2018-11-18T14:21:39.000Z</time>
      </trkpt>
      <trkpt lat="42.69043" lon="1.65033">
        <ele>1464</ele>
        <time>2018-11-18T14:21:41.000Z</time>
      </trkpt>
      <trkpt lat="42.69044" lon="1.65033">
        <ele>1464</ele>
        <time>2018-11-18T14:21:43.000Z</time>
      </trkpt>
      <trkpt lat="42.69045" lon="1.65033">
        <ele>1464</ele>
        <time>2018-11-18T14:21:45.000Z</time>
      </trkpt>
      <trkpt lat="42.69047" lon="1.65033">
        <ele>1463</ele>
        <time>2018-11-18T14:21:47.000Z</time>
      </trkpt>
      <trkpt lat="42.69048" lon="1.65033">
        <ele>1463</ele>
        <time>2018-11-18T14:21:49.000Z</time>
      </trkpt>
      <trkpt lat="42.69049" lon="1.65033">
        <ele>1462</ele>
        <time>2018-11-18T14:21:51.000Z</time>
      </trkpt>
      <trkpt lat="42.6905" lon="1.65033">
        <ele>1462</ele>
        <time>2018-11-18T14:21:53.000Z</time>
      </trkpt>
      <trkpt lat="42.69051" lon="1.65032">
        <ele>1462</ele>
        <time>2018-11-18T14:21:55.000Z</time>
      </trkpt>
      <trkpt lat="42.69052" lon="1.65031">
        <ele>1461</ele>
        <time>2018-11-18T14:21:57.000Z</time>
      </trkpt>
      <trkpt lat="42.69054" lon="1.6503">
        <ele>1461</ele>
        <time>2018-11-18T14:21:59.000Z</time>
      </trkpt>
      <trkpt lat="42.69056" lon="1.65029">
        <ele>1460</ele>
        <time>2018-11-18T14:22:01.000Z</time>
      </trkpt>
      <trkpt lat="42.69058" lon="1.6503">
        <ele>1460</ele>
        <time>2018-11-18T14:22:03.000Z</time>
      </trkpt>
      <trkpt lat="42.69059" lon="1.65031">
        <ele>1460</ele>
        <time>2018-11-18T14:22:05.000Z</time>
      </trkpt>
      <trkpt lat="42.6906" lon="1.65032">
        <ele>1461</ele>
        <time>2018-11-18T14:22:07.000Z</time>
      </trkpt>
      <trkpt lat="42.69061" lon="1.65033">
        <ele>1461</ele>
        <time>2018-11-18T14:22:09.000Z</time>
      </trkpt>
      <trkpt lat="42.69063" lon="1.65034">
        <ele>1461</ele>
        <time>2018-11-18T14:22:11.000Z</time>
      </trkpt>
      <trkpt lat="42.69063" lon="1.65035">
        <ele>1461</ele>
        <time>2018-11-18T14:22:13.000Z</time>
      </trkpt>
      <trkpt lat="42.69064" lon="1.65035">
        <ele>1461</ele>
        <time>2018-11-18T14:22:15.000Z</time>
      </trkpt>
      <trkpt lat="42.69065" lon="1.65035">
        <ele>1461</ele>
        <time>2018-11-18T14:22:17.000Z</time>
      </trkpt>
      <trkpt lat="42.69066" lon="1.65036">
        <ele>1461</ele>
        <time>2018-11-18T14:22:19.000Z</time>
      </trkpt>
      <trkpt lat="42.69067" lon="1.65037">
        <ele>1461</ele>
        <time>2018-11-18T14:22:21.000Z</time>
      </trkpt>
      <trkpt lat="42.69068" lon="1.65037">
        <ele>1461</ele>
        <time>2018-11-18T14:22:23.000Z</time>
      </trkpt>
      <trkpt lat="42.69068" lon="1.65037">
        <ele>1462</ele>
        <time>2018-11-18T14:22:25.000Z</time>
      </trkpt>
      <trkpt lat="42.69068" lon="1.65037">
        <ele>1461</ele>
        <time>2018-11-18T14:22:27.000Z</time>
      </trkpt>
      <trkpt lat="42.69068" lon="1.65037">
        <ele>1461</ele>
        <time>2018-11-18T14:22:29.000Z</time>
      </trkpt>
      <trkpt lat="42.69069" lon="1.65036">
        <ele>1461</ele>
        <time>2018-11-18T14:22:31.000Z</time>
      </trkpt>
      <trkpt lat="42.69069" lon="1.65036">
        <ele>1461</ele>
        <time>2018-11-18T14:22:33.000Z</time>
      </trkpt>
      <trkpt lat="42.6907" lon="1.65036">
        <ele>1461</ele>
        <time>2018-11-18T14:22:35.000Z</time>
      </trkpt>
      <trkpt lat="42.6907" lon="1.65035">
        <ele>1461</ele>
        <time>2018-11-18T14:22:37.000Z</time>
      </trkpt>
      <trkpt lat="42.69071" lon="1.65035">
        <ele>1461</ele>
        <time>2018-11-18T14:22:39.000Z</time>
      </trkpt>
      <trkpt lat="42.69072" lon="1.65035">
        <ele>1460</ele>
        <time>2018-11-18T14:22:41.000Z</time>
      </trkpt>
      <trkpt lat="42.69072" lon="1.65035">
        <ele>1460</ele>
        <time>2018-11-18T14:22:43.000Z</time>
      </trkpt>
      <trkpt lat="42.69074" lon="1.65036">
        <ele>1460</ele>
        <time>2018-11-18T14:22:45.000Z</time>
      </trkpt>
      <trkpt lat="42.69074" lon="1.65036">
        <ele>1461</ele>
        <time>2018-11-18T14:22:47.000Z</time>
      </trkpt>
      <trkpt lat="42.69074" lon="1.65037">
        <ele>1461</ele>
        <time>2018-11-18T14:22:49.000Z</time>
      </trkpt>
      <trkpt lat="42.69075" lon="1.65037">
        <ele>1461</ele>
        <time>2018-11-18T14:22:51.000Z</time>
      </trkpt>
      <trkpt lat="42.69075" lon="1.65038">
        <ele>1461</ele>
        <time>2018-11-18T14:22:53.000Z</time>
      </trkpt>
      <trkpt lat="42.69076" lon="1.65039">
        <ele>1461</ele>
        <time>2018-11-18T14:22:55.000Z</time>
      </trkpt>
      <trkpt lat="42.69078" lon="1.65038">
        <ele>1461</ele>
        <time>2018-11-18T14:22:57.000Z</time>
      </trkpt>
      <trkpt lat="42.69079" lon="1.65038">
        <ele>1460</ele>
        <time>2018-11-18T14:22:59.000Z</time>
      </trkpt>
      <trkpt lat="42.69079" lon="1.65038">
        <ele>1460</ele>
        <time>2018-11-18T14:23:01.000Z</time>
      </trkpt>
      <trkpt lat="42.6908" lon="1.65038">
        <ele>1460</ele>
        <time>2018-11-18T14:23:03.000Z</time>
      </trkpt>
      <trkpt lat="42.6908" lon="1.65038">
        <ele>1460</ele>
        <time>2018-11-18T14:23:05.000Z</time>
      </trkpt>
      <trkpt lat="42.6908" lon="1.65038">
        <ele>1460</ele>
        <time>2018-11-18T14:23:07.000Z</time>
      </trkpt>
      <trkpt lat="42.69081" lon="1.65037">
        <ele>1460</ele>
        <time>2018-11-18T14:23:09.000Z</time>
      </trkpt>
      <trkpt lat="42.69081" lon="1.65037">
        <ele>1460</ele>
        <time>2018-11-18T14:23:11.000Z</time>
      </trkpt>
      <trkpt lat="42.6908" lon="1.65037">
        <ele>1460</ele>
        <time>2018-11-18T14:23:13.000Z</time>
      </trkpt>
      <trkpt lat="42.6908" lon="1.65036">
        <ele>1460</ele>
        <time>2018-11-18T14:23:15.000Z</time>
      </trkpt>
      <trkpt lat="42.6908" lon="1.65035">
        <ele>1459</ele>
        <time>2018-11-18T14:23:17.000Z</time>
      </trkpt>
      <trkpt lat="42.69081" lon="1.65035">
        <ele>1459</ele>
        <time>2018-11-18T14:23:19.000Z</time>
      </trkpt>
      <trkpt lat="42.69081" lon="1.65034">
        <ele>1459</ele>
        <time>2018-11-18T14:23:21.000Z</time>
      </trkpt>
      <trkpt lat="42.69081" lon="1.65034">
        <ele>1459</ele>
        <time>2018-11-18T14:23:23.000Z</time>
      </trkpt>
      <trkpt lat="42.69081" lon="1.65034">
        <ele>1459</ele>
        <time>2018-11-18T14:23:25.000Z</time>
      </trkpt>
      <trkpt lat="42.69081" lon="1.65033">
        <ele>1459</ele>
        <time>2018-11-18T14:23:27.000Z</time>
      </trkpt>
      <trkpt lat="42.69081" lon="1.65033">
        <ele>1458</ele>
        <time>2018-11-18T14:23:29.000Z</time>
      </trkpt>
      <trkpt lat="42.69081" lon="1.65033">
        <ele>1458</ele>
        <time>2018-11-18T14:23:31.000Z</time>
      </trkpt>
      <trkpt lat="42.69082" lon="1.65032">
        <ele>1458</ele>
        <time>2018-11-18T14:23:33.000Z</time>
      </trkpt>
      <trkpt lat="42.69082" lon="1.65033">
        <ele>1458</ele>
        <time>2018-11-18T14:23:35.000Z</time>
      </trkpt>
      <trkpt lat="42.69083" lon="1.65033">
        <ele>1458</ele>
        <time>2018-11-18T14:23:37.000Z</time>
      </trkpt>
      <trkpt lat="42.69084" lon="1.65033">
        <ele>1458</ele>
        <time>2018-11-18T14:23:39.000Z</time>
      </trkpt>
      <trkpt lat="42.69085" lon="1.65033">
        <ele>1458</ele>
        <time>2018-11-18T14:23:41.000Z</time>
      </trkpt>
      <trkpt lat="42.69085" lon="1.65032">
        <ele>1458</ele>
        <time>2018-11-18T14:23:43.000Z</time>
      </trkpt>
      <trkpt lat="42.69086" lon="1.65032">
        <ele>1457</ele>
        <time>2018-11-18T14:23:45.000Z</time>
      </trkpt>
      <trkpt lat="42.69087" lon="1.65032">
        <ele>1458</ele>
        <time>2018-11-18T14:23:47.000Z</time>
      </trkpt>
      <trkpt lat="42.69087" lon="1.65033">
        <ele>1458</ele>
        <time>2018-11-18T14:23:49.000Z</time>
      </trkpt>
      <trkpt lat="42.69087" lon="1.65033">
        <ele>1458</ele>
        <time>2018-11-18T14:23:51.000Z</time>
      </trkpt>
      <trkpt lat="42.69087" lon="1.65032">
        <ele>1457</ele>
        <time>2018-11-18T14:23:53.000Z</time>
      </trkpt>
      <trkpt lat="42.69088" lon="1.65032">
        <ele>1457</ele>
        <time>2018-11-18T14:23:55.000Z</time>
      </trkpt>
      <trkpt lat="42.69089" lon="1.65031">
        <ele>1457</ele>
        <time>2018-11-18T14:23:57.000Z</time>
      </trkpt>
      <trkpt lat="42.69091" lon="1.6503">
        <ele>1456</ele>
        <time>2018-11-18T14:23:59.000Z</time>
      </trkpt>
      <trkpt lat="42.69091" lon="1.65029">
        <ele>1455</ele>
        <time>2018-11-18T14:24:01.000Z</time>
      </trkpt>
      <trkpt lat="42.69092" lon="1.65028">
        <ele>1455</ele>
        <time>2018-11-18T14:24:03.000Z</time>
      </trkpt>
      <trkpt lat="42.69093" lon="1.65028">
        <ele>1455</ele>
        <time>2018-11-18T14:24:05.000Z</time>
      </trkpt>
      <trkpt lat="42.69094" lon="1.65029">
        <ele>1455</ele>
        <time>2018-11-18T14:24:07.000Z</time>
      </trkpt>
      <trkpt lat="42.69095" lon="1.6503">
        <ele>1455</ele>
        <time>2018-11-18T14:24:09.000Z</time>
      </trkpt>
      <trkpt lat="42.69096" lon="1.6503">
        <ele>1455</ele>
        <time>2018-11-18T14:24:11.000Z</time>
      </trkpt>
      <trkpt lat="42.69096" lon="1.65031">
        <ele>1455</ele>
        <time>2018-11-18T14:24:13.000Z</time>
      </trkpt>
      <trkpt lat="42.69097" lon="1.65033">
        <ele>1455</ele>
        <time>2018-11-18T14:24:15.000Z</time>
      </trkpt>
      <trkpt lat="42.69098" lon="1.65034">
        <ele>1455</ele>
        <time>2018-11-18T14:24:17.000Z</time>
      </trkpt>
      <trkpt lat="42.69098" lon="1.65034">
        <ele>1455</ele>
        <time>2018-11-18T14:24:19.000Z</time>
      </trkpt>
      <trkpt lat="42.69099" lon="1.65034">
        <ele>1455</ele>
        <time>2018-11-18T14:24:21.000Z</time>
      </trkpt>
      <trkpt lat="42.69099" lon="1.65035">
        <ele>1455</ele>
        <time>2018-11-18T14:24:23.000Z</time>
      </trkpt>
      <trkpt lat="42.69099" lon="1.65034">
        <ele>1455</ele>
        <time>2018-11-18T14:24:25.000Z</time>
      </trkpt>
      <trkpt lat="42.691" lon="1.65034">
        <ele>1455</ele>
        <time>2018-11-18T14:24:27.000Z</time>
      </trkpt>
      <trkpt lat="42.69101" lon="1.65034">
        <ele>1455</ele>
        <time>2018-11-18T14:24:29.000Z</time>
      </trkpt>
      <trkpt lat="42.69101" lon="1.65036">
        <ele>1455</ele>
        <time>2018-11-18T14:24:31.000Z</time>
      </trkpt>
      <trkpt lat="42.69102" lon="1.65036">
        <ele>1455</ele>
        <time>2018-11-18T14:24:33.000Z</time>
      </trkpt>
      <trkpt lat="42.69102" lon="1.65037">
        <ele>1455</ele>
        <time>2018-11-18T14:24:35.000Z</time>
      </trkpt>
      <trkpt lat="42.69102" lon="1.65038">
        <ele>1455</ele>
        <time>2018-11-18T14:24:37.000Z</time>
      </trkpt>
      <trkpt lat="42.69103" lon="1.65038">
        <ele>1455</ele>
        <time>2018-11-18T14:24:39.000Z</time>
      </trkpt>
      <trkpt lat="42.69103" lon="1.65039">
        <ele>1456</ele>
        <time>2018-11-18T14:24:41.000Z</time>
      </trkpt>
      <trkpt lat="42.69103" lon="1.65039">
        <ele>1456</ele>
        <time>2018-11-18T14:24:43.000Z</time>
      </trkpt>
      <trkpt lat="42.69103" lon="1.65039">
        <ele>1456</ele>
        <time>2018-11-18T14:24:45.000Z</time>
      </trkpt>
      <trkpt lat="42.69104" lon="1.65039">
        <ele>1455</ele>
        <time>2018-11-18T14:24:47.000Z</time>
      </trkpt>
      <trkpt lat="42.69105" lon="1.65039">
        <ele>1455</ele>
        <time>2018-11-18T14:24:49.000Z</time>
      </trkpt>
      <trkpt lat="42.69106" lon="1.65038">
        <ele>1455</ele>
        <time>2018-11-18T14:24:51.000Z</time>
      </trkpt>
      <trkpt lat="42.69106" lon="1.65039">
        <ele>1455</ele>
        <time>2018-11-18T14:24:53.000Z</time>
      </trkpt>
      <trkpt lat="42.69108" lon="1.65039">
        <ele>1455</ele>
        <time>2018-11-18T14:24:55.000Z</time>
      </trkpt>
      <trkpt lat="42.69108" lon="1.65039">
        <ele>1455</ele>
        <time>2018-11-18T14:24:57.000Z</time>
      </trkpt>
      <trkpt lat="42.69109" lon="1.65041">
        <ele>1455</ele>
        <time>2018-11-18T14:24:59.000Z</time>
      </trkpt>
      <trkpt lat="42.6911" lon="1.65041">
        <ele>1455</ele>
        <time>2018-11-18T14:25:01.000Z</time>
      </trkpt>
      <trkpt lat="42.69111" lon="1.65041">
        <ele>1455</ele>
        <time>2018-11-18T14:25:03.000Z</time>
      </trkpt>
      <trkpt lat="42.69112" lon="1.65042">
        <ele>1455</ele>
        <time>2018-11-18T14:25:05.000Z</time>
      </trkpt>
      <trkpt lat="42.69112" lon="1.65043">
        <ele>1455</ele>
        <time>2018-11-18T14:25:07.000Z</time>
      </trkpt>
      <trkpt lat="42.69113" lon="1.65044">
        <ele>1455</ele>
        <time>2018-11-18T14:25:09.000Z</time>
      </trkpt>
      <trkpt lat="42.69114" lon="1.65044">
        <ele>1455</ele>
        <time>2018-11-18T14:25:11.000Z</time>
      </trkpt>
      <trkpt lat="42.69115" lon="1.65044">
        <ele>1454</ele>
        <time>2018-11-18T14:25:13.000Z</time>
      </trkpt>
      <trkpt lat="42.69116" lon="1.65044">
        <ele>1454</ele>
        <time>2018-11-18T14:25:15.000Z</time>
      </trkpt>
      <trkpt lat="42.69116" lon="1.65045">
        <ele>1454</ele>
        <time>2018-11-18T14:25:17.000Z</time>
      </trkpt>
      <trkpt lat="42.69116" lon="1.65045">
        <ele>1454</ele>
        <time>2018-11-18T14:25:19.000Z</time>
      </trkpt>
      <trkpt lat="42.69117" lon="1.65045">
        <ele>1454</ele>
        <time>2018-11-18T14:25:21.000Z</time>
      </trkpt>
      <trkpt lat="42.69117" lon="1.65045">
        <ele>1454</ele>
        <time>2018-11-18T14:25:23.000Z</time>
      </trkpt>
      <trkpt lat="42.69118" lon="1.65046">
        <ele>1454</ele>
        <time>2018-11-18T14:25:25.000Z</time>
      </trkpt>
      <trkpt lat="42.69119" lon="1.65046">
        <ele>1454</ele>
        <time>2018-11-18T14:25:27.000Z</time>
      </trkpt>
      <trkpt lat="42.69119" lon="1.65047">
        <ele>1454</ele>
        <time>2018-11-18T14:25:29.000Z</time>
      </trkpt>
      <trkpt lat="42.6912" lon="1.65046">
        <ele>1454</ele>
        <time>2018-11-18T14:25:31.000Z</time>
      </trkpt>
      <trkpt lat="42.69121" lon="1.65046">
        <ele>1454</ele>
        <time>2018-11-18T14:25:33.000Z</time>
      </trkpt>
      <trkpt lat="42.69122" lon="1.65046">
        <ele>1453</ele>
        <time>2018-11-18T14:25:35.000Z</time>
      </trkpt>
      <trkpt lat="42.69123" lon="1.65046">
        <ele>1453</ele>
        <time>2018-11-18T14:25:37.000Z</time>
      </trkpt>
      <trkpt lat="42.69124" lon="1.65046">
        <ele>1453</ele>
        <time>2018-11-18T14:25:39.000Z</time>
      </trkpt>
      <trkpt lat="42.69125" lon="1.65046">
        <ele>1453</ele>
        <time>2018-11-18T14:25:41.000Z</time>
      </trkpt>
      <trkpt lat="42.69127" lon="1.65047">
        <ele>1453</ele>
        <time>2018-11-18T14:25:43.000Z</time>
      </trkpt>
      <trkpt lat="42.69128" lon="1.65049">
        <ele>1453</ele>
        <time>2018-11-18T14:25:45.000Z</time>
      </trkpt>
      <trkpt lat="42.69129" lon="1.6505">
        <ele>1453</ele>
        <time>2018-11-18T14:25:47.000Z</time>
      </trkpt>
      <trkpt lat="42.6913" lon="1.65051">
        <ele>1453</ele>
        <time>2018-11-18T14:25:49.000Z</time>
      </trkpt>
      <trkpt lat="42.69132" lon="1.65052">
        <ele>1453</ele>
        <time>2018-11-18T14:25:51.000Z</time>
      </trkpt>
      <trkpt lat="42.69133" lon="1.65054">
        <ele>1453</ele>
        <time>2018-11-18T14:25:53.000Z</time>
      </trkpt>
      <trkpt lat="42.69134" lon="1.65055">
        <ele>1453</ele>
        <time>2018-11-18T14:25:55.000Z</time>
      </trkpt>
      <trkpt lat="42.69136" lon="1.65057">
        <ele>1453</ele>
        <time>2018-11-18T14:25:57.000Z</time>
      </trkpt>
      <trkpt lat="42.69137" lon="1.65058">
        <ele>1454</ele>
        <time>2018-11-18T14:25:59.000Z</time>
      </trkpt>
      <trkpt lat="42.69138" lon="1.65059">
        <ele>1454</ele>
        <time>2018-11-18T14:26:01.000Z</time>
      </trkpt>
      <trkpt lat="42.69139" lon="1.6506">
        <ele>1454</ele>
        <time>2018-11-18T14:26:03.000Z</time>
      </trkpt>
      <trkpt lat="42.69141" lon="1.65061">
        <ele>1454</ele>
        <time>2018-11-18T14:26:05.000Z</time>
      </trkpt>
      <trkpt lat="42.69141" lon="1.65061">
        <ele>1454</ele>
        <time>2018-11-18T14:26:07.000Z</time>
      </trkpt>
      <trkpt lat="42.69142" lon="1.65061">
        <ele>1453</ele>
        <time>2018-11-18T14:26:09.000Z</time>
      </trkpt>
      <trkpt lat="42.69142" lon="1.6506">
        <ele>1453</ele>
        <time>2018-11-18T14:26:11.000Z</time>
      </trkpt>
      <trkpt lat="42.69142" lon="1.65059">
        <ele>1453</ele>
        <time>2018-11-18T14:26:13.000Z</time>
      </trkpt>
      <trkpt lat="42.69143" lon="1.65059">
        <ele>1452</ele>
        <time>2018-11-18T14:26:15.000Z</time>
      </trkpt>
      <trkpt lat="42.69143" lon="1.65058">
        <ele>1452</ele>
        <time>2018-11-18T14:26:17.000Z</time>
      </trkpt>
      <trkpt lat="42.69143" lon="1.65057">
        <ele>1452</ele>
        <time>2018-11-18T14:26:19.000Z</time>
      </trkpt>
      <trkpt lat="42.69143" lon="1.65057">
        <ele>1452</ele>
        <time>2018-11-18T14:26:21.000Z</time>
      </trkpt>
      <trkpt lat="42.69143" lon="1.65058">
        <ele>1452</ele>
        <time>2018-11-18T14:26:23.000Z</time>
      </trkpt>
      <trkpt lat="42.69143" lon="1.65058">
        <ele>1452</ele>
        <time>2018-11-18T14:26:25.000Z</time>
      </trkpt>
      <trkpt lat="42.69142" lon="1.65058">
        <ele>1452</ele>
        <time>2018-11-18T14:26:27.000Z</time>
      </trkpt>
      <trkpt lat="42.69143" lon="1.65058">
        <ele>1452</ele>
        <time>2018-11-18T14:26:29.000Z</time>
      </trkpt>
      <trkpt lat="42.69143" lon="1.65058">
        <ele>1452</ele>
        <time>2018-11-18T14:26:31.000Z</time>
      </trkpt>
      <trkpt lat="42.69143" lon="1.65058">
        <ele>1452</ele>
        <time>2018-11-18T14:26:33.000Z</time>
      </trkpt>
      <trkpt lat="42.69143" lon="1.65058">
        <ele>1452</ele>
        <time>2018-11-18T14:26:35.000Z</time>
      </trkpt>
      <trkpt lat="42.69143" lon="1.65059">
        <ele>1452</ele>
        <time>2018-11-18T14:26:37.000Z</time>
      </trkpt>
      <trkpt lat="42.69143" lon="1.65059">
        <ele>1452</ele>
        <time>2018-11-18T14:26:39.000Z</time>
      </trkpt>
      <trkpt lat="42.69143" lon="1.6506">
        <ele>1453</ele>
        <time>2018-11-18T14:26:41.000Z</time>
      </trkpt>
      <trkpt lat="42.69143" lon="1.6506">
        <ele>1453</ele>
        <time>2018-11-18T14:26:43.000Z</time>
      </trkpt>
      <trkpt lat="42.69143" lon="1.65061">
        <ele>1453</ele>
        <time>2018-11-18T14:26:45.000Z</time>
      </trkpt>
      <trkpt lat="42.69143" lon="1.65061">
        <ele>1453</ele>
        <time>2018-11-18T14:26:47.000Z</time>
      </trkpt>
      <trkpt lat="42.69143" lon="1.65061">
        <ele>1453</ele>
        <time>2018-11-18T14:26:49.000Z</time>
      </trkpt>
      <trkpt lat="42.69143" lon="1.65061">
        <ele>1453</ele>
        <time>2018-11-18T14:26:51.000Z</time>
      </trkpt>
      <trkpt lat="42.69143" lon="1.65061">
        <ele>1453</ele>
        <time>2018-11-18T14:26:53.000Z</time>
      </trkpt>
      <trkpt lat="42.69142" lon="1.65061">
        <ele>1453</ele>
        <time>2018-11-18T14:26:55.000Z</time>
      </trkpt>
      <trkpt lat="42.69142" lon="1.65061">
        <ele>1453</ele>
        <time>2018-11-18T14:26:57.000Z</time>
      </trkpt>
      <trkpt lat="42.69142" lon="1.65061">
        <ele>1453</ele>
        <time>2018-11-18T14:26:59.000Z</time>
      </trkpt>
      <trkpt lat="42.69142" lon="1.65061">
        <ele>1453</ele>
        <time>2018-11-18T14:27:01.000Z</time>
      </trkpt>
      <trkpt lat="42.69142" lon="1.65061">
        <ele>1453</ele>
        <time>2018-11-18T14:27:03.000Z</time>
      </trkpt>
      <trkpt lat="42.69142" lon="1.65061">
        <ele>1453</ele>
        <time>2018-11-18T14:27:05.000Z</time>
      </trkpt>
      <trkpt lat="42.69142" lon="1.65061">
        <ele>1453</ele>
        <time>2018-11-18T14:27:07.000Z</time>
      </trkpt>
      <trkpt lat="42.69142" lon="1.65062">
        <ele>1454</ele>
        <time>2018-11-18T14:27:09.000Z</time>
      </trkpt>
      <trkpt lat="42.69142" lon="1.65063">
        <ele>1454</ele>
        <time>2018-11-18T14:27:11.000Z</time>
      </trkpt>
      <trkpt lat="42.69142" lon="1.65064">
        <ele>1454</ele>
        <time>2018-11-18T14:27:13.000Z</time>
      </trkpt>
      <trkpt lat="42.69141" lon="1.65065">
        <ele>1455</ele>
        <time>2018-11-18T14:27:15.000Z</time>
      </trkpt>
      <trkpt lat="42.69141" lon="1.65065">
        <ele>1455</ele>
        <time>2018-11-18T14:27:17.000Z</time>
      </trkpt>
      <trkpt lat="42.6914" lon="1.65066">
        <ele>1455</ele>
        <time>2018-11-18T14:27:19.000Z</time>
      </trkpt>
      <trkpt lat="42.6914" lon="1.65066">
        <ele>1455</ele>
        <time>2018-11-18T14:27:21.000Z</time>
      </trkpt>
      <trkpt lat="42.6914" lon="1.65066">
        <ele>1455</ele>
        <time>2018-11-18T14:27:23.000Z</time>
      </trkpt>
      <trkpt lat="42.6914" lon="1.65065">
        <ele>1455</ele>
        <time>2018-11-18T14:27:25.000Z</time>
      </trkpt>
      <trkpt lat="42.6914" lon="1.65065">
        <ele>1455</ele>
        <time>2018-11-18T14:27:27.000Z</time>
      </trkpt>
      <trkpt lat="42.6914" lon="1.65065">
        <ele>1455</ele>
        <time>2018-11-18T14:27:29.000Z</time>
      </trkpt>
      <trkpt lat="42.6914" lon="1.65064">
        <ele>1455</ele>
        <time>2018-11-18T14:27:31.000Z</time>
      </trkpt>
      <trkpt lat="42.69141" lon="1.65064">
        <ele>1455</ele>
        <time>2018-11-18T14:27:33.000Z</time>
      </trkpt>
      <trkpt lat="42.6914" lon="1.65064">
        <ele>1455</ele>
        <time>2018-11-18T14:27:35.000Z</time>
      </trkpt>
      <trkpt lat="42.69141" lon="1.65064">
        <ele>1455</ele>
        <time>2018-11-18T14:27:37.000Z</time>
      </trkpt>
      <trkpt lat="42.69142" lon="1.65063">
        <ele>1454</ele>
        <time>2018-11-18T14:27:39.000Z</time>
      </trkpt>
      <trkpt lat="42.69144" lon="1.65063">
        <ele>1453</ele>
        <time>2018-11-18T14:27:41.000Z</time>
      </trkpt>
      <trkpt lat="42.69145" lon="1.65062">
        <ele>1453</ele>
        <time>2018-11-18T14:27:43.000Z</time>
      </trkpt>
      <trkpt lat="42.69146" lon="1.65062">
        <ele>1453</ele>
        <time>2018-11-18T14:27:45.000Z</time>
      </trkpt>
      <trkpt lat="42.69147" lon="1.65061">
        <ele>1452</ele>
        <time>2018-11-18T14:27:47.000Z</time>
      </trkpt>
      <trkpt lat="42.69148" lon="1.6506">
        <ele>1452</ele>
        <time>2018-11-18T14:27:49.000Z</time>
      </trkpt>
      <trkpt lat="42.6915" lon="1.65059">
        <ele>1451</ele>
        <time>2018-11-18T14:27:51.000Z</time>
      </trkpt>
      <trkpt lat="42.69151" lon="1.6506">
        <ele>1451</ele>
        <time>2018-11-18T14:27:53.000Z</time>
      </trkpt>
      <trkpt lat="42.69152" lon="1.65061">
        <ele>1451</ele>
        <time>2018-11-18T14:27:55.000Z</time>
      </trkpt>
      <trkpt lat="42.69153" lon="1.65063">
        <ele>1451</ele>
        <time>2018-11-18T14:27:57.000Z</time>
      </trkpt>
      <trkpt lat="42.69153" lon="1.65063">
        <ele>1451</ele>
        <time>2018-11-18T14:27:59.000Z</time>
      </trkpt>
      <trkpt lat="42.69153" lon="1.65064">
        <ele>1451</ele>
        <time>2018-11-18T14:28:01.000Z</time>
      </trkpt>
      <trkpt lat="42.69153" lon="1.65064">
        <ele>1451</ele>
        <time>2018-11-18T14:28:03.000Z</time>
      </trkpt>
      <trkpt lat="42.69154" lon="1.65065">
        <ele>1452</ele>
        <time>2018-11-18T14:28:05.000Z</time>
      </trkpt>
      <trkpt lat="42.69154" lon="1.65065">
        <ele>1452</ele>
        <time>2018-11-18T14:28:07.000Z</time>
      </trkpt>
      <trkpt lat="42.69154" lon="1.65065">
        <ele>1452</ele>
        <time>2018-11-18T14:28:09.000Z</time>
      </trkpt>
      <trkpt lat="42.69154" lon="1.65065">
        <ele>1452</ele>
        <time>2018-11-18T14:28:11.000Z</time>
      </trkpt>
      <trkpt lat="42.69154" lon="1.65066">
        <ele>1452</ele>
        <time>2018-11-18T14:28:13.000Z</time>
      </trkpt>
      <trkpt lat="42.69154" lon="1.65067">
        <ele>1452</ele>
        <time>2018-11-18T14:28:15.000Z</time>
      </trkpt>
      <trkpt lat="42.69154" lon="1.65067">
        <ele>1452</ele>
        <time>2018-11-18T14:28:17.000Z</time>
      </trkpt>
      <trkpt lat="42.69155" lon="1.65067">
        <ele>1452</ele>
        <time>2018-11-18T14:28:19.000Z</time>
      </trkpt>
      <trkpt lat="42.69155" lon="1.65067">
        <ele>1452</ele>
        <time>2018-11-18T14:28:21.000Z</time>
      </trkpt>
      <trkpt lat="42.69155" lon="1.65068">
        <ele>1452</ele>
        <time>2018-11-18T14:28:23.000Z</time>
      </trkpt>
      <trkpt lat="42.69156" lon="1.65069">
        <ele>1453</ele>
        <time>2018-11-18T14:28:25.000Z</time>
      </trkpt>
      <trkpt lat="42.69156" lon="1.65069">
        <ele>1452</ele>
        <time>2018-11-18T14:28:27.000Z</time>
      </trkpt>
      <trkpt lat="42.69156" lon="1.65069">
        <ele>1452</ele>
        <time>2018-11-18T14:28:29.000Z</time>
      </trkpt>
      <trkpt lat="42.69157" lon="1.6507">
        <ele>1452</ele>
        <time>2018-11-18T14:28:31.000Z</time>
      </trkpt>
      <trkpt lat="42.69157" lon="1.65069">
        <ele>1452</ele>
        <time>2018-11-18T14:28:33.000Z</time>
      </trkpt>
      <trkpt lat="42.69158" lon="1.65069">
        <ele>1452</ele>
        <time>2018-11-18T14:28:35.000Z</time>
      </trkpt>
      <trkpt lat="42.69158" lon="1.65069">
        <ele>1452</ele>
        <time>2018-11-18T14:28:37.000Z</time>
      </trkpt>
      <trkpt lat="42.69158" lon="1.65069">
        <ele>1452</ele>
        <time>2018-11-18T14:28:39.000Z</time>
      </trkpt>
      <trkpt lat="42.69159" lon="1.6507">
        <ele>1452</ele>
        <time>2018-11-18T14:28:41.000Z</time>
      </trkpt>
      <trkpt lat="42.6916" lon="1.65069">
        <ele>1452</ele>
        <time>2018-11-18T14:28:43.000Z</time>
      </trkpt>
      <trkpt lat="42.6916" lon="1.65069">
        <ele>1451</ele>
        <time>2018-11-18T14:28:45.000Z</time>
      </trkpt>
      <trkpt lat="42.6916" lon="1.65069">
        <ele>1451</ele>
        <time>2018-11-18T14:28:47.000Z</time>
      </trkpt>
      <trkpt lat="42.6916" lon="1.65069">
        <ele>1451</ele>
        <time>2018-11-18T14:28:49.000Z</time>
      </trkpt>
      <trkpt lat="42.69159" lon="1.65069">
        <ele>1451</ele>
        <time>2018-11-18T14:28:51.000Z</time>
      </trkpt>
      <trkpt lat="42.69159" lon="1.65068">
        <ele>1451</ele>
        <time>2018-11-18T14:28:53.000Z</time>
      </trkpt>
      <trkpt lat="42.69159" lon="1.65068">
        <ele>1451</ele>
        <time>2018-11-18T14:28:55.000Z</time>
      </trkpt>
      <trkpt lat="42.69159" lon="1.65068">
        <ele>1452</ele>
        <time>2018-11-18T14:28:57.000Z</time>
      </trkpt>
      <trkpt lat="42.69159" lon="1.65068">
        <ele>1452</ele>
        <time>2018-11-18T14:28:59.000Z</time>
      </trkpt>
      <trkpt lat="42.69159" lon="1.65069">
        <ele>1452</ele>
        <time>2018-11-18T14:29:01.000Z</time>
      </trkpt>
      <trkpt lat="42.69159" lon="1.65069">
        <ele>1452</ele>
        <time>2018-11-18T14:29:03.000Z</time>
      </trkpt>
      <trkpt lat="42.69158" lon="1.6507">
        <ele>1452</ele>
        <time>2018-11-18T14:29:05.000Z</time>
      </trkpt>
      <trkpt lat="42.69158" lon="1.6507">
        <ele>1452</ele>
        <time>2018-11-18T14:29:07.000Z</time>
      </trkpt>
      <trkpt lat="42.69158" lon="1.6507">
        <ele>1452</ele>
        <time>2018-11-18T14:29:09.000Z</time>
      </trkpt>
      <trkpt lat="42.69157" lon="1.65072">
        <ele>1453</ele>
        <time>2018-11-18T14:29:11.000Z</time>
      </trkpt>
      <trkpt lat="42.69157" lon="1.65071">
        <ele>1453</ele>
        <time>2018-11-18T14:29:13.000Z</time>
      </trkpt>
      <trkpt lat="42.69157" lon="1.65071">
        <ele>1453</ele>
        <time>2018-11-18T14:29:15.000Z</time>
      </trkpt>
      <trkpt lat="42.69157" lon="1.65071">
        <ele>1453</ele>
        <time>2018-11-18T14:29:17.000Z</time>
      </trkpt>
      <trkpt lat="42.69158" lon="1.6507">
        <ele>1452</ele>
        <time>2018-11-18T14:29:19.000Z</time>
      </trkpt>
      <trkpt lat="42.69158" lon="1.65069">
        <ele>1452</ele>
        <time>2018-11-18T14:29:21.000Z</time>
      </trkpt>
      <trkpt lat="42.69158" lon="1.65069">
        <ele>1452</ele>
        <time>2018-11-18T14:29:23.000Z</time>
      </trkpt>
      <trkpt lat="42.69158" lon="1.65069">
        <ele>1452</ele>
        <time>2018-11-18T14:29:25.000Z</time>
      </trkpt>
      <trkpt lat="42.69159" lon="1.65069">
        <ele>1452</ele>
        <time>2018-11-18T14:29:27.000Z</time>
      </trkpt>
      <trkpt lat="42.69158" lon="1.65068">
        <ele>1452</ele>
        <time>2018-11-18T14:29:29.000Z</time>
      </trkpt>
      <trkpt lat="42.69158" lon="1.65068">
        <ele>1452</ele>
        <time>2018-11-18T14:29:31.000Z</time>
      </trkpt>
      <trkpt lat="42.69158" lon="1.65068">
        <ele>1452</ele>
        <time>2018-11-18T14:29:33.000Z</time>
      </trkpt>
      <trkpt lat="42.69158" lon="1.65067">
        <ele>1451</ele>
        <time>2018-11-18T14:29:35.000Z</time>
      </trkpt>
      <trkpt lat="42.69158" lon="1.65068">
        <ele>1452</ele>
        <time>2018-11-18T14:29:37.000Z</time>
      </trkpt>
      <trkpt lat="42.69157" lon="1.65068">
        <ele>1452</ele>
        <time>2018-11-18T14:29:39.000Z</time>
      </trkpt>
      <trkpt lat="42.69157" lon="1.65068">
        <ele>1452</ele>
        <time>2018-11-18T14:29:41.000Z</time>
      </trkpt>
      <trkpt lat="42.69157" lon="1.65067">
        <ele>1452</ele>
        <time>2018-11-18T14:29:43.000Z</time>
      </trkpt>
      <trkpt lat="42.69157" lon="1.65067">
        <ele>1452</ele>
        <time>2018-11-18T14:29:45.000Z</time>
      </trkpt>
      <trkpt lat="42.69157" lon="1.65067">
        <ele>1452</ele>
        <time>2018-11-18T14:29:47.000Z</time>
      </trkpt>
      <trkpt lat="42.69157" lon="1.65067">
        <ele>1452</ele>
        <time>2018-11-18T14:29:49.000Z</time>
      </trkpt>
      <trkpt lat="42.69157" lon="1.65068">
        <ele>1452</ele>
        <time>2018-11-18T14:29:51.000Z</time>
      </trkpt>
      <trkpt lat="42.69157" lon="1.65068">
        <ele>1452</ele>
        <time>2018-11-18T14:29:53.000Z</time>
      </trkpt>
      <trkpt lat="42.69157" lon="1.65068">
        <ele>1452</ele>
        <time>2018-11-18T14:29:55.000Z</time>
      </trkpt>
      <trkpt lat="42.69157" lon="1.65068">
        <ele>1452</ele>
        <time>2018-11-18T14:29:57.000Z</time>
      </trkpt>
      <trkpt lat="42.69157" lon="1.65067">
        <ele>1452</ele>
        <time>2018-11-18T14:29:59.000Z</time>
      </trkpt>
      <trkpt lat="42.69157" lon="1.65067">
        <ele>1452</ele>
        <time>2018-11-18T14:30:01.000Z</time>
      </trkpt>
      <trkpt lat="42.69157" lon="1.65067">
        <ele>1452</ele>
        <time>2018-11-18T14:30:03.000Z</time>
      </trkpt>
      <trkpt lat="42.69157" lon="1.65067">
        <ele>1452</ele>
        <time>2018-11-18T14:30:05.000Z</time>
      </trkpt>
      <trkpt lat="42.69157" lon="1.65067">
        <ele>1451</ele>
        <time>2018-11-18T14:30:07.000Z</time>
      </trkpt>
      <trkpt lat="42.69157" lon="1.65066">
        <ele>1451</ele>
        <time>2018-11-18T14:30:09.000Z</time>
      </trkpt>
      <trkpt lat="42.69157" lon="1.65066">
        <ele>1451</ele>
        <time>2018-11-18T14:30:11.000Z</time>
      </trkpt>
      <trkpt lat="42.69157" lon="1.65066">
        <ele>1451</ele>
        <time>2018-11-18T14:30:13.000Z</time>
      </trkpt>
      <trkpt lat="42.69157" lon="1.65065">
        <ele>1451</ele>
        <time>2018-11-18T14:30:15.000Z</time>
      </trkpt>
      <trkpt lat="42.69157" lon="1.65065">
        <ele>1451</ele>
        <time>2018-11-18T14:30:17.000Z</time>
      </trkpt>
      <trkpt lat="42.69157" lon="1.65064">
        <ele>1451</ele>
        <time>2018-11-18T14:30:19.000Z</time>
      </trkpt>
      <trkpt lat="42.69157" lon="1.65064">
        <ele>1451</ele>
        <time>2018-11-18T14:30:21.000Z</time>
      </trkpt>
      <trkpt lat="42.69157" lon="1.65064">
        <ele>1451</ele>
        <time>2018-11-18T14:30:23.000Z</time>
      </trkpt>
      <trkpt lat="42.69157" lon="1.65064">
        <ele>1451</ele>
        <time>2018-11-18T14:30:25.000Z</time>
      </trkpt>
      <trkpt lat="42.69157" lon="1.65064">
        <ele>1451</ele>
        <time>2018-11-18T14:30:27.000Z</time>
      </trkpt>
      <trkpt lat="42.69157" lon="1.65064">
        <ele>1451</ele>
        <time>2018-11-18T14:30:29.000Z</time>
      </trkpt>
      <trkpt lat="42.69157" lon="1.65065">
        <ele>1451</ele>
        <time>2018-11-18T14:30:31.000Z</time>
      </trkpt>
      <trkpt lat="42.69157" lon="1.65065">
        <ele>1451</ele>
        <time>2018-11-18T14:30:33.000Z</time>
      </trkpt>
      <trkpt lat="42.69157" lon="1.65065">
        <ele>1451</ele>
        <time>2018-11-18T14:30:35.000Z</time>
      </trkpt>
      <trkpt lat="42.69157" lon="1.65065">
        <ele>1451</ele>
        <time>2018-11-18T14:30:37.000Z</time>
      </trkpt>
      <trkpt lat="42.69157" lon="1.65065">
        <ele>1451</ele>
        <time>2018-11-18T14:30:39.000Z</time>
      </trkpt>
      <trkpt lat="42.69157" lon="1.65066">
        <ele>1451</ele>
        <time>2018-11-18T14:30:41.000Z</time>
      </trkpt>
      <trkpt lat="42.69157" lon="1.65066">
        <ele>1451</ele>
        <time>2018-11-18T14:30:43.000Z</time>
      </trkpt>
      <trkpt lat="42.69157" lon="1.65066">
        <ele>1451</ele>
        <time>2018-11-18T14:30:45.000Z</time>
      </trkpt>
      <trkpt lat="42.69157" lon="1.65067">
        <ele>1451</ele>
        <time>2018-11-18T14:30:47.000Z</time>
      </trkpt>
      <trkpt lat="42.69157" lon="1.65067">
        <ele>1451</ele>
        <time>2018-11-18T14:30:49.000Z</time>
      </trkpt>
      <trkpt lat="42.69157" lon="1.65068">
        <ele>1452</ele>
        <time>2018-11-18T14:30:51.000Z</time>
      </trkpt>
      <trkpt lat="42.69158" lon="1.65069">
        <ele>1452</ele>
        <time>2018-11-18T14:30:53.000Z</time>
      </trkpt>
      <trkpt lat="42.69158" lon="1.6507">
        <ele>1452</ele>
        <time>2018-11-18T14:30:55.000Z</time>
      </trkpt>
      <trkpt lat="42.69158" lon="1.6507">
        <ele>1452</ele>
        <time>2018-11-18T14:30:57.000Z</time>
      </trkpt>
      <trkpt lat="42.69159" lon="1.6507">
        <ele>1452</ele>
        <time>2018-11-18T14:30:59.000Z</time>
      </trkpt>
      <trkpt lat="42.69159" lon="1.6507">
        <ele>1452</ele>
        <time>2018-11-18T14:31:01.000Z</time>
      </trkpt>
      <trkpt lat="42.69159" lon="1.6507">
        <ele>1452</ele>
        <time>2018-11-18T14:31:03.000Z</time>
      </trkpt>
      <trkpt lat="42.6916" lon="1.6507">
        <ele>1452</ele>
        <time>2018-11-18T14:31:05.000Z</time>
      </trkpt>
      <trkpt lat="42.6916" lon="1.6507">
        <ele>1452</ele>
        <time>2018-11-18T14:31:07.000Z</time>
      </trkpt>
      <trkpt lat="42.6916" lon="1.6507">
        <ele>1452</ele>
        <time>2018-11-18T14:31:09.000Z</time>
      </trkpt>
      <trkpt lat="42.6916" lon="1.65071">
        <ele>1452</ele>
        <time>2018-11-18T14:31:11.000Z</time>
      </trkpt>
      <trkpt lat="42.6916" lon="1.6507">
        <ele>1452</ele>
        <time>2018-11-18T14:31:13.000Z</time>
      </trkpt>
      <trkpt lat="42.6916" lon="1.6507">
        <ele>1452</ele>
        <time>2018-11-18T14:31:15.000Z</time>
      </trkpt>
      <trkpt lat="42.6916" lon="1.65071">
        <ele>1452</ele>
        <time>2018-11-18T14:31:17.000Z</time>
      </trkpt>
      <trkpt lat="42.6916" lon="1.65071">
        <ele>1452</ele>
        <time>2018-11-18T14:31:19.000Z</time>
      </trkpt>
      <trkpt lat="42.6916" lon="1.65071">
        <ele>1452</ele>
        <time>2018-11-18T14:31:21.000Z</time>
      </trkpt>
      <trkpt lat="42.6916" lon="1.65071">
        <ele>1452</ele>
        <time>2018-11-18T14:31:23.000Z</time>
      </trkpt>
      <trkpt lat="42.69159" lon="1.65071">
        <ele>1452</ele>
        <time>2018-11-18T14:31:25.000Z</time>
      </trkpt>
      <trkpt lat="42.69159" lon="1.65072">
        <ele>1452</ele>
        <time>2018-11-18T14:31:27.000Z</time>
      </trkpt>
      <trkpt lat="42.6916" lon="1.65071">
        <ele>1452</ele>
        <time>2018-11-18T14:31:29.000Z</time>
      </trkpt>
      <trkpt lat="42.6916" lon="1.65071">
        <ele>1452</ele>
        <time>2018-11-18T14:31:31.000Z</time>
      </trkpt>
      <trkpt lat="42.69161" lon="1.65071">
        <ele>1452</ele>
        <time>2018-11-18T14:31:33.000Z</time>
      </trkpt>
      <trkpt lat="42.69161" lon="1.65071">
        <ele>1452</ele>
        <time>2018-11-18T14:31:35.000Z</time>
      </trkpt>
      <trkpt lat="42.69161" lon="1.65071">
        <ele>1452</ele>
        <time>2018-11-18T14:31:37.000Z</time>
      </trkpt>
      <trkpt lat="42.69162" lon="1.6507">
        <ele>1451</ele>
        <time>2018-11-18T14:31:39.000Z</time>
      </trkpt>
      <trkpt lat="42.69162" lon="1.6507">
        <ele>1451</ele>
        <time>2018-11-18T14:31:41.000Z</time>
      </trkpt>
      <trkpt lat="42.69162" lon="1.65068">
        <ele>1451</ele>
        <time>2018-11-18T14:31:43.000Z</time>
      </trkpt>
      <trkpt lat="42.69163" lon="1.65066">
        <ele>1450</ele>
        <time>2018-11-18T14:31:45.000Z</time>
      </trkpt>
      <trkpt lat="42.69163" lon="1.65065">
        <ele>1449</ele>
        <time>2018-11-18T14:31:47.000Z</time>
      </trkpt>
      <trkpt lat="42.69165" lon="1.65066">
        <ele>1449</ele>
        <time>2018-11-18T14:31:49.000Z</time>
      </trkpt>
      <trkpt lat="42.69166" lon="1.65067">
        <ele>1449</ele>
        <time>2018-11-18T14:31:51.000Z</time>
      </trkpt>
      <trkpt lat="42.69167" lon="1.65067">
        <ele>1449</ele>
        <time>2018-11-18T14:31:53.000Z</time>
      </trkpt>
      <trkpt lat="42.69169" lon="1.65066">
        <ele>1449</ele>
        <time>2018-11-18T14:31:55.000Z</time>
      </trkpt>
      <trkpt lat="42.69171" lon="1.65067">
        <ele>1448</ele>
        <time>2018-11-18T14:31:57.000Z</time>
      </trkpt>
      <trkpt lat="42.69172" lon="1.65066">
        <ele>1448</ele>
        <time>2018-11-18T14:31:59.000Z</time>
      </trkpt>
      <trkpt lat="42.69172" lon="1.65066">
        <ele>1448</ele>
        <time>2018-11-18T14:32:01.000Z</time>
      </trkpt>
      <trkpt lat="42.69174" lon="1.65065">
        <ele>1448</ele>
        <time>2018-11-18T14:32:03.000Z</time>
      </trkpt>
      <trkpt lat="42.69175" lon="1.65065">
        <ele>1447</ele>
        <time>2018-11-18T14:32:05.000Z</time>
      </trkpt>
      <trkpt lat="42.69177" lon="1.65065">
        <ele>1447</ele>
        <time>2018-11-18T14:32:07.000Z</time>
      </trkpt>
      <trkpt lat="42.69178" lon="1.65067">
        <ele>1447</ele>
        <time>2018-11-18T14:32:09.000Z</time>
      </trkpt>
      <trkpt lat="42.69179" lon="1.65067">
        <ele>1447</ele>
        <time>2018-11-18T14:32:11.000Z</time>
      </trkpt>
      <trkpt lat="42.6918" lon="1.65067">
        <ele>1447</ele>
        <time>2018-11-18T14:32:13.000Z</time>
      </trkpt>
      <trkpt lat="42.69182" lon="1.65067">
        <ele>1446</ele>
        <time>2018-11-18T14:32:15.000Z</time>
      </trkpt>
      <trkpt lat="42.69183" lon="1.65068">
        <ele>1446</ele>
        <time>2018-11-18T14:32:17.000Z</time>
      </trkpt>
      <trkpt lat="42.69184" lon="1.65068">
        <ele>1446</ele>
        <time>2018-11-18T14:32:19.000Z</time>
      </trkpt>
      <trkpt lat="42.69186" lon="1.65068">
        <ele>1446</ele>
        <time>2018-11-18T14:32:21.000Z</time>
      </trkpt>
      <trkpt lat="42.69187" lon="1.65069">
        <ele>1446</ele>
        <time>2018-11-18T14:32:23.000Z</time>
      </trkpt>
      <trkpt lat="42.69188" lon="1.6507">
        <ele>1446</ele>
        <time>2018-11-18T14:32:25.000Z</time>
      </trkpt>
      <trkpt lat="42.69189" lon="1.65071">
        <ele>1446</ele>
        <time>2018-11-18T14:32:27.000Z</time>
      </trkpt>
      <trkpt lat="42.69189" lon="1.65074">
        <ele>1446</ele>
        <time>2018-11-18T14:32:29.000Z</time>
      </trkpt>
      <trkpt lat="42.6919" lon="1.65076">
        <ele>1447</ele>
        <time>2018-11-18T14:32:31.000Z</time>
      </trkpt>
      <trkpt lat="42.69192" lon="1.65077">
        <ele>1446</ele>
        <time>2018-11-18T14:32:33.000Z</time>
      </trkpt>
      <trkpt lat="42.69193" lon="1.65079">
        <ele>1447</ele>
        <time>2018-11-18T14:32:35.000Z</time>
      </trkpt>
      <trkpt lat="42.69193" lon="1.6508">
        <ele>1447</ele>
        <time>2018-11-18T14:32:37.000Z</time>
      </trkpt>
      <trkpt lat="42.69195" lon="1.65079">
        <ele>1446</ele>
        <time>2018-11-18T14:32:39.000Z</time>
      </trkpt>
      <trkpt lat="42.69196" lon="1.65079">
        <ele>1446</ele>
        <time>2018-11-18T14:32:41.000Z</time>
      </trkpt>
      <trkpt lat="42.69197" lon="1.6508">
        <ele>1446</ele>
        <time>2018-11-18T14:32:43.000Z</time>
      </trkpt>
      <trkpt lat="42.69198" lon="1.65081">
        <ele>1446</ele>
        <time>2018-11-18T14:32:45.000Z</time>
      </trkpt>
      <trkpt lat="42.69199" lon="1.65082">
        <ele>1446</ele>
        <time>2018-11-18T14:32:47.000Z</time>
      </trkpt>
      <trkpt lat="42.69199" lon="1.65083">
        <ele>1446</ele>
        <time>2018-11-18T14:32:49.000Z</time>
      </trkpt>
      <trkpt lat="42.69199" lon="1.65084">
        <ele>1446</ele>
        <time>2018-11-18T14:32:51.000Z</time>
      </trkpt>
      <trkpt lat="42.692" lon="1.65085">
        <ele>1446</ele>
        <time>2018-11-18T14:32:53.000Z</time>
      </trkpt>
      <trkpt lat="42.69201" lon="1.65086">
        <ele>1446</ele>
        <time>2018-11-18T14:32:55.000Z</time>
      </trkpt>
      <trkpt lat="42.69202" lon="1.65088">
        <ele>1447</ele>
        <time>2018-11-18T14:32:57.000Z</time>
      </trkpt>
      <trkpt lat="42.69202" lon="1.65089">
        <ele>1447</ele>
        <time>2018-11-18T14:32:59.000Z</time>
      </trkpt>
      <trkpt lat="42.69204" lon="1.65089">
        <ele>1446</ele>
        <time>2018-11-18T14:33:01.000Z</time>
      </trkpt>
      <trkpt lat="42.69205" lon="1.65089">
        <ele>1446</ele>
        <time>2018-11-18T14:33:03.000Z</time>
      </trkpt>
      <trkpt lat="42.69207" lon="1.65089">
        <ele>1446</ele>
        <time>2018-11-18T14:33:05.000Z</time>
      </trkpt>
      <trkpt lat="42.69208" lon="1.65089">
        <ele>1446</ele>
        <time>2018-11-18T14:33:07.000Z</time>
      </trkpt>
      <trkpt lat="42.6921" lon="1.65089">
        <ele>1445</ele>
        <time>2018-11-18T14:33:09.000Z</time>
      </trkpt>
      <trkpt lat="42.69211" lon="1.6509">
        <ele>1445</ele>
        <time>2018-11-18T14:33:11.000Z</time>
      </trkpt>
      <trkpt lat="42.69213" lon="1.6509">
        <ele>1445</ele>
        <time>2018-11-18T14:33:13.000Z</time>
      </trkpt>
      <trkpt lat="42.69214" lon="1.6509">
        <ele>1445</ele>
        <time>2018-11-18T14:33:15.000Z</time>
      </trkpt>
      <trkpt lat="42.69215" lon="1.65092">
        <ele>1445</ele>
        <time>2018-11-18T14:33:17.000Z</time>
      </trkpt>
      <trkpt lat="42.69216" lon="1.65093">
        <ele>1445</ele>
        <time>2018-11-18T14:33:19.000Z</time>
      </trkpt>
      <trkpt lat="42.69218" lon="1.65093">
        <ele>1445</ele>
        <time>2018-11-18T14:33:21.000Z</time>
      </trkpt>
      <trkpt lat="42.69219" lon="1.65094">
        <ele>1445</ele>
        <time>2018-11-18T14:33:23.000Z</time>
      </trkpt>
      <trkpt lat="42.6922" lon="1.65096">
        <ele>1445</ele>
        <time>2018-11-18T14:33:25.000Z</time>
      </trkpt>
      <trkpt lat="42.69221" lon="1.65097">
        <ele>1445</ele>
        <time>2018-11-18T14:33:27.000Z</time>
      </trkpt>
      <trkpt lat="42.69222" lon="1.65098">
        <ele>1445</ele>
        <time>2018-11-18T14:33:29.000Z</time>
      </trkpt>
      <trkpt lat="42.69224" lon="1.65099">
        <ele>1445</ele>
        <time>2018-11-18T14:33:31.000Z</time>
      </trkpt>
      <trkpt lat="42.69225" lon="1.65099">
        <ele>1444</ele>
        <time>2018-11-18T14:33:33.000Z</time>
      </trkpt>
      <trkpt lat="42.69227" lon="1.65099">
        <ele>1444</ele>
        <time>2018-11-18T14:33:35.000Z</time>
      </trkpt>
      <trkpt lat="42.69228" lon="1.65099">
        <ele>1444</ele>
        <time>2018-11-18T14:33:37.000Z</time>
      </trkpt>
      <trkpt lat="42.69229" lon="1.65099">
        <ele>1444</ele>
        <time>2018-11-18T14:33:39.000Z</time>
      </trkpt>
      <trkpt lat="42.6923" lon="1.651">
        <ele>1444</ele>
        <time>2018-11-18T14:33:41.000Z</time>
      </trkpt>
      <trkpt lat="42.69232" lon="1.651">
        <ele>1443</ele>
        <time>2018-11-18T14:33:43.000Z</time>
      </trkpt>
      <trkpt lat="42.69233" lon="1.651">
        <ele>1443</ele>
        <time>2018-11-18T14:33:45.000Z</time>
      </trkpt>
      <trkpt lat="42.69233" lon="1.651">
        <ele>1443</ele>
        <time>2018-11-18T14:33:47.000Z</time>
      </trkpt>
      <trkpt lat="42.69234" lon="1.651">
        <ele>1443</ele>
        <time>2018-11-18T14:33:49.000Z</time>
      </trkpt>
      <trkpt lat="42.69234" lon="1.65101">
        <ele>1443</ele>
        <time>2018-11-18T14:33:51.000Z</time>
      </trkpt>
      <trkpt lat="42.69234" lon="1.65101">
        <ele>1443</ele>
        <time>2018-11-18T14:33:53.000Z</time>
      </trkpt>
      <trkpt lat="42.69235" lon="1.65102">
        <ele>1443</ele>
        <time>2018-11-18T14:33:55.000Z</time>
      </trkpt>
      <trkpt lat="42.69237" lon="1.65102">
        <ele>1443</ele>
        <time>2018-11-18T14:33:57.000Z</time>
      </trkpt>
      <trkpt lat="42.69238" lon="1.65103">
        <ele>1443</ele>
        <time>2018-11-18T14:33:59.000Z</time>
      </trkpt>
      <trkpt lat="42.6924" lon="1.65106">
        <ele>1443</ele>
        <time>2018-11-18T14:34:01.000Z</time>
      </trkpt>
      <trkpt lat="42.69241" lon="1.65108">
        <ele>1443</ele>
        <time>2018-11-18T14:34:03.000Z</time>
      </trkpt>
      <trkpt lat="42.69242" lon="1.65111">
        <ele>1443</ele>
        <time>2018-11-18T14:34:05.000Z</time>
      </trkpt>
      <trkpt lat="42.69243" lon="1.65112">
        <ele>1444</ele>
        <time>2018-11-18T14:34:07.000Z</time>
      </trkpt>
      <trkpt lat="42.69243" lon="1.65112">
        <ele>1444</ele>
        <time>2018-11-18T14:34:09.000Z</time>
      </trkpt>
      <trkpt lat="42.69245" lon="1.65113">
        <ele>1443</ele>
        <time>2018-11-18T14:34:11.000Z</time>
      </trkpt>
      <trkpt lat="42.69246" lon="1.65114">
        <ele>1443</ele>
        <time>2018-11-18T14:34:13.000Z</time>
      </trkpt>
      <trkpt lat="42.69247" lon="1.65115">
        <ele>1443</ele>
        <time>2018-11-18T14:34:15.000Z</time>
      </trkpt>
      <trkpt lat="42.69249" lon="1.65115">
        <ele>1443</ele>
        <time>2018-11-18T14:34:17.000Z</time>
      </trkpt>
      <trkpt lat="42.6925" lon="1.65116">
        <ele>1443</ele>
        <time>2018-11-18T14:34:19.000Z</time>
      </trkpt>
      <trkpt lat="42.69252" lon="1.65118">
        <ele>1443</ele>
        <time>2018-11-18T14:34:21.000Z</time>
      </trkpt>
      <trkpt lat="42.69253" lon="1.65119">
        <ele>1443</ele>
        <time>2018-11-18T14:34:23.000Z</time>
      </trkpt>
      <trkpt lat="42.69254" lon="1.6512">
        <ele>1443</ele>
        <time>2018-11-18T14:34:25.000Z</time>
      </trkpt>
      <trkpt lat="42.69255" lon="1.65121">
        <ele>1443</ele>
        <time>2018-11-18T14:34:27.000Z</time>
      </trkpt>
      <trkpt lat="42.69256" lon="1.65123">
        <ele>1443</ele>
        <time>2018-11-18T14:34:29.000Z</time>
      </trkpt>
      <trkpt lat="42.69257" lon="1.65123">
        <ele>1443</ele>
        <time>2018-11-18T14:34:31.000Z</time>
      </trkpt>
      <trkpt lat="42.69258" lon="1.65124">
        <ele>1443</ele>
        <time>2018-11-18T14:34:33.000Z</time>
      </trkpt>
      <trkpt lat="42.69259" lon="1.65124">
        <ele>1443</ele>
        <time>2018-11-18T14:34:35.000Z</time>
      </trkpt>
      <trkpt lat="42.69261" lon="1.65125">
        <ele>1442</ele>
        <time>2018-11-18T14:34:37.000Z</time>
      </trkpt>
      <trkpt lat="42.69262" lon="1.65126">
        <ele>1442</ele>
        <time>2018-11-18T14:34:39.000Z</time>
      </trkpt>
      <trkpt lat="42.69263" lon="1.65126">
        <ele>1442</ele>
        <time>2018-11-18T14:34:41.000Z</time>
      </trkpt>
      <trkpt lat="42.69264" lon="1.65127">
        <ele>1442</ele>
        <time>2018-11-18T14:34:43.000Z</time>
      </trkpt>
      <trkpt lat="42.69265" lon="1.65128">
        <ele>1442</ele>
        <time>2018-11-18T14:34:45.000Z</time>
      </trkpt>
      <trkpt lat="42.69265" lon="1.65129">
        <ele>1442</ele>
        <time>2018-11-18T14:34:47.000Z</time>
      </trkpt>
      <trkpt lat="42.69266" lon="1.6513">
        <ele>1442</ele>
        <time>2018-11-18T14:34:49.000Z</time>
      </trkpt>
      <trkpt lat="42.69266" lon="1.65132">
        <ele>1442</ele>
        <time>2018-11-18T14:34:51.000Z</time>
      </trkpt>
      <trkpt lat="42.69268" lon="1.65132">
        <ele>1442</ele>
        <time>2018-11-18T14:34:53.000Z</time>
      </trkpt>
      <trkpt lat="42.69269" lon="1.65132">
        <ele>1442</ele>
        <time>2018-11-18T14:34:55.000Z</time>
      </trkpt>
      <trkpt lat="42.69271" lon="1.65132">
        <ele>1441</ele>
        <time>2018-11-18T14:34:57.000Z</time>
      </trkpt>
      <trkpt lat="42.69272" lon="1.65132">
        <ele>1441</ele>
        <time>2018-11-18T14:34:59.000Z</time>
      </trkpt>
      <trkpt lat="42.69272" lon="1.65132">
        <ele>1441</ele>
        <time>2018-11-18T14:35:01.000Z</time>
      </trkpt>
      <trkpt lat="42.69273" lon="1.65133">
        <ele>1441</ele>
        <time>2018-11-18T14:35:03.000Z</time>
      </trkpt>
      <trkpt lat="42.69273" lon="1.65133">
        <ele>1441</ele>
        <time>2018-11-18T14:35:05.000Z</time>
      </trkpt>
      <trkpt lat="42.69274" lon="1.65134">
        <ele>1441</ele>
        <time>2018-11-18T14:35:07.000Z</time>
      </trkpt>
      <trkpt lat="42.69274" lon="1.65134">
        <ele>1441</ele>
        <time>2018-11-18T14:35:09.000Z</time>
      </trkpt>
      <trkpt lat="42.69274" lon="1.65135">
        <ele>1441</ele>
        <time>2018-11-18T14:35:11.000Z</time>
      </trkpt>
      <trkpt lat="42.69275" lon="1.65137">
        <ele>1441</ele>
        <time>2018-11-18T14:35:13.000Z</time>
      </trkpt>
      <trkpt lat="42.69275" lon="1.65138">
        <ele>1441</ele>
        <time>2018-11-18T14:35:15.000Z</time>
      </trkpt>
      <trkpt lat="42.69276" lon="1.65138">
        <ele>1441</ele>
        <time>2018-11-18T14:35:17.000Z</time>
      </trkpt>
      <trkpt lat="42.69277" lon="1.65139">
        <ele>1441</ele>
        <time>2018-11-18T14:35:19.000Z</time>
      </trkpt>
      <trkpt lat="42.69278" lon="1.65141">
        <ele>1441</ele>
        <time>2018-11-18T14:35:21.000Z</time>
      </trkpt>
      <trkpt lat="42.69279" lon="1.65142">
        <ele>1441</ele>
        <time>2018-11-18T14:35:23.000Z</time>
      </trkpt>
      <trkpt lat="42.6928" lon="1.65145">
        <ele>1442</ele>
        <time>2018-11-18T14:35:25.000Z</time>
      </trkpt>
      <trkpt lat="42.69281" lon="1.65146">
        <ele>1442</ele>
        <time>2018-11-18T14:35:27.000Z</time>
      </trkpt>
      <trkpt lat="42.69281" lon="1.65146">
        <ele>1441</ele>
        <time>2018-11-18T14:35:29.000Z</time>
      </trkpt>
      <trkpt lat="42.69281" lon="1.65145">
        <ele>1441</ele>
        <time>2018-11-18T14:35:31.000Z</time>
      </trkpt>
      <trkpt lat="42.69281" lon="1.65146">
        <ele>1441</ele>
        <time>2018-11-18T14:35:33.000Z</time>
      </trkpt>
      <trkpt lat="42.69282" lon="1.65146">
        <ele>1441</ele>
        <time>2018-11-18T14:35:35.000Z</time>
      </trkpt>
      <trkpt lat="42.69282" lon="1.65146">
        <ele>1441</ele>
        <time>2018-11-18T14:35:37.000Z</time>
      </trkpt>
      <trkpt lat="42.69282" lon="1.65146">
        <ele>1441</ele>
        <time>2018-11-18T14:35:39.000Z</time>
      </trkpt>
      <trkpt lat="42.69282" lon="1.65146">
        <ele>1441</ele>
        <time>2018-11-18T14:35:41.000Z</time>
      </trkpt>
      <trkpt lat="42.69282" lon="1.65146">
        <ele>1441</ele>
        <time>2018-11-18T14:35:43.000Z</time>
      </trkpt>
      <trkpt lat="42.69282" lon="1.65146">
        <ele>1441</ele>
        <time>2018-11-18T14:35:45.000Z</time>
      </trkpt>
      <trkpt lat="42.69283" lon="1.65146">
        <ele>1441</ele>
        <time>2018-11-18T14:35:47.000Z</time>
      </trkpt>
      <trkpt lat="42.69283" lon="1.65146">
        <ele>1441</ele>
        <time>2018-11-18T14:35:49.000Z</time>
      </trkpt>
      <trkpt lat="42.69283" lon="1.65145">
        <ele>1441</ele>
        <time>2018-11-18T14:35:51.000Z</time>
      </trkpt>
      <trkpt lat="42.69283" lon="1.65145">
        <ele>1441</ele>
        <time>2018-11-18T14:35:53.000Z</time>
      </trkpt>
      <trkpt lat="42.69284" lon="1.65145">
        <ele>1441</ele>
        <time>2018-11-18T14:35:55.000Z</time>
      </trkpt>
      <trkpt lat="42.69284" lon="1.65145">
        <ele>1441</ele>
        <time>2018-11-18T14:35:57.000Z</time>
      </trkpt>
      <trkpt lat="42.69284" lon="1.65145">
        <ele>1441</ele>
        <time>2018-11-18T14:35:59.000Z</time>
      </trkpt>
      <trkpt lat="42.69284" lon="1.65144">
        <ele>1440</ele>
        <time>2018-11-18T14:36:01.000Z</time>
      </trkpt>
      <trkpt lat="42.69284" lon="1.65142">
        <ele>1440</ele>
        <time>2018-11-18T14:36:03.000Z</time>
      </trkpt>
      <trkpt lat="42.69284" lon="1.65142">
        <ele>1440</ele>
        <time>2018-11-18T14:36:05.000Z</time>
      </trkpt>
      <trkpt lat="42.69285" lon="1.65141">
        <ele>1440</ele>
        <time>2018-11-18T14:36:07.000Z</time>
      </trkpt>
      <trkpt lat="42.69285" lon="1.65141">
        <ele>1440</ele>
        <time>2018-11-18T14:36:09.000Z</time>
      </trkpt>
      <trkpt lat="42.69285" lon="1.65141">
        <ele>1440</ele>
        <time>2018-11-18T14:36:11.000Z</time>
      </trkpt>
      <trkpt lat="42.69285" lon="1.6514">
        <ele>1439</ele>
        <time>2018-11-18T14:36:13.000Z</time>
      </trkpt>
      <trkpt lat="42.69286" lon="1.6514">
        <ele>1439</ele>
        <time>2018-11-18T14:36:15.000Z</time>
      </trkpt>
      <trkpt lat="42.69286" lon="1.6514">
        <ele>1439</ele>
        <time>2018-11-18T14:36:17.000Z</time>
      </trkpt>
      <trkpt lat="42.69287" lon="1.6514">
        <ele>1439</ele>
        <time>2018-11-18T14:36:19.000Z</time>
      </trkpt>
      <trkpt lat="42.69287" lon="1.6514">
        <ele>1439</ele>
        <time>2018-11-18T14:36:21.000Z</time>
      </trkpt>
      <trkpt lat="42.69287" lon="1.65141">
        <ele>1439</ele>
        <time>2018-11-18T14:36:23.000Z</time>
      </trkpt>
      <trkpt lat="42.69288" lon="1.65141">
        <ele>1439</ele>
        <time>2018-11-18T14:36:25.000Z</time>
      </trkpt>
      <trkpt lat="42.69288" lon="1.65142">
        <ele>1439</ele>
        <time>2018-11-18T14:36:27.000Z</time>
      </trkpt>
      <trkpt lat="42.69289" lon="1.65143">
        <ele>1439</ele>
        <time>2018-11-18T14:36:29.000Z</time>
      </trkpt>
      <trkpt lat="42.69289" lon="1.65143">
        <ele>1439</ele>
        <time>2018-11-18T14:36:31.000Z</time>
      </trkpt>
      <trkpt lat="42.6929" lon="1.65143">
        <ele>1439</ele>
        <time>2018-11-18T14:36:33.000Z</time>
      </trkpt>
      <trkpt lat="42.6929" lon="1.65144">
        <ele>1439</ele>
        <time>2018-11-18T14:36:35.000Z</time>
      </trkpt>
      <trkpt lat="42.69291" lon="1.65144">
        <ele>1439</ele>
        <time>2018-11-18T14:36:37.000Z</time>
      </trkpt>
      <trkpt lat="42.69291" lon="1.65144">
        <ele>1439</ele>
        <time>2018-11-18T14:36:39.000Z</time>
      </trkpt>
      <trkpt lat="42.69292" lon="1.65145">
        <ele>1439</ele>
        <time>2018-11-18T14:36:41.000Z</time>
      </trkpt>
      <trkpt lat="42.69293" lon="1.65145">
        <ele>1439</ele>
        <time>2018-11-18T14:36:43.000Z</time>
      </trkpt>
      <trkpt lat="42.69294" lon="1.65145">
        <ele>1438</ele>
        <time>2018-11-18T14:36:45.000Z</time>
      </trkpt>
      <trkpt lat="42.69295" lon="1.65146">
        <ele>1438</ele>
        <time>2018-11-18T14:36:47.000Z</time>
      </trkpt>
      <trkpt lat="42.69296" lon="1.65146">
        <ele>1438</ele>
        <time>2018-11-18T14:36:49.000Z</time>
      </trkpt>
      <trkpt lat="42.69296" lon="1.65147">
        <ele>1438</ele>
        <time>2018-11-18T14:36:51.000Z</time>
      </trkpt>
      <trkpt lat="42.69297" lon="1.65146">
        <ele>1438</ele>
        <time>2018-11-18T14:36:53.000Z</time>
      </trkpt>
      <trkpt lat="42.69299" lon="1.65146">
        <ele>1437</ele>
        <time>2018-11-18T14:36:55.000Z</time>
      </trkpt>
      <trkpt lat="42.693" lon="1.65146">
        <ele>1437</ele>
        <time>2018-11-18T14:36:57.000Z</time>
      </trkpt>
      <trkpt lat="42.69301" lon="1.65147">
        <ele>1437</ele>
        <time>2018-11-18T14:36:59.000Z</time>
      </trkpt>
      <trkpt lat="42.693" lon="1.65148">
        <ele>1437</ele>
        <time>2018-11-18T14:37:01.000Z</time>
      </trkpt>
      <trkpt lat="42.69302" lon="1.65149">
        <ele>1437</ele>
        <time>2018-11-18T14:37:03.000Z</time>
      </trkpt>
      <trkpt lat="42.69301" lon="1.6515">
        <ele>1438</ele>
        <time>2018-11-18T14:37:05.000Z</time>
      </trkpt>
      <trkpt lat="42.69302" lon="1.65152">
        <ele>1438</ele>
        <time>2018-11-18T14:37:07.000Z</time>
      </trkpt>
      <trkpt lat="42.69303" lon="1.65153">
        <ele>1438</ele>
        <time>2018-11-18T14:37:09.000Z</time>
      </trkpt>
      <trkpt lat="42.69303" lon="1.65153">
        <ele>1438</ele>
        <time>2018-11-18T14:37:11.000Z</time>
      </trkpt>
      <trkpt lat="42.69304" lon="1.65153">
        <ele>1438</ele>
        <time>2018-11-18T14:37:13.000Z</time>
      </trkpt>
      <trkpt lat="42.69304" lon="1.65153">
        <ele>1438</ele>
        <time>2018-11-18T14:37:15.000Z</time>
      </trkpt>
      <trkpt lat="42.69304" lon="1.65154">
        <ele>1438</ele>
        <time>2018-11-18T14:37:17.000Z</time>
      </trkpt>
      <trkpt lat="42.69305" lon="1.65154">
        <ele>1438</ele>
        <time>2018-11-18T14:37:19.000Z</time>
      </trkpt>
      <trkpt lat="42.69305" lon="1.65156">
        <ele>1438</ele>
        <time>2018-11-18T14:37:21.000Z</time>
      </trkpt>
      <trkpt lat="42.69305" lon="1.65157">
        <ele>1438</ele>
        <time>2018-11-18T14:37:23.000Z</time>
      </trkpt>
      <trkpt lat="42.69305" lon="1.65158">
        <ele>1438</ele>
        <time>2018-11-18T14:37:25.000Z</time>
      </trkpt>
      <trkpt lat="42.69306" lon="1.65159">
        <ele>1438</ele>
        <time>2018-11-18T14:37:27.000Z</time>
      </trkpt>
      <trkpt lat="42.69305" lon="1.65159">
        <ele>1438</ele>
        <time>2018-11-18T14:37:29.000Z</time>
      </trkpt>
      <trkpt lat="42.69305" lon="1.6516">
        <ele>1438</ele>
        <time>2018-11-18T14:37:31.000Z</time>
      </trkpt>
      <trkpt lat="42.69306" lon="1.65161">
        <ele>1438</ele>
        <time>2018-11-18T14:37:33.000Z</time>
      </trkpt>
      <trkpt lat="42.69306" lon="1.65161">
        <ele>1438</ele>
        <time>2018-11-18T14:37:35.000Z</time>
      </trkpt>
      <trkpt lat="42.69307" lon="1.65162">
        <ele>1438</ele>
        <time>2018-11-18T14:37:37.000Z</time>
      </trkpt>
      <trkpt lat="42.69308" lon="1.65163">
        <ele>1438</ele>
        <time>2018-11-18T14:37:39.000Z</time>
      </trkpt>
      <trkpt lat="42.69309" lon="1.65165">
        <ele>1438</ele>
        <time>2018-11-18T14:37:41.000Z</time>
      </trkpt>
      <trkpt lat="42.69309" lon="1.65166">
        <ele>1438</ele>
        <time>2018-11-18T14:37:43.000Z</time>
      </trkpt>
      <trkpt lat="42.69311" lon="1.65166">
        <ele>1438</ele>
        <time>2018-11-18T14:37:45.000Z</time>
      </trkpt>
      <trkpt lat="42.69311" lon="1.65167">
        <ele>1438</ele>
        <time>2018-11-18T14:37:47.000Z</time>
      </trkpt>
      <trkpt lat="42.69312" lon="1.65168">
        <ele>1438</ele>
        <time>2018-11-18T14:37:49.000Z</time>
      </trkpt>
      <trkpt lat="42.69314" lon="1.65168">
        <ele>1438</ele>
        <time>2018-11-18T14:37:51.000Z</time>
      </trkpt>
      <trkpt lat="42.69315" lon="1.65169">
        <ele>1438</ele>
        <time>2018-11-18T14:37:53.000Z</time>
      </trkpt>
      <trkpt lat="42.69315" lon="1.65172">
        <ele>1438</ele>
        <time>2018-11-18T14:37:55.000Z</time>
      </trkpt>
      <trkpt lat="42.69314" lon="1.65173">
        <ele>1438</ele>
        <time>2018-11-18T14:37:57.000Z</time>
      </trkpt>
      <trkpt lat="42.69315" lon="1.65174">
        <ele>1438</ele>
        <time>2018-11-18T14:37:59.000Z</time>
      </trkpt>
      <trkpt lat="42.69314" lon="1.65175">
        <ele>1439</ele>
        <time>2018-11-18T14:38:01.000Z</time>
      </trkpt>
      <trkpt lat="42.69315" lon="1.65176">
        <ele>1439</ele>
        <time>2018-11-18T14:38:03.000Z</time>
      </trkpt>
      <trkpt lat="42.69316" lon="1.65175">
        <ele>1438</ele>
        <time>2018-11-18T14:38:05.000Z</time>
      </trkpt>
      <trkpt lat="42.69316" lon="1.65174">
        <ele>1438</ele>
        <time>2018-11-18T14:38:07.000Z</time>
      </trkpt>
      <trkpt lat="42.69315" lon="1.65175">
        <ele>1438</ele>
        <time>2018-11-18T14:38:09.000Z</time>
      </trkpt>
      <trkpt lat="42.69315" lon="1.65177">
        <ele>1439</ele>
        <time>2018-11-18T14:38:11.000Z</time>
      </trkpt>
      <trkpt lat="42.69316" lon="1.65178">
        <ele>1439</ele>
        <time>2018-11-18T14:38:13.000Z</time>
      </trkpt>
      <trkpt lat="42.69316" lon="1.65179">
        <ele>1439</ele>
        <time>2018-11-18T14:38:15.000Z</time>
      </trkpt>
      <trkpt lat="42.69316" lon="1.65179">
        <ele>1439</ele>
        <time>2018-11-18T14:38:17.000Z</time>
      </trkpt>
      <trkpt lat="42.69317" lon="1.65181">
        <ele>1439</ele>
        <time>2018-11-18T14:38:19.000Z</time>
      </trkpt>
      <trkpt lat="42.69318" lon="1.65182">
        <ele>1439</ele>
        <time>2018-11-18T14:38:21.000Z</time>
      </trkpt>
      <trkpt lat="42.69319" lon="1.65182">
        <ele>1439</ele>
        <time>2018-11-18T14:38:23.000Z</time>
      </trkpt>
      <trkpt lat="42.69319" lon="1.65184">
        <ele>1439</ele>
        <time>2018-11-18T14:38:25.000Z</time>
      </trkpt>
      <trkpt lat="42.69319" lon="1.65185">
        <ele>1439</ele>
        <time>2018-11-18T14:38:27.000Z</time>
      </trkpt>
      <trkpt lat="42.6932" lon="1.65186">
        <ele>1439</ele>
        <time>2018-11-18T14:38:29.000Z</time>
      </trkpt>
      <trkpt lat="42.69319" lon="1.65187">
        <ele>1439</ele>
        <time>2018-11-18T14:38:31.000Z</time>
      </trkpt>
      <trkpt lat="42.6932" lon="1.65188">
        <ele>1439</ele>
        <time>2018-11-18T14:38:33.000Z</time>
      </trkpt>
      <trkpt lat="42.69321" lon="1.65189">
        <ele>1439</ele>
        <time>2018-11-18T14:38:35.000Z</time>
      </trkpt>
      <trkpt lat="42.69322" lon="1.65188">
        <ele>1439</ele>
        <time>2018-11-18T14:38:37.000Z</time>
      </trkpt>
      <trkpt lat="42.69322" lon="1.65188">
        <ele>1439</ele>
        <time>2018-11-18T14:38:39.000Z</time>
      </trkpt>
      <trkpt lat="42.69323" lon="1.65187">
        <ele>1438</ele>
        <time>2018-11-18T14:38:41.000Z</time>
      </trkpt>
      <trkpt lat="42.69325" lon="1.65186">
        <ele>1438</ele>
        <time>2018-11-18T14:38:43.000Z</time>
      </trkpt>
      <trkpt lat="42.69327" lon="1.65185">
        <ele>1437</ele>
        <time>2018-11-18T14:38:45.000Z</time>
      </trkpt>
      <trkpt lat="42.69328" lon="1.65185">
        <ele>1437</ele>
        <time>2018-11-18T14:38:47.000Z</time>
      </trkpt>
      <trkpt lat="42.69329" lon="1.65185">
        <ele>1437</ele>
        <time>2018-11-18T14:38:49.000Z</time>
      </trkpt>
      <trkpt lat="42.6933" lon="1.65185">
        <ele>1437</ele>
        <time>2018-11-18T14:38:51.000Z</time>
      </trkpt>
      <trkpt lat="42.69331" lon="1.65186">
        <ele>1436</ele>
        <time>2018-11-18T14:38:53.000Z</time>
      </trkpt>
      <trkpt lat="42.69331" lon="1.65186">
        <ele>1436</ele>
        <time>2018-11-18T14:38:55.000Z</time>
      </trkpt>
      <trkpt lat="42.69331" lon="1.65185">
        <ele>1436</ele>
        <time>2018-11-18T14:38:57.000Z</time>
      </trkpt>
      <trkpt lat="42.69331" lon="1.65186">
        <ele>1436</ele>
        <time>2018-11-18T14:38:59.000Z</time>
      </trkpt>
      <trkpt lat="42.69331" lon="1.65185">
        <ele>1436</ele>
        <time>2018-11-18T14:39:01.000Z</time>
      </trkpt>
      <trkpt lat="42.69332" lon="1.65185">
        <ele>1436</ele>
        <time>2018-11-18T14:39:03.000Z</time>
      </trkpt>
      <trkpt lat="42.69332" lon="1.65185">
        <ele>1436</ele>
        <time>2018-11-18T14:39:05.000Z</time>
      </trkpt>
      <trkpt lat="42.69332" lon="1.65185">
        <ele>1436</ele>
        <time>2018-11-18T14:39:07.000Z</time>
      </trkpt>
      <trkpt lat="42.69331" lon="1.65185">
        <ele>1436</ele>
        <time>2018-11-18T14:39:09.000Z</time>
      </trkpt>
      <trkpt lat="42.69331" lon="1.65186">
        <ele>1436</ele>
        <time>2018-11-18T14:39:11.000Z</time>
      </trkpt>
      <trkpt lat="42.69332" lon="1.65187">
        <ele>1436</ele>
        <time>2018-11-18T14:39:13.000Z</time>
      </trkpt>
      <trkpt lat="42.69332" lon="1.65186">
        <ele>1436</ele>
        <time>2018-11-18T14:39:15.000Z</time>
      </trkpt>
      <trkpt lat="42.69333" lon="1.65186">
        <ele>1436</ele>
        <time>2018-11-18T14:39:17.000Z</time>
      </trkpt>
      <trkpt lat="42.69333" lon="1.65186">
        <ele>1436</ele>
        <time>2018-11-18T14:39:19.000Z</time>
      </trkpt>
      <trkpt lat="42.69333" lon="1.65186">
        <ele>1436</ele>
        <time>2018-11-18T14:39:21.000Z</time>
      </trkpt>
      <trkpt lat="42.69333" lon="1.65186">
        <ele>1436</ele>
        <time>2018-11-18T14:39:23.000Z</time>
      </trkpt>
      <trkpt lat="42.69333" lon="1.65186">
        <ele>1436</ele>
        <time>2018-11-18T14:39:25.000Z</time>
      </trkpt>
      <trkpt lat="42.69333" lon="1.65186">
        <ele>1436</ele>
        <time>2018-11-18T14:39:27.000Z</time>
      </trkpt>
      <trkpt lat="42.69332" lon="1.65186">
        <ele>1436</ele>
        <time>2018-11-18T14:39:29.000Z</time>
      </trkpt>
      <trkpt lat="42.69332" lon="1.65186">
        <ele>1436</ele>
        <time>2018-11-18T14:39:31.000Z</time>
      </trkpt>
      <trkpt lat="42.69333" lon="1.65186">
        <ele>1436</ele>
        <time>2018-11-18T14:39:33.000Z</time>
      </trkpt>
      <trkpt lat="42.69333" lon="1.65186">
        <ele>1436</ele>
        <time>2018-11-18T14:39:35.000Z</time>
      </trkpt>
      <trkpt lat="42.69333" lon="1.65186">
        <ele>1436</ele>
        <time>2018-11-18T14:39:37.000Z</time>
      </trkpt>
      <trkpt lat="42.69333" lon="1.65186">
        <ele>1436</ele>
        <time>2018-11-18T14:39:39.000Z</time>
      </trkpt>
      <trkpt lat="42.69333" lon="1.65185">
        <ele>1436</ele>
        <time>2018-11-18T14:39:41.000Z</time>
      </trkpt>
      <trkpt lat="42.69333" lon="1.65185">
        <ele>1436</ele>
        <time>2018-11-18T14:39:43.000Z</time>
      </trkpt>
      <trkpt lat="42.69333" lon="1.65185">
        <ele>1436</ele>
        <time>2018-11-18T14:39:45.000Z</time>
      </trkpt>
      <trkpt lat="42.69333" lon="1.65185">
        <ele>1436</ele>
        <time>2018-11-18T14:39:47.000Z</time>
      </trkpt>
      <trkpt lat="42.69333" lon="1.65185">
        <ele>1436</ele>
        <time>2018-11-18T14:39:49.000Z</time>
      </trkpt>
      <trkpt lat="42.69333" lon="1.65184">
        <ele>1436</ele>
        <time>2018-11-18T14:39:51.000Z</time>
      </trkpt>
      <trkpt lat="42.69333" lon="1.65184">
        <ele>1436</ele>
        <time>2018-11-18T14:39:53.000Z</time>
      </trkpt>
      <trkpt lat="42.69333" lon="1.65184">
        <ele>1436</ele>
        <time>2018-11-18T14:39:55.000Z</time>
      </trkpt>
      <trkpt lat="42.69333" lon="1.65184">
        <ele>1436</ele>
        <time>2018-11-18T14:39:57.000Z</time>
      </trkpt>
      <trkpt lat="42.69332" lon="1.65183">
        <ele>1436</ele>
        <time>2018-11-18T14:39:59.000Z</time>
      </trkpt>
      <trkpt lat="42.69332" lon="1.65183">
        <ele>1436</ele>
        <time>2018-11-18T14:40:01.000Z</time>
      </trkpt>
      <trkpt lat="42.69332" lon="1.65183">
        <ele>1436</ele>
        <time>2018-11-18T14:40:03.000Z</time>
      </trkpt>
      <trkpt lat="42.69332" lon="1.65183">
        <ele>1436</ele>
        <time>2018-11-18T14:40:05.000Z</time>
      </trkpt>
      <trkpt lat="42.69332" lon="1.65182">
        <ele>1436</ele>
        <time>2018-11-18T14:40:07.000Z</time>
      </trkpt>
      <trkpt lat="42.69332" lon="1.65182">
        <ele>1435</ele>
        <time>2018-11-18T14:40:09.000Z</time>
      </trkpt>
      <trkpt lat="42.69333" lon="1.65182">
        <ele>1435</ele>
        <time>2018-11-18T14:40:11.000Z</time>
      </trkpt>
      <trkpt lat="42.69334" lon="1.65182">
        <ele>1435</ele>
        <time>2018-11-18T14:40:13.000Z</time>
      </trkpt>
      <trkpt lat="42.69334" lon="1.65182">
        <ele>1435</ele>
        <time>2018-11-18T14:40:15.000Z</time>
      </trkpt>
      <trkpt lat="42.69334" lon="1.65182">
        <ele>1435</ele>
        <time>2018-11-18T14:40:17.000Z</time>
      </trkpt>
      <trkpt lat="42.69334" lon="1.65182">
        <ele>1435</ele>
        <time>2018-11-18T14:40:19.000Z</time>
      </trkpt>
      <trkpt lat="42.69334" lon="1.65182">
        <ele>1435</ele>
        <time>2018-11-18T14:40:21.000Z</time>
      </trkpt>
      <trkpt lat="42.69334" lon="1.65182">
        <ele>1435</ele>
        <time>2018-11-18T14:40:23.000Z</time>
      </trkpt>
      <trkpt lat="42.69334" lon="1.65182">
        <ele>1435</ele>
        <time>2018-11-18T14:40:25.000Z</time>
      </trkpt>
      <trkpt lat="42.69334" lon="1.65183">
        <ele>1435</ele>
        <time>2018-11-18T14:40:27.000Z</time>
      </trkpt>
      <trkpt lat="42.69335" lon="1.65183">
        <ele>1435</ele>
        <time>2018-11-18T14:40:29.000Z</time>
      </trkpt>
      <trkpt lat="42.69335" lon="1.65184">
        <ele>1435</ele>
        <time>2018-11-18T14:40:31.000Z</time>
      </trkpt>
      <trkpt lat="42.69335" lon="1.65184">
        <ele>1435</ele>
        <time>2018-11-18T14:40:33.000Z</time>
      </trkpt>
      <trkpt lat="42.69336" lon="1.65185">
        <ele>1435</ele>
        <time>2018-11-18T14:40:35.000Z</time>
      </trkpt>
      <trkpt lat="42.69337" lon="1.65186">
        <ele>1435</ele>
        <time>2018-11-18T14:40:37.000Z</time>
      </trkpt>
      <trkpt lat="42.69337" lon="1.65187">
        <ele>1435</ele>
        <time>2018-11-18T14:40:39.000Z</time>
      </trkpt>
      <trkpt lat="42.69338" lon="1.65187">
        <ele>1435</ele>
        <time>2018-11-18T14:40:41.000Z</time>
      </trkpt>
      <trkpt lat="42.6934" lon="1.65189">
        <ele>1434</ele>
        <time>2018-11-18T14:40:43.000Z</time>
      </trkpt>
      <trkpt lat="42.69341" lon="1.65189">
        <ele>1434</ele>
        <time>2018-11-18T14:40:45.000Z</time>
      </trkpt>
      <trkpt lat="42.69342" lon="1.65191">
        <ele>1434</ele>
        <time>2018-11-18T14:40:47.000Z</time>
      </trkpt>
      <trkpt lat="42.69342" lon="1.65192">
        <ele>1434</ele>
        <time>2018-11-18T14:40:49.000Z</time>
      </trkpt>
      <trkpt lat="42.69343" lon="1.65193">
        <ele>1433</ele>
        <time>2018-11-18T14:40:51.000Z</time>
      </trkpt>
      <trkpt lat="42.69344" lon="1.65194">
        <ele>1433</ele>
        <time>2018-11-18T14:40:53.000Z</time>
      </trkpt>
      <trkpt lat="42.69345" lon="1.65194">
        <ele>1433</ele>
        <time>2018-11-18T14:40:55.000Z</time>
      </trkpt>
      <trkpt lat="42.69346" lon="1.65196">
        <ele>1432</ele>
        <time>2018-11-18T14:40:57.000Z</time>
      </trkpt>
      <trkpt lat="42.69347" lon="1.65196">
        <ele>1432</ele>
        <time>2018-11-18T14:40:59.000Z</time>
      </trkpt>
      <trkpt lat="42.69348" lon="1.65197">
        <ele>1432</ele>
        <time>2018-11-18T14:41:01.000Z</time>
      </trkpt>
      <trkpt lat="42.69348" lon="1.65197">
        <ele>1432</ele>
        <time>2018-11-18T14:41:03.000Z</time>
      </trkpt>
      <trkpt lat="42.69349" lon="1.65197">
        <ele>1432</ele>
        <time>2018-11-18T14:41:05.000Z</time>
      </trkpt>
      <trkpt lat="42.6935" lon="1.65199">
        <ele>1431</ele>
        <time>2018-11-18T14:41:07.000Z</time>
      </trkpt>
      <trkpt lat="42.69351" lon="1.65199">
        <ele>1431</ele>
        <time>2018-11-18T14:41:09.000Z</time>
      </trkpt>
      <trkpt lat="42.69351" lon="1.652">
        <ele>1431</ele>
        <time>2018-11-18T14:41:11.000Z</time>
      </trkpt>
      <trkpt lat="42.69351" lon="1.65201">
        <ele>1431</ele>
        <time>2018-11-18T14:41:13.000Z</time>
      </trkpt>
      <trkpt lat="42.69353" lon="1.65202">
        <ele>1431</ele>
        <time>2018-11-18T14:41:15.000Z</time>
      </trkpt>
      <trkpt lat="42.69353" lon="1.65202">
        <ele>1430</ele>
        <time>2018-11-18T14:41:17.000Z</time>
      </trkpt>
      <trkpt lat="42.69354" lon="1.65202">
        <ele>1430</ele>
        <time>2018-11-18T14:41:19.000Z</time>
      </trkpt>
      <trkpt lat="42.69355" lon="1.652">
        <ele>1429</ele>
        <time>2018-11-18T14:41:21.000Z</time>
      </trkpt>
      <trkpt lat="42.69355" lon="1.652">
        <ele>1429</ele>
        <time>2018-11-18T14:41:23.000Z</time>
      </trkpt>
      <trkpt lat="42.69355" lon="1.652">
        <ele>1429</ele>
        <time>2018-11-18T14:41:25.000Z</time>
      </trkpt>
      <trkpt lat="42.69355" lon="1.652">
        <ele>1429</ele>
        <time>2018-11-18T14:41:27.000Z</time>
      </trkpt>
      <trkpt lat="42.69355" lon="1.652">
        <ele>1429</ele>
        <time>2018-11-18T14:41:29.000Z</time>
      </trkpt>
      <trkpt lat="42.69356" lon="1.652">
        <ele>1429</ele>
        <time>2018-11-18T14:41:31.000Z</time>
      </trkpt>
      <trkpt lat="42.69356" lon="1.65201">
        <ele>1429</ele>
        <time>2018-11-18T14:41:33.000Z</time>
      </trkpt>
      <trkpt lat="42.69357" lon="1.65201">
        <ele>1429</ele>
        <time>2018-11-18T14:41:35.000Z</time>
      </trkpt>
      <trkpt lat="42.69357" lon="1.652">
        <ele>1428</ele>
        <time>2018-11-18T14:41:37.000Z</time>
      </trkpt>
      <trkpt lat="42.69359" lon="1.65201">
        <ele>1428</ele>
        <time>2018-11-18T14:41:39.000Z</time>
      </trkpt>
      <trkpt lat="42.69359" lon="1.65202">
        <ele>1428</ele>
        <time>2018-11-18T14:41:41.000Z</time>
      </trkpt>
      <trkpt lat="42.69359" lon="1.65201">
        <ele>1428</ele>
        <time>2018-11-18T14:41:43.000Z</time>
      </trkpt>
      <trkpt lat="42.69359" lon="1.65202">
        <ele>1428</ele>
        <time>2018-11-18T14:41:45.000Z</time>
      </trkpt>
      <trkpt lat="42.69359" lon="1.65204">
        <ele>1428</ele>
        <time>2018-11-18T14:41:47.000Z</time>
      </trkpt>
      <trkpt lat="42.69359" lon="1.65204">
        <ele>1428</ele>
        <time>2018-11-18T14:41:49.000Z</time>
      </trkpt>
      <trkpt lat="42.69359" lon="1.65204">
        <ele>1428</ele>
        <time>2018-11-18T14:41:51.000Z</time>
      </trkpt>
      <trkpt lat="42.6936" lon="1.65204">
        <ele>1428</ele>
        <time>2018-11-18T14:41:53.000Z</time>
      </trkpt>
      <trkpt lat="42.6936" lon="1.65205">
        <ele>1428</ele>
        <time>2018-11-18T14:41:55.000Z</time>
      </trkpt>
      <trkpt lat="42.69361" lon="1.65205">
        <ele>1427</ele>
        <time>2018-11-18T14:41:57.000Z</time>
      </trkpt>
      <trkpt lat="42.69362" lon="1.65206">
        <ele>1427</ele>
        <time>2018-11-18T14:41:59.000Z</time>
      </trkpt>
      <trkpt lat="42.69363" lon="1.65209">
        <ele>1427</ele>
        <time>2018-11-18T14:42:01.000Z</time>
      </trkpt>
      <trkpt lat="42.69363" lon="1.65209">
        <ele>1427</ele>
        <time>2018-11-18T14:42:03.000Z</time>
      </trkpt>
      <trkpt lat="42.69364" lon="1.65209">
        <ele>1427</ele>
        <time>2018-11-18T14:42:05.000Z</time>
      </trkpt>
      <trkpt lat="42.69364" lon="1.65209">
        <ele>1427</ele>
        <time>2018-11-18T14:42:07.000Z</time>
      </trkpt>
      <trkpt lat="42.69365" lon="1.65209">
        <ele>1426</ele>
        <time>2018-11-18T14:42:09.000Z</time>
      </trkpt>
      <trkpt lat="42.69365" lon="1.65209">
        <ele>1426</ele>
        <time>2018-11-18T14:42:11.000Z</time>
      </trkpt>
      <trkpt lat="42.69365" lon="1.65209">
        <ele>1426</ele>
        <time>2018-11-18T14:42:13.000Z</time>
      </trkpt>
      <trkpt lat="42.69365" lon="1.65209">
        <ele>1426</ele>
        <time>2018-11-18T14:42:15.000Z</time>
      </trkpt>
      <trkpt lat="42.69364" lon="1.6521">
        <ele>1427</ele>
        <time>2018-11-18T14:42:17.000Z</time>
      </trkpt>
      <trkpt lat="42.69365" lon="1.6521">
        <ele>1426</ele>
        <time>2018-11-18T14:42:19.000Z</time>
      </trkpt>
      <trkpt lat="42.69365" lon="1.65211">
        <ele>1426</ele>
        <time>2018-11-18T14:42:21.000Z</time>
      </trkpt>
      <trkpt lat="42.69366" lon="1.65211">
        <ele>1426</ele>
        <time>2018-11-18T14:42:23.000Z</time>
      </trkpt>
      <trkpt lat="42.69367" lon="1.65212">
        <ele>1426</ele>
        <time>2018-11-18T14:42:25.000Z</time>
      </trkpt>
      <trkpt lat="42.69368" lon="1.65212">
        <ele>1425</ele>
        <time>2018-11-18T14:42:27.000Z</time>
      </trkpt>
      <trkpt lat="42.69368" lon="1.65213">
        <ele>1425</ele>
        <time>2018-11-18T14:42:29.000Z</time>
      </trkpt>
      <trkpt lat="42.69369" lon="1.65213">
        <ele>1425</ele>
        <time>2018-11-18T14:42:31.000Z</time>
      </trkpt>
      <trkpt lat="42.6937" lon="1.65213">
        <ele>1425</ele>
        <time>2018-11-18T14:42:33.000Z</time>
      </trkpt>
      <trkpt lat="42.6937" lon="1.65214">
        <ele>1425</ele>
        <time>2018-11-18T14:42:35.000Z</time>
      </trkpt>
      <trkpt lat="42.69371" lon="1.65214">
        <ele>1424</ele>
        <time>2018-11-18T14:42:37.000Z</time>
      </trkpt>
      <trkpt lat="42.69372" lon="1.65215">
        <ele>1424</ele>
        <time>2018-11-18T14:42:39.000Z</time>
      </trkpt>
      <trkpt lat="42.69374" lon="1.65215">
        <ele>1423</ele>
        <time>2018-11-18T14:42:41.000Z</time>
      </trkpt>
      <trkpt lat="42.69374" lon="1.65215">
        <ele>1423</ele>
        <time>2018-11-18T14:42:43.000Z</time>
      </trkpt>
      <trkpt lat="42.69375" lon="1.65214">
        <ele>1422</ele>
        <time>2018-11-18T14:42:45.000Z</time>
      </trkpt>
      <trkpt lat="42.69376" lon="1.65214">
        <ele>1422</ele>
        <time>2018-11-18T14:42:47.000Z</time>
      </trkpt>
      <trkpt lat="42.69376" lon="1.65212">
        <ele>1422</ele>
        <time>2018-11-18T14:42:49.000Z</time>
      </trkpt>
      <trkpt lat="42.69377" lon="1.65212">
        <ele>1421</ele>
        <time>2018-11-18T14:42:51.000Z</time>
      </trkpt>
      <trkpt lat="42.69377" lon="1.65211">
        <ele>1421</ele>
        <time>2018-11-18T14:42:53.000Z</time>
      </trkpt>
      <trkpt lat="42.69379" lon="1.65211">
        <ele>1420</ele>
        <time>2018-11-18T14:42:55.000Z</time>
      </trkpt>
      <trkpt lat="42.69379" lon="1.6521">
        <ele>1420</ele>
        <time>2018-11-18T14:42:57.000Z</time>
      </trkpt>
      <trkpt lat="42.69379" lon="1.65211">
        <ele>1420</ele>
        <time>2018-11-18T14:42:59.000Z</time>
      </trkpt>
      <trkpt lat="42.69379" lon="1.65211">
        <ele>1420</ele>
        <time>2018-11-18T14:43:01.000Z</time>
      </trkpt>
      <trkpt lat="42.69379" lon="1.6521">
        <ele>1420</ele>
        <time>2018-11-18T14:43:03.000Z</time>
      </trkpt>
      <trkpt lat="42.6938" lon="1.6521">
        <ele>1420</ele>
        <time>2018-11-18T14:43:05.000Z</time>
      </trkpt>
      <trkpt lat="42.6938" lon="1.6521">
        <ele>1420</ele>
        <time>2018-11-18T14:43:07.000Z</time>
      </trkpt>
      <trkpt lat="42.69381" lon="1.65211">
        <ele>1420</ele>
        <time>2018-11-18T14:43:09.000Z</time>
      </trkpt>
      <trkpt lat="42.69381" lon="1.65211">
        <ele>1419</ele>
        <time>2018-11-18T14:43:11.000Z</time>
      </trkpt>
      <trkpt lat="42.69381" lon="1.65211">
        <ele>1419</ele>
        <time>2018-11-18T14:43:13.000Z</time>
      </trkpt>
      <trkpt lat="42.69381" lon="1.6521">
        <ele>1419</ele>
        <time>2018-11-18T14:43:15.000Z</time>
      </trkpt>
      <trkpt lat="42.69382" lon="1.6521">
        <ele>1419</ele>
        <time>2018-11-18T14:43:17.000Z</time>
      </trkpt>
      <trkpt lat="42.69382" lon="1.65211">
        <ele>1419</ele>
        <time>2018-11-18T14:43:19.000Z</time>
      </trkpt>
      <trkpt lat="42.69383" lon="1.65212">
        <ele>1418</ele>
        <time>2018-11-18T14:43:21.000Z</time>
      </trkpt>
      <trkpt lat="42.69384" lon="1.65212">
        <ele>1418</ele>
        <time>2018-11-18T14:43:23.000Z</time>
      </trkpt>
      <trkpt lat="42.69385" lon="1.65212">
        <ele>1418</ele>
        <time>2018-11-18T14:43:25.000Z</time>
      </trkpt>
      <trkpt lat="42.69386" lon="1.65212">
        <ele>1417</ele>
        <time>2018-11-18T14:43:27.000Z</time>
      </trkpt>
      <trkpt lat="42.69386" lon="1.65212">
        <ele>1417</ele>
        <time>2018-11-18T14:43:29.000Z</time>
      </trkpt>
      <trkpt lat="42.69387" lon="1.65211">
        <ele>1417</ele>
        <time>2018-11-18T14:43:31.000Z</time>
      </trkpt>
      <trkpt lat="42.69388" lon="1.65211">
        <ele>1417</ele>
        <time>2018-11-18T14:43:33.000Z</time>
      </trkpt>
      <trkpt lat="42.69388" lon="1.65212">
        <ele>1416</ele>
        <time>2018-11-18T14:43:35.000Z</time>
      </trkpt>
      <trkpt lat="42.69389" lon="1.65212">
        <ele>1416</ele>
        <time>2018-11-18T14:43:37.000Z</time>
      </trkpt>
      <trkpt lat="42.6939" lon="1.65212">
        <ele>1416</ele>
        <time>2018-11-18T14:43:39.000Z</time>
      </trkpt>
      <trkpt lat="42.6939" lon="1.65213">
        <ele>1416</ele>
        <time>2018-11-18T14:43:41.000Z</time>
      </trkpt>
      <trkpt lat="42.69391" lon="1.65214">
        <ele>1415</ele>
        <time>2018-11-18T14:43:43.000Z</time>
      </trkpt>
      <trkpt lat="42.69392" lon="1.65215">
        <ele>1415</ele>
        <time>2018-11-18T14:43:45.000Z</time>
      </trkpt>
      <trkpt lat="42.69393" lon="1.65216">
        <ele>1415</ele>
        <time>2018-11-18T14:43:47.000Z</time>
      </trkpt>
      <trkpt lat="42.69394" lon="1.65219">
        <ele>1415</ele>
        <time>2018-11-18T14:43:49.000Z</time>
      </trkpt>
      <trkpt lat="42.69394" lon="1.6522">
        <ele>1415</ele>
        <time>2018-11-18T14:43:51.000Z</time>
      </trkpt>
      <trkpt lat="42.69394" lon="1.65221">
        <ele>1415</ele>
        <time>2018-11-18T14:43:53.000Z</time>
      </trkpt>
      <trkpt lat="42.69396" lon="1.65222">
        <ele>1415</ele>
        <time>2018-11-18T14:43:55.000Z</time>
      </trkpt>
      <trkpt lat="42.69396" lon="1.65222">
        <ele>1414</ele>
        <time>2018-11-18T14:43:57.000Z</time>
      </trkpt>
      <trkpt lat="42.69397" lon="1.65223">
        <ele>1414</ele>
        <time>2018-11-18T14:43:59.000Z</time>
      </trkpt>
      <trkpt lat="42.69397" lon="1.65224">
        <ele>1414</ele>
        <time>2018-11-18T14:44:01.000Z</time>
      </trkpt>
      <trkpt lat="42.69397" lon="1.65224">
        <ele>1414</ele>
        <time>2018-11-18T14:44:03.000Z</time>
      </trkpt>
      <trkpt lat="42.69398" lon="1.65225">
        <ele>1414</ele>
        <time>2018-11-18T14:44:05.000Z</time>
      </trkpt>
      <trkpt lat="42.69399" lon="1.65225">
        <ele>1413</ele>
        <time>2018-11-18T14:44:07.000Z</time>
      </trkpt>
      <trkpt lat="42.69399" lon="1.65224">
        <ele>1413</ele>
        <time>2018-11-18T14:44:09.000Z</time>
      </trkpt>
      <trkpt lat="42.694" lon="1.65225">
        <ele>1413</ele>
        <time>2018-11-18T14:44:11.000Z</time>
      </trkpt>
      <trkpt lat="42.69401" lon="1.65225">
        <ele>1413</ele>
        <time>2018-11-18T14:44:13.000Z</time>
      </trkpt>
      <trkpt lat="42.69402" lon="1.65225">
        <ele>1412</ele>
        <time>2018-11-18T14:44:15.000Z</time>
      </trkpt>
      <trkpt lat="42.69402" lon="1.65224">
        <ele>1412</ele>
        <time>2018-11-18T14:44:17.000Z</time>
      </trkpt>
      <trkpt lat="42.69402" lon="1.65224">
        <ele>1412</ele>
        <time>2018-11-18T14:44:19.000Z</time>
      </trkpt>
      <trkpt lat="42.69403" lon="1.65225">
        <ele>1412</ele>
        <time>2018-11-18T14:44:21.000Z</time>
      </trkpt>
      <trkpt lat="42.69403" lon="1.65226">
        <ele>1412</ele>
        <time>2018-11-18T14:44:23.000Z</time>
      </trkpt>
      <trkpt lat="42.69403" lon="1.65226">
        <ele>1412</ele>
        <time>2018-11-18T14:44:25.000Z</time>
      </trkpt>
      <trkpt lat="42.69404" lon="1.65226">
        <ele>1412</ele>
        <time>2018-11-18T14:44:27.000Z</time>
      </trkpt>
      <trkpt lat="42.69405" lon="1.65226">
        <ele>1411</ele>
        <time>2018-11-18T14:44:29.000Z</time>
      </trkpt>
      <trkpt lat="42.69405" lon="1.65227">
        <ele>1411</ele>
        <time>2018-11-18T14:44:31.000Z</time>
      </trkpt>
      <trkpt lat="42.69406" lon="1.6523">
        <ele>1411</ele>
        <time>2018-11-18T14:44:33.000Z</time>
      </trkpt>
      <trkpt lat="42.69407" lon="1.65231">
        <ele>1411</ele>
        <time>2018-11-18T14:44:35.000Z</time>
      </trkpt>
      <trkpt lat="42.69407" lon="1.65233">
        <ele>1412</ele>
        <time>2018-11-18T14:44:37.000Z</time>
      </trkpt>
      <trkpt lat="42.69407" lon="1.65235">
        <ele>1412</ele>
        <time>2018-11-18T14:44:39.000Z</time>
      </trkpt>
      <trkpt lat="42.69408" lon="1.65236">
        <ele>1411</ele>
        <time>2018-11-18T14:44:41.000Z</time>
      </trkpt>
      <trkpt lat="42.69408" lon="1.65236">
        <ele>1411</ele>
        <time>2018-11-18T14:44:43.000Z</time>
      </trkpt>
      <trkpt lat="42.69409" lon="1.65236">
        <ele>1411</ele>
        <time>2018-11-18T14:44:45.000Z</time>
      </trkpt>
      <trkpt lat="42.69409" lon="1.65237">
        <ele>1411</ele>
        <time>2018-11-18T14:44:47.000Z</time>
      </trkpt>
      <trkpt lat="42.6941" lon="1.65238">
        <ele>1411</ele>
        <time>2018-11-18T14:44:49.000Z</time>
      </trkpt>
      <trkpt lat="42.6941" lon="1.65239">
        <ele>1411</ele>
        <time>2018-11-18T14:44:51.000Z</time>
      </trkpt>
      <trkpt lat="42.69411" lon="1.65239">
        <ele>1411</ele>
        <time>2018-11-18T14:44:53.000Z</time>
      </trkpt>
      <trkpt lat="42.69412" lon="1.6524">
        <ele>1410</ele>
        <time>2018-11-18T14:44:55.000Z</time>
      </trkpt>
      <trkpt lat="42.69413" lon="1.65242">
        <ele>1410</ele>
        <time>2018-11-18T14:44:57.000Z</time>
      </trkpt>
      <trkpt lat="42.69414" lon="1.65243">
        <ele>1410</ele>
        <time>2018-11-18T14:44:59.000Z</time>
      </trkpt>
      <trkpt lat="42.69416" lon="1.65243">
        <ele>1409</ele>
        <time>2018-11-18T14:45:01.000Z</time>
      </trkpt>
      <trkpt lat="42.69417" lon="1.65244">
        <ele>1409</ele>
        <time>2018-11-18T14:45:03.000Z</time>
      </trkpt>
      <trkpt lat="42.69419" lon="1.65246">
        <ele>1409</ele>
        <time>2018-11-18T14:45:05.000Z</time>
      </trkpt>
      <trkpt lat="42.69421" lon="1.65247">
        <ele>1408</ele>
        <time>2018-11-18T14:45:07.000Z</time>
      </trkpt>
      <trkpt lat="42.69421" lon="1.65247">
        <ele>1408</ele>
        <time>2018-11-18T14:45:09.000Z</time>
      </trkpt>
      <trkpt lat="42.69423" lon="1.65249">
        <ele>1408</ele>
        <time>2018-11-18T14:45:11.000Z</time>
      </trkpt>
      <trkpt lat="42.69423" lon="1.65249">
        <ele>1407</ele>
        <time>2018-11-18T14:45:13.000Z</time>
      </trkpt>
      <trkpt lat="42.69425" lon="1.6525">
        <ele>1407</ele>
        <time>2018-11-18T14:45:15.000Z</time>
      </trkpt>
      <trkpt lat="42.69426" lon="1.6525">
        <ele>1406</ele>
        <time>2018-11-18T14:45:17.000Z</time>
      </trkpt>
      <trkpt lat="42.69427" lon="1.65251">
        <ele>1406</ele>
        <time>2018-11-18T14:45:19.000Z</time>
      </trkpt>
      <trkpt lat="42.69428" lon="1.65253">
        <ele>1406</ele>
        <time>2018-11-18T14:45:21.000Z</time>
      </trkpt>
      <trkpt lat="42.69428" lon="1.65254">
        <ele>1406</ele>
        <time>2018-11-18T14:45:23.000Z</time>
      </trkpt>
      <trkpt lat="42.6943" lon="1.65256">
        <ele>1406</ele>
        <time>2018-11-18T14:45:25.000Z</time>
      </trkpt>
      <trkpt lat="42.69432" lon="1.65257">
        <ele>1405</ele>
        <time>2018-11-18T14:45:27.000Z</time>
      </trkpt>
      <trkpt lat="42.69433" lon="1.65257">
        <ele>1405</ele>
        <time>2018-11-18T14:45:29.000Z</time>
      </trkpt>
      <trkpt lat="42.69434" lon="1.65258">
        <ele>1404</ele>
        <time>2018-11-18T14:45:31.000Z</time>
      </trkpt>
      <trkpt lat="42.69435" lon="1.65259">
        <ele>1404</ele>
        <time>2018-11-18T14:45:33.000Z</time>
      </trkpt>
      <trkpt lat="42.69436" lon="1.65259">
        <ele>1404</ele>
        <time>2018-11-18T14:45:35.000Z</time>
      </trkpt>
      <trkpt lat="42.69437" lon="1.65258">
        <ele>1403</ele>
        <time>2018-11-18T14:45:37.000Z</time>
      </trkpt>
      <trkpt lat="42.69437" lon="1.65257">
        <ele>1403</ele>
        <time>2018-11-18T14:45:39.000Z</time>
      </trkpt>
      <trkpt lat="42.69438" lon="1.65257">
        <ele>1403</ele>
        <time>2018-11-18T14:45:41.000Z</time>
      </trkpt>
      <trkpt lat="42.69438" lon="1.65259">
        <ele>1403</ele>
        <time>2018-11-18T14:45:43.000Z</time>
      </trkpt>
      <trkpt lat="42.69439" lon="1.65262">
        <ele>1403</ele>
        <time>2018-11-18T14:45:45.000Z</time>
      </trkpt>
      <trkpt lat="42.69439" lon="1.65262">
        <ele>1403</ele>
        <time>2018-11-18T14:45:47.000Z</time>
      </trkpt>
      <trkpt lat="42.6944" lon="1.65263">
        <ele>1403</ele>
        <time>2018-11-18T14:45:49.000Z</time>
      </trkpt>
      <trkpt lat="42.6944" lon="1.65264">
        <ele>1403</ele>
        <time>2018-11-18T14:45:51.000Z</time>
      </trkpt>
      <trkpt lat="42.6944" lon="1.65263">
        <ele>1403</ele>
        <time>2018-11-18T14:45:53.000Z</time>
      </trkpt>
      <trkpt lat="42.69442" lon="1.65265">
        <ele>1402</ele>
        <time>2018-11-18T14:45:55.000Z</time>
      </trkpt>
      <trkpt lat="42.69444" lon="1.65267">
        <ele>1402</ele>
        <time>2018-11-18T14:45:57.000Z</time>
      </trkpt>
      <trkpt lat="42.69446" lon="1.65269">
        <ele>1401</ele>
        <time>2018-11-18T14:45:59.000Z</time>
      </trkpt>
      <trkpt lat="42.69447" lon="1.65269">
        <ele>1401</ele>
        <time>2018-11-18T14:46:01.000Z</time>
      </trkpt>
      <trkpt lat="42.69448" lon="1.6527">
        <ele>1401</ele>
        <time>2018-11-18T14:46:03.000Z</time>
      </trkpt>
      <trkpt lat="42.69448" lon="1.6527">
        <ele>1401</ele>
        <time>2018-11-18T14:46:05.000Z</time>
      </trkpt>
      <trkpt lat="42.69449" lon="1.6527">
        <ele>1400</ele>
        <time>2018-11-18T14:46:07.000Z</time>
      </trkpt>
      <trkpt lat="42.6945" lon="1.65271">
        <ele>1400</ele>
        <time>2018-11-18T14:46:09.000Z</time>
      </trkpt>
      <trkpt lat="42.69453" lon="1.65274">
        <ele>1399</ele>
        <time>2018-11-18T14:46:11.000Z</time>
      </trkpt>
      <trkpt lat="42.69454" lon="1.65275">
        <ele>1399</ele>
        <time>2018-11-18T14:46:13.000Z</time>
      </trkpt>
      <trkpt lat="42.69456" lon="1.65276">
        <ele>1398</ele>
        <time>2018-11-18T14:46:15.000Z</time>
      </trkpt>
      <trkpt lat="42.69456" lon="1.65276">
        <ele>1398</ele>
        <time>2018-11-18T14:46:17.000Z</time>
      </trkpt>
      <trkpt lat="42.69456" lon="1.65275">
        <ele>1398</ele>
        <time>2018-11-18T14:46:19.000Z</time>
      </trkpt>
      <trkpt lat="42.69457" lon="1.65276">
        <ele>1398</ele>
        <time>2018-11-18T14:46:21.000Z</time>
      </trkpt>
      <trkpt lat="42.69457" lon="1.65275">
        <ele>1398</ele>
        <time>2018-11-18T14:46:23.000Z</time>
      </trkpt>
      <trkpt lat="42.69458" lon="1.65275">
        <ele>1397</ele>
        <time>2018-11-18T14:46:25.000Z</time>
      </trkpt>
      <trkpt lat="42.69458" lon="1.65274">
        <ele>1397</ele>
        <time>2018-11-18T14:46:27.000Z</time>
      </trkpt>
      <trkpt lat="42.69459" lon="1.65275">
        <ele>1397</ele>
        <time>2018-11-18T14:46:29.000Z</time>
      </trkpt>
      <trkpt lat="42.6946" lon="1.65277">
        <ele>1396</ele>
        <time>2018-11-18T14:46:31.000Z</time>
      </trkpt>
      <trkpt lat="42.69462" lon="1.6528">
        <ele>1396</ele>
        <time>2018-11-18T14:46:33.000Z</time>
      </trkpt>
      <trkpt lat="42.69463" lon="1.6528">
        <ele>1396</ele>
        <time>2018-11-18T14:46:35.000Z</time>
      </trkpt>
      <trkpt lat="42.69464" lon="1.65281">
        <ele>1396</ele>
        <time>2018-11-18T14:46:37.000Z</time>
      </trkpt>
      <trkpt lat="42.69465" lon="1.65282">
        <ele>1395</ele>
        <time>2018-11-18T14:46:39.000Z</time>
      </trkpt>
      <trkpt lat="42.69465" lon="1.65282">
        <ele>1395</ele>
        <time>2018-11-18T14:46:41.000Z</time>
      </trkpt>
      <trkpt lat="42.69467" lon="1.65284">
        <ele>1395</ele>
        <time>2018-11-18T14:46:43.000Z</time>
      </trkpt>
      <trkpt lat="42.69467" lon="1.65285">
        <ele>1395</ele>
        <time>2018-11-18T14:46:45.000Z</time>
      </trkpt>
      <trkpt lat="42.69468" lon="1.65286">
        <ele>1395</ele>
        <time>2018-11-18T14:46:47.000Z</time>
      </trkpt>
      <trkpt lat="42.69468" lon="1.65287">
        <ele>1395</ele>
        <time>2018-11-18T14:46:49.000Z</time>
      </trkpt>
      <trkpt lat="42.69469" lon="1.65287">
        <ele>1395</ele>
        <time>2018-11-18T14:46:51.000Z</time>
      </trkpt>
      <trkpt lat="42.69469" lon="1.65288">
        <ele>1395</ele>
        <time>2018-11-18T14:46:53.000Z</time>
      </trkpt>
      <trkpt lat="42.69469" lon="1.65287">
        <ele>1395</ele>
        <time>2018-11-18T14:46:55.000Z</time>
      </trkpt>
      <trkpt lat="42.6947" lon="1.65288">
        <ele>1395</ele>
        <time>2018-11-18T14:46:57.000Z</time>
      </trkpt>
      <trkpt lat="42.6947" lon="1.65289">
        <ele>1395</ele>
        <time>2018-11-18T14:46:59.000Z</time>
      </trkpt>
      <trkpt lat="42.69471" lon="1.65288">
        <ele>1394</ele>
        <time>2018-11-18T14:47:01.000Z</time>
      </trkpt>
      <trkpt lat="42.69471" lon="1.65288">
        <ele>1394</ele>
        <time>2018-11-18T14:47:03.000Z</time>
      </trkpt>
      <trkpt lat="42.69472" lon="1.65287">
        <ele>1394</ele>
        <time>2018-11-18T14:47:05.000Z</time>
      </trkpt>
      <trkpt lat="42.69472" lon="1.65287">
        <ele>1394</ele>
        <time>2018-11-18T14:47:07.000Z</time>
      </trkpt>
      <trkpt lat="42.69474" lon="1.65286">
        <ele>1394</ele>
        <time>2018-11-18T14:47:09.000Z</time>
      </trkpt>
      <trkpt lat="42.69474" lon="1.65285">
        <ele>1394</ele>
        <time>2018-11-18T14:47:11.000Z</time>
      </trkpt>
      <trkpt lat="42.69475" lon="1.65284">
        <ele>1394</ele>
        <time>2018-11-18T14:47:13.000Z</time>
      </trkpt>
      <trkpt lat="42.69475" lon="1.65284">
        <ele>1394</ele>
        <time>2018-11-18T14:47:15.000Z</time>
      </trkpt>
      <trkpt lat="42.69476" lon="1.65283">
        <ele>1394</ele>
        <time>2018-11-18T14:47:17.000Z</time>
      </trkpt>
      <trkpt lat="42.69476" lon="1.65285">
        <ele>1393</ele>
        <time>2018-11-18T14:47:19.000Z</time>
      </trkpt>
      <trkpt lat="42.69478" lon="1.65287">
        <ele>1393</ele>
        <time>2018-11-18T14:47:21.000Z</time>
      </trkpt>
      <trkpt lat="42.69479" lon="1.65288">
        <ele>1393</ele>
        <time>2018-11-18T14:47:23.000Z</time>
      </trkpt>
      <trkpt lat="42.69479" lon="1.65289">
        <ele>1393</ele>
        <time>2018-11-18T14:47:25.000Z</time>
      </trkpt>
      <trkpt lat="42.69479" lon="1.6529">
        <ele>1392</ele>
        <time>2018-11-18T14:47:27.000Z</time>
      </trkpt>
      <trkpt lat="42.69479" lon="1.65291">
        <ele>1392</ele>
        <time>2018-11-18T14:47:29.000Z</time>
      </trkpt>
      <trkpt lat="42.6948" lon="1.65292">
        <ele>1392</ele>
        <time>2018-11-18T14:47:31.000Z</time>
      </trkpt>
      <trkpt lat="42.69481" lon="1.65293">
        <ele>1392</ele>
        <time>2018-11-18T14:47:33.000Z</time>
      </trkpt>
      <trkpt lat="42.69482" lon="1.65293">
        <ele>1392</ele>
        <time>2018-11-18T14:47:35.000Z</time>
      </trkpt>
      <trkpt lat="42.69483" lon="1.65294">
        <ele>1392</ele>
        <time>2018-11-18T14:47:37.000Z</time>
      </trkpt>
      <trkpt lat="42.69484" lon="1.65294">
        <ele>1391</ele>
        <time>2018-11-18T14:47:39.000Z</time>
      </trkpt>
      <trkpt lat="42.69485" lon="1.65294">
        <ele>1391</ele>
        <time>2018-11-18T14:47:41.000Z</time>
      </trkpt>
      <trkpt lat="42.69486" lon="1.65294">
        <ele>1391</ele>
        <time>2018-11-18T14:47:43.000Z</time>
      </trkpt>
      <trkpt lat="42.69486" lon="1.65294">
        <ele>1391</ele>
        <time>2018-11-18T14:47:45.000Z</time>
      </trkpt>
      <trkpt lat="42.69487" lon="1.65295">
        <ele>1391</ele>
        <time>2018-11-18T14:47:47.000Z</time>
      </trkpt>
      <trkpt lat="42.69488" lon="1.65296">
        <ele>1391</ele>
        <time>2018-11-18T14:47:49.000Z</time>
      </trkpt>
      <trkpt lat="42.69491" lon="1.653">
        <ele>1390</ele>
        <time>2018-11-18T14:47:51.000Z</time>
      </trkpt>
      <trkpt lat="42.69492" lon="1.65302">
        <ele>1390</ele>
        <time>2018-11-18T14:47:53.000Z</time>
      </trkpt>
      <trkpt lat="42.69493" lon="1.65304">
        <ele>1389</ele>
        <time>2018-11-18T14:47:55.000Z</time>
      </trkpt>
      <trkpt lat="42.69493" lon="1.65303">
        <ele>1389</ele>
        <time>2018-11-18T14:47:57.000Z</time>
      </trkpt>
      <trkpt lat="42.69494" lon="1.65305">
        <ele>1389</ele>
        <time>2018-11-18T14:47:59.000Z</time>
      </trkpt>
      <trkpt lat="42.69497" lon="1.65304">
        <ele>1389</ele>
        <time>2018-11-18T14:48:01.000Z</time>
      </trkpt>
      <trkpt lat="42.69497" lon="1.65303">
        <ele>1389</ele>
        <time>2018-11-18T14:48:03.000Z</time>
      </trkpt>
      <trkpt lat="42.69499" lon="1.65303">
        <ele>1389</ele>
        <time>2018-11-18T14:48:05.000Z</time>
      </trkpt>
      <trkpt lat="42.695" lon="1.65303">
        <ele>1388</ele>
        <time>2018-11-18T14:48:07.000Z</time>
      </trkpt>
      <trkpt lat="42.69501" lon="1.65306">
        <ele>1388</ele>
        <time>2018-11-18T14:48:09.000Z</time>
      </trkpt>
      <trkpt lat="42.69502" lon="1.65308">
        <ele>1388</ele>
        <time>2018-11-18T14:48:11.000Z</time>
      </trkpt>
      <trkpt lat="42.69504" lon="1.6531">
        <ele>1387</ele>
        <time>2018-11-18T14:48:13.000Z</time>
      </trkpt>
      <trkpt lat="42.69504" lon="1.6531">
        <ele>1387</ele>
        <time>2018-11-18T14:48:15.000Z</time>
      </trkpt>
      <trkpt lat="42.69505" lon="1.6531">
        <ele>1387</ele>
        <time>2018-11-18T14:48:17.000Z</time>
      </trkpt>
      <trkpt lat="42.69506" lon="1.6531">
        <ele>1387</ele>
        <time>2018-11-18T14:48:19.000Z</time>
      </trkpt>
      <trkpt lat="42.69507" lon="1.6531">
        <ele>1387</ele>
        <time>2018-11-18T14:48:21.000Z</time>
      </trkpt>
      <trkpt lat="42.69508" lon="1.6531">
        <ele>1387</ele>
        <time>2018-11-18T14:48:23.000Z</time>
      </trkpt>
      <trkpt lat="42.69509" lon="1.65311">
        <ele>1387</ele>
        <time>2018-11-18T14:48:25.000Z</time>
      </trkpt>
      <trkpt lat="42.69509" lon="1.65312">
        <ele>1387</ele>
        <time>2018-11-18T14:48:27.000Z</time>
      </trkpt>
      <trkpt lat="42.6951" lon="1.65313">
        <ele>1387</ele>
        <time>2018-11-18T14:48:29.000Z</time>
      </trkpt>
      <trkpt lat="42.6951" lon="1.65314">
        <ele>1386</ele>
        <time>2018-11-18T14:48:31.000Z</time>
      </trkpt>
      <trkpt lat="42.69511" lon="1.65315">
        <ele>1386</ele>
        <time>2018-11-18T14:48:33.000Z</time>
      </trkpt>
      <trkpt lat="42.6951" lon="1.65314">
        <ele>1386</ele>
        <time>2018-11-18T14:48:35.000Z</time>
      </trkpt>
      <trkpt lat="42.6951" lon="1.65314">
        <ele>1386</ele>
        <time>2018-11-18T14:48:37.000Z</time>
      </trkpt>
      <trkpt lat="42.69509" lon="1.65315">
        <ele>1386</ele>
        <time>2018-11-18T14:48:39.000Z</time>
      </trkpt>
      <trkpt lat="42.69508" lon="1.65314">
        <ele>1386</ele>
        <time>2018-11-18T14:48:41.000Z</time>
      </trkpt>
      <trkpt lat="42.69507" lon="1.65314">
        <ele>1386</ele>
        <time>2018-11-18T14:48:43.000Z</time>
      </trkpt>
      <trkpt lat="42.69508" lon="1.65315">
        <ele>1386</ele>
        <time>2018-11-18T14:48:45.000Z</time>
      </trkpt>
      <trkpt lat="42.69508" lon="1.65314">
        <ele>1386</ele>
        <time>2018-11-18T14:48:47.000Z</time>
      </trkpt>
      <trkpt lat="42.69508" lon="1.65314">
        <ele>1386</ele>
        <time>2018-11-18T14:48:49.000Z</time>
      </trkpt>
      <trkpt lat="42.69508" lon="1.65314">
        <ele>1386</ele>
        <time>2018-11-18T14:48:51.000Z</time>
      </trkpt>
      <trkpt lat="42.69508" lon="1.65315">
        <ele>1386</ele>
        <time>2018-11-18T14:48:53.000Z</time>
      </trkpt>
      <trkpt lat="42.69508" lon="1.65315">
        <ele>1386</ele>
        <time>2018-11-18T14:48:55.000Z</time>
      </trkpt>
      <trkpt lat="42.69507" lon="1.65314">
        <ele>1386</ele>
        <time>2018-11-18T14:48:57.000Z</time>
      </trkpt>
      <trkpt lat="42.69506" lon="1.65313">
        <ele>1387</ele>
        <time>2018-11-18T14:48:59.000Z</time>
      </trkpt>
      <trkpt lat="42.69505" lon="1.65312">
        <ele>1387</ele>
        <time>2018-11-18T14:49:01.000Z</time>
      </trkpt>
      <trkpt lat="42.69504" lon="1.65312">
        <ele>1387</ele>
        <time>2018-11-18T14:49:03.000Z</time>
      </trkpt>
      <trkpt lat="42.69503" lon="1.65312">
        <ele>1387</ele>
        <time>2018-11-18T14:49:05.000Z</time>
      </trkpt>
      <trkpt lat="42.69503" lon="1.65312">
        <ele>1387</ele>
        <time>2018-11-18T14:49:07.000Z</time>
      </trkpt>
      <trkpt lat="42.69503" lon="1.65312">
        <ele>1387</ele>
        <time>2018-11-18T14:49:09.000Z</time>
      </trkpt>
      <trkpt lat="42.69502" lon="1.65311">
        <ele>1387</ele>
        <time>2018-11-18T14:49:11.000Z</time>
      </trkpt>
      <trkpt lat="42.69499" lon="1.65304">
        <ele>1388</ele>
        <time>2018-11-18T14:49:13.000Z</time>
      </trkpt>
      <trkpt lat="42.69497" lon="1.653">
        <ele>1389</ele>
        <time>2018-11-18T14:49:15.000Z</time>
      </trkpt>
      <trkpt lat="42.69497" lon="1.653">
        <ele>1389</ele>
        <time>2018-11-18T14:49:17.000Z</time>
      </trkpt>
      <trkpt lat="42.69496" lon="1.653">
        <ele>1389</ele>
        <time>2018-11-18T14:49:19.000Z</time>
      </trkpt>
      <trkpt lat="42.69496" lon="1.65299">
        <ele>1389</ele>
        <time>2018-11-18T14:49:21.000Z</time>
      </trkpt>
      <trkpt lat="42.69497" lon="1.653">
        <ele>1389</ele>
        <time>2018-11-18T14:49:23.000Z</time>
      </trkpt>
      <trkpt lat="42.69498" lon="1.65299">
        <ele>1389</ele>
        <time>2018-11-18T14:49:25.000Z</time>
      </trkpt>
      <trkpt lat="42.69498" lon="1.653">
        <ele>1389</ele>
        <time>2018-11-18T14:49:27.000Z</time>
      </trkpt>
      <trkpt lat="42.69499" lon="1.653">
        <ele>1389</ele>
        <time>2018-11-18T14:49:29.000Z</time>
      </trkpt>
      <trkpt lat="42.69499" lon="1.653">
        <ele>1389</ele>
        <time>2018-11-18T14:49:31.000Z</time>
      </trkpt>
      <trkpt lat="42.695" lon="1.653">
        <ele>1389</ele>
        <time>2018-11-18T14:49:33.000Z</time>
      </trkpt>
      <trkpt lat="42.69501" lon="1.653">
        <ele>1389</ele>
        <time>2018-11-18T14:49:35.000Z</time>
      </trkpt>
      <trkpt lat="42.69501" lon="1.653">
        <ele>1389</ele>
        <time>2018-11-18T14:49:37.000Z</time>
      </trkpt>
      <trkpt lat="42.69501" lon="1.65302">
        <ele>1389</ele>
        <time>2018-11-18T14:49:39.000Z</time>
      </trkpt>
      <trkpt lat="42.69501" lon="1.65302">
        <ele>1388</ele>
        <time>2018-11-18T14:49:41.000Z</time>
      </trkpt>
      <trkpt lat="42.69501" lon="1.65303">
        <ele>1388</ele>
        <time>2018-11-18T14:49:43.000Z</time>
      </trkpt>
      <trkpt lat="42.69501" lon="1.65303">
        <ele>1388</ele>
        <time>2018-11-18T14:49:45.000Z</time>
      </trkpt>
      <trkpt lat="42.69501" lon="1.65303">
        <ele>1388</ele>
        <time>2018-11-18T14:49:47.000Z</time>
      </trkpt>
      <trkpt lat="42.69501" lon="1.65305">
        <ele>1388</ele>
        <time>2018-11-18T14:49:49.000Z</time>
      </trkpt>
      <trkpt lat="42.69502" lon="1.65306">
        <ele>1388</ele>
        <time>2018-11-18T14:49:51.000Z</time>
      </trkpt>
      <trkpt lat="42.69503" lon="1.65308">
        <ele>1388</ele>
        <time>2018-11-18T14:49:53.000Z</time>
      </trkpt>
      <trkpt lat="42.69503" lon="1.6531">
        <ele>1387</ele>
        <time>2018-11-18T14:49:55.000Z</time>
      </trkpt>
      <trkpt lat="42.69504" lon="1.65311">
        <ele>1387</ele>
        <time>2018-11-18T14:49:57.000Z</time>
      </trkpt>
      <trkpt lat="42.69505" lon="1.65312">
        <ele>1387</ele>
        <time>2018-11-18T14:49:59.000Z</time>
      </trkpt>
      <trkpt lat="42.69506" lon="1.65314">
        <ele>1387</ele>
        <time>2018-11-18T14:50:01.000Z</time>
      </trkpt>
      <trkpt lat="42.69506" lon="1.65314">
        <ele>1387</ele>
        <time>2018-11-18T14:50:03.000Z</time>
      </trkpt>
      <trkpt lat="42.69507" lon="1.65314">
        <ele>1387</ele>
        <time>2018-11-18T14:50:05.000Z</time>
      </trkpt>
      <trkpt lat="42.69507" lon="1.65314">
        <ele>1387</ele>
        <time>2018-11-18T14:50:07.000Z</time>
      </trkpt>
      <trkpt lat="42.69507" lon="1.65313">
        <ele>1387</ele>
        <time>2018-11-18T14:50:09.000Z</time>
      </trkpt>
      <trkpt lat="42.69507" lon="1.65313">
        <ele>1387</ele>
        <time>2018-11-18T14:50:11.000Z</time>
      </trkpt>
      <trkpt lat="42.69507" lon="1.65313">
        <ele>1387</ele>
        <time>2018-11-18T14:50:13.000Z</time>
      </trkpt>
      <trkpt lat="42.69507" lon="1.65314">
        <ele>1387</ele>
        <time>2018-11-18T14:50:15.000Z</time>
      </trkpt>
      <trkpt lat="42.69508" lon="1.65315">
        <ele>1386</ele>
        <time>2018-11-18T14:50:17.000Z</time>
      </trkpt>
      <trkpt lat="42.69508" lon="1.65315">
        <ele>1386</ele>
        <time>2018-11-18T14:50:19.000Z</time>
      </trkpt>
      <trkpt lat="42.69507" lon="1.65316">
        <ele>1386</ele>
        <time>2018-11-18T14:50:21.000Z</time>
      </trkpt>
      <trkpt lat="42.69507" lon="1.65316">
        <ele>1386</ele>
        <time>2018-11-18T14:50:23.000Z</time>
      </trkpt>
      <trkpt lat="42.69507" lon="1.65317">
        <ele>1386</ele>
        <time>2018-11-18T14:50:25.000Z</time>
      </trkpt>
      <trkpt lat="42.69507" lon="1.65317">
        <ele>1386</ele>
        <time>2018-11-18T14:50:27.000Z</time>
      </trkpt>
      <trkpt lat="42.69507" lon="1.65316">
        <ele>1386</ele>
        <time>2018-11-18T14:50:29.000Z</time>
      </trkpt>
      <trkpt lat="42.69506" lon="1.65315">
        <ele>1386</ele>
        <time>2018-11-18T14:50:31.000Z</time>
      </trkpt>
      <trkpt lat="42.69506" lon="1.65314">
        <ele>1387</ele>
        <time>2018-11-18T14:50:33.000Z</time>
      </trkpt>
      <trkpt lat="42.69505" lon="1.65313">
        <ele>1387</ele>
        <time>2018-11-18T14:50:35.000Z</time>
      </trkpt>
      <trkpt lat="42.69504" lon="1.65313">
        <ele>1387</ele>
        <time>2018-11-18T14:50:37.000Z</time>
      </trkpt>
      <trkpt lat="42.69504" lon="1.65312">
        <ele>1387</ele>
        <time>2018-11-18T14:50:39.000Z</time>
      </trkpt>
      <trkpt lat="42.69504" lon="1.65312">
        <ele>1387</ele>
        <time>2018-11-18T14:50:41.000Z</time>
      </trkpt>
      <trkpt lat="42.69504" lon="1.65312">
        <ele>1387</ele>
        <time>2018-11-18T14:50:43.000Z</time>
      </trkpt>
      <trkpt lat="42.69505" lon="1.65315">
        <ele>1387</ele>
        <time>2018-11-18T14:50:45.000Z</time>
      </trkpt>
      <trkpt lat="42.69505" lon="1.65315">
        <ele>1386</ele>
        <time>2018-11-18T14:50:47.000Z</time>
      </trkpt>
      <trkpt lat="42.69505" lon="1.65316">
        <ele>1386</ele>
        <time>2018-11-18T14:50:49.000Z</time>
      </trkpt>
      <trkpt lat="42.69505" lon="1.65317">
        <ele>1386</ele>
        <time>2018-11-18T14:50:51.000Z</time>
      </trkpt>
      <trkpt lat="42.69505" lon="1.65317">
        <ele>1386</ele>
        <time>2018-11-18T14:50:53.000Z</time>
      </trkpt>
      <trkpt lat="42.69506" lon="1.65316">
        <ele>1386</ele>
        <time>2018-11-18T14:50:55.000Z</time>
      </trkpt>
      <trkpt lat="42.69507" lon="1.65317">
        <ele>1386</ele>
        <time>2018-11-18T14:50:57.000Z</time>
      </trkpt>
      <trkpt lat="42.69508" lon="1.65317">
        <ele>1386</ele>
        <time>2018-11-18T14:50:59.000Z</time>
      </trkpt>
      <trkpt lat="42.69509" lon="1.65315">
        <ele>1386</ele>
        <time>2018-11-18T14:51:01.000Z</time>
      </trkpt>
      <trkpt lat="42.69509" lon="1.65314">
        <ele>1386</ele>
        <time>2018-11-18T14:51:03.000Z</time>
      </trkpt>
      <trkpt lat="42.69511" lon="1.65313">
        <ele>1387</ele>
        <time>2018-11-18T14:51:05.000Z</time>
      </trkpt>
      <trkpt lat="42.69512" lon="1.65312">
        <ele>1387</ele>
        <time>2018-11-18T14:51:07.000Z</time>
      </trkpt>
      <trkpt lat="42.69513" lon="1.65311">
        <ele>1387</ele>
        <time>2018-11-18T14:51:09.000Z</time>
      </trkpt>
      <trkpt lat="42.69513" lon="1.65311">
        <ele>1387</ele>
        <time>2018-11-18T14:51:11.000Z</time>
      </trkpt>
      <trkpt lat="42.69513" lon="1.6531">
        <ele>1387</ele>
        <time>2018-11-18T14:51:13.000Z</time>
      </trkpt>
      <trkpt lat="42.69513" lon="1.6531">
        <ele>1387</ele>
        <time>2018-11-18T14:51:15.000Z</time>
      </trkpt>
      <trkpt lat="42.69512" lon="1.6531">
        <ele>1387</ele>
        <time>2018-11-18T14:51:17.000Z</time>
      </trkpt>
      <trkpt lat="42.69513" lon="1.6531">
        <ele>1387</ele>
        <time>2018-11-18T14:51:19.000Z</time>
      </trkpt>
      <trkpt lat="42.69514" lon="1.65309">
        <ele>1387</ele>
        <time>2018-11-18T14:51:21.000Z</time>
      </trkpt>
      <trkpt lat="42.69514" lon="1.65309">
        <ele>1387</ele>
        <time>2018-11-18T14:51:23.000Z</time>
      </trkpt>
      <trkpt lat="42.69515" lon="1.65309">
        <ele>1387</ele>
        <time>2018-11-18T14:51:25.000Z</time>
      </trkpt>
      <trkpt lat="42.69514" lon="1.65309">
        <ele>1387</ele>
        <time>2018-11-18T14:51:27.000Z</time>
      </trkpt>
      <trkpt lat="42.69514" lon="1.6531">
        <ele>1387</ele>
        <time>2018-11-18T14:51:29.000Z</time>
      </trkpt>
      <trkpt lat="42.69513" lon="1.6531">
        <ele>1387</ele>
        <time>2018-11-18T14:51:31.000Z</time>
      </trkpt>
      <trkpt lat="42.69514" lon="1.6531">
        <ele>1387</ele>
        <time>2018-11-18T14:51:33.000Z</time>
      </trkpt>
      <trkpt lat="42.69514" lon="1.6531">
        <ele>1387</ele>
        <time>2018-11-18T14:51:35.000Z</time>
      </trkpt>
      <trkpt lat="42.69514" lon="1.6531">
        <ele>1387</ele>
        <time>2018-11-18T14:51:37.000Z</time>
      </trkpt>
      <trkpt lat="42.69513" lon="1.6531">
        <ele>1387</ele>
        <time>2018-11-18T14:51:39.000Z</time>
      </trkpt>
      <trkpt lat="42.69514" lon="1.65309">
        <ele>1387</ele>
        <time>2018-11-18T14:51:41.000Z</time>
      </trkpt>
      <trkpt lat="42.69515" lon="1.6531">
        <ele>1387</ele>
        <time>2018-11-18T14:51:43.000Z</time>
      </trkpt>
      <trkpt lat="42.69515" lon="1.6531">
        <ele>1387</ele>
        <time>2018-11-18T14:51:45.000Z</time>
      </trkpt>
      <trkpt lat="42.69515" lon="1.6531">
        <ele>1387</ele>
        <time>2018-11-18T14:51:47.000Z</time>
      </trkpt>
      <trkpt lat="42.69514" lon="1.65311">
        <ele>1387</ele>
        <time>2018-11-18T14:51:49.000Z</time>
      </trkpt>
      <trkpt lat="42.69513" lon="1.6531">
        <ele>1387</ele>
        <time>2018-11-18T14:51:51.000Z</time>
      </trkpt>
      <trkpt lat="42.69512" lon="1.6531">
        <ele>1387</ele>
        <time>2018-11-18T14:51:53.000Z</time>
      </trkpt>
      <trkpt lat="42.69511" lon="1.6531">
        <ele>1387</ele>
        <time>2018-11-18T14:51:55.000Z</time>
      </trkpt>
      <trkpt lat="42.69511" lon="1.6531">
        <ele>1387</ele>
        <time>2018-11-18T14:51:57.000Z</time>
      </trkpt>
      <trkpt lat="42.6951" lon="1.6531">
        <ele>1387</ele>
        <time>2018-11-18T14:51:59.000Z</time>
      </trkpt>
      <trkpt lat="42.69509" lon="1.65311">
        <ele>1387</ele>
        <time>2018-11-18T14:52:01.000Z</time>
      </trkpt>
      <trkpt lat="42.69508" lon="1.65311">
        <ele>1387</ele>
        <time>2018-11-18T14:52:03.000Z</time>
      </trkpt>
      <trkpt lat="42.69507" lon="1.65312">
        <ele>1387</ele>
        <time>2018-11-18T14:52:05.000Z</time>
      </trkpt>
      <trkpt lat="42.69506" lon="1.65313">
        <ele>1387</ele>
        <time>2018-11-18T14:52:07.000Z</time>
      </trkpt>
      <trkpt lat="42.69504" lon="1.65314">
        <ele>1387</ele>
        <time>2018-11-18T14:52:09.000Z</time>
      </trkpt>
      <trkpt lat="42.69503" lon="1.65315">
        <ele>1387</ele>
        <time>2018-11-18T14:52:11.000Z</time>
      </trkpt>
      <trkpt lat="42.69502" lon="1.65315">
        <ele>1387</ele>
        <time>2018-11-18T14:52:13.000Z</time>
      </trkpt>
      <trkpt lat="42.69501" lon="1.65313">
        <ele>1387</ele>
        <time>2018-11-18T14:52:15.000Z</time>
      </trkpt>
      <trkpt lat="42.695" lon="1.65313">
        <ele>1387</ele>
        <time>2018-11-18T14:52:17.000Z</time>
      </trkpt>
      <trkpt lat="42.69498" lon="1.65311">
        <ele>1388</ele>
        <time>2018-11-18T14:52:19.000Z</time>
      </trkpt>
      <trkpt lat="42.69497" lon="1.6531">
        <ele>1388</ele>
        <time>2018-11-18T14:52:21.000Z</time>
      </trkpt>
      <trkpt lat="42.69498" lon="1.6531">
        <ele>1388</ele>
        <time>2018-11-18T14:52:23.000Z</time>
      </trkpt>
      <trkpt lat="42.69497" lon="1.65308">
        <ele>1388</ele>
        <time>2018-11-18T14:52:25.000Z</time>
      </trkpt>
      <trkpt lat="42.69497" lon="1.65307">
        <ele>1388</ele>
        <time>2018-11-18T14:52:27.000Z</time>
      </trkpt>
      <trkpt lat="42.69497" lon="1.65307">
        <ele>1388</ele>
        <time>2018-11-18T14:52:29.000Z</time>
      </trkpt>
      <trkpt lat="42.69498" lon="1.65306">
        <ele>1388</ele>
        <time>2018-11-18T14:52:31.000Z</time>
      </trkpt>
      <trkpt lat="42.69498" lon="1.65305">
        <ele>1388</ele>
        <time>2018-11-18T14:52:33.000Z</time>
      </trkpt>
      <trkpt lat="42.69498" lon="1.65303">
        <ele>1389</ele>
        <time>2018-11-18T14:52:35.000Z</time>
      </trkpt>
      <trkpt lat="42.69499" lon="1.65304">
        <ele>1388</ele>
        <time>2018-11-18T14:52:37.000Z</time>
      </trkpt>
      <trkpt lat="42.69499" lon="1.65303">
        <ele>1389</ele>
        <time>2018-11-18T14:52:39.000Z</time>
      </trkpt>
      <trkpt lat="42.69497" lon="1.65301">
        <ele>1389</ele>
        <time>2018-11-18T14:52:41.000Z</time>
      </trkpt>
      <trkpt lat="42.69495" lon="1.65299">
        <ele>1390</ele>
        <time>2018-11-18T14:52:43.000Z</time>
      </trkpt>
      <trkpt lat="42.69492" lon="1.65294">
        <ele>1391</ele>
        <time>2018-11-18T14:52:45.000Z</time>
      </trkpt>
      <trkpt lat="42.69492" lon="1.65292">
        <ele>1391</ele>
        <time>2018-11-18T14:52:47.000Z</time>
      </trkpt>
      <trkpt lat="42.69491" lon="1.65289">
        <ele>1391</ele>
        <time>2018-11-18T14:52:49.000Z</time>
      </trkpt>
      <trkpt lat="42.69491" lon="1.65289">
        <ele>1391</ele>
        <time>2018-11-18T14:52:51.000Z</time>
      </trkpt>
      <trkpt lat="42.69491" lon="1.65288">
        <ele>1391</ele>
        <time>2018-11-18T14:52:53.000Z</time>
      </trkpt>
      <trkpt lat="42.69491" lon="1.65288">
        <ele>1391</ele>
        <time>2018-11-18T14:52:55.000Z</time>
      </trkpt>
      <trkpt lat="42.69491" lon="1.65289">
        <ele>1391</ele>
        <time>2018-11-18T14:52:57.000Z</time>
      </trkpt>
      <trkpt lat="42.69491" lon="1.65289">
        <ele>1391</ele>
        <time>2018-11-18T14:52:59.000Z</time>
      </trkpt>
      <trkpt lat="42.69491" lon="1.6529">
        <ele>1391</ele>
        <time>2018-11-18T14:53:01.000Z</time>
      </trkpt>
      <trkpt lat="42.69491" lon="1.6529">
        <ele>1391</ele>
        <time>2018-11-18T14:53:03.000Z</time>
      </trkpt>
      <trkpt lat="42.6949" lon="1.65291">
        <ele>1391</ele>
        <time>2018-11-18T14:53:05.000Z</time>
      </trkpt>
      <trkpt lat="42.69489" lon="1.65292">
        <ele>1391</ele>
        <time>2018-11-18T14:53:07.000Z</time>
      </trkpt>
      <trkpt lat="42.69488" lon="1.65291">
        <ele>1391</ele>
        <time>2018-11-18T14:53:09.000Z</time>
      </trkpt>
      <trkpt lat="42.69486" lon="1.65291">
        <ele>1392</ele>
        <time>2018-11-18T14:53:11.000Z</time>
      </trkpt>
      <trkpt lat="42.69482" lon="1.65291">
        <ele>1392</ele>
        <time>2018-11-18T14:53:13.000Z</time>
      </trkpt>
      <trkpt lat="42.69479" lon="1.6529">
        <ele>1392</ele>
        <time>2018-11-18T14:53:15.000Z</time>
      </trkpt>
      <trkpt lat="42.69477" lon="1.6529">
        <ele>1393</ele>
        <time>2018-11-18T14:53:17.000Z</time>
      </trkpt>
      <trkpt lat="42.69475" lon="1.65291">
        <ele>1393</ele>
        <time>2018-11-18T14:53:19.000Z</time>
      </trkpt>
      <trkpt lat="42.69475" lon="1.65293">
        <ele>1393</ele>
        <time>2018-11-18T14:53:21.000Z</time>
      </trkpt>
      <trkpt lat="42.69478" lon="1.65294">
        <ele>1392</ele>
        <time>2018-11-18T14:53:23.000Z</time>
      </trkpt>
      <trkpt lat="42.69483" lon="1.65292">
        <ele>1392</ele>
        <time>2018-11-18T14:53:25.000Z</time>
      </trkpt>
      <trkpt lat="42.69484" lon="1.65292">
        <ele>1392</ele>
        <time>2018-11-18T14:53:27.000Z</time>
      </trkpt>
      <trkpt lat="42.69485" lon="1.65293">
        <ele>1391</ele>
        <time>2018-11-18T14:53:29.000Z</time>
      </trkpt>
      <trkpt lat="42.69485" lon="1.65295">
        <ele>1391</ele>
        <time>2018-11-18T14:53:31.000Z</time>
      </trkpt>
      <trkpt lat="42.69484" lon="1.65294">
        <ele>1391</ele>
        <time>2018-11-18T14:53:33.000Z</time>
      </trkpt>
      <trkpt lat="42.69483" lon="1.65292">
        <ele>1392</ele>
        <time>2018-11-18T14:53:35.000Z</time>
      </trkpt>
      <trkpt lat="42.69481" lon="1.6529">
        <ele>1392</ele>
        <time>2018-11-18T14:53:37.000Z</time>
      </trkpt>
      <trkpt lat="42.69482" lon="1.65292">
        <ele>1392</ele>
        <time>2018-11-18T14:53:39.000Z</time>
      </trkpt>
      <trkpt lat="42.69482" lon="1.6529">
        <ele>1392</ele>
        <time>2018-11-18T14:53:41.000Z</time>
      </trkpt>
      <trkpt lat="42.69483" lon="1.65292">
        <ele>1392</ele>
        <time>2018-11-18T14:53:43.000Z</time>
      </trkpt>
      <trkpt lat="42.69485" lon="1.65295">
        <ele>1391</ele>
        <time>2018-11-18T14:53:45.000Z</time>
      </trkpt>
      <trkpt lat="42.69487" lon="1.65295">
        <ele>1391</ele>
        <time>2018-11-18T14:53:47.000Z</time>
      </trkpt>
      <trkpt lat="42.6949" lon="1.65298">
        <ele>1390</ele>
        <time>2018-11-18T14:53:49.000Z</time>
      </trkpt>
      <trkpt lat="42.69491" lon="1.65297">
        <ele>1390</ele>
        <time>2018-11-18T14:53:51.000Z</time>
      </trkpt>
      <trkpt lat="42.6949" lon="1.65298">
        <ele>1390</ele>
        <time>2018-11-18T14:53:53.000Z</time>
      </trkpt>
      <trkpt lat="42.69492" lon="1.653">
        <ele>1390</ele>
        <time>2018-11-18T14:53:55.000Z</time>
      </trkpt>
      <trkpt lat="42.69493" lon="1.65301">
        <ele>1390</ele>
        <time>2018-11-18T14:53:57.000Z</time>
      </trkpt>
      <trkpt lat="42.69493" lon="1.65301">
        <ele>1389</ele>
        <time>2018-11-18T14:53:59.000Z</time>
      </trkpt>
      <trkpt lat="42.69494" lon="1.653">
        <ele>1390</ele>
        <time>2018-11-18T14:54:01.000Z</time>
      </trkpt>
      <trkpt lat="42.69495" lon="1.65302">
        <ele>1389</ele>
        <time>2018-11-18T14:54:03.000Z</time>
      </trkpt>
      <trkpt lat="42.69496" lon="1.65304">
        <ele>1389</ele>
        <time>2018-11-18T14:54:05.000Z</time>
      </trkpt>
      <trkpt lat="42.69497" lon="1.65305">
        <ele>1389</ele>
        <time>2018-11-18T14:54:07.000Z</time>
      </trkpt>
      <trkpt lat="42.69497" lon="1.65305">
        <ele>1389</ele>
        <time>2018-11-18T14:54:09.000Z</time>
      </trkpt>
      <trkpt lat="42.695" lon="1.65305">
        <ele>1388</ele>
        <time>2018-11-18T14:54:11.000Z</time>
      </trkpt>
      <trkpt lat="42.69502" lon="1.65306">
        <ele>1388</ele>
        <time>2018-11-18T14:54:13.000Z</time>
      </trkpt>
      <trkpt lat="42.69504" lon="1.65307">
        <ele>1388</ele>
        <time>2018-11-18T14:54:15.000Z</time>
      </trkpt>
      <trkpt lat="42.69505" lon="1.65308">
        <ele>1387</ele>
        <time>2018-11-18T14:54:17.000Z</time>
      </trkpt>
      <trkpt lat="42.69505" lon="1.65308">
        <ele>1387</ele>
        <time>2018-11-18T14:54:19.000Z</time>
      </trkpt>
      <trkpt lat="42.69505" lon="1.65308">
        <ele>1387</ele>
        <time>2018-11-18T14:54:21.000Z</time>
      </trkpt>
      <trkpt lat="42.69505" lon="1.65308">
        <ele>1387</ele>
        <time>2018-11-18T14:54:23.000Z</time>
      </trkpt>
      <trkpt lat="42.69505" lon="1.65308">
        <ele>1387</ele>
        <time>2018-11-18T14:54:25.000Z</time>
      </trkpt>
      <trkpt lat="42.69505" lon="1.65308">
        <ele>1387</ele>
        <time>2018-11-18T14:54:27.000Z</time>
      </trkpt>
      <trkpt lat="42.69506" lon="1.65308">
        <ele>1387</ele>
        <time>2018-11-18T14:54:29.000Z</time>
      </trkpt>
      <trkpt lat="42.69506" lon="1.65309">
        <ele>1387</ele>
        <time>2018-11-18T14:54:31.000Z</time>
      </trkpt>
      <trkpt lat="42.69505" lon="1.65309">
        <ele>1387</ele>
        <time>2018-11-18T14:54:33.000Z</time>
      </trkpt>
      <trkpt lat="42.69504" lon="1.65309">
        <ele>1387</ele>
        <time>2018-11-18T14:54:35.000Z</time>
      </trkpt>
      <trkpt lat="42.69503" lon="1.65308">
        <ele>1388</ele>
        <time>2018-11-18T14:54:37.000Z</time>
      </trkpt>
      <trkpt lat="42.69502" lon="1.65308">
        <ele>1388</ele>
        <time>2018-11-18T14:54:39.000Z</time>
      </trkpt>
      <trkpt lat="42.69501" lon="1.65307">
        <ele>1388</ele>
        <time>2018-11-18T14:54:41.000Z</time>
      </trkpt>
      <trkpt lat="42.695" lon="1.65304">
        <ele>1388</ele>
        <time>2018-11-18T14:54:43.000Z</time>
      </trkpt>
      <trkpt lat="42.69499" lon="1.65303">
        <ele>1389</ele>
        <time>2018-11-18T14:54:45.000Z</time>
      </trkpt>
      <trkpt lat="42.69498" lon="1.65303">
        <ele>1389</ele>
        <time>2018-11-18T14:54:47.000Z</time>
      </trkpt>
      <trkpt lat="42.69497" lon="1.65302">
        <ele>1389</ele>
        <time>2018-11-18T14:54:49.000Z</time>
      </trkpt>
      <trkpt lat="42.69496" lon="1.65302">
        <ele>1389</ele>
        <time>2018-11-18T14:54:51.000Z</time>
      </trkpt>
      <trkpt lat="42.69494" lon="1.65301">
        <ele>1389</ele>
        <time>2018-11-18T14:54:53.000Z</time>
      </trkpt>
      <trkpt lat="42.69492" lon="1.653">
        <ele>1390</ele>
        <time>2018-11-18T14:54:55.000Z</time>
      </trkpt>
      <trkpt lat="42.69492" lon="1.65299">
        <ele>1390</ele>
        <time>2018-11-18T14:54:57.000Z</time>
      </trkpt>
      <trkpt lat="42.69492" lon="1.65299">
        <ele>1390</ele>
        <time>2018-11-18T14:54:59.000Z</time>
      </trkpt>
      <trkpt lat="42.69494" lon="1.65298">
        <ele>1390</ele>
        <time>2018-11-18T14:55:01.000Z</time>
      </trkpt>
      <trkpt lat="42.69495" lon="1.65298">
        <ele>1390</ele>
        <time>2018-11-18T14:55:03.000Z</time>
      </trkpt>
      <trkpt lat="42.69495" lon="1.65297">
        <ele>1390</ele>
        <time>2018-11-18T14:55:05.000Z</time>
      </trkpt>
      <trkpt lat="42.69496" lon="1.65298">
        <ele>1390</ele>
        <time>2018-11-18T14:55:07.000Z</time>
      </trkpt>
      <trkpt lat="42.69496" lon="1.65299">
        <ele>1390</ele>
        <time>2018-11-18T14:55:09.000Z</time>
      </trkpt>
      <trkpt lat="42.69497" lon="1.65299">
        <ele>1389</ele>
        <time>2018-11-18T14:55:11.000Z</time>
      </trkpt>
      <trkpt lat="42.69498" lon="1.653">
        <ele>1389</ele>
        <time>2018-11-18T14:55:13.000Z</time>
      </trkpt>
      <trkpt lat="42.69499" lon="1.653">
        <ele>1389</ele>
        <time>2018-11-18T14:55:15.000Z</time>
      </trkpt>
      <trkpt lat="42.695" lon="1.65301">
        <ele>1389</ele>
        <time>2018-11-18T14:55:17.000Z</time>
      </trkpt>
      <trkpt lat="42.695" lon="1.65301">
        <ele>1389</ele>
        <time>2018-11-18T14:55:19.000Z</time>
      </trkpt>
      <trkpt lat="42.695" lon="1.65302">
        <ele>1389</ele>
        <time>2018-11-18T14:55:21.000Z</time>
      </trkpt>
      <trkpt lat="42.69501" lon="1.65302">
        <ele>1389</ele>
        <time>2018-11-18T14:55:23.000Z</time>
      </trkpt>
      <trkpt lat="42.695" lon="1.65302">
        <ele>1389</ele>
        <time>2018-11-18T14:55:25.000Z</time>
      </trkpt>
      <trkpt lat="42.695" lon="1.65302">
        <ele>1389</ele>
        <time>2018-11-18T14:55:27.000Z</time>
      </trkpt>
      <trkpt lat="42.695" lon="1.65302">
        <ele>1389</ele>
        <time>2018-11-18T14:55:29.000Z</time>
      </trkpt>
      <trkpt lat="42.695" lon="1.65302">
        <ele>1389</ele>
        <time>2018-11-18T14:55:31.000Z</time>
      </trkpt>
      <trkpt lat="42.695" lon="1.65302">
        <ele>1389</ele>
        <time>2018-11-18T14:55:33.000Z</time>
      </trkpt>
      <trkpt lat="42.69499" lon="1.65299">
        <ele>1389</ele>
        <time>2018-11-18T14:55:35.000Z</time>
      </trkpt>
      <trkpt lat="42.69498" lon="1.65297">
        <ele>1389</ele>
        <time>2018-11-18T14:55:37.000Z</time>
      </trkpt>
      <trkpt lat="42.69496" lon="1.65296">
        <ele>1390</ele>
        <time>2018-11-18T14:55:39.000Z</time>
      </trkpt>
      <trkpt lat="42.69494" lon="1.65296">
        <ele>1390</ele>
        <time>2018-11-18T14:55:41.000Z</time>
      </trkpt>
      <trkpt lat="42.69493" lon="1.65296">
        <ele>1390</ele>
        <time>2018-11-18T14:55:43.000Z</time>
      </trkpt>
      <trkpt lat="42.69492" lon="1.65296">
        <ele>1390</ele>
        <time>2018-11-18T14:55:45.000Z</time>
      </trkpt>
      <trkpt lat="42.69491" lon="1.65296">
        <ele>1390</ele>
        <time>2018-11-18T14:55:47.000Z</time>
      </trkpt>
      <trkpt lat="42.69491" lon="1.65296">
        <ele>1390</ele>
        <time>2018-11-18T14:55:49.000Z</time>
      </trkpt>
      <trkpt lat="42.69491" lon="1.65296">
        <ele>1390</ele>
        <time>2018-11-18T14:55:51.000Z</time>
      </trkpt>
      <trkpt lat="42.69491" lon="1.65296">
        <ele>1390</ele>
        <time>2018-11-18T14:55:53.000Z</time>
      </trkpt>
      <trkpt lat="42.6949" lon="1.65295">
        <ele>1391</ele>
        <time>2018-11-18T14:55:55.000Z</time>
      </trkpt>
      <trkpt lat="42.6949" lon="1.65293">
        <ele>1391</ele>
        <time>2018-11-18T14:55:57.000Z</time>
      </trkpt>
      <trkpt lat="42.69489" lon="1.65291">
        <ele>1391</ele>
        <time>2018-11-18T14:55:59.000Z</time>
      </trkpt>
      <trkpt lat="42.69489" lon="1.65292">
        <ele>1391</ele>
        <time>2018-11-18T14:56:01.000Z</time>
      </trkpt>
      <trkpt lat="42.69489" lon="1.65292">
        <ele>1391</ele>
        <time>2018-11-18T14:56:03.000Z</time>
      </trkpt>
      <trkpt lat="42.69489" lon="1.65292">
        <ele>1391</ele>
        <time>2018-11-18T14:56:05.000Z</time>
      </trkpt>
      <trkpt lat="42.6949" lon="1.65296">
        <ele>1390</ele>
        <time>2018-11-18T14:56:07.000Z</time>
      </trkpt>
      <trkpt lat="42.69492" lon="1.65302">
        <ele>1389</ele>
        <time>2018-11-18T14:56:09.000Z</time>
      </trkpt>
      <trkpt lat="42.69493" lon="1.65305">
        <ele>1389</ele>
        <time>2018-11-18T14:56:11.000Z</time>
      </trkpt>
      <trkpt lat="42.69495" lon="1.65309">
        <ele>1388</ele>
        <time>2018-11-18T14:56:13.000Z</time>
      </trkpt>
      <trkpt lat="42.69497" lon="1.65313">
        <ele>1387</ele>
        <time>2018-11-18T14:56:15.000Z</time>
      </trkpt>
      <trkpt lat="42.695" lon="1.65317">
        <ele>1387</ele>
        <time>2018-11-18T14:56:17.000Z</time>
      </trkpt>
      <trkpt lat="42.69502" lon="1.65318">
        <ele>1387</ele>
        <time>2018-11-18T14:56:19.000Z</time>
      </trkpt>
      <trkpt lat="42.69503" lon="1.65319">
        <ele>1386</ele>
        <time>2018-11-18T14:56:21.000Z</time>
      </trkpt>
      <trkpt lat="42.69505" lon="1.65319">
        <ele>1386</ele>
        <time>2018-11-18T14:56:23.000Z</time>
      </trkpt>
      <trkpt lat="42.69505" lon="1.65319">
        <ele>1386</ele>
        <time>2018-11-18T14:56:25.000Z</time>
      </trkpt>
      <trkpt lat="42.69507" lon="1.6532">
        <ele>1386</ele>
        <time>2018-11-18T14:56:27.000Z</time>
      </trkpt>
      <trkpt lat="42.69508" lon="1.6532">
        <ele>1386</ele>
        <time>2018-11-18T14:56:29.000Z</time>
      </trkpt>
      <trkpt lat="42.69509" lon="1.65319">
        <ele>1386</ele>
        <time>2018-11-18T14:56:31.000Z</time>
      </trkpt>
      <trkpt lat="42.69509" lon="1.65319">
        <ele>1386</ele>
        <time>2018-11-18T14:56:33.000Z</time>
      </trkpt>
      <trkpt lat="42.69509" lon="1.65318">
        <ele>1386</ele>
        <time>2018-11-18T14:56:35.000Z</time>
      </trkpt>
      <trkpt lat="42.69509" lon="1.65317">
        <ele>1386</ele>
        <time>2018-11-18T14:56:37.000Z</time>
      </trkpt>
      <trkpt lat="42.69508" lon="1.65316">
        <ele>1386</ele>
        <time>2018-11-18T14:56:39.000Z</time>
      </trkpt>
      <trkpt lat="42.69506" lon="1.65315">
        <ele>1386</ele>
        <time>2018-11-18T14:56:41.000Z</time>
      </trkpt>
      <trkpt lat="42.69505" lon="1.65313">
        <ele>1387</ele>
        <time>2018-11-18T14:56:43.000Z</time>
      </trkpt>
      <trkpt lat="42.69505" lon="1.65312">
        <ele>1387</ele>
        <time>2018-11-18T14:56:45.000Z</time>
      </trkpt>
      <trkpt lat="42.69504" lon="1.6531">
        <ele>1387</ele>
        <time>2018-11-18T14:56:47.000Z</time>
      </trkpt>
      <trkpt lat="42.69503" lon="1.65309">
        <ele>1387</ele>
        <time>2018-11-18T14:56:49.000Z</time>
      </trkpt>
      <trkpt lat="42.69503" lon="1.65307">
        <ele>1388</ele>
        <time>2018-11-18T14:56:51.000Z</time>
      </trkpt>
      <trkpt lat="42.69503" lon="1.65307">
        <ele>1388</ele>
        <time>2018-11-18T14:56:53.000Z</time>
      </trkpt>
      <trkpt lat="42.69502" lon="1.65307">
        <ele>1388</ele>
        <time>2018-11-18T14:56:55.000Z</time>
      </trkpt>
      <trkpt lat="42.69501" lon="1.65306">
        <ele>1388</ele>
        <time>2018-11-18T14:56:57.000Z</time>
      </trkpt>
      <trkpt lat="42.69499" lon="1.65306">
        <ele>1388</ele>
        <time>2018-11-18T14:56:59.000Z</time>
      </trkpt>
      <trkpt lat="42.69499" lon="1.65306">
        <ele>1388</ele>
        <time>2018-11-18T14:57:01.000Z</time>
      </trkpt>
      <trkpt lat="42.695" lon="1.65306">
        <ele>1388</ele>
        <time>2018-11-18T14:57:03.000Z</time>
      </trkpt>
      <trkpt lat="42.695" lon="1.65307">
        <ele>1388</ele>
        <time>2018-11-18T14:57:05.000Z</time>
      </trkpt>
      <trkpt lat="42.695" lon="1.65305">
        <ele>1388</ele>
        <time>2018-11-18T14:57:07.000Z</time>
      </trkpt>
      <trkpt lat="42.695" lon="1.65303">
        <ele>1389</ele>
        <time>2018-11-18T14:57:09.000Z</time>
      </trkpt>
      <trkpt lat="42.695" lon="1.65302">
        <ele>1389</ele>
        <time>2018-11-18T14:57:11.000Z</time>
      </trkpt>
      <trkpt lat="42.69501" lon="1.65302">
        <ele>1389</ele>
        <time>2018-11-18T14:57:13.000Z</time>
      </trkpt>
      <trkpt lat="42.69501" lon="1.65303">
        <ele>1388</ele>
        <time>2018-11-18T14:57:15.000Z</time>
      </trkpt>
      <trkpt lat="42.695" lon="1.65304">
        <ele>1388</ele>
        <time>2018-11-18T14:57:17.000Z</time>
      </trkpt>
      <trkpt lat="42.695" lon="1.65304">
        <ele>1388</ele>
        <time>2018-11-18T14:57:19.000Z</time>
      </trkpt>
      <trkpt lat="42.69499" lon="1.65303">
        <ele>1389</ele>
        <time>2018-11-18T14:57:21.000Z</time>
      </trkpt>
      <trkpt lat="42.69499" lon="1.65303">
        <ele>1389</ele>
        <time>2018-11-18T14:57:23.000Z</time>
      </trkpt>
      <trkpt lat="42.69499" lon="1.65303">
        <ele>1389</ele>
        <time>2018-11-18T14:57:25.000Z</time>
      </trkpt>
      <trkpt lat="42.69499" lon="1.65305">
        <ele>1388</ele>
        <time>2018-11-18T14:57:27.000Z</time>
      </trkpt>
      <trkpt lat="42.695" lon="1.65306">
        <ele>1388</ele>
        <time>2018-11-18T14:57:29.000Z</time>
      </trkpt>
      <trkpt lat="42.69499" lon="1.65307">
        <ele>1388</ele>
        <time>2018-11-18T14:57:31.000Z</time>
      </trkpt>
      <trkpt lat="42.695" lon="1.65307">
        <ele>1388</ele>
        <time>2018-11-18T14:57:33.000Z</time>
      </trkpt>
      <trkpt lat="42.69501" lon="1.65308">
        <ele>1388</ele>
        <time>2018-11-18T14:57:35.000Z</time>
      </trkpt>
      <trkpt lat="42.69502" lon="1.65308">
        <ele>1388</ele>
        <time>2018-11-18T14:57:37.000Z</time>
      </trkpt>
      <trkpt lat="42.69502" lon="1.65308">
        <ele>1388</ele>
        <time>2018-11-18T14:57:39.000Z</time>
      </trkpt>
      <trkpt lat="42.69502" lon="1.65307">
        <ele>1388</ele>
        <time>2018-11-18T14:57:41.000Z</time>
      </trkpt>
      <trkpt lat="42.69503" lon="1.65308">
        <ele>1388</ele>
        <time>2018-11-18T14:57:43.000Z</time>
      </trkpt>
      <trkpt lat="42.69503" lon="1.65308">
        <ele>1388</ele>
        <time>2018-11-18T14:57:45.000Z</time>
      </trkpt>
      <trkpt lat="42.69503" lon="1.65307">
        <ele>1388</ele>
        <time>2018-11-18T14:57:47.000Z</time>
      </trkpt>
      <trkpt lat="42.69503" lon="1.65306">
        <ele>1388</ele>
        <time>2018-11-18T14:57:49.000Z</time>
      </trkpt>
      <trkpt lat="42.69503" lon="1.65305">
        <ele>1388</ele>
        <time>2018-11-18T14:57:51.000Z</time>
      </trkpt>
      <trkpt lat="42.69504" lon="1.65304">
        <ele>1388</ele>
        <time>2018-11-18T14:57:53.000Z</time>
      </trkpt>
      <trkpt lat="42.69503" lon="1.65304">
        <ele>1388</ele>
        <time>2018-11-18T14:57:55.000Z</time>
      </trkpt>
      <trkpt lat="42.69503" lon="1.65305">
        <ele>1388</ele>
        <time>2018-11-18T14:57:57.000Z</time>
      </trkpt>
      <trkpt lat="42.69504" lon="1.65306">
        <ele>1388</ele>
        <time>2018-11-18T14:57:59.000Z</time>
      </trkpt>
      <trkpt lat="42.69505" lon="1.65306">
        <ele>1388</ele>
        <time>2018-11-18T14:58:01.000Z</time>
      </trkpt>
      <trkpt lat="42.69506" lon="1.65307">
        <ele>1387</ele>
        <time>2018-11-18T14:58:03.000Z</time>
      </trkpt>
      <trkpt lat="42.69507" lon="1.65308">
        <ele>1387</ele>
        <time>2018-11-18T14:58:05.000Z</time>
      </trkpt>
      <trkpt lat="42.69507" lon="1.65309">
        <ele>1387</ele>
        <time>2018-11-18T14:58:07.000Z</time>
      </trkpt>
      <trkpt lat="42.69509" lon="1.65313">
        <ele>1387</ele>
        <time>2018-11-18T14:58:09.000Z</time>
      </trkpt>
      <trkpt lat="42.69512" lon="1.65315">
        <ele>1386</ele>
        <time>2018-11-18T14:58:11.000Z</time>
      </trkpt>
      <trkpt lat="42.69515" lon="1.65317">
        <ele>1386</ele>
        <time>2018-11-18T14:58:13.000Z</time>
      </trkpt>
      <trkpt lat="42.69517" lon="1.65321">
        <ele>1385</ele>
        <time>2018-11-18T14:58:15.000Z</time>
      </trkpt>
      <trkpt lat="42.6952" lon="1.65323">
        <ele>1385</ele>
        <time>2018-11-18T14:58:17.000Z</time>
      </trkpt>
      <trkpt lat="42.69521" lon="1.65323">
        <ele>1385</ele>
        <time>2018-11-18T14:58:19.000Z</time>
      </trkpt>
      <trkpt lat="42.69522" lon="1.65324">
        <ele>1385</ele>
        <time>2018-11-18T14:58:21.000Z</time>
      </trkpt>
      <trkpt lat="42.69521" lon="1.65322">
        <ele>1385</ele>
        <time>2018-11-18T14:58:23.000Z</time>
      </trkpt>
      <trkpt lat="42.69523" lon="1.65324">
        <ele>1385</ele>
        <time>2018-11-18T14:58:25.000Z</time>
      </trkpt>
      <trkpt lat="42.69524" lon="1.65325">
        <ele>1385</ele>
        <time>2018-11-18T14:58:27.000Z</time>
      </trkpt>
      <trkpt lat="42.69525" lon="1.65327">
        <ele>1385</ele>
        <time>2018-11-18T14:58:29.000Z</time>
      </trkpt>
      <trkpt lat="42.69525" lon="1.6533">
        <ele>1385</ele>
        <time>2018-11-18T14:58:31.000Z</time>
      </trkpt>
      <trkpt lat="42.69524" lon="1.65329">
        <ele>1385</ele>
        <time>2018-11-18T14:58:33.000Z</time>
      </trkpt>
      <trkpt lat="42.69524" lon="1.65328">
        <ele>1385</ele>
        <time>2018-11-18T14:58:35.000Z</time>
      </trkpt>
      <trkpt lat="42.69525" lon="1.65331">
        <ele>1385</ele>
        <time>2018-11-18T14:58:37.000Z</time>
      </trkpt>
      <trkpt lat="42.69525" lon="1.65332">
        <ele>1385</ele>
        <time>2018-11-18T14:58:39.000Z</time>
      </trkpt>
      <trkpt lat="42.69525" lon="1.65334">
        <ele>1385</ele>
        <time>2018-11-18T14:58:41.000Z</time>
      </trkpt>
      <trkpt lat="42.69526" lon="1.65334">
        <ele>1385</ele>
        <time>2018-11-18T14:58:43.000Z</time>
      </trkpt>
      <trkpt lat="42.69526" lon="1.65333">
        <ele>1385</ele>
        <time>2018-11-18T14:58:45.000Z</time>
      </trkpt>
      <trkpt lat="42.69527" lon="1.65331">
        <ele>1385</ele>
        <time>2018-11-18T14:58:47.000Z</time>
      </trkpt>
      <trkpt lat="42.69527" lon="1.6533">
        <ele>1385</ele>
        <time>2018-11-18T14:58:49.000Z</time>
      </trkpt>
      <trkpt lat="42.69528" lon="1.65328">
        <ele>1385</ele>
        <time>2018-11-18T14:58:51.000Z</time>
      </trkpt>
      <trkpt lat="42.69528" lon="1.65329">
        <ele>1385</ele>
        <time>2018-11-18T14:58:53.000Z</time>
      </trkpt>
      <trkpt lat="42.6953" lon="1.65329">
        <ele>1385</ele>
        <time>2018-11-18T14:58:55.000Z</time>
      </trkpt>
      <trkpt lat="42.6953" lon="1.65328">
        <ele>1385</ele>
        <time>2018-11-18T14:58:57.000Z</time>
      </trkpt>
      <trkpt lat="42.69531" lon="1.65328">
        <ele>1384</ele>
        <time>2018-11-18T14:58:59.000Z</time>
      </trkpt>
      <trkpt lat="42.69532" lon="1.65327">
        <ele>1384</ele>
        <time>2018-11-18T14:59:01.000Z</time>
      </trkpt>
      <trkpt lat="42.69533" lon="1.65328">
        <ele>1384</ele>
        <time>2018-11-18T14:59:03.000Z</time>
      </trkpt>
      <trkpt lat="42.69534" lon="1.65327">
        <ele>1384</ele>
        <time>2018-11-18T14:59:05.000Z</time>
      </trkpt>
      <trkpt lat="42.69535" lon="1.65326">
        <ele>1384</ele>
        <time>2018-11-18T14:59:07.000Z</time>
      </trkpt>
      <trkpt lat="42.69535" lon="1.65327">
        <ele>1384</ele>
        <time>2018-11-18T14:59:09.000Z</time>
      </trkpt>
      <trkpt lat="42.69535" lon="1.65327">
        <ele>1384</ele>
        <time>2018-11-18T14:59:11.000Z</time>
      </trkpt>
      <trkpt lat="42.69536" lon="1.65328">
        <ele>1384</ele>
        <time>2018-11-18T14:59:13.000Z</time>
      </trkpt>
      <trkpt lat="42.69537" lon="1.65329">
        <ele>1384</ele>
        <time>2018-11-18T14:59:15.000Z</time>
      </trkpt>
      <trkpt lat="42.69538" lon="1.65328">
        <ele>1384</ele>
        <time>2018-11-18T14:59:17.000Z</time>
      </trkpt>
      <trkpt lat="42.6954" lon="1.65329">
        <ele>1384</ele>
        <time>2018-11-18T14:59:19.000Z</time>
      </trkpt>
      <trkpt lat="42.69542" lon="1.6533">
        <ele>1384</ele>
        <time>2018-11-18T14:59:21.000Z</time>
      </trkpt>
      <trkpt lat="42.69542" lon="1.65328">
        <ele>1384</ele>
        <time>2018-11-18T14:59:23.000Z</time>
      </trkpt>
      <trkpt lat="42.69542" lon="1.65326">
        <ele>1384</ele>
        <time>2018-11-18T14:59:25.000Z</time>
      </trkpt>
      <trkpt lat="42.69543" lon="1.65325">
        <ele>1384</ele>
        <time>2018-11-18T14:59:27.000Z</time>
      </trkpt>
      <trkpt lat="42.69544" lon="1.65324">
        <ele>1384</ele>
        <time>2018-11-18T14:59:29.000Z</time>
      </trkpt>
      <trkpt lat="42.69548" lon="1.6533">
        <ele>1384</ele>
        <time>2018-11-18T14:59:31.000Z</time>
      </trkpt>
      <trkpt lat="42.69552" lon="1.65335">
        <ele>1383</ele>
        <time>2018-11-18T14:59:33.000Z</time>
      </trkpt>
      <trkpt lat="42.69553" lon="1.65336">
        <ele>1383</ele>
        <time>2018-11-18T14:59:35.000Z</time>
      </trkpt>
      <trkpt lat="42.69554" lon="1.65336">
        <ele>1383</ele>
        <time>2018-11-18T14:59:37.000Z</time>
      </trkpt>
      <trkpt lat="42.69557" lon="1.6534">
        <ele>1383</ele>
        <time>2018-11-18T14:59:39.000Z</time>
      </trkpt>
      <trkpt lat="42.6956" lon="1.65344">
        <ele>1383</ele>
        <time>2018-11-18T14:59:41.000Z</time>
      </trkpt>
      <trkpt lat="42.69562" lon="1.65346">
        <ele>1383</ele>
        <time>2018-11-18T14:59:43.000Z</time>
      </trkpt>
      <trkpt lat="42.69563" lon="1.65348">
        <ele>1382</ele>
        <time>2018-11-18T14:59:45.000Z</time>
      </trkpt>
      <trkpt lat="42.69565" lon="1.65351">
        <ele>1382</ele>
        <time>2018-11-18T14:59:47.000Z</time>
      </trkpt>
      <trkpt lat="42.69566" lon="1.65355">
        <ele>1382</ele>
        <time>2018-11-18T14:59:49.000Z</time>
      </trkpt>
      <trkpt lat="42.69567" lon="1.65357">
        <ele>1382</ele>
        <time>2018-11-18T14:59:51.000Z</time>
      </trkpt>
      <trkpt lat="42.69567" lon="1.65358">
        <ele>1382</ele>
        <time>2018-11-18T14:59:53.000Z</time>
      </trkpt>
      <trkpt lat="42.69569" lon="1.65359">
        <ele>1382</ele>
        <time>2018-11-18T14:59:55.000Z</time>
      </trkpt>
      <trkpt lat="42.69571" lon="1.65361">
        <ele>1382</ele>
        <time>2018-11-18T14:59:57.000Z</time>
      </trkpt>
      <trkpt lat="42.69572" lon="1.6536">
        <ele>1382</ele>
        <time>2018-11-18T14:59:59.000Z</time>
      </trkpt>
      <trkpt lat="42.69572" lon="1.65361">
        <ele>1382</ele>
        <time>2018-11-18T15:00:01.000Z</time>
      </trkpt>
      <trkpt lat="42.69574" lon="1.65362">
        <ele>1382</ele>
        <time>2018-11-18T15:00:03.000Z</time>
      </trkpt>
      <trkpt lat="42.69575" lon="1.65363">
        <ele>1382</ele>
        <time>2018-11-18T15:00:05.000Z</time>
      </trkpt>
      <trkpt lat="42.69577" lon="1.65364">
        <ele>1381</ele>
        <time>2018-11-18T15:00:07.000Z</time>
      </trkpt>
      <trkpt lat="42.69578" lon="1.65365">
        <ele>1381</ele>
        <time>2018-11-18T15:00:09.000Z</time>
      </trkpt>
      <trkpt lat="42.69578" lon="1.65367">
        <ele>1381</ele>
        <time>2018-11-18T15:00:11.000Z</time>
      </trkpt>
      <trkpt lat="42.69579" lon="1.65369">
        <ele>1381</ele>
        <time>2018-11-18T15:00:13.000Z</time>
      </trkpt>
      <trkpt lat="42.6958" lon="1.65372">
        <ele>1381</ele>
        <time>2018-11-18T15:00:15.000Z</time>
      </trkpt>
      <trkpt lat="42.69582" lon="1.65375">
        <ele>1381</ele>
        <time>2018-11-18T15:00:17.000Z</time>
      </trkpt>
      <trkpt lat="42.69583" lon="1.65378">
        <ele>1381</ele>
        <time>2018-11-18T15:00:19.000Z</time>
      </trkpt>
      <trkpt lat="42.69584" lon="1.65382">
        <ele>1381</ele>
        <time>2018-11-18T15:00:21.000Z</time>
      </trkpt>
      <trkpt lat="42.69586" lon="1.65383">
        <ele>1381</ele>
        <time>2018-11-18T15:00:23.000Z</time>
      </trkpt>
      <trkpt lat="42.69587" lon="1.65384">
        <ele>1380</ele>
        <time>2018-11-18T15:00:25.000Z</time>
      </trkpt>
      <trkpt lat="42.69589" lon="1.65387">
        <ele>1380</ele>
        <time>2018-11-18T15:00:27.000Z</time>
      </trkpt>
      <trkpt lat="42.6959" lon="1.65389">
        <ele>1380</ele>
        <time>2018-11-18T15:00:29.000Z</time>
      </trkpt>
      <trkpt lat="42.6959" lon="1.65391">
        <ele>1380</ele>
        <time>2018-11-18T15:00:31.000Z</time>
      </trkpt>
      <trkpt lat="42.69591" lon="1.65392">
        <ele>1379</ele>
        <time>2018-11-18T15:00:33.000Z</time>
      </trkpt>
      <trkpt lat="42.69593" lon="1.65393">
        <ele>1379</ele>
        <time>2018-11-18T15:00:35.000Z</time>
      </trkpt>
      <trkpt lat="42.69593" lon="1.65393">
        <ele>1379</ele>
        <time>2018-11-18T15:00:37.000Z</time>
      </trkpt>
      <trkpt lat="42.69592" lon="1.65391">
        <ele>1379</ele>
        <time>2018-11-18T15:00:39.000Z</time>
      </trkpt>
      <trkpt lat="42.69593" lon="1.6539">
        <ele>1379</ele>
        <time>2018-11-18T15:00:41.000Z</time>
      </trkpt>
      <trkpt lat="42.69593" lon="1.65389">
        <ele>1379</ele>
        <time>2018-11-18T15:00:43.000Z</time>
      </trkpt>
      <trkpt lat="42.69593" lon="1.65389">
        <ele>1379</ele>
        <time>2018-11-18T15:00:45.000Z</time>
      </trkpt>
      <trkpt lat="42.69593" lon="1.6539">
        <ele>1379</ele>
        <time>2018-11-18T15:00:47.000Z</time>
      </trkpt>
      <trkpt lat="42.69593" lon="1.65389">
        <ele>1379</ele>
        <time>2018-11-18T15:00:49.000Z</time>
      </trkpt>
      <trkpt lat="42.69594" lon="1.6539">
        <ele>1379</ele>
        <time>2018-11-18T15:00:51.000Z</time>
      </trkpt>
      <trkpt lat="42.69595" lon="1.65391">
        <ele>1379</ele>
        <time>2018-11-18T15:00:53.000Z</time>
      </trkpt>
      <trkpt lat="42.69595" lon="1.65391">
        <ele>1379</ele>
        <time>2018-11-18T15:00:55.000Z</time>
      </trkpt>
      <trkpt lat="42.69594" lon="1.65391">
        <ele>1379</ele>
        <time>2018-11-18T15:00:57.000Z</time>
      </trkpt>
      <trkpt lat="42.69594" lon="1.65391">
        <ele>1379</ele>
        <time>2018-11-18T15:00:59.000Z</time>
      </trkpt>
      <trkpt lat="42.69594" lon="1.65391">
        <ele>1379</ele>
        <time>2018-11-18T15:01:01.000Z</time>
      </trkpt>
      <trkpt lat="42.69594" lon="1.6539">
        <ele>1379</ele>
        <time>2018-11-18T15:01:03.000Z</time>
      </trkpt>
      <trkpt lat="42.69595" lon="1.65389">
        <ele>1379</ele>
        <time>2018-11-18T15:01:05.000Z</time>
      </trkpt>
      <trkpt lat="42.69595" lon="1.65389">
        <ele>1379</ele>
        <time>2018-11-18T15:01:07.000Z</time>
      </trkpt>
      <trkpt lat="42.69595" lon="1.65389">
        <ele>1379</ele>
        <time>2018-11-18T15:01:09.000Z</time>
      </trkpt>
      <trkpt lat="42.69595" lon="1.65389">
        <ele>1379</ele>
        <time>2018-11-18T15:01:11.000Z</time>
      </trkpt>
      <trkpt lat="42.69596" lon="1.65389">
        <ele>1379</ele>
        <time>2018-11-18T15:01:13.000Z</time>
      </trkpt>
      <trkpt lat="42.69598" lon="1.65393">
        <ele>1378</ele>
        <time>2018-11-18T15:01:15.000Z</time>
      </trkpt>
      <trkpt lat="42.696" lon="1.65393">
        <ele>1378</ele>
        <time>2018-11-18T15:01:17.000Z</time>
      </trkpt>
      <trkpt lat="42.69601" lon="1.65394">
        <ele>1378</ele>
        <time>2018-11-18T15:01:19.000Z</time>
      </trkpt>
      <trkpt lat="42.69603" lon="1.65397">
        <ele>1377</ele>
        <time>2018-11-18T15:01:21.000Z</time>
      </trkpt>
      <trkpt lat="42.69603" lon="1.65397">
        <ele>1377</ele>
        <time>2018-11-18T15:01:23.000Z</time>
      </trkpt>
      <trkpt lat="42.69604" lon="1.65396">
        <ele>1377</ele>
        <time>2018-11-18T15:01:25.000Z</time>
      </trkpt>
      <trkpt lat="42.69605" lon="1.65396">
        <ele>1377</ele>
        <time>2018-11-18T15:01:27.000Z</time>
      </trkpt>
      <trkpt lat="42.69607" lon="1.65398">
        <ele>1376</ele>
        <time>2018-11-18T15:01:29.000Z</time>
      </trkpt>
      <trkpt lat="42.69608" lon="1.65397">
        <ele>1376</ele>
        <time>2018-11-18T15:01:31.000Z</time>
      </trkpt>
      <trkpt lat="42.69609" lon="1.65398">
        <ele>1376</ele>
        <time>2018-11-18T15:01:33.000Z</time>
      </trkpt>
      <trkpt lat="42.69609" lon="1.654">
        <ele>1376</ele>
        <time>2018-11-18T15:01:35.000Z</time>
      </trkpt>
      <trkpt lat="42.6961" lon="1.654">
        <ele>1376</ele>
        <time>2018-11-18T15:01:37.000Z</time>
      </trkpt>
      <trkpt lat="42.6961" lon="1.65402">
        <ele>1376</ele>
        <time>2018-11-18T15:01:39.000Z</time>
      </trkpt>
      <trkpt lat="42.6961" lon="1.65401">
        <ele>1376</ele>
        <time>2018-11-18T15:01:41.000Z</time>
      </trkpt>
      <trkpt lat="42.69611" lon="1.65402">
        <ele>1376</ele>
        <time>2018-11-18T15:01:43.000Z</time>
      </trkpt>
      <trkpt lat="42.69611" lon="1.65401">
        <ele>1376</ele>
        <time>2018-11-18T15:01:45.000Z</time>
      </trkpt>
      <trkpt lat="42.69612" lon="1.65402">
        <ele>1375</ele>
        <time>2018-11-18T15:01:47.000Z</time>
      </trkpt>
      <trkpt lat="42.69613" lon="1.65403">
        <ele>1375</ele>
        <time>2018-11-18T15:01:49.000Z</time>
      </trkpt>
      <trkpt lat="42.69614" lon="1.65404">
        <ele>1375</ele>
        <time>2018-11-18T15:01:51.000Z</time>
      </trkpt>
      <trkpt lat="42.69615" lon="1.65402">
        <ele>1375</ele>
        <time>2018-11-18T15:01:53.000Z</time>
      </trkpt>
      <trkpt lat="42.69615" lon="1.65398">
        <ele>1375</ele>
        <time>2018-11-18T15:01:55.000Z</time>
      </trkpt>
      <trkpt lat="42.69617" lon="1.65396">
        <ele>1375</ele>
        <time>2018-11-18T15:01:57.000Z</time>
      </trkpt>
      <trkpt lat="42.69618" lon="1.65393">
        <ele>1375</ele>
        <time>2018-11-18T15:01:59.000Z</time>
      </trkpt>
      <trkpt lat="42.69618" lon="1.6539">
        <ele>1375</ele>
        <time>2018-11-18T15:02:01.000Z</time>
      </trkpt>
      <trkpt lat="42.69619" lon="1.65388">
        <ele>1375</ele>
        <time>2018-11-18T15:02:03.000Z</time>
      </trkpt>
      <trkpt lat="42.6962" lon="1.65386">
        <ele>1374</ele>
        <time>2018-11-18T15:02:05.000Z</time>
      </trkpt>
      <trkpt lat="42.6962" lon="1.65384">
        <ele>1374</ele>
        <time>2018-11-18T15:02:07.000Z</time>
      </trkpt>
      <trkpt lat="42.69621" lon="1.65381">
        <ele>1374</ele>
        <time>2018-11-18T15:02:09.000Z</time>
      </trkpt>
      <trkpt lat="42.69622" lon="1.65379">
        <ele>1374</ele>
        <time>2018-11-18T15:02:11.000Z</time>
      </trkpt>
      <trkpt lat="42.69623" lon="1.65377">
        <ele>1374</ele>
        <time>2018-11-18T15:02:13.000Z</time>
      </trkpt>
      <trkpt lat="42.69625" lon="1.65376">
        <ele>1374</ele>
        <time>2018-11-18T15:02:15.000Z</time>
      </trkpt>
      <trkpt lat="42.69626" lon="1.65374">
        <ele>1374</ele>
        <time>2018-11-18T15:02:17.000Z</time>
      </trkpt>
      <trkpt lat="42.69627" lon="1.65374">
        <ele>1373</ele>
        <time>2018-11-18T15:02:19.000Z</time>
      </trkpt>
      <trkpt lat="42.69628" lon="1.65372">
        <ele>1373</ele>
        <time>2018-11-18T15:02:21.000Z</time>
      </trkpt>
      <trkpt lat="42.69629" lon="1.65371">
        <ele>1373</ele>
        <time>2018-11-18T15:02:23.000Z</time>
      </trkpt>
      <trkpt lat="42.6963" lon="1.65369">
        <ele>1373</ele>
        <time>2018-11-18T15:02:25.000Z</time>
      </trkpt>
      <trkpt lat="42.69631" lon="1.65368">
        <ele>1373</ele>
        <time>2018-11-18T15:02:27.000Z</time>
      </trkpt>
      <trkpt lat="42.69632" lon="1.65367">
        <ele>1373</ele>
        <time>2018-11-18T15:02:29.000Z</time>
      </trkpt>
      <trkpt lat="42.69633" lon="1.65367">
        <ele>1372</ele>
        <time>2018-11-18T15:02:31.000Z</time>
      </trkpt>
      <trkpt lat="42.69634" lon="1.65366">
        <ele>1373</ele>
        <time>2018-11-18T15:02:33.000Z</time>
      </trkpt>
      <trkpt lat="42.69635" lon="1.65365">
        <ele>1374</ele>
        <time>2018-11-18T15:02:35.000Z</time>
      </trkpt>
      <trkpt lat="42.69636" lon="1.65365">
        <ele>1374</ele>
        <time>2018-11-18T15:02:37.000Z</time>
      </trkpt>
      <trkpt lat="42.69639" lon="1.65374">
        <ele>1371</ele>
        <time>2018-11-18T15:02:39.000Z</time>
      </trkpt>
      <trkpt lat="42.6964" lon="1.65373">
        <ele>1371</ele>
        <time>2018-11-18T15:02:41.000Z</time>
      </trkpt>
      <trkpt lat="42.69641" lon="1.65374">
        <ele>1371</ele>
        <time>2018-11-18T15:02:43.000Z</time>
      </trkpt>
      <trkpt lat="42.69643" lon="1.65382">
        <ele>1370</ele>
        <time>2018-11-18T15:02:45.000Z</time>
      </trkpt>
      <trkpt lat="42.69645" lon="1.65387">
        <ele>1370</ele>
        <time>2018-11-18T15:02:47.000Z</time>
      </trkpt>
      <trkpt lat="42.69648" lon="1.65389">
        <ele>1369</ele>
        <time>2018-11-18T15:02:49.000Z</time>
      </trkpt>
      <trkpt lat="42.69649" lon="1.6539">
        <ele>1369</ele>
        <time>2018-11-18T15:02:51.000Z</time>
      </trkpt>
      <trkpt lat="42.69652" lon="1.65391">
        <ele>1369</ele>
        <time>2018-11-18T15:02:53.000Z</time>
      </trkpt>
      <trkpt lat="42.69654" lon="1.65395">
        <ele>1368</ele>
        <time>2018-11-18T15:02:55.000Z</time>
      </trkpt>
      <trkpt lat="42.69657" lon="1.65401">
        <ele>1367</ele>
        <time>2018-11-18T15:02:57.000Z</time>
      </trkpt>
      <trkpt lat="42.69659" lon="1.65401">
        <ele>1367</ele>
        <time>2018-11-18T15:02:59.000Z</time>
      </trkpt>
      <trkpt lat="42.69662" lon="1.65403">
        <ele>1367</ele>
        <time>2018-11-18T15:03:01.000Z</time>
      </trkpt>
      <trkpt lat="42.69664" lon="1.65403">
        <ele>1366</ele>
        <time>2018-11-18T15:03:03.000Z</time>
      </trkpt>
      <trkpt lat="42.69666" lon="1.65403">
        <ele>1366</ele>
        <time>2018-11-18T15:03:05.000Z</time>
      </trkpt>
      <trkpt lat="42.69668" lon="1.65406">
        <ele>1366</ele>
        <time>2018-11-18T15:03:07.000Z</time>
      </trkpt>
      <trkpt lat="42.6967" lon="1.65406">
        <ele>1366</ele>
        <time>2018-11-18T15:03:09.000Z</time>
      </trkpt>
      <trkpt lat="42.69672" lon="1.6541">
        <ele>1365</ele>
        <time>2018-11-18T15:03:11.000Z</time>
      </trkpt>
      <trkpt lat="42.69675" lon="1.65415">
        <ele>1365</ele>
        <time>2018-11-18T15:03:13.000Z</time>
      </trkpt>
      <trkpt lat="42.69676" lon="1.65417">
        <ele>1365</ele>
        <time>2018-11-18T15:03:15.000Z</time>
      </trkpt>
      <trkpt lat="42.69677" lon="1.6542">
        <ele>1365</ele>
        <time>2018-11-18T15:03:17.000Z</time>
      </trkpt>
      <trkpt lat="42.69678" lon="1.65419">
        <ele>1365</ele>
        <time>2018-11-18T15:03:19.000Z</time>
      </trkpt>
      <trkpt lat="42.6968" lon="1.65423">
        <ele>1365</ele>
        <time>2018-11-18T15:03:21.000Z</time>
      </trkpt>
      <trkpt lat="42.69681" lon="1.65425">
        <ele>1365</ele>
        <time>2018-11-18T15:03:23.000Z</time>
      </trkpt>
      <trkpt lat="42.69681" lon="1.65422">
        <ele>1364</ele>
        <time>2018-11-18T15:03:25.000Z</time>
      </trkpt>
      <trkpt lat="42.69679" lon="1.65418">
        <ele>1364</ele>
        <time>2018-11-18T15:03:27.000Z</time>
      </trkpt>
      <trkpt lat="42.69678" lon="1.65418">
        <ele>1365</ele>
        <time>2018-11-18T15:03:29.000Z</time>
      </trkpt>
      <trkpt lat="42.69678" lon="1.65416">
        <ele>1364</ele>
        <time>2018-11-18T15:03:31.000Z</time>
      </trkpt>
      <trkpt lat="42.69679" lon="1.65414">
        <ele>1364</ele>
        <time>2018-11-18T15:03:33.000Z</time>
      </trkpt>
      <trkpt lat="42.69678" lon="1.65411">
        <ele>1364</ele>
        <time>2018-11-18T15:03:35.000Z</time>
      </trkpt>
      <trkpt lat="42.69679" lon="1.65408">
        <ele>1365</ele>
        <time>2018-11-18T15:03:37.000Z</time>
      </trkpt>
      <trkpt lat="42.69679" lon="1.65404">
        <ele>1366</ele>
        <time>2018-11-18T15:03:39.000Z</time>
      </trkpt>
      <trkpt lat="42.6968" lon="1.65401">
        <ele>1368</ele>
        <time>2018-11-18T15:03:41.000Z</time>
      </trkpt>
      <trkpt lat="42.69681" lon="1.65399">
        <ele>1369</ele>
        <time>2018-11-18T15:03:43.000Z</time>
      </trkpt>
      <trkpt lat="42.6968" lon="1.65398">
        <ele>1369</ele>
        <time>2018-11-18T15:03:45.000Z</time>
      </trkpt>
      <trkpt lat="42.69682" lon="1.65406">
        <ele>1366</ele>
        <time>2018-11-18T15:03:47.000Z</time>
      </trkpt>
      <trkpt lat="42.69682" lon="1.65406">
        <ele>1366</ele>
        <time>2018-11-18T15:03:49.000Z</time>
      </trkpt>
      <trkpt lat="42.69684" lon="1.65411">
        <ele>1365</ele>
        <time>2018-11-18T15:03:51.000Z</time>
      </trkpt>
      <trkpt lat="42.69683" lon="1.6541">
        <ele>1365</ele>
        <time>2018-11-18T15:03:53.000Z</time>
      </trkpt>
      <trkpt lat="42.69682" lon="1.65408">
        <ele>1365</ele>
        <time>2018-11-18T15:03:55.000Z</time>
      </trkpt>
      <trkpt lat="42.69682" lon="1.65406">
        <ele>1366</ele>
        <time>2018-11-18T15:03:57.000Z</time>
      </trkpt>
      <trkpt lat="42.69683" lon="1.65403">
        <ele>1367</ele>
        <time>2018-11-18T15:03:59.000Z</time>
      </trkpt>
      <trkpt lat="42.69684" lon="1.65402">
        <ele>1368</ele>
        <time>2018-11-18T15:04:01.000Z</time>
      </trkpt>
      <trkpt lat="42.69684" lon="1.65401">
        <ele>1369</ele>
        <time>2018-11-18T15:04:03.000Z</time>
      </trkpt>
      <trkpt lat="42.69685" lon="1.654">
        <ele>1369</ele>
        <time>2018-11-18T15:04:05.000Z</time>
      </trkpt>
      <trkpt lat="42.69686" lon="1.65401">
        <ele>1369</ele>
        <time>2018-11-18T15:04:07.000Z</time>
      </trkpt>
      <trkpt lat="42.69687" lon="1.65402">
        <ele>1369</ele>
        <time>2018-11-18T15:04:09.000Z</time>
      </trkpt>
      <trkpt lat="42.69688" lon="1.65402">
        <ele>1368</ele>
        <time>2018-11-18T15:04:11.000Z</time>
      </trkpt>
      <trkpt lat="42.69689" lon="1.65403">
        <ele>1368</ele>
        <time>2018-11-18T15:04:13.000Z</time>
      </trkpt>
      <trkpt lat="42.6969" lon="1.65403">
        <ele>1368</ele>
        <time>2018-11-18T15:04:15.000Z</time>
      </trkpt>
      <trkpt lat="42.6969" lon="1.65404">
        <ele>1368</ele>
        <time>2018-11-18T15:04:17.000Z</time>
      </trkpt>
      <trkpt lat="42.69691" lon="1.65403">
        <ele>1369</ele>
        <time>2018-11-18T15:04:19.000Z</time>
      </trkpt>
      <trkpt lat="42.69691" lon="1.65402">
        <ele>1369</ele>
        <time>2018-11-18T15:04:21.000Z</time>
      </trkpt>
      <trkpt lat="42.69692" lon="1.65403">
        <ele>1369</ele>
        <time>2018-11-18T15:04:23.000Z</time>
      </trkpt>
      <trkpt lat="42.69693" lon="1.65404">
        <ele>1369</ele>
        <time>2018-11-18T15:04:25.000Z</time>
      </trkpt>
      <trkpt lat="42.69694" lon="1.65404">
        <ele>1369</ele>
        <time>2018-11-18T15:04:27.000Z</time>
      </trkpt>
      <trkpt lat="42.69695" lon="1.65405">
        <ele>1369</ele>
        <time>2018-11-18T15:04:29.000Z</time>
      </trkpt>
      <trkpt lat="42.69695" lon="1.65406">
        <ele>1368</ele>
        <time>2018-11-18T15:04:31.000Z</time>
      </trkpt>
      <trkpt lat="42.69696" lon="1.65406">
        <ele>1368</ele>
        <time>2018-11-18T15:04:33.000Z</time>
      </trkpt>
      <trkpt lat="42.69697" lon="1.65408">
        <ele>1368</ele>
        <time>2018-11-18T15:04:35.000Z</time>
      </trkpt>
      <trkpt lat="42.69699" lon="1.6541">
        <ele>1368</ele>
        <time>2018-11-18T15:04:37.000Z</time>
      </trkpt>
      <trkpt lat="42.69701" lon="1.65414">
        <ele>1367</ele>
        <time>2018-11-18T15:04:39.000Z</time>
      </trkpt>
      <trkpt lat="42.69702" lon="1.65416">
        <ele>1366</ele>
        <time>2018-11-18T15:04:41.000Z</time>
      </trkpt>
      <trkpt lat="42.69702" lon="1.65419">
        <ele>1365</ele>
        <time>2018-11-18T15:04:43.000Z</time>
      </trkpt>
      <trkpt lat="42.69703" lon="1.65422">
        <ele>1364</ele>
        <time>2018-11-18T15:04:45.000Z</time>
      </trkpt>
      <trkpt lat="42.69703" lon="1.6542">
        <ele>1365</ele>
        <time>2018-11-18T15:04:47.000Z</time>
      </trkpt>
      <trkpt lat="42.69702" lon="1.65421">
        <ele>1364</ele>
        <time>2018-11-18T15:04:49.000Z</time>
      </trkpt>
      <trkpt lat="42.69703" lon="1.65423">
        <ele>1364</ele>
        <time>2018-11-18T15:04:51.000Z</time>
      </trkpt>
      <trkpt lat="42.69703" lon="1.65423">
        <ele>1364</ele>
        <time>2018-11-18T15:04:53.000Z</time>
      </trkpt>
      <trkpt lat="42.69704" lon="1.65424">
        <ele>1364</ele>
        <time>2018-11-18T15:04:55.000Z</time>
      </trkpt>
      <trkpt lat="42.69705" lon="1.65424">
        <ele>1364</ele>
        <time>2018-11-18T15:04:57.000Z</time>
      </trkpt>
      <trkpt lat="42.69706" lon="1.65425">
        <ele>1363</ele>
        <time>2018-11-18T15:04:59.000Z</time>
      </trkpt>
      <trkpt lat="42.69707" lon="1.65426">
        <ele>1364</ele>
        <time>2018-11-18T15:05:01.000Z</time>
      </trkpt>
      <trkpt lat="42.69708" lon="1.65427">
        <ele>1363</ele>
        <time>2018-11-18T15:05:03.000Z</time>
      </trkpt>
      <trkpt lat="42.6971" lon="1.65428">
        <ele>1363</ele>
        <time>2018-11-18T15:05:05.000Z</time>
      </trkpt>
      <trkpt lat="42.69713" lon="1.65434">
        <ele>1362</ele>
        <time>2018-11-18T15:05:07.000Z</time>
      </trkpt>
      <trkpt lat="42.69716" lon="1.65443">
        <ele>1359</ele>
        <time>2018-11-18T15:05:09.000Z</time>
      </trkpt>
      <trkpt lat="42.69717" lon="1.65444">
        <ele>1359</ele>
        <time>2018-11-18T15:05:11.000Z</time>
      </trkpt>
      <trkpt lat="42.69721" lon="1.65449">
        <ele>1358</ele>
        <time>2018-11-18T15:05:13.000Z</time>
      </trkpt>
      <trkpt lat="42.69723" lon="1.65453">
        <ele>1357</ele>
        <time>2018-11-18T15:05:15.000Z</time>
      </trkpt>
      <trkpt lat="42.69725" lon="1.65455">
        <ele>1357</ele>
        <time>2018-11-18T15:05:17.000Z</time>
      </trkpt>
      <trkpt lat="42.69728" lon="1.65457">
        <ele>1356</ele>
        <time>2018-11-18T15:05:19.000Z</time>
      </trkpt>
      <trkpt lat="42.69729" lon="1.65461">
        <ele>1355</ele>
        <time>2018-11-18T15:05:21.000Z</time>
      </trkpt>
      <trkpt lat="42.6973" lon="1.65464">
        <ele>1355</ele>
        <time>2018-11-18T15:05:23.000Z</time>
      </trkpt>
      <trkpt lat="42.69732" lon="1.65467">
        <ele>1355</ele>
        <time>2018-11-18T15:05:25.000Z</time>
      </trkpt>
      <trkpt lat="42.69735" lon="1.65468">
        <ele>1354</ele>
        <time>2018-11-18T15:05:27.000Z</time>
      </trkpt>
      <trkpt lat="42.69736" lon="1.65468">
        <ele>1354</ele>
        <time>2018-11-18T15:05:29.000Z</time>
      </trkpt>
      <trkpt lat="42.69736" lon="1.6547">
        <ele>1354</ele>
        <time>2018-11-18T15:05:31.000Z</time>
      </trkpt>
      <trkpt lat="42.69737" lon="1.6547">
        <ele>1354</ele>
        <time>2018-11-18T15:05:33.000Z</time>
      </trkpt>
      <trkpt lat="42.69738" lon="1.65473">
        <ele>1354</ele>
        <time>2018-11-18T15:05:35.000Z</time>
      </trkpt>
      <trkpt lat="42.69739" lon="1.65473">
        <ele>1354</ele>
        <time>2018-11-18T15:05:37.000Z</time>
      </trkpt>
      <trkpt lat="42.6974" lon="1.65475">
        <ele>1354</ele>
        <time>2018-11-18T15:05:39.000Z</time>
      </trkpt>
      <trkpt lat="42.69741" lon="1.65475">
        <ele>1353</ele>
        <time>2018-11-18T15:05:41.000Z</time>
      </trkpt>
      <trkpt lat="42.69742" lon="1.65476">
        <ele>1353</ele>
        <time>2018-11-18T15:05:43.000Z</time>
      </trkpt>
      <trkpt lat="42.69743" lon="1.65479">
        <ele>1353</ele>
        <time>2018-11-18T15:05:45.000Z</time>
      </trkpt>
      <trkpt lat="42.69745" lon="1.65481">
        <ele>1353</ele>
        <time>2018-11-18T15:05:47.000Z</time>
      </trkpt>
      <trkpt lat="42.69748" lon="1.65481">
        <ele>1352</ele>
        <time>2018-11-18T15:05:49.000Z</time>
      </trkpt>
      <trkpt lat="42.69749" lon="1.65481">
        <ele>1352</ele>
        <time>2018-11-18T15:05:51.000Z</time>
      </trkpt>
      <trkpt lat="42.69751" lon="1.6548">
        <ele>1353</ele>
        <time>2018-11-18T15:05:53.000Z</time>
      </trkpt>
      <trkpt lat="42.69752" lon="1.65479">
        <ele>1353</ele>
        <time>2018-11-18T15:05:55.000Z</time>
      </trkpt>
      <trkpt lat="42.69751" lon="1.65479">
        <ele>1353</ele>
        <time>2018-11-18T15:05:57.000Z</time>
      </trkpt>
      <trkpt lat="42.69752" lon="1.6548">
        <ele>1353</ele>
        <time>2018-11-18T15:05:59.000Z</time>
      </trkpt>
      <trkpt lat="42.69752" lon="1.6548">
        <ele>1353</ele>
        <time>2018-11-18T15:06:01.000Z</time>
      </trkpt>
      <trkpt lat="42.69752" lon="1.6548">
        <ele>1353</ele>
        <time>2018-11-18T15:06:03.000Z</time>
      </trkpt>
      <trkpt lat="42.69754" lon="1.65481">
        <ele>1353</ele>
        <time>2018-11-18T15:06:05.000Z</time>
      </trkpt>
      <trkpt lat="42.69754" lon="1.65482">
        <ele>1353</ele>
        <time>2018-11-18T15:06:07.000Z</time>
      </trkpt>
      <trkpt lat="42.69755" lon="1.65483">
        <ele>1352</ele>
        <time>2018-11-18T15:06:09.000Z</time>
      </trkpt>
      <trkpt lat="42.69757" lon="1.65497">
        <ele>1352</ele>
        <time>2018-11-18T15:06:11.000Z</time>
      </trkpt>
      <trkpt lat="42.69758" lon="1.65504">
        <ele>1353</ele>
        <time>2018-11-18T15:06:13.000Z</time>
      </trkpt>
      <trkpt lat="42.69758" lon="1.65507">
        <ele>1353</ele>
        <time>2018-11-18T15:06:15.000Z</time>
      </trkpt>
      <trkpt lat="42.69758" lon="1.65508">
        <ele>1353</ele>
        <time>2018-11-18T15:06:17.000Z</time>
      </trkpt>
      <trkpt lat="42.69757" lon="1.65513">
        <ele>1353</ele>
        <time>2018-11-18T15:06:19.000Z</time>
      </trkpt>
      <trkpt lat="42.69757" lon="1.65513">
        <ele>1353</ele>
        <time>2018-11-18T15:06:21.000Z</time>
      </trkpt>
      <trkpt lat="42.69754" lon="1.65506">
        <ele>1353</ele>
        <time>2018-11-18T15:06:23.000Z</time>
      </trkpt>
      <trkpt lat="42.69753" lon="1.655">
        <ele>1352</ele>
        <time>2018-11-18T15:06:25.000Z</time>
      </trkpt>
      <trkpt lat="42.69754" lon="1.65496">
        <ele>1352</ele>
        <time>2018-11-18T15:06:27.000Z</time>
      </trkpt>
      <trkpt lat="42.69756" lon="1.65496">
        <ele>1352</ele>
        <time>2018-11-18T15:06:29.000Z</time>
      </trkpt>
      <trkpt lat="42.69757" lon="1.65496">
        <ele>1352</ele>
        <time>2018-11-18T15:06:31.000Z</time>
      </trkpt>
      <trkpt lat="42.69758" lon="1.65498">
        <ele>1352</ele>
        <time>2018-11-18T15:06:33.000Z</time>
      </trkpt>
      <trkpt lat="42.6976" lon="1.65496">
        <ele>1352</ele>
        <time>2018-11-18T15:06:35.000Z</time>
      </trkpt>
      <trkpt lat="42.69761" lon="1.65497">
        <ele>1352</ele>
        <time>2018-11-18T15:06:37.000Z</time>
      </trkpt>
      <trkpt lat="42.69761" lon="1.65496">
        <ele>1352</ele>
        <time>2018-11-18T15:06:39.000Z</time>
      </trkpt>
      <trkpt lat="42.69761" lon="1.65495">
        <ele>1352</ele>
        <time>2018-11-18T15:06:41.000Z</time>
      </trkpt>
      <trkpt lat="42.69762" lon="1.65494">
        <ele>1352</ele>
        <time>2018-11-18T15:06:43.000Z</time>
      </trkpt>
      <trkpt lat="42.69762" lon="1.65493">
        <ele>1352</ele>
        <time>2018-11-18T15:06:45.000Z</time>
      </trkpt>
      <trkpt lat="42.69761" lon="1.65491">
        <ele>1352</ele>
        <time>2018-11-18T15:06:47.000Z</time>
      </trkpt>
      <trkpt lat="42.6976" lon="1.6549">
        <ele>1352</ele>
        <time>2018-11-18T15:06:49.000Z</time>
      </trkpt>
      <trkpt lat="42.69759" lon="1.65489">
        <ele>1352</ele>
        <time>2018-11-18T15:06:51.000Z</time>
      </trkpt>
      <trkpt lat="42.6976" lon="1.65489">
        <ele>1352</ele>
        <time>2018-11-18T15:06:53.000Z</time>
      </trkpt>
      <trkpt lat="42.6976" lon="1.65489">
        <ele>1352</ele>
        <time>2018-11-18T15:06:55.000Z</time>
      </trkpt>
      <trkpt lat="42.69761" lon="1.65489">
        <ele>1353</ele>
        <time>2018-11-18T15:06:57.000Z</time>
      </trkpt>
      <trkpt lat="42.69761" lon="1.65489">
        <ele>1353</ele>
        <time>2018-11-18T15:06:59.000Z</time>
      </trkpt>
      <trkpt lat="42.69763" lon="1.65488">
        <ele>1353</ele>
        <time>2018-11-18T15:07:01.000Z</time>
      </trkpt>
      <trkpt lat="42.69764" lon="1.65487">
        <ele>1354</ele>
        <time>2018-11-18T15:07:03.000Z</time>
      </trkpt>
      <trkpt lat="42.69765" lon="1.65485">
        <ele>1354</ele>
        <time>2018-11-18T15:07:05.000Z</time>
      </trkpt>
      <trkpt lat="42.69766" lon="1.65485">
        <ele>1355</ele>
        <time>2018-11-18T15:07:07.000Z</time>
      </trkpt>
      <trkpt lat="42.69766" lon="1.65486">
        <ele>1354</ele>
        <time>2018-11-18T15:07:09.000Z</time>
      </trkpt>
      <trkpt lat="42.69766" lon="1.65487">
        <ele>1355</ele>
        <time>2018-11-18T15:07:11.000Z</time>
      </trkpt>
      <trkpt lat="42.69766" lon="1.65486">
        <ele>1354</ele>
        <time>2018-11-18T15:07:13.000Z</time>
      </trkpt>
      <trkpt lat="42.69766" lon="1.65486">
        <ele>1355</ele>
        <time>2018-11-18T15:07:15.000Z</time>
      </trkpt>
      <trkpt lat="42.69766" lon="1.65485">
        <ele>1355</ele>
        <time>2018-11-18T15:07:17.000Z</time>
      </trkpt>
      <trkpt lat="42.69767" lon="1.65485">
        <ele>1355</ele>
        <time>2018-11-18T15:07:19.000Z</time>
      </trkpt>
      <trkpt lat="42.69767" lon="1.65484">
        <ele>1356</ele>
        <time>2018-11-18T15:07:21.000Z</time>
      </trkpt>
      <trkpt lat="42.69768" lon="1.65483">
        <ele>1356</ele>
        <time>2018-11-18T15:07:23.000Z</time>
      </trkpt>
      <trkpt lat="42.69768" lon="1.65482">
        <ele>1357</ele>
        <time>2018-11-18T15:07:25.000Z</time>
      </trkpt>
      <trkpt lat="42.69769" lon="1.65481">
        <ele>1357</ele>
        <time>2018-11-18T15:07:27.000Z</time>
      </trkpt>
      <trkpt lat="42.6977" lon="1.6548">
        <ele>1358</ele>
        <time>2018-11-18T15:07:29.000Z</time>
      </trkpt>
      <trkpt lat="42.6977" lon="1.65478">
        <ele>1358</ele>
        <time>2018-11-18T15:07:31.000Z</time>
      </trkpt>
      <trkpt lat="42.69771" lon="1.65477">
        <ele>1359</ele>
        <time>2018-11-18T15:07:33.000Z</time>
      </trkpt>
      <trkpt lat="42.69772" lon="1.65477">
        <ele>1359</ele>
        <time>2018-11-18T15:07:35.000Z</time>
      </trkpt>
      <trkpt lat="42.69773" lon="1.65476">
        <ele>1360</ele>
        <time>2018-11-18T15:07:37.000Z</time>
      </trkpt>
      <trkpt lat="42.69773" lon="1.65476">
        <ele>1360</ele>
        <time>2018-11-18T15:07:39.000Z</time>
      </trkpt>
      <trkpt lat="42.69773" lon="1.65476">
        <ele>1360</ele>
        <time>2018-11-18T15:07:41.000Z</time>
      </trkpt>
      <trkpt lat="42.69774" lon="1.65475">
        <ele>1360</ele>
        <time>2018-11-18T15:07:43.000Z</time>
      </trkpt>
      <trkpt lat="42.69775" lon="1.65476">
        <ele>1360</ele>
        <time>2018-11-18T15:07:45.000Z</time>
      </trkpt>
      <trkpt lat="42.69776" lon="1.65476">
        <ele>1360</ele>
        <time>2018-11-18T15:07:47.000Z</time>
      </trkpt>
      <trkpt lat="42.69775" lon="1.65479">
        <ele>1359</ele>
        <time>2018-11-18T15:07:49.000Z</time>
      </trkpt>
      <trkpt lat="42.69774" lon="1.65481">
        <ele>1358</ele>
        <time>2018-11-18T15:07:51.000Z</time>
      </trkpt>
      <trkpt lat="42.69773" lon="1.65484">
        <ele>1357</ele>
        <time>2018-11-18T15:07:53.000Z</time>
      </trkpt>
      <trkpt lat="42.69772" lon="1.65486">
        <ele>1356</ele>
        <time>2018-11-18T15:07:55.000Z</time>
      </trkpt>
      <trkpt lat="42.69772" lon="1.65487">
        <ele>1356</ele>
        <time>2018-11-18T15:07:57.000Z</time>
      </trkpt>
      <trkpt lat="42.69771" lon="1.65488">
        <ele>1356</ele>
        <time>2018-11-18T15:07:59.000Z</time>
      </trkpt>
      <trkpt lat="42.69771" lon="1.65487">
        <ele>1356</ele>
        <time>2018-11-18T15:08:01.000Z</time>
      </trkpt>
      <trkpt lat="42.69772" lon="1.65486">
        <ele>1356</ele>
        <time>2018-11-18T15:08:03.000Z</time>
      </trkpt>
      <trkpt lat="42.69773" lon="1.65485">
        <ele>1357</ele>
        <time>2018-11-18T15:08:05.000Z</time>
      </trkpt>
      <trkpt lat="42.69775" lon="1.65484">
        <ele>1358</ele>
        <time>2018-11-18T15:08:07.000Z</time>
      </trkpt>
      <trkpt lat="42.69777" lon="1.65483">
        <ele>1359</ele>
        <time>2018-11-18T15:08:09.000Z</time>
      </trkpt>
      <trkpt lat="42.6978" lon="1.65483">
        <ele>1359</ele>
        <time>2018-11-18T15:08:11.000Z</time>
      </trkpt>
      <trkpt lat="42.69781" lon="1.65483">
        <ele>1360</ele>
        <time>2018-11-18T15:08:13.000Z</time>
      </trkpt>
      <trkpt lat="42.69783" lon="1.65482">
        <ele>1361</ele>
        <time>2018-11-18T15:08:15.000Z</time>
      </trkpt>
      <trkpt lat="42.69784" lon="1.65482">
        <ele>1361</ele>
        <time>2018-11-18T15:08:17.000Z</time>
      </trkpt>
      <trkpt lat="42.69785" lon="1.65482">
        <ele>1361</ele>
        <time>2018-11-18T15:08:19.000Z</time>
      </trkpt>
      <trkpt lat="42.69787" lon="1.65482">
        <ele>1362</ele>
        <time>2018-11-18T15:08:21.000Z</time>
      </trkpt>
      <trkpt lat="42.69788" lon="1.65481">
        <ele>1362</ele>
        <time>2018-11-18T15:08:23.000Z</time>
      </trkpt>
      <trkpt lat="42.69787" lon="1.6548">
        <ele>1362</ele>
        <time>2018-11-18T15:08:25.000Z</time>
      </trkpt>
      <trkpt lat="42.69786" lon="1.65479">
        <ele>1362</ele>
        <time>2018-11-18T15:08:27.000Z</time>
      </trkpt>
      <trkpt lat="42.69786" lon="1.65479">
        <ele>1363</ele>
        <time>2018-11-18T15:08:29.000Z</time>
      </trkpt>
      <trkpt lat="42.69788" lon="1.65479">
        <ele>1363</ele>
        <time>2018-11-18T15:08:31.000Z</time>
      </trkpt>
      <trkpt lat="42.69789" lon="1.6548">
        <ele>1363</ele>
        <time>2018-11-18T15:08:33.000Z</time>
      </trkpt>
      <trkpt lat="42.6979" lon="1.6548">
        <ele>1363</ele>
        <time>2018-11-18T15:08:35.000Z</time>
      </trkpt>
      <trkpt lat="42.6979" lon="1.6548">
        <ele>1363</ele>
        <time>2018-11-18T15:08:37.000Z</time>
      </trkpt>
      <trkpt lat="42.6979" lon="1.65481">
        <ele>1363</ele>
        <time>2018-11-18T15:08:39.000Z</time>
      </trkpt>
      <trkpt lat="42.69791" lon="1.65482">
        <ele>1363</ele>
        <time>2018-11-18T15:08:41.000Z</time>
      </trkpt>
      <trkpt lat="42.69792" lon="1.65484">
        <ele>1362</ele>
        <time>2018-11-18T15:08:43.000Z</time>
      </trkpt>
      <trkpt lat="42.69794" lon="1.65484">
        <ele>1363</ele>
        <time>2018-11-18T15:08:45.000Z</time>
      </trkpt>
      <trkpt lat="42.69797" lon="1.65483">
        <ele>1364</ele>
        <time>2018-11-18T15:08:47.000Z</time>
      </trkpt>
      <trkpt lat="42.69798" lon="1.65484">
        <ele>1364</ele>
        <time>2018-11-18T15:08:49.000Z</time>
      </trkpt>
      <trkpt lat="42.69796" lon="1.65483">
        <ele>1364</ele>
        <time>2018-11-18T15:08:51.000Z</time>
      </trkpt>
      <trkpt lat="42.69796" lon="1.65482">
        <ele>1364</ele>
        <time>2018-11-18T15:08:53.000Z</time>
      </trkpt>
      <trkpt lat="42.69796" lon="1.6548">
        <ele>1365</ele>
        <time>2018-11-18T15:08:55.000Z</time>
      </trkpt>
      <trkpt lat="42.69796" lon="1.65479">
        <ele>1365</ele>
        <time>2018-11-18T15:08:57.000Z</time>
      </trkpt>
      <trkpt lat="42.69798" lon="1.65479">
        <ele>1366</ele>
        <time>2018-11-18T15:08:59.000Z</time>
      </trkpt>
      <trkpt lat="42.69799" lon="1.65479">
        <ele>1366</ele>
        <time>2018-11-18T15:09:01.000Z</time>
      </trkpt>
      <trkpt lat="42.69801" lon="1.65479">
        <ele>1367</ele>
        <time>2018-11-18T15:09:03.000Z</time>
      </trkpt>
      <trkpt lat="42.69801" lon="1.65478">
        <ele>1367</ele>
        <time>2018-11-18T15:09:05.000Z</time>
      </trkpt>
      <trkpt lat="42.69803" lon="1.65478">
        <ele>1367</ele>
        <time>2018-11-18T15:09:07.000Z</time>
      </trkpt>
      <trkpt lat="42.69803" lon="1.65479">
        <ele>1367</ele>
        <time>2018-11-18T15:09:09.000Z</time>
      </trkpt>
      <trkpt lat="42.69803" lon="1.65479">
        <ele>1367</ele>
        <time>2018-11-18T15:09:11.000Z</time>
      </trkpt>
      <trkpt lat="42.69803" lon="1.65479">
        <ele>1367</ele>
        <time>2018-11-18T15:09:13.000Z</time>
      </trkpt>
      <trkpt lat="42.69804" lon="1.65479">
        <ele>1367</ele>
        <time>2018-11-18T15:09:15.000Z</time>
      </trkpt>
      <trkpt lat="42.69804" lon="1.65478">
        <ele>1368</ele>
        <time>2018-11-18T15:09:17.000Z</time>
      </trkpt>
      <trkpt lat="42.69805" lon="1.65479">
        <ele>1368</ele>
        <time>2018-11-18T15:09:19.000Z</time>
      </trkpt>
      <trkpt lat="42.69805" lon="1.65478">
        <ele>1368</ele>
        <time>2018-11-18T15:09:21.000Z</time>
      </trkpt>
      <trkpt lat="42.69806" lon="1.65479">
        <ele>1368</ele>
        <time>2018-11-18T15:09:23.000Z</time>
      </trkpt>
      <trkpt lat="42.69806" lon="1.65478">
        <ele>1368</ele>
        <time>2018-11-18T15:09:25.000Z</time>
      </trkpt>
      <trkpt lat="42.69806" lon="1.65477">
        <ele>1369</ele>
        <time>2018-11-18T15:09:27.000Z</time>
      </trkpt>
      <trkpt lat="42.69808" lon="1.65477">
        <ele>1369</ele>
        <time>2018-11-18T15:09:29.000Z</time>
      </trkpt>
      <trkpt lat="42.69809" lon="1.65477">
        <ele>1369</ele>
        <time>2018-11-18T15:09:31.000Z</time>
      </trkpt>
      <trkpt lat="42.69809" lon="1.65477">
        <ele>1369</ele>
        <time>2018-11-18T15:09:33.000Z</time>
      </trkpt>
      <trkpt lat="42.69808" lon="1.65476">
        <ele>1369</ele>
        <time>2018-11-18T15:09:35.000Z</time>
      </trkpt>
      <trkpt lat="42.69808" lon="1.65476">
        <ele>1370</ele>
        <time>2018-11-18T15:09:37.000Z</time>
      </trkpt>
      <trkpt lat="42.69808" lon="1.65477">
        <ele>1369</ele>
        <time>2018-11-18T15:09:39.000Z</time>
      </trkpt>
      <trkpt lat="42.69809" lon="1.65479">
        <ele>1369</ele>
        <time>2018-11-18T15:09:41.000Z</time>
      </trkpt>
      <trkpt lat="42.6981" lon="1.65481">
        <ele>1368</ele>
        <time>2018-11-18T15:09:43.000Z</time>
      </trkpt>
      <trkpt lat="42.69811" lon="1.65485">
        <ele>1367</ele>
        <time>2018-11-18T15:09:45.000Z</time>
      </trkpt>
      <trkpt lat="42.69811" lon="1.65487">
        <ele>1367</ele>
        <time>2018-11-18T15:09:47.000Z</time>
      </trkpt>
      <trkpt lat="42.69811" lon="1.65488">
        <ele>1366</ele>
        <time>2018-11-18T15:09:49.000Z</time>
      </trkpt>
      <trkpt lat="42.6981" lon="1.6549">
        <ele>1366</ele>
        <time>2018-11-18T15:09:51.000Z</time>
      </trkpt>
      <trkpt lat="42.69811" lon="1.65491">
        <ele>1366</ele>
        <time>2018-11-18T15:09:53.000Z</time>
      </trkpt>
      <trkpt lat="42.69811" lon="1.65491">
        <ele>1366</ele>
        <time>2018-11-18T15:09:55.000Z</time>
      </trkpt>
      <trkpt lat="42.69812" lon="1.65491">
        <ele>1366</ele>
        <time>2018-11-18T15:09:57.000Z</time>
      </trkpt>
      <trkpt lat="42.69812" lon="1.65492">
        <ele>1366</ele>
        <time>2018-11-18T15:09:59.000Z</time>
      </trkpt>
      <trkpt lat="42.69811" lon="1.65492">
        <ele>1366</ele>
        <time>2018-11-18T15:10:01.000Z</time>
      </trkpt>
      <trkpt lat="42.69811" lon="1.65492">
        <ele>1366</ele>
        <time>2018-11-18T15:10:03.000Z</time>
      </trkpt>
      <trkpt lat="42.69809" lon="1.65493">
        <ele>1365</ele>
        <time>2018-11-18T15:10:05.000Z</time>
      </trkpt>
      <trkpt lat="42.69808" lon="1.65494">
        <ele>1365</ele>
        <time>2018-11-18T15:10:07.000Z</time>
      </trkpt>
      <trkpt lat="42.69807" lon="1.65496">
        <ele>1364</ele>
        <time>2018-11-18T15:10:09.000Z</time>
      </trkpt>
      <trkpt lat="42.69808" lon="1.65496">
        <ele>1365</ele>
        <time>2018-11-18T15:10:11.000Z</time>
      </trkpt>
      <trkpt lat="42.69809" lon="1.65496">
        <ele>1365</ele>
        <time>2018-11-18T15:10:13.000Z</time>
      </trkpt>
      <trkpt lat="42.6981" lon="1.65496">
        <ele>1365</ele>
        <time>2018-11-18T15:10:15.000Z</time>
      </trkpt>
      <trkpt lat="42.69811" lon="1.65496">
        <ele>1365</ele>
        <time>2018-11-18T15:10:17.000Z</time>
      </trkpt>
      <trkpt lat="42.69811" lon="1.65496">
        <ele>1365</ele>
        <time>2018-11-18T15:10:19.000Z</time>
      </trkpt>
      <trkpt lat="42.69812" lon="1.65496">
        <ele>1366</ele>
        <time>2018-11-18T15:10:21.000Z</time>
      </trkpt>
      <trkpt lat="42.69814" lon="1.65495">
        <ele>1366</ele>
        <time>2018-11-18T15:10:23.000Z</time>
      </trkpt>
      <trkpt lat="42.69816" lon="1.65495">
        <ele>1367</ele>
        <time>2018-11-18T15:10:25.000Z</time>
      </trkpt>
      <trkpt lat="42.69817" lon="1.65497">
        <ele>1367</ele>
        <time>2018-11-18T15:10:27.000Z</time>
      </trkpt>
      <trkpt lat="42.69819" lon="1.65498">
        <ele>1367</ele>
        <time>2018-11-18T15:10:29.000Z</time>
      </trkpt>
      <trkpt lat="42.69821" lon="1.65497">
        <ele>1368</ele>
        <time>2018-11-18T15:10:31.000Z</time>
      </trkpt>
      <trkpt lat="42.69823" lon="1.65496">
        <ele>1369</ele>
        <time>2018-11-18T15:10:33.000Z</time>
      </trkpt>
      <trkpt lat="42.69826" lon="1.65496">
        <ele>1370</ele>
        <time>2018-11-18T15:10:35.000Z</time>
      </trkpt>
      <trkpt lat="42.69828" lon="1.65496">
        <ele>1370</ele>
        <time>2018-11-18T15:10:37.000Z</time>
      </trkpt>
      <trkpt lat="42.69829" lon="1.65499">
        <ele>1370</ele>
        <time>2018-11-18T15:10:39.000Z</time>
      </trkpt>
      <trkpt lat="42.69831" lon="1.65498">
        <ele>1371</ele>
        <time>2018-11-18T15:10:41.000Z</time>
      </trkpt>
      <trkpt lat="42.69833" lon="1.65499">
        <ele>1371</ele>
        <time>2018-11-18T15:10:43.000Z</time>
      </trkpt>
      <trkpt lat="42.69834" lon="1.65499">
        <ele>1371</ele>
        <time>2018-11-18T15:10:45.000Z</time>
      </trkpt>
      <trkpt lat="42.69834" lon="1.65499">
        <ele>1371</ele>
        <time>2018-11-18T15:10:47.000Z</time>
      </trkpt>
      <trkpt lat="42.69835" lon="1.65499">
        <ele>1372</ele>
        <time>2018-11-18T15:10:49.000Z</time>
      </trkpt>
      <trkpt lat="42.69836" lon="1.65499">
        <ele>1372</ele>
        <time>2018-11-18T15:10:51.000Z</time>
      </trkpt>
      <trkpt lat="42.69836" lon="1.65499">
        <ele>1372</ele>
        <time>2018-11-18T15:10:53.000Z</time>
      </trkpt>
      <trkpt lat="42.69835" lon="1.65499">
        <ele>1372</ele>
        <time>2018-11-18T15:10:55.000Z</time>
      </trkpt>
      <trkpt lat="42.69835" lon="1.65499">
        <ele>1372</ele>
        <time>2018-11-18T15:10:57.000Z</time>
      </trkpt>
      <trkpt lat="42.69835" lon="1.65502">
        <ele>1371</ele>
        <time>2018-11-18T15:10:59.000Z</time>
      </trkpt>
      <trkpt lat="42.69836" lon="1.65504">
        <ele>1371</ele>
        <time>2018-11-18T15:11:01.000Z</time>
      </trkpt>
      <trkpt lat="42.69837" lon="1.65506">
        <ele>1371</ele>
        <time>2018-11-18T15:11:03.000Z</time>
      </trkpt>
      <trkpt lat="42.69838" lon="1.65508">
        <ele>1371</ele>
        <time>2018-11-18T15:11:05.000Z</time>
      </trkpt>
      <trkpt lat="42.69841" lon="1.65508">
        <ele>1373</ele>
        <time>2018-11-18T15:11:07.000Z</time>
      </trkpt>
      <trkpt lat="42.69843" lon="1.6551">
        <ele>1373</ele>
        <time>2018-11-18T15:11:09.000Z</time>
      </trkpt>
      <trkpt lat="42.69845" lon="1.65511">
        <ele>1374</ele>
        <time>2018-11-18T15:11:11.000Z</time>
      </trkpt>
      <trkpt lat="42.69845" lon="1.65512">
        <ele>1374</ele>
        <time>2018-11-18T15:11:13.000Z</time>
      </trkpt>
      <trkpt lat="42.69846" lon="1.65512">
        <ele>1374</ele>
        <time>2018-11-18T15:11:15.000Z</time>
      </trkpt>
      <trkpt lat="42.69847" lon="1.65511">
        <ele>1375</ele>
        <time>2018-11-18T15:11:17.000Z</time>
      </trkpt>
      <trkpt lat="42.69848" lon="1.65511">
        <ele>1375</ele>
        <time>2018-11-18T15:11:19.000Z</time>
      </trkpt>
      <trkpt lat="42.69849" lon="1.65512">
        <ele>1375</ele>
        <time>2018-11-18T15:11:21.000Z</time>
      </trkpt>
      <trkpt lat="42.69847" lon="1.65513">
        <ele>1374</ele>
        <time>2018-11-18T15:11:23.000Z</time>
      </trkpt>
      <trkpt lat="42.69846" lon="1.65515">
        <ele>1374</ele>
        <time>2018-11-18T15:11:25.000Z</time>
      </trkpt>
      <trkpt lat="42.69845" lon="1.65516">
        <ele>1373</ele>
        <time>2018-11-18T15:11:27.000Z</time>
      </trkpt>
      <trkpt lat="42.69846" lon="1.65517">
        <ele>1373</ele>
        <time>2018-11-18T15:11:29.000Z</time>
      </trkpt>
      <trkpt lat="42.69849" lon="1.65518">
        <ele>1374</ele>
        <time>2018-11-18T15:11:31.000Z</time>
      </trkpt>
      <trkpt lat="42.6985" lon="1.6552">
        <ele>1374</ele>
        <time>2018-11-18T15:11:33.000Z</time>
      </trkpt>
      <trkpt lat="42.69853" lon="1.65521">
        <ele>1375</ele>
        <time>2018-11-18T15:11:35.000Z</time>
      </trkpt>
      <trkpt lat="42.69853" lon="1.65521">
        <ele>1375</ele>
        <time>2018-11-18T15:11:37.000Z</time>
      </trkpt>
      <trkpt lat="42.69854" lon="1.65521">
        <ele>1376</ele>
        <time>2018-11-18T15:11:39.000Z</time>
      </trkpt>
      <trkpt lat="42.69856" lon="1.6552">
        <ele>1376</ele>
        <time>2018-11-18T15:11:41.000Z</time>
      </trkpt>
      <trkpt lat="42.69856" lon="1.65519">
        <ele>1377</ele>
        <time>2018-11-18T15:11:43.000Z</time>
      </trkpt>
      <trkpt lat="42.69857" lon="1.65519">
        <ele>1377</ele>
        <time>2018-11-18T15:11:45.000Z</time>
      </trkpt>
      <trkpt lat="42.69859" lon="1.6552">
        <ele>1378</ele>
        <time>2018-11-18T15:11:47.000Z</time>
      </trkpt>
      <trkpt lat="42.6986" lon="1.6552">
        <ele>1378</ele>
        <time>2018-11-18T15:11:49.000Z</time>
      </trkpt>
      <trkpt lat="42.69861" lon="1.6552">
        <ele>1379</ele>
        <time>2018-11-18T15:11:51.000Z</time>
      </trkpt>
      <trkpt lat="42.69862" lon="1.6552">
        <ele>1379</ele>
        <time>2018-11-18T15:11:53.000Z</time>
      </trkpt>
      <trkpt lat="42.69863" lon="1.65521">
        <ele>1379</ele>
        <time>2018-11-18T15:11:55.000Z</time>
      </trkpt>
      <trkpt lat="42.69864" lon="1.65521">
        <ele>1379</ele>
        <time>2018-11-18T15:11:57.000Z</time>
      </trkpt>
      <trkpt lat="42.69865" lon="1.65522">
        <ele>1380</ele>
        <time>2018-11-18T15:11:59.000Z</time>
      </trkpt>
      <trkpt lat="42.69866" lon="1.6552">
        <ele>1380</ele>
        <time>2018-11-18T15:12:01.000Z</time>
      </trkpt>
      <trkpt lat="42.6987" lon="1.65517">
        <ele>1383</ele>
        <time>2018-11-18T15:12:03.000Z</time>
      </trkpt>
      <trkpt lat="42.69872" lon="1.65516">
        <ele>1384</ele>
        <time>2018-11-18T15:12:05.000Z</time>
      </trkpt>
      <trkpt lat="42.69873" lon="1.65515">
        <ele>1385</ele>
        <time>2018-11-18T15:12:07.000Z</time>
      </trkpt>
      <trkpt lat="42.69874" lon="1.65514">
        <ele>1387</ele>
        <time>2018-11-18T15:12:09.000Z</time>
      </trkpt>
      <trkpt lat="42.69875" lon="1.65514">
        <ele>1387</ele>
        <time>2018-11-18T15:12:11.000Z</time>
      </trkpt>
      <trkpt lat="42.69874" lon="1.65515">
        <ele>1386</ele>
        <time>2018-11-18T15:12:13.000Z</time>
      </trkpt>
      <trkpt lat="42.69875" lon="1.65513">
        <ele>1387</ele>
        <time>2018-11-18T15:12:15.000Z</time>
      </trkpt>
      <trkpt lat="42.69877" lon="1.65511">
        <ele>1389</ele>
        <time>2018-11-18T15:12:17.000Z</time>
      </trkpt>
      <trkpt lat="42.69879" lon="1.65509">
        <ele>1391</ele>
        <time>2018-11-18T15:12:19.000Z</time>
      </trkpt>
      <trkpt lat="42.69881" lon="1.65508">
        <ele>1392</ele>
        <time>2018-11-18T15:12:21.000Z</time>
      </trkpt>
      <trkpt lat="42.69883" lon="1.65507">
        <ele>1394</ele>
        <time>2018-11-18T15:12:23.000Z</time>
      </trkpt>
      <trkpt lat="42.69883" lon="1.65509">
        <ele>1393</ele>
        <time>2018-11-18T15:12:25.000Z</time>
      </trkpt>
      <trkpt lat="42.69884" lon="1.65511">
        <ele>1393</ele>
        <time>2018-11-18T15:12:27.000Z</time>
      </trkpt>
      <trkpt lat="42.69884" lon="1.65512">
        <ele>1393</ele>
        <time>2018-11-18T15:12:29.000Z</time>
      </trkpt>
      <trkpt lat="42.69885" lon="1.65514">
        <ele>1393</ele>
        <time>2018-11-18T15:12:31.000Z</time>
      </trkpt>
      <trkpt lat="42.69886" lon="1.65515">
        <ele>1393</ele>
        <time>2018-11-18T15:12:33.000Z</time>
      </trkpt>
      <trkpt lat="42.69884" lon="1.65518">
        <ele>1391</ele>
        <time>2018-11-18T15:12:35.000Z</time>
      </trkpt>
      <trkpt lat="42.69884" lon="1.65519">
        <ele>1391</ele>
        <time>2018-11-18T15:12:37.000Z</time>
      </trkpt>
      <trkpt lat="42.69885" lon="1.65519">
        <ele>1391</ele>
        <time>2018-11-18T15:12:39.000Z</time>
      </trkpt>
      <trkpt lat="42.69883" lon="1.65523">
        <ele>1388</ele>
        <time>2018-11-18T15:12:41.000Z</time>
      </trkpt>
      <trkpt lat="42.69882" lon="1.65526">
        <ele>1387</ele>
        <time>2018-11-18T15:12:43.000Z</time>
      </trkpt>
      <trkpt lat="42.6988" lon="1.65529">
        <ele>1384</ele>
        <time>2018-11-18T15:12:45.000Z</time>
      </trkpt>
      <trkpt lat="42.69879" lon="1.65532">
        <ele>1384</ele>
        <time>2018-11-18T15:12:47.000Z</time>
      </trkpt>
      <trkpt lat="42.69876" lon="1.65536">
        <ele>1382</ele>
        <time>2018-11-18T15:12:49.000Z</time>
      </trkpt>
      <trkpt lat="42.69874" lon="1.65538">
        <ele>1381</ele>
        <time>2018-11-18T15:12:51.000Z</time>
      </trkpt>
      <trkpt lat="42.69874" lon="1.65541">
        <ele>1380</ele>
        <time>2018-11-18T15:12:53.000Z</time>
      </trkpt>
      <trkpt lat="42.69874" lon="1.65542">
        <ele>1380</ele>
        <time>2018-11-18T15:12:55.000Z</time>
      </trkpt>
      <trkpt lat="42.69873" lon="1.65546">
        <ele>1379</ele>
        <time>2018-11-18T15:12:57.000Z</time>
      </trkpt>
      <trkpt lat="42.69872" lon="1.65549">
        <ele>1378</ele>
        <time>2018-11-18T15:12:59.000Z</time>
      </trkpt>
      <trkpt lat="42.69872" lon="1.65551">
        <ele>1378</ele>
        <time>2018-11-18T15:13:01.000Z</time>
      </trkpt>
      <trkpt lat="42.69872" lon="1.65551">
        <ele>1378</ele>
        <time>2018-11-18T15:13:03.000Z</time>
      </trkpt>
      <trkpt lat="42.69872" lon="1.65549">
        <ele>1379</ele>
        <time>2018-11-18T15:13:05.000Z</time>
      </trkpt>
      <trkpt lat="42.69873" lon="1.65548">
        <ele>1379</ele>
        <time>2018-11-18T15:13:07.000Z</time>
      </trkpt>
      <trkpt lat="42.69873" lon="1.65547">
        <ele>1379</ele>
        <time>2018-11-18T15:13:09.000Z</time>
      </trkpt>
      <trkpt lat="42.69873" lon="1.65546">
        <ele>1379</ele>
        <time>2018-11-18T15:13:11.000Z</time>
      </trkpt>
      <trkpt lat="42.69873" lon="1.65545">
        <ele>1380</ele>
        <time>2018-11-18T15:13:13.000Z</time>
      </trkpt>
      <trkpt lat="42.69873" lon="1.65545">
        <ele>1380</ele>
        <time>2018-11-18T15:13:15.000Z</time>
      </trkpt>
      <trkpt lat="42.69874" lon="1.65544">
        <ele>1380</ele>
        <time>2018-11-18T15:13:17.000Z</time>
      </trkpt>
      <trkpt lat="42.69873" lon="1.65541">
        <ele>1380</ele>
        <time>2018-11-18T15:13:19.000Z</time>
      </trkpt>
      <trkpt lat="42.69872" lon="1.6554">
        <ele>1380</ele>
        <time>2018-11-18T15:13:21.000Z</time>
      </trkpt>
      <trkpt lat="42.69873" lon="1.65539">
        <ele>1381</ele>
        <time>2018-11-18T15:13:23.000Z</time>
      </trkpt>
      <trkpt lat="42.69874" lon="1.65538">
        <ele>1381</ele>
        <time>2018-11-18T15:13:25.000Z</time>
      </trkpt>
      <trkpt lat="42.69874" lon="1.65536">
        <ele>1381</ele>
        <time>2018-11-18T15:13:27.000Z</time>
      </trkpt>
      <trkpt lat="42.69874" lon="1.65535">
        <ele>1381</ele>
        <time>2018-11-18T15:13:29.000Z</time>
      </trkpt>
      <trkpt lat="42.69873" lon="1.65535">
        <ele>1381</ele>
        <time>2018-11-18T15:13:31.000Z</time>
      </trkpt>
      <trkpt lat="42.69872" lon="1.65534">
        <ele>1381</ele>
        <time>2018-11-18T15:13:33.000Z</time>
      </trkpt>
      <trkpt lat="42.69871" lon="1.65535">
        <ele>1380</ele>
        <time>2018-11-18T15:13:35.000Z</time>
      </trkpt>
      <trkpt lat="42.6987" lon="1.65534">
        <ele>1380</ele>
        <time>2018-11-18T15:13:37.000Z</time>
      </trkpt>
      <trkpt lat="42.69869" lon="1.65533">
        <ele>1380</ele>
        <time>2018-11-18T15:13:39.000Z</time>
      </trkpt>
      <trkpt lat="42.69868" lon="1.65533">
        <ele>1379</ele>
        <time>2018-11-18T15:13:41.000Z</time>
      </trkpt>
      <trkpt lat="42.69867" lon="1.65533">
        <ele>1379</ele>
        <time>2018-11-18T15:13:43.000Z</time>
      </trkpt>
      <trkpt lat="42.6987" lon="1.65534">
        <ele>1380</ele>
        <time>2018-11-18T15:13:45.000Z</time>
      </trkpt>
      <trkpt lat="42.69873" lon="1.65534">
        <ele>1381</ele>
        <time>2018-11-18T15:13:47.000Z</time>
      </trkpt>
      <trkpt lat="42.69875" lon="1.65535">
        <ele>1382</ele>
        <time>2018-11-18T15:13:49.000Z</time>
      </trkpt>
      <trkpt lat="42.69879" lon="1.65536">
        <ele>1383</ele>
        <time>2018-11-18T15:13:51.000Z</time>
      </trkpt>
      <trkpt lat="42.69881" lon="1.65536">
        <ele>1384</ele>
        <time>2018-11-18T15:13:53.000Z</time>
      </trkpt>
      <trkpt lat="42.69883" lon="1.65537">
        <ele>1384</ele>
        <time>2018-11-18T15:13:55.000Z</time>
      </trkpt>
      <trkpt lat="42.69884" lon="1.65538">
        <ele>1385</ele>
        <time>2018-11-18T15:13:57.000Z</time>
      </trkpt>
      <trkpt lat="42.69885" lon="1.65537">
        <ele>1385</ele>
        <time>2018-11-18T15:13:59.000Z</time>
      </trkpt>
      <trkpt lat="42.69888" lon="1.65536">
        <ele>1387</ele>
        <time>2018-11-18T15:14:01.000Z</time>
      </trkpt>
      <trkpt lat="42.69887" lon="1.65537">
        <ele>1386</ele>
        <time>2018-11-18T15:14:03.000Z</time>
      </trkpt>
      <trkpt lat="42.69888" lon="1.65537">
        <ele>1386</ele>
        <time>2018-11-18T15:14:05.000Z</time>
      </trkpt>
      <trkpt lat="42.69887" lon="1.65538">
        <ele>1386</ele>
        <time>2018-11-18T15:14:07.000Z</time>
      </trkpt>
      <trkpt lat="42.69887" lon="1.65539">
        <ele>1386</ele>
        <time>2018-11-18T15:14:09.000Z</time>
      </trkpt>
      <trkpt lat="42.69885" lon="1.65541">
        <ele>1385</ele>
        <time>2018-11-18T15:14:11.000Z</time>
      </trkpt>
      <trkpt lat="42.69887" lon="1.65542">
        <ele>1385</ele>
        <time>2018-11-18T15:14:13.000Z</time>
      </trkpt>
      <trkpt lat="42.69887" lon="1.65544">
        <ele>1385</ele>
        <time>2018-11-18T15:14:15.000Z</time>
      </trkpt>
      <trkpt lat="42.69888" lon="1.65545">
        <ele>1385</ele>
        <time>2018-11-18T15:14:17.000Z</time>
      </trkpt>
      <trkpt lat="42.69888" lon="1.65548">
        <ele>1385</ele>
        <time>2018-11-18T15:14:19.000Z</time>
      </trkpt>
      <trkpt lat="42.69888" lon="1.6555">
        <ele>1385</ele>
        <time>2018-11-18T15:14:21.000Z</time>
      </trkpt>
      <trkpt lat="42.69889" lon="1.6555">
        <ele>1385</ele>
        <time>2018-11-18T15:14:23.000Z</time>
      </trkpt>
      <trkpt lat="42.6989" lon="1.6555">
        <ele>1385</ele>
        <time>2018-11-18T15:14:25.000Z</time>
      </trkpt>
      <trkpt lat="42.69891" lon="1.65551">
        <ele>1385</ele>
        <time>2018-11-18T15:14:27.000Z</time>
      </trkpt>
      <trkpt lat="42.69891" lon="1.65552">
        <ele>1385</ele>
        <time>2018-11-18T15:14:29.000Z</time>
      </trkpt>
      <trkpt lat="42.69892" lon="1.65552">
        <ele>1386</ele>
        <time>2018-11-18T15:14:31.000Z</time>
      </trkpt>
      <trkpt lat="42.69891" lon="1.65552">
        <ele>1386</ele>
        <time>2018-11-18T15:14:33.000Z</time>
      </trkpt>
      <trkpt lat="42.69892" lon="1.65552">
        <ele>1386</ele>
        <time>2018-11-18T15:14:35.000Z</time>
      </trkpt>
      <trkpt lat="42.69892" lon="1.65554">
        <ele>1386</ele>
        <time>2018-11-18T15:14:37.000Z</time>
      </trkpt>
      <trkpt lat="42.69893" lon="1.65554">
        <ele>1386</ele>
        <time>2018-11-18T15:14:39.000Z</time>
      </trkpt>
      <trkpt lat="42.69893" lon="1.65555">
        <ele>1386</ele>
        <time>2018-11-18T15:14:41.000Z</time>
      </trkpt>
      <trkpt lat="42.69893" lon="1.65556">
        <ele>1386</ele>
        <time>2018-11-18T15:14:43.000Z</time>
      </trkpt>
      <trkpt lat="42.69894" lon="1.65557">
        <ele>1386</ele>
        <time>2018-11-18T15:14:45.000Z</time>
      </trkpt>
      <trkpt lat="42.69895" lon="1.65558">
        <ele>1386</ele>
        <time>2018-11-18T15:14:47.000Z</time>
      </trkpt>
      <trkpt lat="42.69897" lon="1.6556">
        <ele>1386</ele>
        <time>2018-11-18T15:14:49.000Z</time>
      </trkpt>
      <trkpt lat="42.69898" lon="1.65561">
        <ele>1387</ele>
        <time>2018-11-18T15:14:51.000Z</time>
      </trkpt>
      <trkpt lat="42.69899" lon="1.65561">
        <ele>1387</ele>
        <time>2018-11-18T15:14:53.000Z</time>
      </trkpt>
      <trkpt lat="42.69901" lon="1.65562">
        <ele>1388</ele>
        <time>2018-11-18T15:14:55.000Z</time>
      </trkpt>
      <trkpt lat="42.69903" lon="1.65562">
        <ele>1388</ele>
        <time>2018-11-18T15:14:57.000Z</time>
      </trkpt>
      <trkpt lat="42.69904" lon="1.65562">
        <ele>1389</ele>
        <time>2018-11-18T15:14:59.000Z</time>
      </trkpt>
      <trkpt lat="42.69904" lon="1.65563">
        <ele>1389</ele>
        <time>2018-11-18T15:15:01.000Z</time>
      </trkpt>
      <trkpt lat="42.69905" lon="1.65562">
        <ele>1389</ele>
        <time>2018-11-18T15:15:03.000Z</time>
      </trkpt>
      <trkpt lat="42.69906" lon="1.65562">
        <ele>1390</ele>
        <time>2018-11-18T15:15:05.000Z</time>
      </trkpt>
      <trkpt lat="42.69906" lon="1.65563">
        <ele>1389</ele>
        <time>2018-11-18T15:15:07.000Z</time>
      </trkpt>
      <trkpt lat="42.69907" lon="1.65562">
        <ele>1390</ele>
        <time>2018-11-18T15:15:09.000Z</time>
      </trkpt>
      <trkpt lat="42.69907" lon="1.65563">
        <ele>1390</ele>
        <time>2018-11-18T15:15:11.000Z</time>
      </trkpt>
      <trkpt lat="42.69908" lon="1.65563">
        <ele>1390</ele>
        <time>2018-11-18T15:15:13.000Z</time>
      </trkpt>
      <trkpt lat="42.69909" lon="1.65563">
        <ele>1391</ele>
        <time>2018-11-18T15:15:15.000Z</time>
      </trkpt>
      <trkpt lat="42.6991" lon="1.65564">
        <ele>1391</ele>
        <time>2018-11-18T15:15:17.000Z</time>
      </trkpt>
      <trkpt lat="42.69911" lon="1.65564">
        <ele>1391</ele>
        <time>2018-11-18T15:15:19.000Z</time>
      </trkpt>
      <trkpt lat="42.69912" lon="1.65564">
        <ele>1392</ele>
        <time>2018-11-18T15:15:21.000Z</time>
      </trkpt>
      <trkpt lat="42.69913" lon="1.65566">
        <ele>1392</ele>
        <time>2018-11-18T15:15:23.000Z</time>
      </trkpt>
      <trkpt lat="42.69913" lon="1.65567">
        <ele>1392</ele>
        <time>2018-11-18T15:15:25.000Z</time>
      </trkpt>
      <trkpt lat="42.69913" lon="1.65567">
        <ele>1391</ele>
        <time>2018-11-18T15:15:27.000Z</time>
      </trkpt>
      <trkpt lat="42.69912" lon="1.65568">
        <ele>1391</ele>
        <time>2018-11-18T15:15:29.000Z</time>
      </trkpt>
      <trkpt lat="42.69913" lon="1.6557">
        <ele>1391</ele>
        <time>2018-11-18T15:15:31.000Z</time>
      </trkpt>
      <trkpt lat="42.69913" lon="1.65571">
        <ele>1391</ele>
        <time>2018-11-18T15:15:33.000Z</time>
      </trkpt>
      <trkpt lat="42.69912" lon="1.65573">
        <ele>1391</ele>
        <time>2018-11-18T15:15:35.000Z</time>
      </trkpt>
      <trkpt lat="42.69913" lon="1.65574">
        <ele>1391</ele>
        <time>2018-11-18T15:15:37.000Z</time>
      </trkpt>
      <trkpt lat="42.69912" lon="1.65574">
        <ele>1391</ele>
        <time>2018-11-18T15:15:39.000Z</time>
      </trkpt>
      <trkpt lat="42.69911" lon="1.65574">
        <ele>1390</ele>
        <time>2018-11-18T15:15:41.000Z</time>
      </trkpt>
      <trkpt lat="42.69912" lon="1.65574">
        <ele>1391</ele>
        <time>2018-11-18T15:15:43.000Z</time>
      </trkpt>
      <trkpt lat="42.69912" lon="1.65573">
        <ele>1391</ele>
        <time>2018-11-18T15:15:45.000Z</time>
      </trkpt>
      <trkpt lat="42.69913" lon="1.65573">
        <ele>1391</ele>
        <time>2018-11-18T15:15:47.000Z</time>
      </trkpt>
      <trkpt lat="42.69914" lon="1.65572">
        <ele>1392</ele>
        <time>2018-11-18T15:15:49.000Z</time>
      </trkpt>
      <trkpt lat="42.69914" lon="1.65574">
        <ele>1392</ele>
        <time>2018-11-18T15:15:51.000Z</time>
      </trkpt>
      <trkpt lat="42.69914" lon="1.65575">
        <ele>1392</ele>
        <time>2018-11-18T15:15:53.000Z</time>
      </trkpt>
      <trkpt lat="42.69914" lon="1.65575">
        <ele>1392</ele>
        <time>2018-11-18T15:15:55.000Z</time>
      </trkpt>
      <trkpt lat="42.69914" lon="1.65576">
        <ele>1392</ele>
        <time>2018-11-18T15:15:57.000Z</time>
      </trkpt>
      <trkpt lat="42.69914" lon="1.65577">
        <ele>1392</ele>
        <time>2018-11-18T15:15:59.000Z</time>
      </trkpt>
      <trkpt lat="42.69914" lon="1.65578">
        <ele>1392</ele>
        <time>2018-11-18T15:16:01.000Z</time>
      </trkpt>
      <trkpt lat="42.69915" lon="1.65578">
        <ele>1392</ele>
        <time>2018-11-18T15:16:03.000Z</time>
      </trkpt>
      <trkpt lat="42.69915" lon="1.6558">
        <ele>1392</ele>
        <time>2018-11-18T15:16:05.000Z</time>
      </trkpt>
      <trkpt lat="42.69915" lon="1.6558">
        <ele>1392</ele>
        <time>2018-11-18T15:16:07.000Z</time>
      </trkpt>
      <trkpt lat="42.69915" lon="1.65581">
        <ele>1392</ele>
        <time>2018-11-18T15:16:09.000Z</time>
      </trkpt>
      <trkpt lat="42.69916" lon="1.65581">
        <ele>1393</ele>
        <time>2018-11-18T15:16:11.000Z</time>
      </trkpt>
      <trkpt lat="42.69916" lon="1.65581">
        <ele>1393</ele>
        <time>2018-11-18T15:16:13.000Z</time>
      </trkpt>
      <trkpt lat="42.69916" lon="1.65581">
        <ele>1393</ele>
        <time>2018-11-18T15:16:15.000Z</time>
      </trkpt>
      <trkpt lat="42.69917" lon="1.65581">
        <ele>1393</ele>
        <time>2018-11-18T15:16:17.000Z</time>
      </trkpt>
      <trkpt lat="42.69916" lon="1.65581">
        <ele>1393</ele>
        <time>2018-11-18T15:16:19.000Z</time>
      </trkpt>
      <trkpt lat="42.69916" lon="1.65581">
        <ele>1393</ele>
        <time>2018-11-18T15:16:21.000Z</time>
      </trkpt>
      <trkpt lat="42.69915" lon="1.6558">
        <ele>1392</ele>
        <time>2018-11-18T15:16:23.000Z</time>
      </trkpt>
      <trkpt lat="42.69913" lon="1.65582">
        <ele>1392</ele>
        <time>2018-11-18T15:16:25.000Z</time>
      </trkpt>
      <trkpt lat="42.69914" lon="1.65581">
        <ele>1392</ele>
        <time>2018-11-18T15:16:27.000Z</time>
      </trkpt>
      <trkpt lat="42.69914" lon="1.65579">
        <ele>1392</ele>
        <time>2018-11-18T15:16:29.000Z</time>
      </trkpt>
      <trkpt lat="42.69914" lon="1.65579">
        <ele>1392</ele>
        <time>2018-11-18T15:16:31.000Z</time>
      </trkpt>
      <trkpt lat="42.69914" lon="1.65579">
        <ele>1392</ele>
        <time>2018-11-18T15:16:33.000Z</time>
      </trkpt>
      <trkpt lat="42.69914" lon="1.65579">
        <ele>1392</ele>
        <time>2018-11-18T15:16:35.000Z</time>
      </trkpt>
      <trkpt lat="42.69914" lon="1.65579">
        <ele>1392</ele>
        <time>2018-11-18T15:16:37.000Z</time>
      </trkpt>
      <trkpt lat="42.69914" lon="1.65579">
        <ele>1392</ele>
        <time>2018-11-18T15:16:39.000Z</time>
      </trkpt>
      <trkpt lat="42.69914" lon="1.6558">
        <ele>1392</ele>
        <time>2018-11-18T15:16:41.000Z</time>
      </trkpt>
      <trkpt lat="42.69913" lon="1.6558">
        <ele>1392</ele>
        <time>2018-11-18T15:16:43.000Z</time>
      </trkpt>
      <trkpt lat="42.69913" lon="1.6558">
        <ele>1392</ele>
        <time>2018-11-18T15:16:45.000Z</time>
      </trkpt>
      <trkpt lat="42.69914" lon="1.6558">
        <ele>1392</ele>
        <time>2018-11-18T15:16:47.000Z</time>
      </trkpt>
      <trkpt lat="42.69914" lon="1.6558">
        <ele>1392</ele>
        <time>2018-11-18T15:16:49.000Z</time>
      </trkpt>
      <trkpt lat="42.69914" lon="1.65581">
        <ele>1392</ele>
        <time>2018-11-18T15:16:51.000Z</time>
      </trkpt>
      <trkpt lat="42.69914" lon="1.65581">
        <ele>1392</ele>
        <time>2018-11-18T15:16:53.000Z</time>
      </trkpt>
      <trkpt lat="42.69914" lon="1.6558">
        <ele>1392</ele>
        <time>2018-11-18T15:16:55.000Z</time>
      </trkpt>
      <trkpt lat="42.69913" lon="1.65578">
        <ele>1392</ele>
        <time>2018-11-18T15:16:57.000Z</time>
      </trkpt>
      <trkpt lat="42.69913" lon="1.65578">
        <ele>1392</ele>
        <time>2018-11-18T15:16:59.000Z</time>
      </trkpt>
      <trkpt lat="42.69914" lon="1.65577">
        <ele>1392</ele>
        <time>2018-11-18T15:17:01.000Z</time>
      </trkpt>
      <trkpt lat="42.69915" lon="1.65576">
        <ele>1392</ele>
        <time>2018-11-18T15:17:03.000Z</time>
      </trkpt>
      <trkpt lat="42.69916" lon="1.65575">
        <ele>1392</ele>
        <time>2018-11-18T15:17:05.000Z</time>
      </trkpt>
      <trkpt lat="42.69916" lon="1.65575">
        <ele>1393</ele>
        <time>2018-11-18T15:17:07.000Z</time>
      </trkpt>
      <trkpt lat="42.69917" lon="1.65574">
        <ele>1393</ele>
        <time>2018-11-18T15:17:09.000Z</time>
      </trkpt>
      <trkpt lat="42.69917" lon="1.65573">
        <ele>1393</ele>
        <time>2018-11-18T15:17:11.000Z</time>
      </trkpt>
      <trkpt lat="42.69916" lon="1.65571">
        <ele>1392</ele>
        <time>2018-11-18T15:17:13.000Z</time>
      </trkpt>
      <trkpt lat="42.69914" lon="1.65568">
        <ele>1392</ele>
        <time>2018-11-18T15:17:15.000Z</time>
      </trkpt>
      <trkpt lat="42.69914" lon="1.65566">
        <ele>1392</ele>
        <time>2018-11-18T15:17:17.000Z</time>
      </trkpt>
      <trkpt lat="42.69913" lon="1.65565">
        <ele>1392</ele>
        <time>2018-11-18T15:17:19.000Z</time>
      </trkpt>
      <trkpt lat="42.69913" lon="1.65563">
        <ele>1392</ele>
        <time>2018-11-18T15:17:21.000Z</time>
      </trkpt>
      <trkpt lat="42.69913" lon="1.65562">
        <ele>1392</ele>
        <time>2018-11-18T15:17:23.000Z</time>
      </trkpt>
      <trkpt lat="42.69913" lon="1.65562">
        <ele>1393</ele>
        <time>2018-11-18T15:17:25.000Z</time>
      </trkpt>
      <trkpt lat="42.69914" lon="1.65562">
        <ele>1393</ele>
        <time>2018-11-18T15:17:27.000Z</time>
      </trkpt>
      <trkpt lat="42.69915" lon="1.65561">
        <ele>1394</ele>
        <time>2018-11-18T15:17:29.000Z</time>
      </trkpt>
      <trkpt lat="42.69914" lon="1.65563">
        <ele>1393</ele>
        <time>2018-11-18T15:17:31.000Z</time>
      </trkpt>
      <trkpt lat="42.69912" lon="1.65566">
        <ele>1392</ele>
        <time>2018-11-18T15:17:33.000Z</time>
      </trkpt>
      <trkpt lat="42.69916" lon="1.65568">
        <ele>1393</ele>
        <time>2018-11-18T15:17:35.000Z</time>
      </trkpt>
      <trkpt lat="42.69917" lon="1.6557">
        <ele>1393</ele>
        <time>2018-11-18T15:17:37.000Z</time>
      </trkpt>
      <trkpt lat="42.69918" lon="1.65572">
        <ele>1393</ele>
        <time>2018-11-18T15:17:39.000Z</time>
      </trkpt>
      <trkpt lat="42.69919" lon="1.65571">
        <ele>1394</ele>
        <time>2018-11-18T15:17:41.000Z</time>
      </trkpt>
      <trkpt lat="42.6992" lon="1.65571">
        <ele>1394</ele>
        <time>2018-11-18T15:17:43.000Z</time>
      </trkpt>
      <trkpt lat="42.69921" lon="1.6557">
        <ele>1394</ele>
        <time>2018-11-18T15:17:45.000Z</time>
      </trkpt>
      <trkpt lat="42.69922" lon="1.65569">
        <ele>1394</ele>
        <time>2018-11-18T15:17:47.000Z</time>
      </trkpt>
      <trkpt lat="42.69922" lon="1.6557">
        <ele>1394</ele>
        <time>2018-11-18T15:17:49.000Z</time>
      </trkpt>
      <trkpt lat="42.69922" lon="1.65571">
        <ele>1394</ele>
        <time>2018-11-18T15:17:51.000Z</time>
      </trkpt>
      <trkpt lat="42.69921" lon="1.65571">
        <ele>1394</ele>
        <time>2018-11-18T15:17:53.000Z</time>
      </trkpt>
      <trkpt lat="42.69919" lon="1.65574">
        <ele>1394</ele>
        <time>2018-11-18T15:17:55.000Z</time>
      </trkpt>
      <trkpt lat="42.69917" lon="1.65574">
        <ele>1393</ele>
        <time>2018-11-18T15:17:57.000Z</time>
      </trkpt>
      <trkpt lat="42.69914" lon="1.65573">
        <ele>1392</ele>
        <time>2018-11-18T15:17:59.000Z</time>
      </trkpt>
      <trkpt lat="42.69913" lon="1.65574">
        <ele>1391</ele>
        <time>2018-11-18T15:18:01.000Z</time>
      </trkpt>
      <trkpt lat="42.69913" lon="1.65574">
        <ele>1391</ele>
        <time>2018-11-18T15:18:03.000Z</time>
      </trkpt>
      <trkpt lat="42.69914" lon="1.65575">
        <ele>1392</ele>
        <time>2018-11-18T15:18:05.000Z</time>
      </trkpt>
      <trkpt lat="42.69914" lon="1.65575">
        <ele>1392</ele>
        <time>2018-11-18T15:18:07.000Z</time>
      </trkpt>
      <trkpt lat="42.69913" lon="1.65575">
        <ele>1391</ele>
        <time>2018-11-18T15:18:09.000Z</time>
      </trkpt>
      <trkpt lat="42.69913" lon="1.65575">
        <ele>1391</ele>
        <time>2018-11-18T15:18:11.000Z</time>
      </trkpt>
      <trkpt lat="42.69914" lon="1.65574">
        <ele>1392</ele>
        <time>2018-11-18T15:18:13.000Z</time>
      </trkpt>
      <trkpt lat="42.69914" lon="1.65572">
        <ele>1392</ele>
        <time>2018-11-18T15:18:15.000Z</time>
      </trkpt>
      <trkpt lat="42.69913" lon="1.6557">
        <ele>1391</ele>
        <time>2018-11-18T15:18:17.000Z</time>
      </trkpt>
      <trkpt lat="42.69913" lon="1.65569">
        <ele>1392</ele>
        <time>2018-11-18T15:18:19.000Z</time>
      </trkpt>
      <trkpt lat="42.69913" lon="1.65567">
        <ele>1392</ele>
        <time>2018-11-18T15:18:21.000Z</time>
      </trkpt>
      <trkpt lat="42.69914" lon="1.65567">
        <ele>1392</ele>
        <time>2018-11-18T15:18:23.000Z</time>
      </trkpt>
      <trkpt lat="42.69914" lon="1.65567">
        <ele>1392</ele>
        <time>2018-11-18T15:18:25.000Z</time>
      </trkpt>
      <trkpt lat="42.69914" lon="1.65566">
        <ele>1392</ele>
        <time>2018-11-18T15:18:27.000Z</time>
      </trkpt>
      <trkpt lat="42.69914" lon="1.65565">
        <ele>1392</ele>
        <time>2018-11-18T15:18:29.000Z</time>
      </trkpt>
      <trkpt lat="42.6991" lon="1.65571">
        <ele>1390</ele>
        <time>2018-11-18T15:18:31.000Z</time>
      </trkpt>
      <trkpt lat="42.69888" lon="1.65587">
        <ele>1382</ele>
        <time>2018-11-18T15:18:33.000Z</time>
      </trkpt>
      <trkpt lat="42.699" lon="1.65584">
        <ele>1387</ele>
        <time>2018-11-18T15:18:35.000Z</time>
      </trkpt>
      <trkpt lat="42.69904" lon="1.65584">
        <ele>1388</ele>
        <time>2018-11-18T15:18:37.000Z</time>
      </trkpt>
      <trkpt lat="42.69904" lon="1.65585">
        <ele>1388</ele>
        <time>2018-11-18T15:18:39.000Z</time>
      </trkpt>
      <trkpt lat="42.69906" lon="1.65585">
        <ele>1389</ele>
        <time>2018-11-18T15:18:41.000Z</time>
      </trkpt>
      <trkpt lat="42.69907" lon="1.65585">
        <ele>1390</ele>
        <time>2018-11-18T15:18:43.000Z</time>
      </trkpt>
      <trkpt lat="42.69909" lon="1.65584">
        <ele>1390</ele>
        <time>2018-11-18T15:18:45.000Z</time>
      </trkpt>
      <trkpt lat="42.6991" lon="1.65583">
        <ele>1391</ele>
        <time>2018-11-18T15:18:47.000Z</time>
      </trkpt>
      <trkpt lat="42.69911" lon="1.65582">
        <ele>1391</ele>
        <time>2018-11-18T15:18:49.000Z</time>
      </trkpt>
      <trkpt lat="42.69912" lon="1.65582">
        <ele>1391</ele>
        <time>2018-11-18T15:18:51.000Z</time>
      </trkpt>
      <trkpt lat="42.69912" lon="1.65581">
        <ele>1391</ele>
        <time>2018-11-18T15:18:53.000Z</time>
      </trkpt>
      <trkpt lat="42.69911" lon="1.6558">
        <ele>1391</ele>
        <time>2018-11-18T15:18:55.000Z</time>
      </trkpt>
      <trkpt lat="42.6991" lon="1.65579">
        <ele>1390</ele>
        <time>2018-11-18T15:18:57.000Z</time>
      </trkpt>
      <trkpt lat="42.69908" lon="1.65578">
        <ele>1390</ele>
        <time>2018-11-18T15:18:59.000Z</time>
      </trkpt>
      <trkpt lat="42.69906" lon="1.65577">
        <ele>1389</ele>
        <time>2018-11-18T15:19:01.000Z</time>
      </trkpt>
      <trkpt lat="42.69905" lon="1.65576">
        <ele>1388</ele>
        <time>2018-11-18T15:19:03.000Z</time>
      </trkpt>
      <trkpt lat="42.69904" lon="1.65575">
        <ele>1388</ele>
        <time>2018-11-18T15:19:05.000Z</time>
      </trkpt>
      <trkpt lat="42.69902" lon="1.65574">
        <ele>1387</ele>
        <time>2018-11-18T15:19:07.000Z</time>
      </trkpt>
      <trkpt lat="42.699" lon="1.65573">
        <ele>1386</ele>
        <time>2018-11-18T15:19:09.000Z</time>
      </trkpt>
      <trkpt lat="42.69898" lon="1.65573">
        <ele>1386</ele>
        <time>2018-11-18T15:19:11.000Z</time>
      </trkpt>
      <trkpt lat="42.69896" lon="1.65573">
        <ele>1385</ele>
        <time>2018-11-18T15:19:13.000Z</time>
      </trkpt>
      <trkpt lat="42.69896" lon="1.65571">
        <ele>1385</ele>
        <time>2018-11-18T15:19:15.000Z</time>
      </trkpt>
      <trkpt lat="42.69894" lon="1.6557">
        <ele>1384</ele>
        <time>2018-11-18T15:19:17.000Z</time>
      </trkpt>
      <trkpt lat="42.69893" lon="1.6557">
        <ele>1384</ele>
        <time>2018-11-18T15:19:19.000Z</time>
      </trkpt>
      <trkpt lat="42.69893" lon="1.65569">
        <ele>1383</ele>
        <time>2018-11-18T15:19:21.000Z</time>
      </trkpt>
      <trkpt lat="42.69893" lon="1.65568">
        <ele>1384</ele>
        <time>2018-11-18T15:19:23.000Z</time>
      </trkpt>
      <trkpt lat="42.69892" lon="1.65567">
        <ele>1384</ele>
        <time>2018-11-18T15:19:25.000Z</time>
      </trkpt>
      <trkpt lat="42.69891" lon="1.65566">
        <ele>1383</ele>
        <time>2018-11-18T15:19:27.000Z</time>
      </trkpt>
      <trkpt lat="42.6989" lon="1.65565">
        <ele>1383</ele>
        <time>2018-11-18T15:19:29.000Z</time>
      </trkpt>
      <trkpt lat="42.6989" lon="1.65565">
        <ele>1383</ele>
        <time>2018-11-18T15:19:31.000Z</time>
      </trkpt>
      <trkpt lat="42.69889" lon="1.65565">
        <ele>1383</ele>
        <time>2018-11-18T15:19:33.000Z</time>
      </trkpt>
      <trkpt lat="42.69888" lon="1.65564">
        <ele>1382</ele>
        <time>2018-11-18T15:19:35.000Z</time>
      </trkpt>
      <trkpt lat="42.69886" lon="1.65565">
        <ele>1382</ele>
        <time>2018-11-18T15:19:37.000Z</time>
      </trkpt>
      <trkpt lat="42.69886" lon="1.65563">
        <ele>1382</ele>
        <time>2018-11-18T15:19:39.000Z</time>
      </trkpt>
      <trkpt lat="42.69887" lon="1.65562">
        <ele>1382</ele>
        <time>2018-11-18T15:19:41.000Z</time>
      </trkpt>
      <trkpt lat="42.69887" lon="1.65561">
        <ele>1382</ele>
        <time>2018-11-18T15:19:43.000Z</time>
      </trkpt>
      <trkpt lat="42.69887" lon="1.65561">
        <ele>1382</ele>
        <time>2018-11-18T15:19:45.000Z</time>
      </trkpt>
      <trkpt lat="42.69887" lon="1.65561">
        <ele>1383</ele>
        <time>2018-11-18T15:19:47.000Z</time>
      </trkpt>
      <trkpt lat="42.69886" lon="1.6556">
        <ele>1382</ele>
        <time>2018-11-18T15:19:49.000Z</time>
      </trkpt>
      <trkpt lat="42.69885" lon="1.65561">
        <ele>1382</ele>
        <time>2018-11-18T15:19:51.000Z</time>
      </trkpt>
      <trkpt lat="42.69886" lon="1.65561">
        <ele>1382</ele>
        <time>2018-11-18T15:19:53.000Z</time>
      </trkpt>
      <trkpt lat="42.69886" lon="1.65561">
        <ele>1382</ele>
        <time>2018-11-18T15:19:55.000Z</time>
      </trkpt>
      <trkpt lat="42.69887" lon="1.65561">
        <ele>1383</ele>
        <time>2018-11-18T15:19:57.000Z</time>
      </trkpt>
      <trkpt lat="42.69887" lon="1.65561">
        <ele>1383</ele>
        <time>2018-11-18T15:19:59.000Z</time>
      </trkpt>
      <trkpt lat="42.69888" lon="1.6556">
        <ele>1383</ele>
        <time>2018-11-18T15:20:01.000Z</time>
      </trkpt>
      <trkpt lat="42.69887" lon="1.65559">
        <ele>1383</ele>
        <time>2018-11-18T15:20:03.000Z</time>
      </trkpt>
      <trkpt lat="42.69885" lon="1.65561">
        <ele>1382</ele>
        <time>2018-11-18T15:20:05.000Z</time>
      </trkpt>
      <trkpt lat="42.69884" lon="1.65561">
        <ele>1381</ele>
        <time>2018-11-18T15:20:07.000Z</time>
      </trkpt>
      <trkpt lat="42.69883" lon="1.65561">
        <ele>1381</ele>
        <time>2018-11-18T15:20:09.000Z</time>
      </trkpt>
      <trkpt lat="42.69883" lon="1.65562">
        <ele>1381</ele>
        <time>2018-11-18T15:20:11.000Z</time>
      </trkpt>
      <trkpt lat="42.69884" lon="1.65561">
        <ele>1381</ele>
        <time>2018-11-18T15:20:13.000Z</time>
      </trkpt>
      <trkpt lat="42.69884" lon="1.65561">
        <ele>1381</ele>
        <time>2018-11-18T15:20:15.000Z</time>
      </trkpt>
      <trkpt lat="42.69884" lon="1.65562">
        <ele>1381</ele>
        <time>2018-11-18T15:20:17.000Z</time>
      </trkpt>
      <trkpt lat="42.69886" lon="1.65562">
        <ele>1382</ele>
        <time>2018-11-18T15:20:19.000Z</time>
      </trkpt>
      <trkpt lat="42.69886" lon="1.65562">
        <ele>1382</ele>
        <time>2018-11-18T15:20:21.000Z</time>
      </trkpt>
      <trkpt lat="42.69887" lon="1.65562">
        <ele>1382</ele>
        <time>2018-11-18T15:20:23.000Z</time>
      </trkpt>
      <trkpt lat="42.69887" lon="1.65562">
        <ele>1382</ele>
        <time>2018-11-18T15:20:25.000Z</time>
      </trkpt>
      <trkpt lat="42.69888" lon="1.65562">
        <ele>1383</ele>
        <time>2018-11-18T15:20:27.000Z</time>
      </trkpt>
      <trkpt lat="42.69889" lon="1.65562">
        <ele>1383</ele>
        <time>2018-11-18T15:20:29.000Z</time>
      </trkpt>
      <trkpt lat="42.69892" lon="1.65561">
        <ele>1384</ele>
        <time>2018-11-18T15:20:31.000Z</time>
      </trkpt>
      <trkpt lat="42.69893" lon="1.65563">
        <ele>1385</ele>
        <time>2018-11-18T15:20:33.000Z</time>
      </trkpt>
      <trkpt lat="42.69894" lon="1.65563">
        <ele>1385</ele>
        <time>2018-11-18T15:20:35.000Z</time>
      </trkpt>
      <trkpt lat="42.69895" lon="1.65564">
        <ele>1385</ele>
        <time>2018-11-18T15:20:37.000Z</time>
      </trkpt>
      <trkpt lat="42.69896" lon="1.65565">
        <ele>1385</ele>
        <time>2018-11-18T15:20:39.000Z</time>
      </trkpt>
      <trkpt lat="42.69897" lon="1.65567">
        <ele>1385</ele>
        <time>2018-11-18T15:20:41.000Z</time>
      </trkpt>
      <trkpt lat="42.69898" lon="1.65568">
        <ele>1386</ele>
        <time>2018-11-18T15:20:43.000Z</time>
      </trkpt>
      <trkpt lat="42.699" lon="1.65568">
        <ele>1386</ele>
        <time>2018-11-18T15:20:45.000Z</time>
      </trkpt>
      <trkpt lat="42.69901" lon="1.65568">
        <ele>1387</ele>
        <time>2018-11-18T15:20:47.000Z</time>
      </trkpt>
      <trkpt lat="42.69903" lon="1.65569">
        <ele>1387</ele>
        <time>2018-11-18T15:20:49.000Z</time>
      </trkpt>
      <trkpt lat="42.69905" lon="1.65569">
        <ele>1388</ele>
        <time>2018-11-18T15:20:51.000Z</time>
      </trkpt>
      <trkpt lat="42.69906" lon="1.65569">
        <ele>1389</ele>
        <time>2018-11-18T15:20:53.000Z</time>
      </trkpt>
      <trkpt lat="42.69909" lon="1.65569">
        <ele>1390</ele>
        <time>2018-11-18T15:20:55.000Z</time>
      </trkpt>
      <trkpt lat="42.69909" lon="1.65569">
        <ele>1390</ele>
        <time>2018-11-18T15:20:57.000Z</time>
      </trkpt>
      <trkpt lat="42.6991" lon="1.65568">
        <ele>1390</ele>
        <time>2018-11-18T15:20:59.000Z</time>
      </trkpt>
      <trkpt lat="42.69912" lon="1.65567">
        <ele>1391</ele>
        <time>2018-11-18T15:21:01.000Z</time>
      </trkpt>
      <trkpt lat="42.69913" lon="1.65567">
        <ele>1392</ele>
        <time>2018-11-18T15:21:03.000Z</time>
      </trkpt>
      <trkpt lat="42.69914" lon="1.65567">
        <ele>1392</ele>
        <time>2018-11-18T15:21:05.000Z</time>
      </trkpt>
      <trkpt lat="42.69915" lon="1.65567">
        <ele>1392</ele>
        <time>2018-11-18T15:21:07.000Z</time>
      </trkpt>
      <trkpt lat="42.69915" lon="1.65568">
        <ele>1392</ele>
        <time>2018-11-18T15:21:09.000Z</time>
      </trkpt>
      <trkpt lat="42.69916" lon="1.65568">
        <ele>1392</ele>
        <time>2018-11-18T15:21:11.000Z</time>
      </trkpt>
      <trkpt lat="42.69914" lon="1.6557">
        <ele>1392</ele>
        <time>2018-11-18T15:21:13.000Z</time>
      </trkpt>
      <trkpt lat="42.69914" lon="1.65572">
        <ele>1392</ele>
        <time>2018-11-18T15:21:15.000Z</time>
      </trkpt>
      <trkpt lat="42.69915" lon="1.65573">
        <ele>1392</ele>
        <time>2018-11-18T15:21:17.000Z</time>
      </trkpt>
      <trkpt lat="42.69914" lon="1.65574">
        <ele>1392</ele>
        <time>2018-11-18T15:21:19.000Z</time>
      </trkpt>
      <trkpt lat="42.69915" lon="1.65575">
        <ele>1392</ele>
        <time>2018-11-18T15:21:21.000Z</time>
      </trkpt>
      <trkpt lat="42.69916" lon="1.65576">
        <ele>1393</ele>
        <time>2018-11-18T15:21:23.000Z</time>
      </trkpt>
      <trkpt lat="42.69916" lon="1.65576">
        <ele>1393</ele>
        <time>2018-11-18T15:21:25.000Z</time>
      </trkpt>
      <trkpt lat="42.69916" lon="1.65576">
        <ele>1392</ele>
        <time>2018-11-18T15:21:27.000Z</time>
      </trkpt>
      <trkpt lat="42.69916" lon="1.65576">
        <ele>1393</ele>
        <time>2018-11-18T15:21:29.000Z</time>
      </trkpt>
      <trkpt lat="42.69916" lon="1.65576">
        <ele>1393</ele>
        <time>2018-11-18T15:21:31.000Z</time>
      </trkpt>
      <trkpt lat="42.69917" lon="1.65575">
        <ele>1393</ele>
        <time>2018-11-18T15:21:33.000Z</time>
      </trkpt>
      <trkpt lat="42.69917" lon="1.65574">
        <ele>1393</ele>
        <time>2018-11-18T15:21:35.000Z</time>
      </trkpt>
      <trkpt lat="42.69916" lon="1.65574">
        <ele>1392</ele>
        <time>2018-11-18T15:21:37.000Z</time>
      </trkpt>
      <trkpt lat="42.69916" lon="1.65574">
        <ele>1392</ele>
        <time>2018-11-18T15:21:39.000Z</time>
      </trkpt>
      <trkpt lat="42.69914" lon="1.65575">
        <ele>1392</ele>
        <time>2018-11-18T15:21:41.000Z</time>
      </trkpt>
      <trkpt lat="42.69914" lon="1.65575">
        <ele>1392</ele>
        <time>2018-11-18T15:21:43.000Z</time>
      </trkpt>
      <trkpt lat="42.69913" lon="1.65575">
        <ele>1391</ele>
        <time>2018-11-18T15:21:45.000Z</time>
      </trkpt>
      <trkpt lat="42.69913" lon="1.65575">
        <ele>1391</ele>
        <time>2018-11-18T15:21:47.000Z</time>
      </trkpt>
      <trkpt lat="42.69912" lon="1.65574">
        <ele>1391</ele>
        <time>2018-11-18T15:21:49.000Z</time>
      </trkpt>
      <trkpt lat="42.69911" lon="1.65575">
        <ele>1391</ele>
        <time>2018-11-18T15:21:51.000Z</time>
      </trkpt>
      <trkpt lat="42.69909" lon="1.65575">
        <ele>1390</ele>
        <time>2018-11-18T15:21:53.000Z</time>
      </trkpt>
      <trkpt lat="42.69908" lon="1.65576">
        <ele>1390</ele>
        <time>2018-11-18T15:21:55.000Z</time>
      </trkpt>
      <trkpt lat="42.6991" lon="1.65577">
        <ele>1390</ele>
        <time>2018-11-18T15:21:57.000Z</time>
      </trkpt>
      <trkpt lat="42.6991" lon="1.65578">
        <ele>1390</ele>
        <time>2018-11-18T15:21:59.000Z</time>
      </trkpt>
      <trkpt lat="42.69911" lon="1.65577">
        <ele>1391</ele>
        <time>2018-11-18T15:22:01.000Z</time>
      </trkpt>
      <trkpt lat="42.69911" lon="1.65578">
        <ele>1391</ele>
        <time>2018-11-18T15:22:03.000Z</time>
      </trkpt>
      <trkpt lat="42.69912" lon="1.65578">
        <ele>1391</ele>
        <time>2018-11-18T15:22:05.000Z</time>
      </trkpt>
      <trkpt lat="42.69912" lon="1.65577">
        <ele>1391</ele>
        <time>2018-11-18T15:22:07.000Z</time>
      </trkpt>
      <trkpt lat="42.69912" lon="1.65578">
        <ele>1391</ele>
        <time>2018-11-18T15:22:09.000Z</time>
      </trkpt>
      <trkpt lat="42.69912" lon="1.65578">
        <ele>1391</ele>
        <time>2018-11-18T15:22:11.000Z</time>
      </trkpt>
      <trkpt lat="42.69911" lon="1.6558">
        <ele>1391</ele>
        <time>2018-11-18T15:22:13.000Z</time>
      </trkpt>
      <trkpt lat="42.69913" lon="1.6558">
        <ele>1391</ele>
        <time>2018-11-18T15:22:15.000Z</time>
      </trkpt>
      <trkpt lat="42.69915" lon="1.65579">
        <ele>1392</ele>
        <time>2018-11-18T15:22:17.000Z</time>
      </trkpt>
      <trkpt lat="42.69917" lon="1.65577">
        <ele>1393</ele>
        <time>2018-11-18T15:22:19.000Z</time>
      </trkpt>
      <trkpt lat="42.69918" lon="1.65577">
        <ele>1393</ele>
        <time>2018-11-18T15:22:21.000Z</time>
      </trkpt>
      <trkpt lat="42.69917" lon="1.65577">
        <ele>1393</ele>
        <time>2018-11-18T15:22:23.000Z</time>
      </trkpt>
      <trkpt lat="42.69918" lon="1.65577">
        <ele>1393</ele>
        <time>2018-11-18T15:22:25.000Z</time>
      </trkpt>
      <trkpt lat="42.69916" lon="1.65577">
        <ele>1393</ele>
        <time>2018-11-18T15:22:27.000Z</time>
      </trkpt>
      <trkpt lat="42.69917" lon="1.65575">
        <ele>1393</ele>
        <time>2018-11-18T15:22:29.000Z</time>
      </trkpt>
      <trkpt lat="42.69917" lon="1.65576">
        <ele>1393</ele>
        <time>2018-11-18T15:22:31.000Z</time>
      </trkpt>
      <trkpt lat="42.69916" lon="1.65576">
        <ele>1393</ele>
        <time>2018-11-18T15:22:33.000Z</time>
      </trkpt>
      <trkpt lat="42.69916" lon="1.65576">
        <ele>1393</ele>
        <time>2018-11-18T15:22:35.000Z</time>
      </trkpt>
      <trkpt lat="42.69916" lon="1.65577">
        <ele>1393</ele>
        <time>2018-11-18T15:22:37.000Z</time>
      </trkpt>
      <trkpt lat="42.69915" lon="1.65577">
        <ele>1392</ele>
        <time>2018-11-18T15:22:39.000Z</time>
      </trkpt>
      <trkpt lat="42.69914" lon="1.65578">
        <ele>1392</ele>
        <time>2018-11-18T15:22:41.000Z</time>
      </trkpt>
      <trkpt lat="42.69913" lon="1.65578">
        <ele>1392</ele>
        <time>2018-11-18T15:22:43.000Z</time>
      </trkpt>
      <trkpt lat="42.69913" lon="1.65578">
        <ele>1392</ele>
        <time>2018-11-18T15:22:45.000Z</time>
      </trkpt>
      <trkpt lat="42.69913" lon="1.65579">
        <ele>1392</ele>
        <time>2018-11-18T15:22:47.000Z</time>
      </trkpt>
      <trkpt lat="42.69912" lon="1.6558">
        <ele>1391</ele>
        <time>2018-11-18T15:22:49.000Z</time>
      </trkpt>
      <trkpt lat="42.69911" lon="1.6558">
        <ele>1391</ele>
        <time>2018-11-18T15:22:51.000Z</time>
      </trkpt>
      <trkpt lat="42.6991" lon="1.65582">
        <ele>1390</ele>
        <time>2018-11-18T15:22:53.000Z</time>
      </trkpt>
      <trkpt lat="42.69909" lon="1.65583">
        <ele>1390</ele>
        <time>2018-11-18T15:22:55.000Z</time>
      </trkpt>
      <trkpt lat="42.69907" lon="1.65585">
        <ele>1390</ele>
        <time>2018-11-18T15:22:57.000Z</time>
      </trkpt>
      <trkpt lat="42.69906" lon="1.65587">
        <ele>1389</ele>
        <time>2018-11-18T15:22:59.000Z</time>
      </trkpt>
      <trkpt lat="42.69906" lon="1.65587">
        <ele>1389</ele>
        <time>2018-11-18T15:23:01.000Z</time>
      </trkpt>
      <trkpt lat="42.69905" lon="1.65588">
        <ele>1389</ele>
        <time>2018-11-18T15:23:03.000Z</time>
      </trkpt>
      <trkpt lat="42.69906" lon="1.65588">
        <ele>1389</ele>
        <time>2018-11-18T15:23:05.000Z</time>
      </trkpt>
      <trkpt lat="42.69905" lon="1.65588">
        <ele>1389</ele>
        <time>2018-11-18T15:23:07.000Z</time>
      </trkpt>
      <trkpt lat="42.69905" lon="1.65589">
        <ele>1389</ele>
        <time>2018-11-18T15:23:09.000Z</time>
      </trkpt>
      <trkpt lat="42.69904" lon="1.6559">
        <ele>1388</ele>
        <time>2018-11-18T15:23:11.000Z</time>
      </trkpt>
      <trkpt lat="42.69903" lon="1.65591">
        <ele>1388</ele>
        <time>2018-11-18T15:23:13.000Z</time>
      </trkpt>
      <trkpt lat="42.69903" lon="1.65593">
        <ele>1388</ele>
        <time>2018-11-18T15:23:15.000Z</time>
      </trkpt>
      <trkpt lat="42.69903" lon="1.65593">
        <ele>1388</ele>
        <time>2018-11-18T15:23:17.000Z</time>
      </trkpt>
      <trkpt lat="42.69904" lon="1.65592">
        <ele>1388</ele>
        <time>2018-11-18T15:23:19.000Z</time>
      </trkpt>
      <trkpt lat="42.69904" lon="1.65591">
        <ele>1388</ele>
        <time>2018-11-18T15:23:21.000Z</time>
      </trkpt>
      <trkpt lat="42.69906" lon="1.65589">
        <ele>1389</ele>
        <time>2018-11-18T15:23:23.000Z</time>
      </trkpt>
      <trkpt lat="42.69908" lon="1.65587">
        <ele>1390</ele>
        <time>2018-11-18T15:23:25.000Z</time>
      </trkpt>
      <trkpt lat="42.6991" lon="1.65585">
        <ele>1391</ele>
        <time>2018-11-18T15:23:27.000Z</time>
      </trkpt>
      <trkpt lat="42.69911" lon="1.65584">
        <ele>1391</ele>
        <time>2018-11-18T15:23:29.000Z</time>
      </trkpt>
      <trkpt lat="42.69913" lon="1.65583">
        <ele>1391</ele>
        <time>2018-11-18T15:23:31.000Z</time>
      </trkpt>
      <trkpt lat="42.69914" lon="1.65581">
        <ele>1392</ele>
        <time>2018-11-18T15:23:33.000Z</time>
      </trkpt>
      <trkpt lat="42.69915" lon="1.65579">
        <ele>1392</ele>
        <time>2018-11-18T15:23:35.000Z</time>
      </trkpt>
      <trkpt lat="42.69916" lon="1.65578">
        <ele>1393</ele>
        <time>2018-11-18T15:23:37.000Z</time>
      </trkpt>
      <trkpt lat="42.69916" lon="1.65578">
        <ele>1393</ele>
        <time>2018-11-18T15:23:39.000Z</time>
      </trkpt>
      <trkpt lat="42.69917" lon="1.65577">
        <ele>1393</ele>
        <time>2018-11-18T15:23:41.000Z</time>
      </trkpt>
      <trkpt lat="42.69918" lon="1.65576">
        <ele>1393</ele>
        <time>2018-11-18T15:23:43.000Z</time>
      </trkpt>
      <trkpt lat="42.69918" lon="1.65575">
        <ele>1393</ele>
        <time>2018-11-18T15:23:45.000Z</time>
      </trkpt>
      <trkpt lat="42.69919" lon="1.65575">
        <ele>1394</ele>
        <time>2018-11-18T15:23:47.000Z</time>
      </trkpt>
      <trkpt lat="42.69919" lon="1.65575">
        <ele>1394</ele>
        <time>2018-11-18T15:23:49.000Z</time>
      </trkpt>
      <trkpt lat="42.69917" lon="1.65578">
        <ele>1393</ele>
        <time>2018-11-18T15:23:51.000Z</time>
      </trkpt>
      <trkpt lat="42.69917" lon="1.65578">
        <ele>1393</ele>
        <time>2018-11-18T15:23:53.000Z</time>
      </trkpt>
      <trkpt lat="42.69916" lon="1.65581">
        <ele>1393</ele>
        <time>2018-11-18T15:23:55.000Z</time>
      </trkpt>
      <trkpt lat="42.69914" lon="1.65586">
        <ele>1392</ele>
        <time>2018-11-18T15:23:57.000Z</time>
      </trkpt>
      <trkpt lat="42.69914" lon="1.65585">
        <ele>1392</ele>
        <time>2018-11-18T15:23:59.000Z</time>
      </trkpt>
      <trkpt lat="42.69914" lon="1.65586">
        <ele>1392</ele>
        <time>2018-11-18T15:24:01.000Z</time>
      </trkpt>
      <trkpt lat="42.69915" lon="1.65585">
        <ele>1392</ele>
        <time>2018-11-18T15:24:03.000Z</time>
      </trkpt>
      <trkpt lat="42.69916" lon="1.65583">
        <ele>1393</ele>
        <time>2018-11-18T15:24:05.000Z</time>
      </trkpt>
      <trkpt lat="42.69917" lon="1.65584">
        <ele>1393</ele>
        <time>2018-11-18T15:24:07.000Z</time>
      </trkpt>
      <trkpt lat="42.69917" lon="1.65584">
        <ele>1393</ele>
        <time>2018-11-18T15:24:09.000Z</time>
      </trkpt>
      <trkpt lat="42.69917" lon="1.65585">
        <ele>1393</ele>
        <time>2018-11-18T15:24:11.000Z</time>
      </trkpt>
      <trkpt lat="42.69918" lon="1.65585">
        <ele>1393</ele>
        <time>2018-11-18T15:24:13.000Z</time>
      </trkpt>
      <trkpt lat="42.69918" lon="1.65586">
        <ele>1394</ele>
        <time>2018-11-18T15:24:15.000Z</time>
      </trkpt>
      <trkpt lat="42.69919" lon="1.65586">
        <ele>1394</ele>
        <time>2018-11-18T15:24:17.000Z</time>
      </trkpt>
      <trkpt lat="42.6992" lon="1.65586">
        <ele>1394</ele>
        <time>2018-11-18T15:24:19.000Z</time>
      </trkpt>
      <trkpt lat="42.69921" lon="1.65585">
        <ele>1394</ele>
        <time>2018-11-18T15:24:21.000Z</time>
      </trkpt>
      <trkpt lat="42.69923" lon="1.65584">
        <ele>1394</ele>
        <time>2018-11-18T15:24:23.000Z</time>
      </trkpt>
      <trkpt lat="42.69923" lon="1.65583">
        <ele>1394</ele>
        <time>2018-11-18T15:24:25.000Z</time>
      </trkpt>
      <trkpt lat="42.69921" lon="1.65585">
        <ele>1394</ele>
        <time>2018-11-18T15:24:27.000Z</time>
      </trkpt>
      <trkpt lat="42.6992" lon="1.65587">
        <ele>1394</ele>
        <time>2018-11-18T15:24:29.000Z</time>
      </trkpt>
      <trkpt lat="42.69918" lon="1.65587">
        <ele>1394</ele>
        <time>2018-11-18T15:24:31.000Z</time>
      </trkpt>
      <trkpt lat="42.69916" lon="1.65588">
        <ele>1393</ele>
        <time>2018-11-18T15:24:33.000Z</time>
      </trkpt>
      <trkpt lat="42.69915" lon="1.65589">
        <ele>1393</ele>
        <time>2018-11-18T15:24:35.000Z</time>
      </trkpt>
      <trkpt lat="42.69914" lon="1.6559">
        <ele>1392</ele>
        <time>2018-11-18T15:24:37.000Z</time>
      </trkpt>
      <trkpt lat="42.69913" lon="1.6559">
        <ele>1392</ele>
        <time>2018-11-18T15:24:39.000Z</time>
      </trkpt>
      <trkpt lat="42.69913" lon="1.65589">
        <ele>1392</ele>
        <time>2018-11-18T15:24:41.000Z</time>
      </trkpt>
      <trkpt lat="42.69912" lon="1.65589">
        <ele>1392</ele>
        <time>2018-11-18T15:24:43.000Z</time>
      </trkpt>
      <trkpt lat="42.69912" lon="1.65589">
        <ele>1391</ele>
        <time>2018-11-18T15:24:45.000Z</time>
      </trkpt>
      <trkpt lat="42.69912" lon="1.65588">
        <ele>1391</ele>
        <time>2018-11-18T15:24:47.000Z</time>
      </trkpt>
      <trkpt lat="42.69912" lon="1.65587">
        <ele>1391</ele>
        <time>2018-11-18T15:24:49.000Z</time>
      </trkpt>
      <trkpt lat="42.69912" lon="1.65586">
        <ele>1391</ele>
        <time>2018-11-18T15:24:51.000Z</time>
      </trkpt>
      <trkpt lat="42.69912" lon="1.65585">
        <ele>1391</ele>
        <time>2018-11-18T15:24:53.000Z</time>
      </trkpt>
      <trkpt lat="42.69913" lon="1.65585">
        <ele>1392</ele>
        <time>2018-11-18T15:24:55.000Z</time>
      </trkpt>
      <trkpt lat="42.69913" lon="1.65584">
        <ele>1392</ele>
        <time>2018-11-18T15:24:57.000Z</time>
      </trkpt>
      <trkpt lat="42.69913" lon="1.65584">
        <ele>1391</ele>
        <time>2018-11-18T15:24:59.000Z</time>
      </trkpt>
      <trkpt lat="42.69913" lon="1.65583">
        <ele>1392</ele>
        <time>2018-11-18T15:25:01.000Z</time>
      </trkpt>
      <trkpt lat="42.69913" lon="1.65583">
        <ele>1392</ele>
        <time>2018-11-18T15:25:03.000Z</time>
      </trkpt>
      <trkpt lat="42.69915" lon="1.65581">
        <ele>1392</ele>
        <time>2018-11-18T15:25:05.000Z</time>
      </trkpt>
      <trkpt lat="42.69916" lon="1.65579">
        <ele>1393</ele>
        <time>2018-11-18T15:25:07.000Z</time>
      </trkpt>
      <trkpt lat="42.69916" lon="1.65579">
        <ele>1393</ele>
        <time>2018-11-18T15:25:09.000Z</time>
      </trkpt>
      <trkpt lat="42.69917" lon="1.65578">
        <ele>1393</ele>
        <time>2018-11-18T15:25:11.000Z</time>
      </trkpt>
      <trkpt lat="42.69917" lon="1.65577">
        <ele>1393</ele>
        <time>2018-11-18T15:25:13.000Z</time>
      </trkpt>
      <trkpt lat="42.69918" lon="1.65576">
        <ele>1393</ele>
        <time>2018-11-18T15:25:15.000Z</time>
      </trkpt>
      <trkpt lat="42.69918" lon="1.65574">
        <ele>1393</ele>
        <time>2018-11-18T15:25:17.000Z</time>
      </trkpt>
      <trkpt lat="42.69919" lon="1.65573">
        <ele>1394</ele>
        <time>2018-11-18T15:25:19.000Z</time>
      </trkpt>
      <trkpt lat="42.69919" lon="1.65574">
        <ele>1394</ele>
        <time>2018-11-18T15:25:21.000Z</time>
      </trkpt>
      <trkpt lat="42.69917" lon="1.65575">
        <ele>1393</ele>
        <time>2018-11-18T15:25:23.000Z</time>
      </trkpt>
      <trkpt lat="42.69915" lon="1.65579">
        <ele>1392</ele>
        <time>2018-11-18T15:25:25.000Z</time>
      </trkpt>
      <trkpt lat="42.6991" lon="1.65584">
        <ele>1391</ele>
        <time>2018-11-18T15:25:27.000Z</time>
      </trkpt>
      <trkpt lat="42.69909" lon="1.65586">
        <ele>1390</ele>
        <time>2018-11-18T15:25:29.000Z</time>
      </trkpt>
      <trkpt lat="42.69906" lon="1.65591">
        <ele>1389</ele>
        <time>2018-11-18T15:25:31.000Z</time>
      </trkpt>
      <trkpt lat="42.69905" lon="1.65593">
        <ele>1389</ele>
        <time>2018-11-18T15:25:33.000Z</time>
      </trkpt>
      <trkpt lat="42.69903" lon="1.65595">
        <ele>1388</ele>
        <time>2018-11-18T15:25:35.000Z</time>
      </trkpt>
      <trkpt lat="42.69902" lon="1.65596">
        <ele>1388</ele>
        <time>2018-11-18T15:25:37.000Z</time>
      </trkpt>
      <trkpt lat="42.69901" lon="1.65597">
        <ele>1387</ele>
        <time>2018-11-18T15:25:39.000Z</time>
      </trkpt>
      <trkpt lat="42.69901" lon="1.65597">
        <ele>1387</ele>
        <time>2018-11-18T15:25:41.000Z</time>
      </trkpt>
      <trkpt lat="42.699" lon="1.65597">
        <ele>1387</ele>
        <time>2018-11-18T15:25:43.000Z</time>
      </trkpt>
      <trkpt lat="42.699" lon="1.65597">
        <ele>1387</ele>
        <time>2018-11-18T15:25:45.000Z</time>
      </trkpt>
      <trkpt lat="42.699" lon="1.65597">
        <ele>1387</ele>
        <time>2018-11-18T15:25:47.000Z</time>
      </trkpt>
      <trkpt lat="42.69901" lon="1.65596">
        <ele>1387</ele>
        <time>2018-11-18T15:25:49.000Z</time>
      </trkpt>
      <trkpt lat="42.69901" lon="1.65596">
        <ele>1387</ele>
        <time>2018-11-18T15:25:51.000Z</time>
      </trkpt>
      <trkpt lat="42.69902" lon="1.65594">
        <ele>1388</ele>
        <time>2018-11-18T15:25:53.000Z</time>
      </trkpt>
      <trkpt lat="42.69903" lon="1.65593">
        <ele>1388</ele>
        <time>2018-11-18T15:25:55.000Z</time>
      </trkpt>
      <trkpt lat="42.69904" lon="1.65592">
        <ele>1388</ele>
        <time>2018-11-18T15:25:57.000Z</time>
      </trkpt>
      <trkpt lat="42.69906" lon="1.65591">
        <ele>1389</ele>
        <time>2018-11-18T15:25:59.000Z</time>
      </trkpt>
      <trkpt lat="42.69909" lon="1.65589">
        <ele>1390</ele>
        <time>2018-11-18T15:26:01.000Z</time>
      </trkpt>
      <trkpt lat="42.69912" lon="1.65587">
        <ele>1391</ele>
        <time>2018-11-18T15:26:03.000Z</time>
      </trkpt>
      <trkpt lat="42.69916" lon="1.65585">
        <ele>1393</ele>
        <time>2018-11-18T15:26:05.000Z</time>
      </trkpt>
      <trkpt lat="42.69919" lon="1.65583">
        <ele>1394</ele>
        <time>2018-11-18T15:26:07.000Z</time>
      </trkpt>
      <trkpt lat="42.69922" lon="1.6558">
        <ele>1394</ele>
        <time>2018-11-18T15:26:09.000Z</time>
      </trkpt>
      <trkpt lat="42.69923" lon="1.65578">
        <ele>1394</ele>
        <time>2018-11-18T15:26:11.000Z</time>
      </trkpt>
      <trkpt lat="42.69925" lon="1.65577">
        <ele>1394</ele>
        <time>2018-11-18T15:26:13.000Z</time>
      </trkpt>
      <trkpt lat="42.69925" lon="1.65576">
        <ele>1394</ele>
        <time>2018-11-18T15:26:15.000Z</time>
      </trkpt>
      <trkpt lat="42.69926" lon="1.65576">
        <ele>1393</ele>
        <time>2018-11-18T15:26:17.000Z</time>
      </trkpt>
      <trkpt lat="42.69926" lon="1.65576">
        <ele>1393</ele>
        <time>2018-11-18T15:26:19.000Z</time>
      </trkpt>
      <trkpt lat="42.69926" lon="1.65576">
        <ele>1393</ele>
        <time>2018-11-18T15:26:21.000Z</time>
      </trkpt>
      <trkpt lat="42.69926" lon="1.65577">
        <ele>1393</ele>
        <time>2018-11-18T15:26:23.000Z</time>
      </trkpt>
      <trkpt lat="42.69927" lon="1.65577">
        <ele>1393</ele>
        <time>2018-11-18T15:26:25.000Z</time>
      </trkpt>
      <trkpt lat="42.69929" lon="1.65577">
        <ele>1393</ele>
        <time>2018-11-18T15:26:27.000Z</time>
      </trkpt>
      <trkpt lat="42.69931" lon="1.65578">
        <ele>1393</ele>
        <time>2018-11-18T15:26:29.000Z</time>
      </trkpt>
      <trkpt lat="42.69933" lon="1.65578">
        <ele>1393</ele>
        <time>2018-11-18T15:26:31.000Z</time>
      </trkpt>
      <trkpt lat="42.69934" lon="1.65579">
        <ele>1393</ele>
        <time>2018-11-18T15:26:33.000Z</time>
      </trkpt>
      <trkpt lat="42.69935" lon="1.65579">
        <ele>1393</ele>
        <time>2018-11-18T15:26:35.000Z</time>
      </trkpt>
      <trkpt lat="42.69935" lon="1.65579">
        <ele>1393</ele>
        <time>2018-11-18T15:26:37.000Z</time>
      </trkpt>
      <trkpt lat="42.69935" lon="1.65579">
        <ele>1393</ele>
        <time>2018-11-18T15:26:39.000Z</time>
      </trkpt>
      <trkpt lat="42.69936" lon="1.65578">
        <ele>1393</ele>
        <time>2018-11-18T15:26:41.000Z</time>
      </trkpt>
      <trkpt lat="42.69937" lon="1.65578">
        <ele>1393</ele>
        <time>2018-11-18T15:26:43.000Z</time>
      </trkpt>
      <trkpt lat="42.69941" lon="1.6558">
        <ele>1393</ele>
        <time>2018-11-18T15:26:45.000Z</time>
      </trkpt>
      <trkpt lat="42.69943" lon="1.65579">
        <ele>1394</ele>
        <time>2018-11-18T15:26:47.000Z</time>
      </trkpt>
      <trkpt lat="42.69944" lon="1.6558">
        <ele>1393</ele>
        <time>2018-11-18T15:26:49.000Z</time>
      </trkpt>
      <trkpt lat="42.69946" lon="1.65581">
        <ele>1393</ele>
        <time>2018-11-18T15:26:51.000Z</time>
      </trkpt>
      <trkpt lat="42.69946" lon="1.65583">
        <ele>1393</ele>
        <time>2018-11-18T15:26:53.000Z</time>
      </trkpt>
      <trkpt lat="42.69946" lon="1.65583">
        <ele>1393</ele>
        <time>2018-11-18T15:26:55.000Z</time>
      </trkpt>
      <trkpt lat="42.69947" lon="1.65584">
        <ele>1393</ele>
        <time>2018-11-18T15:26:57.000Z</time>
      </trkpt>
      <trkpt lat="42.69948" lon="1.65584">
        <ele>1393</ele>
        <time>2018-11-18T15:26:59.000Z</time>
      </trkpt>
      <trkpt lat="42.69949" lon="1.65585">
        <ele>1393</ele>
        <time>2018-11-18T15:27:01.000Z</time>
      </trkpt>
      <trkpt lat="42.69948" lon="1.65587">
        <ele>1393</ele>
        <time>2018-11-18T15:27:03.000Z</time>
      </trkpt>
      <trkpt lat="42.69948" lon="1.65588">
        <ele>1393</ele>
        <time>2018-11-18T15:27:05.000Z</time>
      </trkpt>
      <trkpt lat="42.69948" lon="1.65589">
        <ele>1392</ele>
        <time>2018-11-18T15:27:07.000Z</time>
      </trkpt>
      <trkpt lat="42.69948" lon="1.6559">
        <ele>1392</ele>
        <time>2018-11-18T15:27:09.000Z</time>
      </trkpt>
      <trkpt lat="42.69948" lon="1.6559">
        <ele>1392</ele>
        <time>2018-11-18T15:27:11.000Z</time>
      </trkpt>
      <trkpt lat="42.69949" lon="1.65591">
        <ele>1392</ele>
        <time>2018-11-18T15:27:13.000Z</time>
      </trkpt>
      <trkpt lat="42.69949" lon="1.65591">
        <ele>1392</ele>
        <time>2018-11-18T15:27:15.000Z</time>
      </trkpt>
      <trkpt lat="42.6995" lon="1.65591">
        <ele>1392</ele>
        <time>2018-11-18T15:27:17.000Z</time>
      </trkpt>
      <trkpt lat="42.69952" lon="1.65592">
        <ele>1392</ele>
        <time>2018-11-18T15:27:19.000Z</time>
      </trkpt>
      <trkpt lat="42.69952" lon="1.65593">
        <ele>1392</ele>
        <time>2018-11-18T15:27:21.000Z</time>
      </trkpt>
      <trkpt lat="42.69953" lon="1.65593">
        <ele>1392</ele>
        <time>2018-11-18T15:27:23.000Z</time>
      </trkpt>
      <trkpt lat="42.69954" lon="1.65595">
        <ele>1392</ele>
        <time>2018-11-18T15:27:25.000Z</time>
      </trkpt>
      <trkpt lat="42.69955" lon="1.65595">
        <ele>1392</ele>
        <time>2018-11-18T15:27:27.000Z</time>
      </trkpt>
      <trkpt lat="42.69958" lon="1.65596">
        <ele>1392</ele>
        <time>2018-11-18T15:27:29.000Z</time>
      </trkpt>
      <trkpt lat="42.6996" lon="1.65598">
        <ele>1392</ele>
        <time>2018-11-18T15:27:31.000Z</time>
      </trkpt>
      <trkpt lat="42.69963" lon="1.656">
        <ele>1391</ele>
        <time>2018-11-18T15:27:33.000Z</time>
      </trkpt>
      <trkpt lat="42.69965" lon="1.65602">
        <ele>1391</ele>
        <time>2018-11-18T15:27:35.000Z</time>
      </trkpt>
      <trkpt lat="42.69967" lon="1.65602">
        <ele>1391</ele>
        <time>2018-11-18T15:27:37.000Z</time>
      </trkpt>
      <trkpt lat="42.69969" lon="1.65603">
        <ele>1391</ele>
        <time>2018-11-18T15:27:39.000Z</time>
      </trkpt>
      <trkpt lat="42.69971" lon="1.65603">
        <ele>1391</ele>
        <time>2018-11-18T15:27:41.000Z</time>
      </trkpt>
      <trkpt lat="42.69972" lon="1.65603">
        <ele>1391</ele>
        <time>2018-11-18T15:27:43.000Z</time>
      </trkpt>
      <trkpt lat="42.69975" lon="1.65603">
        <ele>1392</ele>
        <time>2018-11-18T15:27:45.000Z</time>
      </trkpt>
      <trkpt lat="42.69977" lon="1.65603">
        <ele>1392</ele>
        <time>2018-11-18T15:27:47.000Z</time>
      </trkpt>
      <trkpt lat="42.6998" lon="1.65603">
        <ele>1392</ele>
        <time>2018-11-18T15:27:49.000Z</time>
      </trkpt>
      <trkpt lat="42.69981" lon="1.65604">
        <ele>1392</ele>
        <time>2018-11-18T15:27:51.000Z</time>
      </trkpt>
      <trkpt lat="42.69983" lon="1.65604">
        <ele>1392</ele>
        <time>2018-11-18T15:27:53.000Z</time>
      </trkpt>
      <trkpt lat="42.69984" lon="1.65607">
        <ele>1391</ele>
        <time>2018-11-18T15:27:55.000Z</time>
      </trkpt>
      <trkpt lat="42.69984" lon="1.65609">
        <ele>1391</ele>
        <time>2018-11-18T15:27:57.000Z</time>
      </trkpt>
      <trkpt lat="42.69985" lon="1.6561">
        <ele>1391</ele>
        <time>2018-11-18T15:27:59.000Z</time>
      </trkpt>
      <trkpt lat="42.69986" lon="1.65611">
        <ele>1391</ele>
        <time>2018-11-18T15:28:01.000Z</time>
      </trkpt>
      <trkpt lat="42.69986" lon="1.65614">
        <ele>1391</ele>
        <time>2018-11-18T15:28:03.000Z</time>
      </trkpt>
      <trkpt lat="42.69987" lon="1.65614">
        <ele>1390</ele>
        <time>2018-11-18T15:28:05.000Z</time>
      </trkpt>
      <trkpt lat="42.69989" lon="1.65614">
        <ele>1391</ele>
        <time>2018-11-18T15:28:07.000Z</time>
      </trkpt>
      <trkpt lat="42.69991" lon="1.65614">
        <ele>1391</ele>
        <time>2018-11-18T15:28:09.000Z</time>
      </trkpt>
      <trkpt lat="42.69993" lon="1.65616">
        <ele>1391</ele>
        <time>2018-11-18T15:28:11.000Z</time>
      </trkpt>
      <trkpt lat="42.69996" lon="1.65617">
        <ele>1390</ele>
        <time>2018-11-18T15:28:13.000Z</time>
      </trkpt>
      <trkpt lat="42.69998" lon="1.65618">
        <ele>1390</ele>
        <time>2018-11-18T15:28:15.000Z</time>
      </trkpt>
      <trkpt lat="42.69999" lon="1.65619">
        <ele>1390</ele>
        <time>2018-11-18T15:28:17.000Z</time>
      </trkpt>
      <trkpt lat="42.69999" lon="1.65619">
        <ele>1390</ele>
        <time>2018-11-18T15:28:19.000Z</time>
      </trkpt>
      <trkpt lat="42.7" lon="1.6562">
        <ele>1390</ele>
        <time>2018-11-18T15:28:21.000Z</time>
      </trkpt>
      <trkpt lat="42.70003" lon="1.65621">
        <ele>1390</ele>
        <time>2018-11-18T15:28:23.000Z</time>
      </trkpt>
      <trkpt lat="42.70003" lon="1.65622">
        <ele>1390</ele>
        <time>2018-11-18T15:28:25.000Z</time>
      </trkpt>
      <trkpt lat="42.70005" lon="1.65624">
        <ele>1389</ele>
        <time>2018-11-18T15:28:27.000Z</time>
      </trkpt>
      <trkpt lat="42.70007" lon="1.65624">
        <ele>1389</ele>
        <time>2018-11-18T15:28:29.000Z</time>
      </trkpt>
      <trkpt lat="42.70006" lon="1.65625">
        <ele>1389</ele>
        <time>2018-11-18T15:28:31.000Z</time>
      </trkpt>
      <trkpt lat="42.70006" lon="1.65626">
        <ele>1389</ele>
        <time>2018-11-18T15:28:33.000Z</time>
      </trkpt>
      <trkpt lat="42.70003" lon="1.65629">
        <ele>1389</ele>
        <time>2018-11-18T15:28:35.000Z</time>
      </trkpt>
      <trkpt lat="42.70003" lon="1.65631">
        <ele>1389</ele>
        <time>2018-11-18T15:28:37.000Z</time>
      </trkpt>
      <trkpt lat="42.70004" lon="1.65632">
        <ele>1389</ele>
        <time>2018-11-18T15:28:39.000Z</time>
      </trkpt>
      <trkpt lat="42.70005" lon="1.6563">
        <ele>1389</ele>
        <time>2018-11-18T15:28:41.000Z</time>
      </trkpt>
      <trkpt lat="42.70006" lon="1.6563">
        <ele>1389</ele>
        <time>2018-11-18T15:28:43.000Z</time>
      </trkpt>
      <trkpt lat="42.70006" lon="1.6563">
        <ele>1388</ele>
        <time>2018-11-18T15:28:45.000Z</time>
      </trkpt>
      <trkpt lat="42.70006" lon="1.65631">
        <ele>1388</ele>
        <time>2018-11-18T15:28:47.000Z</time>
      </trkpt>
      <trkpt lat="42.70006" lon="1.65632">
        <ele>1388</ele>
        <time>2018-11-18T15:28:49.000Z</time>
      </trkpt>
      <trkpt lat="42.70007" lon="1.65632">
        <ele>1388</ele>
        <time>2018-11-18T15:28:51.000Z</time>
      </trkpt>
      <trkpt lat="42.70009" lon="1.65633">
        <ele>1387</ele>
        <time>2018-11-18T15:28:53.000Z</time>
      </trkpt>
      <trkpt lat="42.70011" lon="1.65634">
        <ele>1387</ele>
        <time>2018-11-18T15:28:55.000Z</time>
      </trkpt>
      <trkpt lat="42.70014" lon="1.65635">
        <ele>1386</ele>
        <time>2018-11-18T15:28:57.000Z</time>
      </trkpt>
      <trkpt lat="42.70018" lon="1.65634">
        <ele>1385</ele>
        <time>2018-11-18T15:28:59.000Z</time>
      </trkpt>
      <trkpt lat="42.7002" lon="1.65636">
        <ele>1385</ele>
        <time>2018-11-18T15:29:01.000Z</time>
      </trkpt>
      <trkpt lat="42.70022" lon="1.65635">
        <ele>1384</ele>
        <time>2018-11-18T15:29:03.000Z</time>
      </trkpt>
      <trkpt lat="42.70024" lon="1.65636">
        <ele>1384</ele>
        <time>2018-11-18T15:29:05.000Z</time>
      </trkpt>
      <trkpt lat="42.70026" lon="1.65636">
        <ele>1383</ele>
        <time>2018-11-18T15:29:07.000Z</time>
      </trkpt>
      <trkpt lat="42.70028" lon="1.65636">
        <ele>1383</ele>
        <time>2018-11-18T15:29:09.000Z</time>
      </trkpt>
      <trkpt lat="42.70028" lon="1.65636">
        <ele>1383</ele>
        <time>2018-11-18T15:29:11.000Z</time>
      </trkpt>
      <trkpt lat="42.7003" lon="1.65636">
        <ele>1383</ele>
        <time>2018-11-18T15:29:13.000Z</time>
      </trkpt>
      <trkpt lat="42.70031" lon="1.65634">
        <ele>1382</ele>
        <time>2018-11-18T15:29:15.000Z</time>
      </trkpt>
      <trkpt lat="42.70033" lon="1.65634">
        <ele>1382</ele>
        <time>2018-11-18T15:29:17.000Z</time>
      </trkpt>
      <trkpt lat="42.70034" lon="1.65633">
        <ele>1382</ele>
        <time>2018-11-18T15:29:19.000Z</time>
      </trkpt>
      <trkpt lat="42.70035" lon="1.65632">
        <ele>1382</ele>
        <time>2018-11-18T15:29:21.000Z</time>
      </trkpt>
      <trkpt lat="42.70035" lon="1.65631">
        <ele>1382</ele>
        <time>2018-11-18T15:29:23.000Z</time>
      </trkpt>
      <trkpt lat="42.70034" lon="1.65631">
        <ele>1382</ele>
        <time>2018-11-18T15:29:25.000Z</time>
      </trkpt>
      <trkpt lat="42.70035" lon="1.6563">
        <ele>1382</ele>
        <time>2018-11-18T15:29:27.000Z</time>
      </trkpt>
      <trkpt lat="42.70036" lon="1.6563">
        <ele>1382</ele>
        <time>2018-11-18T15:29:29.000Z</time>
      </trkpt>
      <trkpt lat="42.70038" lon="1.65631">
        <ele>1381</ele>
        <time>2018-11-18T15:29:31.000Z</time>
      </trkpt>
      <trkpt lat="42.70039" lon="1.65632">
        <ele>1381</ele>
        <time>2018-11-18T15:29:33.000Z</time>
      </trkpt>
      <trkpt lat="42.70041" lon="1.65632">
        <ele>1381</ele>
        <time>2018-11-18T15:29:35.000Z</time>
      </trkpt>
      <trkpt lat="42.70044" lon="1.65632">
        <ele>1380</ele>
        <time>2018-11-18T15:29:37.000Z</time>
      </trkpt>
      <trkpt lat="42.70046" lon="1.65631">
        <ele>1380</ele>
        <time>2018-11-18T15:29:39.000Z</time>
      </trkpt>
      <trkpt lat="42.70046" lon="1.65633">
        <ele>1380</ele>
        <time>2018-11-18T15:29:41.000Z</time>
      </trkpt>
      <trkpt lat="42.70046" lon="1.65634">
        <ele>1379</ele>
        <time>2018-11-18T15:29:43.000Z</time>
      </trkpt>
      <trkpt lat="42.70047" lon="1.65635">
        <ele>1379</ele>
        <time>2018-11-18T15:29:45.000Z</time>
      </trkpt>
      <trkpt lat="42.70049" lon="1.65636">
        <ele>1378</ele>
        <time>2018-11-18T15:29:47.000Z</time>
      </trkpt>
      <trkpt lat="42.70051" lon="1.65636">
        <ele>1378</ele>
        <time>2018-11-18T15:29:49.000Z</time>
      </trkpt>
      <trkpt lat="42.70053" lon="1.65637">
        <ele>1377</ele>
        <time>2018-11-18T15:29:51.000Z</time>
      </trkpt>
      <trkpt lat="42.70057" lon="1.65639">
        <ele>1376</ele>
        <time>2018-11-18T15:29:53.000Z</time>
      </trkpt>
      <trkpt lat="42.7006" lon="1.65641">
        <ele>1375</ele>
        <time>2018-11-18T15:29:55.000Z</time>
      </trkpt>
      <trkpt lat="42.70062" lon="1.65642">
        <ele>1375</ele>
        <time>2018-11-18T15:29:57.000Z</time>
      </trkpt>
      <trkpt lat="42.70065" lon="1.65644">
        <ele>1374</ele>
        <time>2018-11-18T15:29:59.000Z</time>
      </trkpt>
      <trkpt lat="42.70067" lon="1.65644">
        <ele>1373</ele>
        <time>2018-11-18T15:30:01.000Z</time>
      </trkpt>
      <trkpt lat="42.7007" lon="1.65646">
        <ele>1373</ele>
        <time>2018-11-18T15:30:03.000Z</time>
      </trkpt>
      <trkpt lat="42.70073" lon="1.65648">
        <ele>1372</ele>
        <time>2018-11-18T15:30:05.000Z</time>
      </trkpt>
      <trkpt lat="42.70076" lon="1.65649">
        <ele>1371</ele>
        <time>2018-11-18T15:30:07.000Z</time>
      </trkpt>
      <trkpt lat="42.70076" lon="1.6565">
        <ele>1371</ele>
        <time>2018-11-18T15:30:09.000Z</time>
      </trkpt>
      <trkpt lat="42.70076" lon="1.65652">
        <ele>1370</ele>
        <time>2018-11-18T15:30:11.000Z</time>
      </trkpt>
      <trkpt lat="42.70077" lon="1.65653">
        <ele>1370</ele>
        <time>2018-11-18T15:30:13.000Z</time>
      </trkpt>
      <trkpt lat="42.70077" lon="1.65653">
        <ele>1370</ele>
        <time>2018-11-18T15:30:15.000Z</time>
      </trkpt>
      <trkpt lat="42.70077" lon="1.65654">
        <ele>1370</ele>
        <time>2018-11-18T15:30:17.000Z</time>
      </trkpt>
      <trkpt lat="42.70078" lon="1.65653">
        <ele>1370</ele>
        <time>2018-11-18T15:30:19.000Z</time>
      </trkpt>
      <trkpt lat="42.70078" lon="1.65653">
        <ele>1370</ele>
        <time>2018-11-18T15:30:21.000Z</time>
      </trkpt>
      <trkpt lat="42.70077" lon="1.65653">
        <ele>1370</ele>
        <time>2018-11-18T15:30:23.000Z</time>
      </trkpt>
      <trkpt lat="42.70078" lon="1.65654">
        <ele>1370</ele>
        <time>2018-11-18T15:30:25.000Z</time>
      </trkpt>
      <trkpt lat="42.70078" lon="1.65655">
        <ele>1370</ele>
        <time>2018-11-18T15:30:27.000Z</time>
      </trkpt>
      <trkpt lat="42.70079" lon="1.65657">
        <ele>1369</ele>
        <time>2018-11-18T15:30:29.000Z</time>
      </trkpt>
      <trkpt lat="42.70079" lon="1.65659">
        <ele>1369</ele>
        <time>2018-11-18T15:30:31.000Z</time>
      </trkpt>
      <trkpt lat="42.70081" lon="1.65659">
        <ele>1368</ele>
        <time>2018-11-18T15:30:33.000Z</time>
      </trkpt>
      <trkpt lat="42.70085" lon="1.65661">
        <ele>1368</ele>
        <time>2018-11-18T15:30:35.000Z</time>
      </trkpt>
      <trkpt lat="42.70087" lon="1.65664">
        <ele>1367</ele>
        <time>2018-11-18T15:30:37.000Z</time>
      </trkpt>
      <trkpt lat="42.70091" lon="1.65666">
        <ele>1367</ele>
        <time>2018-11-18T15:30:39.000Z</time>
      </trkpt>
      <trkpt lat="42.70094" lon="1.65667">
        <ele>1367</ele>
        <time>2018-11-18T15:30:41.000Z</time>
      </trkpt>
      <trkpt lat="42.70097" lon="1.65667">
        <ele>1367</ele>
        <time>2018-11-18T15:30:43.000Z</time>
      </trkpt>
      <trkpt lat="42.70099" lon="1.65668">
        <ele>1367</ele>
        <time>2018-11-18T15:30:45.000Z</time>
      </trkpt>
      <trkpt lat="42.70101" lon="1.65669">
        <ele>1367</ele>
        <time>2018-11-18T15:30:47.000Z</time>
      </trkpt>
      <trkpt lat="42.70103" lon="1.6567">
        <ele>1367</ele>
        <time>2018-11-18T15:30:49.000Z</time>
      </trkpt>
      <trkpt lat="42.70105" lon="1.65671">
        <ele>1367</ele>
        <time>2018-11-18T15:30:51.000Z</time>
      </trkpt>
      <trkpt lat="42.70104" lon="1.65672">
        <ele>1367</ele>
        <time>2018-11-18T15:30:53.000Z</time>
      </trkpt>
      <trkpt lat="42.70103" lon="1.65674">
        <ele>1367</ele>
        <time>2018-11-18T15:30:55.000Z</time>
      </trkpt>
      <trkpt lat="42.70104" lon="1.65676">
        <ele>1367</ele>
        <time>2018-11-18T15:30:57.000Z</time>
      </trkpt>
      <trkpt lat="42.70104" lon="1.65678">
        <ele>1367</ele>
        <time>2018-11-18T15:30:59.000Z</time>
      </trkpt>
      <trkpt lat="42.70103" lon="1.65679">
        <ele>1366</ele>
        <time>2018-11-18T15:31:01.000Z</time>
      </trkpt>
      <trkpt lat="42.70101" lon="1.65679">
        <ele>1366</ele>
        <time>2018-11-18T15:31:03.000Z</time>
      </trkpt>
      <trkpt lat="42.70098" lon="1.65679">
        <ele>1366</ele>
        <time>2018-11-18T15:31:05.000Z</time>
      </trkpt>
      <trkpt lat="42.70099" lon="1.65679">
        <ele>1366</ele>
        <time>2018-11-18T15:31:07.000Z</time>
      </trkpt>
      <trkpt lat="42.701" lon="1.65679">
        <ele>1366</ele>
        <time>2018-11-18T15:31:09.000Z</time>
      </trkpt>
      <trkpt lat="42.70101" lon="1.65681">
        <ele>1366</ele>
        <time>2018-11-18T15:31:11.000Z</time>
      </trkpt>
      <trkpt lat="42.70101" lon="1.65683">
        <ele>1366</ele>
        <time>2018-11-18T15:31:13.000Z</time>
      </trkpt>
      <trkpt lat="42.70101" lon="1.65685">
        <ele>1365</ele>
        <time>2018-11-18T15:31:15.000Z</time>
      </trkpt>
      <trkpt lat="42.70102" lon="1.65687">
        <ele>1365</ele>
        <time>2018-11-18T15:31:17.000Z</time>
      </trkpt>
      <trkpt lat="42.70101" lon="1.65688">
        <ele>1365</ele>
        <time>2018-11-18T15:31:19.000Z</time>
      </trkpt>
      <trkpt lat="42.70103" lon="1.65689">
        <ele>1365</ele>
        <time>2018-11-18T15:31:21.000Z</time>
      </trkpt>
      <trkpt lat="42.70105" lon="1.6569">
        <ele>1365</ele>
        <time>2018-11-18T15:31:23.000Z</time>
      </trkpt>
      <trkpt lat="42.70109" lon="1.65691">
        <ele>1365</ele>
        <time>2018-11-18T15:31:25.000Z</time>
      </trkpt>
      <trkpt lat="42.70109" lon="1.65693">
        <ele>1365</ele>
        <time>2018-11-18T15:31:27.000Z</time>
      </trkpt>
      <trkpt lat="42.70112" lon="1.65694">
        <ele>1365</ele>
        <time>2018-11-18T15:31:29.000Z</time>
      </trkpt>
      <trkpt lat="42.70112" lon="1.65695">
        <ele>1365</ele>
        <time>2018-11-18T15:31:31.000Z</time>
      </trkpt>
      <trkpt lat="42.70111" lon="1.65696">
        <ele>1365</ele>
        <time>2018-11-18T15:31:33.000Z</time>
      </trkpt>
      <trkpt lat="42.70111" lon="1.65697">
        <ele>1365</ele>
        <time>2018-11-18T15:31:35.000Z</time>
      </trkpt>
      <trkpt lat="42.7011" lon="1.65698">
        <ele>1365</ele>
        <time>2018-11-18T15:31:37.000Z</time>
      </trkpt>
      <trkpt lat="42.7011" lon="1.65699">
        <ele>1365</ele>
        <time>2018-11-18T15:31:39.000Z</time>
      </trkpt>
      <trkpt lat="42.70111" lon="1.657">
        <ele>1365</ele>
        <time>2018-11-18T15:31:41.000Z</time>
      </trkpt>
      <trkpt lat="42.70111" lon="1.65701">
        <ele>1364</ele>
        <time>2018-11-18T15:31:43.000Z</time>
      </trkpt>
      <trkpt lat="42.70112" lon="1.65702">
        <ele>1364</ele>
        <time>2018-11-18T15:31:45.000Z</time>
      </trkpt>
      <trkpt lat="42.70114" lon="1.65704">
        <ele>1364</ele>
        <time>2018-11-18T15:31:47.000Z</time>
      </trkpt>
      <trkpt lat="42.70114" lon="1.65705">
        <ele>1364</ele>
        <time>2018-11-18T15:31:49.000Z</time>
      </trkpt>
      <trkpt lat="42.70113" lon="1.65707">
        <ele>1364</ele>
        <time>2018-11-18T15:31:51.000Z</time>
      </trkpt>
      <trkpt lat="42.70113" lon="1.65708">
        <ele>1364</ele>
        <time>2018-11-18T15:31:53.000Z</time>
      </trkpt>
      <trkpt lat="42.70112" lon="1.65709">
        <ele>1364</ele>
        <time>2018-11-18T15:31:55.000Z</time>
      </trkpt>
      <trkpt lat="42.70111" lon="1.6571">
        <ele>1363</ele>
        <time>2018-11-18T15:31:57.000Z</time>
      </trkpt>
      <trkpt lat="42.7011" lon="1.65711">
        <ele>1363</ele>
        <time>2018-11-18T15:31:59.000Z</time>
      </trkpt>
      <trkpt lat="42.70109" lon="1.65712">
        <ele>1363</ele>
        <time>2018-11-18T15:32:01.000Z</time>
      </trkpt>
      <trkpt lat="42.70109" lon="1.65712">
        <ele>1363</ele>
        <time>2018-11-18T15:32:03.000Z</time>
      </trkpt>
      <trkpt lat="42.70107" lon="1.65712">
        <ele>1363</ele>
        <time>2018-11-18T15:32:05.000Z</time>
      </trkpt>
      <trkpt lat="42.70107" lon="1.65713">
        <ele>1363</ele>
        <time>2018-11-18T15:32:07.000Z</time>
      </trkpt>
      <trkpt lat="42.70107" lon="1.65714">
        <ele>1363</ele>
        <time>2018-11-18T15:32:09.000Z</time>
      </trkpt>
      <trkpt lat="42.70107" lon="1.65715">
        <ele>1363</ele>
        <time>2018-11-18T15:32:11.000Z</time>
      </trkpt>
      <trkpt lat="42.70105" lon="1.65718">
        <ele>1362</ele>
        <time>2018-11-18T15:32:13.000Z</time>
      </trkpt>
      <trkpt lat="42.70106" lon="1.65719">
        <ele>1362</ele>
        <time>2018-11-18T15:32:15.000Z</time>
      </trkpt>
      <trkpt lat="42.70107" lon="1.65721">
        <ele>1362</ele>
        <time>2018-11-18T15:32:17.000Z</time>
      </trkpt>
      <trkpt lat="42.70105" lon="1.65722">
        <ele>1362</ele>
        <time>2018-11-18T15:32:19.000Z</time>
      </trkpt>
      <trkpt lat="42.70104" lon="1.65723">
        <ele>1362</ele>
        <time>2018-11-18T15:32:21.000Z</time>
      </trkpt>
      <trkpt lat="42.70106" lon="1.65723">
        <ele>1362</ele>
        <time>2018-11-18T15:32:23.000Z</time>
      </trkpt>
      <trkpt lat="42.70108" lon="1.65724">
        <ele>1362</ele>
        <time>2018-11-18T15:32:25.000Z</time>
      </trkpt>
      <trkpt lat="42.70109" lon="1.65724">
        <ele>1362</ele>
        <time>2018-11-18T15:32:27.000Z</time>
      </trkpt>
      <trkpt lat="42.70111" lon="1.65724">
        <ele>1362</ele>
        <time>2018-11-18T15:32:29.000Z</time>
      </trkpt>
      <trkpt lat="42.70113" lon="1.65725">
        <ele>1362</ele>
        <time>2018-11-18T15:32:31.000Z</time>
      </trkpt>
      <trkpt lat="42.70114" lon="1.65725">
        <ele>1362</ele>
        <time>2018-11-18T15:32:33.000Z</time>
      </trkpt>
      <trkpt lat="42.70116" lon="1.65724">
        <ele>1362</ele>
        <time>2018-11-18T15:32:35.000Z</time>
      </trkpt>
      <trkpt lat="42.70118" lon="1.65724">
        <ele>1362</ele>
        <time>2018-11-18T15:32:37.000Z</time>
      </trkpt>
      <trkpt lat="42.70121" lon="1.65725">
        <ele>1363</ele>
        <time>2018-11-18T15:32:39.000Z</time>
      </trkpt>
      <trkpt lat="42.70122" lon="1.65725">
        <ele>1363</ele>
        <time>2018-11-18T15:32:41.000Z</time>
      </trkpt>
      <trkpt lat="42.70124" lon="1.65725">
        <ele>1363</ele>
        <time>2018-11-18T15:32:43.000Z</time>
      </trkpt>
      <trkpt lat="42.70123" lon="1.65725">
        <ele>1363</ele>
        <time>2018-11-18T15:32:45.000Z</time>
      </trkpt>
      <trkpt lat="42.70123" lon="1.65725">
        <ele>1363</ele>
        <time>2018-11-18T15:32:47.000Z</time>
      </trkpt>
      <trkpt lat="42.70122" lon="1.65725">
        <ele>1363</ele>
        <time>2018-11-18T15:32:49.000Z</time>
      </trkpt>
      <trkpt lat="42.70123" lon="1.65724">
        <ele>1363</ele>
        <time>2018-11-18T15:32:51.000Z</time>
      </trkpt>
      <trkpt lat="42.70124" lon="1.65724">
        <ele>1363</ele>
        <time>2018-11-18T15:32:53.000Z</time>
      </trkpt>
      <trkpt lat="42.70127" lon="1.65725">
        <ele>1363</ele>
        <time>2018-11-18T15:32:55.000Z</time>
      </trkpt>
      <trkpt lat="42.70129" lon="1.65726">
        <ele>1363</ele>
        <time>2018-11-18T15:32:57.000Z</time>
      </trkpt>
      <trkpt lat="42.70131" lon="1.65727">
        <ele>1363</ele>
        <time>2018-11-18T15:32:59.000Z</time>
      </trkpt>
      <trkpt lat="42.7013" lon="1.65727">
        <ele>1363</ele>
        <time>2018-11-18T15:33:01.000Z</time>
      </trkpt>
      <trkpt lat="42.7013" lon="1.65727">
        <ele>1363</ele>
        <time>2018-11-18T15:33:03.000Z</time>
      </trkpt>
      <trkpt lat="42.70129" lon="1.65727">
        <ele>1363</ele>
        <time>2018-11-18T15:33:05.000Z</time>
      </trkpt>
      <trkpt lat="42.70128" lon="1.65727">
        <ele>1363</ele>
        <time>2018-11-18T15:33:07.000Z</time>
      </trkpt>
      <trkpt lat="42.70126" lon="1.65727">
        <ele>1363</ele>
        <time>2018-11-18T15:33:09.000Z</time>
      </trkpt>
      <trkpt lat="42.70127" lon="1.65727">
        <ele>1363</ele>
        <time>2018-11-18T15:33:11.000Z</time>
      </trkpt>
      <trkpt lat="42.70128" lon="1.65727">
        <ele>1363</ele>
        <time>2018-11-18T15:33:13.000Z</time>
      </trkpt>
      <trkpt lat="42.70129" lon="1.65728">
        <ele>1363</ele>
        <time>2018-11-18T15:33:15.000Z</time>
      </trkpt>
      <trkpt lat="42.70131" lon="1.65728">
        <ele>1363</ele>
        <time>2018-11-18T15:33:17.000Z</time>
      </trkpt>
      <trkpt lat="42.70132" lon="1.65729">
        <ele>1363</ele>
        <time>2018-11-18T15:33:19.000Z</time>
      </trkpt>
      <trkpt lat="42.70133" lon="1.6573">
        <ele>1363</ele>
        <time>2018-11-18T15:33:21.000Z</time>
      </trkpt>
      <trkpt lat="42.70135" lon="1.6573">
        <ele>1363</ele>
        <time>2018-11-18T15:33:23.000Z</time>
      </trkpt>
      <trkpt lat="42.70135" lon="1.65731">
        <ele>1363</ele>
        <time>2018-11-18T15:33:25.000Z</time>
      </trkpt>
      <trkpt lat="42.70136" lon="1.65731">
        <ele>1363</ele>
        <time>2018-11-18T15:33:27.000Z</time>
      </trkpt>
      <trkpt lat="42.70135" lon="1.65732">
        <ele>1363</ele>
        <time>2018-11-18T15:33:29.000Z</time>
      </trkpt>
      <trkpt lat="42.70138" lon="1.65733">
        <ele>1363</ele>
        <time>2018-11-18T15:33:31.000Z</time>
      </trkpt>
      <trkpt lat="42.70139" lon="1.65734">
        <ele>1363</ele>
        <time>2018-11-18T15:33:33.000Z</time>
      </trkpt>
      <trkpt lat="42.70141" lon="1.65735">
        <ele>1363</ele>
        <time>2018-11-18T15:33:35.000Z</time>
      </trkpt>
      <trkpt lat="42.7014" lon="1.65736">
        <ele>1363</ele>
        <time>2018-11-18T15:33:37.000Z</time>
      </trkpt>
      <trkpt lat="42.70141" lon="1.65738">
        <ele>1363</ele>
        <time>2018-11-18T15:33:39.000Z</time>
      </trkpt>
      <trkpt lat="42.70142" lon="1.65738">
        <ele>1362</ele>
        <time>2018-11-18T15:33:41.000Z</time>
      </trkpt>
      <trkpt lat="42.70143" lon="1.65741">
        <ele>1362</ele>
        <time>2018-11-18T15:33:43.000Z</time>
      </trkpt>
      <trkpt lat="42.70142" lon="1.65743">
        <ele>1361</ele>
        <time>2018-11-18T15:33:45.000Z</time>
      </trkpt>
      <trkpt lat="42.70142" lon="1.65745">
        <ele>1361</ele>
        <time>2018-11-18T15:33:47.000Z</time>
      </trkpt>
      <trkpt lat="42.70143" lon="1.65746">
        <ele>1361</ele>
        <time>2018-11-18T15:33:49.000Z</time>
      </trkpt>
      <trkpt lat="42.70144" lon="1.65748">
        <ele>1360</ele>
        <time>2018-11-18T15:33:51.000Z</time>
      </trkpt>
      <trkpt lat="42.70144" lon="1.6575">
        <ele>1360</ele>
        <time>2018-11-18T15:33:53.000Z</time>
      </trkpt>
      <trkpt lat="42.70145" lon="1.65752">
        <ele>1359</ele>
        <time>2018-11-18T15:33:55.000Z</time>
      </trkpt>
      <trkpt lat="42.70145" lon="1.65752">
        <ele>1359</ele>
        <time>2018-11-18T15:33:57.000Z</time>
      </trkpt>
      <trkpt lat="42.70146" lon="1.65752">
        <ele>1359</ele>
        <time>2018-11-18T15:33:59.000Z</time>
      </trkpt>
      <trkpt lat="42.70146" lon="1.65753">
        <ele>1359</ele>
        <time>2018-11-18T15:34:01.000Z</time>
      </trkpt>
      <trkpt lat="42.70147" lon="1.65754">
        <ele>1359</ele>
        <time>2018-11-18T15:34:03.000Z</time>
      </trkpt>
      <trkpt lat="42.70146" lon="1.65755">
        <ele>1359</ele>
        <time>2018-11-18T15:34:05.000Z</time>
      </trkpt>
      <trkpt lat="42.70146" lon="1.65756">
        <ele>1359</ele>
        <time>2018-11-18T15:34:07.000Z</time>
      </trkpt>
      <trkpt lat="42.70147" lon="1.65757">
        <ele>1358</ele>
        <time>2018-11-18T15:34:09.000Z</time>
      </trkpt>
      <trkpt lat="42.70146" lon="1.6576">
        <ele>1358</ele>
        <time>2018-11-18T15:34:11.000Z</time>
      </trkpt>
      <trkpt lat="42.70145" lon="1.65762">
        <ele>1357</ele>
        <time>2018-11-18T15:34:13.000Z</time>
      </trkpt>
      <trkpt lat="42.70144" lon="1.65764">
        <ele>1356</ele>
        <time>2018-11-18T15:34:15.000Z</time>
      </trkpt>
      <trkpt lat="42.70145" lon="1.65766">
        <ele>1356</ele>
        <time>2018-11-18T15:34:17.000Z</time>
      </trkpt>
      <trkpt lat="42.70146" lon="1.65768">
        <ele>1356</ele>
        <time>2018-11-18T15:34:19.000Z</time>
      </trkpt>
      <trkpt lat="42.70147" lon="1.65769">
        <ele>1355</ele>
        <time>2018-11-18T15:34:21.000Z</time>
      </trkpt>
      <trkpt lat="42.70147" lon="1.65771">
        <ele>1355</ele>
        <time>2018-11-18T15:34:23.000Z</time>
      </trkpt>
      <trkpt lat="42.70146" lon="1.65774">
        <ele>1354</ele>
        <time>2018-11-18T15:34:25.000Z</time>
      </trkpt>
      <trkpt lat="42.70147" lon="1.65776">
        <ele>1354</ele>
        <time>2018-11-18T15:34:27.000Z</time>
      </trkpt>
      <trkpt lat="42.70148" lon="1.65778">
        <ele>1353</ele>
        <time>2018-11-18T15:34:29.000Z</time>
      </trkpt>
      <trkpt lat="42.70148" lon="1.65781">
        <ele>1353</ele>
        <time>2018-11-18T15:34:31.000Z</time>
      </trkpt>
      <trkpt lat="42.7015" lon="1.65783">
        <ele>1352</ele>
        <time>2018-11-18T15:34:33.000Z</time>
      </trkpt>
      <trkpt lat="42.70151" lon="1.65785">
        <ele>1352</ele>
        <time>2018-11-18T15:34:35.000Z</time>
      </trkpt>
      <trkpt lat="42.70151" lon="1.65787">
        <ele>1351</ele>
        <time>2018-11-18T15:34:37.000Z</time>
      </trkpt>
      <trkpt lat="42.70151" lon="1.65789">
        <ele>1351</ele>
        <time>2018-11-18T15:34:39.000Z</time>
      </trkpt>
      <trkpt lat="42.70151" lon="1.6579">
        <ele>1351</ele>
        <time>2018-11-18T15:34:41.000Z</time>
      </trkpt>
      <trkpt lat="42.70151" lon="1.65792">
        <ele>1350</ele>
        <time>2018-11-18T15:34:43.000Z</time>
      </trkpt>
      <trkpt lat="42.70151" lon="1.65793">
        <ele>1350</ele>
        <time>2018-11-18T15:34:45.000Z</time>
      </trkpt>
      <trkpt lat="42.70152" lon="1.65795">
        <ele>1349</ele>
        <time>2018-11-18T15:34:47.000Z</time>
      </trkpt>
      <trkpt lat="42.70153" lon="1.65797">
        <ele>1349</ele>
        <time>2018-11-18T15:34:49.000Z</time>
      </trkpt>
      <trkpt lat="42.70153" lon="1.65798">
        <ele>1349</ele>
        <time>2018-11-18T15:34:51.000Z</time>
      </trkpt>
      <trkpt lat="42.70153" lon="1.65798">
        <ele>1349</ele>
        <time>2018-11-18T15:34:53.000Z</time>
      </trkpt>
      <trkpt lat="42.70153" lon="1.65799">
        <ele>1349</ele>
        <time>2018-11-18T15:34:55.000Z</time>
      </trkpt>
      <trkpt lat="42.70152" lon="1.658">
        <ele>1348</ele>
        <time>2018-11-18T15:34:57.000Z</time>
      </trkpt>
      <trkpt lat="42.70151" lon="1.65801">
        <ele>1348</ele>
        <time>2018-11-18T15:34:59.000Z</time>
      </trkpt>
      <trkpt lat="42.7015" lon="1.65801">
        <ele>1348</ele>
        <time>2018-11-18T15:35:01.000Z</time>
      </trkpt>
      <trkpt lat="42.7015" lon="1.65802">
        <ele>1348</ele>
        <time>2018-11-18T15:35:03.000Z</time>
      </trkpt>
      <trkpt lat="42.70149" lon="1.65801">
        <ele>1348</ele>
        <time>2018-11-18T15:35:05.000Z</time>
      </trkpt>
      <trkpt lat="42.70148" lon="1.65802">
        <ele>1348</ele>
        <time>2018-11-18T15:35:07.000Z</time>
      </trkpt>
      <trkpt lat="42.70148" lon="1.65803">
        <ele>1347</ele>
        <time>2018-11-18T15:35:09.000Z</time>
      </trkpt>
      <trkpt lat="42.70148" lon="1.65803">
        <ele>1347</ele>
        <time>2018-11-18T15:35:11.000Z</time>
      </trkpt>
      <trkpt lat="42.70148" lon="1.65804">
        <ele>1347</ele>
        <time>2018-11-18T15:35:13.000Z</time>
      </trkpt>
      <trkpt lat="42.70149" lon="1.65805">
        <ele>1347</ele>
        <time>2018-11-18T15:35:15.000Z</time>
      </trkpt>
      <trkpt lat="42.70148" lon="1.65806">
        <ele>1347</ele>
        <time>2018-11-18T15:35:17.000Z</time>
      </trkpt>
      <trkpt lat="42.70148" lon="1.65807">
        <ele>1346</ele>
        <time>2018-11-18T15:35:19.000Z</time>
      </trkpt>
      <trkpt lat="42.70149" lon="1.65808">
        <ele>1346</ele>
        <time>2018-11-18T15:35:21.000Z</time>
      </trkpt>
      <trkpt lat="42.70149" lon="1.65809">
        <ele>1346</ele>
        <time>2018-11-18T15:35:23.000Z</time>
      </trkpt>
      <trkpt lat="42.70149" lon="1.65812">
        <ele>1345</ele>
        <time>2018-11-18T15:35:25.000Z</time>
      </trkpt>
      <trkpt lat="42.7015" lon="1.65814">
        <ele>1345</ele>
        <time>2018-11-18T15:35:27.000Z</time>
      </trkpt>
      <trkpt lat="42.70151" lon="1.65815">
        <ele>1345</ele>
        <time>2018-11-18T15:35:29.000Z</time>
      </trkpt>
      <trkpt lat="42.70151" lon="1.65816">
        <ele>1344</ele>
        <time>2018-11-18T15:35:31.000Z</time>
      </trkpt>
      <trkpt lat="42.70152" lon="1.65817">
        <ele>1344</ele>
        <time>2018-11-18T15:35:33.000Z</time>
      </trkpt>
      <trkpt lat="42.70153" lon="1.65818">
        <ele>1344</ele>
        <time>2018-11-18T15:35:35.000Z</time>
      </trkpt>
      <trkpt lat="42.70152" lon="1.65819">
        <ele>1344</ele>
        <time>2018-11-18T15:35:37.000Z</time>
      </trkpt>
      <trkpt lat="42.70153" lon="1.6582">
        <ele>1343</ele>
        <time>2018-11-18T15:35:39.000Z</time>
      </trkpt>
      <trkpt lat="42.70153" lon="1.65822">
        <ele>1343</ele>
        <time>2018-11-18T15:35:41.000Z</time>
      </trkpt>
      <trkpt lat="42.70154" lon="1.65823">
        <ele>1342</ele>
        <time>2018-11-18T15:35:43.000Z</time>
      </trkpt>
      <trkpt lat="42.70156" lon="1.65825">
        <ele>1342</ele>
        <time>2018-11-18T15:35:45.000Z</time>
      </trkpt>
      <trkpt lat="42.70156" lon="1.65826">
        <ele>1342</ele>
        <time>2018-11-18T15:35:47.000Z</time>
      </trkpt>
      <trkpt lat="42.70155" lon="1.65828">
        <ele>1341</ele>
        <time>2018-11-18T15:35:49.000Z</time>
      </trkpt>
      <trkpt lat="42.70154" lon="1.65829">
        <ele>1340</ele>
        <time>2018-11-18T15:35:51.000Z</time>
      </trkpt>
      <trkpt lat="42.70154" lon="1.65831">
        <ele>1340</ele>
        <time>2018-11-18T15:35:53.000Z</time>
      </trkpt>
      <trkpt lat="42.70154" lon="1.65833">
        <ele>1339</ele>
        <time>2018-11-18T15:35:55.000Z</time>
      </trkpt>
      <trkpt lat="42.70153" lon="1.65833">
        <ele>1339</ele>
        <time>2018-11-18T15:35:57.000Z</time>
      </trkpt>
      <trkpt lat="42.70153" lon="1.65833">
        <ele>1339</ele>
        <time>2018-11-18T15:35:59.000Z</time>
      </trkpt>
      <trkpt lat="42.70152" lon="1.65833">
        <ele>1339</ele>
        <time>2018-11-18T15:36:01.000Z</time>
      </trkpt>
      <trkpt lat="42.70152" lon="1.65835">
        <ele>1339</ele>
        <time>2018-11-18T15:36:03.000Z</time>
      </trkpt>
      <trkpt lat="42.70152" lon="1.65835">
        <ele>1338</ele>
        <time>2018-11-18T15:36:05.000Z</time>
      </trkpt>
      <trkpt lat="42.70152" lon="1.65835">
        <ele>1338</ele>
        <time>2018-11-18T15:36:07.000Z</time>
      </trkpt>
      <trkpt lat="42.70151" lon="1.65836">
        <ele>1338</ele>
        <time>2018-11-18T15:36:09.000Z</time>
      </trkpt>
      <trkpt lat="42.70151" lon="1.65837">
        <ele>1338</ele>
        <time>2018-11-18T15:36:11.000Z</time>
      </trkpt>
      <trkpt lat="42.70151" lon="1.65838">
        <ele>1337</ele>
        <time>2018-11-18T15:36:13.000Z</time>
      </trkpt>
      <trkpt lat="42.70151" lon="1.65837">
        <ele>1338</ele>
        <time>2018-11-18T15:36:15.000Z</time>
      </trkpt>
      <trkpt lat="42.7015" lon="1.65837">
        <ele>1337</ele>
        <time>2018-11-18T15:36:17.000Z</time>
      </trkpt>
      <trkpt lat="42.7015" lon="1.65838">
        <ele>1337</ele>
        <time>2018-11-18T15:36:19.000Z</time>
      </trkpt>
      <trkpt lat="42.70151" lon="1.65838">
        <ele>1337</ele>
        <time>2018-11-18T15:36:21.000Z</time>
      </trkpt>
      <trkpt lat="42.70152" lon="1.65838">
        <ele>1337</ele>
        <time>2018-11-18T15:36:23.000Z</time>
      </trkpt>
      <trkpt lat="42.70152" lon="1.65839">
        <ele>1337</ele>
        <time>2018-11-18T15:36:25.000Z</time>
      </trkpt>
      <trkpt lat="42.70152" lon="1.6584">
        <ele>1337</ele>
        <time>2018-11-18T15:36:27.000Z</time>
      </trkpt>
      <trkpt lat="42.70154" lon="1.65841">
        <ele>1337</ele>
        <time>2018-11-18T15:36:29.000Z</time>
      </trkpt>
      <trkpt lat="42.70154" lon="1.65843">
        <ele>1336</ele>
        <time>2018-11-18T15:36:31.000Z</time>
      </trkpt>
      <trkpt lat="42.70154" lon="1.65845">
        <ele>1335</ele>
        <time>2018-11-18T15:36:33.000Z</time>
      </trkpt>
      <trkpt lat="42.70155" lon="1.65846">
        <ele>1335</ele>
        <time>2018-11-18T15:36:35.000Z</time>
      </trkpt>
      <trkpt lat="42.70155" lon="1.65848">
        <ele>1335</ele>
        <time>2018-11-18T15:36:37.000Z</time>
      </trkpt>
      <trkpt lat="42.70157" lon="1.6585">
        <ele>1334</ele>
        <time>2018-11-18T15:36:39.000Z</time>
      </trkpt>
      <trkpt lat="42.70158" lon="1.65852">
        <ele>1334</ele>
        <time>2018-11-18T15:36:41.000Z</time>
      </trkpt>
      <trkpt lat="42.70158" lon="1.65853">
        <ele>1333</ele>
        <time>2018-11-18T15:36:43.000Z</time>
      </trkpt>
      <trkpt lat="42.70158" lon="1.65854">
        <ele>1333</ele>
        <time>2018-11-18T15:36:45.000Z</time>
      </trkpt>
      <trkpt lat="42.70158" lon="1.65856">
        <ele>1332</ele>
        <time>2018-11-18T15:36:47.000Z</time>
      </trkpt>
      <trkpt lat="42.70159" lon="1.65857">
        <ele>1332</ele>
        <time>2018-11-18T15:36:49.000Z</time>
      </trkpt>
      <trkpt lat="42.70158" lon="1.65858">
        <ele>1332</ele>
        <time>2018-11-18T15:36:51.000Z</time>
      </trkpt>
      <trkpt lat="42.70157" lon="1.6586">
        <ele>1331</ele>
        <time>2018-11-18T15:36:53.000Z</time>
      </trkpt>
      <trkpt lat="42.70157" lon="1.65862">
        <ele>1330</ele>
        <time>2018-11-18T15:36:55.000Z</time>
      </trkpt>
      <trkpt lat="42.70157" lon="1.65863">
        <ele>1330</ele>
        <time>2018-11-18T15:36:57.000Z</time>
      </trkpt>
      <trkpt lat="42.70157" lon="1.65864">
        <ele>1329</ele>
        <time>2018-11-18T15:36:59.000Z</time>
      </trkpt>
      <trkpt lat="42.70157" lon="1.65865">
        <ele>1329</ele>
        <time>2018-11-18T15:37:01.000Z</time>
      </trkpt>
      <trkpt lat="42.70157" lon="1.65865">
        <ele>1329</ele>
        <time>2018-11-18T15:37:03.000Z</time>
      </trkpt>
      <trkpt lat="42.70158" lon="1.65867">
        <ele>1329</ele>
        <time>2018-11-18T15:37:05.000Z</time>
      </trkpt>
      <trkpt lat="42.70158" lon="1.65867">
        <ele>1328</ele>
        <time>2018-11-18T15:37:07.000Z</time>
      </trkpt>
      <trkpt lat="42.70159" lon="1.65868">
        <ele>1328</ele>
        <time>2018-11-18T15:37:09.000Z</time>
      </trkpt>
      <trkpt lat="42.7016" lon="1.65869">
        <ele>1328</ele>
        <time>2018-11-18T15:37:11.000Z</time>
      </trkpt>
      <trkpt lat="42.70159" lon="1.65871">
        <ele>1327</ele>
        <time>2018-11-18T15:37:13.000Z</time>
      </trkpt>
      <trkpt lat="42.70156" lon="1.65873">
        <ele>1326</ele>
        <time>2018-11-18T15:37:15.000Z</time>
      </trkpt>
      <trkpt lat="42.70155" lon="1.65874">
        <ele>1326</ele>
        <time>2018-11-18T15:37:17.000Z</time>
      </trkpt>
      <trkpt lat="42.70156" lon="1.65875">
        <ele>1326</ele>
        <time>2018-11-18T15:37:19.000Z</time>
      </trkpt>
      <trkpt lat="42.70157" lon="1.65876">
        <ele>1326</ele>
        <time>2018-11-18T15:37:21.000Z</time>
      </trkpt>
      <trkpt lat="42.70158" lon="1.65876">
        <ele>1326</ele>
        <time>2018-11-18T15:37:23.000Z</time>
      </trkpt>
      <trkpt lat="42.70158" lon="1.65878">
        <ele>1325</ele>
        <time>2018-11-18T15:37:25.000Z</time>
      </trkpt>
      <trkpt lat="42.70157" lon="1.65879">
        <ele>1325</ele>
        <time>2018-11-18T15:37:27.000Z</time>
      </trkpt>
      <trkpt lat="42.70157" lon="1.65879">
        <ele>1325</ele>
        <time>2018-11-18T15:37:29.000Z</time>
      </trkpt>
      <trkpt lat="42.70156" lon="1.65879">
        <ele>1324</ele>
        <time>2018-11-18T15:37:31.000Z</time>
      </trkpt>
      <trkpt lat="42.70156" lon="1.6588">
        <ele>1324</ele>
        <time>2018-11-18T15:37:33.000Z</time>
      </trkpt>
      <trkpt lat="42.70155" lon="1.6588">
        <ele>1324</ele>
        <time>2018-11-18T15:37:35.000Z</time>
      </trkpt>
      <trkpt lat="42.70155" lon="1.6588">
        <ele>1324</ele>
        <time>2018-11-18T15:37:37.000Z</time>
      </trkpt>
      <trkpt lat="42.70154" lon="1.6588">
        <ele>1324</ele>
        <time>2018-11-18T15:37:39.000Z</time>
      </trkpt>
      <trkpt lat="42.70154" lon="1.65881">
        <ele>1324</ele>
        <time>2018-11-18T15:37:41.000Z</time>
      </trkpt>
      <trkpt lat="42.70154" lon="1.65881">
        <ele>1324</ele>
        <time>2018-11-18T15:37:43.000Z</time>
      </trkpt>
      <trkpt lat="42.70153" lon="1.65881">
        <ele>1324</ele>
        <time>2018-11-18T15:37:45.000Z</time>
      </trkpt>
      <trkpt lat="42.70151" lon="1.6588">
        <ele>1324</ele>
        <time>2018-11-18T15:37:47.000Z</time>
      </trkpt>
      <trkpt lat="42.7015" lon="1.6588">
        <ele>1324</ele>
        <time>2018-11-18T15:37:49.000Z</time>
      </trkpt>
      <trkpt lat="42.7015" lon="1.6588">
        <ele>1324</ele>
        <time>2018-11-18T15:37:51.000Z</time>
      </trkpt>
      <trkpt lat="42.70149" lon="1.6588">
        <ele>1323</ele>
        <time>2018-11-18T15:37:53.000Z</time>
      </trkpt>
      <trkpt lat="42.70148" lon="1.6588">
        <ele>1324</ele>
        <time>2018-11-18T15:37:55.000Z</time>
      </trkpt>
      <trkpt lat="42.70148" lon="1.6588">
        <ele>1324</ele>
        <time>2018-11-18T15:37:57.000Z</time>
      </trkpt>
      <trkpt lat="42.70148" lon="1.65879">
        <ele>1324</ele>
        <time>2018-11-18T15:37:59.000Z</time>
      </trkpt>
      <trkpt lat="42.7015" lon="1.65879">
        <ele>1324</ele>
        <time>2018-11-18T15:38:01.000Z</time>
      </trkpt>
      <trkpt lat="42.70151" lon="1.65879">
        <ele>1324</ele>
        <time>2018-11-18T15:38:03.000Z</time>
      </trkpt>
      <trkpt lat="42.70152" lon="1.6588">
        <ele>1324</ele>
        <time>2018-11-18T15:38:05.000Z</time>
      </trkpt>
      <trkpt lat="42.70153" lon="1.65882">
        <ele>1323</ele>
        <time>2018-11-18T15:38:07.000Z</time>
      </trkpt>
      <trkpt lat="42.70155" lon="1.65883">
        <ele>1323</ele>
        <time>2018-11-18T15:38:09.000Z</time>
      </trkpt>
      <trkpt lat="42.70156" lon="1.65883">
        <ele>1323</ele>
        <time>2018-11-18T15:38:11.000Z</time>
      </trkpt>
      <trkpt lat="42.70157" lon="1.65884">
        <ele>1323</ele>
        <time>2018-11-18T15:38:13.000Z</time>
      </trkpt>
      <trkpt lat="42.70158" lon="1.65885">
        <ele>1323</ele>
        <time>2018-11-18T15:38:15.000Z</time>
      </trkpt>
      <trkpt lat="42.70158" lon="1.65885">
        <ele>1323</ele>
        <time>2018-11-18T15:38:17.000Z</time>
      </trkpt>
      <trkpt lat="42.70159" lon="1.65886">
        <ele>1323</ele>
        <time>2018-11-18T15:38:19.000Z</time>
      </trkpt>
      <trkpt lat="42.70161" lon="1.65888">
        <ele>1322</ele>
        <time>2018-11-18T15:38:21.000Z</time>
      </trkpt>
      <trkpt lat="42.70161" lon="1.65889">
        <ele>1322</ele>
        <time>2018-11-18T15:38:23.000Z</time>
      </trkpt>
      <trkpt lat="42.70162" lon="1.6589">
        <ele>1321</ele>
        <time>2018-11-18T15:38:25.000Z</time>
      </trkpt>
      <trkpt lat="42.70162" lon="1.65892">
        <ele>1321</ele>
        <time>2018-11-18T15:38:27.000Z</time>
      </trkpt>
      <trkpt lat="42.7016" lon="1.65892">
        <ele>1321</ele>
        <time>2018-11-18T15:38:29.000Z</time>
      </trkpt>
      <trkpt lat="42.7016" lon="1.65893">
        <ele>1320</ele>
        <time>2018-11-18T15:38:31.000Z</time>
      </trkpt>
      <trkpt lat="42.7016" lon="1.65894">
        <ele>1320</ele>
        <time>2018-11-18T15:38:33.000Z</time>
      </trkpt>
      <trkpt lat="42.70161" lon="1.65896">
        <ele>1319</ele>
        <time>2018-11-18T15:38:35.000Z</time>
      </trkpt>
      <trkpt lat="42.70162" lon="1.65897">
        <ele>1318</ele>
        <time>2018-11-18T15:38:37.000Z</time>
      </trkpt>
      <trkpt lat="42.70162" lon="1.65899">
        <ele>1317</ele>
        <time>2018-11-18T15:38:39.000Z</time>
      </trkpt>
      <trkpt lat="42.70164" lon="1.659">
        <ele>1317</ele>
        <time>2018-11-18T15:38:41.000Z</time>
      </trkpt>
      <trkpt lat="42.70164" lon="1.659">
        <ele>1317</ele>
        <time>2018-11-18T15:38:43.000Z</time>
      </trkpt>
      <trkpt lat="42.70164" lon="1.65902">
        <ele>1316</ele>
        <time>2018-11-18T15:38:45.000Z</time>
      </trkpt>
      <trkpt lat="42.70164" lon="1.65904">
        <ele>1315</ele>
        <time>2018-11-18T15:38:47.000Z</time>
      </trkpt>
      <trkpt lat="42.70165" lon="1.65906">
        <ele>1314</ele>
        <time>2018-11-18T15:38:49.000Z</time>
      </trkpt>
      <trkpt lat="42.70164" lon="1.65908">
        <ele>1313</ele>
        <time>2018-11-18T15:38:51.000Z</time>
      </trkpt>
      <trkpt lat="42.70164" lon="1.6591">
        <ele>1312</ele>
        <time>2018-11-18T15:38:53.000Z</time>
      </trkpt>
      <trkpt lat="42.70162" lon="1.65912">
        <ele>1311</ele>
        <time>2018-11-18T15:38:55.000Z</time>
      </trkpt>
      <trkpt lat="42.70162" lon="1.65913">
        <ele>1310</ele>
        <time>2018-11-18T15:38:57.000Z</time>
      </trkpt>
      <trkpt lat="42.70162" lon="1.65913">
        <ele>1310</ele>
        <time>2018-11-18T15:38:59.000Z</time>
      </trkpt>
      <trkpt lat="42.70161" lon="1.65914">
        <ele>1309</ele>
        <time>2018-11-18T15:39:01.000Z</time>
      </trkpt>
      <trkpt lat="42.7016" lon="1.65915">
        <ele>1309</ele>
        <time>2018-11-18T15:39:03.000Z</time>
      </trkpt>
      <trkpt lat="42.70159" lon="1.65915">
        <ele>1308</ele>
        <time>2018-11-18T15:39:05.000Z</time>
      </trkpt>
      <trkpt lat="42.70158" lon="1.65916">
        <ele>1307</ele>
        <time>2018-11-18T15:39:07.000Z</time>
      </trkpt>
      <trkpt lat="42.70158" lon="1.65917">
        <ele>1307</ele>
        <time>2018-11-18T15:39:09.000Z</time>
      </trkpt>
      <trkpt lat="42.70159" lon="1.65919">
        <ele>1306</ele>
        <time>2018-11-18T15:39:11.000Z</time>
      </trkpt>
      <trkpt lat="42.70159" lon="1.6592">
        <ele>1306</ele>
        <time>2018-11-18T15:39:13.000Z</time>
      </trkpt>
      <trkpt lat="42.70159" lon="1.65922">
        <ele>1305</ele>
        <time>2018-11-18T15:39:15.000Z</time>
      </trkpt>
      <trkpt lat="42.70158" lon="1.65924">
        <ele>1303</ele>
        <time>2018-11-18T15:39:17.000Z</time>
      </trkpt>
      <trkpt lat="42.70157" lon="1.65926">
        <ele>1302</ele>
        <time>2018-11-18T15:39:19.000Z</time>
      </trkpt>
      <trkpt lat="42.70156" lon="1.65927">
        <ele>1302</ele>
        <time>2018-11-18T15:39:21.000Z</time>
      </trkpt>
      <trkpt lat="42.70156" lon="1.65928">
        <ele>1301</ele>
        <time>2018-11-18T15:39:23.000Z</time>
      </trkpt>
      <trkpt lat="42.70156" lon="1.65929">
        <ele>1300</ele>
        <time>2018-11-18T15:39:25.000Z</time>
      </trkpt>
      <trkpt lat="42.70156" lon="1.65932">
        <ele>1299</ele>
        <time>2018-11-18T15:39:27.000Z</time>
      </trkpt>
      <trkpt lat="42.70156" lon="1.65933">
        <ele>1299</ele>
        <time>2018-11-18T15:39:29.000Z</time>
      </trkpt>
      <trkpt lat="42.70156" lon="1.65934">
        <ele>1298</ele>
        <time>2018-11-18T15:39:31.000Z</time>
      </trkpt>
      <trkpt lat="42.70157" lon="1.65936">
        <ele>1297</ele>
        <time>2018-11-18T15:39:33.000Z</time>
      </trkpt>
      <trkpt lat="42.70157" lon="1.65938">
        <ele>1297</ele>
        <time>2018-11-18T15:39:35.000Z</time>
      </trkpt>
      <trkpt lat="42.70157" lon="1.65939">
        <ele>1296</ele>
        <time>2018-11-18T15:39:37.000Z</time>
      </trkpt>
      <trkpt lat="42.70157" lon="1.65941">
        <ele>1295</ele>
        <time>2018-11-18T15:39:39.000Z</time>
      </trkpt>
      <trkpt lat="42.70157" lon="1.65942">
        <ele>1295</ele>
        <time>2018-11-18T15:39:41.000Z</time>
      </trkpt>
      <trkpt lat="42.70157" lon="1.65942">
        <ele>1294</ele>
        <time>2018-11-18T15:39:43.000Z</time>
      </trkpt>
      <trkpt lat="42.70157" lon="1.65943">
        <ele>1294</ele>
        <time>2018-11-18T15:39:45.000Z</time>
      </trkpt>
      <trkpt lat="42.70157" lon="1.65943">
        <ele>1294</ele>
        <time>2018-11-18T15:39:47.000Z</time>
      </trkpt>
      <trkpt lat="42.70158" lon="1.65944">
        <ele>1294</ele>
        <time>2018-11-18T15:39:49.000Z</time>
      </trkpt>
      <trkpt lat="42.70158" lon="1.65945">
        <ele>1294</ele>
        <time>2018-11-18T15:39:51.000Z</time>
      </trkpt>
      <trkpt lat="42.70159" lon="1.65946">
        <ele>1294</ele>
        <time>2018-11-18T15:39:53.000Z</time>
      </trkpt>
      <trkpt lat="42.70159" lon="1.65948">
        <ele>1293</ele>
        <time>2018-11-18T15:39:55.000Z</time>
      </trkpt>
      <trkpt lat="42.7016" lon="1.6595">
        <ele>1292</ele>
        <time>2018-11-18T15:39:57.000Z</time>
      </trkpt>
      <trkpt lat="42.70161" lon="1.65951">
        <ele>1292</ele>
        <time>2018-11-18T15:39:59.000Z</time>
      </trkpt>
      <trkpt lat="42.70161" lon="1.65951">
        <ele>1292</ele>
        <time>2018-11-18T15:40:01.000Z</time>
      </trkpt>
      <trkpt lat="42.70162" lon="1.65952">
        <ele>1292</ele>
        <time>2018-11-18T15:40:03.000Z</time>
      </trkpt>
      <trkpt lat="42.70163" lon="1.65954">
        <ele>1291</ele>
        <time>2018-11-18T15:40:05.000Z</time>
      </trkpt>
      <trkpt lat="42.70165" lon="1.65955">
        <ele>1291</ele>
        <time>2018-11-18T15:40:07.000Z</time>
      </trkpt>
      <trkpt lat="42.70166" lon="1.65956">
        <ele>1291</ele>
        <time>2018-11-18T15:40:09.000Z</time>
      </trkpt>
      <trkpt lat="42.70168" lon="1.65957">
        <ele>1292</ele>
        <time>2018-11-18T15:40:11.000Z</time>
      </trkpt>
      <trkpt lat="42.70169" lon="1.65957">
        <ele>1292</ele>
        <time>2018-11-18T15:40:13.000Z</time>
      </trkpt>
      <trkpt lat="42.70171" lon="1.65958">
        <ele>1293</ele>
        <time>2018-11-18T15:40:15.000Z</time>
      </trkpt>
      <trkpt lat="42.70173" lon="1.65958">
        <ele>1294</ele>
        <time>2018-11-18T15:40:17.000Z</time>
      </trkpt>
      <trkpt lat="42.70175" lon="1.6596">
        <ele>1294</ele>
        <time>2018-11-18T15:40:19.000Z</time>
      </trkpt>
      <trkpt lat="42.70175" lon="1.6596">
        <ele>1294</ele>
        <time>2018-11-18T15:40:21.000Z</time>
      </trkpt>
      <trkpt lat="42.70175" lon="1.6596">
        <ele>1294</ele>
        <time>2018-11-18T15:40:23.000Z</time>
      </trkpt>
      <trkpt lat="42.70175" lon="1.65961">
        <ele>1294</ele>
        <time>2018-11-18T15:40:25.000Z</time>
      </trkpt>
      <trkpt lat="42.70176" lon="1.65962">
        <ele>1294</ele>
        <time>2018-11-18T15:40:27.000Z</time>
      </trkpt>
      <trkpt lat="42.70177" lon="1.65963">
        <ele>1294</ele>
        <time>2018-11-18T15:40:29.000Z</time>
      </trkpt>
      <trkpt lat="42.70177" lon="1.65964">
        <ele>1293</ele>
        <time>2018-11-18T15:40:31.000Z</time>
      </trkpt>
      <trkpt lat="42.70176" lon="1.65966">
        <ele>1292</ele>
        <time>2018-11-18T15:40:33.000Z</time>
      </trkpt>
      <trkpt lat="42.70175" lon="1.65967">
        <ele>1291</ele>
        <time>2018-11-18T15:40:35.000Z</time>
      </trkpt>
      <trkpt lat="42.70174" lon="1.65968">
        <ele>1290</ele>
        <time>2018-11-18T15:40:37.000Z</time>
      </trkpt>
      <trkpt lat="42.70174" lon="1.65968">
        <ele>1289</ele>
        <time>2018-11-18T15:40:39.000Z</time>
      </trkpt>
      <trkpt lat="42.70172" lon="1.6597">
        <ele>1288</ele>
        <time>2018-11-18T15:40:41.000Z</time>
      </trkpt>
      <trkpt lat="42.7017" lon="1.65972">
        <ele>1286</ele>
        <time>2018-11-18T15:40:43.000Z</time>
      </trkpt>
      <trkpt lat="42.70167" lon="1.65974">
        <ele>1283</ele>
        <time>2018-11-18T15:40:45.000Z</time>
      </trkpt>
      <trkpt lat="42.70165" lon="1.65976">
        <ele>1282</ele>
        <time>2018-11-18T15:40:47.000Z</time>
      </trkpt>
      <trkpt lat="42.70164" lon="1.65977">
        <ele>1281</ele>
        <time>2018-11-18T15:40:49.000Z</time>
      </trkpt>
      <trkpt lat="42.70163" lon="1.65978">
        <ele>1280</ele>
        <time>2018-11-18T15:40:51.000Z</time>
      </trkpt>
      <trkpt lat="42.70163" lon="1.65979">
        <ele>1280</ele>
        <time>2018-11-18T15:40:53.000Z</time>
      </trkpt>
      <trkpt lat="42.70162" lon="1.65979">
        <ele>1279</ele>
        <time>2018-11-18T15:40:55.000Z</time>
      </trkpt>
      <trkpt lat="42.70161" lon="1.65979">
        <ele>1279</ele>
        <time>2018-11-18T15:40:57.000Z</time>
      </trkpt>
      <trkpt lat="42.7016" lon="1.6598">
        <ele>1278</ele>
        <time>2018-11-18T15:40:59.000Z</time>
      </trkpt>
      <trkpt lat="42.70158" lon="1.6598">
        <ele>1277</ele>
        <time>2018-11-18T15:41:01.000Z</time>
      </trkpt>
      <trkpt lat="42.70158" lon="1.6598">
        <ele>1277</ele>
        <time>2018-11-18T15:41:03.000Z</time>
      </trkpt>
      <trkpt lat="42.70157" lon="1.6598">
        <ele>1276</ele>
        <time>2018-11-18T15:41:05.000Z</time>
      </trkpt>
      <trkpt lat="42.70156" lon="1.6598">
        <ele>1276</ele>
        <time>2018-11-18T15:41:07.000Z</time>
      </trkpt>
      <trkpt lat="42.70156" lon="1.65981">
        <ele>1275</ele>
        <time>2018-11-18T15:41:09.000Z</time>
      </trkpt>
      <trkpt lat="42.70155" lon="1.65982">
        <ele>1275</ele>
        <time>2018-11-18T15:41:11.000Z</time>
      </trkpt>
      <trkpt lat="42.70155" lon="1.65982">
        <ele>1274</ele>
        <time>2018-11-18T15:41:13.000Z</time>
      </trkpt>
      <trkpt lat="42.70154" lon="1.65983">
        <ele>1273</ele>
        <time>2018-11-18T15:41:15.000Z</time>
      </trkpt>
      <trkpt lat="42.70154" lon="1.65983">
        <ele>1273</ele>
        <time>2018-11-18T15:41:17.000Z</time>
      </trkpt>
      <trkpt lat="42.70152" lon="1.65984">
        <ele>1272</ele>
        <time>2018-11-18T15:41:19.000Z</time>
      </trkpt>
      <trkpt lat="42.70151" lon="1.65983">
        <ele>1272</ele>
        <time>2018-11-18T15:41:21.000Z</time>
      </trkpt>
      <trkpt lat="42.70151" lon="1.65983">
        <ele>1272</ele>
        <time>2018-11-18T15:41:23.000Z</time>
      </trkpt>
      <trkpt lat="42.7015" lon="1.65983">
        <ele>1271</ele>
        <time>2018-11-18T15:41:25.000Z</time>
      </trkpt>
      <trkpt lat="42.7015" lon="1.65983">
        <ele>1271</ele>
        <time>2018-11-18T15:41:27.000Z</time>
      </trkpt>
      <trkpt lat="42.7015" lon="1.65983">
        <ele>1271</ele>
        <time>2018-11-18T15:41:29.000Z</time>
      </trkpt>
      <trkpt lat="42.70149" lon="1.65983">
        <ele>1271</ele>
        <time>2018-11-18T15:41:31.000Z</time>
      </trkpt>
      <trkpt lat="42.70147" lon="1.65982">
        <ele>1271</ele>
        <time>2018-11-18T15:41:33.000Z</time>
      </trkpt>
      <trkpt lat="42.70146" lon="1.65981">
        <ele>1271</ele>
        <time>2018-11-18T15:41:35.000Z</time>
      </trkpt>
      <trkpt lat="42.70145" lon="1.65982">
        <ele>1270</ele>
        <time>2018-11-18T15:41:37.000Z</time>
      </trkpt>
      <trkpt lat="42.70144" lon="1.65981">
        <ele>1269</ele>
        <time>2018-11-18T15:41:39.000Z</time>
      </trkpt>
      <trkpt lat="42.70143" lon="1.6598">
        <ele>1270</ele>
        <time>2018-11-18T15:41:41.000Z</time>
      </trkpt>
      <trkpt lat="42.70141" lon="1.65979">
        <ele>1269</ele>
        <time>2018-11-18T15:41:43.000Z</time>
      </trkpt>
      <trkpt lat="42.7014" lon="1.65979">
        <ele>1269</ele>
        <time>2018-11-18T15:41:45.000Z</time>
      </trkpt>
      <trkpt lat="42.70139" lon="1.65978">
        <ele>1269</ele>
        <time>2018-11-18T15:41:47.000Z</time>
      </trkpt>
      <trkpt lat="42.7014" lon="1.65978">
        <ele>1269</ele>
        <time>2018-11-18T15:41:49.000Z</time>
      </trkpt>
      <trkpt lat="42.7014" lon="1.65977">
        <ele>1270</ele>
        <time>2018-11-18T15:41:51.000Z</time>
      </trkpt>
      <trkpt lat="42.7014" lon="1.65976">
        <ele>1270</ele>
        <time>2018-11-18T15:41:53.000Z</time>
      </trkpt>
      <trkpt lat="42.70141" lon="1.65975">
        <ele>1272</ele>
        <time>2018-11-18T15:41:55.000Z</time>
      </trkpt>
      <trkpt lat="42.70141" lon="1.65975">
        <ele>1272</ele>
        <time>2018-11-18T15:41:57.000Z</time>
      </trkpt>
      <trkpt lat="42.70141" lon="1.65974">
        <ele>1272</ele>
        <time>2018-11-18T15:41:59.000Z</time>
      </trkpt>
      <trkpt lat="42.70141" lon="1.65973">
        <ele>1272</ele>
        <time>2018-11-18T15:42:01.000Z</time>
      </trkpt>
      <trkpt lat="42.7014" lon="1.65974">
        <ele>1272</ele>
        <time>2018-11-18T15:42:03.000Z</time>
      </trkpt>
      <trkpt lat="42.70139" lon="1.65974">
        <ele>1271</ele>
        <time>2018-11-18T15:42:05.000Z</time>
      </trkpt>
      <trkpt lat="42.70139" lon="1.65974">
        <ele>1271</ele>
        <time>2018-11-18T15:42:07.000Z</time>
      </trkpt>
      <trkpt lat="42.70139" lon="1.65975">
        <ele>1271</ele>
        <time>2018-11-18T15:42:09.000Z</time>
      </trkpt>
      <trkpt lat="42.70137" lon="1.65976">
        <ele>1269</ele>
        <time>2018-11-18T15:42:11.000Z</time>
      </trkpt>
      <trkpt lat="42.70136" lon="1.65976">
        <ele>1269</ele>
        <time>2018-11-18T15:42:13.000Z</time>
      </trkpt>
      <trkpt lat="42.70135" lon="1.65976">
        <ele>1268</ele>
        <time>2018-11-18T15:42:15.000Z</time>
      </trkpt>
      <trkpt lat="42.70133" lon="1.65977">
        <ele>1266</ele>
        <time>2018-11-18T15:42:17.000Z</time>
      </trkpt>
      <trkpt lat="42.70131" lon="1.65978">
        <ele>1265</ele>
        <time>2018-11-18T15:42:19.000Z</time>
      </trkpt>
      <trkpt lat="42.70129" lon="1.65978">
        <ele>1265</ele>
        <time>2018-11-18T15:42:21.000Z</time>
      </trkpt>
      <trkpt lat="42.70128" lon="1.65978">
        <ele>1264</ele>
        <time>2018-11-18T15:42:23.000Z</time>
      </trkpt>
      <trkpt lat="42.70127" lon="1.65978">
        <ele>1263</ele>
        <time>2018-11-18T15:42:25.000Z</time>
      </trkpt>
      <trkpt lat="42.70127" lon="1.65978">
        <ele>1263</ele>
        <time>2018-11-18T15:42:27.000Z</time>
      </trkpt>
      <trkpt lat="42.70126" lon="1.65978">
        <ele>1263</ele>
        <time>2018-11-18T15:42:29.000Z</time>
      </trkpt>
      <trkpt lat="42.70126" lon="1.65978">
        <ele>1262</ele>
        <time>2018-11-18T15:42:31.000Z</time>
      </trkpt>
      <trkpt lat="42.70126" lon="1.65979">
        <ele>1262</ele>
        <time>2018-11-18T15:42:33.000Z</time>
      </trkpt>
      <trkpt lat="42.70125" lon="1.65979">
        <ele>1262</ele>
        <time>2018-11-18T15:42:35.000Z</time>
      </trkpt>
      <trkpt lat="42.70126" lon="1.65979">
        <ele>1263</ele>
        <time>2018-11-18T15:42:37.000Z</time>
      </trkpt>
      <trkpt lat="42.70127" lon="1.65978">
        <ele>1264</ele>
        <time>2018-11-18T15:42:39.000Z</time>
      </trkpt>
      <trkpt lat="42.70127" lon="1.65977">
        <ele>1264</ele>
        <time>2018-11-18T15:42:41.000Z</time>
      </trkpt>
      <trkpt lat="42.70127" lon="1.65976">
        <ele>1265</ele>
        <time>2018-11-18T15:42:43.000Z</time>
      </trkpt>
      <trkpt lat="42.70128" lon="1.65975">
        <ele>1266</ele>
        <time>2018-11-18T15:42:45.000Z</time>
      </trkpt>
      <trkpt lat="42.70129" lon="1.65974">
        <ele>1266</ele>
        <time>2018-11-18T15:42:47.000Z</time>
      </trkpt>
      <trkpt lat="42.7013" lon="1.65974">
        <ele>1267</ele>
        <time>2018-11-18T15:42:49.000Z</time>
      </trkpt>
      <trkpt lat="42.70132" lon="1.65974">
        <ele>1268</ele>
        <time>2018-11-18T15:42:51.000Z</time>
      </trkpt>
      <trkpt lat="42.70134" lon="1.65974">
        <ele>1269</ele>
        <time>2018-11-18T15:42:53.000Z</time>
      </trkpt>
      <trkpt lat="42.70135" lon="1.65974">
        <ele>1269</ele>
        <time>2018-11-18T15:42:55.000Z</time>
      </trkpt>
      <trkpt lat="42.70135" lon="1.65975">
        <ele>1269</ele>
        <time>2018-11-18T15:42:57.000Z</time>
      </trkpt>
      <trkpt lat="42.70136" lon="1.65976">
        <ele>1269</ele>
        <time>2018-11-18T15:42:59.000Z</time>
      </trkpt>
      <trkpt lat="42.70136" lon="1.65976">
        <ele>1269</ele>
        <time>2018-11-18T15:43:01.000Z</time>
      </trkpt>
      <trkpt lat="42.70137" lon="1.65977">
        <ele>1269</ele>
        <time>2018-11-18T15:43:03.000Z</time>
      </trkpt>
      <trkpt lat="42.70139" lon="1.65977">
        <ele>1269</ele>
        <time>2018-11-18T15:43:05.000Z</time>
      </trkpt>
      <trkpt lat="42.70139" lon="1.65979">
        <ele>1268</ele>
        <time>2018-11-18T15:43:07.000Z</time>
      </trkpt>
      <trkpt lat="42.70139" lon="1.65981">
        <ele>1267</ele>
        <time>2018-11-18T15:43:09.000Z</time>
      </trkpt>
      <trkpt lat="42.7014" lon="1.65982">
        <ele>1267</ele>
        <time>2018-11-18T15:43:11.000Z</time>
      </trkpt>
      <trkpt lat="42.7014" lon="1.65983">
        <ele>1266</ele>
        <time>2018-11-18T15:43:13.000Z</time>
      </trkpt>
      <trkpt lat="42.7014" lon="1.65984">
        <ele>1266</ele>
        <time>2018-11-18T15:43:15.000Z</time>
      </trkpt>
      <trkpt lat="42.7014" lon="1.65985">
        <ele>1265</ele>
        <time>2018-11-18T15:43:17.000Z</time>
      </trkpt>
      <trkpt lat="42.70139" lon="1.65986">
        <ele>1265</ele>
        <time>2018-11-18T15:43:19.000Z</time>
      </trkpt>
      <trkpt lat="42.7014" lon="1.65987">
        <ele>1264</ele>
        <time>2018-11-18T15:43:21.000Z</time>
      </trkpt>
      <trkpt lat="42.70141" lon="1.65986">
        <ele>1265</ele>
        <time>2018-11-18T15:43:23.000Z</time>
      </trkpt>
      <trkpt lat="42.7014" lon="1.65985">
        <ele>1266</ele>
        <time>2018-11-18T15:43:25.000Z</time>
      </trkpt>
      <trkpt lat="42.70141" lon="1.65984">
        <ele>1266</ele>
        <time>2018-11-18T15:43:27.000Z</time>
      </trkpt>
      <trkpt lat="42.70141" lon="1.65984">
        <ele>1267</ele>
        <time>2018-11-18T15:43:29.000Z</time>
      </trkpt>
      <trkpt lat="42.70142" lon="1.65983">
        <ele>1267</ele>
        <time>2018-11-18T15:43:31.000Z</time>
      </trkpt>
      <trkpt lat="42.70145" lon="1.65984">
        <ele>1269</ele>
        <time>2018-11-18T15:43:33.000Z</time>
      </trkpt>
      <trkpt lat="42.70146" lon="1.65985">
        <ele>1268</ele>
        <time>2018-11-18T15:43:35.000Z</time>
      </trkpt>
      <trkpt lat="42.70147" lon="1.65986">
        <ele>1269</ele>
        <time>2018-11-18T15:43:37.000Z</time>
      </trkpt>
      <trkpt lat="42.70148" lon="1.65987">
        <ele>1268</ele>
        <time>2018-11-18T15:43:39.000Z</time>
      </trkpt>
      <trkpt lat="42.70147" lon="1.65987">
        <ele>1268</ele>
        <time>2018-11-18T15:43:41.000Z</time>
      </trkpt>
      <trkpt lat="42.70145" lon="1.65989">
        <ele>1266</ele>
        <time>2018-11-18T15:43:43.000Z</time>
      </trkpt>
      <trkpt lat="42.70145" lon="1.65989">
        <ele>1266</ele>
        <time>2018-11-18T15:43:45.000Z</time>
      </trkpt>
      <trkpt lat="42.70144" lon="1.65989">
        <ele>1266</ele>
        <time>2018-11-18T15:43:47.000Z</time>
      </trkpt>
      <trkpt lat="42.70144" lon="1.65989">
        <ele>1265</ele>
        <time>2018-11-18T15:43:49.000Z</time>
      </trkpt>
      <trkpt lat="42.70144" lon="1.6599">
        <ele>1265</ele>
        <time>2018-11-18T15:43:51.000Z</time>
      </trkpt>
      <trkpt lat="42.70143" lon="1.6599">
        <ele>1265</ele>
        <time>2018-11-18T15:43:53.000Z</time>
      </trkpt>
      <trkpt lat="42.70144" lon="1.6599">
        <ele>1265</ele>
        <time>2018-11-18T15:43:55.000Z</time>
      </trkpt>
      <trkpt lat="42.70144" lon="1.6599">
        <ele>1265</ele>
        <time>2018-11-18T15:43:57.000Z</time>
      </trkpt>
      <trkpt lat="42.70144" lon="1.65989">
        <ele>1266</ele>
        <time>2018-11-18T15:43:59.000Z</time>
      </trkpt>
      <trkpt lat="42.70145" lon="1.65989">
        <ele>1266</ele>
        <time>2018-11-18T15:44:01.000Z</time>
      </trkpt>
      <trkpt lat="42.70145" lon="1.65989">
        <ele>1266</ele>
        <time>2018-11-18T15:44:03.000Z</time>
      </trkpt>
      <trkpt lat="42.70146" lon="1.65989">
        <ele>1267</ele>
        <time>2018-11-18T15:44:05.000Z</time>
      </trkpt>
      <trkpt lat="42.70147" lon="1.65989">
        <ele>1267</ele>
        <time>2018-11-18T15:44:07.000Z</time>
      </trkpt>
      <trkpt lat="42.70149" lon="1.65989">
        <ele>1268</ele>
        <time>2018-11-18T15:44:09.000Z</time>
      </trkpt>
      <trkpt lat="42.7015" lon="1.65989">
        <ele>1268</ele>
        <time>2018-11-18T15:44:11.000Z</time>
      </trkpt>
      <trkpt lat="42.7015" lon="1.65989">
        <ele>1268</ele>
        <time>2018-11-18T15:44:13.000Z</time>
      </trkpt>
      <trkpt lat="42.70151" lon="1.65989">
        <ele>1269</ele>
        <time>2018-11-18T15:44:15.000Z</time>
      </trkpt>
      <trkpt lat="42.70151" lon="1.65988">
        <ele>1269</ele>
        <time>2018-11-18T15:44:17.000Z</time>
      </trkpt>
      <trkpt lat="42.70151" lon="1.65988">
        <ele>1269</ele>
        <time>2018-11-18T15:44:19.000Z</time>
      </trkpt>
      <trkpt lat="42.7015" lon="1.65989">
        <ele>1268</ele>
        <time>2018-11-18T15:44:21.000Z</time>
      </trkpt>
      <trkpt lat="42.70148" lon="1.6599">
        <ele>1267</ele>
        <time>2018-11-18T15:44:23.000Z</time>
      </trkpt>
      <trkpt lat="42.70145" lon="1.65991">
        <ele>1265</ele>
        <time>2018-11-18T15:44:25.000Z</time>
      </trkpt>
      <trkpt lat="42.70143" lon="1.65991">
        <ele>1264</ele>
        <time>2018-11-18T15:44:27.000Z</time>
      </trkpt>
      <trkpt lat="42.70143" lon="1.6599">
        <ele>1264</ele>
        <time>2018-11-18T15:44:29.000Z</time>
      </trkpt>
      <trkpt lat="42.70142" lon="1.65989">
        <ele>1264</ele>
        <time>2018-11-18T15:44:31.000Z</time>
      </trkpt>
      <trkpt lat="42.70141" lon="1.65989">
        <ele>1264</ele>
        <time>2018-11-18T15:44:33.000Z</time>
      </trkpt>
      <trkpt lat="42.70139" lon="1.65989">
        <ele>1263</ele>
        <time>2018-11-18T15:44:35.000Z</time>
      </trkpt>
      <trkpt lat="42.70138" lon="1.6599">
        <ele>1263</ele>
        <time>2018-11-18T15:44:37.000Z</time>
      </trkpt>
      <trkpt lat="42.70137" lon="1.6599">
        <ele>1262</ele>
        <time>2018-11-18T15:44:39.000Z</time>
      </trkpt>
      <trkpt lat="42.70136" lon="1.6599">
        <ele>1261</ele>
        <time>2018-11-18T15:44:41.000Z</time>
      </trkpt>
      <trkpt lat="42.70135" lon="1.6599">
        <ele>1261</ele>
        <time>2018-11-18T15:44:43.000Z</time>
      </trkpt>
      <trkpt lat="42.70135" lon="1.65991">
        <ele>1260</ele>
        <time>2018-11-18T15:44:45.000Z</time>
      </trkpt>
      <trkpt lat="42.70136" lon="1.65992">
        <ele>1260</ele>
        <time>2018-11-18T15:44:47.000Z</time>
      </trkpt>
      <trkpt lat="42.70136" lon="1.65992">
        <ele>1261</ele>
        <time>2018-11-18T15:44:49.000Z</time>
      </trkpt>
      <trkpt lat="42.70138" lon="1.65993">
        <ele>1261</ele>
        <time>2018-11-18T15:44:51.000Z</time>
      </trkpt>
      <trkpt lat="42.70139" lon="1.65994">
        <ele>1261</ele>
        <time>2018-11-18T15:44:53.000Z</time>
      </trkpt>
      <trkpt lat="42.70139" lon="1.65994">
        <ele>1261</ele>
        <time>2018-11-18T15:44:55.000Z</time>
      </trkpt>
      <trkpt lat="42.70142" lon="1.65995">
        <ele>1262</ele>
        <time>2018-11-18T15:44:57.000Z</time>
      </trkpt>
      <trkpt lat="42.70143" lon="1.65996">
        <ele>1262</ele>
        <time>2018-11-18T15:44:59.000Z</time>
      </trkpt>
      <trkpt lat="42.70143" lon="1.65997">
        <ele>1262</ele>
        <time>2018-11-18T15:45:01.000Z</time>
      </trkpt>
      <trkpt lat="42.70145" lon="1.65996">
        <ele>1263</ele>
        <time>2018-11-18T15:45:03.000Z</time>
      </trkpt>
      <trkpt lat="42.70146" lon="1.65995">
        <ele>1264</ele>
        <time>2018-11-18T15:45:05.000Z</time>
      </trkpt>
      <trkpt lat="42.70148" lon="1.65995">
        <ele>1265</ele>
        <time>2018-11-18T15:45:07.000Z</time>
      </trkpt>
      <trkpt lat="42.7015" lon="1.65993">
        <ele>1266</ele>
        <time>2018-11-18T15:45:09.000Z</time>
      </trkpt>
      <trkpt lat="42.7015" lon="1.65993">
        <ele>1267</ele>
        <time>2018-11-18T15:45:11.000Z</time>
      </trkpt>
      <trkpt lat="42.70151" lon="1.65993">
        <ele>1267</ele>
        <time>2018-11-18T15:45:13.000Z</time>
      </trkpt>
      <trkpt lat="42.70145" lon="1.65997">
        <ele>1262</ele>
        <time>2018-11-18T15:45:15.000Z</time>
      </trkpt>
      <trkpt lat="42.70142" lon="1.65999">
        <ele>1260</ele>
        <time>2018-11-18T15:45:17.000Z</time>
      </trkpt>
      <trkpt lat="42.70142" lon="1.66">
        <ele>1260</ele>
        <time>2018-11-18T15:45:19.000Z</time>
      </trkpt>
      <trkpt lat="42.70142" lon="1.66">
        <ele>1260</ele>
        <time>2018-11-18T15:45:21.000Z</time>
      </trkpt>
      <trkpt lat="42.70141" lon="1.66">
        <ele>1260</ele>
        <time>2018-11-18T15:45:23.000Z</time>
      </trkpt>
      <trkpt lat="42.70142" lon="1.65998">
        <ele>1261</ele>
        <time>2018-11-18T15:45:25.000Z</time>
      </trkpt>
      <trkpt lat="42.70142" lon="1.65998">
        <ele>1261</ele>
        <time>2018-11-18T15:45:27.000Z</time>
      </trkpt>
      <trkpt lat="42.70141" lon="1.65997">
        <ele>1261</ele>
        <time>2018-11-18T15:45:29.000Z</time>
      </trkpt>
      <trkpt lat="42.7014" lon="1.65997">
        <ele>1260</ele>
        <time>2018-11-18T15:45:31.000Z</time>
      </trkpt>
      <trkpt lat="42.7014" lon="1.65996">
        <ele>1261</ele>
        <time>2018-11-18T15:45:33.000Z</time>
      </trkpt>
      <trkpt lat="42.70139" lon="1.65996">
        <ele>1260</ele>
        <time>2018-11-18T15:45:35.000Z</time>
      </trkpt>
      <trkpt lat="42.70138" lon="1.65997">
        <ele>1259</ele>
        <time>2018-11-18T15:45:37.000Z</time>
      </trkpt>
      <trkpt lat="42.70138" lon="1.65997">
        <ele>1259</ele>
        <time>2018-11-18T15:45:39.000Z</time>
      </trkpt>
      <trkpt lat="42.70138" lon="1.65997">
        <ele>1259</ele>
        <time>2018-11-18T15:45:41.000Z</time>
      </trkpt>
      <trkpt lat="42.70135" lon="1.65995">
        <ele>1259</ele>
        <time>2018-11-18T15:45:43.000Z</time>
      </trkpt>
      <trkpt lat="42.70132" lon="1.65993">
        <ele>1258</ele>
        <time>2018-11-18T15:45:45.000Z</time>
      </trkpt>
      <trkpt lat="42.70129" lon="1.65992">
        <ele>1257</ele>
        <time>2018-11-18T15:45:47.000Z</time>
      </trkpt>
      <trkpt lat="42.70128" lon="1.65992">
        <ele>1257</ele>
        <time>2018-11-18T15:45:49.000Z</time>
      </trkpt>
      <trkpt lat="42.70127" lon="1.65991">
        <ele>1257</ele>
        <time>2018-11-18T15:45:51.000Z</time>
      </trkpt>
      <trkpt lat="42.70126" lon="1.65991">
        <ele>1256</ele>
        <time>2018-11-18T15:45:53.000Z</time>
      </trkpt>
      <trkpt lat="42.70125" lon="1.65991">
        <ele>1256</ele>
        <time>2018-11-18T15:45:55.000Z</time>
      </trkpt>
      <trkpt lat="42.70124" lon="1.65991">
        <ele>1255</ele>
        <time>2018-11-18T15:45:57.000Z</time>
      </trkpt>
      <trkpt lat="42.70126" lon="1.6599">
        <ele>1256</ele>
        <time>2018-11-18T15:45:59.000Z</time>
      </trkpt>
      <trkpt lat="42.70128" lon="1.6599">
        <ele>1258</ele>
        <time>2018-11-18T15:46:01.000Z</time>
      </trkpt>
      <trkpt lat="42.70128" lon="1.65989">
        <ele>1258</ele>
        <time>2018-11-18T15:46:03.000Z</time>
      </trkpt>
      <trkpt lat="42.70128" lon="1.65989">
        <ele>1258</ele>
        <time>2018-11-18T15:46:05.000Z</time>
      </trkpt>
      <trkpt lat="42.70129" lon="1.65988">
        <ele>1259</ele>
        <time>2018-11-18T15:46:07.000Z</time>
      </trkpt>
      <trkpt lat="42.70128" lon="1.65988">
        <ele>1259</ele>
        <time>2018-11-18T15:46:09.000Z</time>
      </trkpt>
      <trkpt lat="42.70128" lon="1.65987">
        <ele>1259</ele>
        <time>2018-11-18T15:46:11.000Z</time>
      </trkpt>
      <trkpt lat="42.70127" lon="1.65987">
        <ele>1259</ele>
        <time>2018-11-18T15:46:13.000Z</time>
      </trkpt>
      <trkpt lat="42.70127" lon="1.65986">
        <ele>1259</ele>
        <time>2018-11-18T15:46:15.000Z</time>
      </trkpt>
      <trkpt lat="42.70128" lon="1.65986">
        <ele>1259</ele>
        <time>2018-11-18T15:46:17.000Z</time>
      </trkpt>
      <trkpt lat="42.70129" lon="1.65986">
        <ele>1260</ele>
        <time>2018-11-18T15:46:19.000Z</time>
      </trkpt>
      <trkpt lat="42.70129" lon="1.65986">
        <ele>1260</ele>
        <time>2018-11-18T15:46:21.000Z</time>
      </trkpt>
      <trkpt lat="42.70129" lon="1.65985">
        <ele>1260</ele>
        <time>2018-11-18T15:46:23.000Z</time>
      </trkpt>
      <trkpt lat="42.70129" lon="1.65985">
        <ele>1261</ele>
        <time>2018-11-18T15:46:25.000Z</time>
      </trkpt>
      <trkpt lat="42.70129" lon="1.65984">
        <ele>1261</ele>
        <time>2018-11-18T15:46:27.000Z</time>
      </trkpt>
      <trkpt lat="42.70129" lon="1.65985">
        <ele>1260</ele>
        <time>2018-11-18T15:46:29.000Z</time>
      </trkpt>
      <trkpt lat="42.7013" lon="1.65986">
        <ele>1260</ele>
        <time>2018-11-18T15:46:31.000Z</time>
      </trkpt>
      <trkpt lat="42.70131" lon="1.65986">
        <ele>1261</ele>
        <time>2018-11-18T15:46:33.000Z</time>
      </trkpt>
      <trkpt lat="42.70131" lon="1.65986">
        <ele>1261</ele>
        <time>2018-11-18T15:46:35.000Z</time>
      </trkpt>
      <trkpt lat="42.7013" lon="1.65985">
        <ele>1261</ele>
        <time>2018-11-18T15:46:37.000Z</time>
      </trkpt>
      <trkpt lat="42.7013" lon="1.65984">
        <ele>1261</ele>
        <time>2018-11-18T15:46:39.000Z</time>
      </trkpt>
      <trkpt lat="42.70131" lon="1.65984">
        <ele>1262</ele>
        <time>2018-11-18T15:46:41.000Z</time>
      </trkpt>
      <trkpt lat="42.70131" lon="1.65983">
        <ele>1262</ele>
        <time>2018-11-18T15:46:43.000Z</time>
      </trkpt>
      <trkpt lat="42.70131" lon="1.65982">
        <ele>1263</ele>
        <time>2018-11-18T15:46:45.000Z</time>
      </trkpt>
      <trkpt lat="42.70131" lon="1.65982">
        <ele>1263</ele>
        <time>2018-11-18T15:46:47.000Z</time>
      </trkpt>
      <trkpt lat="42.70132" lon="1.65982">
        <ele>1263</ele>
        <time>2018-11-18T15:46:49.000Z</time>
      </trkpt>
      <trkpt lat="42.70132" lon="1.65981">
        <ele>1264</ele>
        <time>2018-11-18T15:46:51.000Z</time>
      </trkpt>
      <trkpt lat="42.70132" lon="1.65981">
        <ele>1264</ele>
        <time>2018-11-18T15:46:53.000Z</time>
      </trkpt>
      <trkpt lat="42.70132" lon="1.65981">
        <ele>1264</ele>
        <time>2018-11-18T15:46:55.000Z</time>
      </trkpt>
      <trkpt lat="42.70132" lon="1.65981">
        <ele>1264</ele>
        <time>2018-11-18T15:46:57.000Z</time>
      </trkpt>
      <trkpt lat="42.70131" lon="1.65982">
        <ele>1263</ele>
        <time>2018-11-18T15:46:59.000Z</time>
      </trkpt>
      <trkpt lat="42.7013" lon="1.65982">
        <ele>1263</ele>
        <time>2018-11-18T15:47:01.000Z</time>
      </trkpt>
      <trkpt lat="42.70129" lon="1.65982">
        <ele>1262</ele>
        <time>2018-11-18T15:47:03.000Z</time>
      </trkpt>
      <trkpt lat="42.70128" lon="1.65982">
        <ele>1262</ele>
        <time>2018-11-18T15:47:05.000Z</time>
      </trkpt>
      <trkpt lat="42.70128" lon="1.65982">
        <ele>1262</ele>
        <time>2018-11-18T15:47:07.000Z</time>
      </trkpt>
      <trkpt lat="42.70128" lon="1.65982">
        <ele>1261</ele>
        <time>2018-11-18T15:47:09.000Z</time>
      </trkpt>
      <trkpt lat="42.70127" lon="1.65982">
        <ele>1261</ele>
        <time>2018-11-18T15:47:11.000Z</time>
      </trkpt>
      <trkpt lat="42.70127" lon="1.65982">
        <ele>1261</ele>
        <time>2018-11-18T15:47:13.000Z</time>
      </trkpt>
      <trkpt lat="42.70126" lon="1.65981">
        <ele>1261</ele>
        <time>2018-11-18T15:47:15.000Z</time>
      </trkpt>
      <trkpt lat="42.70123" lon="1.65981">
        <ele>1260</ele>
        <time>2018-11-18T15:47:17.000Z</time>
      </trkpt>
      <trkpt lat="42.70122" lon="1.65982">
        <ele>1259</ele>
        <time>2018-11-18T15:47:19.000Z</time>
      </trkpt>
      <trkpt lat="42.70123" lon="1.65984">
        <ele>1258</ele>
        <time>2018-11-18T15:47:21.000Z</time>
      </trkpt>
      <trkpt lat="42.70123" lon="1.65985">
        <ele>1258</ele>
        <time>2018-11-18T15:47:23.000Z</time>
      </trkpt>
      <trkpt lat="42.70124" lon="1.65986">
        <ele>1257</ele>
        <time>2018-11-18T15:47:25.000Z</time>
      </trkpt>
      <trkpt lat="42.70124" lon="1.65986">
        <ele>1258</ele>
        <time>2018-11-18T15:47:27.000Z</time>
      </trkpt>
      <trkpt lat="42.70125" lon="1.65987">
        <ele>1258</ele>
        <time>2018-11-18T15:47:29.000Z</time>
      </trkpt>
      <trkpt lat="42.70125" lon="1.65986">
        <ele>1258</ele>
        <time>2018-11-18T15:47:31.000Z</time>
      </trkpt>
      <trkpt lat="42.70125" lon="1.65986">
        <ele>1258</ele>
        <time>2018-11-18T15:47:33.000Z</time>
      </trkpt>
      <trkpt lat="42.70125" lon="1.65985">
        <ele>1258</ele>
        <time>2018-11-18T15:47:35.000Z</time>
      </trkpt>
      <trkpt lat="42.70125" lon="1.65985">
        <ele>1258</ele>
        <time>2018-11-18T15:47:37.000Z</time>
      </trkpt>
      <trkpt lat="42.70125" lon="1.65985">
        <ele>1259</ele>
        <time>2018-11-18T15:47:39.000Z</time>
      </trkpt>
      <trkpt lat="42.70125" lon="1.65984">
        <ele>1259</ele>
        <time>2018-11-18T15:47:41.000Z</time>
      </trkpt>
      <trkpt lat="42.70124" lon="1.65983">
        <ele>1259</ele>
        <time>2018-11-18T15:47:43.000Z</time>
      </trkpt>
      <trkpt lat="42.70124" lon="1.65983">
        <ele>1259</ele>
        <time>2018-11-18T15:47:45.000Z</time>
      </trkpt>
      <trkpt lat="42.70123" lon="1.65982">
        <ele>1259</ele>
        <time>2018-11-18T15:47:47.000Z</time>
      </trkpt>
      <trkpt lat="42.70123" lon="1.65983">
        <ele>1259</ele>
        <time>2018-11-18T15:47:49.000Z</time>
      </trkpt>
      <trkpt lat="42.70124" lon="1.65985">
        <ele>1258</ele>
        <time>2018-11-18T15:47:51.000Z</time>
      </trkpt>
      <trkpt lat="42.70123" lon="1.65985">
        <ele>1257</ele>
        <time>2018-11-18T15:47:53.000Z</time>
      </trkpt>
      <trkpt lat="42.70123" lon="1.65985">
        <ele>1257</ele>
        <time>2018-11-18T15:47:55.000Z</time>
      </trkpt>
      <trkpt lat="42.70123" lon="1.65985">
        <ele>1257</ele>
        <time>2018-11-18T15:47:57.000Z</time>
      </trkpt>
      <trkpt lat="42.70122" lon="1.65985">
        <ele>1257</ele>
        <time>2018-11-18T15:47:59.000Z</time>
      </trkpt>
      <trkpt lat="42.70122" lon="1.65984">
        <ele>1258</ele>
        <time>2018-11-18T15:48:01.000Z</time>
      </trkpt>
      <trkpt lat="42.70123" lon="1.65985">
        <ele>1258</ele>
        <time>2018-11-18T15:48:03.000Z</time>
      </trkpt>
      <trkpt lat="42.70124" lon="1.65985">
        <ele>1258</ele>
        <time>2018-11-18T15:48:05.000Z</time>
      </trkpt>
      <trkpt lat="42.70125" lon="1.65986">
        <ele>1258</ele>
        <time>2018-11-18T15:48:07.000Z</time>
      </trkpt>
      <trkpt lat="42.70126" lon="1.65986">
        <ele>1258</ele>
        <time>2018-11-18T15:48:09.000Z</time>
      </trkpt>
      <trkpt lat="42.70126" lon="1.65986">
        <ele>1258</ele>
        <time>2018-11-18T15:48:11.000Z</time>
      </trkpt>
      <trkpt lat="42.70126" lon="1.65986">
        <ele>1258</ele>
        <time>2018-11-18T15:48:13.000Z</time>
      </trkpt>
      <trkpt lat="42.70127" lon="1.65987">
        <ele>1259</ele>
        <time>2018-11-18T15:48:15.000Z</time>
      </trkpt>
      <trkpt lat="42.70127" lon="1.65987">
        <ele>1258</ele>
        <time>2018-11-18T15:48:17.000Z</time>
      </trkpt>
      <trkpt lat="42.70127" lon="1.65988">
        <ele>1258</ele>
        <time>2018-11-18T15:48:19.000Z</time>
      </trkpt>
      <trkpt lat="42.70127" lon="1.65989">
        <ele>1257</ele>
        <time>2018-11-18T15:48:21.000Z</time>
      </trkpt>
      <trkpt lat="42.70127" lon="1.6599">
        <ele>1257</ele>
        <time>2018-11-18T15:48:23.000Z</time>
      </trkpt>
      <trkpt lat="42.70127" lon="1.6599">
        <ele>1257</ele>
        <time>2018-11-18T15:48:25.000Z</time>
      </trkpt>
      <trkpt lat="42.70127" lon="1.65991">
        <ele>1257</ele>
        <time>2018-11-18T15:48:27.000Z</time>
      </trkpt>
      <trkpt lat="42.70126" lon="1.65991">
        <ele>1256</ele>
        <time>2018-11-18T15:48:29.000Z</time>
      </trkpt>
      <trkpt lat="42.70127" lon="1.65991">
        <ele>1256</ele>
        <time>2018-11-18T15:48:31.000Z</time>
      </trkpt>
      <trkpt lat="42.70126" lon="1.65991">
        <ele>1256</ele>
        <time>2018-11-18T15:48:33.000Z</time>
      </trkpt>
      <trkpt lat="42.70126" lon="1.65991">
        <ele>1256</ele>
        <time>2018-11-18T15:48:35.000Z</time>
      </trkpt>
      <trkpt lat="42.70126" lon="1.65991">
        <ele>1256</ele>
        <time>2018-11-18T15:48:37.000Z</time>
      </trkpt>
      <trkpt lat="42.70126" lon="1.65991">
        <ele>1256</ele>
        <time>2018-11-18T15:48:39.000Z</time>
      </trkpt>
      <trkpt lat="42.70126" lon="1.65991">
        <ele>1257</ele>
        <time>2018-11-18T15:48:41.000Z</time>
      </trkpt>
      <trkpt lat="42.70127" lon="1.65991">
        <ele>1257</ele>
        <time>2018-11-18T15:48:43.000Z</time>
      </trkpt>
      <trkpt lat="42.70128" lon="1.65992">
        <ele>1257</ele>
        <time>2018-11-18T15:48:45.000Z</time>
      </trkpt>
      <trkpt lat="42.70128" lon="1.65992">
        <ele>1257</ele>
        <time>2018-11-18T15:48:47.000Z</time>
      </trkpt>
      <trkpt lat="42.70128" lon="1.65991">
        <ele>1257</ele>
        <time>2018-11-18T15:48:49.000Z</time>
      </trkpt>
      <trkpt lat="42.70127" lon="1.65991">
        <ele>1257</ele>
        <time>2018-11-18T15:48:51.000Z</time>
      </trkpt>
      <trkpt lat="42.70127" lon="1.6599">
        <ele>1257</ele>
        <time>2018-11-18T15:48:53.000Z</time>
      </trkpt>
      <trkpt lat="42.70126" lon="1.6599">
        <ele>1256</ele>
        <time>2018-11-18T15:48:55.000Z</time>
      </trkpt>
      <trkpt lat="42.70125" lon="1.6599">
        <ele>1256</ele>
        <time>2018-11-18T15:48:57.000Z</time>
      </trkpt>
      <trkpt lat="42.70125" lon="1.6599">
        <ele>1256</ele>
        <time>2018-11-18T15:48:59.000Z</time>
      </trkpt>
      <trkpt lat="42.70125" lon="1.65989">
        <ele>1256</ele>
        <time>2018-11-18T15:49:01.000Z</time>
      </trkpt>
      <trkpt lat="42.70125" lon="1.65989">
        <ele>1257</ele>
        <time>2018-11-18T15:49:03.000Z</time>
      </trkpt>
      <trkpt lat="42.70125" lon="1.65988">
        <ele>1257</ele>
        <time>2018-11-18T15:49:05.000Z</time>
      </trkpt>
      <trkpt lat="42.70125" lon="1.65988">
        <ele>1257</ele>
        <time>2018-11-18T15:49:07.000Z</time>
      </trkpt>
      <trkpt lat="42.70125" lon="1.65987">
        <ele>1258</ele>
        <time>2018-11-18T15:49:09.000Z</time>
      </trkpt>
      <trkpt lat="42.70126" lon="1.65986">
        <ele>1258</ele>
        <time>2018-11-18T15:49:11.000Z</time>
      </trkpt>
      <trkpt lat="42.70126" lon="1.65986">
        <ele>1259</ele>
        <time>2018-11-18T15:49:13.000Z</time>
      </trkpt>
      <trkpt lat="42.70126" lon="1.65985">
        <ele>1259</ele>
        <time>2018-11-18T15:49:15.000Z</time>
      </trkpt>
      <trkpt lat="42.70126" lon="1.65985">
        <ele>1259</ele>
        <time>2018-11-18T15:49:17.000Z</time>
      </trkpt>
      <trkpt lat="42.70126" lon="1.65985">
        <ele>1259</ele>
        <time>2018-11-18T15:49:19.000Z</time>
      </trkpt>
      <trkpt lat="42.70127" lon="1.65985">
        <ele>1259</ele>
        <time>2018-11-18T15:49:21.000Z</time>
      </trkpt>
      <trkpt lat="42.70127" lon="1.65985">
        <ele>1259</ele>
        <time>2018-11-18T15:49:23.000Z</time>
      </trkpt>
      <trkpt lat="42.70127" lon="1.65986">
        <ele>1259</ele>
        <time>2018-11-18T15:49:25.000Z</time>
      </trkpt>
      <trkpt lat="42.70128" lon="1.65986">
        <ele>1259</ele>
        <time>2018-11-18T15:49:27.000Z</time>
      </trkpt>
      <trkpt lat="42.70128" lon="1.65986">
        <ele>1259</ele>
        <time>2018-11-18T15:49:29.000Z</time>
      </trkpt>
      <trkpt lat="42.70128" lon="1.65986">
        <ele>1259</ele>
        <time>2018-11-18T15:49:31.000Z</time>
      </trkpt>
      <trkpt lat="42.70129" lon="1.65987">
        <ele>1259</ele>
        <time>2018-11-18T15:49:33.000Z</time>
      </trkpt>
      <trkpt lat="42.70129" lon="1.65987">
        <ele>1260</ele>
        <time>2018-11-18T15:49:35.000Z</time>
      </trkpt>
      <trkpt lat="42.70129" lon="1.65987">
        <ele>1259</ele>
        <time>2018-11-18T15:49:37.000Z</time>
      </trkpt>
      <trkpt lat="42.70129" lon="1.65988">
        <ele>1259</ele>
        <time>2018-11-18T15:49:39.000Z</time>
      </trkpt>
      <trkpt lat="42.70129" lon="1.65988">
        <ele>1259</ele>
        <time>2018-11-18T15:49:41.000Z</time>
      </trkpt>
      <trkpt lat="42.70128" lon="1.65988">
        <ele>1259</ele>
        <time>2018-11-18T15:49:43.000Z</time>
      </trkpt>
      <trkpt lat="42.70128" lon="1.65987">
        <ele>1259</ele>
        <time>2018-11-18T15:49:45.000Z</time>
      </trkpt>
      <trkpt lat="42.70128" lon="1.65988">
        <ele>1258</ele>
        <time>2018-11-18T15:49:47.000Z</time>
      </trkpt>
      <trkpt lat="42.70128" lon="1.65989">
        <ele>1258</ele>
        <time>2018-11-18T15:49:49.000Z</time>
      </trkpt>
      <trkpt lat="42.70128" lon="1.6599">
        <ele>1258</ele>
        <time>2018-11-18T15:49:51.000Z</time>
      </trkpt>
      <trkpt lat="42.70128" lon="1.6599">
        <ele>1258</ele>
        <time>2018-11-18T15:49:53.000Z</time>
      </trkpt>
      <trkpt lat="42.70128" lon="1.6599">
        <ele>1258</ele>
        <time>2018-11-18T15:49:55.000Z</time>
      </trkpt>
      <trkpt lat="42.70128" lon="1.6599">
        <ele>1257</ele>
        <time>2018-11-18T15:49:57.000Z</time>
      </trkpt>
      <trkpt lat="42.70127" lon="1.65991">
        <ele>1256</ele>
        <time>2018-11-18T15:49:59.000Z</time>
      </trkpt>
      <trkpt lat="42.70126" lon="1.65992">
        <ele>1256</ele>
        <time>2018-11-18T15:50:01.000Z</time>
      </trkpt>
      <trkpt lat="42.70126" lon="1.65992">
        <ele>1256</ele>
        <time>2018-11-18T15:50:03.000Z</time>
      </trkpt>
      <trkpt lat="42.70127" lon="1.65992">
        <ele>1256</ele>
        <time>2018-11-18T15:50:05.000Z</time>
      </trkpt>
      <trkpt lat="42.70127" lon="1.65992">
        <ele>1256</ele>
        <time>2018-11-18T15:50:07.000Z</time>
      </trkpt>
      <trkpt lat="42.70127" lon="1.65992">
        <ele>1256</ele>
        <time>2018-11-18T15:50:09.000Z</time>
      </trkpt>
      <trkpt lat="42.70127" lon="1.65992">
        <ele>1256</ele>
        <time>2018-11-18T15:50:11.000Z</time>
      </trkpt>
      <trkpt lat="42.70127" lon="1.65993">
        <ele>1256</ele>
        <time>2018-11-18T15:50:13.000Z</time>
      </trkpt>
      <trkpt lat="42.70128" lon="1.65994">
        <ele>1256</ele>
        <time>2018-11-18T15:50:15.000Z</time>
      </trkpt>
      <trkpt lat="42.70128" lon="1.65994">
        <ele>1256</ele>
        <time>2018-11-18T15:50:17.000Z</time>
      </trkpt>
      <trkpt lat="42.70128" lon="1.65994">
        <ele>1256</ele>
        <time>2018-11-18T15:50:19.000Z</time>
      </trkpt>
      <trkpt lat="42.70128" lon="1.65994">
        <ele>1256</ele>
        <time>2018-11-18T15:50:21.000Z</time>
      </trkpt>
      <trkpt lat="42.70128" lon="1.65994">
        <ele>1256</ele>
        <time>2018-11-18T15:50:23.000Z</time>
      </trkpt>
      <trkpt lat="42.70128" lon="1.65993">
        <ele>1256</ele>
        <time>2018-11-18T15:50:25.000Z</time>
      </trkpt>
      <trkpt lat="42.70128" lon="1.65992">
        <ele>1257</ele>
        <time>2018-11-18T15:50:27.000Z</time>
      </trkpt>
      <trkpt lat="42.70129" lon="1.65991">
        <ele>1257</ele>
        <time>2018-11-18T15:50:29.000Z</time>
      </trkpt>
      <trkpt lat="42.70129" lon="1.6599">
        <ele>1258</ele>
        <time>2018-11-18T15:50:31.000Z</time>
      </trkpt>
      <trkpt lat="42.70128" lon="1.65989">
        <ele>1258</ele>
        <time>2018-11-18T15:50:33.000Z</time>
      </trkpt>
      <trkpt lat="42.70127" lon="1.65989">
        <ele>1257</ele>
        <time>2018-11-18T15:50:35.000Z</time>
      </trkpt>
      <trkpt lat="42.70126" lon="1.65988">
        <ele>1257</ele>
        <time>2018-11-18T15:50:37.000Z</time>
      </trkpt>
      <trkpt lat="42.70126" lon="1.65988">
        <ele>1257</ele>
        <time>2018-11-18T15:50:39.000Z</time>
      </trkpt>
      <trkpt lat="42.70126" lon="1.65988">
        <ele>1258</ele>
        <time>2018-11-18T15:50:41.000Z</time>
      </trkpt>
      <trkpt lat="42.70126" lon="1.65988">
        <ele>1258</ele>
        <time>2018-11-18T15:50:43.000Z</time>
      </trkpt>
      <trkpt lat="42.70126" lon="1.65987">
        <ele>1258</ele>
        <time>2018-11-18T15:50:45.000Z</time>
      </trkpt>
      <trkpt lat="42.70127" lon="1.65987">
        <ele>1258</ele>
        <time>2018-11-18T15:50:47.000Z</time>
      </trkpt>
      <trkpt lat="42.70128" lon="1.65987">
        <ele>1259</ele>
        <time>2018-11-18T15:50:49.000Z</time>
      </trkpt>
      <trkpt lat="42.70128" lon="1.65987">
        <ele>1259</ele>
        <time>2018-11-18T15:50:51.000Z</time>
      </trkpt>
      <trkpt lat="42.70129" lon="1.65988">
        <ele>1259</ele>
        <time>2018-11-18T15:50:53.000Z</time>
      </trkpt>
      <trkpt lat="42.70129" lon="1.65988">
        <ele>1259</ele>
        <time>2018-11-18T15:50:55.000Z</time>
      </trkpt>
      <trkpt lat="42.70129" lon="1.65989">
        <ele>1259</ele>
        <time>2018-11-18T15:50:57.000Z</time>
      </trkpt>
      <trkpt lat="42.70129" lon="1.65988">
        <ele>1259</ele>
        <time>2018-11-18T15:50:59.000Z</time>
      </trkpt>
      <trkpt lat="42.70128" lon="1.65989">
        <ele>1258</ele>
        <time>2018-11-18T15:51:01.000Z</time>
      </trkpt>
      <trkpt lat="42.70128" lon="1.65989">
        <ele>1258</ele>
        <time>2018-11-18T15:51:03.000Z</time>
      </trkpt>
      <trkpt lat="42.70128" lon="1.65989">
        <ele>1258</ele>
        <time>2018-11-18T15:51:05.000Z</time>
      </trkpt>
      <trkpt lat="42.70129" lon="1.6599">
        <ele>1258</ele>
        <time>2018-11-18T15:51:07.000Z</time>
      </trkpt>
      <trkpt lat="42.70129" lon="1.65991">
        <ele>1258</ele>
        <time>2018-11-18T15:51:09.000Z</time>
      </trkpt>
      <trkpt lat="42.70129" lon="1.65991">
        <ele>1258</ele>
        <time>2018-11-18T15:51:11.000Z</time>
      </trkpt>
      <trkpt lat="42.7013" lon="1.65992">
        <ele>1258</ele>
        <time>2018-11-18T15:51:13.000Z</time>
      </trkpt>
      <trkpt lat="42.7013" lon="1.65992">
        <ele>1258</ele>
        <time>2018-11-18T15:51:15.000Z</time>
      </trkpt>
      <trkpt lat="42.70131" lon="1.65992">
        <ele>1258</ele>
        <time>2018-11-18T15:51:17.000Z</time>
      </trkpt>
      <trkpt lat="42.7013" lon="1.65992">
        <ele>1258</ele>
        <time>2018-11-18T15:51:19.000Z</time>
      </trkpt>
      <trkpt lat="42.70131" lon="1.65992">
        <ele>1258</ele>
        <time>2018-11-18T15:51:21.000Z</time>
      </trkpt>
      <trkpt lat="42.7013" lon="1.65992">
        <ele>1258</ele>
        <time>2018-11-18T15:51:23.000Z</time>
      </trkpt>
      <trkpt lat="42.70131" lon="1.65992">
        <ele>1258</ele>
        <time>2018-11-18T15:51:25.000Z</time>
      </trkpt>
      <trkpt lat="42.70131" lon="1.65991">
        <ele>1258</ele>
        <time>2018-11-18T15:51:27.000Z</time>
      </trkpt>
      <trkpt lat="42.7013" lon="1.65989">
        <ele>1259</ele>
        <time>2018-11-18T15:51:29.000Z</time>
      </trkpt>
      <trkpt lat="42.7013" lon="1.65989">
        <ele>1259</ele>
        <time>2018-11-18T15:51:31.000Z</time>
      </trkpt>
      <trkpt lat="42.70129" lon="1.65988">
        <ele>1259</ele>
        <time>2018-11-18T15:51:33.000Z</time>
      </trkpt>
      <trkpt lat="42.70129" lon="1.65988">
        <ele>1259</ele>
        <time>2018-11-18T15:51:35.000Z</time>
      </trkpt>
      <trkpt lat="42.70129" lon="1.65987">
        <ele>1259</ele>
        <time>2018-11-18T15:51:37.000Z</time>
      </trkpt>
      <trkpt lat="42.70128" lon="1.65986">
        <ele>1259</ele>
        <time>2018-11-18T15:51:39.000Z</time>
      </trkpt>
      <trkpt lat="42.70128" lon="1.65986">
        <ele>1259</ele>
        <time>2018-11-18T15:51:41.000Z</time>
      </trkpt>
      <trkpt lat="42.70128" lon="1.65986">
        <ele>1259</ele>
        <time>2018-11-18T15:51:43.000Z</time>
      </trkpt>
      <trkpt lat="42.70128" lon="1.65986">
        <ele>1259</ele>
        <time>2018-11-18T15:51:45.000Z</time>
      </trkpt>
      <trkpt lat="42.70128" lon="1.65986">
        <ele>1260</ele>
        <time>2018-11-18T15:51:47.000Z</time>
      </trkpt>
      <trkpt lat="42.70128" lon="1.65985">
        <ele>1260</ele>
        <time>2018-11-18T15:51:49.000Z</time>
      </trkpt>
      <trkpt lat="42.70128" lon="1.65985">
        <ele>1260</ele>
        <time>2018-11-18T15:51:51.000Z</time>
      </trkpt>
      <trkpt lat="42.70129" lon="1.65986">
        <ele>1260</ele>
        <time>2018-11-18T15:51:53.000Z</time>
      </trkpt>
      <trkpt lat="42.70129" lon="1.65986">
        <ele>1260</ele>
        <time>2018-11-18T15:51:55.000Z</time>
      </trkpt>
      <trkpt lat="42.70128" lon="1.65986">
        <ele>1259</ele>
        <time>2018-11-18T15:51:57.000Z</time>
      </trkpt>
      <trkpt lat="42.70128" lon="1.65986">
        <ele>1259</ele>
        <time>2018-11-18T15:51:59.000Z</time>
      </trkpt>
      <trkpt lat="42.70128" lon="1.65986">
        <ele>1259</ele>
        <time>2018-11-18T15:52:01.000Z</time>
      </trkpt>
      <trkpt lat="42.70128" lon="1.65986">
        <ele>1259</ele>
        <time>2018-11-18T15:52:03.000Z</time>
      </trkpt>
      <trkpt lat="42.70128" lon="1.65987">
        <ele>1259</ele>
        <time>2018-11-18T15:52:05.000Z</time>
      </trkpt>
      <trkpt lat="42.70128" lon="1.65988">
        <ele>1259</ele>
        <time>2018-11-18T15:52:07.000Z</time>
      </trkpt>
      <trkpt lat="42.70129" lon="1.65988">
        <ele>1259</ele>
        <time>2018-11-18T15:52:09.000Z</time>
      </trkpt>
      <trkpt lat="42.7013" lon="1.65988">
        <ele>1259</ele>
        <time>2018-11-18T15:52:11.000Z</time>
      </trkpt>
      <trkpt lat="42.70131" lon="1.65989">
        <ele>1259</ele>
        <time>2018-11-18T15:52:13.000Z</time>
      </trkpt>
      <trkpt lat="42.7013" lon="1.65989">
        <ele>1259</ele>
        <time>2018-11-18T15:52:15.000Z</time>
      </trkpt>
      <trkpt lat="42.70131" lon="1.65989">
        <ele>1259</ele>
        <time>2018-11-18T15:52:17.000Z</time>
      </trkpt>
      <trkpt lat="42.70131" lon="1.65988">
        <ele>1260</ele>
        <time>2018-11-18T15:52:19.000Z</time>
      </trkpt>
      <trkpt lat="42.70131" lon="1.65988">
        <ele>1260</ele>
        <time>2018-11-18T15:52:21.000Z</time>
      </trkpt>
      <trkpt lat="42.70132" lon="1.65989">
        <ele>1260</ele>
        <time>2018-11-18T15:52:23.000Z</time>
      </trkpt>
      <trkpt lat="42.70132" lon="1.65988">
        <ele>1260</ele>
        <time>2018-11-18T15:52:25.000Z</time>
      </trkpt>
      <trkpt lat="42.70132" lon="1.65987">
        <ele>1261</ele>
        <time>2018-11-18T15:52:27.000Z</time>
      </trkpt>
      <trkpt lat="42.70132" lon="1.65987">
        <ele>1261</ele>
        <time>2018-11-18T15:52:29.000Z</time>
      </trkpt>
      <trkpt lat="42.70132" lon="1.65987">
        <ele>1261</ele>
        <time>2018-11-18T15:52:31.000Z</time>
      </trkpt>
      <trkpt lat="42.70132" lon="1.65987">
        <ele>1261</ele>
        <time>2018-11-18T15:52:33.000Z</time>
      </trkpt>
      <trkpt lat="42.70131" lon="1.65987">
        <ele>1261</ele>
        <time>2018-11-18T15:52:35.000Z</time>
      </trkpt>
      <trkpt lat="42.70131" lon="1.65987">
        <ele>1261</ele>
        <time>2018-11-18T15:52:37.000Z</time>
      </trkpt>
      <trkpt lat="42.70131" lon="1.65987">
        <ele>1261</ele>
        <time>2018-11-18T15:52:39.000Z</time>
      </trkpt>
      <trkpt lat="42.70131" lon="1.65987">
        <ele>1260</ele>
        <time>2018-11-18T15:52:41.000Z</time>
      </trkpt>
      <trkpt lat="42.7013" lon="1.65986">
        <ele>1260</ele>
        <time>2018-11-18T15:52:43.000Z</time>
      </trkpt>
      <trkpt lat="42.7013" lon="1.65986">
        <ele>1260</ele>
        <time>2018-11-18T15:52:45.000Z</time>
      </trkpt>
      <trkpt lat="42.7013" lon="1.65986">
        <ele>1260</ele>
        <time>2018-11-18T15:52:47.000Z</time>
      </trkpt>
      <trkpt lat="42.7013" lon="1.65986">
        <ele>1260</ele>
        <time>2018-11-18T15:52:49.000Z</time>
      </trkpt>
      <trkpt lat="42.70129" lon="1.65986">
        <ele>1260</ele>
        <time>2018-11-18T15:52:51.000Z</time>
      </trkpt>
      <trkpt lat="42.70129" lon="1.65986">
        <ele>1260</ele>
        <time>2018-11-18T15:52:53.000Z</time>
      </trkpt>
      <trkpt lat="42.70129" lon="1.65986">
        <ele>1260</ele>
        <time>2018-11-18T15:52:55.000Z</time>
      </trkpt>
      <trkpt lat="42.7013" lon="1.65986">
        <ele>1260</ele>
        <time>2018-11-18T15:52:57.000Z</time>
      </trkpt>
      <trkpt lat="42.7013" lon="1.65986">
        <ele>1260</ele>
        <time>2018-11-18T15:52:59.000Z</time>
      </trkpt>
      <trkpt lat="42.7013" lon="1.65986">
        <ele>1260</ele>
        <time>2018-11-18T15:53:01.000Z</time>
      </trkpt>
      <trkpt lat="42.7013" lon="1.65987">
        <ele>1260</ele>
        <time>2018-11-18T15:53:03.000Z</time>
      </trkpt>
      <trkpt lat="42.70129" lon="1.65988">
        <ele>1259</ele>
        <time>2018-11-18T15:53:05.000Z</time>
      </trkpt>
      <trkpt lat="42.70129" lon="1.65987">
        <ele>1259</ele>
        <time>2018-11-18T15:53:07.000Z</time>
      </trkpt>
      <trkpt lat="42.7013" lon="1.65988">
        <ele>1259</ele>
        <time>2018-11-18T15:53:09.000Z</time>
      </trkpt>
      <trkpt lat="42.70131" lon="1.65989">
        <ele>1259</ele>
        <time>2018-11-18T15:53:11.000Z</time>
      </trkpt>
      <trkpt lat="42.70132" lon="1.6599">
        <ele>1260</ele>
        <time>2018-11-18T15:53:13.000Z</time>
      </trkpt>
      <trkpt lat="42.70133" lon="1.6599">
        <ele>1260</ele>
        <time>2018-11-18T15:53:15.000Z</time>
      </trkpt>
      <trkpt lat="42.70134" lon="1.6599">
        <ele>1260</ele>
        <time>2018-11-18T15:53:17.000Z</time>
      </trkpt>
      <trkpt lat="42.70134" lon="1.65991">
        <ele>1260</ele>
        <time>2018-11-18T15:53:19.000Z</time>
      </trkpt>
      <trkpt lat="42.70135" lon="1.65991">
        <ele>1260</ele>
        <time>2018-11-18T15:53:21.000Z</time>
      </trkpt>
      <trkpt lat="42.70135" lon="1.65991">
        <ele>1260</ele>
        <time>2018-11-18T15:53:23.000Z</time>
      </trkpt>
      <trkpt lat="42.70136" lon="1.65992">
        <ele>1260</ele>
        <time>2018-11-18T15:53:25.000Z</time>
      </trkpt>
      <trkpt lat="42.70137" lon="1.65994">
        <ele>1260</ele>
        <time>2018-11-18T15:53:27.000Z</time>
      </trkpt>
      <trkpt lat="42.70137" lon="1.65994">
        <ele>1260</ele>
        <time>2018-11-18T15:53:29.000Z</time>
      </trkpt>
      <trkpt lat="42.70139" lon="1.65994">
        <ele>1261</ele>
        <time>2018-11-18T15:53:31.000Z</time>
      </trkpt>
      <trkpt lat="42.7014" lon="1.65995">
        <ele>1261</ele>
        <time>2018-11-18T15:53:33.000Z</time>
      </trkpt>
      <trkpt lat="42.70141" lon="1.65995">
        <ele>1261</ele>
        <time>2018-11-18T15:53:35.000Z</time>
      </trkpt>
      <trkpt lat="42.70141" lon="1.65996">
        <ele>1261</ele>
        <time>2018-11-18T15:53:37.000Z</time>
      </trkpt>
      <trkpt lat="42.70143" lon="1.65997">
        <ele>1262</ele>
        <time>2018-11-18T15:53:39.000Z</time>
      </trkpt>
      <trkpt lat="42.70144" lon="1.65998">
        <ele>1262</ele>
        <time>2018-11-18T15:53:41.000Z</time>
      </trkpt>
      <trkpt lat="42.70145" lon="1.65998">
        <ele>1262</ele>
        <time>2018-11-18T15:53:43.000Z</time>
      </trkpt>
      <trkpt lat="42.70146" lon="1.65999">
        <ele>1262</ele>
        <time>2018-11-18T15:53:45.000Z</time>
      </trkpt>
      <trkpt lat="42.70148" lon="1.66001">
        <ele>1262</ele>
        <time>2018-11-18T15:53:47.000Z</time>
      </trkpt>
      <trkpt lat="42.70149" lon="1.66002">
        <ele>1262</ele>
        <time>2018-11-18T15:53:49.000Z</time>
      </trkpt>
      <trkpt lat="42.7015" lon="1.66004">
        <ele>1262</ele>
        <time>2018-11-18T15:53:51.000Z</time>
      </trkpt>
      <trkpt lat="42.7015" lon="1.66006">
        <ele>1261</ele>
        <time>2018-11-18T15:53:53.000Z</time>
      </trkpt>
      <trkpt lat="42.70152" lon="1.66008">
        <ele>1261</ele>
        <time>2018-11-18T15:53:55.000Z</time>
      </trkpt>
      <trkpt lat="42.70153" lon="1.6601">
        <ele>1261</ele>
        <time>2018-11-18T15:53:57.000Z</time>
      </trkpt>
      <trkpt lat="42.70154" lon="1.66011">
        <ele>1261</ele>
        <time>2018-11-18T15:53:59.000Z</time>
      </trkpt>
      <trkpt lat="42.70154" lon="1.66012">
        <ele>1260</ele>
        <time>2018-11-18T15:54:01.000Z</time>
      </trkpt>
      <trkpt lat="42.70154" lon="1.66012">
        <ele>1260</ele>
        <time>2018-11-18T15:54:03.000Z</time>
      </trkpt>
      <trkpt lat="42.70154" lon="1.66013">
        <ele>1260</ele>
        <time>2018-11-18T15:54:05.000Z</time>
      </trkpt>
      <trkpt lat="42.70155" lon="1.66014">
        <ele>1260</ele>
        <time>2018-11-18T15:54:07.000Z</time>
      </trkpt>
      <trkpt lat="42.70156" lon="1.66016">
        <ele>1260</ele>
        <time>2018-11-18T15:54:09.000Z</time>
      </trkpt>
      <trkpt lat="42.70159" lon="1.66017">
        <ele>1260</ele>
        <time>2018-11-18T15:54:11.000Z</time>
      </trkpt>
      <trkpt lat="42.70157" lon="1.66019">
        <ele>1259</ele>
        <time>2018-11-18T15:54:13.000Z</time>
      </trkpt>
      <trkpt lat="42.70155" lon="1.66021">
        <ele>1257</ele>
        <time>2018-11-18T15:54:15.000Z</time>
      </trkpt>
      <trkpt lat="42.70156" lon="1.66024">
        <ele>1256</ele>
        <time>2018-11-18T15:54:17.000Z</time>
      </trkpt>
      <trkpt lat="42.70155" lon="1.66025">
        <ele>1255</ele>
        <time>2018-11-18T15:54:19.000Z</time>
      </trkpt>
      <trkpt lat="42.70156" lon="1.66026">
        <ele>1255</ele>
        <time>2018-11-18T15:54:21.000Z</time>
      </trkpt>
      <trkpt lat="42.70156" lon="1.66026">
        <ele>1255</ele>
        <time>2018-11-18T15:54:23.000Z</time>
      </trkpt>
      <trkpt lat="42.70157" lon="1.66028">
        <ele>1255</ele>
        <time>2018-11-18T15:54:25.000Z</time>
      </trkpt>
      <trkpt lat="42.70157" lon="1.6603">
        <ele>1254</ele>
        <time>2018-11-18T15:54:27.000Z</time>
      </trkpt>
      <trkpt lat="42.70157" lon="1.66032">
        <ele>1253</ele>
        <time>2018-11-18T15:54:29.000Z</time>
      </trkpt>
      <trkpt lat="42.70158" lon="1.66034">
        <ele>1252</ele>
        <time>2018-11-18T15:54:31.000Z</time>
      </trkpt>
      <trkpt lat="42.70159" lon="1.66036">
        <ele>1252</ele>
        <time>2018-11-18T15:54:33.000Z</time>
      </trkpt>
      <trkpt lat="42.7016" lon="1.66037">
        <ele>1252</ele>
        <time>2018-11-18T15:54:35.000Z</time>
      </trkpt>
      <trkpt lat="42.70162" lon="1.66038">
        <ele>1253</ele>
        <time>2018-11-18T15:54:37.000Z</time>
      </trkpt>
      <trkpt lat="42.70162" lon="1.66038">
        <ele>1252</ele>
        <time>2018-11-18T15:54:39.000Z</time>
      </trkpt>
      <trkpt lat="42.70162" lon="1.66039">
        <ele>1252</ele>
        <time>2018-11-18T15:54:41.000Z</time>
      </trkpt>
      <trkpt lat="42.70162" lon="1.66041">
        <ele>1251</ele>
        <time>2018-11-18T15:54:43.000Z</time>
      </trkpt>
      <trkpt lat="42.70161" lon="1.66042">
        <ele>1251</ele>
        <time>2018-11-18T15:54:45.000Z</time>
      </trkpt>
      <trkpt lat="42.70162" lon="1.66043">
        <ele>1250</ele>
        <time>2018-11-18T15:54:47.000Z</time>
      </trkpt>
      <trkpt lat="42.70162" lon="1.66046">
        <ele>1250</ele>
        <time>2018-11-18T15:54:49.000Z</time>
      </trkpt>
      <trkpt lat="42.70163" lon="1.66049">
        <ele>1248</ele>
        <time>2018-11-18T15:54:51.000Z</time>
      </trkpt>
      <trkpt lat="42.70164" lon="1.66052">
        <ele>1248</ele>
        <time>2018-11-18T15:54:53.000Z</time>
      </trkpt>
      <trkpt lat="42.70165" lon="1.66054">
        <ele>1247</ele>
        <time>2018-11-18T15:54:55.000Z</time>
      </trkpt>
      <trkpt lat="42.70166" lon="1.66056">
        <ele>1247</ele>
        <time>2018-11-18T15:54:57.000Z</time>
      </trkpt>
      <trkpt lat="42.70167" lon="1.66057">
        <ele>1247</ele>
        <time>2018-11-18T15:54:59.000Z</time>
      </trkpt>
      <trkpt lat="42.70168" lon="1.66058">
        <ele>1247</ele>
        <time>2018-11-18T15:55:01.000Z</time>
      </trkpt>
      <trkpt lat="42.70169" lon="1.6606">
        <ele>1246</ele>
        <time>2018-11-18T15:55:03.000Z</time>
      </trkpt>
      <trkpt lat="42.70169" lon="1.66063">
        <ele>1245</ele>
        <time>2018-11-18T15:55:05.000Z</time>
      </trkpt>
      <trkpt lat="42.70169" lon="1.66064">
        <ele>1245</ele>
        <time>2018-11-18T15:55:07.000Z</time>
      </trkpt>
      <trkpt lat="42.7017" lon="1.66067">
        <ele>1244</ele>
        <time>2018-11-18T15:55:09.000Z</time>
      </trkpt>
      <trkpt lat="42.70171" lon="1.66069">
        <ele>1243</ele>
        <time>2018-11-18T15:55:11.000Z</time>
      </trkpt>
      <trkpt lat="42.70172" lon="1.66071">
        <ele>1243</ele>
        <time>2018-11-18T15:55:13.000Z</time>
      </trkpt>
      <trkpt lat="42.70174" lon="1.66074">
        <ele>1242</ele>
        <time>2018-11-18T15:55:15.000Z</time>
      </trkpt>
      <trkpt lat="42.70176" lon="1.66076">
        <ele>1242</ele>
        <time>2018-11-18T15:55:17.000Z</time>
      </trkpt>
      <trkpt lat="42.70179" lon="1.66078">
        <ele>1242</ele>
        <time>2018-11-18T15:55:19.000Z</time>
      </trkpt>
      <trkpt lat="42.7018" lon="1.66079">
        <ele>1241</ele>
        <time>2018-11-18T15:55:21.000Z</time>
      </trkpt>
      <trkpt lat="42.70181" lon="1.6608">
        <ele>1241</ele>
        <time>2018-11-18T15:55:23.000Z</time>
      </trkpt>
      <trkpt lat="42.70183" lon="1.66082">
        <ele>1241</ele>
        <time>2018-11-18T15:55:25.000Z</time>
      </trkpt>
      <trkpt lat="42.70184" lon="1.66084">
        <ele>1240</ele>
        <time>2018-11-18T15:55:27.000Z</time>
      </trkpt>
      <trkpt lat="42.70185" lon="1.66086">
        <ele>1240</ele>
        <time>2018-11-18T15:55:29.000Z</time>
      </trkpt>
      <trkpt lat="42.70186" lon="1.66089">
        <ele>1239</ele>
        <time>2018-11-18T15:55:31.000Z</time>
      </trkpt>
      <trkpt lat="42.70187" lon="1.66091">
        <ele>1238</ele>
        <time>2018-11-18T15:55:33.000Z</time>
      </trkpt>
      <trkpt lat="42.70186" lon="1.66092">
        <ele>1238</ele>
        <time>2018-11-18T15:55:35.000Z</time>
      </trkpt>
      <trkpt lat="42.70187" lon="1.66093">
        <ele>1238</ele>
        <time>2018-11-18T15:55:37.000Z</time>
      </trkpt>
      <trkpt lat="42.70187" lon="1.66094">
        <ele>1238</ele>
        <time>2018-11-18T15:55:39.000Z</time>
      </trkpt>
      <trkpt lat="42.70187" lon="1.66093">
        <ele>1238</ele>
        <time>2018-11-18T15:55:41.000Z</time>
      </trkpt>
      <trkpt lat="42.70187" lon="1.66094">
        <ele>1238</ele>
        <time>2018-11-18T15:55:43.000Z</time>
      </trkpt>
      <trkpt lat="42.70187" lon="1.66095">
        <ele>1237</ele>
        <time>2018-11-18T15:55:45.000Z</time>
      </trkpt>
      <trkpt lat="42.70188" lon="1.66096">
        <ele>1237</ele>
        <time>2018-11-18T15:55:47.000Z</time>
      </trkpt>
      <trkpt lat="42.70187" lon="1.66096">
        <ele>1237</ele>
        <time>2018-11-18T15:55:49.000Z</time>
      </trkpt>
      <trkpt lat="42.70189" lon="1.66098">
        <ele>1237</ele>
        <time>2018-11-18T15:55:51.000Z</time>
      </trkpt>
      <trkpt lat="42.7019" lon="1.66098">
        <ele>1236</ele>
        <time>2018-11-18T15:55:53.000Z</time>
      </trkpt>
      <trkpt lat="42.70191" lon="1.66099">
        <ele>1236</ele>
        <time>2018-11-18T15:55:55.000Z</time>
      </trkpt>
      <trkpt lat="42.70194" lon="1.66101">
        <ele>1236</ele>
        <time>2018-11-18T15:55:57.000Z</time>
      </trkpt>
      <trkpt lat="42.70196" lon="1.66103">
        <ele>1236</ele>
        <time>2018-11-18T15:55:59.000Z</time>
      </trkpt>
      <trkpt lat="42.70197" lon="1.66105">
        <ele>1235</ele>
        <time>2018-11-18T15:56:01.000Z</time>
      </trkpt>
      <trkpt lat="42.70198" lon="1.66107">
        <ele>1235</ele>
        <time>2018-11-18T15:56:03.000Z</time>
      </trkpt>
      <trkpt lat="42.70199" lon="1.66109">
        <ele>1234</ele>
        <time>2018-11-18T15:56:05.000Z</time>
      </trkpt>
      <trkpt lat="42.70199" lon="1.6611">
        <ele>1234</ele>
        <time>2018-11-18T15:56:07.000Z</time>
      </trkpt>
      <trkpt lat="42.702" lon="1.66111">
        <ele>1234</ele>
        <time>2018-11-18T15:56:09.000Z</time>
      </trkpt>
      <trkpt lat="42.70201" lon="1.66112">
        <ele>1234</ele>
        <time>2018-11-18T15:56:11.000Z</time>
      </trkpt>
      <trkpt lat="42.70202" lon="1.66112">
        <ele>1234</ele>
        <time>2018-11-18T15:56:13.000Z</time>
      </trkpt>
      <trkpt lat="42.70203" lon="1.66113">
        <ele>1234</ele>
        <time>2018-11-18T15:56:15.000Z</time>
      </trkpt>
      <trkpt lat="42.70204" lon="1.66113">
        <ele>1234</ele>
        <time>2018-11-18T15:56:17.000Z</time>
      </trkpt>
      <trkpt lat="42.70205" lon="1.66114">
        <ele>1234</ele>
        <time>2018-11-18T15:56:19.000Z</time>
      </trkpt>
      <trkpt lat="42.70207" lon="1.66114">
        <ele>1234</ele>
        <time>2018-11-18T15:56:21.000Z</time>
      </trkpt>
      <trkpt lat="42.70208" lon="1.66114">
        <ele>1234</ele>
        <time>2018-11-18T15:56:23.000Z</time>
      </trkpt>
      <trkpt lat="42.70208" lon="1.66115">
        <ele>1234</ele>
        <time>2018-11-18T15:56:25.000Z</time>
      </trkpt>
      <trkpt lat="42.70209" lon="1.66116">
        <ele>1233</ele>
        <time>2018-11-18T15:56:27.000Z</time>
      </trkpt>
      <trkpt lat="42.70209" lon="1.66117">
        <ele>1233</ele>
        <time>2018-11-18T15:56:29.000Z</time>
      </trkpt>
      <trkpt lat="42.7021" lon="1.66118">
        <ele>1233</ele>
        <time>2018-11-18T15:56:31.000Z</time>
      </trkpt>
      <trkpt lat="42.70211" lon="1.6612">
        <ele>1232</ele>
        <time>2018-11-18T15:56:33.000Z</time>
      </trkpt>
      <trkpt lat="42.70211" lon="1.66121">
        <ele>1232</ele>
        <time>2018-11-18T15:56:35.000Z</time>
      </trkpt>
      <trkpt lat="42.70211" lon="1.66122">
        <ele>1232</ele>
        <time>2018-11-18T15:56:37.000Z</time>
      </trkpt>
      <trkpt lat="42.7021" lon="1.66122">
        <ele>1232</ele>
        <time>2018-11-18T15:56:39.000Z</time>
      </trkpt>
      <trkpt lat="42.7021" lon="1.66122">
        <ele>1232</ele>
        <time>2018-11-18T15:56:41.000Z</time>
      </trkpt>
      <trkpt lat="42.7021" lon="1.66123">
        <ele>1231</ele>
        <time>2018-11-18T15:56:43.000Z</time>
      </trkpt>
      <trkpt lat="42.70209" lon="1.66124">
        <ele>1231</ele>
        <time>2018-11-18T15:56:45.000Z</time>
      </trkpt>
      <trkpt lat="42.70209" lon="1.66124">
        <ele>1231</ele>
        <time>2018-11-18T15:56:47.000Z</time>
      </trkpt>
      <trkpt lat="42.70209" lon="1.66124">
        <ele>1231</ele>
        <time>2018-11-18T15:56:49.000Z</time>
      </trkpt>
      <trkpt lat="42.70211" lon="1.66126">
        <ele>1230</ele>
        <time>2018-11-18T15:56:51.000Z</time>
      </trkpt>
      <trkpt lat="42.70212" lon="1.66127">
        <ele>1230</ele>
        <time>2018-11-18T15:56:53.000Z</time>
      </trkpt>
      <trkpt lat="42.70213" lon="1.66129">
        <ele>1230</ele>
        <time>2018-11-18T15:56:55.000Z</time>
      </trkpt>
      <trkpt lat="42.70214" lon="1.6613">
        <ele>1230</ele>
        <time>2018-11-18T15:56:57.000Z</time>
      </trkpt>
      <trkpt lat="42.70215" lon="1.66132">
        <ele>1229</ele>
        <time>2018-11-18T15:56:59.000Z</time>
      </trkpt>
      <trkpt lat="42.70216" lon="1.66132">
        <ele>1229</ele>
        <time>2018-11-18T15:57:01.000Z</time>
      </trkpt>
      <trkpt lat="42.70216" lon="1.66133">
        <ele>1229</ele>
        <time>2018-11-18T15:57:03.000Z</time>
      </trkpt>
      <trkpt lat="42.70217" lon="1.66133">
        <ele>1229</ele>
        <time>2018-11-18T15:57:05.000Z</time>
      </trkpt>
      <trkpt lat="42.70218" lon="1.66134">
        <ele>1229</ele>
        <time>2018-11-18T15:57:07.000Z</time>
      </trkpt>
      <trkpt lat="42.70217" lon="1.66135">
        <ele>1229</ele>
        <time>2018-11-18T15:57:09.000Z</time>
      </trkpt>
      <trkpt lat="42.70218" lon="1.66134">
        <ele>1229</ele>
        <time>2018-11-18T15:57:11.000Z</time>
      </trkpt>
      <trkpt lat="42.70219" lon="1.66134">
        <ele>1229</ele>
        <time>2018-11-18T15:57:13.000Z</time>
      </trkpt>
      <trkpt lat="42.7022" lon="1.66134">
        <ele>1229</ele>
        <time>2018-11-18T15:57:15.000Z</time>
      </trkpt>
      <trkpt lat="42.7022" lon="1.66135">
        <ele>1229</ele>
        <time>2018-11-18T15:57:17.000Z</time>
      </trkpt>
      <trkpt lat="42.70221" lon="1.66135">
        <ele>1229</ele>
        <time>2018-11-18T15:57:19.000Z</time>
      </trkpt>
      <trkpt lat="42.70223" lon="1.66136">
        <ele>1229</ele>
        <time>2018-11-18T15:57:21.000Z</time>
      </trkpt>
      <trkpt lat="42.70224" lon="1.66136">
        <ele>1229</ele>
        <time>2018-11-18T15:57:23.000Z</time>
      </trkpt>
      <trkpt lat="42.70224" lon="1.66137">
        <ele>1229</ele>
        <time>2018-11-18T15:57:25.000Z</time>
      </trkpt>
      <trkpt lat="42.70225" lon="1.66138">
        <ele>1229</ele>
        <time>2018-11-18T15:57:27.000Z</time>
      </trkpt>
      <trkpt lat="42.70226" lon="1.66138">
        <ele>1229</ele>
        <time>2018-11-18T15:57:29.000Z</time>
      </trkpt>
      <trkpt lat="42.70226" lon="1.66138">
        <ele>1229</ele>
        <time>2018-11-18T15:57:31.000Z</time>
      </trkpt>
      <trkpt lat="42.70227" lon="1.66138">
        <ele>1229</ele>
        <time>2018-11-18T15:57:33.000Z</time>
      </trkpt>
      <trkpt lat="42.70228" lon="1.66139">
        <ele>1229</ele>
        <time>2018-11-18T15:57:35.000Z</time>
      </trkpt>
      <trkpt lat="42.70231" lon="1.66139">
        <ele>1229</ele>
        <time>2018-11-18T15:57:37.000Z</time>
      </trkpt>
      <trkpt lat="42.70232" lon="1.6614">
        <ele>1229</ele>
        <time>2018-11-18T15:57:39.000Z</time>
      </trkpt>
      <trkpt lat="42.70234" lon="1.66141">
        <ele>1229</ele>
        <time>2018-11-18T15:57:41.000Z</time>
      </trkpt>
      <trkpt lat="42.70234" lon="1.66142">
        <ele>1229</ele>
        <time>2018-11-18T15:57:43.000Z</time>
      </trkpt>
      <trkpt lat="42.70235" lon="1.66142">
        <ele>1229</ele>
        <time>2018-11-18T15:57:45.000Z</time>
      </trkpt>
      <trkpt lat="42.70237" lon="1.66143">
        <ele>1229</ele>
        <time>2018-11-18T15:57:47.000Z</time>
      </trkpt>
      <trkpt lat="42.70239" lon="1.66142">
        <ele>1229</ele>
        <time>2018-11-18T15:57:49.000Z</time>
      </trkpt>
      <trkpt lat="42.70242" lon="1.66143">
        <ele>1230</ele>
        <time>2018-11-18T15:57:51.000Z</time>
      </trkpt>
      <trkpt lat="42.70245" lon="1.66144">
        <ele>1230</ele>
        <time>2018-11-18T15:57:53.000Z</time>
      </trkpt>
      <trkpt lat="42.70247" lon="1.66144">
        <ele>1230</ele>
        <time>2018-11-18T15:57:55.000Z</time>
      </trkpt>
      <trkpt lat="42.70248" lon="1.66145">
        <ele>1230</ele>
        <time>2018-11-18T15:57:57.000Z</time>
      </trkpt>
      <trkpt lat="42.7025" lon="1.66145">
        <ele>1231</ele>
        <time>2018-11-18T15:57:59.000Z</time>
      </trkpt>
      <trkpt lat="42.7025" lon="1.66144">
        <ele>1231</ele>
        <time>2018-11-18T15:58:01.000Z</time>
      </trkpt>
      <trkpt lat="42.70251" lon="1.66145">
        <ele>1231</ele>
        <time>2018-11-18T15:58:03.000Z</time>
      </trkpt>
      <trkpt lat="42.70251" lon="1.66146">
        <ele>1231</ele>
        <time>2018-11-18T15:58:05.000Z</time>
      </trkpt>
      <trkpt lat="42.70251" lon="1.66147">
        <ele>1230</ele>
        <time>2018-11-18T15:58:07.000Z</time>
      </trkpt>
      <trkpt lat="42.70252" lon="1.66148">
        <ele>1230</ele>
        <time>2018-11-18T15:58:09.000Z</time>
      </trkpt>
      <trkpt lat="42.70253" lon="1.66148">
        <ele>1230</ele>
        <time>2018-11-18T15:58:11.000Z</time>
      </trkpt>
      <trkpt lat="42.70254" lon="1.6615">
        <ele>1229</ele>
        <time>2018-11-18T15:58:13.000Z</time>
      </trkpt>
      <trkpt lat="42.70255" lon="1.66151">
        <ele>1229</ele>
        <time>2018-11-18T15:58:15.000Z</time>
      </trkpt>
      <trkpt lat="42.70256" lon="1.6615">
        <ele>1229</ele>
        <time>2018-11-18T15:58:17.000Z</time>
      </trkpt>
      <trkpt lat="42.70257" lon="1.66151">
        <ele>1229</ele>
        <time>2018-11-18T15:58:19.000Z</time>
      </trkpt>
      <trkpt lat="42.70258" lon="1.66152">
        <ele>1229</ele>
        <time>2018-11-18T15:58:21.000Z</time>
      </trkpt>
      <trkpt lat="42.7026" lon="1.66151">
        <ele>1229</ele>
        <time>2018-11-18T15:58:23.000Z</time>
      </trkpt>
      <trkpt lat="42.7026" lon="1.66152">
        <ele>1229</ele>
        <time>2018-11-18T15:58:25.000Z</time>
      </trkpt>
      <trkpt lat="42.70263" lon="1.66154">
        <ele>1228</ele>
        <time>2018-11-18T15:58:27.000Z</time>
      </trkpt>
      <trkpt lat="42.70263" lon="1.66154">
        <ele>1228</ele>
        <time>2018-11-18T15:58:29.000Z</time>
      </trkpt>
      <trkpt lat="42.70267" lon="1.66157">
        <ele>1227</ele>
        <time>2018-11-18T15:58:31.000Z</time>
      </trkpt>
      <trkpt lat="42.7027" lon="1.66158">
        <ele>1226</ele>
        <time>2018-11-18T15:58:33.000Z</time>
      </trkpt>
      <trkpt lat="42.70273" lon="1.66159">
        <ele>1226</ele>
        <time>2018-11-18T15:58:35.000Z</time>
      </trkpt>
      <trkpt lat="42.70273" lon="1.6616">
        <ele>1226</ele>
        <time>2018-11-18T15:58:37.000Z</time>
      </trkpt>
      <trkpt lat="42.70275" lon="1.66161">
        <ele>1225</ele>
        <time>2018-11-18T15:58:39.000Z</time>
      </trkpt>
      <trkpt lat="42.70277" lon="1.66161">
        <ele>1226</ele>
        <time>2018-11-18T15:58:41.000Z</time>
      </trkpt>
      <trkpt lat="42.70278" lon="1.66161">
        <ele>1226</ele>
        <time>2018-11-18T15:58:43.000Z</time>
      </trkpt>
      <trkpt lat="42.7028" lon="1.66163">
        <ele>1225</ele>
        <time>2018-11-18T15:58:45.000Z</time>
      </trkpt>
      <trkpt lat="42.70282" lon="1.66165">
        <ele>1224</ele>
        <time>2018-11-18T15:58:47.000Z</time>
      </trkpt>
      <trkpt lat="42.70283" lon="1.66167">
        <ele>1223</ele>
        <time>2018-11-18T15:58:49.000Z</time>
      </trkpt>
      <trkpt lat="42.70285" lon="1.66168">
        <ele>1223</ele>
        <time>2018-11-18T15:58:51.000Z</time>
      </trkpt>
      <trkpt lat="42.70284" lon="1.66168">
        <ele>1223</ele>
        <time>2018-11-18T15:58:53.000Z</time>
      </trkpt>
      <trkpt lat="42.70286" lon="1.66169">
        <ele>1222</ele>
        <time>2018-11-18T15:58:55.000Z</time>
      </trkpt>
      <trkpt lat="42.70288" lon="1.66171">
        <ele>1222</ele>
        <time>2018-11-18T15:58:57.000Z</time>
      </trkpt>
      <trkpt lat="42.7029" lon="1.66171">
        <ele>1222</ele>
        <time>2018-11-18T15:58:59.000Z</time>
      </trkpt>
      <trkpt lat="42.70292" lon="1.66171">
        <ele>1221</ele>
        <time>2018-11-18T15:59:01.000Z</time>
      </trkpt>
      <trkpt lat="42.70292" lon="1.66172">
        <ele>1221</ele>
        <time>2018-11-18T15:59:03.000Z</time>
      </trkpt>
      <trkpt lat="42.70293" lon="1.66172">
        <ele>1221</ele>
        <time>2018-11-18T15:59:05.000Z</time>
      </trkpt>
      <trkpt lat="42.70295" lon="1.66172">
        <ele>1221</ele>
        <time>2018-11-18T15:59:07.000Z</time>
      </trkpt>
      <trkpt lat="42.70297" lon="1.66173">
        <ele>1221</ele>
        <time>2018-11-18T15:59:09.000Z</time>
      </trkpt>
      <trkpt lat="42.70299" lon="1.66175">
        <ele>1220</ele>
        <time>2018-11-18T15:59:11.000Z</time>
      </trkpt>
      <trkpt lat="42.70301" lon="1.66176">
        <ele>1220</ele>
        <time>2018-11-18T15:59:13.000Z</time>
      </trkpt>
      <trkpt lat="42.70301" lon="1.66176">
        <ele>1220</ele>
        <time>2018-11-18T15:59:15.000Z</time>
      </trkpt>
      <trkpt lat="42.70301" lon="1.66177">
        <ele>1219</ele>
        <time>2018-11-18T15:59:17.000Z</time>
      </trkpt>
      <trkpt lat="42.70299" lon="1.66178">
        <ele>1218</ele>
        <time>2018-11-18T15:59:19.000Z</time>
      </trkpt>
      <trkpt lat="42.70298" lon="1.66179">
        <ele>1218</ele>
        <time>2018-11-18T15:59:21.000Z</time>
      </trkpt>
      <trkpt lat="42.70298" lon="1.66179">
        <ele>1218</ele>
        <time>2018-11-18T15:59:23.000Z</time>
      </trkpt>
      <trkpt lat="42.70299" lon="1.6618">
        <ele>1218</ele>
        <time>2018-11-18T15:59:25.000Z</time>
      </trkpt>
      <trkpt lat="42.70302" lon="1.6618">
        <ele>1218</ele>
        <time>2018-11-18T15:59:27.000Z</time>
      </trkpt>
      <trkpt lat="42.70303" lon="1.66181">
        <ele>1217</ele>
        <time>2018-11-18T15:59:29.000Z</time>
      </trkpt>
      <trkpt lat="42.70305" lon="1.66182">
        <ele>1217</ele>
        <time>2018-11-18T15:59:31.000Z</time>
      </trkpt>
      <trkpt lat="42.70307" lon="1.66183">
        <ele>1217</ele>
        <time>2018-11-18T15:59:33.000Z</time>
      </trkpt>
      <trkpt lat="42.7031" lon="1.66185">
        <ele>1216</ele>
        <time>2018-11-18T15:59:35.000Z</time>
      </trkpt>
      <trkpt lat="42.70312" lon="1.66185">
        <ele>1216</ele>
        <time>2018-11-18T15:59:37.000Z</time>
      </trkpt>
      <trkpt lat="42.70314" lon="1.66185">
        <ele>1216</ele>
        <time>2018-11-18T15:59:39.000Z</time>
      </trkpt>
      <trkpt lat="42.70315" lon="1.66186">
        <ele>1215</ele>
        <time>2018-11-18T15:59:41.000Z</time>
      </trkpt>
      <trkpt lat="42.70316" lon="1.66186">
        <ele>1216</ele>
        <time>2018-11-18T15:59:43.000Z</time>
      </trkpt>
      <trkpt lat="42.70317" lon="1.66186">
        <ele>1216</ele>
        <time>2018-11-18T15:59:45.000Z</time>
      </trkpt>
      <trkpt lat="42.7032" lon="1.66187">
        <ele>1216</ele>
        <time>2018-11-18T15:59:47.000Z</time>
      </trkpt>
      <trkpt lat="42.70322" lon="1.66188">
        <ele>1215</ele>
        <time>2018-11-18T15:59:49.000Z</time>
      </trkpt>
      <trkpt lat="42.70325" lon="1.66189">
        <ele>1215</ele>
        <time>2018-11-18T15:59:51.000Z</time>
      </trkpt>
      <trkpt lat="42.70326" lon="1.6619">
        <ele>1214</ele>
        <time>2018-11-18T15:59:53.000Z</time>
      </trkpt>
      <trkpt lat="42.70326" lon="1.66191">
        <ele>1214</ele>
        <time>2018-11-18T15:59:55.000Z</time>
      </trkpt>
      <trkpt lat="42.70326" lon="1.66193">
        <ele>1213</ele>
        <time>2018-11-18T15:59:57.000Z</time>
      </trkpt>
      <trkpt lat="42.70327" lon="1.66195">
        <ele>1212</ele>
        <time>2018-11-18T15:59:59.000Z</time>
      </trkpt>
      <trkpt lat="42.70327" lon="1.66197">
        <ele>1211</ele>
        <time>2018-11-18T16:00:01.000Z</time>
      </trkpt>
      <trkpt lat="42.70328" lon="1.66198">
        <ele>1211</ele>
        <time>2018-11-18T16:00:03.000Z</time>
      </trkpt>
      <trkpt lat="42.70328" lon="1.66198">
        <ele>1210</ele>
        <time>2018-11-18T16:00:05.000Z</time>
      </trkpt>
      <trkpt lat="42.70329" lon="1.66198">
        <ele>1211</ele>
        <time>2018-11-18T16:00:07.000Z</time>
      </trkpt>
      <trkpt lat="42.70331" lon="1.66199">
        <ele>1210</ele>
        <time>2018-11-18T16:00:09.000Z</time>
      </trkpt>
      <trkpt lat="42.70332" lon="1.66199">
        <ele>1210</ele>
        <time>2018-11-18T16:00:11.000Z</time>
      </trkpt>
      <trkpt lat="42.70334" lon="1.66199">
        <ele>1210</ele>
        <time>2018-11-18T16:00:13.000Z</time>
      </trkpt>
      <trkpt lat="42.70335" lon="1.66199">
        <ele>1211</ele>
        <time>2018-11-18T16:00:15.000Z</time>
      </trkpt>
      <trkpt lat="42.70335" lon="1.66199">
        <ele>1210</ele>
        <time>2018-11-18T16:00:17.000Z</time>
      </trkpt>
      <trkpt lat="42.70336" lon="1.662">
        <ele>1210</ele>
        <time>2018-11-18T16:00:19.000Z</time>
      </trkpt>
      <trkpt lat="42.70336" lon="1.66199">
        <ele>1211</ele>
        <time>2018-11-18T16:00:21.000Z</time>
      </trkpt>
      <trkpt lat="42.70337" lon="1.66197">
        <ele>1212</ele>
        <time>2018-11-18T16:00:23.000Z</time>
      </trkpt>
      <trkpt lat="42.7034" lon="1.66196">
        <ele>1212</ele>
        <time>2018-11-18T16:00:25.000Z</time>
      </trkpt>
      <trkpt lat="42.70341" lon="1.66196">
        <ele>1212</ele>
        <time>2018-11-18T16:00:27.000Z</time>
      </trkpt>
      <trkpt lat="42.70342" lon="1.66196">
        <ele>1212</ele>
        <time>2018-11-18T16:00:29.000Z</time>
      </trkpt>
      <trkpt lat="42.70344" lon="1.66196">
        <ele>1212</ele>
        <time>2018-11-18T16:00:31.000Z</time>
      </trkpt>
      <trkpt lat="42.70346" lon="1.66195">
        <ele>1213</ele>
        <time>2018-11-18T16:00:33.000Z</time>
      </trkpt>
      <trkpt lat="42.70348" lon="1.66195">
        <ele>1212</ele>
        <time>2018-11-18T16:00:35.000Z</time>
      </trkpt>
      <trkpt lat="42.7035" lon="1.66195">
        <ele>1212</ele>
        <time>2018-11-18T16:00:37.000Z</time>
      </trkpt>
      <trkpt lat="42.70354" lon="1.66196">
        <ele>1212</ele>
        <time>2018-11-18T16:00:39.000Z</time>
      </trkpt>
      <trkpt lat="42.70356" lon="1.66195">
        <ele>1212</ele>
        <time>2018-11-18T16:00:41.000Z</time>
      </trkpt>
      <trkpt lat="42.70358" lon="1.66196">
        <ele>1212</ele>
        <time>2018-11-18T16:00:43.000Z</time>
      </trkpt>
      <trkpt lat="42.7036" lon="1.66194">
        <ele>1213</ele>
        <time>2018-11-18T16:00:45.000Z</time>
      </trkpt>
      <trkpt lat="42.70361" lon="1.66194">
        <ele>1213</ele>
        <time>2018-11-18T16:00:47.000Z</time>
      </trkpt>
      <trkpt lat="42.70363" lon="1.66194">
        <ele>1213</ele>
        <time>2018-11-18T16:00:49.000Z</time>
      </trkpt>
      <trkpt lat="42.70364" lon="1.66194">
        <ele>1213</ele>
        <time>2018-11-18T16:00:51.000Z</time>
      </trkpt>
      <trkpt lat="42.70366" lon="1.66195">
        <ele>1213</ele>
        <time>2018-11-18T16:00:53.000Z</time>
      </trkpt>
      <trkpt lat="42.70367" lon="1.66194">
        <ele>1213</ele>
        <time>2018-11-18T16:00:55.000Z</time>
      </trkpt>
      <trkpt lat="42.70369" lon="1.66193">
        <ele>1213</ele>
        <time>2018-11-18T16:00:57.000Z</time>
      </trkpt>
      <trkpt lat="42.7037" lon="1.66193">
        <ele>1213</ele>
        <time>2018-11-18T16:00:59.000Z</time>
      </trkpt>
      <trkpt lat="42.70373" lon="1.66192">
        <ele>1214</ele>
        <time>2018-11-18T16:01:01.000Z</time>
      </trkpt>
      <trkpt lat="42.70373" lon="1.66192">
        <ele>1214</ele>
        <time>2018-11-18T16:01:03.000Z</time>
      </trkpt>
      <trkpt lat="42.70373" lon="1.66193">
        <ele>1213</ele>
        <time>2018-11-18T16:01:05.000Z</time>
      </trkpt>
      <trkpt lat="42.70375" lon="1.66193">
        <ele>1214</ele>
        <time>2018-11-18T16:01:07.000Z</time>
      </trkpt>
      <trkpt lat="42.70376" lon="1.66192">
        <ele>1214</ele>
        <time>2018-11-18T16:01:09.000Z</time>
      </trkpt>
      <trkpt lat="42.70377" lon="1.66193">
        <ele>1213</ele>
        <time>2018-11-18T16:01:11.000Z</time>
      </trkpt>
      <trkpt lat="42.70378" lon="1.66193">
        <ele>1213</ele>
        <time>2018-11-18T16:01:13.000Z</time>
      </trkpt>
      <trkpt lat="42.7038" lon="1.66194">
        <ele>1212</ele>
        <time>2018-11-18T16:01:15.000Z</time>
      </trkpt>
      <trkpt lat="42.70382" lon="1.66195">
        <ele>1212</ele>
        <time>2018-11-18T16:01:17.000Z</time>
      </trkpt>
      <trkpt lat="42.70383" lon="1.66194">
        <ele>1212</ele>
        <time>2018-11-18T16:01:19.000Z</time>
      </trkpt>
      <trkpt lat="42.70385" lon="1.66194">
        <ele>1211</ele>
        <time>2018-11-18T16:01:21.000Z</time>
      </trkpt>
      <trkpt lat="42.70387" lon="1.66195">
        <ele>1211</ele>
        <time>2018-11-18T16:01:23.000Z</time>
      </trkpt>
      <trkpt lat="42.70388" lon="1.66195">
        <ele>1211</ele>
        <time>2018-11-18T16:01:25.000Z</time>
      </trkpt>
      <trkpt lat="42.70388" lon="1.66193">
        <ele>1211</ele>
        <time>2018-11-18T16:01:27.000Z</time>
      </trkpt>
      <trkpt lat="42.70389" lon="1.66191">
        <ele>1212</ele>
        <time>2018-11-18T16:01:29.000Z</time>
      </trkpt>
      <trkpt lat="42.7039" lon="1.6619">
        <ele>1212</ele>
        <time>2018-11-18T16:01:31.000Z</time>
      </trkpt>
      <trkpt lat="42.70391" lon="1.66189">
        <ele>1212</ele>
        <time>2018-11-18T16:01:33.000Z</time>
      </trkpt>
      <trkpt lat="42.70392" lon="1.66188">
        <ele>1212</ele>
        <time>2018-11-18T16:01:35.000Z</time>
      </trkpt>
      <trkpt lat="42.70393" lon="1.66188">
        <ele>1212</ele>
        <time>2018-11-18T16:01:37.000Z</time>
      </trkpt>
      <trkpt lat="42.70393" lon="1.66188">
        <ele>1212</ele>
        <time>2018-11-18T16:01:39.000Z</time>
      </trkpt>
      <trkpt lat="42.70394" lon="1.66188">
        <ele>1212</ele>
        <time>2018-11-18T16:01:41.000Z</time>
      </trkpt>
      <trkpt lat="42.70395" lon="1.66189">
        <ele>1212</ele>
        <time>2018-11-18T16:01:43.000Z</time>
      </trkpt>
      <trkpt lat="42.70397" lon="1.66189">
        <ele>1211</ele>
        <time>2018-11-18T16:01:45.000Z</time>
      </trkpt>
      <trkpt lat="42.70398" lon="1.66188">
        <ele>1211</ele>
        <time>2018-11-18T16:01:47.000Z</time>
      </trkpt>
      <trkpt lat="42.70399" lon="1.66188">
        <ele>1212</ele>
        <time>2018-11-18T16:01:49.000Z</time>
      </trkpt>
      <trkpt lat="42.70399" lon="1.66187">
        <ele>1212</ele>
        <time>2018-11-18T16:01:51.000Z</time>
      </trkpt>
      <trkpt lat="42.70399" lon="1.66187">
        <ele>1212</ele>
        <time>2018-11-18T16:01:53.000Z</time>
      </trkpt>
      <trkpt lat="42.704" lon="1.66186">
        <ele>1212</ele>
        <time>2018-11-18T16:01:55.000Z</time>
      </trkpt>
      <trkpt lat="42.70401" lon="1.66186">
        <ele>1212</ele>
        <time>2018-11-18T16:01:57.000Z</time>
      </trkpt>
      <trkpt lat="42.70402" lon="1.66186">
        <ele>1212</ele>
        <time>2018-11-18T16:01:59.000Z</time>
      </trkpt>
      <trkpt lat="42.70402" lon="1.66185">
        <ele>1212</ele>
        <time>2018-11-18T16:02:01.000Z</time>
      </trkpt>
      <trkpt lat="42.70404" lon="1.66185">
        <ele>1212</ele>
        <time>2018-11-18T16:02:03.000Z</time>
      </trkpt>
      <trkpt lat="42.70406" lon="1.66186">
        <ele>1211</ele>
        <time>2018-11-18T16:02:05.000Z</time>
      </trkpt>
      <trkpt lat="42.70408" lon="1.66184">
        <ele>1211</ele>
        <time>2018-11-18T16:02:07.000Z</time>
      </trkpt>
      <trkpt lat="42.7041" lon="1.66184">
        <ele>1211</ele>
        <time>2018-11-18T16:02:09.000Z</time>
      </trkpt>
      <trkpt lat="42.70411" lon="1.66184">
        <ele>1211</ele>
        <time>2018-11-18T16:02:11.000Z</time>
      </trkpt>
      <trkpt lat="42.70413" lon="1.66185">
        <ele>1210</ele>
        <time>2018-11-18T16:02:13.000Z</time>
      </trkpt>
      <trkpt lat="42.70414" lon="1.66184">
        <ele>1210</ele>
        <time>2018-11-18T16:02:15.000Z</time>
      </trkpt>
      <trkpt lat="42.70415" lon="1.66185">
        <ele>1210</ele>
        <time>2018-11-18T16:02:17.000Z</time>
      </trkpt>
      <trkpt lat="42.70415" lon="1.66186">
        <ele>1209</ele>
        <time>2018-11-18T16:02:19.000Z</time>
      </trkpt>
      <trkpt lat="42.70414" lon="1.66186">
        <ele>1209</ele>
        <time>2018-11-18T16:02:21.000Z</time>
      </trkpt>
      <trkpt lat="42.70414" lon="1.66186">
        <ele>1209</ele>
        <time>2018-11-18T16:02:23.000Z</time>
      </trkpt>
      <trkpt lat="42.70414" lon="1.66187">
        <ele>1209</ele>
        <time>2018-11-18T16:02:25.000Z</time>
      </trkpt>
      <trkpt lat="42.70414" lon="1.66187">
        <ele>1209</ele>
        <time>2018-11-18T16:02:27.000Z</time>
      </trkpt>
      <trkpt lat="42.70413" lon="1.66187">
        <ele>1209</ele>
        <time>2018-11-18T16:02:29.000Z</time>
      </trkpt>
      <trkpt lat="42.70414" lon="1.66187">
        <ele>1209</ele>
        <time>2018-11-18T16:02:31.000Z</time>
      </trkpt>
      <trkpt lat="42.70415" lon="1.66187">
        <ele>1209</ele>
        <time>2018-11-18T16:02:33.000Z</time>
      </trkpt>
      <trkpt lat="42.70415" lon="1.66187">
        <ele>1209</ele>
        <time>2018-11-18T16:02:35.000Z</time>
      </trkpt>
      <trkpt lat="42.70416" lon="1.66186">
        <ele>1209</ele>
        <time>2018-11-18T16:02:37.000Z</time>
      </trkpt>
      <trkpt lat="42.70417" lon="1.66186">
        <ele>1209</ele>
        <time>2018-11-18T16:02:39.000Z</time>
      </trkpt>
      <trkpt lat="42.70417" lon="1.66185">
        <ele>1209</ele>
        <time>2018-11-18T16:02:41.000Z</time>
      </trkpt>
      <trkpt lat="42.70418" lon="1.66185">
        <ele>1209</ele>
        <time>2018-11-18T16:02:43.000Z</time>
      </trkpt>
      <trkpt lat="42.70419" lon="1.66184">
        <ele>1209</ele>
        <time>2018-11-18T16:02:45.000Z</time>
      </trkpt>
      <trkpt lat="42.7042" lon="1.66184">
        <ele>1209</ele>
        <time>2018-11-18T16:02:47.000Z</time>
      </trkpt>
      <trkpt lat="42.70421" lon="1.66183">
        <ele>1209</ele>
        <time>2018-11-18T16:02:49.000Z</time>
      </trkpt>
      <trkpt lat="42.70422" lon="1.66182">
        <ele>1209</ele>
        <time>2018-11-18T16:02:51.000Z</time>
      </trkpt>
      <trkpt lat="42.70423" lon="1.66182">
        <ele>1209</ele>
        <time>2018-11-18T16:02:53.000Z</time>
      </trkpt>
      <trkpt lat="42.70423" lon="1.6618">
        <ele>1210</ele>
        <time>2018-11-18T16:02:55.000Z</time>
      </trkpt>
      <trkpt lat="42.70426" lon="1.66181">
        <ele>1209</ele>
        <time>2018-11-18T16:02:57.000Z</time>
      </trkpt>
      <trkpt lat="42.70428" lon="1.66181">
        <ele>1208</ele>
        <time>2018-11-18T16:02:59.000Z</time>
      </trkpt>
      <trkpt lat="42.7043" lon="1.66181">
        <ele>1207</ele>
        <time>2018-11-18T16:03:01.000Z</time>
      </trkpt>
      <trkpt lat="42.70431" lon="1.6618">
        <ele>1207</ele>
        <time>2018-11-18T16:03:03.000Z</time>
      </trkpt>
      <trkpt lat="42.70432" lon="1.66181">
        <ele>1207</ele>
        <time>2018-11-18T16:03:05.000Z</time>
      </trkpt>
      <trkpt lat="42.70433" lon="1.6618">
        <ele>1207</ele>
        <time>2018-11-18T16:03:07.000Z</time>
      </trkpt>
      <trkpt lat="42.70434" lon="1.66181">
        <ele>1206</ele>
        <time>2018-11-18T16:03:09.000Z</time>
      </trkpt>
      <trkpt lat="42.70436" lon="1.66181">
        <ele>1205</ele>
        <time>2018-11-18T16:03:11.000Z</time>
      </trkpt>
      <trkpt lat="42.70437" lon="1.66182">
        <ele>1205</ele>
        <time>2018-11-18T16:03:13.000Z</time>
      </trkpt>
      <trkpt lat="42.70438" lon="1.66182">
        <ele>1205</ele>
        <time>2018-11-18T16:03:15.000Z</time>
      </trkpt>
      <trkpt lat="42.70438" lon="1.66182">
        <ele>1205</ele>
        <time>2018-11-18T16:03:17.000Z</time>
      </trkpt>
      <trkpt lat="42.70438" lon="1.66181">
        <ele>1205</ele>
        <time>2018-11-18T16:03:19.000Z</time>
      </trkpt>
      <trkpt lat="42.70439" lon="1.66181">
        <ele>1205</ele>
        <time>2018-11-18T16:03:21.000Z</time>
      </trkpt>
      <trkpt lat="42.7044" lon="1.66182">
        <ele>1204</ele>
        <time>2018-11-18T16:03:23.000Z</time>
      </trkpt>
      <trkpt lat="42.70441" lon="1.66182">
        <ele>1204</ele>
        <time>2018-11-18T16:03:25.000Z</time>
      </trkpt>
      <trkpt lat="42.70441" lon="1.66183">
        <ele>1203</ele>
        <time>2018-11-18T16:03:27.000Z</time>
      </trkpt>
      <trkpt lat="42.70442" lon="1.66184">
        <ele>1203</ele>
        <time>2018-11-18T16:03:29.000Z</time>
      </trkpt>
      <trkpt lat="42.70443" lon="1.66185">
        <ele>1202</ele>
        <time>2018-11-18T16:03:31.000Z</time>
      </trkpt>
      <trkpt lat="42.70442" lon="1.66186">
        <ele>1202</ele>
        <time>2018-11-18T16:03:33.000Z</time>
      </trkpt>
      <trkpt lat="42.70442" lon="1.66186">
        <ele>1202</ele>
        <time>2018-11-18T16:03:35.000Z</time>
      </trkpt>
      <trkpt lat="42.70442" lon="1.66186">
        <ele>1202</ele>
        <time>2018-11-18T16:03:37.000Z</time>
      </trkpt>
      <trkpt lat="42.70442" lon="1.66187">
        <ele>1202</ele>
        <time>2018-11-18T16:03:39.000Z</time>
      </trkpt>
      <trkpt lat="42.70441" lon="1.66187">
        <ele>1202</ele>
        <time>2018-11-18T16:03:41.000Z</time>
      </trkpt>
      <trkpt lat="42.70441" lon="1.66187">
        <ele>1202</ele>
        <time>2018-11-18T16:03:43.000Z</time>
      </trkpt>
      <trkpt lat="42.7044" lon="1.66187">
        <ele>1203</ele>
        <time>2018-11-18T16:03:45.000Z</time>
      </trkpt>
      <trkpt lat="42.70439" lon="1.66187">
        <ele>1202</ele>
        <time>2018-11-18T16:03:47.000Z</time>
      </trkpt>
      <trkpt lat="42.70439" lon="1.66187">
        <ele>1202</ele>
        <time>2018-11-18T16:03:49.000Z</time>
      </trkpt>
      <trkpt lat="42.70439" lon="1.66188">
        <ele>1202</ele>
        <time>2018-11-18T16:03:51.000Z</time>
      </trkpt>
      <trkpt lat="42.70438" lon="1.66188">
        <ele>1202</ele>
        <time>2018-11-18T16:03:53.000Z</time>
      </trkpt>
      <trkpt lat="42.70439" lon="1.66189">
        <ele>1202</ele>
        <time>2018-11-18T16:03:55.000Z</time>
      </trkpt>
      <trkpt lat="42.70439" lon="1.66189">
        <ele>1202</ele>
        <time>2018-11-18T16:03:57.000Z</time>
      </trkpt>
      <trkpt lat="42.70439" lon="1.66189">
        <ele>1202</ele>
        <time>2018-11-18T16:03:59.000Z</time>
      </trkpt>
      <trkpt lat="42.7044" lon="1.6619">
        <ele>1201</ele>
        <time>2018-11-18T16:04:01.000Z</time>
      </trkpt>
      <trkpt lat="42.7044" lon="1.66191">
        <ele>1201</ele>
        <time>2018-11-18T16:04:03.000Z</time>
      </trkpt>
      <trkpt lat="42.7044" lon="1.66191">
        <ele>1201</ele>
        <time>2018-11-18T16:04:05.000Z</time>
      </trkpt>
      <trkpt lat="42.7044" lon="1.66191">
        <ele>1201</ele>
        <time>2018-11-18T16:04:07.000Z</time>
      </trkpt>
      <trkpt lat="42.70439" lon="1.66192">
        <ele>1201</ele>
        <time>2018-11-18T16:04:09.000Z</time>
      </trkpt>
      <trkpt lat="42.70438" lon="1.66192">
        <ele>1201</ele>
        <time>2018-11-18T16:04:11.000Z</time>
      </trkpt>
      <trkpt lat="42.70438" lon="1.66192">
        <ele>1201</ele>
        <time>2018-11-18T16:04:13.000Z</time>
      </trkpt>
      <trkpt lat="42.70437" lon="1.66192">
        <ele>1201</ele>
        <time>2018-11-18T16:04:15.000Z</time>
      </trkpt>
      <trkpt lat="42.70437" lon="1.66192">
        <ele>1202</ele>
        <time>2018-11-18T16:04:17.000Z</time>
      </trkpt>
      <trkpt lat="42.70436" lon="1.66192">
        <ele>1202</ele>
        <time>2018-11-18T16:04:19.000Z</time>
      </trkpt>
      <trkpt lat="42.70435" lon="1.66192">
        <ele>1202</ele>
        <time>2018-11-18T16:04:21.000Z</time>
      </trkpt>
      <trkpt lat="42.70435" lon="1.66192">
        <ele>1202</ele>
        <time>2018-11-18T16:04:23.000Z</time>
      </trkpt>
      <trkpt lat="42.70435" lon="1.66192">
        <ele>1202</ele>
        <time>2018-11-18T16:04:25.000Z</time>
      </trkpt>
      <trkpt lat="42.70434" lon="1.66193">
        <ele>1202</ele>
        <time>2018-11-18T16:04:27.000Z</time>
      </trkpt>
      <trkpt lat="42.70435" lon="1.66194">
        <ele>1201</ele>
        <time>2018-11-18T16:04:29.000Z</time>
      </trkpt>
      <trkpt lat="42.70436" lon="1.66195">
        <ele>1201</ele>
        <time>2018-11-18T16:04:31.000Z</time>
      </trkpt>
      <trkpt lat="42.70436" lon="1.66196">
        <ele>1200</ele>
        <time>2018-11-18T16:04:33.000Z</time>
      </trkpt>
      <trkpt lat="42.70436" lon="1.66196">
        <ele>1200</ele>
        <time>2018-11-18T16:04:35.000Z</time>
      </trkpt>
      <trkpt lat="42.70437" lon="1.66197">
        <ele>1200</ele>
        <time>2018-11-18T16:04:37.000Z</time>
      </trkpt>
      <trkpt lat="42.70438" lon="1.66196">
        <ele>1200</ele>
        <time>2018-11-18T16:04:39.000Z</time>
      </trkpt>
      <trkpt lat="42.70438" lon="1.66196">
        <ele>1200</ele>
        <time>2018-11-18T16:04:41.000Z</time>
      </trkpt>
      <trkpt lat="42.70439" lon="1.66196">
        <ele>1200</ele>
        <time>2018-11-18T16:04:43.000Z</time>
      </trkpt>
      <trkpt lat="42.7044" lon="1.66196">
        <ele>1199</ele>
        <time>2018-11-18T16:04:45.000Z</time>
      </trkpt>
      <trkpt lat="42.7044" lon="1.66197">
        <ele>1199</ele>
        <time>2018-11-18T16:04:47.000Z</time>
      </trkpt>
      <trkpt lat="42.7044" lon="1.66196">
        <ele>1199</ele>
        <time>2018-11-18T16:04:49.000Z</time>
      </trkpt>
      <trkpt lat="42.70441" lon="1.66196">
        <ele>1199</ele>
        <time>2018-11-18T16:04:51.000Z</time>
      </trkpt>
      <trkpt lat="42.70441" lon="1.66196">
        <ele>1199</ele>
        <time>2018-11-18T16:04:53.000Z</time>
      </trkpt>
      <trkpt lat="42.70442" lon="1.66196">
        <ele>1199</ele>
        <time>2018-11-18T16:04:55.000Z</time>
      </trkpt>
      <trkpt lat="42.70444" lon="1.66196">
        <ele>1198</ele>
        <time>2018-11-18T16:04:57.000Z</time>
      </trkpt>
      <trkpt lat="42.70445" lon="1.66196">
        <ele>1198</ele>
        <time>2018-11-18T16:04:59.000Z</time>
      </trkpt>
      <trkpt lat="42.70446" lon="1.66197">
        <ele>1197</ele>
        <time>2018-11-18T16:05:01.000Z</time>
      </trkpt>
      <trkpt lat="42.70446" lon="1.66196">
        <ele>1197</ele>
        <time>2018-11-18T16:05:03.000Z</time>
      </trkpt>
      <trkpt lat="42.70448" lon="1.66197">
        <ele>1197</ele>
        <time>2018-11-18T16:05:05.000Z</time>
      </trkpt>
      <trkpt lat="42.70449" lon="1.66197">
        <ele>1196</ele>
        <time>2018-11-18T16:05:07.000Z</time>
      </trkpt>
      <trkpt lat="42.70449" lon="1.66198">
        <ele>1196</ele>
        <time>2018-11-18T16:05:09.000Z</time>
      </trkpt>
      <trkpt lat="42.70449" lon="1.66198">
        <ele>1196</ele>
        <time>2018-11-18T16:05:11.000Z</time>
      </trkpt>
      <trkpt lat="42.70449" lon="1.66199">
        <ele>1196</ele>
        <time>2018-11-18T16:05:13.000Z</time>
      </trkpt>
      <trkpt lat="42.7045" lon="1.662">
        <ele>1195</ele>
        <time>2018-11-18T16:05:15.000Z</time>
      </trkpt>
      <trkpt lat="42.70449" lon="1.662">
        <ele>1195</ele>
        <time>2018-11-18T16:05:17.000Z</time>
      </trkpt>
      <trkpt lat="42.70448" lon="1.66201">
        <ele>1195</ele>
        <time>2018-11-18T16:05:19.000Z</time>
      </trkpt>
      <trkpt lat="42.70448" lon="1.66202">
        <ele>1195</ele>
        <time>2018-11-18T16:05:21.000Z</time>
      </trkpt>
      <trkpt lat="42.70448" lon="1.66203">
        <ele>1195</ele>
        <time>2018-11-18T16:05:23.000Z</time>
      </trkpt>
      <trkpt lat="42.70448" lon="1.66203">
        <ele>1194</ele>
        <time>2018-11-18T16:05:25.000Z</time>
      </trkpt>
      <trkpt lat="42.70448" lon="1.66203">
        <ele>1195</ele>
        <time>2018-11-18T16:05:27.000Z</time>
      </trkpt>
      <trkpt lat="42.70448" lon="1.66204">
        <ele>1194</ele>
        <time>2018-11-18T16:05:29.000Z</time>
      </trkpt>
      <trkpt lat="42.70448" lon="1.66205">
        <ele>1194</ele>
        <time>2018-11-18T16:05:31.000Z</time>
      </trkpt>
      <trkpt lat="42.70448" lon="1.66205">
        <ele>1194</ele>
        <time>2018-11-18T16:05:33.000Z</time>
      </trkpt>
      <trkpt lat="42.70449" lon="1.66206">
        <ele>1193</ele>
        <time>2018-11-18T16:05:35.000Z</time>
      </trkpt>
      <trkpt lat="42.70449" lon="1.66207">
        <ele>1193</ele>
        <time>2018-11-18T16:05:37.000Z</time>
      </trkpt>
      <trkpt lat="42.7045" lon="1.66207">
        <ele>1193</ele>
        <time>2018-11-18T16:05:39.000Z</time>
      </trkpt>
      <trkpt lat="42.70451" lon="1.66206">
        <ele>1193</ele>
        <time>2018-11-18T16:05:41.000Z</time>
      </trkpt>
      <trkpt lat="42.70452" lon="1.66206">
        <ele>1192</ele>
        <time>2018-11-18T16:05:43.000Z</time>
      </trkpt>
      <trkpt lat="42.70453" lon="1.66206">
        <ele>1192</ele>
        <time>2018-11-18T16:05:45.000Z</time>
      </trkpt>
      <trkpt lat="42.70454" lon="1.66207">
        <ele>1191</ele>
        <time>2018-11-18T16:05:47.000Z</time>
      </trkpt>
      <trkpt lat="42.70455" lon="1.66208">
        <ele>1191</ele>
        <time>2018-11-18T16:05:49.000Z</time>
      </trkpt>
      <trkpt lat="42.70455" lon="1.6621">
        <ele>1190</ele>
        <time>2018-11-18T16:05:51.000Z</time>
      </trkpt>
      <trkpt lat="42.70456" lon="1.6621">
        <ele>1190</ele>
        <time>2018-11-18T16:05:53.000Z</time>
      </trkpt>
      <trkpt lat="42.70456" lon="1.66212">
        <ele>1189</ele>
        <time>2018-11-18T16:05:55.000Z</time>
      </trkpt>
      <trkpt lat="42.70456" lon="1.66213">
        <ele>1189</ele>
        <time>2018-11-18T16:05:57.000Z</time>
      </trkpt>
      <trkpt lat="42.70456" lon="1.66215">
        <ele>1188</ele>
        <time>2018-11-18T16:05:59.000Z</time>
      </trkpt>
      <trkpt lat="42.70457" lon="1.66216">
        <ele>1188</ele>
        <time>2018-11-18T16:06:01.000Z</time>
      </trkpt>
      <trkpt lat="42.70457" lon="1.66217">
        <ele>1187</ele>
        <time>2018-11-18T16:06:03.000Z</time>
      </trkpt>
      <trkpt lat="42.70457" lon="1.66219">
        <ele>1186</ele>
        <time>2018-11-18T16:06:05.000Z</time>
      </trkpt>
      <trkpt lat="42.70456" lon="1.6622">
        <ele>1186</ele>
        <time>2018-11-18T16:06:07.000Z</time>
      </trkpt>
      <trkpt lat="42.70455" lon="1.66222">
        <ele>1186</ele>
        <time>2018-11-18T16:06:09.000Z</time>
      </trkpt>
      <trkpt lat="42.70454" lon="1.66223">
        <ele>1186</ele>
        <time>2018-11-18T16:06:11.000Z</time>
      </trkpt>
      <trkpt lat="42.70454" lon="1.66224">
        <ele>1186</ele>
        <time>2018-11-18T16:06:13.000Z</time>
      </trkpt>
      <trkpt lat="42.70453" lon="1.66225">
        <ele>1185</ele>
        <time>2018-11-18T16:06:15.000Z</time>
      </trkpt>
      <trkpt lat="42.70454" lon="1.66225">
        <ele>1185</ele>
        <time>2018-11-18T16:06:17.000Z</time>
      </trkpt>
      <trkpt lat="42.70454" lon="1.66225">
        <ele>1185</ele>
        <time>2018-11-18T16:06:19.000Z</time>
      </trkpt>
      <trkpt lat="42.70454" lon="1.66225">
        <ele>1185</ele>
        <time>2018-11-18T16:06:21.000Z</time>
      </trkpt>
      <trkpt lat="42.70454" lon="1.66226">
        <ele>1185</ele>
        <time>2018-11-18T16:06:23.000Z</time>
      </trkpt>
      <trkpt lat="42.70454" lon="1.66226">
        <ele>1185</ele>
        <time>2018-11-18T16:06:25.000Z</time>
      </trkpt>
      <trkpt lat="42.70454" lon="1.66227">
        <ele>1184</ele>
        <time>2018-11-18T16:06:27.000Z</time>
      </trkpt>
      <trkpt lat="42.70454" lon="1.66227">
        <ele>1184</ele>
        <time>2018-11-18T16:06:29.000Z</time>
      </trkpt>
      <trkpt lat="42.70454" lon="1.66228">
        <ele>1184</ele>
        <time>2018-11-18T16:06:31.000Z</time>
      </trkpt>
      <trkpt lat="42.70454" lon="1.66228">
        <ele>1184</ele>
        <time>2018-11-18T16:06:33.000Z</time>
      </trkpt>
      <trkpt lat="42.70454" lon="1.66228">
        <ele>1184</ele>
        <time>2018-11-18T16:06:35.000Z</time>
      </trkpt>
      <trkpt lat="42.70453" lon="1.66228">
        <ele>1184</ele>
        <time>2018-11-18T16:06:37.000Z</time>
      </trkpt>
      <trkpt lat="42.70453" lon="1.66229">
        <ele>1184</ele>
        <time>2018-11-18T16:06:39.000Z</time>
      </trkpt>
      <trkpt lat="42.70453" lon="1.66229">
        <ele>1184</ele>
        <time>2018-11-18T16:06:41.000Z</time>
      </trkpt>
      <trkpt lat="42.70452" lon="1.66229">
        <ele>1184</ele>
        <time>2018-11-18T16:06:43.000Z</time>
      </trkpt>
      <trkpt lat="42.70452" lon="1.66229">
        <ele>1184</ele>
        <time>2018-11-18T16:06:45.000Z</time>
      </trkpt>
      <trkpt lat="42.70453" lon="1.66229">
        <ele>1184</ele>
        <time>2018-11-18T16:06:47.000Z</time>
      </trkpt>
      <trkpt lat="42.70452" lon="1.66228">
        <ele>1184</ele>
        <time>2018-11-18T16:06:49.000Z</time>
      </trkpt>
      <trkpt lat="42.70453" lon="1.66228">
        <ele>1184</ele>
        <time>2018-11-18T16:06:51.000Z</time>
      </trkpt>
      <trkpt lat="42.70452" lon="1.66228">
        <ele>1185</ele>
        <time>2018-11-18T16:06:53.000Z</time>
      </trkpt>
      <trkpt lat="42.70452" lon="1.66228">
        <ele>1184</ele>
        <time>2018-11-18T16:06:55.000Z</time>
      </trkpt>
      <trkpt lat="42.70452" lon="1.66228">
        <ele>1185</ele>
        <time>2018-11-18T16:06:57.000Z</time>
      </trkpt>
      <trkpt lat="42.70452" lon="1.66229">
        <ele>1184</ele>
        <time>2018-11-18T16:06:59.000Z</time>
      </trkpt>
      <trkpt lat="42.70453" lon="1.6623">
        <ele>1184</ele>
        <time>2018-11-18T16:07:01.000Z</time>
      </trkpt>
      <trkpt lat="42.70453" lon="1.66231">
        <ele>1183</ele>
        <time>2018-11-18T16:07:03.000Z</time>
      </trkpt>
      <trkpt lat="42.70454" lon="1.66232">
        <ele>1183</ele>
        <time>2018-11-18T16:07:05.000Z</time>
      </trkpt>
      <trkpt lat="42.70454" lon="1.66232">
        <ele>1183</ele>
        <time>2018-11-18T16:07:07.000Z</time>
      </trkpt>
      <trkpt lat="42.70455" lon="1.66233">
        <ele>1182</ele>
        <time>2018-11-18T16:07:09.000Z</time>
      </trkpt>
      <trkpt lat="42.70455" lon="1.66234">
        <ele>1182</ele>
        <time>2018-11-18T16:07:11.000Z</time>
      </trkpt>
      <trkpt lat="42.70456" lon="1.66235">
        <ele>1181</ele>
        <time>2018-11-18T16:07:13.000Z</time>
      </trkpt>
      <trkpt lat="42.70456" lon="1.66235">
        <ele>1181</ele>
        <time>2018-11-18T16:07:15.000Z</time>
      </trkpt>
      <trkpt lat="42.70455" lon="1.66235">
        <ele>1181</ele>
        <time>2018-11-18T16:07:17.000Z</time>
      </trkpt>
      <trkpt lat="42.70455" lon="1.66235">
        <ele>1181</ele>
        <time>2018-11-18T16:07:19.000Z</time>
      </trkpt>
      <trkpt lat="42.70454" lon="1.66235">
        <ele>1181</ele>
        <time>2018-11-18T16:07:21.000Z</time>
      </trkpt>
      <trkpt lat="42.70454" lon="1.66235">
        <ele>1182</ele>
        <time>2018-11-18T16:07:23.000Z</time>
      </trkpt>
      <trkpt lat="42.70455" lon="1.66235">
        <ele>1181</ele>
        <time>2018-11-18T16:07:25.000Z</time>
      </trkpt>
      <trkpt lat="42.70455" lon="1.66235">
        <ele>1181</ele>
        <time>2018-11-18T16:07:27.000Z</time>
      </trkpt>
      <trkpt lat="42.70456" lon="1.66236">
        <ele>1181</ele>
        <time>2018-11-18T16:07:29.000Z</time>
      </trkpt>
      <trkpt lat="42.70456" lon="1.66236">
        <ele>1181</ele>
        <time>2018-11-18T16:07:31.000Z</time>
      </trkpt>
      <trkpt lat="42.70457" lon="1.66235">
        <ele>1181</ele>
        <time>2018-11-18T16:07:33.000Z</time>
      </trkpt>
      <trkpt lat="42.70457" lon="1.66236">
        <ele>1181</ele>
        <time>2018-11-18T16:07:35.000Z</time>
      </trkpt>
      <trkpt lat="42.70456" lon="1.66236">
        <ele>1181</ele>
        <time>2018-11-18T16:07:37.000Z</time>
      </trkpt>
      <trkpt lat="42.70457" lon="1.66236">
        <ele>1180</ele>
        <time>2018-11-18T16:07:39.000Z</time>
      </trkpt>
      <trkpt lat="42.70457" lon="1.66237">
        <ele>1180</ele>
        <time>2018-11-18T16:07:41.000Z</time>
      </trkpt>
      <trkpt lat="42.70457" lon="1.66237">
        <ele>1180</ele>
        <time>2018-11-18T16:07:43.000Z</time>
      </trkpt>
      <trkpt lat="42.70457" lon="1.66238">
        <ele>1180</ele>
        <time>2018-11-18T16:07:45.000Z</time>
      </trkpt>
      <trkpt lat="42.70457" lon="1.66238">
        <ele>1179</ele>
        <time>2018-11-18T16:07:47.000Z</time>
      </trkpt>
      <trkpt lat="42.70459" lon="1.66239">
        <ele>1179</ele>
        <time>2018-11-18T16:07:49.000Z</time>
      </trkpt>
      <trkpt lat="42.7046" lon="1.66239">
        <ele>1179</ele>
        <time>2018-11-18T16:07:51.000Z</time>
      </trkpt>
      <trkpt lat="42.70463" lon="1.66239">
        <ele>1177</ele>
        <time>2018-11-18T16:07:53.000Z</time>
      </trkpt>
      <trkpt lat="42.70464" lon="1.66241">
        <ele>1177</ele>
        <time>2018-11-18T16:07:55.000Z</time>
      </trkpt>
      <trkpt lat="42.70466" lon="1.66241">
        <ele>1176</ele>
        <time>2018-11-18T16:07:57.000Z</time>
      </trkpt>
      <trkpt lat="42.70467" lon="1.66241">
        <ele>1176</ele>
        <time>2018-11-18T16:07:59.000Z</time>
      </trkpt>
      <trkpt lat="42.70467" lon="1.66242">
        <ele>1175</ele>
        <time>2018-11-18T16:08:01.000Z</time>
      </trkpt>
      <trkpt lat="42.70467" lon="1.66244">
        <ele>1175</ele>
        <time>2018-11-18T16:08:03.000Z</time>
      </trkpt>
      <trkpt lat="42.70467" lon="1.66245">
        <ele>1174</ele>
        <time>2018-11-18T16:08:05.000Z</time>
      </trkpt>
      <trkpt lat="42.70466" lon="1.66246">
        <ele>1174</ele>
        <time>2018-11-18T16:08:07.000Z</time>
      </trkpt>
      <trkpt lat="42.70465" lon="1.66248">
        <ele>1174</ele>
        <time>2018-11-18T16:08:09.000Z</time>
      </trkpt>
      <trkpt lat="42.70465" lon="1.66249">
        <ele>1173</ele>
        <time>2018-11-18T16:08:11.000Z</time>
      </trkpt>
      <trkpt lat="42.70464" lon="1.66249">
        <ele>1173</ele>
        <time>2018-11-18T16:08:13.000Z</time>
      </trkpt>
      <trkpt lat="42.70464" lon="1.66249">
        <ele>1173</ele>
        <time>2018-11-18T16:08:15.000Z</time>
      </trkpt>
      <trkpt lat="42.70465" lon="1.6625">
        <ele>1173</ele>
        <time>2018-11-18T16:08:17.000Z</time>
      </trkpt>
      <trkpt lat="42.70465" lon="1.66251">
        <ele>1173</ele>
        <time>2018-11-18T16:08:19.000Z</time>
      </trkpt>
      <trkpt lat="42.70465" lon="1.66251">
        <ele>1173</ele>
        <time>2018-11-18T16:08:21.000Z</time>
      </trkpt>
      <trkpt lat="42.70465" lon="1.66251">
        <ele>1172</ele>
        <time>2018-11-18T16:08:23.000Z</time>
      </trkpt>
      <trkpt lat="42.70465" lon="1.66251">
        <ele>1172</ele>
        <time>2018-11-18T16:08:25.000Z</time>
      </trkpt>
      <trkpt lat="42.70465" lon="1.66251">
        <ele>1172</ele>
        <time>2018-11-18T16:08:27.000Z</time>
      </trkpt>
      <trkpt lat="42.70465" lon="1.66252">
        <ele>1172</ele>
        <time>2018-11-18T16:08:29.000Z</time>
      </trkpt>
      <trkpt lat="42.70465" lon="1.66252">
        <ele>1172</ele>
        <time>2018-11-18T16:08:31.000Z</time>
      </trkpt>
      <trkpt lat="42.70466" lon="1.66253">
        <ele>1172</ele>
        <time>2018-11-18T16:08:33.000Z</time>
      </trkpt>
      <trkpt lat="42.70466" lon="1.66253">
        <ele>1171</ele>
        <time>2018-11-18T16:08:35.000Z</time>
      </trkpt>
      <trkpt lat="42.70466" lon="1.66253">
        <ele>1171</ele>
        <time>2018-11-18T16:08:37.000Z</time>
      </trkpt>
      <trkpt lat="42.70466" lon="1.66254">
        <ele>1171</ele>
        <time>2018-11-18T16:08:39.000Z</time>
      </trkpt>
      <trkpt lat="42.70467" lon="1.66255">
        <ele>1170</ele>
        <time>2018-11-18T16:08:41.000Z</time>
      </trkpt>
      <trkpt lat="42.70467" lon="1.66257">
        <ele>1170</ele>
        <time>2018-11-18T16:08:43.000Z</time>
      </trkpt>
      <trkpt lat="42.70466" lon="1.66259">
        <ele>1169</ele>
        <time>2018-11-18T16:08:45.000Z</time>
      </trkpt>
      <trkpt lat="42.70465" lon="1.6626">
        <ele>1169</ele>
        <time>2018-11-18T16:08:47.000Z</time>
      </trkpt>
      <trkpt lat="42.70464" lon="1.66262">
        <ele>1168</ele>
        <time>2018-11-18T16:08:49.000Z</time>
      </trkpt>
      <trkpt lat="42.70464" lon="1.66264">
        <ele>1167</ele>
        <time>2018-11-18T16:08:51.000Z</time>
      </trkpt>
      <trkpt lat="42.70464" lon="1.66266">
        <ele>1167</ele>
        <time>2018-11-18T16:08:53.000Z</time>
      </trkpt>
      <trkpt lat="42.70463" lon="1.66268">
        <ele>1166</ele>
        <time>2018-11-18T16:08:55.000Z</time>
      </trkpt>
      <trkpt lat="42.70461" lon="1.6627">
        <ele>1166</ele>
        <time>2018-11-18T16:08:57.000Z</time>
      </trkpt>
      <trkpt lat="42.7046" lon="1.66271">
        <ele>1166</ele>
        <time>2018-11-18T16:08:59.000Z</time>
      </trkpt>
      <trkpt lat="42.70459" lon="1.66272">
        <ele>1166</ele>
        <time>2018-11-18T16:09:01.000Z</time>
      </trkpt>
      <trkpt lat="42.70458" lon="1.66273">
        <ele>1166</ele>
        <time>2018-11-18T16:09:03.000Z</time>
      </trkpt>
      <trkpt lat="42.70457" lon="1.66274">
        <ele>1166</ele>
        <time>2018-11-18T16:09:05.000Z</time>
      </trkpt>
      <trkpt lat="42.70456" lon="1.66275">
        <ele>1165</ele>
        <time>2018-11-18T16:09:07.000Z</time>
      </trkpt>
      <trkpt lat="42.70456" lon="1.66277">
        <ele>1165</ele>
        <time>2018-11-18T16:09:09.000Z</time>
      </trkpt>
      <trkpt lat="42.70455" lon="1.66279">
        <ele>1164</ele>
        <time>2018-11-18T16:09:11.000Z</time>
      </trkpt>
      <trkpt lat="42.70455" lon="1.6628">
        <ele>1163</ele>
        <time>2018-11-18T16:09:13.000Z</time>
      </trkpt>
      <trkpt lat="42.70456" lon="1.66282">
        <ele>1162</ele>
        <time>2018-11-18T16:09:15.000Z</time>
      </trkpt>
      <trkpt lat="42.70456" lon="1.66283">
        <ele>1162</ele>
        <time>2018-11-18T16:09:17.000Z</time>
      </trkpt>
      <trkpt lat="42.70456" lon="1.66284">
        <ele>1161</ele>
        <time>2018-11-18T16:09:19.000Z</time>
      </trkpt>
      <trkpt lat="42.70457" lon="1.66285">
        <ele>1161</ele>
        <time>2018-11-18T16:09:21.000Z</time>
      </trkpt>
      <trkpt lat="42.70457" lon="1.66286">
        <ele>1160</ele>
        <time>2018-11-18T16:09:23.000Z</time>
      </trkpt>
      <trkpt lat="42.70457" lon="1.66287">
        <ele>1160</ele>
        <time>2018-11-18T16:09:25.000Z</time>
      </trkpt>
      <trkpt lat="42.70456" lon="1.66288">
        <ele>1159</ele>
        <time>2018-11-18T16:09:27.000Z</time>
      </trkpt>
      <trkpt lat="42.70457" lon="1.66288">
        <ele>1159</ele>
        <time>2018-11-18T16:09:29.000Z</time>
      </trkpt>
      <trkpt lat="42.70456" lon="1.66288">
        <ele>1159</ele>
        <time>2018-11-18T16:09:31.000Z</time>
      </trkpt>
      <trkpt lat="42.70455" lon="1.66289">
        <ele>1159</ele>
        <time>2018-11-18T16:09:33.000Z</time>
      </trkpt>
      <trkpt lat="42.70456" lon="1.66289">
        <ele>1159</ele>
        <time>2018-11-18T16:09:35.000Z</time>
      </trkpt>
      <trkpt lat="42.70456" lon="1.66289">
        <ele>1159</ele>
        <time>2018-11-18T16:09:37.000Z</time>
      </trkpt>
      <trkpt lat="42.70456" lon="1.6629">
        <ele>1158</ele>
        <time>2018-11-18T16:09:39.000Z</time>
      </trkpt>
      <trkpt lat="42.70457" lon="1.66291">
        <ele>1158</ele>
        <time>2018-11-18T16:09:41.000Z</time>
      </trkpt>
      <trkpt lat="42.70454" lon="1.66293">
        <ele>1157</ele>
        <time>2018-11-18T16:09:43.000Z</time>
      </trkpt>
      <trkpt lat="42.70454" lon="1.66294">
        <ele>1157</ele>
        <time>2018-11-18T16:09:45.000Z</time>
      </trkpt>
      <trkpt lat="42.70453" lon="1.66295">
        <ele>1156</ele>
        <time>2018-11-18T16:09:47.000Z</time>
      </trkpt>
      <trkpt lat="42.70452" lon="1.66297">
        <ele>1156</ele>
        <time>2018-11-18T16:09:49.000Z</time>
      </trkpt>
      <trkpt lat="42.70452" lon="1.66298">
        <ele>1155</ele>
        <time>2018-11-18T16:09:51.000Z</time>
      </trkpt>
      <trkpt lat="42.70451" lon="1.66299">
        <ele>1155</ele>
        <time>2018-11-18T16:09:53.000Z</time>
      </trkpt>
      <trkpt lat="42.70452" lon="1.66299">
        <ele>1155</ele>
        <time>2018-11-18T16:09:55.000Z</time>
      </trkpt>
      <trkpt lat="42.70452" lon="1.66299">
        <ele>1155</ele>
        <time>2018-11-18T16:09:57.000Z</time>
      </trkpt>
      <trkpt lat="42.70452" lon="1.66299">
        <ele>1155</ele>
        <time>2018-11-18T16:09:59.000Z</time>
      </trkpt>
      <trkpt lat="42.70452" lon="1.66299">
        <ele>1154</ele>
        <time>2018-11-18T16:10:01.000Z</time>
      </trkpt>
      <trkpt lat="42.70453" lon="1.663">
        <ele>1154</ele>
        <time>2018-11-18T16:10:03.000Z</time>
      </trkpt>
      <trkpt lat="42.70454" lon="1.663">
        <ele>1154</ele>
        <time>2018-11-18T16:10:05.000Z</time>
      </trkpt>
      <trkpt lat="42.70454" lon="1.66302">
        <ele>1153</ele>
        <time>2018-11-18T16:10:07.000Z</time>
      </trkpt>
      <trkpt lat="42.70453" lon="1.66303">
        <ele>1153</ele>
        <time>2018-11-18T16:10:09.000Z</time>
      </trkpt>
      <trkpt lat="42.70452" lon="1.66304">
        <ele>1152</ele>
        <time>2018-11-18T16:10:11.000Z</time>
      </trkpt>
      <trkpt lat="42.70451" lon="1.66305">
        <ele>1152</ele>
        <time>2018-11-18T16:10:13.000Z</time>
      </trkpt>
      <trkpt lat="42.70451" lon="1.66304">
        <ele>1152</ele>
        <time>2018-11-18T16:10:15.000Z</time>
      </trkpt>
      <trkpt lat="42.7045" lon="1.66304">
        <ele>1153</ele>
        <time>2018-11-18T16:10:17.000Z</time>
      </trkpt>
      <trkpt lat="42.70449" lon="1.66305">
        <ele>1152</ele>
        <time>2018-11-18T16:10:19.000Z</time>
      </trkpt>
      <trkpt lat="42.70448" lon="1.66305">
        <ele>1153</ele>
        <time>2018-11-18T16:10:21.000Z</time>
      </trkpt>
      <trkpt lat="42.70448" lon="1.66305">
        <ele>1152</ele>
        <time>2018-11-18T16:10:23.000Z</time>
      </trkpt>
      <trkpt lat="42.70449" lon="1.66307">
        <ele>1151</ele>
        <time>2018-11-18T16:10:25.000Z</time>
      </trkpt>
      <trkpt lat="42.70448" lon="1.66309">
        <ele>1151</ele>
        <time>2018-11-18T16:10:27.000Z</time>
      </trkpt>
      <trkpt lat="42.70448" lon="1.6631">
        <ele>1150</ele>
        <time>2018-11-18T16:10:29.000Z</time>
      </trkpt>
      <trkpt lat="42.70447" lon="1.66312">
        <ele>1149</ele>
        <time>2018-11-18T16:10:31.000Z</time>
      </trkpt>
      <trkpt lat="42.70447" lon="1.66312">
        <ele>1149</ele>
        <time>2018-11-18T16:10:33.000Z</time>
      </trkpt>
      <trkpt lat="42.70447" lon="1.66313">
        <ele>1149</ele>
        <time>2018-11-18T16:10:35.000Z</time>
      </trkpt>
      <trkpt lat="42.70447" lon="1.66314">
        <ele>1149</ele>
        <time>2018-11-18T16:10:37.000Z</time>
      </trkpt>
      <trkpt lat="42.70446" lon="1.66314">
        <ele>1148</ele>
        <time>2018-11-18T16:10:39.000Z</time>
      </trkpt>
      <trkpt lat="42.70446" lon="1.66315">
        <ele>1148</ele>
        <time>2018-11-18T16:10:41.000Z</time>
      </trkpt>
      <trkpt lat="42.70445" lon="1.66316">
        <ele>1148</ele>
        <time>2018-11-18T16:10:43.000Z</time>
      </trkpt>
      <trkpt lat="42.70445" lon="1.66316">
        <ele>1148</ele>
        <time>2018-11-18T16:10:45.000Z</time>
      </trkpt>
      <trkpt lat="42.70445" lon="1.66317">
        <ele>1147</ele>
        <time>2018-11-18T16:10:47.000Z</time>
      </trkpt>
      <trkpt lat="42.70445" lon="1.66318">
        <ele>1147</ele>
        <time>2018-11-18T16:10:49.000Z</time>
      </trkpt>
      <trkpt lat="42.70445" lon="1.66319">
        <ele>1146</ele>
        <time>2018-11-18T16:10:51.000Z</time>
      </trkpt>
      <trkpt lat="42.70445" lon="1.6632">
        <ele>1146</ele>
        <time>2018-11-18T16:10:53.000Z</time>
      </trkpt>
      <trkpt lat="42.70444" lon="1.66319">
        <ele>1147</ele>
        <time>2018-11-18T16:10:55.000Z</time>
      </trkpt>
      <trkpt lat="42.70444" lon="1.6632">
        <ele>1146</ele>
        <time>2018-11-18T16:10:57.000Z</time>
      </trkpt>
      <trkpt lat="42.70444" lon="1.6632">
        <ele>1146</ele>
        <time>2018-11-18T16:10:59.000Z</time>
      </trkpt>
      <trkpt lat="42.70445" lon="1.6632">
        <ele>1146</ele>
        <time>2018-11-18T16:11:01.000Z</time>
      </trkpt>
      <trkpt lat="42.70445" lon="1.66318">
        <ele>1147</ele>
        <time>2018-11-18T16:11:03.000Z</time>
      </trkpt>
      <trkpt lat="42.70446" lon="1.66318">
        <ele>1147</ele>
        <time>2018-11-18T16:11:05.000Z</time>
      </trkpt>
      <trkpt lat="42.70448" lon="1.66318">
        <ele>1146</ele>
        <time>2018-11-18T16:11:07.000Z</time>
      </trkpt>
      <trkpt lat="42.70449" lon="1.66317">
        <ele>1146</ele>
        <time>2018-11-18T16:11:09.000Z</time>
      </trkpt>
      <trkpt lat="42.70449" lon="1.66317">
        <ele>1146</ele>
        <time>2018-11-18T16:11:11.000Z</time>
      </trkpt>
      <trkpt lat="42.7045" lon="1.66318">
        <ele>1146</ele>
        <time>2018-11-18T16:11:13.000Z</time>
      </trkpt>
      <trkpt lat="42.7045" lon="1.66318">
        <ele>1146</ele>
        <time>2018-11-18T16:11:15.000Z</time>
      </trkpt>
      <trkpt lat="42.7045" lon="1.66319">
        <ele>1145</ele>
        <time>2018-11-18T16:11:17.000Z</time>
      </trkpt>
      <trkpt lat="42.7045" lon="1.6632">
        <ele>1145</ele>
        <time>2018-11-18T16:11:19.000Z</time>
      </trkpt>
      <trkpt lat="42.7045" lon="1.66321">
        <ele>1145</ele>
        <time>2018-11-18T16:11:21.000Z</time>
      </trkpt>
      <trkpt lat="42.7045" lon="1.66321">
        <ele>1145</ele>
        <time>2018-11-18T16:11:23.000Z</time>
      </trkpt>
      <trkpt lat="42.70451" lon="1.66321">
        <ele>1145</ele>
        <time>2018-11-18T16:11:25.000Z</time>
      </trkpt>
      <trkpt lat="42.70452" lon="1.66321">
        <ele>1144</ele>
        <time>2018-11-18T16:11:27.000Z</time>
      </trkpt>
      <trkpt lat="42.70454" lon="1.66321">
        <ele>1144</ele>
        <time>2018-11-18T16:11:29.000Z</time>
      </trkpt>
      <trkpt lat="42.70454" lon="1.66321">
        <ele>1144</ele>
        <time>2018-11-18T16:11:31.000Z</time>
      </trkpt>
      <trkpt lat="42.70454" lon="1.66322">
        <ele>1144</ele>
        <time>2018-11-18T16:11:33.000Z</time>
      </trkpt>
      <trkpt lat="42.70454" lon="1.66322">
        <ele>1144</ele>
        <time>2018-11-18T16:11:35.000Z</time>
      </trkpt>
      <trkpt lat="42.70454" lon="1.66322">
        <ele>1144</ele>
        <time>2018-11-18T16:11:37.000Z</time>
      </trkpt>
      <trkpt lat="42.70455" lon="1.66321">
        <ele>1144</ele>
        <time>2018-11-18T16:11:39.000Z</time>
      </trkpt>
      <trkpt lat="42.70456" lon="1.66321">
        <ele>1144</ele>
        <time>2018-11-18T16:11:41.000Z</time>
      </trkpt>
      <trkpt lat="42.70457" lon="1.6632">
        <ele>1144</ele>
        <time>2018-11-18T16:11:43.000Z</time>
      </trkpt>
      <trkpt lat="42.70458" lon="1.66321">
        <ele>1143</ele>
        <time>2018-11-18T16:11:45.000Z</time>
      </trkpt>
      <trkpt lat="42.70459" lon="1.66322">
        <ele>1143</ele>
        <time>2018-11-18T16:11:47.000Z</time>
      </trkpt>
      <trkpt lat="42.70459" lon="1.66322">
        <ele>1143</ele>
        <time>2018-11-18T16:11:49.000Z</time>
      </trkpt>
      <trkpt lat="42.70459" lon="1.66323">
        <ele>1142</ele>
        <time>2018-11-18T16:11:51.000Z</time>
      </trkpt>
      <trkpt lat="42.70457" lon="1.66325">
        <ele>1142</ele>
        <time>2018-11-18T16:11:53.000Z</time>
      </trkpt>
      <trkpt lat="42.70456" lon="1.66326">
        <ele>1142</ele>
        <time>2018-11-18T16:11:55.000Z</time>
      </trkpt>
      <trkpt lat="42.70456" lon="1.66327">
        <ele>1142</ele>
        <time>2018-11-18T16:11:57.000Z</time>
      </trkpt>
      <trkpt lat="42.70455" lon="1.66328">
        <ele>1142</ele>
        <time>2018-11-18T16:11:59.000Z</time>
      </trkpt>
      <trkpt lat="42.70455" lon="1.66329">
        <ele>1141</ele>
        <time>2018-11-18T16:12:01.000Z</time>
      </trkpt>
      <trkpt lat="42.70455" lon="1.6633">
        <ele>1141</ele>
        <time>2018-11-18T16:12:03.000Z</time>
      </trkpt>
      <trkpt lat="42.70454" lon="1.66331">
        <ele>1141</ele>
        <time>2018-11-18T16:12:05.000Z</time>
      </trkpt>
      <trkpt lat="42.70454" lon="1.66332">
        <ele>1141</ele>
        <time>2018-11-18T16:12:07.000Z</time>
      </trkpt>
      <trkpt lat="42.70454" lon="1.66333">
        <ele>1141</ele>
        <time>2018-11-18T16:12:09.000Z</time>
      </trkpt>
      <trkpt lat="42.70454" lon="1.66333">
        <ele>1140</ele>
        <time>2018-11-18T16:12:11.000Z</time>
      </trkpt>
      <trkpt lat="42.70454" lon="1.66333">
        <ele>1140</ele>
        <time>2018-11-18T16:12:13.000Z</time>
      </trkpt>
      <trkpt lat="42.70455" lon="1.66334">
        <ele>1140</ele>
        <time>2018-11-18T16:12:15.000Z</time>
      </trkpt>
      <trkpt lat="42.70454" lon="1.66334">
        <ele>1140</ele>
        <time>2018-11-18T16:12:17.000Z</time>
      </trkpt>
      <trkpt lat="42.70455" lon="1.66334">
        <ele>1140</ele>
        <time>2018-11-18T16:12:19.000Z</time>
      </trkpt>
      <trkpt lat="42.70455" lon="1.66334">
        <ele>1140</ele>
        <time>2018-11-18T16:12:21.000Z</time>
      </trkpt>
      <trkpt lat="42.70455" lon="1.66335">
        <ele>1140</ele>
        <time>2018-11-18T16:12:23.000Z</time>
      </trkpt>
      <trkpt lat="42.70455" lon="1.66336">
        <ele>1139</ele>
        <time>2018-11-18T16:12:25.000Z</time>
      </trkpt>
      <trkpt lat="42.70456" lon="1.66337">
        <ele>1139</ele>
        <time>2018-11-18T16:12:27.000Z</time>
      </trkpt>
      <trkpt lat="42.70457" lon="1.66338">
        <ele>1139</ele>
        <time>2018-11-18T16:12:29.000Z</time>
      </trkpt>
      <trkpt lat="42.70457" lon="1.66338">
        <ele>1138</ele>
        <time>2018-11-18T16:12:31.000Z</time>
      </trkpt>
      <trkpt lat="42.70458" lon="1.66339">
        <ele>1138</ele>
        <time>2018-11-18T16:12:33.000Z</time>
      </trkpt>
      <trkpt lat="42.70459" lon="1.66339">
        <ele>1138</ele>
        <time>2018-11-18T16:12:35.000Z</time>
      </trkpt>
      <trkpt lat="42.7046" lon="1.66339">
        <ele>1137</ele>
        <time>2018-11-18T16:12:37.000Z</time>
      </trkpt>
      <trkpt lat="42.70461" lon="1.6634">
        <ele>1137</ele>
        <time>2018-11-18T16:12:39.000Z</time>
      </trkpt>
      <trkpt lat="42.70461" lon="1.66341">
        <ele>1137</ele>
        <time>2018-11-18T16:12:41.000Z</time>
      </trkpt>
      <trkpt lat="42.70462" lon="1.66342">
        <ele>1136</ele>
        <time>2018-11-18T16:12:43.000Z</time>
      </trkpt>
      <trkpt lat="42.70464" lon="1.66342">
        <ele>1136</ele>
        <time>2018-11-18T16:12:45.000Z</time>
      </trkpt>
      <trkpt lat="42.70464" lon="1.66342">
        <ele>1136</ele>
        <time>2018-11-18T16:12:47.000Z</time>
      </trkpt>
      <trkpt lat="42.70464" lon="1.66342">
        <ele>1136</ele>
        <time>2018-11-18T16:12:49.000Z</time>
      </trkpt>
      <trkpt lat="42.70466" lon="1.66342">
        <ele>1136</ele>
        <time>2018-11-18T16:12:51.000Z</time>
      </trkpt>
      <trkpt lat="42.70466" lon="1.66342">
        <ele>1136</ele>
        <time>2018-11-18T16:12:53.000Z</time>
      </trkpt>
      <trkpt lat="42.70466" lon="1.66341">
        <ele>1136</ele>
        <time>2018-11-18T16:12:55.000Z</time>
      </trkpt>
      <trkpt lat="42.70467" lon="1.6634">
        <ele>1136</ele>
        <time>2018-11-18T16:12:57.000Z</time>
      </trkpt>
      <trkpt lat="42.70468" lon="1.6634">
        <ele>1136</ele>
        <time>2018-11-18T16:12:59.000Z</time>
      </trkpt>
      <trkpt lat="42.70469" lon="1.66341">
        <ele>1135</ele>
        <time>2018-11-18T16:13:01.000Z</time>
      </trkpt>
      <trkpt lat="42.7047" lon="1.66341">
        <ele>1135</ele>
        <time>2018-11-18T16:13:03.000Z</time>
      </trkpt>
      <trkpt lat="42.70471" lon="1.66342">
        <ele>1134</ele>
        <time>2018-11-18T16:13:05.000Z</time>
      </trkpt>
      <trkpt lat="42.70473" lon="1.66344">
        <ele>1134</ele>
        <time>2018-11-18T16:13:07.000Z</time>
      </trkpt>
      <trkpt lat="42.70474" lon="1.66345">
        <ele>1133</ele>
        <time>2018-11-18T16:13:09.000Z</time>
      </trkpt>
      <trkpt lat="42.70476" lon="1.66346">
        <ele>1132</ele>
        <time>2018-11-18T16:13:11.000Z</time>
      </trkpt>
      <trkpt lat="42.70478" lon="1.66345">
        <ele>1132</ele>
        <time>2018-11-18T16:13:13.000Z</time>
      </trkpt>
      <trkpt lat="42.70479" lon="1.66346">
        <ele>1132</ele>
        <time>2018-11-18T16:13:15.000Z</time>
      </trkpt>
      <trkpt lat="42.70478" lon="1.66348">
        <ele>1131</ele>
        <time>2018-11-18T16:13:17.000Z</time>
      </trkpt>
      <trkpt lat="42.70478" lon="1.66348">
        <ele>1131</ele>
        <time>2018-11-18T16:13:19.000Z</time>
      </trkpt>
      <trkpt lat="42.70478" lon="1.66349">
        <ele>1131</ele>
        <time>2018-11-18T16:13:21.000Z</time>
      </trkpt>
      <trkpt lat="42.70478" lon="1.6635">
        <ele>1131</ele>
        <time>2018-11-18T16:13:23.000Z</time>
      </trkpt>
      <trkpt lat="42.70478" lon="1.6635">
        <ele>1131</ele>
        <time>2018-11-18T16:13:25.000Z</time>
      </trkpt>
      <trkpt lat="42.70478" lon="1.6635">
        <ele>1131</ele>
        <time>2018-11-18T16:13:27.000Z</time>
      </trkpt>
      <trkpt lat="42.70478" lon="1.6635">
        <ele>1131</ele>
        <time>2018-11-18T16:13:29.000Z</time>
      </trkpt>
      <trkpt lat="42.70478" lon="1.6635">
        <ele>1131</ele>
        <time>2018-11-18T16:13:31.000Z</time>
      </trkpt>
      <trkpt lat="42.70478" lon="1.6635">
        <ele>1131</ele>
        <time>2018-11-18T16:13:33.000Z</time>
      </trkpt>
      <trkpt lat="42.70478" lon="1.66351">
        <ele>1131</ele>
        <time>2018-11-18T16:13:35.000Z</time>
      </trkpt>
      <trkpt lat="42.70477" lon="1.66351">
        <ele>1131</ele>
        <time>2018-11-18T16:13:37.000Z</time>
      </trkpt>
      <trkpt lat="42.70476" lon="1.66352">
        <ele>1131</ele>
        <time>2018-11-18T16:13:39.000Z</time>
      </trkpt>
      <trkpt lat="42.70476" lon="1.66352">
        <ele>1130</ele>
        <time>2018-11-18T16:13:41.000Z</time>
      </trkpt>
      <trkpt lat="42.70477" lon="1.66353">
        <ele>1130</ele>
        <time>2018-11-18T16:13:43.000Z</time>
      </trkpt>
      <trkpt lat="42.70476" lon="1.66353">
        <ele>1130</ele>
        <time>2018-11-18T16:13:45.000Z</time>
      </trkpt>
      <trkpt lat="42.70477" lon="1.66354">
        <ele>1130</ele>
        <time>2018-11-18T16:13:47.000Z</time>
      </trkpt>
      <trkpt lat="42.70477" lon="1.66352">
        <ele>1130</ele>
        <time>2018-11-18T16:13:49.000Z</time>
      </trkpt>
      <trkpt lat="42.70478" lon="1.66352">
        <ele>1130</ele>
        <time>2018-11-18T16:13:51.000Z</time>
      </trkpt>
      <trkpt lat="42.70477" lon="1.66352">
        <ele>1130</ele>
        <time>2018-11-18T16:13:53.000Z</time>
      </trkpt>
      <trkpt lat="42.70478" lon="1.66351">
        <ele>1130</ele>
        <time>2018-11-18T16:13:55.000Z</time>
      </trkpt>
      <trkpt lat="42.70479" lon="1.66351">
        <ele>1130</ele>
        <time>2018-11-18T16:13:57.000Z</time>
      </trkpt>
      <trkpt lat="42.70479" lon="1.6635">
        <ele>1130</ele>
        <time>2018-11-18T16:13:59.000Z</time>
      </trkpt>
      <trkpt lat="42.7048" lon="1.66351">
        <ele>1130</ele>
        <time>2018-11-18T16:14:01.000Z</time>
      </trkpt>
      <trkpt lat="42.7048" lon="1.66351">
        <ele>1130</ele>
        <time>2018-11-18T16:14:03.000Z</time>
      </trkpt>
      <trkpt lat="42.70479" lon="1.66351">
        <ele>1130</ele>
        <time>2018-11-18T16:14:05.000Z</time>
      </trkpt>
      <trkpt lat="42.70477" lon="1.66353">
        <ele>1130</ele>
        <time>2018-11-18T16:14:07.000Z</time>
      </trkpt>
      <trkpt lat="42.70477" lon="1.66354">
        <ele>1130</ele>
        <time>2018-11-18T16:14:09.000Z</time>
      </trkpt>
      <trkpt lat="42.70477" lon="1.66354">
        <ele>1130</ele>
        <time>2018-11-18T16:14:11.000Z</time>
      </trkpt>
      <trkpt lat="42.70476" lon="1.66354">
        <ele>1130</ele>
        <time>2018-11-18T16:14:13.000Z</time>
      </trkpt>
      <trkpt lat="42.70477" lon="1.66354">
        <ele>1130</ele>
        <time>2018-11-18T16:14:15.000Z</time>
      </trkpt>
      <trkpt lat="42.70476" lon="1.66355">
        <ele>1130</ele>
        <time>2018-11-18T16:14:17.000Z</time>
      </trkpt>
      <trkpt lat="42.70476" lon="1.66355">
        <ele>1130</ele>
        <time>2018-11-18T16:14:19.000Z</time>
      </trkpt>
      <trkpt lat="42.70476" lon="1.66355">
        <ele>1130</ele>
        <time>2018-11-18T16:14:21.000Z</time>
      </trkpt>
      <trkpt lat="42.70476" lon="1.66356">
        <ele>1129</ele>
        <time>2018-11-18T16:14:23.000Z</time>
      </trkpt>
      <trkpt lat="42.70476" lon="1.66356">
        <ele>1129</ele>
        <time>2018-11-18T16:14:25.000Z</time>
      </trkpt>
      <trkpt lat="42.70477" lon="1.66357">
        <ele>1129</ele>
        <time>2018-11-18T16:14:27.000Z</time>
      </trkpt>
      <trkpt lat="42.70477" lon="1.66357">
        <ele>1129</ele>
        <time>2018-11-18T16:14:29.000Z</time>
      </trkpt>
      <trkpt lat="42.70478" lon="1.66357">
        <ele>1129</ele>
        <time>2018-11-18T16:14:31.000Z</time>
      </trkpt>
      <trkpt lat="42.70478" lon="1.66358">
        <ele>1128</ele>
        <time>2018-11-18T16:14:33.000Z</time>
      </trkpt>
      <trkpt lat="42.70479" lon="1.66358">
        <ele>1128</ele>
        <time>2018-11-18T16:14:35.000Z</time>
      </trkpt>
      <trkpt lat="42.7048" lon="1.66357">
        <ele>1128</ele>
        <time>2018-11-18T16:14:37.000Z</time>
      </trkpt>
      <trkpt lat="42.7048" lon="1.66357">
        <ele>1128</ele>
        <time>2018-11-18T16:14:39.000Z</time>
      </trkpt>
      <trkpt lat="42.70481" lon="1.66357">
        <ele>1128</ele>
        <time>2018-11-18T16:14:41.000Z</time>
      </trkpt>
      <trkpt lat="42.70481" lon="1.66356">
        <ele>1128</ele>
        <time>2018-11-18T16:14:43.000Z</time>
      </trkpt>
      <trkpt lat="42.70482" lon="1.66355">
        <ele>1128</ele>
        <time>2018-11-18T16:14:45.000Z</time>
      </trkpt>
      <trkpt lat="42.70483" lon="1.66355">
        <ele>1128</ele>
        <time>2018-11-18T16:14:47.000Z</time>
      </trkpt>
      <trkpt lat="42.70484" lon="1.66354">
        <ele>1128</ele>
        <time>2018-11-18T16:14:49.000Z</time>
      </trkpt>
      <trkpt lat="42.70486" lon="1.66353">
        <ele>1128</ele>
        <time>2018-11-18T16:14:51.000Z</time>
      </trkpt>
      <trkpt lat="42.70487" lon="1.66353">
        <ele>1128</ele>
        <time>2018-11-18T16:14:53.000Z</time>
      </trkpt>
      <trkpt lat="42.70489" lon="1.66353">
        <ele>1128</ele>
        <time>2018-11-18T16:14:55.000Z</time>
      </trkpt>
      <trkpt lat="42.70489" lon="1.66353">
        <ele>1128</ele>
        <time>2018-11-18T16:14:57.000Z</time>
      </trkpt>
      <trkpt lat="42.7049" lon="1.66353">
        <ele>1127</ele>
        <time>2018-11-18T16:14:59.000Z</time>
      </trkpt>
      <trkpt lat="42.70491" lon="1.66353">
        <ele>1127</ele>
        <time>2018-11-18T16:15:01.000Z</time>
      </trkpt>
      <trkpt lat="42.70491" lon="1.66353">
        <ele>1127</ele>
        <time>2018-11-18T16:15:03.000Z</time>
      </trkpt>
      <trkpt lat="42.70493" lon="1.66353">
        <ele>1127</ele>
        <time>2018-11-18T16:15:05.000Z</time>
      </trkpt>
      <trkpt lat="42.70493" lon="1.66353">
        <ele>1127</ele>
        <time>2018-11-18T16:15:07.000Z</time>
      </trkpt>
      <trkpt lat="42.70495" lon="1.66352">
        <ele>1127</ele>
        <time>2018-11-18T16:15:09.000Z</time>
      </trkpt>
      <trkpt lat="42.70495" lon="1.66351">
        <ele>1127</ele>
        <time>2018-11-18T16:15:11.000Z</time>
      </trkpt>
      <trkpt lat="42.70496" lon="1.66351">
        <ele>1127</ele>
        <time>2018-11-18T16:15:13.000Z</time>
      </trkpt>
      <trkpt lat="42.70498" lon="1.6635">
        <ele>1127</ele>
        <time>2018-11-18T16:15:15.000Z</time>
      </trkpt>
      <trkpt lat="42.70499" lon="1.66349">
        <ele>1127</ele>
        <time>2018-11-18T16:15:17.000Z</time>
      </trkpt>
      <trkpt lat="42.70499" lon="1.6635">
        <ele>1127</ele>
        <time>2018-11-18T16:15:19.000Z</time>
      </trkpt>
      <trkpt lat="42.70498" lon="1.66349">
        <ele>1127</ele>
        <time>2018-11-18T16:15:21.000Z</time>
      </trkpt>
      <trkpt lat="42.70499" lon="1.66348">
        <ele>1127</ele>
        <time>2018-11-18T16:15:23.000Z</time>
      </trkpt>
      <trkpt lat="42.70499" lon="1.66347">
        <ele>1127</ele>
        <time>2018-11-18T16:15:25.000Z</time>
      </trkpt>
      <trkpt lat="42.705" lon="1.66346">
        <ele>1128</ele>
        <time>2018-11-18T16:15:27.000Z</time>
      </trkpt>
      <trkpt lat="42.70502" lon="1.66347">
        <ele>1127</ele>
        <time>2018-11-18T16:15:29.000Z</time>
      </trkpt>
      <trkpt lat="42.70506" lon="1.66346">
        <ele>1127</ele>
        <time>2018-11-18T16:15:31.000Z</time>
      </trkpt>
      <trkpt lat="42.70508" lon="1.66346">
        <ele>1126</ele>
        <time>2018-11-18T16:15:33.000Z</time>
      </trkpt>
      <trkpt lat="42.70511" lon="1.66348">
        <ele>1125</ele>
        <time>2018-11-18T16:15:35.000Z</time>
      </trkpt>
      <trkpt lat="42.70512" lon="1.66349">
        <ele>1124</ele>
        <time>2018-11-18T16:15:37.000Z</time>
      </trkpt>
      <trkpt lat="42.70514" lon="1.66352">
        <ele>1123</ele>
        <time>2018-11-18T16:15:39.000Z</time>
      </trkpt>
      <trkpt lat="42.70513" lon="1.66355">
        <ele>1123</ele>
        <time>2018-11-18T16:15:41.000Z</time>
      </trkpt>
      <trkpt lat="42.70513" lon="1.66357">
        <ele>1122</ele>
        <time>2018-11-18T16:15:43.000Z</time>
      </trkpt>
      <trkpt lat="42.70513" lon="1.66358">
        <ele>1121</ele>
        <time>2018-11-18T16:15:45.000Z</time>
      </trkpt>
      <trkpt lat="42.70514" lon="1.66361">
        <ele>1121</ele>
        <time>2018-11-18T16:15:47.000Z</time>
      </trkpt>
      <trkpt lat="42.70515" lon="1.66362">
        <ele>1120</ele>
        <time>2018-11-18T16:15:49.000Z</time>
      </trkpt>
      <trkpt lat="42.70516" lon="1.66363">
        <ele>1119</ele>
        <time>2018-11-18T16:15:51.000Z</time>
      </trkpt>
      <trkpt lat="42.70516" lon="1.66364">
        <ele>1119</ele>
        <time>2018-11-18T16:15:53.000Z</time>
      </trkpt>
      <trkpt lat="42.70516" lon="1.66363">
        <ele>1119</ele>
        <time>2018-11-18T16:15:55.000Z</time>
      </trkpt>
      <trkpt lat="42.70515" lon="1.66363">
        <ele>1120</ele>
        <time>2018-11-18T16:15:57.000Z</time>
      </trkpt>
      <trkpt lat="42.70514" lon="1.66363">
        <ele>1120</ele>
        <time>2018-11-18T16:15:59.000Z</time>
      </trkpt>
      <trkpt lat="42.70513" lon="1.66363">
        <ele>1120</ele>
        <time>2018-11-18T16:16:01.000Z</time>
      </trkpt>
      <trkpt lat="42.70511" lon="1.66363">
        <ele>1121</ele>
        <time>2018-11-18T16:16:03.000Z</time>
      </trkpt>
      <trkpt lat="42.7051" lon="1.66362">
        <ele>1121</ele>
        <time>2018-11-18T16:16:05.000Z</time>
      </trkpt>
      <trkpt lat="42.7051" lon="1.66362">
        <ele>1121</ele>
        <time>2018-11-18T16:16:07.000Z</time>
      </trkpt>
      <trkpt lat="42.70508" lon="1.6636">
        <ele>1122</ele>
        <time>2018-11-18T16:16:09.000Z</time>
      </trkpt>
      <trkpt lat="42.70507" lon="1.6636">
        <ele>1122</ele>
        <time>2018-11-18T16:16:11.000Z</time>
      </trkpt>
      <trkpt lat="42.70506" lon="1.6636">
        <ele>1122</ele>
        <time>2018-11-18T16:16:13.000Z</time>
      </trkpt>
      <trkpt lat="42.70506" lon="1.6636">
        <ele>1122</ele>
        <time>2018-11-18T16:16:15.000Z</time>
      </trkpt>
      <trkpt lat="42.70506" lon="1.6636">
        <ele>1122</ele>
        <time>2018-11-18T16:16:17.000Z</time>
      </trkpt>
      <trkpt lat="42.70506" lon="1.6636">
        <ele>1122</ele>
        <time>2018-11-18T16:16:19.000Z</time>
      </trkpt>
      <trkpt lat="42.70506" lon="1.6636">
        <ele>1122</ele>
        <time>2018-11-18T16:16:21.000Z</time>
      </trkpt>
      <trkpt lat="42.70505" lon="1.6636">
        <ele>1122</ele>
        <time>2018-11-18T16:16:23.000Z</time>
      </trkpt>
      <trkpt lat="42.70505" lon="1.66361">
        <ele>1122</ele>
        <time>2018-11-18T16:16:25.000Z</time>
      </trkpt>
      <trkpt lat="42.70504" lon="1.66361">
        <ele>1122</ele>
        <time>2018-11-18T16:16:27.000Z</time>
      </trkpt>
      <trkpt lat="42.70504" lon="1.66362">
        <ele>1122</ele>
        <time>2018-11-18T16:16:29.000Z</time>
      </trkpt>
      <trkpt lat="42.70504" lon="1.66362">
        <ele>1122</ele>
        <time>2018-11-18T16:16:31.000Z</time>
      </trkpt>
      <trkpt lat="42.70505" lon="1.66363">
        <ele>1122</ele>
        <time>2018-11-18T16:16:33.000Z</time>
      </trkpt>
      <trkpt lat="42.70505" lon="1.66365">
        <ele>1121</ele>
        <time>2018-11-18T16:16:35.000Z</time>
      </trkpt>
      <trkpt lat="42.70505" lon="1.66365">
        <ele>1121</ele>
        <time>2018-11-18T16:16:37.000Z</time>
      </trkpt>
      <trkpt lat="42.70505" lon="1.66364">
        <ele>1121</ele>
        <time>2018-11-18T16:16:39.000Z</time>
      </trkpt>
      <trkpt lat="42.70504" lon="1.66365">
        <ele>1121</ele>
        <time>2018-11-18T16:16:41.000Z</time>
      </trkpt>
      <trkpt lat="42.70504" lon="1.66365">
        <ele>1121</ele>
        <time>2018-11-18T16:16:43.000Z</time>
      </trkpt>
      <trkpt lat="42.70504" lon="1.66365">
        <ele>1121</ele>
        <time>2018-11-18T16:16:45.000Z</time>
      </trkpt>
      <trkpt lat="42.70503" lon="1.66366">
        <ele>1121</ele>
        <time>2018-11-18T16:16:47.000Z</time>
      </trkpt>
      <trkpt lat="42.70502" lon="1.66367">
        <ele>1121</ele>
        <time>2018-11-18T16:16:49.000Z</time>
      </trkpt>
      <trkpt lat="42.70502" lon="1.66367">
        <ele>1121</ele>
        <time>2018-11-18T16:16:51.000Z</time>
      </trkpt>
      <trkpt lat="42.70502" lon="1.66367">
        <ele>1121</ele>
        <time>2018-11-18T16:16:53.000Z</time>
      </trkpt>
      <trkpt lat="42.70502" lon="1.66365">
        <ele>1121</ele>
        <time>2018-11-18T16:16:55.000Z</time>
      </trkpt>
      <trkpt lat="42.70504" lon="1.66365">
        <ele>1121</ele>
        <time>2018-11-18T16:16:57.000Z</time>
      </trkpt>
      <trkpt lat="42.70505" lon="1.66364">
        <ele>1121</ele>
        <time>2018-11-18T16:16:59.000Z</time>
      </trkpt>
      <trkpt lat="42.70507" lon="1.66363">
        <ele>1121</ele>
        <time>2018-11-18T16:17:01.000Z</time>
      </trkpt>
      <trkpt lat="42.70509" lon="1.66362">
        <ele>1121</ele>
        <time>2018-11-18T16:17:03.000Z</time>
      </trkpt>
      <trkpt lat="42.70509" lon="1.66362">
        <ele>1121</ele>
        <time>2018-11-18T16:17:05.000Z</time>
      </trkpt>
      <trkpt lat="42.7051" lon="1.66362">
        <ele>1121</ele>
        <time>2018-11-18T16:17:07.000Z</time>
      </trkpt>
      <trkpt lat="42.70512" lon="1.66363">
        <ele>1120</ele>
        <time>2018-11-18T16:17:09.000Z</time>
      </trkpt>
      <trkpt lat="42.70515" lon="1.66363">
        <ele>1120</ele>
        <time>2018-11-18T16:17:12.000Z</time>
      </trkpt>
      <trkpt lat="42.70519" lon="1.66365">
        <ele>1118</ele>
        <time>2018-11-18T16:17:20.000Z</time>
      </trkpt>
      <trkpt lat="42.70515" lon="1.66366">
        <ele>1119</ele>
        <time>2018-11-18T16:17:22.000Z</time>
      </trkpt>
      <trkpt lat="42.70509" lon="1.66364">
        <ele>1121</ele>
        <time>2018-11-18T16:17:24.000Z</time>
      </trkpt>
      <trkpt lat="42.70508" lon="1.66362">
        <ele>1121</ele>
        <time>2018-11-18T16:17:26.000Z</time>
      </trkpt>
      <trkpt lat="42.70507" lon="1.66361">
        <ele>1122</ele>
        <time>2018-11-18T16:17:28.000Z</time>
      </trkpt>
      <trkpt lat="42.70507" lon="1.66361">
        <ele>1122</ele>
        <time>2018-11-18T16:17:30.000Z</time>
      </trkpt>
      <trkpt lat="42.70508" lon="1.6636">
        <ele>1122</ele>
        <time>2018-11-18T16:17:32.000Z</time>
      </trkpt>
      <trkpt lat="42.70503" lon="1.66356">
        <ele>1124</ele>
        <time>2018-11-18T16:17:34.000Z</time>
      </trkpt>
      <trkpt lat="42.70501" lon="1.66356">
        <ele>1125</ele>
        <time>2018-11-18T16:17:36.000Z</time>
      </trkpt>
      <trkpt lat="42.70501" lon="1.66355">
        <ele>1125</ele>
        <time>2018-11-18T16:17:38.000Z</time>
      </trkpt>
      <trkpt lat="42.705" lon="1.66354">
        <ele>1125</ele>
        <time>2018-11-18T16:17:40.000Z</time>
      </trkpt>
      <trkpt lat="42.70499" lon="1.66354">
        <ele>1125</ele>
        <time>2018-11-18T16:17:42.000Z</time>
      </trkpt>
      <trkpt lat="42.70499" lon="1.66355">
        <ele>1125</ele>
        <time>2018-11-18T16:17:44.000Z</time>
      </trkpt>
      <trkpt lat="42.70497" lon="1.66355">
        <ele>1126</ele>
        <time>2018-11-18T16:17:46.000Z</time>
      </trkpt>
      <trkpt lat="42.70497" lon="1.66355">
        <ele>1126</ele>
        <time>2018-11-18T16:17:48.000Z</time>
      </trkpt>
      <trkpt lat="42.70497" lon="1.66355">
        <ele>1126</ele>
        <time>2018-11-18T16:17:50.000Z</time>
      </trkpt>
      <trkpt lat="42.70496" lon="1.66355">
        <ele>1126</ele>
        <time>2018-11-18T16:17:52.000Z</time>
      </trkpt>
      <trkpt lat="42.70497" lon="1.66356">
        <ele>1125</ele>
        <time>2018-11-18T16:17:54.000Z</time>
      </trkpt>
      <trkpt lat="42.70497" lon="1.66357">
        <ele>1125</ele>
        <time>2018-11-18T16:17:56.000Z</time>
      </trkpt>
      <trkpt lat="42.70497" lon="1.66358">
        <ele>1125</ele>
        <time>2018-11-18T16:17:58.000Z</time>
      </trkpt>
      <trkpt lat="42.70498" lon="1.66359">
        <ele>1124</ele>
        <time>2018-11-18T16:18:00.000Z</time>
      </trkpt>
      <trkpt lat="42.70499" lon="1.6636">
        <ele>1124</ele>
        <time>2018-11-18T16:18:02.000Z</time>
      </trkpt>
      <trkpt lat="42.705" lon="1.6636">
        <ele>1123</ele>
        <time>2018-11-18T16:18:04.000Z</time>
      </trkpt>
      <trkpt lat="42.705" lon="1.66361">
        <ele>1123</ele>
        <time>2018-11-18T16:18:06.000Z</time>
      </trkpt>
      <trkpt lat="42.705" lon="1.66362">
        <ele>1123</ele>
        <time>2018-11-18T16:18:08.000Z</time>
      </trkpt>
      <trkpt lat="42.705" lon="1.66362">
        <ele>1123</ele>
        <time>2018-11-18T16:18:10.000Z</time>
      </trkpt>
      <trkpt lat="42.70501" lon="1.66363">
        <ele>1122</ele>
        <time>2018-11-18T16:18:12.000Z</time>
      </trkpt>
      <trkpt lat="42.70501" lon="1.66364">
        <ele>1122</ele>
        <time>2018-11-18T16:18:14.000Z</time>
      </trkpt>
      <trkpt lat="42.70502" lon="1.66364">
        <ele>1122</ele>
        <time>2018-11-18T16:18:16.000Z</time>
      </trkpt>
      <trkpt lat="42.70503" lon="1.66363">
        <ele>1122</ele>
        <time>2018-11-18T16:18:18.000Z</time>
      </trkpt>
      <trkpt lat="42.70502" lon="1.66363">
        <ele>1122</ele>
        <time>2018-11-18T16:18:20.000Z</time>
      </trkpt>
      <trkpt lat="42.70502" lon="1.66363">
        <ele>1122</ele>
        <time>2018-11-18T16:18:22.000Z</time>
      </trkpt>
      <trkpt lat="42.70502" lon="1.66362">
        <ele>1122</ele>
        <time>2018-11-18T16:18:24.000Z</time>
      </trkpt>
      <trkpt lat="42.70502" lon="1.66362">
        <ele>1123</ele>
        <time>2018-11-18T16:18:26.000Z</time>
      </trkpt>
      <trkpt lat="42.70502" lon="1.66361">
        <ele>1123</ele>
        <time>2018-11-18T16:18:28.000Z</time>
      </trkpt>
      <trkpt lat="42.70502" lon="1.66361">
        <ele>1123</ele>
        <time>2018-11-18T16:18:30.000Z</time>
      </trkpt>
      <trkpt lat="42.70502" lon="1.66361">
        <ele>1123</ele>
        <time>2018-11-18T16:18:32.000Z</time>
      </trkpt>
      <trkpt lat="42.70502" lon="1.66362">
        <ele>1123</ele>
        <time>2018-11-18T16:18:34.000Z</time>
      </trkpt>
      <trkpt lat="42.70503" lon="1.66361">
        <ele>1123</ele>
        <time>2018-11-18T16:18:36.000Z</time>
      </trkpt>
      <trkpt lat="42.70503" lon="1.66361">
        <ele>1123</ele>
        <time>2018-11-18T16:18:38.000Z</time>
      </trkpt>
      <trkpt lat="42.70504" lon="1.66361">
        <ele>1123</ele>
        <time>2018-11-18T16:18:40.000Z</time>
      </trkpt>
      <trkpt lat="42.70504" lon="1.6636">
        <ele>1123</ele>
        <time>2018-11-18T16:18:42.000Z</time>
      </trkpt>
      <trkpt lat="42.70507" lon="1.66362">
        <ele>1122</ele>
        <time>2018-11-18T16:18:44.000Z</time>
      </trkpt>
      <trkpt lat="42.7051" lon="1.66362">
        <ele>1121</ele>
        <time>2018-11-18T16:18:46.000Z</time>
      </trkpt>
      <trkpt lat="42.70512" lon="1.66362">
        <ele>1121</ele>
        <time>2018-11-18T16:18:48.000Z</time>
      </trkpt>
      <trkpt lat="42.70514" lon="1.66363">
        <ele>1120</ele>
        <time>2018-11-18T16:18:50.000Z</time>
      </trkpt>
      <trkpt lat="42.70515" lon="1.66363">
        <ele>1120</ele>
        <time>2018-11-18T16:18:52.000Z</time>
      </trkpt>
      <trkpt lat="42.70516" lon="1.66363">
        <ele>1119</ele>
        <time>2018-11-18T16:18:54.000Z</time>
      </trkpt>
      <trkpt lat="42.70516" lon="1.66363">
        <ele>1119</ele>
        <time>2018-11-18T16:18:56.000Z</time>
      </trkpt>
      <trkpt lat="42.70515" lon="1.66363">
        <ele>1120</ele>
        <time>2018-11-18T16:18:58.000Z</time>
      </trkpt>
      <trkpt lat="42.70515" lon="1.66364">
        <ele>1120</ele>
        <time>2018-11-18T16:19:00.000Z</time>
      </trkpt>
      <trkpt lat="42.70514" lon="1.66364">
        <ele>1120</ele>
        <time>2018-11-18T16:19:02.000Z</time>
      </trkpt>
      <trkpt lat="42.70513" lon="1.66363">
        <ele>1120</ele>
        <time>2018-11-18T16:19:04.000Z</time>
      </trkpt>
      <trkpt lat="42.70513" lon="1.66363">
        <ele>1120</ele>
        <time>2018-11-18T16:19:06.000Z</time>
      </trkpt>
      <trkpt lat="42.70512" lon="1.66363">
        <ele>1120</ele>
        <time>2018-11-18T16:19:08.000Z</time>
      </trkpt>
      <trkpt lat="42.70512" lon="1.66363">
        <ele>1120</ele>
        <time>2018-11-18T16:19:10.000Z</time>
      </trkpt>
      <trkpt lat="42.70512" lon="1.66363">
        <ele>1120</ele>
        <time>2018-11-18T16:19:12.000Z</time>
      </trkpt>
      <trkpt lat="42.70511" lon="1.66363">
        <ele>1120</ele>
        <time>2018-11-18T16:19:14.000Z</time>
      </trkpt>
      <trkpt lat="42.70511" lon="1.66364">
        <ele>1120</ele>
        <time>2018-11-18T16:19:16.000Z</time>
      </trkpt>
      <trkpt lat="42.70511" lon="1.66364">
        <ele>1120</ele>
        <time>2018-11-18T16:19:18.000Z</time>
      </trkpt>
      <trkpt lat="42.70511" lon="1.66364">
        <ele>1120</ele>
        <time>2018-11-18T16:19:20.000Z</time>
      </trkpt>
      <trkpt lat="42.70511" lon="1.66363">
        <ele>1120</ele>
        <time>2018-11-18T16:19:22.000Z</time>
      </trkpt>
      <trkpt lat="42.70511" lon="1.66362">
        <ele>1121</ele>
        <time>2018-11-18T16:19:24.000Z</time>
      </trkpt>
      <trkpt lat="42.70511" lon="1.66361">
        <ele>1121</ele>
        <time>2018-11-18T16:19:26.000Z</time>
      </trkpt>
      <trkpt lat="42.70511" lon="1.6636">
        <ele>1121</ele>
        <time>2018-11-18T16:19:28.000Z</time>
      </trkpt>
      <trkpt lat="42.70511" lon="1.6636">
        <ele>1121</ele>
        <time>2018-11-18T16:19:30.000Z</time>
      </trkpt>
      <trkpt lat="42.7051" lon="1.6636">
        <ele>1122</ele>
        <time>2018-11-18T16:19:32.000Z</time>
      </trkpt>
      <trkpt lat="42.7051" lon="1.6636">
        <ele>1122</ele>
        <time>2018-11-18T16:19:34.000Z</time>
      </trkpt>
      <trkpt lat="42.70509" lon="1.6636">
        <ele>1122</ele>
        <time>2018-11-18T16:19:36.000Z</time>
      </trkpt>
      <trkpt lat="42.70509" lon="1.6636">
        <ele>1122</ele>
        <time>2018-11-18T16:19:38.000Z</time>
      </trkpt>
      <trkpt lat="42.70509" lon="1.66361">
        <ele>1122</ele>
        <time>2018-11-18T16:19:40.000Z</time>
      </trkpt>
      <trkpt lat="42.7051" lon="1.66361">
        <ele>1121</ele>
        <time>2018-11-18T16:19:42.000Z</time>
      </trkpt>
      <trkpt lat="42.70511" lon="1.66361">
        <ele>1121</ele>
        <time>2018-11-18T16:19:44.000Z</time>
      </trkpt>
      <trkpt lat="42.70513" lon="1.6636">
        <ele>1121</ele>
        <time>2018-11-18T16:19:46.000Z</time>
      </trkpt>
      <trkpt lat="42.70515" lon="1.6636">
        <ele>1121</ele>
        <time>2018-11-18T16:19:48.000Z</time>
      </trkpt>
      <trkpt lat="42.70516" lon="1.6636">
        <ele>1120</ele>
        <time>2018-11-18T16:19:50.000Z</time>
      </trkpt>
      <trkpt lat="42.70518" lon="1.66361">
        <ele>1120</ele>
        <time>2018-11-18T16:19:52.000Z</time>
      </trkpt>
      <trkpt lat="42.7052" lon="1.66361">
        <ele>1119</ele>
        <time>2018-11-18T16:19:54.000Z</time>
      </trkpt>
      <trkpt lat="42.70522" lon="1.66362">
        <ele>1119</ele>
        <time>2018-11-18T16:19:56.000Z</time>
      </trkpt>
      <trkpt lat="42.70523" lon="1.66364">
        <ele>1118</ele>
        <time>2018-11-18T16:19:58.000Z</time>
      </trkpt>
      <trkpt lat="42.70525" lon="1.66365">
        <ele>1117</ele>
        <time>2018-11-18T16:20:00.000Z</time>
      </trkpt>
      <trkpt lat="42.70525" lon="1.66365">
        <ele>1117</ele>
        <time>2018-11-18T16:20:02.000Z</time>
      </trkpt>
      <trkpt lat="42.70526" lon="1.66367">
        <ele>1116</ele>
        <time>2018-11-18T16:20:04.000Z</time>
      </trkpt>
      <trkpt lat="42.70527" lon="1.66368">
        <ele>1116</ele>
        <time>2018-11-18T16:20:06.000Z</time>
      </trkpt>
      <trkpt lat="42.70528" lon="1.66369">
        <ele>1115</ele>
        <time>2018-11-18T16:20:08.000Z</time>
      </trkpt>
      <trkpt lat="42.70529" lon="1.6637">
        <ele>1115</ele>
        <time>2018-11-18T16:20:10.000Z</time>
      </trkpt>
      <trkpt lat="42.70531" lon="1.66372">
        <ele>1114</ele>
        <time>2018-11-18T16:20:12.000Z</time>
      </trkpt>
      <trkpt lat="42.70532" lon="1.66374">
        <ele>1113</ele>
        <time>2018-11-18T16:20:14.000Z</time>
      </trkpt>
      <trkpt lat="42.70533" lon="1.66375">
        <ele>1113</ele>
        <time>2018-11-18T16:20:16.000Z</time>
      </trkpt>
      <trkpt lat="42.70534" lon="1.66376">
        <ele>1112</ele>
        <time>2018-11-18T16:20:18.000Z</time>
      </trkpt>
      <trkpt lat="42.70535" lon="1.66376">
        <ele>1112</ele>
        <time>2018-11-18T16:20:20.000Z</time>
      </trkpt>
      <trkpt lat="42.70536" lon="1.66375">
        <ele>1112</ele>
        <time>2018-11-18T16:20:22.000Z</time>
      </trkpt>
      <trkpt lat="42.70537" lon="1.66376">
        <ele>1112</ele>
        <time>2018-11-18T16:20:24.000Z</time>
      </trkpt>
      <trkpt lat="42.7054" lon="1.66378">
        <ele>1110</ele>
        <time>2018-11-18T16:20:26.000Z</time>
      </trkpt>
      <trkpt lat="42.7054" lon="1.6638">
        <ele>1110</ele>
        <time>2018-11-18T16:20:28.000Z</time>
      </trkpt>
      <trkpt lat="42.70541" lon="1.66382">
        <ele>1109</ele>
        <time>2018-11-18T16:20:30.000Z</time>
      </trkpt>
      <trkpt lat="42.70542" lon="1.66383">
        <ele>1109</ele>
        <time>2018-11-18T16:20:32.000Z</time>
      </trkpt>
      <trkpt lat="42.70544" lon="1.66384">
        <ele>1108</ele>
        <time>2018-11-18T16:20:34.000Z</time>
      </trkpt>
      <trkpt lat="42.70544" lon="1.66385">
        <ele>1107</ele>
        <time>2018-11-18T16:20:36.000Z</time>
      </trkpt>
      <trkpt lat="42.70545" lon="1.66387">
        <ele>1107</ele>
        <time>2018-11-18T16:20:38.000Z</time>
      </trkpt>
      <trkpt lat="42.70545" lon="1.66389">
        <ele>1106</ele>
        <time>2018-11-18T16:20:40.000Z</time>
      </trkpt>
      <trkpt lat="42.70546" lon="1.6639">
        <ele>1106</ele>
        <time>2018-11-18T16:20:42.000Z</time>
      </trkpt>
      <trkpt lat="42.70547" lon="1.66393">
        <ele>1105</ele>
        <time>2018-11-18T16:20:44.000Z</time>
      </trkpt>
      <trkpt lat="42.70549" lon="1.66394">
        <ele>1104</ele>
        <time>2018-11-18T16:20:46.000Z</time>
      </trkpt>
      <trkpt lat="42.7055" lon="1.66396">
        <ele>1103</ele>
        <time>2018-11-18T16:20:48.000Z</time>
      </trkpt>
      <trkpt lat="42.70551" lon="1.66397">
        <ele>1103</ele>
        <time>2018-11-18T16:20:50.000Z</time>
      </trkpt>
      <trkpt lat="42.70551" lon="1.66397">
        <ele>1103</ele>
        <time>2018-11-18T16:20:52.000Z</time>
      </trkpt>
      <trkpt lat="42.70552" lon="1.66398">
        <ele>1102</ele>
        <time>2018-11-18T16:20:54.000Z</time>
      </trkpt>
      <trkpt lat="42.70553" lon="1.66399">
        <ele>1102</ele>
        <time>2018-11-18T16:20:56.000Z</time>
      </trkpt>
      <trkpt lat="42.70553" lon="1.66401">
        <ele>1101</ele>
        <time>2018-11-18T16:20:58.000Z</time>
      </trkpt>
      <trkpt lat="42.70552" lon="1.66402">
        <ele>1101</ele>
        <time>2018-11-18T16:21:00.000Z</time>
      </trkpt>
      <trkpt lat="42.70553" lon="1.66403">
        <ele>1101</ele>
        <time>2018-11-18T16:21:02.000Z</time>
      </trkpt>
      <trkpt lat="42.70553" lon="1.66404">
        <ele>1100</ele>
        <time>2018-11-18T16:21:04.000Z</time>
      </trkpt>
      <trkpt lat="42.70553" lon="1.66407">
        <ele>1100</ele>
        <time>2018-11-18T16:21:06.000Z</time>
      </trkpt>
      <trkpt lat="42.70552" lon="1.6641">
        <ele>1100</ele>
        <time>2018-11-18T16:21:08.000Z</time>
      </trkpt>
      <trkpt lat="42.70551" lon="1.66412">
        <ele>1101</ele>
        <time>2018-11-18T16:21:10.000Z</time>
      </trkpt>
      <trkpt lat="42.70549" lon="1.66415">
        <ele>1101</ele>
        <time>2018-11-18T16:21:12.000Z</time>
      </trkpt>
      <trkpt lat="42.70548" lon="1.66417">
        <ele>1101</ele>
        <time>2018-11-18T16:21:14.000Z</time>
      </trkpt>
      <trkpt lat="42.70546" lon="1.66418">
        <ele>1101</ele>
        <time>2018-11-18T16:21:16.000Z</time>
      </trkpt>
      <trkpt lat="42.70546" lon="1.66421">
        <ele>1101</ele>
        <time>2018-11-18T16:21:18.000Z</time>
      </trkpt>
      <trkpt lat="42.70546" lon="1.66424">
        <ele>1101</ele>
        <time>2018-11-18T16:21:20.000Z</time>
      </trkpt>
      <trkpt lat="42.70546" lon="1.66426">
        <ele>1101</ele>
        <time>2018-11-18T16:21:22.000Z</time>
      </trkpt>
      <trkpt lat="42.70547" lon="1.66429">
        <ele>1101</ele>
        <time>2018-11-18T16:21:24.000Z</time>
      </trkpt>
      <trkpt lat="42.70547" lon="1.66432">
        <ele>1101</ele>
        <time>2018-11-18T16:21:26.000Z</time>
      </trkpt>
      <trkpt lat="42.70548" lon="1.66435">
        <ele>1100</ele>
        <time>2018-11-18T16:21:28.000Z</time>
      </trkpt>
      <trkpt lat="42.70548" lon="1.66438">
        <ele>1100</ele>
        <time>2018-11-18T16:21:30.000Z</time>
      </trkpt>
      <trkpt lat="42.70547" lon="1.66441">
        <ele>1100</ele>
        <time>2018-11-18T16:21:32.000Z</time>
      </trkpt>
      <trkpt lat="42.70548" lon="1.66444">
        <ele>1100</ele>
        <time>2018-11-18T16:21:34.000Z</time>
      </trkpt>
      <trkpt lat="42.70548" lon="1.66447">
        <ele>1100</ele>
        <time>2018-11-18T16:21:36.000Z</time>
      </trkpt>
      <trkpt lat="42.70549" lon="1.6645">
        <ele>1100</ele>
        <time>2018-11-18T16:21:38.000Z</time>
      </trkpt>
      <trkpt lat="42.70549" lon="1.66453">
        <ele>1099</ele>
        <time>2018-11-18T16:21:40.000Z</time>
      </trkpt>
      <trkpt lat="42.70549" lon="1.66456">
        <ele>1099</ele>
        <time>2018-11-18T16:21:42.000Z</time>
      </trkpt>
      <trkpt lat="42.70548" lon="1.66459">
        <ele>1099</ele>
        <time>2018-11-18T16:21:44.000Z</time>
      </trkpt>
      <trkpt lat="42.70546" lon="1.66461">
        <ele>1099</ele>
        <time>2018-11-18T16:21:46.000Z</time>
      </trkpt>
      <trkpt lat="42.70544" lon="1.66463">
        <ele>1099</ele>
        <time>2018-11-18T16:21:48.000Z</time>
      </trkpt>
      <trkpt lat="42.70542" lon="1.66464">
        <ele>1099</ele>
        <time>2018-11-18T16:21:50.000Z</time>
      </trkpt>
      <trkpt lat="42.7054" lon="1.66466">
        <ele>1099</ele>
        <time>2018-11-18T16:21:52.000Z</time>
      </trkpt>
      <trkpt lat="42.70538" lon="1.66468">
        <ele>1099</ele>
        <time>2018-11-18T16:21:54.000Z</time>
      </trkpt>
      <trkpt lat="42.70536" lon="1.66469">
        <ele>1099</ele>
        <time>2018-11-18T16:21:56.000Z</time>
      </trkpt>
      <trkpt lat="42.70533" lon="1.6647">
        <ele>1100</ele>
        <time>2018-11-18T16:21:58.000Z</time>
      </trkpt>
      <trkpt lat="42.70531" lon="1.66471">
        <ele>1100</ele>
        <time>2018-11-18T16:22:00.000Z</time>
      </trkpt>
      <trkpt lat="42.70528" lon="1.66472">
        <ele>1100</ele>
        <time>2018-11-18T16:22:02.000Z</time>
      </trkpt>
      <trkpt lat="42.70525" lon="1.66472">
        <ele>1101</ele>
        <time>2018-11-18T16:22:04.000Z</time>
      </trkpt>
      <trkpt lat="42.70523" lon="1.66473">
        <ele>1101</ele>
        <time>2018-11-18T16:22:06.000Z</time>
      </trkpt>
      <trkpt lat="42.7052" lon="1.66473">
        <ele>1101</ele>
        <time>2018-11-18T16:22:08.000Z</time>
      </trkpt>
      <trkpt lat="42.70518" lon="1.66473">
        <ele>1101</ele>
        <time>2018-11-18T16:22:10.000Z</time>
      </trkpt>
      <trkpt lat="42.70516" lon="1.66473">
        <ele>1102</ele>
        <time>2018-11-18T16:22:12.000Z</time>
      </trkpt>
      <trkpt lat="42.70514" lon="1.66473">
        <ele>1102</ele>
        <time>2018-11-18T16:22:14.000Z</time>
      </trkpt>
      <trkpt lat="42.70511" lon="1.66473">
        <ele>1102</ele>
        <time>2018-11-18T16:22:16.000Z</time>
      </trkpt>
      <trkpt lat="42.70509" lon="1.66472">
        <ele>1103</ele>
        <time>2018-11-18T16:22:18.000Z</time>
      </trkpt>
      <trkpt lat="42.70506" lon="1.66472">
        <ele>1103</ele>
        <time>2018-11-18T16:22:20.000Z</time>
      </trkpt>
      <trkpt lat="42.70504" lon="1.66471">
        <ele>1103</ele>
        <time>2018-11-18T16:22:22.000Z</time>
      </trkpt>
      <trkpt lat="42.70501" lon="1.66471">
        <ele>1104</ele>
        <time>2018-11-18T16:22:24.000Z</time>
      </trkpt>
      <trkpt lat="42.70499" lon="1.66471">
        <ele>1105</ele>
        <time>2018-11-18T16:22:26.000Z</time>
      </trkpt>
      <trkpt lat="42.70496" lon="1.6647">
        <ele>1106</ele>
        <time>2018-11-18T16:22:28.000Z</time>
      </trkpt>
      <trkpt lat="42.70493" lon="1.66469">
        <ele>1107</ele>
        <time>2018-11-18T16:22:30.000Z</time>
      </trkpt>
      <trkpt lat="42.70491" lon="1.6647">
        <ele>1108</ele>
        <time>2018-11-18T16:22:32.000Z</time>
      </trkpt>
      <trkpt lat="42.70489" lon="1.66471">
        <ele>1109</ele>
        <time>2018-11-18T16:22:34.000Z</time>
      </trkpt>
      <trkpt lat="42.70489" lon="1.66473">
        <ele>1109</ele>
        <time>2018-11-18T16:22:36.000Z</time>
      </trkpt>
      <trkpt lat="42.70489" lon="1.66475">
        <ele>1109</ele>
        <time>2018-11-18T16:22:38.000Z</time>
      </trkpt>
      <trkpt lat="42.70489" lon="1.66476">
        <ele>1109</ele>
        <time>2018-11-18T16:22:40.000Z</time>
      </trkpt>
      <trkpt lat="42.70488" lon="1.66476">
        <ele>1109</ele>
        <time>2018-11-18T16:22:42.000Z</time>
      </trkpt>
      <trkpt lat="42.70488" lon="1.66476">
        <ele>1109</ele>
        <time>2018-11-18T16:22:44.000Z</time>
      </trkpt>
      <trkpt lat="42.70488" lon="1.66475">
        <ele>1109</ele>
        <time>2018-11-18T16:22:46.000Z</time>
      </trkpt>
      <trkpt lat="42.70487" lon="1.66475">
        <ele>1109</ele>
        <time>2018-11-18T16:22:48.000Z</time>
      </trkpt>
      <trkpt lat="42.70487" lon="1.66475">
        <ele>1109</ele>
        <time>2018-11-18T16:22:50.000Z</time>
      </trkpt>
      <trkpt lat="42.70486" lon="1.66475">
        <ele>1109</ele>
        <time>2018-11-18T16:22:52.000Z</time>
      </trkpt>
      <trkpt lat="42.70487" lon="1.66475">
        <ele>1109</ele>
        <time>2018-11-18T16:22:54.000Z</time>
      </trkpt>
      <trkpt lat="42.70487" lon="1.66475">
        <ele>1109</ele>
        <time>2018-11-18T16:22:56.000Z</time>
      </trkpt>
      <trkpt lat="42.70486" lon="1.66475">
        <ele>1109</ele>
        <time>2018-11-18T16:22:58.000Z</time>
      </trkpt>
      <trkpt lat="42.70486" lon="1.66475">
        <ele>1110</ele>
        <time>2018-11-18T16:23:00.000Z</time>
      </trkpt>
      <trkpt lat="42.70487" lon="1.66473">
        <ele>1109</ele>
        <time>2018-11-18T16:23:02.000Z</time>
      </trkpt>
      <trkpt lat="42.70488" lon="1.66472">
        <ele>1109</ele>
        <time>2018-11-18T16:23:04.000Z</time>
      </trkpt>
      <trkpt lat="42.7049" lon="1.66471">
        <ele>1109</ele>
        <time>2018-11-18T16:23:06.000Z</time>
      </trkpt>
      <trkpt lat="42.7049" lon="1.66471">
        <ele>1109</ele>
        <time>2018-11-18T16:23:08.000Z</time>
      </trkpt>
      <trkpt lat="42.7049" lon="1.66471">
        <ele>1109</ele>
        <time>2018-11-18T16:23:10.000Z</time>
      </trkpt>
      <trkpt lat="42.70489" lon="1.6647">
        <ele>1109</ele>
        <time>2018-11-18T16:23:12.000Z</time>
      </trkpt>
      <trkpt lat="42.70489" lon="1.6647">
        <ele>1109</ele>
        <time>2018-11-18T16:23:14.000Z</time>
      </trkpt>
      <trkpt lat="42.70489" lon="1.6647">
        <ele>1109</ele>
        <time>2018-11-18T16:23:16.000Z</time>
      </trkpt>
      <trkpt lat="42.70489" lon="1.6647">
        <ele>1109</ele>
        <time>2018-11-18T16:23:18.000Z</time>
      </trkpt>
      <trkpt lat="42.70489" lon="1.66471">
        <ele>1109</ele>
        <time>2018-11-18T16:23:20.000Z</time>
      </trkpt>
      <trkpt lat="42.70489" lon="1.66472">
        <ele>1109</ele>
        <time>2018-11-18T16:23:22.000Z</time>
      </trkpt>
      <trkpt lat="42.70488" lon="1.66472">
        <ele>1109</ele>
        <time>2018-11-18T16:23:24.000Z</time>
      </trkpt>
      <trkpt lat="42.70488" lon="1.66471">
        <ele>1109</ele>
        <time>2018-11-18T16:23:26.000Z</time>
      </trkpt>
      <trkpt lat="42.70488" lon="1.66466">
        <ele>1110</ele>
        <time>2018-11-18T16:23:28.000Z</time>
      </trkpt>
      <trkpt lat="42.7049" lon="1.66465">
        <ele>1109</ele>
        <time>2018-11-18T16:23:30.000Z</time>
      </trkpt>
      <trkpt lat="42.70492" lon="1.66464">
        <ele>1108</ele>
        <time>2018-11-18T16:23:32.000Z</time>
      </trkpt>
      <trkpt lat="42.70495" lon="1.66463">
        <ele>1107</ele>
        <time>2018-11-18T16:23:34.000Z</time>
      </trkpt>
      <trkpt lat="42.70498" lon="1.66464">
        <ele>1106</ele>
        <time>2018-11-18T16:23:36.000Z</time>
      </trkpt>
      <trkpt lat="42.705" lon="1.66464">
        <ele>1106</ele>
        <time>2018-11-18T16:23:38.000Z</time>
      </trkpt>
      <trkpt lat="42.70502" lon="1.66465">
        <ele>1105</ele>
        <time>2018-11-18T16:23:40.000Z</time>
      </trkpt>
      <trkpt lat="42.70505" lon="1.66465">
        <ele>1104</ele>
        <time>2018-11-18T16:23:42.000Z</time>
      </trkpt>
      <trkpt lat="42.70507" lon="1.66465">
        <ele>1104</ele>
        <time>2018-11-18T16:23:44.000Z</time>
      </trkpt>
      <trkpt lat="42.70509" lon="1.66464">
        <ele>1103</ele>
        <time>2018-11-18T16:23:46.000Z</time>
      </trkpt>
      <trkpt lat="42.7051" lon="1.66464">
        <ele>1103</ele>
        <time>2018-11-18T16:23:48.000Z</time>
      </trkpt>
      <trkpt lat="42.70512" lon="1.66464">
        <ele>1103</ele>
        <time>2018-11-18T16:23:50.000Z</time>
      </trkpt>
      <trkpt lat="42.70515" lon="1.66464">
        <ele>1103</ele>
        <time>2018-11-18T16:23:52.000Z</time>
      </trkpt>
      <trkpt lat="42.70518" lon="1.66464">
        <ele>1102</ele>
        <time>2018-11-18T16:23:54.000Z</time>
      </trkpt>
      <trkpt lat="42.70521" lon="1.66463">
        <ele>1102</ele>
        <time>2018-11-18T16:23:56.000Z</time>
      </trkpt>
      <trkpt lat="42.70523" lon="1.66463">
        <ele>1102</ele>
        <time>2018-11-18T16:23:58.000Z</time>
      </trkpt>
      <trkpt lat="42.70525" lon="1.66461">
        <ele>1102</ele>
        <time>2018-11-18T16:24:00.000Z</time>
      </trkpt>
      <trkpt lat="42.70527" lon="1.66459">
        <ele>1101</ele>
        <time>2018-11-18T16:24:02.000Z</time>
      </trkpt>
      <trkpt lat="42.70529" lon="1.66457">
        <ele>1101</ele>
        <time>2018-11-18T16:24:04.000Z</time>
      </trkpt>
      <trkpt lat="42.7053" lon="1.66457">
        <ele>1101</ele>
        <time>2018-11-18T16:24:06.000Z</time>
      </trkpt>
      <trkpt lat="42.70531" lon="1.66455">
        <ele>1101</ele>
        <time>2018-11-18T16:24:08.000Z</time>
      </trkpt>
      <trkpt lat="42.70534" lon="1.66454">
        <ele>1101</ele>
        <time>2018-11-18T16:24:10.000Z</time>
      </trkpt>
      <trkpt lat="42.70535" lon="1.66453">
        <ele>1101</ele>
        <time>2018-11-18T16:24:12.000Z</time>
      </trkpt>
      <trkpt lat="42.70536" lon="1.66452">
        <ele>1101</ele>
        <time>2018-11-18T16:24:14.000Z</time>
      </trkpt>
      <trkpt lat="42.70537" lon="1.66451">
        <ele>1101</ele>
        <time>2018-11-18T16:24:16.000Z</time>
      </trkpt>
      <trkpt lat="42.70537" lon="1.66449">
        <ele>1101</ele>
        <time>2018-11-18T16:24:18.000Z</time>
      </trkpt>
      <trkpt lat="42.70537" lon="1.66447">
        <ele>1101</ele>
        <time>2018-11-18T16:24:20.000Z</time>
      </trkpt>
      <trkpt lat="42.70536" lon="1.66445">
        <ele>1102</ele>
        <time>2018-11-18T16:24:22.000Z</time>
      </trkpt>
      <trkpt lat="42.70536" lon="1.66443">
        <ele>1102</ele>
        <time>2018-11-18T16:24:24.000Z</time>
      </trkpt>
      <trkpt lat="42.70536" lon="1.66439">
        <ele>1102</ele>
        <time>2018-11-18T16:24:26.000Z</time>
      </trkpt>
      <trkpt lat="42.70535" lon="1.66436">
        <ele>1103</ele>
        <time>2018-11-18T16:24:28.000Z</time>
      </trkpt>
      <trkpt lat="42.70534" lon="1.66433">
        <ele>1103</ele>
        <time>2018-11-18T16:24:30.000Z</time>
      </trkpt>
      <trkpt lat="42.70536" lon="1.6643">
        <ele>1103</ele>
        <time>2018-11-18T16:24:32.000Z</time>
      </trkpt>
      <trkpt lat="42.70538" lon="1.66427">
        <ele>1102</ele>
        <time>2018-11-18T16:24:34.000Z</time>
      </trkpt>
      <trkpt lat="42.70539" lon="1.66423">
        <ele>1102</ele>
        <time>2018-11-18T16:24:36.000Z</time>
      </trkpt>
      <trkpt lat="42.7054" lon="1.6642">
        <ele>1102</ele>
        <time>2018-11-18T16:24:38.000Z</time>
      </trkpt>
      <trkpt lat="42.7054" lon="1.66418">
        <ele>1102</ele>
        <time>2018-11-18T16:24:40.000Z</time>
      </trkpt>
      <trkpt lat="42.70541" lon="1.66415">
        <ele>1102</ele>
        <time>2018-11-18T16:24:42.000Z</time>
      </trkpt>
      <trkpt lat="42.70543" lon="1.66413">
        <ele>1102</ele>
        <time>2018-11-18T16:24:44.000Z</time>
      </trkpt>
      <trkpt lat="42.70544" lon="1.66413">
        <ele>1102</ele>
        <time>2018-11-18T16:24:46.000Z</time>
      </trkpt>
      <trkpt lat="42.70546" lon="1.6641">
        <ele>1101</ele>
        <time>2018-11-18T16:24:48.000Z</time>
      </trkpt>
      <trkpt lat="42.70547" lon="1.66408">
        <ele>1101</ele>
        <time>2018-11-18T16:24:50.000Z</time>
      </trkpt>
      <trkpt lat="42.70547" lon="1.66406">
        <ele>1101</ele>
        <time>2018-11-18T16:24:52.000Z</time>
      </trkpt>
      <trkpt lat="42.70546" lon="1.66404">
        <ele>1102</ele>
        <time>2018-11-18T16:24:54.000Z</time>
      </trkpt>
      <trkpt lat="42.70546" lon="1.66404">
        <ele>1102</ele>
        <time>2018-11-18T16:24:56.000Z</time>
      </trkpt>
      <trkpt lat="42.70546" lon="1.66404">
        <ele>1102</ele>
        <time>2018-11-18T16:24:58.000Z</time>
      </trkpt>
      <trkpt lat="42.70546" lon="1.66403">
        <ele>1102</ele>
        <time>2018-11-18T16:25:00.000Z</time>
      </trkpt>
      <trkpt lat="42.70546" lon="1.66403">
        <ele>1102</ele>
        <time>2018-11-18T16:25:02.000Z</time>
      </trkpt>
      <trkpt lat="42.70546" lon="1.66402">
        <ele>1102</ele>
        <time>2018-11-18T16:25:04.000Z</time>
      </trkpt>
      <trkpt lat="42.70546" lon="1.66402">
        <ele>1102</ele>
        <time>2018-11-18T16:25:06.000Z</time>
      </trkpt>
      <trkpt lat="42.70547" lon="1.66402">
        <ele>1102</ele>
        <time>2018-11-18T16:25:08.000Z</time>
      </trkpt>
      <trkpt lat="42.70548" lon="1.66402">
        <ele>1102</ele>
        <time>2018-11-18T16:25:10.000Z</time>
      </trkpt>
      <trkpt lat="42.70548" lon="1.66402">
        <ele>1102</ele>
        <time>2018-11-18T16:25:12.000Z</time>
      </trkpt>
      <trkpt lat="42.70547" lon="1.66403">
        <ele>1102</ele>
        <time>2018-11-18T16:25:14.000Z</time>
      </trkpt>
      <trkpt lat="42.70547" lon="1.66401">
        <ele>1102</ele>
        <time>2018-11-18T16:25:16.000Z</time>
      </trkpt>
      <trkpt lat="42.70546" lon="1.66401">
        <ele>1102</ele>
        <time>2018-11-18T16:25:18.000Z</time>
      </trkpt>
      <trkpt lat="42.70545" lon="1.664">
        <ele>1103</ele>
        <time>2018-11-18T16:25:20.000Z</time>
      </trkpt>
      <trkpt lat="42.70543" lon="1.664">
        <ele>1103</ele>
        <time>2018-11-18T16:25:22.000Z</time>
      </trkpt>
      <trkpt lat="42.70542" lon="1.664">
        <ele>1104</ele>
        <time>2018-11-18T16:25:24.000Z</time>
      </trkpt>
      <trkpt lat="42.70541" lon="1.664">
        <ele>1104</ele>
        <time>2018-11-18T16:25:26.000Z</time>
      </trkpt>
      <trkpt lat="42.7054" lon="1.66399">
        <ele>1104</ele>
        <time>2018-11-18T16:25:28.000Z</time>
      </trkpt>
      <trkpt lat="42.70538" lon="1.66396">
        <ele>1105</ele>
        <time>2018-11-18T16:25:30.000Z</time>
      </trkpt>
      <trkpt lat="42.70537" lon="1.66395">
        <ele>1106</ele>
        <time>2018-11-18T16:25:32.000Z</time>
      </trkpt>
      <trkpt lat="42.70536" lon="1.66393">
        <ele>1107</ele>
        <time>2018-11-18T16:25:34.000Z</time>
      </trkpt>
      <trkpt lat="42.70535" lon="1.66392">
        <ele>1107</ele>
        <time>2018-11-18T16:25:36.000Z</time>
      </trkpt>
      <trkpt lat="42.70534" lon="1.6639">
        <ele>1108</ele>
        <time>2018-11-18T16:25:38.000Z</time>
      </trkpt>
      <trkpt lat="42.70534" lon="1.66389">
        <ele>1108</ele>
        <time>2018-11-18T16:25:40.000Z</time>
      </trkpt>
      <trkpt lat="42.70533" lon="1.66388">
        <ele>1109</ele>
        <time>2018-11-18T16:25:42.000Z</time>
      </trkpt>
      <trkpt lat="42.70533" lon="1.66389">
        <ele>1109</ele>
        <time>2018-11-18T16:25:44.000Z</time>
      </trkpt>
      <trkpt lat="42.70533" lon="1.6639">
        <ele>1108</ele>
        <time>2018-11-18T16:25:46.000Z</time>
      </trkpt>
      <trkpt lat="42.70533" lon="1.6639">
        <ele>1108</ele>
        <time>2018-11-18T16:25:48.000Z</time>
      </trkpt>
      <trkpt lat="42.70533" lon="1.66391">
        <ele>1108</ele>
        <time>2018-11-18T16:25:50.000Z</time>
      </trkpt>
      <trkpt lat="42.70532" lon="1.66392">
        <ele>1108</ele>
        <time>2018-11-18T16:25:52.000Z</time>
      </trkpt>
      <trkpt lat="42.70532" lon="1.66392">
        <ele>1108</ele>
        <time>2018-11-18T16:25:54.000Z</time>
      </trkpt>
      <trkpt lat="42.70532" lon="1.66392">
        <ele>1108</ele>
        <time>2018-11-18T16:25:56.000Z</time>
      </trkpt>
      <trkpt lat="42.70531" lon="1.66392">
        <ele>1108</ele>
        <time>2018-11-18T16:25:58.000Z</time>
      </trkpt>
      <trkpt lat="42.70531" lon="1.66393">
        <ele>1108</ele>
        <time>2018-11-18T16:26:00.000Z</time>
      </trkpt>
      <trkpt lat="42.7053" lon="1.66393">
        <ele>1108</ele>
        <time>2018-11-18T16:26:02.000Z</time>
      </trkpt>
      <trkpt lat="42.70529" lon="1.66393">
        <ele>1108</ele>
        <time>2018-11-18T16:26:04.000Z</time>
      </trkpt>
      <trkpt lat="42.70528" lon="1.66394">
        <ele>1108</ele>
        <time>2018-11-18T16:26:06.000Z</time>
      </trkpt>
      <trkpt lat="42.70528" lon="1.66394">
        <ele>1108</ele>
        <time>2018-11-18T16:26:08.000Z</time>
      </trkpt>
      <trkpt lat="42.70528" lon="1.66394">
        <ele>1108</ele>
        <time>2018-11-18T16:26:10.000Z</time>
      </trkpt>
      <trkpt lat="42.70529" lon="1.66393">
        <ele>1108</ele>
        <time>2018-11-18T16:26:12.000Z</time>
      </trkpt>
      <trkpt lat="42.70529" lon="1.66393">
        <ele>1108</ele>
        <time>2018-11-18T16:26:14.000Z</time>
      </trkpt>
      <trkpt lat="42.70529" lon="1.66392">
        <ele>1108</ele>
        <time>2018-11-18T16:26:16.000Z</time>
      </trkpt>
      <trkpt lat="42.7053" lon="1.66392">
        <ele>1108</ele>
        <time>2018-11-18T16:26:18.000Z</time>
      </trkpt>
      <trkpt lat="42.70531" lon="1.66392">
        <ele>1108</ele>
        <time>2018-11-18T16:26:20.000Z</time>
      </trkpt>
      <trkpt lat="42.7053" lon="1.66391">
        <ele>1108</ele>
        <time>2018-11-18T16:26:22.000Z</time>
      </trkpt>
      <trkpt lat="42.70531" lon="1.6639">
        <ele>1109</ele>
        <time>2018-11-18T16:26:24.000Z</time>
      </trkpt>
      <trkpt lat="42.70532" lon="1.66388">
        <ele>1109</ele>
        <time>2018-11-18T16:26:26.000Z</time>
      </trkpt>
      <trkpt lat="42.70531" lon="1.66389">
        <ele>1109</ele>
        <time>2018-11-18T16:26:28.000Z</time>
      </trkpt>
      <trkpt lat="42.70531" lon="1.66388">
        <ele>1109</ele>
        <time>2018-11-18T16:26:30.000Z</time>
      </trkpt>
      <trkpt lat="42.7053" lon="1.66388">
        <ele>1109</ele>
        <time>2018-11-18T16:26:32.000Z</time>
      </trkpt>
      <trkpt lat="42.7053" lon="1.66387">
        <ele>1110</ele>
        <time>2018-11-18T16:26:34.000Z</time>
      </trkpt>
      <trkpt lat="42.7053" lon="1.66386">
        <ele>1110</ele>
        <time>2018-11-18T16:26:36.000Z</time>
      </trkpt>
      <trkpt lat="42.70531" lon="1.66386">
        <ele>1110</ele>
        <time>2018-11-18T16:26:38.000Z</time>
      </trkpt>
      <trkpt lat="42.70533" lon="1.66387">
        <ele>1109</ele>
        <time>2018-11-18T16:26:40.000Z</time>
      </trkpt>
      <trkpt lat="42.70534" lon="1.66388">
        <ele>1108</ele>
        <time>2018-11-18T16:26:42.000Z</time>
      </trkpt>
      <trkpt lat="42.70536" lon="1.6639">
        <ele>1108</ele>
        <time>2018-11-18T16:26:44.000Z</time>
      </trkpt>
      <trkpt lat="42.70537" lon="1.6639">
        <ele>1107</ele>
        <time>2018-11-18T16:26:46.000Z</time>
      </trkpt>
      <trkpt lat="42.70539" lon="1.66391">
        <ele>1107</ele>
        <time>2018-11-18T16:26:48.000Z</time>
      </trkpt>
      <trkpt lat="42.7054" lon="1.66392">
        <ele>1106</ele>
        <time>2018-11-18T16:26:50.000Z</time>
      </trkpt>
      <trkpt lat="42.70542" lon="1.66393">
        <ele>1106</ele>
        <time>2018-11-18T16:26:52.000Z</time>
      </trkpt>
      <trkpt lat="42.70544" lon="1.66393">
        <ele>1105</ele>
        <time>2018-11-18T16:26:54.000Z</time>
      </trkpt>
      <trkpt lat="42.70545" lon="1.66393">
        <ele>1105</ele>
        <time>2018-11-18T16:26:56.000Z</time>
      </trkpt>
      <trkpt lat="42.70546" lon="1.66395">
        <ele>1104</ele>
        <time>2018-11-18T16:26:58.000Z</time>
      </trkpt>
      <trkpt lat="42.70546" lon="1.66395">
        <ele>1104</ele>
        <time>2018-11-18T16:27:00.000Z</time>
      </trkpt>
      <trkpt lat="42.70547" lon="1.66395">
        <ele>1104</ele>
        <time>2018-11-18T16:27:02.000Z</time>
      </trkpt>
      <trkpt lat="42.70547" lon="1.66396">
        <ele>1104</ele>
        <time>2018-11-18T16:27:04.000Z</time>
      </trkpt>
      <trkpt lat="42.70547" lon="1.66397">
        <ele>1103</ele>
        <time>2018-11-18T16:27:06.000Z</time>
      </trkpt>
      <trkpt lat="42.70547" lon="1.66398">
        <ele>1103</ele>
        <time>2018-11-18T16:27:08.000Z</time>
      </trkpt>
      <trkpt lat="42.70547" lon="1.66398">
        <ele>1103</ele>
        <time>2018-11-18T16:27:10.000Z</time>
      </trkpt>
      <trkpt lat="42.70548" lon="1.664">
        <ele>1102</ele>
        <time>2018-11-18T16:27:12.000Z</time>
      </trkpt>
      <trkpt lat="42.70548" lon="1.66402">
        <ele>1102</ele>
        <time>2018-11-18T16:27:14.000Z</time>
      </trkpt>
      <trkpt lat="42.70548" lon="1.66406">
        <ele>1101</ele>
        <time>2018-11-18T16:27:16.000Z</time>
      </trkpt>
      <trkpt lat="42.70546" lon="1.66408">
        <ele>1102</ele>
        <time>2018-11-18T16:27:18.000Z</time>
      </trkpt>
      <trkpt lat="42.70544" lon="1.6641">
        <ele>1102</ele>
        <time>2018-11-18T16:27:20.000Z</time>
      </trkpt>
      <trkpt lat="42.70543" lon="1.66412">
        <ele>1102</ele>
        <time>2018-11-18T16:27:22.000Z</time>
      </trkpt>
      <trkpt lat="42.70543" lon="1.66413">
        <ele>1102</ele>
        <time>2018-11-18T16:27:24.000Z</time>
      </trkpt>
      <trkpt lat="42.70543" lon="1.66415">
        <ele>1102</ele>
        <time>2018-11-18T16:27:26.000Z</time>
      </trkpt>
      <trkpt lat="42.70542" lon="1.66419">
        <ele>1102</ele>
        <time>2018-11-18T16:27:28.000Z</time>
      </trkpt>
      <trkpt lat="42.70542" lon="1.66422">
        <ele>1102</ele>
        <time>2018-11-18T16:27:30.000Z</time>
      </trkpt>
      <trkpt lat="42.70542" lon="1.66425">
        <ele>1102</ele>
        <time>2018-11-18T16:27:32.000Z</time>
      </trkpt>
      <trkpt lat="42.70542" lon="1.66428">
        <ele>1102</ele>
        <time>2018-11-18T16:27:34.000Z</time>
      </trkpt>
      <trkpt lat="42.70543" lon="1.6643">
        <ele>1101</ele>
        <time>2018-11-18T16:27:36.000Z</time>
      </trkpt>
      <trkpt lat="42.70542" lon="1.66432">
        <ele>1101</ele>
        <time>2018-11-18T16:27:38.000Z</time>
      </trkpt>
      <trkpt lat="42.70542" lon="1.66434">
        <ele>1101</ele>
        <time>2018-11-18T16:27:40.000Z</time>
      </trkpt>
      <trkpt lat="42.70542" lon="1.66436">
        <ele>1101</ele>
        <time>2018-11-18T16:27:42.000Z</time>
      </trkpt>
      <trkpt lat="42.70542" lon="1.66439">
        <ele>1101</ele>
        <time>2018-11-18T16:27:44.000Z</time>
      </trkpt>
      <trkpt lat="42.70542" lon="1.66441">
        <ele>1101</ele>
        <time>2018-11-18T16:27:46.000Z</time>
      </trkpt>
      <trkpt lat="42.70543" lon="1.66444">
        <ele>1101</ele>
        <time>2018-11-18T16:27:48.000Z</time>
      </trkpt>
      <trkpt lat="42.70543" lon="1.66446">
        <ele>1101</ele>
        <time>2018-11-18T16:27:50.000Z</time>
      </trkpt>
      <trkpt lat="42.70543" lon="1.66449">
        <ele>1100</ele>
        <time>2018-11-18T16:27:52.000Z</time>
      </trkpt>
      <trkpt lat="42.70544" lon="1.66452">
        <ele>1100</ele>
        <time>2018-11-18T16:27:54.000Z</time>
      </trkpt>
      <trkpt lat="42.70542" lon="1.66456">
        <ele>1100</ele>
        <time>2018-11-18T16:27:56.000Z</time>
      </trkpt>
      <trkpt lat="42.7054" lon="1.66458">
        <ele>1100</ele>
        <time>2018-11-18T16:27:58.000Z</time>
      </trkpt>
      <trkpt lat="42.70538" lon="1.66459">
        <ele>1100</ele>
        <time>2018-11-18T16:28:00.000Z</time>
      </trkpt>
      <trkpt lat="42.70537" lon="1.66462">
        <ele>1100</ele>
        <time>2018-11-18T16:28:02.000Z</time>
      </trkpt>
      <trkpt lat="42.70534" lon="1.66463">
        <ele>1100</ele>
        <time>2018-11-18T16:28:04.000Z</time>
      </trkpt>
      <trkpt lat="42.70532" lon="1.66464">
        <ele>1100</ele>
        <time>2018-11-18T16:28:06.000Z</time>
      </trkpt>
      <trkpt lat="42.7053" lon="1.66466">
        <ele>1100</ele>
        <time>2018-11-18T16:28:08.000Z</time>
      </trkpt>
      <trkpt lat="42.70528" lon="1.66468">
        <ele>1101</ele>
        <time>2018-11-18T16:28:10.000Z</time>
      </trkpt>
      <trkpt lat="42.70525" lon="1.66468">
        <ele>1101</ele>
        <time>2018-11-18T16:28:12.000Z</time>
      </trkpt>
      <trkpt lat="42.70522" lon="1.66469">
        <ele>1101</ele>
        <time>2018-11-18T16:28:14.000Z</time>
      </trkpt>
      <trkpt lat="42.7052" lon="1.66469">
        <ele>1101</ele>
        <time>2018-11-18T16:28:16.000Z</time>
      </trkpt>
      <trkpt lat="42.70518" lon="1.66469">
        <ele>1102</ele>
        <time>2018-11-18T16:28:18.000Z</time>
      </trkpt>
      <trkpt lat="42.70515" lon="1.66469">
        <ele>1102</ele>
        <time>2018-11-18T16:28:20.000Z</time>
      </trkpt>
      <trkpt lat="42.70514" lon="1.66469">
        <ele>1102</ele>
        <time>2018-11-18T16:28:22.000Z</time>
      </trkpt>
      <trkpt lat="42.70512" lon="1.6647">
        <ele>1102</ele>
        <time>2018-11-18T16:28:24.000Z</time>
      </trkpt>
      <trkpt lat="42.7051" lon="1.6647">
        <ele>1103</ele>
        <time>2018-11-18T16:28:26.000Z</time>
      </trkpt>
      <trkpt lat="42.70508" lon="1.66468">
        <ele>1103</ele>
        <time>2018-11-18T16:28:28.000Z</time>
      </trkpt>
      <trkpt lat="42.70506" lon="1.66469">
        <ele>1103</ele>
        <time>2018-11-18T16:28:30.000Z</time>
      </trkpt>
      <trkpt lat="42.70503" lon="1.66469">
        <ele>1104</ele>
        <time>2018-11-18T16:28:32.000Z</time>
      </trkpt>
      <trkpt lat="42.70501" lon="1.66468">
        <ele>1105</ele>
        <time>2018-11-18T16:28:34.000Z</time>
      </trkpt>
      <trkpt lat="42.70499" lon="1.66468">
        <ele>1105</ele>
        <time>2018-11-18T16:28:36.000Z</time>
      </trkpt>
      <trkpt lat="42.70497" lon="1.66466">
        <ele>1106</ele>
        <time>2018-11-18T16:28:38.000Z</time>
      </trkpt>
      <trkpt lat="42.70495" lon="1.66466">
        <ele>1107</ele>
        <time>2018-11-18T16:28:40.000Z</time>
      </trkpt>
      <trkpt lat="42.70493" lon="1.66464">
        <ele>1108</ele>
        <time>2018-11-18T16:28:42.000Z</time>
      </trkpt>
      <trkpt lat="42.70491" lon="1.66464">
        <ele>1109</ele>
        <time>2018-11-18T16:28:44.000Z</time>
      </trkpt>
      <trkpt lat="42.7049" lon="1.66464">
        <ele>1109</ele>
        <time>2018-11-18T16:28:46.000Z</time>
      </trkpt>
      <trkpt lat="42.70489" lon="1.66466">
        <ele>1110</ele>
        <time>2018-11-18T16:28:48.000Z</time>
      </trkpt>
      <trkpt lat="42.70488" lon="1.66468">
        <ele>1110</ele>
        <time>2018-11-18T16:28:50.000Z</time>
      </trkpt>
      <trkpt lat="42.70487" lon="1.6647">
        <ele>1110</ele>
        <time>2018-11-18T16:28:52.000Z</time>
      </trkpt>
      <trkpt lat="42.70487" lon="1.6647">
        <ele>1110</ele>
        <time>2018-11-18T16:28:54.000Z</time>
      </trkpt>
      <trkpt lat="42.70487" lon="1.6647">
        <ele>1110</ele>
        <time>2018-11-18T16:28:56.000Z</time>
      </trkpt>
      <trkpt lat="42.70487" lon="1.66471">
        <ele>1110</ele>
        <time>2018-11-18T16:28:58.000Z</time>
      </trkpt>
      <trkpt lat="42.70486" lon="1.66471">
        <ele>1110</ele>
        <time>2018-11-18T16:29:00.000Z</time>
      </trkpt>
      <trkpt lat="42.70486" lon="1.6647">
        <ele>1110</ele>
        <time>2018-11-18T16:29:02.000Z</time>
      </trkpt>
      <trkpt lat="42.70485" lon="1.6647">
        <ele>1110</ele>
        <time>2018-11-18T16:29:04.000Z</time>
      </trkpt>
      <trkpt lat="42.70485" lon="1.6647">
        <ele>1110</ele>
        <time>2018-11-18T16:29:06.000Z</time>
      </trkpt>
      <trkpt lat="42.70484" lon="1.6647">
        <ele>1111</ele>
        <time>2018-11-18T16:29:08.000Z</time>
      </trkpt>
      <trkpt lat="42.70483" lon="1.66469">
        <ele>1111</ele>
        <time>2018-11-18T16:29:10.000Z</time>
      </trkpt>
      <trkpt lat="42.70483" lon="1.6647">
        <ele>1111</ele>
        <time>2018-11-18T16:29:12.000Z</time>
      </trkpt>
      <trkpt lat="42.70483" lon="1.6647">
        <ele>1111</ele>
        <time>2018-11-18T16:29:14.000Z</time>
      </trkpt>
      <trkpt lat="42.70483" lon="1.6647">
        <ele>1111</ele>
        <time>2018-11-18T16:29:16.000Z</time>
      </trkpt>
      <trkpt lat="42.70484" lon="1.66469">
        <ele>1111</ele>
        <time>2018-11-18T16:29:18.000Z</time>
      </trkpt>
      <trkpt lat="42.70483" lon="1.66469">
        <ele>1111</ele>
        <time>2018-11-18T16:29:20.000Z</time>
      </trkpt>
      <trkpt lat="42.70484" lon="1.66468">
        <ele>1111</ele>
        <time>2018-11-18T16:29:22.000Z</time>
      </trkpt>
      <trkpt lat="42.70484" lon="1.66469">
        <ele>1111</ele>
        <time>2018-11-18T16:29:24.000Z</time>
      </trkpt>
      <trkpt lat="42.70484" lon="1.66469">
        <ele>1111</ele>
        <time>2018-11-18T16:29:26.000Z</time>
      </trkpt>
      <trkpt lat="42.70483" lon="1.66469">
        <ele>1111</ele>
        <time>2018-11-18T16:29:28.000Z</time>
      </trkpt>
      <trkpt lat="42.70484" lon="1.6647">
        <ele>1111</ele>
        <time>2018-11-18T16:29:30.000Z</time>
      </trkpt>
      <trkpt lat="42.70483" lon="1.6647">
        <ele>1111</ele>
        <time>2018-11-18T16:29:32.000Z</time>
      </trkpt>
      <trkpt lat="42.70483" lon="1.6647">
        <ele>1111</ele>
        <time>2018-11-18T16:29:34.000Z</time>
      </trkpt>
      <trkpt lat="42.70483" lon="1.6647">
        <ele>1111</ele>
        <time>2018-11-18T16:29:36.000Z</time>
      </trkpt>
      <trkpt lat="42.70484" lon="1.6647">
        <ele>1111</ele>
        <time>2018-11-18T16:29:38.000Z</time>
      </trkpt>
      <trkpt lat="42.70484" lon="1.66469">
        <ele>1111</ele>
        <time>2018-11-18T16:29:40.000Z</time>
      </trkpt>
      <trkpt lat="42.70485" lon="1.66469">
        <ele>1111</ele>
        <time>2018-11-18T16:29:42.000Z</time>
      </trkpt>
      <trkpt lat="42.70485" lon="1.66469">
        <ele>1111</ele>
        <time>2018-11-18T16:29:44.000Z</time>
      </trkpt>
      <trkpt lat="42.70485" lon="1.66469">
        <ele>1111</ele>
        <time>2018-11-18T16:29:46.000Z</time>
      </trkpt>
      <trkpt lat="42.70484" lon="1.66468">
        <ele>1111</ele>
        <time>2018-11-18T16:29:48.000Z</time>
      </trkpt>
      <trkpt lat="42.70485" lon="1.66468">
        <ele>1111</ele>
        <time>2018-11-18T16:29:50.000Z</time>
      </trkpt>
      <trkpt lat="42.70484" lon="1.66469">
        <ele>1111</ele>
        <time>2018-11-18T16:29:52.000Z</time>
      </trkpt>
    </trkseg>
  </trk>
</gpx>